<?xml version='1.0' encoding='UTF-8'?><gpx version="1.1" creator="JPX - https://github.com/jenetics/jpx" xmlns="http://www.topografix.com/GPX/1/1"><trk><trkseg><trkpt lat="45.671150213304195" lon="3.1131303322468598"><ele>439.00000000000006</ele><time>2026-04-18T07:50:42Z</time></trkpt><trkpt lat="45.671117962642114" lon="3.11304645407907"><ele>439.0</ele><time>2026-04-18T07:52:18Z</time></trkpt><trkpt lat="45.67113344356846" lon="3.1128474122222243"><ele>439.0</ele><time>2026-04-18T08:09:02Z</time></trkpt><trkpt lat="45.67111184587372" lon="3.11275555216459"><ele>439.0</ele><time>2026-04-18T08:09:03Z</time></trkpt><trkpt lat="45.67106824171178" lon="3.112678008296177"><ele>439.00000000000006</ele><time>2026-04-18T08:09:07Z</time></trkpt><trkpt lat="45.67097458340009" lon="3.1126971894300386"><ele>439.0</ele><time>2026-04-18T08:09:39.999Z</time></trkpt><trkpt lat="45.67089499055433" lon="3.1127651219834696"><ele>439.2</ele><time>2026-04-18T08:09:41.999Z</time></trkpt><trkpt lat="45.67079893608005" lon="3.1128340242311023"><ele>439.4</ele><time>2026-04-18T08:09:43.999Z</time></trkpt><trkpt lat="45.670712705555935" lon="3.11289186208829"><ele>439.6</ele><time>2026-04-18T08:09:45.999Z</time></trkpt><trkpt lat="45.67063411400901" lon="3.112924059334498"><ele>439.8</ele><time>2026-04-18T08:09:47.999Z</time></trkpt><trkpt lat="45.67056847739117" lon="3.1128107042645357"><ele>440.0</ele><time>2026-04-18T08:09:56.999Z</time></trkpt><trkpt lat="45.670571621138016" lon="3.1126349620806133"><ele>440.0</ele><time>2026-04-18T08:09:58.999Z</time></trkpt><trkpt lat="45.670553377877724" lon="3.1124694801894357"><ele>440.0</ele><time>2026-04-18T08:10:00.999Z</time></trkpt><trkpt lat="45.6705486715206" lon="3.1123705886089525"><ele>440.0</ele><time>2026-04-18T08:10:01.999Z</time></trkpt><trkpt lat="45.670539478971996" lon="3.112281162775199"><ele>440.0</ele><time>2026-04-18T08:10:02.999Z</time></trkpt><trkpt lat="45.67053137862517" lon="3.1121218341025805"><ele>440.0</ele><time>2026-04-18T08:10:04.999Z</time></trkpt><trkpt lat="45.670512434477985" lon="3.111985678359322"><ele>440.8333333333333</ele><time>2026-04-18T08:10:06.999Z</time></trkpt><trkpt lat="45.67049368309591" lon="3.111848454900291"><ele>441.66666666666663</ele><time>2026-04-18T08:10:08.999Z</time></trkpt><trkpt lat="45.670460671285745" lon="3.111729104228467"><ele>442.5</ele><time>2026-04-18T08:10:10.999Z</time></trkpt><trkpt lat="45.6704181959734" lon="3.1116240778355206"><ele>443.33333333333337</ele><time>2026-04-18T08:10:12.999Z</time></trkpt><trkpt lat="45.670387680307456" lon="3.1115256869283336"><ele>444.1666666666667</ele><time>2026-04-18T08:10:14.999Z</time></trkpt><trkpt lat="45.670356982039564" lon="3.111432326965812"><ele>445.0</ele><time>2026-04-18T08:10:16.999Z</time></trkpt><trkpt lat="45.6703293276757" lon="3.1113318267284926"><ele>445.50000000000006</ele><time>2026-04-18T08:10:19.999Z</time></trkpt><trkpt lat="45.670284255844145" lon="3.1112379419169653"><ele>446.0</ele><time>2026-04-18T08:10:32.999Z</time></trkpt><trkpt lat="45.67021535744522" lon="3.111089856837804"><ele>446.5</ele><time>2026-04-18T08:10:34.999Z</time></trkpt><trkpt lat="45.67017633919154" lon="3.111005030011845"><ele>447.0</ele><time>2026-04-18T08:10:35.999Z</time></trkpt><trkpt lat="45.670132549930294" lon="3.110902303347041"><ele>447.50000000000006</ele><time>2026-04-18T08:10:36.999Z</time></trkpt><trkpt lat="45.670088342101124" lon="3.1107961533542574"><ele>448.0</ele><time>2026-04-18T08:10:37.999Z</time></trkpt><trkpt lat="45.67004135317009" lon="3.1106850580161454"><ele>448.79999999999995</ele><time>2026-04-18T08:10:38.999Z</time></trkpt><trkpt lat="45.66999545702833" lon="3.110571539876997"><ele>449.59999999999997</ele><time>2026-04-18T08:10:39.999Z</time></trkpt><trkpt lat="45.669951280477974" lon="3.110463461874613"><ele>450.40000000000003</ele><time>2026-04-18T08:10:40.999Z</time></trkpt><trkpt lat="45.66990051408859" lon="3.1103457158290135"><ele>451.20000000000005</ele><time>2026-04-18T08:10:41.999Z</time></trkpt><trkpt lat="45.669852493055146" lon="3.1102396879806737"><ele>452.0</ele><time>2026-04-18T08:10:42.999Z</time></trkpt><trkpt lat="45.66980291643749" lon="3.110130319839097"><ele>452.0</ele><time>2026-04-18T08:10:43.999Z</time></trkpt><trkpt lat="45.6697588466345" lon="3.1100207298238227"><ele>452.00000000000006</ele><time>2026-04-18T08:10:44.999Z</time></trkpt><trkpt lat="45.669721035594996" lon="3.109901454926218"><ele>452.00000000000006</ele><time>2026-04-18T08:10:45.999Z</time></trkpt><trkpt lat="45.66968270598674" lon="3.109768421916795"><ele>452.0</ele><time>2026-04-18T08:10:46.999Z</time></trkpt><trkpt lat="45.66964662277693" lon="3.1096468810306064"><ele>452.0</ele><time>2026-04-18T08:10:47.999Z</time></trkpt><trkpt lat="45.66961169004057" lon="3.109505352228765"><ele>452.3333333333333</ele><time>2026-04-18T08:10:48.999Z</time></trkpt><trkpt lat="45.669584539114794" lon="3.1094006184022507"><ele>452.66666666666663</ele><time>2026-04-18T08:10:49.999Z</time></trkpt><trkpt lat="45.66955735493399" lon="3.1092901079895636"><ele>453.0</ele><time>2026-04-18T08:10:50.999Z</time></trkpt><trkpt lat="45.669531920596526" lon="3.109191961381307"><ele>453.33333333333337</ele><time>2026-04-18T08:10:51.999Z</time></trkpt><trkpt lat="45.66950818673465" lon="3.109102708802714"><ele>453.6666666666667</ele><time>2026-04-18T08:10:52.999Z</time></trkpt><trkpt lat="45.66945223863964" lon="3.108951023128217"><ele>454.0</ele><time>2026-04-18T08:10:54.998Z</time></trkpt><trkpt lat="45.66942458750351" lon="3.108869695284577"><ele>454.33333333333337</ele><time>2026-04-18T08:10:55.998Z</time></trkpt><trkpt lat="45.66941195006673" lon="3.1087750781337564"><ele>454.6666666666667</ele><time>2026-04-18T08:10:56.998Z</time></trkpt><trkpt lat="45.66941585368519" lon="3.108674973816924"><ele>455.0</ele><time>2026-04-18T08:10:57.998Z</time></trkpt><trkpt lat="45.66942140556217" lon="3.108567412063668"><ele>455.33333333333337</ele><time>2026-04-18T08:10:58.999Z</time></trkpt><trkpt lat="45.669423639582625" lon="3.108456258343789"><ele>455.6666666666667</ele><time>2026-04-18T08:10:59.999Z</time></trkpt><trkpt lat="45.669426188916056" lon="3.1083294215838033"><ele>456.0</ele><time>2026-04-18T08:11:00.999Z</time></trkpt><trkpt lat="45.669428922175804" lon="3.108214127074511"><ele>456.4285714285714</ele><time>2026-04-18T08:11:01.999Z</time></trkpt><trkpt lat="45.66942929331429" lon="3.1081055006618166"><ele>456.8571428571428</ele><time>2026-04-18T08:11:02.999Z</time></trkpt><trkpt lat="45.66942733640776" lon="3.1080024181682484"><ele>457.2857142857143</ele><time>2026-04-18T08:11:03.999Z</time></trkpt><trkpt lat="45.66942278116317" lon="3.1078934035130006"><ele>457.71428571428567</ele><time>2026-04-18T08:11:04.999Z</time></trkpt><trkpt lat="45.66941770173452" lon="3.1077919965798877"><ele>458.1428571428571</ele><time>2026-04-18T08:11:05.999Z</time></trkpt><trkpt lat="45.6694130688275" lon="3.107684572377773"><ele>458.57142857142856</ele><time>2026-04-18T08:11:06.999Z</time></trkpt><trkpt lat="45.66940810816583" lon="3.1075816613854035"><ele>459.0</ele><time>2026-04-18T08:11:07.999Z</time></trkpt><trkpt lat="45.66940423868152" lon="3.107476160976478"><ele>459.0</ele><time>2026-04-18T08:11:08.999Z</time></trkpt><trkpt lat="45.66940429148975" lon="3.107365930848401"><ele>459.0</ele><time>2026-04-18T08:11:09.999Z</time></trkpt><trkpt lat="45.66942469546997" lon="3.107184867338991"><ele>459.0</ele><time>2026-04-18T08:11:11.999Z</time></trkpt><trkpt lat="45.66944525438897" lon="3.107040448532734"><ele>459.0</ele><time>2026-04-18T08:11:13.999Z</time></trkpt><trkpt lat="45.66945438998963" lon="3.1069451784544277"><ele>459.0</ele><time>2026-04-18T08:11:18.999Z</time></trkpt><trkpt lat="45.669371504537835" lon="3.106869542383098"><ele>459.0</ele><time>2026-04-18T08:11:19.999Z</time></trkpt><trkpt lat="45.66930474181507" lon="3.106818793025341"><ele>459.0</ele><time>2026-04-18T08:11:20.999Z</time></trkpt><trkpt lat="45.66924400278195" lon="3.1067589087785485"><ele>459.0</ele><time>2026-04-18T08:11:21.999Z</time></trkpt><trkpt lat="45.66918122540743" lon="3.106672642301995"><ele>459.0</ele><time>2026-04-18T08:11:22.999Z</time></trkpt><trkpt lat="45.66912933306731" lon="3.106606722346908"><ele>459.0</ele><time>2026-04-18T08:11:23.999Z</time></trkpt><trkpt lat="45.66908144545176" lon="3.10654710584012"><ele>459.0</ele><time>2026-04-18T08:11:24.999Z</time></trkpt><trkpt lat="45.66903399536154" lon="3.1064854740397734"><ele>459.0</ele><time>2026-04-18T08:11:25.999Z</time></trkpt><trkpt lat="45.6689671290031" lon="3.1064004542247634"><ele>459.1666666666667</ele><time>2026-04-18T08:11:26.999Z</time></trkpt><trkpt lat="45.6689068045932" lon="3.1063314080256608"><ele>459.33333333333337</ele><time>2026-04-18T08:11:27.999Z</time></trkpt><trkpt lat="45.66884453660058" lon="3.1062514293686365"><ele>459.5</ele><time>2026-04-18T08:11:28.999Z</time></trkpt><trkpt lat="45.66878664071908" lon="3.10617895436358"><ele>459.6666666666667</ele><time>2026-04-18T08:11:29.999Z</time></trkpt><trkpt lat="45.66873012368647" lon="3.1061054419334795"><ele>459.83333333333337</ele><time>2026-04-18T08:11:30.999Z</time></trkpt><trkpt lat="45.66867934181724" lon="3.106035092682004"><ele>460.0</ele><time>2026-04-18T08:11:31.999Z</time></trkpt><trkpt lat="45.66864215029248" lon="3.105855683037421"><ele>460.4</ele><time>2026-04-18T08:11:33.999Z</time></trkpt><trkpt lat="45.668634940582955" lon="3.1057370962994737"><ele>460.8</ele><time>2026-04-18T08:11:34.999Z</time></trkpt><trkpt lat="45.668619363232956" lon="3.1055978949056886"><ele>461.20000000000005</ele><time>2026-04-18T08:11:35.999Z</time></trkpt><trkpt lat="45.66860000813287" lon="3.1054528366782868"><ele>461.6</ele><time>2026-04-18T08:11:36.999Z</time></trkpt><trkpt lat="45.66857837719918" lon="3.105317952390348"><ele>462.0</ele><time>2026-04-18T08:11:37.999Z</time></trkpt><trkpt lat="45.668552470356936" lon="3.1051977217383513"><ele>462.0</ele><time>2026-04-18T08:11:38.999Z</time></trkpt><trkpt lat="45.668513379186564" lon="3.1050779541593796"><ele>462.00000000000006</ele><time>2026-04-18T08:11:39.999Z</time></trkpt><trkpt lat="45.66846305482943" lon="3.104963386474459"><ele>462.00000000000006</ele><time>2026-04-18T08:11:40.999Z</time></trkpt><trkpt lat="45.668403376633165" lon="3.1048595578287395"><ele>462.0</ele><time>2026-04-18T08:11:41.999Z</time></trkpt><trkpt lat="45.668333931951615" lon="3.1047581297362536"><ele>462.0</ele><time>2026-04-18T08:11:42.999Z</time></trkpt><trkpt lat="45.66825894673239" lon="3.1046655179462856"><ele>462.40000000000003</ele><time>2026-04-18T08:11:43.999Z</time></trkpt><trkpt lat="45.66817612363721" lon="3.1045768010208517"><ele>462.80000000000007</ele><time>2026-04-18T08:11:44.999Z</time></trkpt><trkpt lat="45.66809340121074" lon="3.10447810835813"><ele>463.2</ele><time>2026-04-18T08:11:45.999Z</time></trkpt><trkpt lat="45.66802079504204" lon="3.1043867748804406"><ele>463.6</ele><time>2026-04-18T08:11:46.999Z</time></trkpt><trkpt lat="45.667942047961695" lon="3.104290846084707"><ele>464.0</ele><time>2026-04-18T08:11:47.999Z</time></trkpt><trkpt lat="45.66786572918459" lon="3.104205404873742"><ele>464.0</ele><time>2026-04-18T08:11:48.999Z</time></trkpt><trkpt lat="45.66778560544605" lon="3.104119202121334"><ele>464.0</ele><time>2026-04-18T08:11:49.999Z</time></trkpt><trkpt lat="45.66770624737212" lon="3.1040520607179425"><ele>464.0</ele><time>2026-04-18T08:11:50.999Z</time></trkpt><trkpt lat="45.66761920762948" lon="3.1040130692624177"><ele>464.0</ele><time>2026-04-18T08:11:51.999Z</time></trkpt><trkpt lat="45.667515382353045" lon="3.1040022798886877"><ele>464.0</ele><time>2026-04-18T08:11:52.999Z</time></trkpt><trkpt lat="45.66742431231333" lon="3.104009235460763"><ele>464.8333333333333</ele><time>2026-04-18T08:11:53.999Z</time></trkpt><trkpt lat="45.667337632463024" lon="3.1040069524790126"><ele>465.66666666666663</ele><time>2026-04-18T08:11:54.999Z</time></trkpt><trkpt lat="45.66725850904896" lon="3.103986917467805"><ele>466.5</ele><time>2026-04-18T08:11:55.999Z</time></trkpt><trkpt lat="45.6671927040476" lon="3.1039666982175875"><ele>467.33333333333337</ele><time>2026-04-18T08:11:56.999Z</time></trkpt><trkpt lat="45.66712599189162" lon="3.103939625385574"><ele>468.1666666666667</ele><time>2026-04-18T08:11:57.999Z</time></trkpt><trkpt lat="45.66703763356929" lon="3.103899782093666"><ele>469.0</ele><time>2026-04-18T08:11:58.999Z</time></trkpt><trkpt lat="45.6669553032663" lon="3.103857161656896"><ele>469.0</ele><time>2026-04-18T08:11:59.999Z</time></trkpt><trkpt lat="45.666860841021766" lon="3.1038103376641604"><ele>469.0</ele><time>2026-04-18T08:12:00.999Z</time></trkpt><trkpt lat="45.66676694669144" lon="3.103758247330636"><ele>469.0</ele><time>2026-04-18T08:12:01.999Z</time></trkpt><trkpt lat="45.66668044910364" lon="3.10369583695792"><ele>469.0</ele><time>2026-04-18T08:12:02.999Z</time></trkpt><trkpt lat="45.66659717284543" lon="3.103614979064528"><ele>469.0</ele><time>2026-04-18T08:12:03.999Z</time></trkpt><trkpt lat="45.666525775028454" lon="3.1035221125304675"><ele>469.0</ele><time>2026-04-18T08:12:04.999Z</time></trkpt><trkpt lat="45.6664532720161" lon="3.1034179576688357"><ele>469.0</ele><time>2026-04-18T08:12:05.999Z</time></trkpt><trkpt lat="45.666384408782406" lon="3.10330224718761"><ele>469.0</ele><time>2026-04-18T08:12:06.999Z</time></trkpt><trkpt lat="45.66631859452974" lon="3.1031844872627468"><ele>469.0</ele><time>2026-04-18T08:12:07.999Z</time></trkpt><trkpt lat="45.666256633596795" lon="3.1030714542816704"><ele>469.0</ele><time>2026-04-18T08:12:08.999Z</time></trkpt><trkpt lat="45.66619499109022" lon="3.102955654483329"><ele>469.6</ele><time>2026-04-18T08:12:09.999Z</time></trkpt><trkpt lat="45.666136908348435" lon="3.102845384526695"><ele>470.2</ele><time>2026-04-18T08:12:10.999Z</time></trkpt><trkpt lat="45.66607365371066" lon="3.1027367931760073"><ele>470.80000000000007</ele><time>2026-04-18T08:12:11.999Z</time></trkpt><trkpt lat="45.666016467866285" lon="3.102638497047912"><ele>471.40000000000003</ele><time>2026-04-18T08:12:12.999Z</time></trkpt><trkpt lat="45.6659556740771" lon="3.102515447492467"><ele>472.0</ele><time>2026-04-18T08:12:13.999Z</time></trkpt><trkpt lat="45.66590107919826" lon="3.10241034574015"><ele>472.8</ele><time>2026-04-18T08:12:14.999Z</time></trkpt><trkpt lat="45.665845331518454" lon="3.1022938506901996"><ele>473.6</ele><time>2026-04-18T08:12:15.999Z</time></trkpt><trkpt lat="45.66578435264387" lon="3.1021666759036695"><ele>474.40000000000003</ele><time>2026-04-18T08:12:16.999Z</time></trkpt><trkpt lat="45.665716872448066" lon="3.1020529900131737"><ele>475.20000000000005</ele><time>2026-04-18T08:12:17.999Z</time></trkpt><trkpt lat="45.6656478830786" lon="3.1019391148445123"><ele>476.0</ele><time>2026-04-18T08:12:18.999Z</time></trkpt><trkpt lat="45.66557600359303" lon="3.101821726125035"><ele>476.0</ele><time>2026-04-18T08:12:19.999Z</time></trkpt><trkpt lat="45.66550413017712" lon="3.1017057278207436"><ele>476.0</ele><time>2026-04-18T08:12:20.999Z</time></trkpt><trkpt lat="45.66543100746434" lon="3.101588638786918"><ele>476.0</ele><time>2026-04-18T08:12:21.999Z</time></trkpt><trkpt lat="45.66536592455214" lon="3.1014618273168844"><ele>476.0</ele><time>2026-04-18T08:12:22.999Z</time></trkpt><trkpt lat="45.66529812125496" lon="3.101343880296349"><ele>476.0</ele><time>2026-04-18T08:12:23.999Z</time></trkpt><trkpt lat="45.66522952287781" lon="3.1012228140488034"><ele>476.75</ele><time>2026-04-18T08:12:24.999Z</time></trkpt><trkpt lat="45.66516491886953" lon="3.101093962486892"><ele>477.5</ele><time>2026-04-18T08:12:25.999Z</time></trkpt><trkpt lat="45.665094177081386" lon="3.100966828524922"><ele>478.25</ele><time>2026-04-18T08:12:26.999Z</time></trkpt><trkpt lat="45.66502020639399" lon="3.100840662407075"><ele>479.0</ele><time>2026-04-18T08:12:27.999Z</time></trkpt><trkpt lat="45.66495170153978" lon="3.100707431772876"><ele>479.0</ele><time>2026-04-18T08:12:28.999Z</time></trkpt><trkpt lat="45.66487955284594" lon="3.1005822227871933"><ele>479.0</ele><time>2026-04-18T08:12:29.999Z</time></trkpt><trkpt lat="45.66481023828501" lon="3.1004466385078833"><ele>479.0</ele><time>2026-04-18T08:12:30.999Z</time></trkpt><trkpt lat="45.66473612507321" lon="3.1003065269795287"><ele>479.0</ele><time>2026-04-18T08:12:31.999Z</time></trkpt><trkpt lat="45.66465975971648" lon="3.100159235059555"><ele>479.0</ele><time>2026-04-18T08:12:32.999Z</time></trkpt><trkpt lat="45.66457787069326" lon="3.1000160297677755"><ele>479.0</ele><time>2026-04-18T08:12:33.999Z</time></trkpt><trkpt lat="45.66449885086909" lon="3.0998754095965215"><ele>479.0</ele><time>2026-04-18T08:12:34.999Z</time></trkpt><trkpt lat="45.66442199723075" lon="3.099744516021183"><ele>479.0</ele><time>2026-04-18T08:12:35.999Z</time></trkpt><trkpt lat="45.66435064619835" lon="3.0996155148879985"><ele>479.75</ele><time>2026-04-18T08:12:36.999Z</time></trkpt><trkpt lat="45.664277567548254" lon="3.099484066818538"><ele>480.5</ele><time>2026-04-18T08:12:37.999Z</time></trkpt><trkpt lat="45.66420517302138" lon="3.099355926213757"><ele>481.25</ele><time>2026-04-18T08:12:38.998Z</time></trkpt><trkpt lat="45.66412839662093" lon="3.099216388964653"><ele>482.0</ele><time>2026-04-18T08:12:39.998Z</time></trkpt><trkpt lat="45.66405541116664" lon="3.0990756768316063"><ele>482.5</ele><time>2026-04-18T08:12:40.998Z</time></trkpt><trkpt lat="45.66398127242089" lon="3.0989384361026184"><ele>483.0</ele><time>2026-04-18T08:12:41.998Z</time></trkpt><trkpt lat="45.66389602347915" lon="3.098801936168946"><ele>483.5</ele><time>2026-04-18T08:12:42.998Z</time></trkpt><trkpt lat="45.66381581141404" lon="3.0986663709012334"><ele>484.0</ele><time>2026-04-18T08:12:43.998Z</time></trkpt><trkpt lat="45.66373578504181" lon="3.098528297853306"><ele>484.0</ele><time>2026-04-18T08:12:44.998Z</time></trkpt><trkpt lat="45.66365715552057" lon="3.0983785877034773"><ele>484.0</ele><time>2026-04-18T08:12:45.998Z</time></trkpt><trkpt lat="45.663579230953985" lon="3.098246508023299"><ele>484.0</ele><time>2026-04-18T08:12:46.998Z</time></trkpt><trkpt lat="45.66350068775166" lon="3.0981033441986785"><ele>484.0</ele><time>2026-04-18T08:12:47.998Z</time></trkpt><trkpt lat="45.66342996985858" lon="3.09797588190963"><ele>484.83333333333337</ele><time>2026-04-18T08:12:48.998Z</time></trkpt><trkpt lat="45.66337338963156" lon="3.0978622052310074"><ele>485.6666666666667</ele><time>2026-04-18T08:12:49.998Z</time></trkpt><trkpt lat="45.663340228919886" lon="3.0977577847448363"><ele>486.5</ele><time>2026-04-18T08:12:50.998Z</time></trkpt><trkpt lat="45.663323700181095" lon="3.097658913614742"><ele>487.33333333333337</ele><time>2026-04-18T08:12:51.999Z</time></trkpt><trkpt lat="45.663277385650495" lon="3.0975459061562813"><ele>488.1666666666667</ele><time>2026-04-18T08:12:52.999Z</time></trkpt><trkpt lat="45.6632133564757" lon="3.097503275378182"><ele>489.0</ele><time>2026-04-18T08:12:53.999Z</time></trkpt><trkpt lat="45.663131581095016" lon="3.097439430744837"><ele>489.75</ele><time>2026-04-18T08:12:54.999Z</time></trkpt><trkpt lat="45.66305526297695" lon="3.0973209858181807"><ele>490.5</ele><time>2026-04-18T08:12:55.999Z</time></trkpt><trkpt lat="45.66299477879499" lon="3.097190464565577"><ele>491.25</ele><time>2026-04-18T08:12:56.999Z</time></trkpt><trkpt lat="45.66292379103727" lon="3.097035284743693"><ele>492.0</ele><time>2026-04-18T08:12:57.999Z</time></trkpt><trkpt lat="45.662881671345886" lon="3.0968839458268493"><ele>492.0</ele><time>2026-04-18T08:12:58.999Z</time></trkpt><trkpt lat="45.662853173702935" lon="3.0967232279602737"><ele>492.0</ele><time>2026-04-18T08:12:59.999Z</time></trkpt><trkpt lat="45.66283301579058" lon="3.0965592848369567"><ele>492.0</ele><time>2026-04-18T08:13:00.999Z</time></trkpt><trkpt lat="45.66281833740027" lon="3.096392303613997"><ele>492.0</ele><time>2026-04-18T08:13:01.999Z</time></trkpt><trkpt lat="45.66280985412058" lon="3.096226701134144"><ele>493.0</ele><time>2026-04-18T08:13:02.999Z</time></trkpt><trkpt lat="45.66279662629674" lon="3.0960539444959556"><ele>494.0</ele><time>2026-04-18T08:13:03.999Z</time></trkpt><trkpt lat="45.66277586003095" lon="3.0958808184944004"><ele>495.0</ele><time>2026-04-18T08:13:05Z</time></trkpt><trkpt lat="45.66274687189446" lon="3.0957131146654984"><ele>496.0</ele><time>2026-04-18T08:13:06Z</time></trkpt><trkpt lat="45.66270426643746" lon="3.0955479029037463"><ele>497.5</ele><time>2026-04-18T08:13:07Z</time></trkpt><trkpt lat="45.66264721153023" lon="3.0953828180099103"><ele>499.0</ele><time>2026-04-18T08:13:08Z</time></trkpt><trkpt lat="45.66259113392035" lon="3.09523025315864"><ele>500.5</ele><time>2026-04-18T08:13:09Z</time></trkpt><trkpt lat="45.66253724120347" lon="3.095078783018221"><ele>502.0</ele><time>2026-04-18T08:13:10Z</time></trkpt><trkpt lat="45.662479801401965" lon="3.094914665382808"><ele>502.0</ele><time>2026-04-18T08:13:11Z</time></trkpt><trkpt lat="45.662425305514326" lon="3.0947483873485333"><ele>502.0</ele><time>2026-04-18T08:13:12Z</time></trkpt><trkpt lat="45.662361641719066" lon="3.0945763413088723"><ele>502.0</ele><time>2026-04-18T08:13:13Z</time></trkpt><trkpt lat="45.662304790179874" lon="3.09440908925726"><ele>502.0</ele><time>2026-04-18T08:13:14Z</time></trkpt><trkpt lat="45.66224698744007" lon="3.094236033855309"><ele>501.75</ele><time>2026-04-18T08:13:15Z</time></trkpt><trkpt lat="45.66218834977989" lon="3.0940751775235875"><ele>501.5</ele><time>2026-04-18T08:13:16Z</time></trkpt><trkpt lat="45.66212585051649" lon="3.0939247752646297"><ele>501.25</ele><time>2026-04-18T08:13:17Z</time></trkpt><trkpt lat="45.66205961474028" lon="3.093803529696347"><ele>501.0</ele><time>2026-04-18T08:13:18Z</time></trkpt><trkpt lat="45.66197322771561" lon="3.0936971311689274"><ele>502.25</ele><time>2026-04-18T08:13:19Z</time></trkpt><trkpt lat="45.66186912484402" lon="3.093616548968902"><ele>503.5</ele><time>2026-04-18T08:13:20Z</time></trkpt><trkpt lat="45.661754887614144" lon="3.093557807133522"><ele>504.75</ele><time>2026-04-18T08:13:21Z</time></trkpt><trkpt lat="45.66164525518572" lon="3.0935168553867554"><ele>506.0</ele><time>2026-04-18T08:13:22Z</time></trkpt><trkpt lat="45.661538429709815" lon="3.093477915701019"><ele>506.0</ele><time>2026-04-18T08:13:23Z</time></trkpt><trkpt lat="45.661431745753056" lon="3.0934366892056535"><ele>506.0</ele><time>2026-04-18T08:13:24Z</time></trkpt><trkpt lat="45.66132327075056" lon="3.09338948876038"><ele>506.0</ele><time>2026-04-18T08:13:25Z</time></trkpt><trkpt lat="45.661208778065415" lon="3.093332423671987"><ele>506.0</ele><time>2026-04-18T08:13:26Z</time></trkpt><trkpt lat="45.66109804652778" lon="3.0932771010808606"><ele>505.5</ele><time>2026-04-18T08:13:27Z</time></trkpt><trkpt lat="45.66099407520744" lon="3.0932165829310523"><ele>505.0</ele><time>2026-04-18T08:13:28Z</time></trkpt><trkpt lat="45.66088444846833" lon="3.0931527509715275"><ele>504.5</ele><time>2026-04-18T08:13:29Z</time></trkpt><trkpt lat="45.660781055832274" lon="3.093092742916849"><ele>504.0</ele><time>2026-04-18T08:13:30Z</time></trkpt><trkpt lat="45.66067378599042" lon="3.0930317707912716"><ele>504.0</ele><time>2026-04-18T08:13:31Z</time></trkpt><trkpt lat="45.660581076400085" lon="3.092974611838247"><ele>504.0</ele><time>2026-04-18T08:13:32Z</time></trkpt><trkpt lat="45.66048741815532" lon="3.092917598686418"><ele>504.0</ele><time>2026-04-18T08:13:33Z</time></trkpt><trkpt lat="45.660396562644806" lon="3.0928642506135047"><ele>504.0</ele><time>2026-04-18T08:13:34Z</time></trkpt><trkpt lat="45.66031203795528" lon="3.092807047024107"><ele>504.0</ele><time>2026-04-18T08:13:35Z</time></trkpt><trkpt lat="45.66021951020929" lon="3.092730330160428"><ele>504.6</ele><time>2026-04-18T08:13:36Z</time></trkpt><trkpt lat="45.66013628598312" lon="3.092632744478629"><ele>505.2</ele><time>2026-04-18T08:13:37Z</time></trkpt><trkpt lat="45.66005773363426" lon="3.0925393968032786"><ele>505.80000000000007</ele><time>2026-04-18T08:13:38Z</time></trkpt><trkpt lat="45.65997770934382" lon="3.0924422852290343"><ele>506.40000000000003</ele><time>2026-04-18T08:13:39Z</time></trkpt><trkpt lat="45.659915244553204" lon="3.0923488282145755"><ele>507.0</ele><time>2026-04-18T08:13:40Z</time></trkpt><trkpt lat="45.65985908224366" lon="3.0922426080914427"><ele>507.0</ele><time>2026-04-18T08:13:41Z</time></trkpt><trkpt lat="45.65982391705165" lon="3.0921316502425737"><ele>507.0</ele><time>2026-04-18T08:13:42Z</time></trkpt><trkpt lat="45.65980212307069" lon="3.092009306871829"><ele>507.0</ele><time>2026-04-18T08:13:43Z</time></trkpt><trkpt lat="45.65978547854861" lon="3.0918771384572037"><ele>507.0</ele><time>2026-04-18T08:13:44Z</time></trkpt><trkpt lat="45.659765386696414" lon="3.0917424905158746"><ele>507.0</ele><time>2026-04-18T08:13:45Z</time></trkpt><trkpt lat="45.6597488203337" lon="3.0916322357371833"><ele>507.0</ele><time>2026-04-18T08:13:46Z</time></trkpt><trkpt lat="45.659729877472955" lon="3.091540239110972"><ele>507.1666666666667</ele><time>2026-04-18T08:13:47Z</time></trkpt><trkpt lat="45.65971021371681" lon="3.091443904533813"><ele>507.33333333333337</ele><time>2026-04-18T08:13:48Z</time></trkpt><trkpt lat="45.65968431110894" lon="3.091351705160879"><ele>507.5</ele><time>2026-04-18T08:13:49Z</time></trkpt><trkpt lat="45.65964989097493" lon="3.0912497596997373"><ele>507.6666666666667</ele><time>2026-04-18T08:13:50Z</time></trkpt><trkpt lat="45.65961196825873" lon="3.0911648703227104"><ele>507.83333333333337</ele><time>2026-04-18T08:13:51Z</time></trkpt><trkpt lat="45.65955162604973" lon="3.091073449488052"><ele>508.0</ele><time>2026-04-18T08:13:52Z</time></trkpt><trkpt lat="45.65948120803159" lon="3.090998959668954"><ele>508.33333333333337</ele><time>2026-04-18T08:13:53Z</time></trkpt><trkpt lat="45.65941355583178" lon="3.090938235685924"><ele>508.6666666666667</ele><time>2026-04-18T08:13:54Z</time></trkpt><trkpt lat="45.659345236004015" lon="3.090898665593141"><ele>509.0</ele><time>2026-04-18T08:13:55Z</time></trkpt><trkpt lat="45.65926325467502" lon="3.090851114949971"><ele>509.33333333333337</ele><time>2026-04-18T08:13:56Z</time></trkpt><trkpt lat="45.65918961772811" lon="3.0908024058288732"><ele>509.6666666666667</ele><time>2026-04-18T08:13:57Z</time></trkpt><trkpt lat="45.65912701107702" lon="3.0907586120512187"><ele>510.0</ele><time>2026-04-18T08:13:58Z</time></trkpt><trkpt lat="45.65906821481499" lon="3.090721670260919"><ele>510.0</ele><time>2026-04-18T08:13:59Z</time></trkpt><trkpt lat="45.65895804976102" lon="3.090641261197037"><ele>510.0</ele><time>2026-04-18T08:14:01Z</time></trkpt><trkpt lat="45.658856996929394" lon="3.0905711060195347"><ele>510.0</ele><time>2026-04-18T08:14:03Z</time></trkpt><trkpt lat="45.658750871259144" lon="3.09050437180115"><ele>510.0</ele><time>2026-04-18T08:14:05Z</time></trkpt><trkpt lat="45.658689667642165" lon="3.090462840908708"><ele>510.0</ele><time>2026-04-18T08:14:06Z</time></trkpt><trkpt lat="45.65862276480133" lon="3.0904162954856265"><ele>510.8333333333333</ele><time>2026-04-18T08:14:07Z</time></trkpt><trkpt lat="45.65854700424459" lon="3.090366491387884"><ele>511.66666666666663</ele><time>2026-04-18T08:14:08Z</time></trkpt><trkpt lat="45.658473812790255" lon="3.090308882920982"><ele>512.5</ele><time>2026-04-18T08:14:09Z</time></trkpt><trkpt lat="45.65838737257216" lon="3.0902491166545003"><ele>513.3333333333333</ele><time>2026-04-18T08:14:10Z</time></trkpt><trkpt lat="45.658308231804696" lon="3.0901891788738167"><ele>514.1666666666666</ele><time>2026-04-18T08:14:11Z</time></trkpt><trkpt lat="45.65822175482293" lon="3.0901311328519805"><ele>515.0</ele><time>2026-04-18T08:14:12Z</time></trkpt><trkpt lat="45.658135507429535" lon="3.0900724482308886"><ele>515.0</ele><time>2026-04-18T08:14:13Z</time></trkpt><trkpt lat="45.658055664992965" lon="3.0900182810628016"><ele>515.0</ele><time>2026-04-18T08:14:14Z</time></trkpt><trkpt lat="45.6579768508557" lon="3.089961780643198"><ele>515.0</ele><time>2026-04-18T08:14:15Z</time></trkpt><trkpt lat="45.65789346406048" lon="3.0899017882574937"><ele>515.0</ele><time>2026-04-18T08:14:16Z</time></trkpt><trkpt lat="45.65781007991355" lon="3.0898351749413826"><ele>515.0</ele><time>2026-04-18T08:14:17Z</time></trkpt><trkpt lat="45.657726053874185" lon="3.089765225281669"><ele>515.5</ele><time>2026-04-18T08:14:18Z</time></trkpt><trkpt lat="45.65765291324654" lon="3.0896879214156883"><ele>516.0</ele><time>2026-04-18T08:14:19Z</time></trkpt><trkpt lat="45.65758542827321" lon="3.089610439751064"><ele>516.5</ele><time>2026-04-18T08:14:20Z</time></trkpt><trkpt lat="45.65752085616302" lon="3.0895323675056203"><ele>517.0</ele><time>2026-04-18T08:14:21Z</time></trkpt><trkpt lat="45.65746125082114" lon="3.089450270145056"><ele>517.5</ele><time>2026-04-18T08:14:22Z</time></trkpt><trkpt lat="45.65739025266528" lon="3.089353426715698"><ele>518.0</ele><time>2026-04-18T08:14:23Z</time></trkpt><trkpt lat="45.65732806294418" lon="3.089265417167741"><ele>518.0</ele><time>2026-04-18T08:14:24Z</time></trkpt><trkpt lat="45.6572650985046" lon="3.0891760327587936"><ele>518.0</ele><time>2026-04-18T08:14:25Z</time></trkpt><trkpt lat="45.65720106701132" lon="3.0890838390746325"><ele>518.0</ele><time>2026-04-18T08:14:26Z</time></trkpt><trkpt lat="45.657133603428676" lon="3.0889937259390314"><ele>518.0</ele><time>2026-04-18T08:14:27Z</time></trkpt><trkpt lat="45.657069299427924" lon="3.0889093278896422"><ele>518.0</ele><time>2026-04-18T08:14:28Z</time></trkpt><trkpt lat="45.657002110064404" lon="3.0888206456022544"><ele>518.5</ele><time>2026-04-18T08:14:29Z</time></trkpt><trkpt lat="45.65693824768446" lon="3.0887238254161518"><ele>519.0</ele><time>2026-04-18T08:14:30Z</time></trkpt><trkpt lat="45.65688393533853" lon="3.088619214376805"><ele>519.5</ele><time>2026-04-18T08:14:31Z</time></trkpt><trkpt lat="45.65684931253538" lon="3.088510038187684"><ele>520.0</ele><time>2026-04-18T08:14:31.999Z</time></trkpt><trkpt lat="45.656832783502544" lon="3.0883974492129314"><ele>520.5</ele><time>2026-04-18T08:14:32.999Z</time></trkpt><trkpt lat="45.65682291486779" lon="3.0882748631706636"><ele>521.0</ele><time>2026-04-18T08:14:33.999Z</time></trkpt><trkpt lat="45.65682787662551" lon="3.0881574494986213"><ele>521.0</ele><time>2026-04-18T08:14:34.999Z</time></trkpt><trkpt lat="45.65684655472196" lon="3.0880243051997764"><ele>521.0</ele><time>2026-04-18T08:14:35.999Z</time></trkpt><trkpt lat="45.65686894568287" lon="3.087907236370361"><ele>521.0</ele><time>2026-04-18T08:14:36.999Z</time></trkpt><trkpt lat="45.656891724101115" lon="3.0877701086517777"><ele>521.0</ele><time>2026-04-18T08:14:37.999Z</time></trkpt><trkpt lat="45.65691262756624" lon="3.087649371806337"><ele>521.0</ele><time>2026-04-18T08:14:38.999Z</time></trkpt><trkpt lat="45.65693138600088" lon="3.0875402815264024"><ele>521.0</ele><time>2026-04-18T08:14:39.999Z</time></trkpt><trkpt lat="45.65695054056307" lon="3.0874400730469"><ele>521.0</ele><time>2026-04-18T08:14:40.999Z</time></trkpt><trkpt lat="45.65697332544605" lon="3.087346167903771"><ele>521.0</ele><time>2026-04-18T08:14:41.999Z</time></trkpt><trkpt lat="45.65701185979203" lon="3.0872579921809913"><ele>521.0</ele><time>2026-04-18T08:14:42.999Z</time></trkpt><trkpt lat="45.657065247454405" lon="3.0871768095011984"><ele>521.0</ele><time>2026-04-18T08:14:43.999Z</time></trkpt><trkpt lat="45.657135162882504" lon="3.0871014895224556"><ele>521.0</ele><time>2026-04-18T08:14:44.999Z</time></trkpt><trkpt lat="45.65722431936495" lon="3.08704298849418"><ele>521.0</ele><time>2026-04-18T08:14:45.999Z</time></trkpt><trkpt lat="45.65730860995373" lon="3.0869965408414637"><ele>521.0</ele><time>2026-04-18T08:14:46.999Z</time></trkpt><trkpt lat="45.657392383185226" lon="3.0869542971341564"><ele>521.0</ele><time>2026-04-18T08:14:47.999Z</time></trkpt><trkpt lat="45.65747302543081" lon="3.086919213136673"><ele>521.0</ele><time>2026-04-18T08:14:48.999Z</time></trkpt><trkpt lat="45.657540413734075" lon="3.086873822749348"><ele>521.0</ele><time>2026-04-18T08:14:49.999Z</time></trkpt><trkpt lat="45.65762883805471" lon="3.0867532636481214"><ele>521.0</ele><time>2026-04-18T08:14:51.999Z</time></trkpt><trkpt lat="45.657648168402666" lon="3.0866423859043"><ele>521.4</ele><time>2026-04-18T08:14:52.999Z</time></trkpt><trkpt lat="45.65763701200671" lon="3.0865218330854836"><ele>521.8</ele><time>2026-04-18T08:14:53.999Z</time></trkpt><trkpt lat="45.657606070990965" lon="3.0863869595704676"><ele>522.1999999999999</ele><time>2026-04-18T08:14:54.999Z</time></trkpt><trkpt lat="45.657580246590555" lon="3.0862538209164603"><ele>522.6</ele><time>2026-04-18T08:14:55.999Z</time></trkpt><trkpt lat="45.657571946335" lon="3.0861199916296265"><ele>523.0</ele><time>2026-04-18T08:14:56.999Z</time></trkpt><trkpt lat="45.657587851742036" lon="3.085967535830141"><ele>523.0</ele><time>2026-04-18T08:14:57.999Z</time></trkpt><trkpt lat="45.65762408124357" lon="3.085836686017616"><ele>523.0</ele><time>2026-04-18T08:14:58.999Z</time></trkpt><trkpt lat="45.65767701930162" lon="3.0857206064129743"><ele>523.0</ele><time>2026-04-18T08:14:59.999Z</time></trkpt><trkpt lat="45.65775693319258" lon="3.08560359173678"><ele>523.0</ele><time>2026-04-18T08:15:00.999Z</time></trkpt><trkpt lat="45.657844517977786" lon="3.085510691732023"><ele>523.0</ele><time>2026-04-18T08:15:01.999Z</time></trkpt><trkpt lat="45.65792068872566" lon="3.0854310435810444"><ele>523.6</ele><time>2026-04-18T08:15:02.999Z</time></trkpt><trkpt lat="45.65799123807311" lon="3.085355284318982"><ele>524.1999999999999</ele><time>2026-04-18T08:15:03.999Z</time></trkpt><trkpt lat="45.658044252481744" lon="3.085286075295719"><ele>524.8</ele><time>2026-04-18T08:15:04.999Z</time></trkpt><trkpt lat="45.658083494915424" lon="3.085167523274006"><ele>525.4</ele><time>2026-04-18T08:15:06.999Z</time></trkpt><trkpt lat="45.65808134891948" lon="3.0850465895674066"><ele>526.0</ele><time>2026-04-18T08:15:09.999Z</time></trkpt><trkpt lat="45.657938379349105" lon="3.0849679734859987"><ele>526.0</ele><time>2026-04-18T08:15:11Z</time></trkpt><trkpt lat="45.65784933069712" lon="3.0849312984368433"><ele>526.0</ele><time>2026-04-18T08:15:12Z</time></trkpt><trkpt lat="45.657740970867835" lon="3.084890876833767"><ele>526.0</ele><time>2026-04-18T08:15:13Z</time></trkpt><trkpt lat="45.65762715986992" lon="3.084868357960742"><ele>526.0</ele><time>2026-04-18T08:15:14Z</time></trkpt><trkpt lat="45.65750261687561" lon="3.084866116734389"><ele>526.0</ele><time>2026-04-18T08:15:15Z</time></trkpt><trkpt lat="45.65737333129561" lon="3.084866381863545"><ele>526.5</ele><time>2026-04-18T08:15:16Z</time></trkpt><trkpt lat="45.65723431099081" lon="3.0848620653632928"><ele>527.0</ele><time>2026-04-18T08:15:17Z</time></trkpt><trkpt lat="45.6571034353205" lon="3.0848574095139965"><ele>527.5</ele><time>2026-04-18T08:15:18Z</time></trkpt><trkpt lat="45.65695625263065" lon="3.084854365294289"><ele>528.0</ele><time>2026-04-18T08:15:19Z</time></trkpt><trkpt lat="45.656812877066976" lon="3.084848612520828"><ele>528.0</ele><time>2026-04-18T08:15:20Z</time></trkpt><trkpt lat="45.65666584646656" lon="3.0848445318451545"><ele>528.0</ele><time>2026-04-18T08:15:21Z</time></trkpt><trkpt lat="45.656520238389916" lon="3.0848389823457767"><ele>528.0</ele><time>2026-04-18T08:15:22Z</time></trkpt><trkpt lat="45.65637891082244" lon="3.0848290919057164"><ele>528.0</ele><time>2026-04-18T08:15:23Z</time></trkpt><trkpt lat="45.65624137673719" lon="3.084815654430862"><ele>526.75</ele><time>2026-04-18T08:15:24Z</time></trkpt><trkpt lat="45.65609684342876" lon="3.084797896987275"><ele>525.5</ele><time>2026-04-18T08:15:25Z</time></trkpt><trkpt lat="45.65595121604493" lon="3.0847795159951388"><ele>524.25</ele><time>2026-04-18T08:15:26Z</time></trkpt><trkpt lat="45.65580926685547" lon="3.084765555458001"><ele>523.0</ele><time>2026-04-18T08:15:27Z</time></trkpt><trkpt lat="45.6556673392952" lon="3.0847464899447727"><ele>523.0</ele><time>2026-04-18T08:15:28Z</time></trkpt><trkpt lat="45.65553310984805" lon="3.0847339398649845"><ele>523.0</ele><time>2026-04-18T08:15:29Z</time></trkpt><trkpt lat="45.655398093532966" lon="3.084721026360715"><ele>523.0</ele><time>2026-04-18T08:15:30Z</time></trkpt><trkpt lat="45.65526501484576" lon="3.084707633975491"><ele>523.0</ele><time>2026-04-18T08:15:31Z</time></trkpt><trkpt lat="45.6551405920442" lon="3.0846999967107025"><ele>522.25</ele><time>2026-04-18T08:15:32Z</time></trkpt><trkpt lat="45.65501049854478" lon="3.084703558184184"><ele>521.5</ele><time>2026-04-18T08:15:33Z</time></trkpt><trkpt lat="45.65488392130777" lon="3.0847152309567507"><ele>520.75</ele><time>2026-04-18T08:15:34Z</time></trkpt><trkpt lat="45.65475625866646" lon="3.0847317044823517"><ele>520.0</ele><time>2026-04-18T08:15:35Z</time></trkpt><trkpt lat="45.65463177288277" lon="3.0847310352506256"><ele>520.0</ele><time>2026-04-18T08:15:36Z</time></trkpt><trkpt lat="45.65450516214282" lon="3.0847035715965783"><ele>520.0</ele><time>2026-04-18T08:15:37Z</time></trkpt><trkpt lat="45.654375438756745" lon="3.0846519354293136"><ele>520.0</ele><time>2026-04-18T08:15:38Z</time></trkpt><trkpt lat="45.65424376461718" lon="3.084580486111502"><ele>520.0</ele><time>2026-04-18T08:15:39Z</time></trkpt><trkpt lat="45.65410683018173" lon="3.0845071971737403"><ele>519.0</ele><time>2026-04-18T08:15:40Z</time></trkpt><trkpt lat="45.65396513271687" lon="3.084449327520788"><ele>518.0</ele><time>2026-04-18T08:15:41Z</time></trkpt><trkpt lat="45.65381446329123" lon="3.084412202226767"><ele>517.0</ele><time>2026-04-18T08:15:42Z</time></trkpt><trkpt lat="45.65366130356346" lon="3.084386222117423"><ele>516.75</ele><time>2026-04-18T08:15:43Z</time></trkpt><trkpt lat="45.65350399273295" lon="3.08436013684717"><ele>516.5</ele><time>2026-04-18T08:15:44Z</time></trkpt><trkpt lat="45.6533635049915" lon="3.0843404549239875"><ele>516.25</ele><time>2026-04-18T08:15:45Z</time></trkpt><trkpt lat="45.65321998521427" lon="3.084317072299471"><ele>516.0</ele><time>2026-04-18T08:15:46Z</time></trkpt><trkpt lat="45.6530971004801" lon="3.0842967203028127"><ele>516.0</ele><time>2026-04-18T08:15:47Z</time></trkpt><trkpt lat="45.6530003610915" lon="3.0842800610091667"><ele>516.0</ele><time>2026-04-18T08:15:48Z</time></trkpt><trkpt lat="45.6529092275739" lon="3.084266107969671"><ele>516.0</ele><time>2026-04-18T08:15:49Z</time></trkpt><trkpt lat="45.65281567840849" lon="3.0842492999603675"><ele>516.0</ele><time>2026-04-18T08:15:50Z</time></trkpt><trkpt lat="45.65272347915645" lon="3.084236109339371"><ele>516.0</ele><time>2026-04-18T08:15:51Z</time></trkpt><trkpt lat="45.652623416159365" lon="3.084220175890026"><ele>516.2</ele><time>2026-04-18T08:15:52Z</time></trkpt><trkpt lat="45.65252859056678" lon="3.08420668524664"><ele>516.4000000000001</ele><time>2026-04-18T08:15:53Z</time></trkpt><trkpt lat="45.65243220145412" lon="3.0841893271723158"><ele>516.6</ele><time>2026-04-18T08:15:54Z</time></trkpt><trkpt lat="45.65234087729816" lon="3.084173970364443"><ele>516.8000000000001</ele><time>2026-04-18T08:15:55Z</time></trkpt><trkpt lat="45.65224926063176" lon="3.084159735554877"><ele>517.0</ele><time>2026-04-18T08:15:56Z</time></trkpt><trkpt lat="45.65215383341046" lon="3.084149185510582"><ele>517.0</ele><time>2026-04-18T08:15:57Z</time></trkpt><trkpt lat="45.65205445645748" lon="3.0841369836563612"><ele>517.0</ele><time>2026-04-18T08:15:58Z</time></trkpt><trkpt lat="45.6519417495823" lon="3.0841271452918155"><ele>517.0</ele><time>2026-04-18T08:15:59Z</time></trkpt><trkpt lat="45.65183696983493" lon="3.084117066114736"><ele>517.0</ele><time>2026-04-18T08:16:00Z</time></trkpt><trkpt lat="45.6517264584622" lon="3.0841160686555766"><ele>517.0</ele><time>2026-04-18T08:16:01Z</time></trkpt><trkpt lat="45.65161542556143" lon="3.0841182186809486"><ele>516.6</ele><time>2026-04-18T08:16:02Z</time></trkpt><trkpt lat="45.651512587198596" lon="3.084130267029272"><ele>516.2</ele><time>2026-04-18T08:16:03Z</time></trkpt><trkpt lat="45.65141299064312" lon="3.0841524153300943"><ele>515.8</ele><time>2026-04-18T08:16:04Z</time></trkpt><trkpt lat="45.65131547614633" lon="3.084178553396565"><ele>515.4</ele><time>2026-04-18T08:16:05Z</time></trkpt><trkpt lat="45.651214582916694" lon="3.0842071735535144"><ele>515.0</ele><time>2026-04-18T08:16:06Z</time></trkpt><trkpt lat="45.651104606614176" lon="3.0842380337261783"><ele>514.75</ele><time>2026-04-18T08:16:07Z</time></trkpt><trkpt lat="45.650996172829814" lon="3.0842730282899606"><ele>514.5</ele><time>2026-04-18T08:16:08Z</time></trkpt><trkpt lat="45.65087834053184" lon="3.0842914123109195"><ele>514.25</ele><time>2026-04-18T08:16:09Z</time></trkpt><trkpt lat="45.65076105995039" lon="3.0843568470087903"><ele>514.0</ele><time>2026-04-18T08:16:09.999Z</time></trkpt><trkpt lat="45.65065452416054" lon="3.0843960187063852"><ele>514.0</ele><time>2026-04-18T08:16:10.999Z</time></trkpt><trkpt lat="45.650560003252615" lon="3.0844357811900815"><ele>514.0</ele><time>2026-04-18T08:16:11.999Z</time></trkpt><trkpt lat="45.65046210412977" lon="3.0844867323948173"><ele>514.0</ele><time>2026-04-18T08:16:12.999Z</time></trkpt><trkpt lat="45.65035826608601" lon="3.0845406791586343"><ele>514.0</ele><time>2026-04-18T08:16:13.999Z</time></trkpt><trkpt lat="45.6502417533514" lon="3.0846034663289106"><ele>514.0</ele><time>2026-04-18T08:16:14.999Z</time></trkpt><trkpt lat="45.650122906188535" lon="3.084653191987917"><ele>513.5</ele><time>2026-04-18T08:16:15.999Z</time></trkpt><trkpt lat="45.649999554318754" lon="3.084678502010003"><ele>513.0</ele><time>2026-04-18T08:16:16.999Z</time></trkpt><trkpt lat="45.649874209523226" lon="3.084671744279126"><ele>512.5</ele><time>2026-04-18T08:16:17.999Z</time></trkpt><trkpt lat="45.64974496240182" lon="3.08464620993151"><ele>512.0</ele><time>2026-04-18T08:16:18.999Z</time></trkpt><trkpt lat="45.64962302625385" lon="3.0846213135761142"><ele>512.0</ele><time>2026-04-18T08:16:19.999Z</time></trkpt><trkpt lat="45.64949813149705" lon="3.0846162954283636"><ele>512.0</ele><time>2026-04-18T08:16:20.999Z</time></trkpt><trkpt lat="45.6493686322859" lon="3.0846431060896733"><ele>512.0</ele><time>2026-04-18T08:16:21.999Z</time></trkpt><trkpt lat="45.649229889306426" lon="3.084693598126622"><ele>512.0</ele><time>2026-04-18T08:16:22.999Z</time></trkpt><trkpt lat="45.649083437704284" lon="3.084759264522086"><ele>511.66666666666663</ele><time>2026-04-18T08:16:23.999Z</time></trkpt><trkpt lat="45.64892558387365" lon="3.0848343061339163"><ele>511.33333333333337</ele><time>2026-04-18T08:16:24.999Z</time></trkpt><trkpt lat="45.6487572817489" lon="3.084926901560005"><ele>511.0</ele><time>2026-04-18T08:16:25.999Z</time></trkpt><trkpt lat="45.64858934339694" lon="3.0850529059088756"><ele>512.0</ele><time>2026-04-18T08:16:26.999Z</time></trkpt><trkpt lat="45.6484229403337" lon="3.0852132190090975"><ele>513.0</ele><time>2026-04-18T08:16:27.999Z</time></trkpt><trkpt lat="45.64827480429383" lon="3.0853771066640245"><ele>514.0</ele><time>2026-04-18T08:16:28.999Z</time></trkpt><trkpt lat="45.648139407609776" lon="3.085535997703971"><ele>514.0</ele><time>2026-04-18T08:16:29.999Z</time></trkpt><trkpt lat="45.64799961833822" lon="3.0856945581716273"><ele>514.0</ele><time>2026-04-18T08:16:30.999Z</time></trkpt><trkpt lat="45.64785689866434" lon="3.085837498677473"><ele>514.0</ele><time>2026-04-18T08:16:31.999Z</time></trkpt><trkpt lat="45.64770483344232" lon="3.085973038793318"><ele>515.6666666666667</ele><time>2026-04-18T08:16:32.999Z</time></trkpt><trkpt lat="45.64756923060471" lon="3.0861054859969017"><ele>517.3333333333334</ele><time>2026-04-18T08:16:33.999Z</time></trkpt><trkpt lat="45.64744299568621" lon="3.086261839889984"><ele>519.0</ele><time>2026-04-18T08:16:34.999Z</time></trkpt><trkpt lat="45.647345438533705" lon="3.0864341471935237"><ele>519.6666666666666</ele><time>2026-04-18T08:16:35.999Z</time></trkpt><trkpt lat="45.64725260167961" lon="3.086628576408099"><ele>520.3333333333333</ele><time>2026-04-18T08:16:36.999Z</time></trkpt><trkpt lat="45.64716237096058" lon="3.086830367489623"><ele>521.0</ele><time>2026-04-18T08:16:37.999Z</time></trkpt><trkpt lat="45.647046536109464" lon="3.0869995365298735"><ele>519.3333333333333</ele><time>2026-04-18T08:16:38.999Z</time></trkpt><trkpt lat="45.64692225198879" lon="3.0871530449972076"><ele>517.6666666666666</ele><time>2026-04-18T08:16:39.999Z</time></trkpt><trkpt lat="45.64678129819817" lon="3.087293752512914"><ele>516.0</ele><time>2026-04-18T08:16:40.999Z</time></trkpt><trkpt lat="45.64662081333589" lon="3.087351017569887"><ele>516.0</ele><time>2026-04-18T08:16:41.999Z</time></trkpt><trkpt lat="45.64646214984521" lon="3.0874042879180186"><ele>516.0</ele><time>2026-04-18T08:16:42.999Z</time></trkpt><trkpt lat="45.64631394606756" lon="3.087451311545157"><ele>516.0</ele><time>2026-04-18T08:16:43.999Z</time></trkpt><trkpt lat="45.646172910881596" lon="3.0875045515926485"><ele>516.0</ele><time>2026-04-18T08:16:44.999Z</time></trkpt><trkpt lat="45.64603035932315" lon="3.0875718764991755"><ele>516.0</ele><time>2026-04-18T08:16:45.999Z</time></trkpt><trkpt lat="45.645890677099985" lon="3.0876610531941724"><ele>516.0</ele><time>2026-04-18T08:16:46.999Z</time></trkpt><trkpt lat="45.64575526517754" lon="3.087756434610379"><ele>516.0</ele><time>2026-04-18T08:16:47.999Z</time></trkpt><trkpt lat="45.645614108593065" lon="3.087849326235666"><ele>516.0</ele><time>2026-04-18T08:16:48.999Z</time></trkpt><trkpt lat="45.64547471492197" lon="3.0879319209377303"><ele>516.0</ele><time>2026-04-18T08:16:49.999Z</time></trkpt><trkpt lat="45.64532046900633" lon="3.0880166167774634"><ele>515.6666666666666</ele><time>2026-04-18T08:16:50.999Z</time></trkpt><trkpt lat="45.6451699264085" lon="3.088087260497759"><ele>515.3333333333333</ele><time>2026-04-18T08:16:51.999Z</time></trkpt><trkpt lat="45.645020169568596" lon="3.0881515397008577"><ele>515.0</ele><time>2026-04-18T08:16:52.999Z</time></trkpt><trkpt lat="45.6448668304862" lon="3.0882125542455663"><ele>515.6666666666666</ele><time>2026-04-18T08:16:53.999Z</time></trkpt><trkpt lat="45.64471752213233" lon="3.0882722197524677"><ele>516.3333333333334</ele><time>2026-04-18T08:16:54.999Z</time></trkpt><trkpt lat="45.644562043472845" lon="3.08833427397776"><ele>517.0</ele><time>2026-04-18T08:16:55.999Z</time></trkpt><trkpt lat="45.6444115878617" lon="3.0883979621606406"><ele>517.0</ele><time>2026-04-18T08:16:56.999Z</time></trkpt><trkpt lat="45.64425733649252" lon="3.0884716464710986"><ele>517.0</ele><time>2026-04-18T08:16:57.999Z</time></trkpt><trkpt lat="45.644113649050084" lon="3.0885557408912385"><ele>517.0</ele><time>2026-04-18T08:16:58.999Z</time></trkpt><trkpt lat="45.64397314934675" lon="3.0886533924071906"><ele>517.0</ele><time>2026-04-18T08:16:59.999Z</time></trkpt><trkpt lat="45.64382816999664" lon="3.0887609863852887"><ele>517.0</ele><time>2026-04-18T08:17:00.999Z</time></trkpt><trkpt lat="45.64368020879281" lon="3.0888800201514006"><ele>517.0</ele><time>2026-04-18T08:17:01.999Z</time></trkpt><trkpt lat="45.64353667167878" lon="3.0889974695671505"><ele>519.0</ele><time>2026-04-18T08:17:02.999Z</time></trkpt><trkpt lat="45.643396656742496" lon="3.089121874977003"><ele>521.0</ele><time>2026-04-18T08:17:03.999Z</time></trkpt><trkpt lat="45.643268302453656" lon="3.0892601164928126"><ele>523.0</ele><time>2026-04-18T08:17:04.999Z</time></trkpt><trkpt lat="45.64315836123921" lon="3.08942331465561"><ele>523.0</ele><time>2026-04-18T08:17:05.999Z</time></trkpt><trkpt lat="45.64305835350206" lon="3.089607111429572"><ele>523.0</ele><time>2026-04-18T08:17:06.999Z</time></trkpt><trkpt lat="45.642973487139244" lon="3.0897889822378706"><ele>523.0</ele><time>2026-04-18T08:17:07.999Z</time></trkpt><trkpt lat="45.64290004724624" lon="3.0899845756400945"><ele>524.0</ele><time>2026-04-18T08:17:08.999Z</time></trkpt><trkpt lat="45.64283599067424" lon="3.090189226921156"><ele>525.0</ele><time>2026-04-18T08:17:09.999Z</time></trkpt><trkpt lat="45.642773579447756" lon="3.0903950564513236"><ele>526.0</ele><time>2026-04-18T08:17:10.999Z</time></trkpt><trkpt lat="45.64268660762388" lon="3.090572386048147"><ele>526.0</ele><time>2026-04-18T08:17:11.999Z</time></trkpt><trkpt lat="45.64259741938853" lon="3.0907340275485575"><ele>526.0</ele><time>2026-04-18T08:17:12.999Z</time></trkpt><trkpt lat="45.642508125409336" lon="3.090907190559255"><ele>526.0</ele><time>2026-04-18T08:17:13.999Z</time></trkpt><trkpt lat="45.64240611663708" lon="3.091038686278641"><ele>526.0</ele><time>2026-04-18T08:17:14.999Z</time></trkpt><trkpt lat="45.64230450349981" lon="3.0911864269495197"><ele>526.25</ele><time>2026-04-18T08:17:15.999Z</time></trkpt><trkpt lat="45.64220443263213" lon="3.0913395030920308"><ele>526.5</ele><time>2026-04-18T08:17:17Z</time></trkpt><trkpt lat="45.6421065453699" lon="3.091493412397681"><ele>526.75</ele><time>2026-04-18T08:17:18Z</time></trkpt><trkpt lat="45.642016242402796" lon="3.091629730505764"><ele>527.0</ele><time>2026-04-18T08:17:19Z</time></trkpt><trkpt lat="45.64192536665975" lon="3.0917549099081594"><ele>527.5</ele><time>2026-04-18T08:17:20Z</time></trkpt><trkpt lat="45.64183267445608" lon="3.0918717252210914"><ele>528.0</ele><time>2026-04-18T08:17:21Z</time></trkpt><trkpt lat="45.64172835087614" lon="3.0919687639944007"><ele>528.5</ele><time>2026-04-18T08:17:22Z</time></trkpt><trkpt lat="45.64162614010683" lon="3.0920393666011234"><ele>529.0</ele><time>2026-04-18T08:17:23Z</time></trkpt><trkpt lat="45.64152328229525" lon="3.0920974596198874"><ele>529.0</ele><time>2026-04-18T08:17:24Z</time></trkpt><trkpt lat="45.64140511615919" lon="3.092159953367297"><ele>529.0</ele><time>2026-04-18T08:17:25Z</time></trkpt><trkpt lat="45.641274504733964" lon="3.092212341140579"><ele>529.0</ele><time>2026-04-18T08:17:26Z</time></trkpt><trkpt lat="45.6411439336151" lon="3.092263859583521"><ele>529.0</ele><time>2026-04-18T08:17:27Z</time></trkpt><trkpt lat="45.64101276865177" lon="3.092316755646608"><ele>530.0</ele><time>2026-04-18T08:17:28Z</time></trkpt><trkpt lat="45.64087524053575" lon="3.0923754224240447"><ele>531.0</ele><time>2026-04-18T08:17:29Z</time></trkpt><trkpt lat="45.64073150120828" lon="3.0924369906881424"><ele>532.0</ele><time>2026-04-18T08:17:30Z</time></trkpt><trkpt lat="45.64059266773715" lon="3.0924993097732054"><ele>533.0</ele><time>2026-04-18T08:17:31Z</time></trkpt><trkpt lat="45.640466558433666" lon="3.0925613748755807"><ele>534.5</ele><time>2026-04-18T08:17:32Z</time></trkpt><trkpt lat="45.640346162172605" lon="3.0926457922411794"><ele>536.0</ele><time>2026-04-18T08:17:33Z</time></trkpt><trkpt lat="45.64023327900462" lon="3.0927624940225327"><ele>537.5</ele><time>2026-04-18T08:17:34Z</time></trkpt><trkpt lat="45.64012839767553" lon="3.0929068712655483"><ele>539.0</ele><time>2026-04-18T08:17:35Z</time></trkpt><trkpt lat="45.64002871361989" lon="3.0930658217728193"><ele>539.0</ele><time>2026-04-18T08:17:36Z</time></trkpt><trkpt lat="45.63994067433171" lon="3.093238263079962"><ele>539.0</ele><time>2026-04-18T08:17:37Z</time></trkpt><trkpt lat="45.63986003303676" lon="3.0933991121729907"><ele>539.0</ele><time>2026-04-18T08:17:38Z</time></trkpt><trkpt lat="45.639784300423244" lon="3.093563857814826"><ele>539.0</ele><time>2026-04-18T08:17:39Z</time></trkpt><trkpt lat="45.639719090994674" lon="3.093750199957756"><ele>540.5</ele><time>2026-04-18T08:17:40Z</time></trkpt><trkpt lat="45.63966110061101" lon="3.0939429460339407"><ele>542.0</ele><time>2026-04-18T08:17:41Z</time></trkpt><trkpt lat="45.63960537508669" lon="3.094110210462434"><ele>543.5</ele><time>2026-04-18T08:17:42Z</time></trkpt><trkpt lat="45.63951903270981" lon="3.0942460212979945"><ele>545.0</ele><time>2026-04-18T08:17:43Z</time></trkpt><trkpt lat="45.6394299519007" lon="3.0943811137450767"><ele>545.5</ele><time>2026-04-18T08:17:44Z</time></trkpt><trkpt lat="45.639326191667486" lon="3.0945076867862595"><ele>546.0</ele><time>2026-04-18T08:17:45Z</time></trkpt><trkpt lat="45.63920205433355" lon="3.0946100572130897"><ele>546.5</ele><time>2026-04-18T08:17:46Z</time></trkpt><trkpt lat="45.6390770631302" lon="3.0947123968127412"><ele>547.0</ele><time>2026-04-18T08:17:47Z</time></trkpt><trkpt lat="45.638940327825956" lon="3.094768559409758"><ele>547.0</ele><time>2026-04-18T08:17:48Z</time></trkpt><trkpt lat="45.6388067588728" lon="3.0947979436367987"><ele>547.0</ele><time>2026-04-18T08:17:49Z</time></trkpt><trkpt lat="45.638666272783965" lon="3.0947947781204213"><ele>547.0</ele><time>2026-04-18T08:17:50Z</time></trkpt><trkpt lat="45.638526137513864" lon="3.094774564451472"><ele>547.0</ele><time>2026-04-18T08:17:51Z</time></trkpt><trkpt lat="45.63838877753946" lon="3.0947312306975236"><ele>547.5</ele><time>2026-04-18T08:17:52Z</time></trkpt><trkpt lat="45.63825505179544" lon="3.0946645901667273"><ele>548.0</ele><time>2026-04-18T08:17:53Z</time></trkpt><trkpt lat="45.638130119147895" lon="3.094570004230003"><ele>548.5</ele><time>2026-04-18T08:17:54Z</time></trkpt><trkpt lat="45.63801391806632" lon="3.094448523532256"><ele>549.0</ele><time>2026-04-18T08:17:55Z</time></trkpt><trkpt lat="45.63791049950219" lon="3.0943255199675495"><ele>549.0</ele><time>2026-04-18T08:17:56Z</time></trkpt><trkpt lat="45.63781179371996" lon="3.0942107305933404"><ele>549.0</ele><time>2026-04-18T08:17:57Z</time></trkpt><trkpt lat="45.63771515780994" lon="3.0941112651915406"><ele>549.0</ele><time>2026-04-18T08:17:58Z</time></trkpt><trkpt lat="45.63761491100082" lon="3.0940413351714753"><ele>549.0</ele><time>2026-04-18T08:17:59Z</time></trkpt><trkpt lat="45.637503299381116" lon="3.0940059998895566"><ele>549.5</ele><time>2026-04-18T08:18:00Z</time></trkpt><trkpt lat="45.637385115313016" lon="3.0940027062813766"><ele>550.0</ele><time>2026-04-18T08:18:01Z</time></trkpt><trkpt lat="45.63727443205033" lon="3.094024849404402"><ele>550.5</ele><time>2026-04-18T08:18:02Z</time></trkpt><trkpt lat="45.637158425984985" lon="3.094070465695772"><ele>551.0</ele><time>2026-04-18T08:18:03Z</time></trkpt><trkpt lat="45.63704978166144" lon="3.094133107603284"><ele>553.5</ele><time>2026-04-18T08:18:04Z</time></trkpt><trkpt lat="45.63694029772917" lon="3.094217553054156"><ele>556.0</ele><time>2026-04-18T08:18:05Z</time></trkpt><trkpt lat="45.636833607809756" lon="3.0943108860709128"><ele>558.5</ele><time>2026-04-18T08:18:06Z</time></trkpt><trkpt lat="45.63672406318988" lon="3.0943981992263048"><ele>561.0</ele><time>2026-04-18T08:18:07Z</time></trkpt><trkpt lat="45.63660344039355" lon="3.0944511932389953"><ele>561.0</ele><time>2026-04-18T08:18:08Z</time></trkpt><trkpt lat="45.63647654111739" lon="3.0944723956263713"><ele>561.0</ele><time>2026-04-18T08:18:09Z</time></trkpt><trkpt lat="45.63634765582286" lon="3.0944741164840877"><ele>561.0</ele><time>2026-04-18T08:18:10Z</time></trkpt><trkpt lat="45.63622068902461" lon="3.0944490718824125"><ele>561.0</ele><time>2026-04-18T08:18:11Z</time></trkpt><trkpt lat="45.63609385267716" lon="3.0944015211898717"><ele>562.0</ele><time>2026-04-18T08:18:12Z</time></trkpt><trkpt lat="45.63596781395033" lon="3.0943527855124673"><ele>563.0</ele><time>2026-04-18T08:18:13Z</time></trkpt><trkpt lat="45.63584200513557" lon="3.0943110486288483"><ele>564.0</ele><time>2026-04-18T08:18:14Z</time></trkpt><trkpt lat="45.63571183223814" lon="3.0942717213258892"><ele>565.0</ele><time>2026-04-18T08:18:15Z</time></trkpt><trkpt lat="45.635586113422264" lon="3.0942346274125043"><ele>565.0</ele><time>2026-04-18T08:18:16Z</time></trkpt><trkpt lat="45.63546232430319" lon="3.094193023222325"><ele>565.0</ele><time>2026-04-18T08:18:17Z</time></trkpt><trkpt lat="45.63533969679114" lon="3.0941424324832387"><ele>565.0</ele><time>2026-04-18T08:18:18Z</time></trkpt><trkpt lat="45.63521405174504" lon="3.094062638128412"><ele>565.0</ele><time>2026-04-18T08:18:19Z</time></trkpt><trkpt lat="45.63509534236212" lon="3.0939635843741247"><ele>564.5</ele><time>2026-04-18T08:18:20Z</time></trkpt><trkpt lat="45.63497692975716" lon="3.093850061848805"><ele>564.0</ele><time>2026-04-18T08:18:21Z</time></trkpt><trkpt lat="45.634860775456836" lon="3.093733553022753"><ele>563.5</ele><time>2026-04-18T08:18:22Z</time></trkpt><trkpt lat="45.63473795591947" lon="3.0936094722988283"><ele>563.0</ele><time>2026-04-18T08:18:23Z</time></trkpt><trkpt lat="45.63461697946084" lon="3.093490771853788"><ele>563.0</ele><time>2026-04-18T08:18:24Z</time></trkpt><trkpt lat="45.634500115545684" lon="3.093379527202184"><ele>563.0</ele><time>2026-04-18T08:18:25Z</time></trkpt><trkpt lat="45.63438034336836" lon="3.0932771017629572"><ele>563.0</ele><time>2026-04-18T08:18:26Z</time></trkpt><trkpt lat="45.63425410689692" lon="3.0932049981958074"><ele>563.0</ele><time>2026-04-18T08:18:27Z</time></trkpt><trkpt lat="45.63411502254597" lon="3.0931563875886643"><ele>565.0</ele><time>2026-04-18T08:18:28Z</time></trkpt><trkpt lat="45.633966824454376" lon="3.093125059846005"><ele>567.0</ele><time>2026-04-18T08:18:29Z</time></trkpt><trkpt lat="45.63383526590022" lon="3.093087388515678"><ele>569.0</ele><time>2026-04-18T08:18:30Z</time></trkpt><trkpt lat="45.633724937232344" lon="3.09301238112629"><ele>571.0</ele><time>2026-04-18T08:18:31Z</time></trkpt><trkpt lat="45.63362242463529" lon="3.0928960015763503"><ele>573.75</ele><time>2026-04-18T08:18:32Z</time></trkpt><trkpt lat="45.633528841053035" lon="3.0927478716662287"><ele>576.5</ele><time>2026-04-18T08:18:33Z</time></trkpt><trkpt lat="45.63345936046211" lon="3.092578203482526"><ele>579.25</ele><time>2026-04-18T08:18:34Z</time></trkpt><trkpt lat="45.63341101386564" lon="3.092374187926308"><ele>582.0</ele><time>2026-04-18T08:18:35Z</time></trkpt><trkpt lat="45.6333842930468" lon="3.0921667105573807"><ele>582.0</ele><time>2026-04-18T08:18:36Z</time></trkpt><trkpt lat="45.6333730289057" lon="3.091948103103023"><ele>582.0</ele><time>2026-04-18T08:18:37Z</time></trkpt><trkpt lat="45.633356402759425" lon="3.0917554252645774"><ele>582.0</ele><time>2026-04-18T08:18:38Z</time></trkpt><trkpt lat="45.63330884907887" lon="3.091604714569038"><ele>582.0</ele><time>2026-04-18T08:18:39Z</time></trkpt><trkpt lat="45.63322991881725" lon="3.091462676876073"><ele>581.75</ele><time>2026-04-18T08:18:40Z</time></trkpt><trkpt lat="45.63312784031044" lon="3.09133542284463"><ele>581.5</ele><time>2026-04-18T08:18:41Z</time></trkpt><trkpt lat="45.63300610134849" lon="3.0912330245356663"><ele>581.25</ele><time>2026-04-18T08:18:42Z</time></trkpt><trkpt lat="45.63286636086668" lon="3.0911651761401804"><ele>581.0</ele><time>2026-04-18T08:18:43Z</time></trkpt><trkpt lat="45.632712411831946" lon="3.091136181395335"><ele>581.0</ele><time>2026-04-18T08:18:44Z</time></trkpt><trkpt lat="45.63254660003067" lon="3.0911457638838007"><ele>581.0</ele><time>2026-04-18T08:18:45Z</time></trkpt><trkpt lat="45.6323675302007" lon="3.091198358609328"><ele>581.0</ele><time>2026-04-18T08:18:46Z</time></trkpt><trkpt lat="45.63218849912106" lon="3.091298755175508"><ele>581.0</ele><time>2026-04-18T08:18:47Z</time></trkpt><trkpt lat="45.631997235013266" lon="3.091437514678422"><ele>581.0</ele><time>2026-04-18T08:18:48Z</time></trkpt><trkpt lat="45.63180866208197" lon="3.0915579763547774"><ele>581.0</ele><time>2026-04-18T08:18:49Z</time></trkpt><trkpt lat="45.63162536045724" lon="3.0916387414704722"><ele>584.3333333333333</ele><time>2026-04-18T08:18:50Z</time></trkpt><trkpt lat="45.631462855718134" lon="3.091684430444841"><ele>587.6666666666666</ele><time>2026-04-18T08:18:51Z</time></trkpt><trkpt lat="45.63130658767294" lon="3.0916798631065214"><ele>591.0</ele><time>2026-04-18T08:18:52Z</time></trkpt><trkpt lat="45.63113982485711" lon="3.0916245137932226"><ele>591.0</ele><time>2026-04-18T08:18:53Z</time></trkpt><trkpt lat="45.630975568260745" lon="3.091524167970102"><ele>591.0</ele><time>2026-04-18T08:18:53.999Z</time></trkpt><trkpt lat="45.630804065155125" lon="3.0913832920600846"><ele>591.0</ele><time>2026-04-18T08:18:54.999Z</time></trkpt><trkpt lat="45.630623192398964" lon="3.091226733588232"><ele>591.0</ele><time>2026-04-18T08:18:55.999Z</time></trkpt><trkpt lat="45.63043839786305" lon="3.0910803864991885"><ele>591.0</ele><time>2026-04-18T08:18:56.999Z</time></trkpt><trkpt lat="45.6302801701086" lon="3.0909305598451464"><ele>591.0</ele><time>2026-04-18T08:18:57.999Z</time></trkpt><trkpt lat="45.630191751554136" lon="3.090736565752662"><ele>593.6666666666666</ele><time>2026-04-18T08:18:58.999Z</time></trkpt><trkpt lat="45.63010891037012" lon="3.0905426878569755"><ele>596.3333333333333</ele><time>2026-04-18T08:18:59.999Z</time></trkpt><trkpt lat="45.63005169668167" lon="3.090310112855368"><ele>599.0</ele><time>2026-04-18T08:19:00.999Z</time></trkpt><trkpt lat="45.63002565900853" lon="3.09008635162963"><ele>600.0</ele><time>2026-04-18T08:19:01.999Z</time></trkpt><trkpt lat="45.630012445348875" lon="3.089840819152048"><ele>601.0</ele><time>2026-04-18T08:19:02.999Z</time></trkpt><trkpt lat="45.62999590772645" lon="3.0896144048251526"><ele>602.0</ele><time>2026-04-18T08:19:03.999Z</time></trkpt><trkpt lat="45.6299901782648" lon="3.0893823469353205"><ele>602.0</ele><time>2026-04-18T08:19:04.999Z</time></trkpt><trkpt lat="45.63000033853091" lon="3.0891985142232588"><ele>602.0</ele><time>2026-04-18T08:19:05.999Z</time></trkpt><trkpt lat="45.63004565216564" lon="3.089033744118858"><ele>602.0</ele><time>2026-04-18T08:19:06.999Z</time></trkpt><trkpt lat="45.63006383262778" lon="3.0888749238620203"><ele>602.0</ele><time>2026-04-18T08:19:07.999Z</time></trkpt><trkpt lat="45.630104527238444" lon="3.0887268945477104"><ele>603.0</ele><time>2026-04-18T08:19:08.999Z</time></trkpt><trkpt lat="45.63014276398782" lon="3.088582046635817"><ele>604.0</ele><time>2026-04-18T08:19:09.999Z</time></trkpt><trkpt lat="45.63017393408638" lon="3.0884330561366613"><ele>605.0</ele><time>2026-04-18T08:19:10.999Z</time></trkpt><trkpt lat="45.63019906397262" lon="3.088279380425087"><ele>606.0</ele><time>2026-04-18T08:19:11.999Z</time></trkpt><trkpt lat="45.63020973483825" lon="3.088124646758544"><ele>607.0</ele><time>2026-04-18T08:19:12.999Z</time></trkpt><trkpt lat="45.630195190429426" lon="3.0879840313159863"><ele>607.25</ele><time>2026-04-18T08:19:13.999Z</time></trkpt><trkpt lat="45.63016018091803" lon="3.0878200638256277"><ele>607.5</ele><time>2026-04-18T08:19:14.999Z</time></trkpt><trkpt lat="45.63011441562344" lon="3.0876728183326416"><ele>607.75</ele><time>2026-04-18T08:19:15.999Z</time></trkpt><trkpt lat="45.63004191408999" lon="3.0875240468480785"><ele>608.0</ele><time>2026-04-18T08:19:16.999Z</time></trkpt><trkpt lat="45.62995993905108" lon="3.0873915462900565"><ele>607.1999999999999</ele><time>2026-04-18T08:19:17.999Z</time></trkpt><trkpt lat="45.62986758698819" lon="3.087290173723228"><ele>606.4</ele><time>2026-04-18T08:19:18.999Z</time></trkpt><trkpt lat="45.62977714700706" lon="3.0872261878799603"><ele>605.5999999999999</ele><time>2026-04-18T08:19:19.999Z</time></trkpt><trkpt lat="45.62967318276737" lon="3.0871824460792374"><ele>604.8</ele><time>2026-04-18T08:19:20.999Z</time></trkpt><trkpt lat="45.62955738835851" lon="3.087152670734576"><ele>604.0</ele><time>2026-04-18T08:19:21.999Z</time></trkpt><trkpt lat="45.62943509344986" lon="3.087134088568771"><ele>603.8</ele><time>2026-04-18T08:19:23Z</time></trkpt><trkpt lat="45.62933296278349" lon="3.0871372122710494"><ele>603.5999999999999</ele><time>2026-04-18T08:19:24Z</time></trkpt><trkpt lat="45.629242992249715" lon="3.0871612639293393"><ele>603.4</ele><time>2026-04-18T08:19:25Z</time></trkpt><trkpt lat="45.62915900074578" lon="3.0872129803595194"><ele>603.1999999999999</ele><time>2026-04-18T08:19:26Z</time></trkpt><trkpt lat="45.62906657920473" lon="3.087301673573295"><ele>603.0</ele><time>2026-04-18T08:19:27Z</time></trkpt><trkpt lat="45.62896495745996" lon="3.087413663422898"><ele>604.75</ele><time>2026-04-18T08:19:28Z</time></trkpt><trkpt lat="45.62887080125859" lon="3.0875496758736434"><ele>606.5</ele><time>2026-04-18T08:19:29Z</time></trkpt><trkpt lat="45.628781565041145" lon="3.087691887867706"><ele>608.25</ele><time>2026-04-18T08:19:30Z</time></trkpt><trkpt lat="45.6286679378626" lon="3.087801911603928"><ele>610.0</ele><time>2026-04-18T08:19:31Z</time></trkpt><trkpt lat="45.62854023513352" lon="3.087900371200538"><ele>610.0</ele><time>2026-04-18T08:19:32Z</time></trkpt><trkpt lat="45.62840421574394" lon="3.0880202045018343"><ele>610.0</ele><time>2026-04-18T08:19:33Z</time></trkpt><trkpt lat="45.62825399429751" lon="3.0881282372531857"><ele>610.0</ele><time>2026-04-18T08:19:34Z</time></trkpt><trkpt lat="45.628083184820966" lon="3.0882222790117693"><ele>613.3333333333334</ele><time>2026-04-18T08:19:35Z</time></trkpt><trkpt lat="45.62791081411408" lon="3.0882608824941884"><ele>616.6666666666666</ele><time>2026-04-18T08:19:36Z</time></trkpt><trkpt lat="45.627746029601745" lon="3.0882709265918113"><ele>620.0</ele><time>2026-04-18T08:19:37Z</time></trkpt><trkpt lat="45.627597513799316" lon="3.088260608964401"><ele>618.5</ele><time>2026-04-18T08:19:38Z</time></trkpt><trkpt lat="45.62744986327722" lon="3.088254566728426"><ele>617.0</ele><time>2026-04-18T08:19:39Z</time></trkpt><trkpt lat="45.627304629924375" lon="3.088253870438917"><ele>615.5</ele><time>2026-04-18T08:19:40Z</time></trkpt><trkpt lat="45.627154001571164" lon="3.088254466827329"><ele>614.0</ele><time>2026-04-18T08:19:41Z</time></trkpt><trkpt lat="45.627022165383586" lon="3.0882543127165016"><ele>616.2</ele><time>2026-04-18T08:19:42Z</time></trkpt><trkpt lat="45.626903987604166" lon="3.0882401825345847"><ele>618.4</ele><time>2026-04-18T08:19:43Z</time></trkpt><trkpt lat="45.626795829267095" lon="3.0882228163828715"><ele>620.6</ele><time>2026-04-18T08:19:44Z</time></trkpt><trkpt lat="45.62669843869492" lon="3.088216319612932"><ele>622.8</ele><time>2026-04-18T08:19:45Z</time></trkpt><trkpt lat="45.6265958295573" lon="3.0882170741156965"><ele>625.0</ele><time>2026-04-18T08:19:46Z</time></trkpt><trkpt lat="45.62648803585565" lon="3.088235248193129"><ele>624.75</ele><time>2026-04-18T08:19:47Z</time></trkpt><trkpt lat="45.6263753410375" lon="3.0882729800156166"><ele>624.5</ele><time>2026-04-18T08:19:48Z</time></trkpt><trkpt lat="45.62626133683782" lon="3.0883324979753324"><ele>624.25</ele><time>2026-04-18T08:19:49Z</time></trkpt><trkpt lat="45.62614430925754" lon="3.0884169336056186"><ele>624.0</ele><time>2026-04-18T08:19:50Z</time></trkpt><trkpt lat="45.626036729951" lon="3.0885348761558964"><ele>624.0</ele><time>2026-04-18T08:19:51Z</time></trkpt><trkpt lat="45.62594066513435" lon="3.0886753536755953"><ele>624.0</ele><time>2026-04-18T08:19:52Z</time></trkpt><trkpt lat="45.62585691658194" lon="3.0888384943474314"><ele>624.0</ele><time>2026-04-18T08:19:53Z</time></trkpt><trkpt lat="45.62579257606371" lon="3.0890086991573216"><ele>624.0</ele><time>2026-04-18T08:19:54Z</time></trkpt><trkpt lat="45.625728836947076" lon="3.089179902006103"><ele>624.25</ele><time>2026-04-18T08:19:55Z</time></trkpt><trkpt lat="45.62564469302665" lon="3.089316257942078"><ele>624.5</ele><time>2026-04-18T08:19:56Z</time></trkpt><trkpt lat="45.62552294347638" lon="3.0893953555628464"><ele>624.75</ele><time>2026-04-18T08:19:57Z</time></trkpt><trkpt lat="45.625399497217764" lon="3.0894852879994357"><ele>625.0</ele><time>2026-04-18T08:19:58Z</time></trkpt><trkpt lat="45.625261907095656" lon="3.0895126215391753"><ele>623.5</ele><time>2026-04-18T08:19:59Z</time></trkpt><trkpt lat="45.62512569372471" lon="3.0895264496615047"><ele>622.0</ele><time>2026-04-18T08:20:00Z</time></trkpt><trkpt lat="45.624985552726336" lon="3.089547418277171"><ele>620.5</ele><time>2026-04-18T08:20:01Z</time></trkpt><trkpt lat="45.62485098905127" lon="3.0895693309245678"><ele>619.0</ele><time>2026-04-18T08:20:02Z</time></trkpt><trkpt lat="45.624708044055204" lon="3.08958999136907"><ele>619.0</ele><time>2026-04-18T08:20:03Z</time></trkpt><trkpt lat="45.62456827245307" lon="3.0896129979209515"><ele>619.0</ele><time>2026-04-18T08:20:04Z</time></trkpt><trkpt lat="45.624429836507495" lon="3.089639029244591"><ele>619.0</ele><time>2026-04-18T08:20:05Z</time></trkpt><trkpt lat="45.62428771386326" lon="3.089665561952498"><ele>619.0</ele><time>2026-04-18T08:20:06Z</time></trkpt><trkpt lat="45.62414703413843" lon="3.089691697857087"><ele>618.5</ele><time>2026-04-18T08:20:07Z</time></trkpt><trkpt lat="45.62400985042152" lon="3.089716353272376"><ele>618.0</ele><time>2026-04-18T08:20:08Z</time></trkpt><trkpt lat="45.62386753023454" lon="3.089748362489838"><ele>617.5</ele><time>2026-04-18T08:20:09Z</time></trkpt><trkpt lat="45.623726841052886" lon="3.0897875019148273"><ele>617.0</ele><time>2026-04-18T08:20:10Z</time></trkpt><trkpt lat="45.62359246047374" lon="3.0898353534480014"><ele>616.5</ele><time>2026-04-18T08:20:11Z</time></trkpt><trkpt lat="45.623456918052504" lon="3.089898111772426"><ele>616.0</ele><time>2026-04-18T08:20:12Z</time></trkpt><trkpt lat="45.62332518585385" lon="3.0899698648681735"><ele>615.5</ele><time>2026-04-18T08:20:13Z</time></trkpt><trkpt lat="45.623195103477066" lon="3.090058046445046"><ele>615.0</ele><time>2026-04-18T08:20:14Z</time></trkpt><trkpt lat="45.623081267036085" lon="3.0901556230381972"><ele>616.0</ele><time>2026-04-18T08:20:15Z</time></trkpt><trkpt lat="45.62297683052865" lon="3.0902674357117457"><ele>617.0</ele><time>2026-04-18T08:20:16Z</time></trkpt><trkpt lat="45.62287966925234" lon="3.0903874335401773"><ele>618.0</ele><time>2026-04-18T08:20:17Z</time></trkpt><trkpt lat="45.62278258455591" lon="3.090526459866898"><ele>619.0</ele><time>2026-04-18T08:20:18Z</time></trkpt><trkpt lat="45.62269157883085" lon="3.0906699257398302"><ele>620.25</ele><time>2026-04-18T08:20:19Z</time></trkpt><trkpt lat="45.62259864820768" lon="3.0908133940799356"><ele>621.5</ele><time>2026-04-18T08:20:20Z</time></trkpt><trkpt lat="45.622500658984286" lon="3.0909568540173233"><ele>622.75</ele><time>2026-04-18T08:20:21Z</time></trkpt><trkpt lat="45.62240007883212" lon="3.091100423385005"><ele>624.0</ele><time>2026-04-18T08:20:22Z</time></trkpt><trkpt lat="45.622302635161915" lon="3.0912480934424256"><ele>624.0</ele><time>2026-04-18T08:20:23Z</time></trkpt><trkpt lat="45.622210267228084" lon="3.0914123746297"><ele>624.0</ele><time>2026-04-18T08:20:24Z</time></trkpt><trkpt lat="45.622126649360055" lon="3.0915805541590684"><ele>624.0</ele><time>2026-04-18T08:20:25Z</time></trkpt><trkpt lat="45.62204411576764" lon="3.091759578232614"><ele>624.0</ele><time>2026-04-18T08:20:26Z</time></trkpt><trkpt lat="45.62195693998727" lon="3.091931417019258"><ele>624.75</ele><time>2026-04-18T08:20:27Z</time></trkpt><trkpt lat="45.62187054630005" lon="3.092096859505646"><ele>625.5</ele><time>2026-04-18T08:20:28Z</time></trkpt><trkpt lat="45.62177621811962" lon="3.092264750722074"><ele>626.25</ele><time>2026-04-18T08:20:29Z</time></trkpt><trkpt lat="45.62167925746147" lon="3.0924140849625483"><ele>627.0</ele><time>2026-04-18T08:20:30Z</time></trkpt><trkpt lat="45.62155688905658" lon="3.0925470228354532"><ele>628.0</ele><time>2026-04-18T08:20:31Z</time></trkpt><trkpt lat="45.62143130277935" lon="3.0926548502403306"><ele>629.0</ele><time>2026-04-18T08:20:32Z</time></trkpt><trkpt lat="45.621292710336505" lon="3.0927481825239402"><ele>630.0</ele><time>2026-04-18T08:20:33Z</time></trkpt><trkpt lat="45.62114435388927" lon="3.09282833036931"><ele>630.0</ele><time>2026-04-18T08:20:34Z</time></trkpt><trkpt lat="45.620993741274155" lon="3.092906114366986"><ele>630.0</ele><time>2026-04-18T08:20:35Z</time></trkpt><trkpt lat="45.62083895906659" lon="3.092991946302939"><ele>630.0</ele><time>2026-04-18T08:20:36Z</time></trkpt><trkpt lat="45.62069228507458" lon="3.0930811041831534"><ele>630.0</ele><time>2026-04-18T08:20:37Z</time></trkpt><trkpt lat="45.62053280559544" lon="3.0931712959941224"><ele>630.0</ele><time>2026-04-18T08:20:38Z</time></trkpt><trkpt lat="45.620380880954585" lon="3.0932633104983385"><ele>630.0</ele><time>2026-04-18T08:20:39Z</time></trkpt><trkpt lat="45.62022494119337" lon="3.09335404854394"><ele>631.6666666666666</ele><time>2026-04-18T08:20:40Z</time></trkpt><trkpt lat="45.62007446939279" lon="3.0934388689177474"><ele>633.3333333333333</ele><time>2026-04-18T08:20:41Z</time></trkpt><trkpt lat="45.61992274617085" lon="3.0935247533090218"><ele>635.0</ele><time>2026-04-18T08:20:42Z</time></trkpt><trkpt lat="45.6197721851925" lon="3.0936135001649654"><ele>635.0</ele><time>2026-04-18T08:20:43Z</time></trkpt><trkpt lat="45.61962858755073" lon="3.093700924748451"><ele>635.0</ele><time>2026-04-18T08:20:44Z</time></trkpt><trkpt lat="45.619489132394506" lon="3.0937815149891645"><ele>635.0</ele><time>2026-04-18T08:20:45Z</time></trkpt><trkpt lat="45.6193540976145" lon="3.0938577609311047"><ele>635.75</ele><time>2026-04-18T08:20:46Z</time></trkpt><trkpt lat="45.61922875186815" lon="3.093926782662268"><ele>636.5</ele><time>2026-04-18T08:20:47Z</time></trkpt><trkpt lat="45.619121485108955" lon="3.0939959698424553"><ele>637.25</ele><time>2026-04-18T08:20:48Z</time></trkpt><trkpt lat="45.61900979018273" lon="3.094087196987005"><ele>638.0</ele><time>2026-04-18T08:20:49Z</time></trkpt><trkpt lat="45.61891694630924" lon="3.0942106132606284"><ele>639.0</ele><time>2026-04-18T08:20:50Z</time></trkpt><trkpt lat="45.6188411563698" lon="3.094373509251948"><ele>640.0</ele><time>2026-04-18T08:20:51Z</time></trkpt><trkpt lat="45.61878003353144" lon="3.0945717123845036"><ele>641.0</ele><time>2026-04-18T08:20:52Z</time></trkpt><trkpt lat="45.61872265554533" lon="3.0947939193737093"><ele>642.0</ele><time>2026-04-18T08:20:53Z</time></trkpt><trkpt lat="45.61866013810269" lon="3.0950265526586325"><ele>643.0</ele><time>2026-04-18T08:20:54Z</time></trkpt><trkpt lat="45.61859383259677" lon="3.0952440660051357"><ele>644.0</ele><time>2026-04-18T08:20:55Z</time></trkpt><trkpt lat="45.61852171694314" lon="3.095462810027746"><ele>644.0</ele><time>2026-04-18T08:20:56Z</time></trkpt><trkpt lat="45.61845828543041" lon="3.095670285053859"><ele>644.0</ele><time>2026-04-18T08:20:57Z</time></trkpt><trkpt lat="45.61839280338514" lon="3.095872973507043"><ele>644.0</ele><time>2026-04-18T08:20:58Z</time></trkpt><trkpt lat="45.61832413683685" lon="3.096083605556997"><ele>643.0</ele><time>2026-04-18T08:20:59Z</time></trkpt><trkpt lat="45.618247704655566" lon="3.0962855713004576"><ele>642.0</ele><time>2026-04-18T08:21:00Z</time></trkpt><trkpt lat="45.618156835171554" lon="3.09648326994229"><ele>641.0</ele><time>2026-04-18T08:21:01Z</time></trkpt><trkpt lat="45.61806578642682" lon="3.0966774340941345"><ele>641.0</ele><time>2026-04-18T08:21:02Z</time></trkpt><trkpt lat="45.6179681265969" lon="3.096887036148265"><ele>641.0</ele><time>2026-04-18T08:21:02.999Z</time></trkpt><trkpt lat="45.61787202372358" lon="3.097083857706931"><ele>641.0</ele><time>2026-04-18T08:21:03.999Z</time></trkpt><trkpt lat="45.61777096929692" lon="3.0972651006890053"><ele>640.0</ele><time>2026-04-18T08:21:04.999Z</time></trkpt><trkpt lat="45.617655618054634" lon="3.0974511923907113"><ele>639.0</ele><time>2026-04-18T08:21:05.999Z</time></trkpt><trkpt lat="45.617529899076196" lon="3.097594369123548"><ele>638.0</ele><time>2026-04-18T08:21:06.999Z</time></trkpt><trkpt lat="45.61739053729692" lon="3.0977088714112586"><ele>638.0</ele><time>2026-04-18T08:21:07.999Z</time></trkpt><trkpt lat="45.61724599680628" lon="3.0978216815489525"><ele>638.0</ele><time>2026-04-18T08:21:08.999Z</time></trkpt><trkpt lat="45.61711338503621" lon="3.0979559321092593"><ele>638.0</ele><time>2026-04-18T08:21:09.999Z</time></trkpt><trkpt lat="45.616992131680924" lon="3.0981178310100668"><ele>636.3333333333333</ele><time>2026-04-18T08:21:10.999Z</time></trkpt><trkpt lat="45.61689491099112" lon="3.0982860713821623"><ele>634.6666666666666</ele><time>2026-04-18T08:21:11.999Z</time></trkpt><trkpt lat="45.61679842880835" lon="3.0984605738875097"><ele>633.0</ele><time>2026-04-18T08:21:12.999Z</time></trkpt><trkpt lat="45.61670874814332" lon="3.09864065180329"><ele>633.0</ele><time>2026-04-18T08:21:13.999Z</time></trkpt><trkpt lat="45.61664094950352" lon="3.0988423797608653"><ele>633.0</ele><time>2026-04-18T08:21:14.999Z</time></trkpt><trkpt lat="45.616604146117346" lon="3.0990781217238124"><ele>633.0</ele><time>2026-04-18T08:21:15.999Z</time></trkpt><trkpt lat="45.616591154203455" lon="3.099325056590656"><ele>632.0</ele><time>2026-04-18T08:21:16.999Z</time></trkpt><trkpt lat="45.616581822901836" lon="3.099573911468045"><ele>631.0</ele><time>2026-04-18T08:21:17.999Z</time></trkpt><trkpt lat="45.61653416350027" lon="3.0998237680813463"><ele>630.0</ele><time>2026-04-18T08:21:18.999Z</time></trkpt><trkpt lat="45.61649191952964" lon="3.100059095172413"><ele>630.0</ele><time>2026-04-18T08:21:19.999Z</time></trkpt><trkpt lat="45.61642392846566" lon="3.100297606105902"><ele>630.0</ele><time>2026-04-18T08:21:20.999Z</time></trkpt><trkpt lat="45.61635849898389" lon="3.100534533330417"><ele>630.0</ele><time>2026-04-18T08:21:21.999Z</time></trkpt><trkpt lat="45.61629578418655" lon="3.100772122915971"><ele>630.3333333333334</ele><time>2026-04-18T08:21:22.999Z</time></trkpt><trkpt lat="45.61623191135989" lon="3.101014934113648"><ele>630.6666666666667</ele><time>2026-04-18T08:21:23.999Z</time></trkpt><trkpt lat="45.61617034384572" lon="3.101261193251536"><ele>631.0</ele><time>2026-04-18T08:21:24.999Z</time></trkpt><trkpt lat="45.616115978775895" lon="3.1014809148322886"><ele>627.0</ele><time>2026-04-18T08:21:25.999Z</time></trkpt><trkpt lat="45.616058633704576" lon="3.101689228399803"><ele>623.0</ele><time>2026-04-18T08:21:26.999Z</time></trkpt><trkpt lat="45.61598369767483" lon="3.1018974888831563"><ele>619.0</ele><time>2026-04-18T08:21:27.999Z</time></trkpt><trkpt lat="45.615892688170916" lon="3.102093989935696"><ele>619.0</ele><time>2026-04-18T08:21:29Z</time></trkpt><trkpt lat="45.61577956188546" lon="3.10229182155809"><ele>619.0</ele><time>2026-04-18T08:21:30Z</time></trkpt><trkpt lat="45.615669105862764" lon="3.1024736812943527"><ele>619.0</ele><time>2026-04-18T08:21:31Z</time></trkpt><trkpt lat="45.615547029993586" lon="3.1026788630337294"><ele>619.3333333333334</ele><time>2026-04-18T08:21:32Z</time></trkpt><trkpt lat="45.6154293870239" lon="3.1028825779208806"><ele>619.6666666666666</ele><time>2026-04-18T08:21:33Z</time></trkpt><trkpt lat="45.61530851468058" lon="3.1030888719356313"><ele>620.0</ele><time>2026-04-18T08:21:34Z</time></trkpt><trkpt lat="45.615198920707215" lon="3.103279096591111"><ele>618.0</ele><time>2026-04-18T08:21:35Z</time></trkpt><trkpt lat="45.61508429047802" lon="3.1034720852120494"><ele>616.0</ele><time>2026-04-18T08:21:36Z</time></trkpt><trkpt lat="45.61497637422143" lon="3.1036646120716935"><ele>614.0</ele><time>2026-04-18T08:21:37Z</time></trkpt><trkpt lat="45.61487303565588" lon="3.103862192000068"><ele>614.0</ele><time>2026-04-18T08:21:38Z</time></trkpt><trkpt lat="45.61476782423351" lon="3.104073084448962"><ele>614.0</ele><time>2026-04-18T08:21:39Z</time></trkpt><trkpt lat="45.61466558992692" lon="3.1042947334362476"><ele>614.0</ele><time>2026-04-18T08:21:40Z</time></trkpt><trkpt lat="45.61456851609059" lon="3.1045236241161214"><ele>613.3333333333333</ele><time>2026-04-18T08:21:41Z</time></trkpt><trkpt lat="45.614472850923555" lon="3.104750045707087"><ele>612.6666666666666</ele><time>2026-04-18T08:21:42Z</time></trkpt><trkpt lat="45.61436951061686" lon="3.1049775829592012"><ele>612.0</ele><time>2026-04-18T08:21:43Z</time></trkpt><trkpt lat="45.6142701209931" lon="3.1052025598554223"><ele>611.0</ele><time>2026-04-18T08:21:44Z</time></trkpt><trkpt lat="45.614174554708406" lon="3.1054298373536584"><ele>610.0</ele><time>2026-04-18T08:21:45Z</time></trkpt><trkpt lat="45.61408031624557" lon="3.1056658645045534"><ele>609.0</ele><time>2026-04-18T08:21:46Z</time></trkpt><trkpt lat="45.61397641928302" lon="3.105936334463547"><ele>609.0</ele><time>2026-04-18T08:21:47Z</time></trkpt><trkpt lat="45.61386615386737" lon="3.106222992924849"><ele>609.0</ele><time>2026-04-18T08:21:48Z</time></trkpt><trkpt lat="45.61375983271881" lon="3.1065060470304653"><ele>610.0</ele><time>2026-04-18T08:21:49Z</time></trkpt><trkpt lat="45.61365552668303" lon="3.1067673130867357"><ele>611.0</ele><time>2026-04-18T08:21:50Z</time></trkpt><trkpt lat="45.613560149740195" lon="3.10701334520163"><ele>612.0</ele><time>2026-04-18T08:21:51Z</time></trkpt><trkpt lat="45.613478266571214" lon="3.1072503771371665"><ele>608.3333333333334</ele><time>2026-04-18T08:21:52Z</time></trkpt><trkpt lat="45.61341632108932" lon="3.107483922974366"><ele>604.6666666666667</ele><time>2026-04-18T08:21:53Z</time></trkpt><trkpt lat="45.613369900101965" lon="3.107709622465334"><ele>601.0</ele><time>2026-04-18T08:21:54Z</time></trkpt><trkpt lat="45.61332580607694" lon="3.1079433473859623"><ele>601.0</ele><time>2026-04-18T08:21:55Z</time></trkpt><trkpt lat="45.61328918507058" lon="3.108148136042249"><ele>601.0</ele><time>2026-04-18T08:21:56Z</time></trkpt><trkpt lat="45.61325047803802" lon="3.1083304746573304"><ele>601.0</ele><time>2026-04-18T08:21:57Z</time></trkpt><trkpt lat="45.61321331587389" lon="3.108500796865531"><ele>601.0</ele><time>2026-04-18T08:21:58Z</time></trkpt><trkpt lat="45.61318248814793" lon="3.1086599183354133"><ele>601.0</ele><time>2026-04-18T08:21:59Z</time></trkpt><trkpt lat="45.61315660518872" lon="3.1087961751660114"><ele>601.0</ele><time>2026-04-18T08:22:00Z</time></trkpt><trkpt lat="45.613136563983" lon="3.1089192673645356"><ele>601.0</ele><time>2026-04-18T08:22:01Z</time></trkpt><trkpt lat="45.61311320547717" lon="3.109033083385543"><ele>601.0</ele><time>2026-04-18T08:22:02Z</time></trkpt><trkpt lat="45.61308786329507" lon="3.109146080159307"><ele>601.0</ele><time>2026-04-18T08:22:03Z</time></trkpt><trkpt lat="45.61306317426921" lon="3.109264123907687"><ele>601.0</ele><time>2026-04-18T08:22:04Z</time></trkpt><trkpt lat="45.61303746397822" lon="3.1093774308637645"><ele>601.0</ele><time>2026-04-18T08:22:05Z</time></trkpt><trkpt lat="45.613013120590715" lon="3.1095090441065425"><ele>601.0</ele><time>2026-04-18T08:22:06Z</time></trkpt><trkpt lat="45.612982851029585" lon="3.1096429864841424"><ele>601.0</ele><time>2026-04-18T08:22:07Z</time></trkpt><trkpt lat="45.61295289506381" lon="3.1098021593903433"><ele>601.0</ele><time>2026-04-18T08:22:08Z</time></trkpt><trkpt lat="45.61292527886003" lon="3.1099459107152954"><ele>601.0</ele><time>2026-04-18T08:22:09Z</time></trkpt><trkpt lat="45.61289494292003" lon="3.1100896627964008"><ele>601.25</ele><time>2026-04-18T08:22:10Z</time></trkpt><trkpt lat="45.612858092564316" lon="3.1102355439779554"><ele>601.5</ele><time>2026-04-18T08:22:11Z</time></trkpt><trkpt lat="45.61280974474227" lon="3.110385443314757"><ele>601.75</ele><time>2026-04-18T08:22:12Z</time></trkpt><trkpt lat="45.61277211782479" lon="3.110533136947563"><ele>602.0</ele><time>2026-04-18T08:22:13Z</time></trkpt><trkpt lat="45.61274077649625" lon="3.1106986400293923"><ele>598.25</ele><time>2026-04-18T08:22:14Z</time></trkpt><trkpt lat="45.61271171785255" lon="3.1108633524746865"><ele>594.5</ele><time>2026-04-18T08:22:15Z</time></trkpt><trkpt lat="45.612676414161186" lon="3.1110269051653625"><ele>590.75</ele><time>2026-04-18T08:22:16Z</time></trkpt><trkpt lat="45.61265089366795" lon="3.111195543064253"><ele>587.0</ele><time>2026-04-18T08:22:17Z</time></trkpt><trkpt lat="45.61262750764959" lon="3.111344802750559"><ele>587.0</ele><time>2026-04-18T08:22:18Z</time></trkpt><trkpt lat="45.612608185535656" lon="3.1115021931424214"><ele>587.0</ele><time>2026-04-18T08:22:19Z</time></trkpt><trkpt lat="45.6125631427838" lon="3.111651019008956"><ele>587.0</ele><time>2026-04-18T08:22:20Z</time></trkpt><trkpt lat="45.61252530880442" lon="3.1118230064456367"><ele>587.0</ele><time>2026-04-18T08:22:21Z</time></trkpt><trkpt lat="45.61249749770021" lon="3.1120032405570366"><ele>587.25</ele><time>2026-04-18T08:22:22Z</time></trkpt><trkpt lat="45.6124157141681" lon="3.1121518357884206"><ele>587.5</ele><time>2026-04-18T08:22:23Z</time></trkpt><trkpt lat="45.61232945087184" lon="3.1123125419104847"><ele>587.75</ele><time>2026-04-18T08:22:24Z</time></trkpt><trkpt lat="45.612216270561284" lon="3.1124905178304814"><ele>588.0</ele><time>2026-04-18T08:22:25Z</time></trkpt><trkpt lat="45.61211694479793" lon="3.1126458765519915"><ele>587.5</ele><time>2026-04-18T08:22:26Z</time></trkpt><trkpt lat="45.611998483606925" lon="3.1127254987502977"><ele>587.0</ele><time>2026-04-18T08:22:27Z</time></trkpt><trkpt lat="45.611876724095744" lon="3.1127754716038303"><ele>586.5</ele><time>2026-04-18T08:22:28Z</time></trkpt><trkpt lat="45.61175067957915" lon="3.112818750418032"><ele>586.0</ele><time>2026-04-18T08:22:29Z</time></trkpt><trkpt lat="45.61162708739668" lon="3.1128592559449983"><ele>586.0</ele><time>2026-04-18T08:22:30Z</time></trkpt><trkpt lat="45.61149221058134" lon="3.11289246307498"><ele>586.0</ele><time>2026-04-18T08:22:31Z</time></trkpt><trkpt lat="45.611369457898036" lon="3.1129003378360154"><ele>586.0</ele><time>2026-04-18T08:22:32Z</time></trkpt><trkpt lat="45.611251172451986" lon="3.112887245275752"><ele>586.0</ele><time>2026-04-18T08:22:33Z</time></trkpt><trkpt lat="45.611156856378614" lon="3.1128483390552626"><ele>586.4</ele><time>2026-04-18T08:22:34Z</time></trkpt><trkpt lat="45.61107119707065" lon="3.112811386214767"><ele>586.8</ele><time>2026-04-18T08:22:35Z</time></trkpt><trkpt lat="45.61099063084745" lon="3.112783473147366"><ele>587.1999999999999</ele><time>2026-04-18T08:22:36Z</time></trkpt><trkpt lat="45.61090409116187" lon="3.1127535295816444"><ele>587.6</ele><time>2026-04-18T08:22:37Z</time></trkpt><trkpt lat="45.61079978460431" lon="3.1127265442903043"><ele>588.0</ele><time>2026-04-18T08:22:38Z</time></trkpt><trkpt lat="45.61069423234356" lon="3.1126960252472142"><ele>588.0</ele><time>2026-04-18T08:22:39Z</time></trkpt><trkpt lat="45.61058756920329" lon="3.1126607964005832"><ele>588.0</ele><time>2026-04-18T08:22:40Z</time></trkpt><trkpt lat="45.61048584794443" lon="3.1126240812975743"><ele>588.0</ele><time>2026-04-18T08:22:41Z</time></trkpt><trkpt lat="45.610398037522096" lon="3.1125983323610162"><ele>588.0</ele><time>2026-04-18T08:22:42Z</time></trkpt><trkpt lat="45.61030525555866" lon="3.112571118256221"><ele>588.0</ele><time>2026-04-18T08:22:43Z</time></trkpt><trkpt lat="45.61022867256472" lon="3.112549571039505"><ele>587.8</ele><time>2026-04-18T08:22:44Z</time></trkpt><trkpt lat="45.610151063527006" lon="3.1125304850578472"><ele>587.5999999999999</ele><time>2026-04-18T08:22:45Z</time></trkpt><trkpt lat="45.610082679604425" lon="3.1125235370639692"><ele>587.4000000000001</ele><time>2026-04-18T08:22:46Z</time></trkpt><trkpt lat="45.60994776381729" lon="3.1125268244443483"><ele>587.2</ele><time>2026-04-18T08:22:48Z</time></trkpt><trkpt lat="45.60985806246657" lon="3.112543430278734"><ele>587.0</ele><time>2026-04-18T08:22:49Z</time></trkpt><trkpt lat="45.609756915984875" lon="3.112561220116654"><ele>587.0</ele><time>2026-04-18T08:22:50Z</time></trkpt><trkpt lat="45.609660030588856" lon="3.11257615568081"><ele>587.0</ele><time>2026-04-18T08:22:51Z</time></trkpt><trkpt lat="45.60954902719148" lon="3.1125988748454843"><ele>587.0</ele><time>2026-04-18T08:22:52Z</time></trkpt><trkpt lat="45.60942316442543" lon="3.1126227854325257"><ele>587.0</ele><time>2026-04-18T08:22:53Z</time></trkpt><trkpt lat="45.60928647386252" lon="3.112645254126439"><ele>584.3333333333333</ele><time>2026-04-18T08:22:54Z</time></trkpt><trkpt lat="45.60913221953124" lon="3.1126678112843544"><ele>581.6666666666666</ele><time>2026-04-18T08:22:55Z</time></trkpt><trkpt lat="45.6089719995625" lon="3.112694753809734"><ele>579.0</ele><time>2026-04-18T08:22:56Z</time></trkpt><trkpt lat="45.60880884036327" lon="3.112722317471828"><ele>576.3333333333334</ele><time>2026-04-18T08:22:57Z</time></trkpt><trkpt lat="45.60865177404414" lon="3.112746136216658"><ele>573.6666666666667</ele><time>2026-04-18T08:22:58Z</time></trkpt><trkpt lat="45.60850517306522" lon="3.112772163760025"><ele>571.0</ele><time>2026-04-18T08:22:59Z</time></trkpt><trkpt lat="45.60835349668864" lon="3.11280055848994"><ele>571.0</ele><time>2026-04-18T08:23:00Z</time></trkpt><trkpt lat="45.60819909397214" lon="3.1128287778941246"><ele>571.0</ele><time>2026-04-18T08:23:01Z</time></trkpt><trkpt lat="45.608050698160305" lon="3.11285623641739"><ele>571.0</ele><time>2026-04-18T08:23:02Z</time></trkpt><trkpt lat="45.60790313291121" lon="3.112884300792358"><ele>570.5</ele><time>2026-04-18T08:23:03Z</time></trkpt><trkpt lat="45.607754020923984" lon="3.112922743314485"><ele>570.0</ele><time>2026-04-18T08:23:04Z</time></trkpt><trkpt lat="45.607627514580145" lon="3.112989595352573"><ele>569.5</ele><time>2026-04-18T08:23:05Z</time></trkpt><trkpt lat="45.60750646408484" lon="3.113097228290514"><ele>569.0</ele><time>2026-04-18T08:23:06Z</time></trkpt><trkpt lat="45.607396706454466" lon="3.1132424587695096"><ele>568.0</ele><time>2026-04-18T08:23:07Z</time></trkpt><trkpt lat="45.60730091633185" lon="3.113414571864481"><ele>567.0</ele><time>2026-04-18T08:23:08Z</time></trkpt><trkpt lat="45.60719832892098" lon="3.113600062260328"><ele>566.0</ele><time>2026-04-18T08:23:09Z</time></trkpt><trkpt lat="45.60707501984693" lon="3.113760272740983"><ele>566.3333333333333</ele><time>2026-04-18T08:23:10Z</time></trkpt><trkpt lat="45.60696894941069" lon="3.11396255963973"><ele>566.6666666666666</ele><time>2026-04-18T08:23:11Z</time></trkpt><trkpt lat="45.606844659587644" lon="3.114153401056256"><ele>567.0</ele><time>2026-04-18T08:23:12Z</time></trkpt><trkpt lat="45.60672462912747" lon="3.114336085611654"><ele>565.6666666666666</ele><time>2026-04-18T08:23:13Z</time></trkpt><trkpt lat="45.60660525455121" lon="3.114528683769154"><ele>564.3333333333333</ele><time>2026-04-18T08:23:14Z</time></trkpt><trkpt lat="45.60648713554196" lon="3.114738475034862"><ele>563.0</ele><time>2026-04-18T08:23:15Z</time></trkpt><trkpt lat="45.606376927651226" lon="3.1149595198667557"><ele>562.0</ele><time>2026-04-18T08:23:16Z</time></trkpt><trkpt lat="45.606259460448186" lon="3.1151717002298263"><ele>561.0</ele><time>2026-04-18T08:23:17Z</time></trkpt><trkpt lat="45.60615973385834" lon="3.1153895368065174"><ele>560.0</ele><time>2026-04-18T08:23:17.999Z</time></trkpt><trkpt lat="45.606060368475106" lon="3.115592554588306"><ele>558.0</ele><time>2026-04-18T08:23:18.999Z</time></trkpt><trkpt lat="45.60597214125844" lon="3.1157880792483486"><ele>556.0</ele><time>2026-04-18T08:23:19.999Z</time></trkpt><trkpt lat="45.6058547143023" lon="3.1159631811014976"><ele>554.0</ele><time>2026-04-18T08:23:20.999Z</time></trkpt><trkpt lat="45.605716841299014" lon="3.116098823697935"><ele>554.0</ele><time>2026-04-18T08:23:21.999Z</time></trkpt><trkpt lat="45.60557505797626" lon="3.1162437677647947"><ele>554.0</ele><time>2026-04-18T08:23:22.999Z</time></trkpt><trkpt lat="45.60543545208477" lon="3.1163971915260844"><ele>554.0</ele><time>2026-04-18T08:23:23.999Z</time></trkpt><trkpt lat="45.60528251450716" lon="3.116547093700635"><ele>552.3333333333333</ele><time>2026-04-18T08:23:24.999Z</time></trkpt><trkpt lat="45.605129047109585" lon="3.1167006875853818"><ele>550.6666666666666</ele><time>2026-04-18T08:23:25.999Z</time></trkpt><trkpt lat="45.60497334804002" lon="3.1168603515760718"><ele>549.0</ele><time>2026-04-18T08:23:26.999Z</time></trkpt><trkpt lat="45.604818119301996" lon="3.1170139078797297"><ele>549.0</ele><time>2026-04-18T08:23:27.999Z</time></trkpt><trkpt lat="45.60465800038663" lon="3.1171721107366706"><ele>549.0</ele><time>2026-04-18T08:23:28.999Z</time></trkpt><trkpt lat="45.60450239491831" lon="3.117330497979099"><ele>549.0</ele><time>2026-04-18T08:23:29.999Z</time></trkpt><trkpt lat="45.6043349112644" lon="3.1174952869893753"><ele>548.3333333333334</ele><time>2026-04-18T08:23:30.999Z</time></trkpt><trkpt lat="45.60416737885115" lon="3.117660329331252"><ele>547.6666666666667</ele><time>2026-04-18T08:23:31.999Z</time></trkpt><trkpt lat="45.60398940084005" lon="3.1178348886219593"><ele>547.0</ele><time>2026-04-18T08:23:32.999Z</time></trkpt><trkpt lat="45.60380381453198" lon="3.118005859784102"><ele>546.3333333333334</ele><time>2026-04-18T08:23:33.999Z</time></trkpt><trkpt lat="45.60362381082328" lon="3.1181515260602937"><ele>545.6666666666666</ele><time>2026-04-18T08:23:35Z</time></trkpt><trkpt lat="45.603445267637774" lon="3.118277461516548"><ele>545.0</ele><time>2026-04-18T08:23:36Z</time></trkpt><trkpt lat="45.60326200383685" lon="3.118399055045619"><ele>542.6666666666666</ele><time>2026-04-18T08:23:37Z</time></trkpt><trkpt lat="45.60306761737271" lon="3.1185289174529616"><ele>540.3333333333334</ele><time>2026-04-18T08:23:38Z</time></trkpt><trkpt lat="45.60287627976318" lon="3.118653648989627"><ele>538.0</ele><time>2026-04-18T08:23:39Z</time></trkpt><trkpt lat="45.6026879335229" lon="3.1187699047197603"><ele>537.6666666666667</ele><time>2026-04-18T08:23:40Z</time></trkpt><trkpt lat="45.60251225545479" lon="3.1188781113015716"><ele>537.3333333333334</ele><time>2026-04-18T08:23:41Z</time></trkpt><trkpt lat="45.60233941955574" lon="3.1189881484328303"><ele>537.0</ele><time>2026-04-18T08:23:42Z</time></trkpt><trkpt lat="45.60217808313199" lon="3.1190895517012494"><ele>535.6666666666666</ele><time>2026-04-18T08:23:43Z</time></trkpt><trkpt lat="45.60201678478916" lon="3.119191027495553"><ele>534.3333333333333</ele><time>2026-04-18T08:23:44Z</time></trkpt><trkpt lat="45.60185995588706" lon="3.1192950267633455"><ele>533.0</ele><time>2026-04-18T08:23:45Z</time></trkpt><trkpt lat="45.6017262385513" lon="3.119416731828435"><ele>533.0</ele><time>2026-04-18T08:23:46Z</time></trkpt><trkpt lat="45.60160036522331" lon="3.119561514531365"><ele>533.0</ele><time>2026-04-18T08:23:47Z</time></trkpt><trkpt lat="45.601498093668155" lon="3.119754092826332"><ele>533.0</ele><time>2026-04-18T08:23:48Z</time></trkpt><trkpt lat="45.60143883722036" lon="3.1199913901552736"><ele>531.3333333333333</ele><time>2026-04-18T08:23:49Z</time></trkpt><trkpt lat="45.601358549649404" lon="3.1202221336579146"><ele>529.6666666666666</ele><time>2026-04-18T08:23:50Z</time></trkpt><trkpt lat="45.60128843860711" lon="3.1204835227366012"><ele>528.0</ele><time>2026-04-18T08:23:51Z</time></trkpt><trkpt lat="45.60121764468406" lon="3.1207591530454795"><ele>527.0</ele><time>2026-04-18T08:23:52Z</time></trkpt><trkpt lat="45.601148911851354" lon="3.121018812456367"><ele>526.0</ele><time>2026-04-18T08:23:53Z</time></trkpt><trkpt lat="45.601077417420285" lon="3.1212524211730286"><ele>525.0</ele><time>2026-04-18T08:23:54Z</time></trkpt><trkpt lat="45.60097768926776" lon="3.1214497261184317"><ele>523.3333333333334</ele><time>2026-04-18T08:23:55Z</time></trkpt><trkpt lat="45.60083800397269" lon="3.121638256235641"><ele>521.6666666666667</ele><time>2026-04-18T08:23:56Z</time></trkpt><trkpt lat="45.60067157977694" lon="3.1218351987546615"><ele>520.0</ele><time>2026-04-18T08:23:57Z</time></trkpt><trkpt lat="45.60052239130905" lon="3.122011843991989"><ele>520.0</ele><time>2026-04-18T08:23:58Z</time></trkpt><trkpt lat="45.60038876883475" lon="3.122192008184748"><ele>520.0</ele><time>2026-04-18T08:23:59Z</time></trkpt><trkpt lat="45.600252813640395" lon="3.1223475429847833"><ele>520.0</ele><time>2026-04-18T08:24:00Z</time></trkpt><trkpt lat="45.600130137220766" lon="3.1225022961481033"><ele>520.0</ele><time>2026-04-18T08:24:01Z</time></trkpt><trkpt lat="45.60002040094644" lon="3.1226466198264653"><ele>520.0</ele><time>2026-04-18T08:24:02Z</time></trkpt><trkpt lat="45.59994284579662" lon="3.1227928257536974"><ele>520.0</ele><time>2026-04-18T08:24:03Z</time></trkpt><trkpt lat="45.59987883196899" lon="3.1229527591707877"><ele>520.0</ele><time>2026-04-18T08:24:04Z</time></trkpt><trkpt lat="45.59985034825183" lon="3.123137315700918"><ele>519.75</ele><time>2026-04-18T08:24:05Z</time></trkpt><trkpt lat="45.59983694154116" lon="3.123314382756301"><ele>519.5</ele><time>2026-04-18T08:24:06Z</time></trkpt><trkpt lat="45.5998422879316" lon="3.123510055095567"><ele>519.25</ele><time>2026-04-18T08:24:07Z</time></trkpt><trkpt lat="45.59984992775379" lon="3.123708236691188"><ele>519.0</ele><time>2026-04-18T08:24:08Z</time></trkpt><trkpt lat="45.59985761197734" lon="3.123902033553859"><ele>518.75</ele><time>2026-04-18T08:24:09Z</time></trkpt><trkpt lat="45.59986144771455" lon="3.1240794061208104"><ele>518.5</ele><time>2026-04-18T08:24:10Z</time></trkpt><trkpt lat="45.59986263062616" lon="3.1242602408633657"><ele>518.25</ele><time>2026-04-18T08:24:11Z</time></trkpt><trkpt lat="45.599856554535556" lon="3.1244283639161896"><ele>518.0</ele><time>2026-04-18T08:24:12Z</time></trkpt><trkpt lat="45.59983511685465" lon="3.124592134023072"><ele>518.0</ele><time>2026-04-18T08:24:13Z</time></trkpt><trkpt lat="45.59980010944066" lon="3.124769149012085"><ele>518.0</ele><time>2026-04-18T08:24:14Z</time></trkpt><trkpt lat="45.599754597595755" lon="3.1249412714164073"><ele>518.0</ele><time>2026-04-18T08:24:15Z</time></trkpt><trkpt lat="45.59968613982554" lon="3.12510432226001"><ele>518.0</ele><time>2026-04-18T08:24:16Z</time></trkpt><trkpt lat="45.59959527379942" lon="3.12524971977964"><ele>516.25</ele><time>2026-04-18T08:24:17Z</time></trkpt><trkpt lat="45.59948983835917" lon="3.1253771317773325"><ele>514.5</ele><time>2026-04-18T08:24:18Z</time></trkpt><trkpt lat="45.599373670006074" lon="3.125472244204331"><ele>512.75</ele><time>2026-04-18T08:24:19Z</time></trkpt><trkpt lat="45.59925028343146" lon="3.1255558439858433"><ele>511.0</ele><time>2026-04-18T08:24:20Z</time></trkpt><trkpt lat="45.59912417182394" lon="3.125628686668552"><ele>511.0</ele><time>2026-04-18T08:24:21Z</time></trkpt><trkpt lat="45.59899238261092" lon="3.125643738005439"><ele>511.0</ele><time>2026-04-18T08:24:22Z</time></trkpt><trkpt lat="45.59885827256668" lon="3.1255899037041215"><ele>511.0</ele><time>2026-04-18T08:24:23Z</time></trkpt><trkpt lat="45.59872493029141" lon="3.1255478832073877"><ele>511.0</ele><time>2026-04-18T08:24:24Z</time></trkpt><trkpt lat="45.59859991156275" lon="3.125484202967161"><ele>510.75</ele><time>2026-04-18T08:24:25Z</time></trkpt><trkpt lat="45.5984703266278" lon="3.1254299372847822"><ele>510.5</ele><time>2026-04-18T08:24:26Z</time></trkpt><trkpt lat="45.59833317416183" lon="3.1253710877391985"><ele>510.25</ele><time>2026-04-18T08:24:27Z</time></trkpt><trkpt lat="45.59819747174088" lon="3.1253219977373674"><ele>510.0</ele><time>2026-04-18T08:24:28Z</time></trkpt><trkpt lat="45.59805989170717" lon="3.1252797420355285"><ele>510.0</ele><time>2026-04-18T08:24:29Z</time></trkpt><trkpt lat="45.597929635618826" lon="3.1252438215692027"><ele>510.0</ele><time>2026-04-18T08:24:30Z</time></trkpt><trkpt lat="45.597804877993035" lon="3.125217603048885"><ele>510.0</ele><time>2026-04-18T08:24:31Z</time></trkpt><trkpt lat="45.59768162749107" lon="3.1252099032894964"><ele>510.0</ele><time>2026-04-18T08:24:32Z</time></trkpt><trkpt lat="45.59755779067607" lon="3.1252003790771723"><ele>508.25</ele><time>2026-04-18T08:24:33Z</time></trkpt><trkpt lat="45.59743727019487" lon="3.1251664729793736"><ele>506.5</ele><time>2026-04-18T08:24:34Z</time></trkpt><trkpt lat="45.597329957441765" lon="3.1250977163503455"><ele>504.75</ele><time>2026-04-18T08:24:35Z</time></trkpt><trkpt lat="45.59723180744997" lon="3.1250153307481523"><ele>503.0</ele><time>2026-04-18T08:24:36Z</time></trkpt><trkpt lat="45.59713849892434" lon="3.124954307241423"><ele>503.0</ele><time>2026-04-18T08:24:37Z</time></trkpt><trkpt lat="45.59703738351423" lon="3.1249461515654624"><ele>502.99999999999994</ele><time>2026-04-18T08:24:38Z</time></trkpt><trkpt lat="45.5969437827669" lon="3.1250072202658115"><ele>502.99999999999994</ele><time>2026-04-18T08:24:39Z</time></trkpt><trkpt lat="45.59686633695377" lon="3.125125451250202"><ele>503.0</ele><time>2026-04-18T08:24:40Z</time></trkpt><trkpt lat="45.59681359548163" lon="3.125278421976722"><ele>503.0</ele><time>2026-04-18T08:24:41Z</time></trkpt><trkpt lat="45.59677662926517" lon="3.1254440829799077"><ele>503.25</ele><time>2026-04-18T08:24:42Z</time></trkpt><trkpt lat="45.59675149886162" lon="3.1256156328484277"><ele>503.5</ele><time>2026-04-18T08:24:43Z</time></trkpt><trkpt lat="45.5967266518111" lon="3.1257864763217467"><ele>503.75</ele><time>2026-04-18T08:24:44Z</time></trkpt><trkpt lat="45.59667731066555" lon="3.1259344038079915"><ele>504.0</ele><time>2026-04-18T08:24:45Z</time></trkpt><trkpt lat="45.59661699784279" lon="3.1260898646021764"><ele>502.75</ele><time>2026-04-18T08:24:46Z</time></trkpt><trkpt lat="45.59653480048915" lon="3.1262135828836155"><ele>501.5</ele><time>2026-04-18T08:24:47Z</time></trkpt><trkpt lat="45.59644144027737" lon="3.1263160740190394"><ele>500.25</ele><time>2026-04-18T08:24:48Z</time></trkpt><trkpt lat="45.59634358256038" lon="3.1264076619034706"><ele>499.0</ele><time>2026-04-18T08:24:49Z</time></trkpt><trkpt lat="45.59622700579361" lon="3.126419484494908"><ele>498.4</ele><time>2026-04-18T08:24:50Z</time></trkpt><trkpt lat="45.59612181527515" lon="3.126441269164655"><ele>497.79999999999995</ele><time>2026-04-18T08:24:51Z</time></trkpt><trkpt lat="45.59601667601001" lon="3.1264039694796057"><ele>497.20000000000005</ele><time>2026-04-18T08:24:52Z</time></trkpt><trkpt lat="45.595915078793546" lon="3.1263521497318627"><ele>496.6</ele><time>2026-04-18T08:24:53Z</time></trkpt><trkpt lat="45.595821582444046" lon="3.1262948014308054"><ele>496.0</ele><time>2026-04-18T08:24:54Z</time></trkpt><trkpt lat="45.595717949611476" lon="3.1262442520565314"><ele>496.0</ele><time>2026-04-18T08:24:55Z</time></trkpt><trkpt lat="45.59560570797078" lon="3.1261918179617694"><ele>496.0</ele><time>2026-04-18T08:24:56Z</time></trkpt><trkpt lat="45.59549316143746" lon="3.1261545308568905"><ele>496.0</ele><time>2026-04-18T08:24:57Z</time></trkpt><trkpt lat="45.595379347098984" lon="3.126130726425483"><ele>496.0</ele><time>2026-04-18T08:24:58Z</time></trkpt><trkpt lat="45.59527633137189" lon="3.126123946984431"><ele>496.0</ele><time>2026-04-18T08:24:59Z</time></trkpt><trkpt lat="45.595173838969004" lon="3.12612221824186"><ele>496.0</ele><time>2026-04-18T08:25:00Z</time></trkpt><trkpt lat="45.5950706572028" lon="3.1261331918534117"><ele>496.0</ele><time>2026-04-18T08:25:01Z</time></trkpt><trkpt lat="45.59497210762779" lon="3.1261634331018358"><ele>496.0</ele><time>2026-04-18T08:25:02Z</time></trkpt><trkpt lat="45.59488301782553" lon="3.1262338727194385"><ele>496.0</ele><time>2026-04-18T08:25:03Z</time></trkpt><trkpt lat="45.594800802424864" lon="3.126334593516253"><ele>496.0</ele><time>2026-04-18T08:25:04Z</time></trkpt><trkpt lat="45.59473616043859" lon="3.126453916142315"><ele>496.0</ele><time>2026-04-18T08:25:05Z</time></trkpt><trkpt lat="45.59468115029806" lon="3.126593121488161"><ele>496.0</ele><time>2026-04-18T08:25:06Z</time></trkpt><trkpt lat="45.59463610410736" lon="3.126735600352322"><ele>496.0</ele><time>2026-04-18T08:25:07Z</time></trkpt><trkpt lat="45.59459021499094" lon="3.1268878789634287"><ele>496.0</ele><time>2026-04-18T08:25:08Z</time></trkpt><trkpt lat="45.59454660620535" lon="3.127052823846508"><ele>495.8</ele><time>2026-04-18T08:25:09Z</time></trkpt><trkpt lat="45.59450892473857" lon="3.127213370170765"><ele>495.6</ele><time>2026-04-18T08:25:10Z</time></trkpt><trkpt lat="45.59447144450544" lon="3.1273631271509355"><ele>495.4</ele><time>2026-04-18T08:25:11Z</time></trkpt><trkpt lat="45.5944357736202" lon="3.12750664173405"><ele>495.2</ele><time>2026-04-18T08:25:12Z</time></trkpt><trkpt lat="45.594402240982475" lon="3.127644653972556"><ele>495.0</ele><time>2026-04-18T08:25:13Z</time></trkpt><trkpt lat="45.594370254052784" lon="3.1277790606094857"><ele>494.2</ele><time>2026-04-18T08:25:14Z</time></trkpt><trkpt lat="45.594339937654496" lon="3.127913947418266"><ele>493.4</ele><time>2026-04-18T08:25:15Z</time></trkpt><trkpt lat="45.59430953778453" lon="3.1280348090628536"><ele>492.6</ele><time>2026-04-18T08:25:16Z</time></trkpt><trkpt lat="45.59427628693216" lon="3.128160745799007"><ele>491.8</ele><time>2026-04-18T08:25:17Z</time></trkpt><trkpt lat="45.594248150018416" lon="3.1282731807561457"><ele>491.0</ele><time>2026-04-18T08:25:18Z</time></trkpt><trkpt lat="45.59421398745738" lon="3.128389791583772"><ele>489.66666666666663</ele><time>2026-04-18T08:25:19Z</time></trkpt><trkpt lat="45.594170802060184" lon="3.128482075318297"><ele>488.3333333333333</ele><time>2026-04-18T08:25:19.999Z</time></trkpt><trkpt lat="45.59410342592141" lon="3.1285552616638097"><ele>487.0</ele><time>2026-04-18T08:25:20.999Z</time></trkpt><trkpt lat="45.59402438304356" lon="3.128611685333467"><ele>485.66666666666663</ele><time>2026-04-18T08:25:21.999Z</time></trkpt><trkpt lat="45.59394124137205" lon="3.1286590278310547"><ele>484.3333333333333</ele><time>2026-04-18T08:25:22.999Z</time></trkpt><trkpt lat="45.593849810901816" lon="3.1287071304109575"><ele>483.0</ele><time>2026-04-18T08:25:23.999Z</time></trkpt><trkpt lat="45.59375751336892" lon="3.1287502106799048"><ele>484.4</ele><time>2026-04-18T08:25:24.999Z</time></trkpt><trkpt lat="45.59365648942919" lon="3.128794206991634"><ele>485.79999999999995</ele><time>2026-04-18T08:25:25.999Z</time></trkpt><trkpt lat="45.59356719870768" lon="3.128823548616418"><ele>487.2</ele><time>2026-04-18T08:25:26.999Z</time></trkpt><trkpt lat="45.59347555579154" lon="3.128864507688212"><ele>488.6</ele><time>2026-04-18T08:25:27.999Z</time></trkpt><trkpt lat="45.5933975159825" lon="3.1289073303464963"><ele>490.0</ele><time>2026-04-18T08:25:28.999Z</time></trkpt><trkpt lat="45.59331412402478" lon="3.128962764980164"><ele>490.0</ele><time>2026-04-18T08:25:29.999Z</time></trkpt><trkpt lat="45.59323239963232" lon="3.1290178745566575"><ele>490.0</ele><time>2026-04-18T08:25:30.999Z</time></trkpt><trkpt lat="45.593144972855725" lon="3.129075167832562"><ele>490.0</ele><time>2026-04-18T08:25:31.999Z</time></trkpt><trkpt lat="45.5930492681618" lon="3.129141034108449"><ele>490.0</ele><time>2026-04-18T08:25:32.999Z</time></trkpt><trkpt lat="45.5929506453399" lon="3.129207397749003"><ele>490.0</ele><time>2026-04-18T08:25:33.999Z</time></trkpt><trkpt lat="45.592854092828425" lon="3.1292701324357504"><ele>487.8</ele><time>2026-04-18T08:25:34.999Z</time></trkpt><trkpt lat="45.59275285373951" lon="3.1293267703338072"><ele>485.6</ele><time>2026-04-18T08:25:35.999Z</time></trkpt><trkpt lat="45.59264489832439" lon="3.129370158958591"><ele>483.4</ele><time>2026-04-18T08:25:36.999Z</time></trkpt><trkpt lat="45.59254071360156" lon="3.12940488428355"><ele>481.2</ele><time>2026-04-18T08:25:37.999Z</time></trkpt><trkpt lat="45.592429593586544" lon="3.1294238965906214"><ele>479.0</ele><time>2026-04-18T08:25:38.999Z</time></trkpt><trkpt lat="45.59232426281811" lon="3.129410653008263"><ele>479.0</ele><time>2026-04-18T08:25:39.999Z</time></trkpt><trkpt lat="45.59221721359502" lon="3.1293815578403086"><ele>479.0</ele><time>2026-04-18T08:25:41Z</time></trkpt><trkpt lat="45.592113335437745" lon="3.1293352211231342"><ele>479.0</ele><time>2026-04-18T08:25:42Z</time></trkpt><trkpt lat="45.592021944027145" lon="3.129258333925654"><ele>479.0</ele><time>2026-04-18T08:25:43Z</time></trkpt><trkpt lat="45.5919300754335" lon="3.1291638680857745"><ele>479.0</ele><time>2026-04-18T08:25:44Z</time></trkpt><trkpt lat="45.591846182628565" lon="3.1290635150230073"><ele>479.2</ele><time>2026-04-18T08:25:45Z</time></trkpt><trkpt lat="45.59176123022018" lon="3.1289605627959616"><ele>479.4</ele><time>2026-04-18T08:25:46Z</time></trkpt><trkpt lat="45.591679170827206" lon="3.1288600011587198"><ele>479.6</ele><time>2026-04-18T08:25:47Z</time></trkpt><trkpt lat="45.59160136152522" lon="3.1287787511917937"><ele>479.8</ele><time>2026-04-18T08:25:48Z</time></trkpt><trkpt lat="45.59151763008959" lon="3.1287060302087104"><ele>480.0</ele><time>2026-04-18T08:25:49Z</time></trkpt><trkpt lat="45.591439834461085" lon="3.1286752129907502"><ele>480.0</ele><time>2026-04-18T08:25:50Z</time></trkpt><trkpt lat="45.59134506213819" lon="3.1286558717800785"><ele>480.0</ele><time>2026-04-18T08:25:51Z</time></trkpt><trkpt lat="45.591257679203" lon="3.128677542331592"><ele>480.0</ele><time>2026-04-18T08:25:52Z</time></trkpt><trkpt lat="45.59116095424439" lon="3.1287229354090123"><ele>480.0</ele><time>2026-04-18T08:25:53Z</time></trkpt><trkpt lat="45.59105803672973" lon="3.128781347812135"><ele>480.0</ele><time>2026-04-18T08:25:54Z</time></trkpt><trkpt lat="45.59094987878878" lon="3.128854313582651"><ele>479.2</ele><time>2026-04-18T08:25:55Z</time></trkpt><trkpt lat="45.59084981314691" lon="3.128923189661163"><ele>478.4</ele><time>2026-04-18T08:25:56Z</time></trkpt><trkpt lat="45.590751159693404" lon="3.1289790802692425"><ele>477.6</ele><time>2026-04-18T08:25:57Z</time></trkpt><trkpt lat="45.59064597721919" lon="3.129009185367219"><ele>476.8</ele><time>2026-04-18T08:25:58Z</time></trkpt><trkpt lat="45.590531746886576" lon="3.1290195631210618"><ele>476.0</ele><time>2026-04-18T08:25:59Z</time></trkpt><trkpt lat="45.590410030171576" lon="3.1290187240860616"><ele>477.0</ele><time>2026-04-18T08:26:00Z</time></trkpt><trkpt lat="45.59028342312918" lon="3.1290143409604103"><ele>478.0</ele><time>2026-04-18T08:26:01Z</time></trkpt><trkpt lat="45.59016968178511" lon="3.1290190563560842"><ele>479.0</ele><time>2026-04-18T08:26:02Z</time></trkpt><trkpt lat="45.590061743537575" lon="3.129034505956864"><ele>480.0</ele><time>2026-04-18T08:26:03Z</time></trkpt><trkpt lat="45.58996153123961" lon="3.129068445927674"><ele>477.3333333333333</ele><time>2026-04-18T08:26:04Z</time></trkpt><trkpt lat="45.58986323079791" lon="3.1291041067005025"><ele>474.66666666666663</ele><time>2026-04-18T08:26:05Z</time></trkpt><trkpt lat="45.58977242905578" lon="3.129131916960238"><ele>472.0</ele><time>2026-04-18T08:26:06Z</time></trkpt><trkpt lat="45.58968799767372" lon="3.1291591225536646"><ele>469.3333333333333</ele><time>2026-04-18T08:26:07Z</time></trkpt><trkpt lat="45.58961160748199" lon="3.1292000862616023"><ele>466.66666666666663</ele><time>2026-04-18T08:26:08Z</time></trkpt><trkpt lat="45.589535697555206" lon="3.1292555122975054"><ele>464.0</ele><time>2026-04-18T08:26:09Z</time></trkpt><trkpt lat="45.5894691357523" lon="3.1293354518676084"><ele>463.99999999999994</ele><time>2026-04-18T08:26:10Z</time></trkpt><trkpt lat="45.589407966482845" lon="3.1294314734055413"><ele>464.0</ele><time>2026-04-18T08:26:11Z</time></trkpt><trkpt lat="45.58936227275846" lon="3.1295277655298914"><ele>464.0</ele><time>2026-04-18T08:26:12Z</time></trkpt><trkpt lat="45.58932678339518" lon="3.12962657262968"><ele>464.0</ele><time>2026-04-18T08:26:13Z</time></trkpt><trkpt lat="45.58930006925306" lon="3.1297129676231346"><ele>463.99999999999994</ele><time>2026-04-18T08:26:14Z</time></trkpt><trkpt lat="45.58925228400848" lon="3.1298584006055865"><ele>464.0</ele><time>2026-04-18T08:26:16Z</time></trkpt><trkpt lat="45.589194191806115" lon="3.129917088450245"><ele>464.0</ele><time>2026-04-18T08:26:19Z</time></trkpt><trkpt lat="45.58912786251274" lon="3.129905873002442"><ele>464.0</ele><time>2026-04-18T08:26:31Z</time></trkpt><trkpt lat="45.58906749818813" lon="3.129822917686325"><ele>464.0</ele><time>2026-04-18T08:26:32Z</time></trkpt><trkpt lat="45.58903462543659" lon="3.129742958919203"><ele>464.0</ele><time>2026-04-18T08:26:33Z</time></trkpt><trkpt lat="45.58893154083319" lon="3.129647294943012"><ele>464.0</ele><time>2026-04-18T08:26:35Z</time></trkpt><trkpt lat="45.58882076917647" lon="3.1295782447070986"><ele>464.0</ele><time>2026-04-18T08:26:37Z</time></trkpt><trkpt lat="45.58871854615277" lon="3.1295230386885593"><ele>464.0</ele><time>2026-04-18T08:26:39Z</time></trkpt><trkpt lat="45.58860871201449" lon="3.1294571691257613"><ele>464.0</ele><time>2026-04-18T08:26:41Z</time></trkpt><trkpt lat="45.588521021293225" lon="3.129403084428673"><ele>464.0</ele><time>2026-04-18T08:26:43Z</time></trkpt><trkpt lat="45.58844013795755" lon="3.1293595776671213"><ele>464.0</ele><time>2026-04-18T08:26:45Z</time></trkpt><trkpt lat="45.58835406152575" lon="3.1293085852594005"><ele>463.99999999999994</ele><time>2026-04-18T08:26:47Z</time></trkpt><trkpt lat="45.58827525930196" lon="3.1292508441547096"><ele>464.0</ele><time>2026-04-18T08:26:49Z</time></trkpt><trkpt lat="45.58820106088791" lon="3.129204268917304"><ele>464.0</ele><time>2026-04-18T08:26:51Z</time></trkpt><trkpt lat="45.58811761420945" lon="3.1291599795477296"><ele>464.0</ele><time>2026-04-18T08:26:53Z</time></trkpt><trkpt lat="45.58804856896684" lon="3.129116732331857"><ele>463.99999999999994</ele><time>2026-04-18T08:26:55Z</time></trkpt><trkpt lat="45.587970196986525" lon="3.1290650958491297"><ele>464.0</ele><time>2026-04-18T08:27:03Z</time></trkpt><trkpt lat="45.58791359549206" lon="3.1290137476964137"><ele>463.2</ele><time>2026-04-18T08:27:05Z</time></trkpt><trkpt lat="45.58782250370997" lon="3.1289895530267415"><ele>462.4</ele><time>2026-04-18T08:27:07Z</time></trkpt><trkpt lat="45.587736992286914" lon="3.1289100196644988"><ele>461.6</ele><time>2026-04-18T08:27:09Z</time></trkpt><trkpt lat="45.58766912553648" lon="3.1287881376656963"><ele>460.8</ele><time>2026-04-18T08:27:11Z</time></trkpt><trkpt lat="45.58764449631679" lon="3.1286735537870776"><ele>460.0</ele><time>2026-04-18T08:27:13Z</time></trkpt><trkpt lat="45.58764891185767" lon="3.1285549158986874"><ele>459.99999999999994</ele><time>2026-04-18T08:27:16Z</time></trkpt><trkpt lat="45.587557627238574" lon="3.128532740923644"><ele>460.0</ele><time>2026-04-18T08:27:17Z</time></trkpt><trkpt lat="45.58748826909802" lon="3.128513321087743"><ele>459.99999999999994</ele><time>2026-04-18T08:27:18Z</time></trkpt><trkpt lat="45.587423880906165" lon="3.128481536551154"><ele>459.99999999999994</ele><time>2026-04-18T08:27:19Z</time></trkpt><trkpt lat="45.58735023018376" lon="3.1284360715893085"><ele>460.0</ele><time>2026-04-18T08:27:20Z</time></trkpt><trkpt lat="45.5872881410578" lon="3.1284069029296395"><ele>459.99999999999994</ele><time>2026-04-18T08:27:21Z</time></trkpt><trkpt lat="45.58722921552201" lon="3.1283751518403773"><ele>459.99999999999994</ele><time>2026-04-18T08:27:22Z</time></trkpt><trkpt lat="45.58716993492813" lon="3.128333718105422"><ele>460.00000000000006</ele><time>2026-04-18T08:27:23Z</time></trkpt><trkpt lat="45.58710997970397" lon="3.128285503203086"><ele>460.0</ele><time>2026-04-18T08:27:24Z</time></trkpt><trkpt lat="45.587048428463795" lon="3.128244694509122"><ele>460.0</ele><time>2026-04-18T08:27:25Z</time></trkpt><trkpt lat="45.58698399501397" lon="3.128186332898181"><ele>460.0</ele><time>2026-04-18T08:27:25.999Z</time></trkpt><trkpt lat="45.586910971913845" lon="3.1281094907448406"><ele>460.00000000000006</ele><time>2026-04-18T08:27:26.999Z</time></trkpt><trkpt lat="45.58684050537713" lon="3.1280506763831237"><ele>460.0</ele><time>2026-04-18T08:27:27.999Z</time></trkpt><trkpt lat="45.58676281813754" lon="3.1280027373730084"><ele>462.33333333333337</ele><time>2026-04-18T08:27:28.999Z</time></trkpt><trkpt lat="45.58668369627836" lon="3.127964540656398"><ele>464.6666666666667</ele><time>2026-04-18T08:27:29.999Z</time></trkpt><trkpt lat="45.586598619415774" lon="3.127890875546455"><ele>467.0</ele><time>2026-04-18T08:27:30.999Z</time></trkpt><trkpt lat="45.58652241658255" lon="3.127826934216971"><ele>469.33333333333337</ele><time>2026-04-18T08:27:31.999Z</time></trkpt><trkpt lat="45.58644652141114" lon="3.1277654742197045"><ele>471.6666666666667</ele><time>2026-04-18T08:27:32.999Z</time></trkpt><trkpt lat="45.58637034049492" lon="3.1276967092374086"><ele>474.0</ele><time>2026-04-18T08:27:33.999Z</time></trkpt><trkpt lat="45.58629800629075" lon="3.1276241126310476"><ele>474.0</ele><time>2026-04-18T08:27:34.999Z</time></trkpt><trkpt lat="45.586229957004626" lon="3.127547498337617"><ele>474.0</ele><time>2026-04-18T08:27:35.999Z</time></trkpt><trkpt lat="45.586166878394714" lon="3.127485031255297"><ele>474.0</ele><time>2026-04-18T08:27:36.999Z</time></trkpt><trkpt lat="45.58609531875295" lon="3.127431807542613"><ele>474.0</ele><time>2026-04-18T08:27:37.999Z</time></trkpt><trkpt lat="45.58601021557329" lon="3.127410486983327"><ele>474.0</ele><time>2026-04-18T08:27:38.999Z</time></trkpt><trkpt lat="45.58592490124566" lon="3.1273951257082904"><ele>474.0</ele><time>2026-04-18T08:27:39.999Z</time></trkpt><trkpt lat="45.585851865336515" lon="3.1273493974260376"><ele>476.1666666666667</ele><time>2026-04-18T08:27:40.999Z</time></trkpt><trkpt lat="45.58580013418556" lon="3.127265010382122"><ele>478.33333333333337</ele><time>2026-04-18T08:27:41.999Z</time></trkpt><trkpt lat="45.58578377129818" lon="3.1271573853449537"><ele>480.5</ele><time>2026-04-18T08:27:42.999Z</time></trkpt><trkpt lat="45.58579108756677" lon="3.1270306504361076"><ele>482.6666666666667</ele><time>2026-04-18T08:27:43.999Z</time></trkpt><trkpt lat="45.58580428181603" lon="3.1269175341767275"><ele>484.83333333333337</ele><time>2026-04-18T08:27:44.999Z</time></trkpt><trkpt lat="45.58581481586842" lon="3.126789438835511"><ele>487.0</ele><time>2026-04-18T08:27:46Z</time></trkpt><trkpt lat="45.58582418227116" lon="3.126652348306252"><ele>487.40000000000003</ele><time>2026-04-18T08:27:47Z</time></trkpt><trkpt lat="45.58583963514671" lon="3.126496764297553"><ele>487.80000000000007</ele><time>2026-04-18T08:27:48Z</time></trkpt><trkpt lat="45.58585417598487" lon="3.1263413506046307"><ele>488.2</ele><time>2026-04-18T08:27:49Z</time></trkpt><trkpt lat="45.58587785073949" lon="3.1261894925453872"><ele>488.6</ele><time>2026-04-18T08:27:50Z</time></trkpt><trkpt lat="45.58589935731605" lon="3.126031315859799"><ele>489.0</ele><time>2026-04-18T08:27:51Z</time></trkpt><trkpt lat="45.58591734702155" lon="3.1258718667077927"><ele>489.5</ele><time>2026-04-18T08:27:52Z</time></trkpt><trkpt lat="45.58593283288945" lon="3.125706365086817"><ele>490.0</ele><time>2026-04-18T08:27:53Z</time></trkpt><trkpt lat="45.58593426590403" lon="3.1255205632071985"><ele>490.5</ele><time>2026-04-18T08:27:54Z</time></trkpt><trkpt lat="45.58590800765428" lon="3.125321783513252"><ele>491.0</ele><time>2026-04-18T08:27:55Z</time></trkpt><trkpt lat="45.585867095355056" lon="3.125107372519226"><ele>491.0</ele><time>2026-04-18T08:27:56Z</time></trkpt><trkpt lat="45.58581499711721" lon="3.1249521947203305"><ele>491.0</ele><time>2026-04-18T08:27:57Z</time></trkpt><trkpt lat="45.5857463470238" lon="3.1248411683905246"><ele>491.0</ele><time>2026-04-18T08:27:58Z</time></trkpt><trkpt lat="45.58565838271196" lon="3.124754161431417"><ele>491.0</ele><time>2026-04-18T08:27:59Z</time></trkpt><trkpt lat="45.58554889616709" lon="3.124690497138149"><ele>491.0</ele><time>2026-04-18T08:28:00Z</time></trkpt><trkpt lat="45.58543381380279" lon="3.1246249899643694"><ele>491.5</ele><time>2026-04-18T08:28:01Z</time></trkpt><trkpt lat="45.58531113178426" lon="3.1245523481374406"><ele>492.0</ele><time>2026-04-18T08:28:02Z</time></trkpt><trkpt lat="45.58518157369783" lon="3.1244699777432228"><ele>492.5</ele><time>2026-04-18T08:28:03Z</time></trkpt><trkpt lat="45.58505508705175" lon="3.1243852436955684"><ele>493.0</ele><time>2026-04-18T08:28:04Z</time></trkpt><trkpt lat="45.5849209295786" lon="3.124297791680265"><ele>493.0</ele><time>2026-04-18T08:28:05Z</time></trkpt><trkpt lat="45.584779681507236" lon="3.124209151498649"><ele>493.0</ele><time>2026-04-18T08:28:06Z</time></trkpt><trkpt lat="45.5846336307867" lon="3.1241163610425953"><ele>493.0</ele><time>2026-04-18T08:28:07Z</time></trkpt><trkpt lat="45.58448539059595" lon="3.124019999264222"><ele>496.6666666666667</ele><time>2026-04-18T08:28:08Z</time></trkpt><trkpt lat="45.584325720557814" lon="3.1239321581536124"><ele>500.33333333333337</ele><time>2026-04-18T08:28:09Z</time></trkpt><trkpt lat="45.58417445050418" lon="3.123868589239058"><ele>504.0</ele><time>2026-04-18T08:28:10Z</time></trkpt><trkpt lat="45.58401177019201" lon="3.123807853299821"><ele>504.0</ele><time>2026-04-18T08:28:11Z</time></trkpt><trkpt lat="45.58387010250494" lon="3.1237156296252637"><ele>504.0</ele><time>2026-04-18T08:28:12Z</time></trkpt><trkpt lat="45.58373115459331" lon="3.123582426240581"><ele>504.0</ele><time>2026-04-18T08:28:13Z</time></trkpt><trkpt lat="45.58360775732654" lon="3.1234335910726636"><ele>504.0</ele><time>2026-04-18T08:28:14Z</time></trkpt><trkpt lat="45.5834981947057" lon="3.1232853980890742"><ele>504.0</ele><time>2026-04-18T08:28:15Z</time></trkpt><trkpt lat="45.58339340288366" lon="3.123132586191362"><ele>504.0</ele><time>2026-04-18T08:28:16Z</time></trkpt><trkpt lat="45.58329951813881" lon="3.122993627998852"><ele>504.0</ele><time>2026-04-18T08:28:17Z</time></trkpt><trkpt lat="45.58320712779907" lon="3.122886641534193"><ele>504.0</ele><time>2026-04-18T08:28:18Z</time></trkpt><trkpt lat="45.58308695535578" lon="3.122814954928673"><ele>504.0</ele><time>2026-04-18T08:28:19Z</time></trkpt><trkpt lat="45.58295050607225" lon="3.122773662334748"><ele>504.0</ele><time>2026-04-18T08:28:20Z</time></trkpt><trkpt lat="45.58281630158111" lon="3.1227205740351343"><ele>504.0</ele><time>2026-04-18T08:28:21Z</time></trkpt><trkpt lat="45.58269388503791" lon="3.1226413007823743"><ele>504.0</ele><time>2026-04-18T08:28:22Z</time></trkpt><trkpt lat="45.58258421729617" lon="3.122581615818476"><ele>504.0</ele><time>2026-04-18T08:28:23Z</time></trkpt><trkpt lat="45.58247564066122" lon="3.1225778600846303"><ele>504.0</ele><time>2026-04-18T08:28:24Z</time></trkpt><trkpt lat="45.582353388305926" lon="3.1225983134128805"><ele>504.0</ele><time>2026-04-18T08:28:25Z</time></trkpt><trkpt lat="45.58222106855178" lon="3.122595228322082"><ele>504.0</ele><time>2026-04-18T08:28:26Z</time></trkpt><trkpt lat="45.582079719216814" lon="3.122528903825046"><ele>504.0</ele><time>2026-04-18T08:28:27Z</time></trkpt><trkpt lat="45.58195342783261" lon="3.1224496707806138"><ele>504.0</ele><time>2026-04-18T08:28:28Z</time></trkpt><trkpt lat="45.58184015635927" lon="3.122389230787439"><ele>504.0</ele><time>2026-04-18T08:28:29Z</time></trkpt><trkpt lat="45.58172729609284" lon="3.1223360187374127"><ele>505.2</ele><time>2026-04-18T08:28:30Z</time></trkpt><trkpt lat="45.58162832330942" lon="3.122275182313718"><ele>506.4</ele><time>2026-04-18T08:28:31Z</time></trkpt><trkpt lat="45.58155364730037" lon="3.122189202041098"><ele>507.6</ele><time>2026-04-18T08:28:32Z</time></trkpt><trkpt lat="45.58150608086617" lon="3.1220680446503604"><ele>508.8</ele><time>2026-04-18T08:28:33Z</time></trkpt><trkpt lat="45.58149031600285" lon="3.1219479451783974"><ele>510.0</ele><time>2026-04-18T08:28:34Z</time></trkpt><trkpt lat="45.58149658742472" lon="3.1218215223614876"><ele>510.0</ele><time>2026-04-18T08:28:35Z</time></trkpt><trkpt lat="45.58151553093777" lon="3.1217040486224357"><ele>510.0</ele><time>2026-04-18T08:28:36Z</time></trkpt><trkpt lat="45.58149937940013" lon="3.121582617729054"><ele>510.0</ele><time>2026-04-18T08:28:37Z</time></trkpt><trkpt lat="45.58144560535434" lon="3.1214695359962867"><ele>510.0</ele><time>2026-04-18T08:28:38Z</time></trkpt><trkpt lat="45.581379267380285" lon="3.1213690161665197"><ele>510.0</ele><time>2026-04-18T08:28:39Z</time></trkpt><trkpt lat="45.581305198849506" lon="3.121283662927679"><ele>511.4</ele><time>2026-04-18T08:28:40Z</time></trkpt><trkpt lat="45.581230603847914" lon="3.121215398025488"><ele>512.8</ele><time>2026-04-18T08:28:41Z</time></trkpt><trkpt lat="45.58115147297944" lon="3.121139202777717"><ele>514.2</ele><time>2026-04-18T08:28:42Z</time></trkpt><trkpt lat="45.58107418078676" lon="3.1210553099590097"><ele>515.6</ele><time>2026-04-18T08:28:43Z</time></trkpt><trkpt lat="45.581000689857746" lon="3.1209678379073855"><ele>517.0</ele><time>2026-04-18T08:28:44Z</time></trkpt><trkpt lat="45.58093409235878" lon="3.1208812201069707"><ele>517.2</ele><time>2026-04-18T08:28:45Z</time></trkpt><trkpt lat="45.580857351528216" lon="3.1207757150229596"><ele>517.4000000000001</ele><time>2026-04-18T08:28:46Z</time></trkpt><trkpt lat="45.5807913555138" lon="3.120674328863417"><ele>517.5999999999999</ele><time>2026-04-18T08:28:47Z</time></trkpt><trkpt lat="45.58071984466212" lon="3.1205668516333427"><ele>517.8</ele><time>2026-04-18T08:28:48Z</time></trkpt><trkpt lat="45.58063906889619" lon="3.120452332985196"><ele>518.0</ele><time>2026-04-18T08:28:49Z</time></trkpt><trkpt lat="45.580563910636144" lon="3.1203394893926983"><ele>519.0</ele><time>2026-04-18T08:28:50Z</time></trkpt><trkpt lat="45.580493692641134" lon="3.120210474678767"><ele>520.0</ele><time>2026-04-18T08:28:51Z</time></trkpt><trkpt lat="45.58043014459047" lon="3.1200727026736663"><ele>521.0</ele><time>2026-04-18T08:28:52Z</time></trkpt><trkpt lat="45.580368315677084" lon="3.1199256515744542"><ele>522.0</ele><time>2026-04-18T08:28:53Z</time></trkpt><trkpt lat="45.58030999251856" lon="3.119781722174875"><ele>522.75</ele><time>2026-04-18T08:28:54Z</time></trkpt><trkpt lat="45.58025612688505" lon="3.119639918835184"><ele>523.5</ele><time>2026-04-18T08:28:55Z</time></trkpt><trkpt lat="45.58020029236959" lon="3.1194930559894485"><ele>524.25</ele><time>2026-04-18T08:28:56Z</time></trkpt><trkpt lat="45.58014319443771" lon="3.119348469635115"><ele>525.0</ele><time>2026-04-18T08:28:57Z</time></trkpt><trkpt lat="45.58008322579491" lon="3.11919816108"><ele>525.5</ele><time>2026-04-18T08:28:58Z</time></trkpt><trkpt lat="45.58002249166707" lon="3.119044484468258"><ele>526.0</ele><time>2026-04-18T08:28:59Z</time></trkpt><trkpt lat="45.579963566874916" lon="3.1188895526977114"><ele>526.5</ele><time>2026-04-18T08:29:00Z</time></trkpt><trkpt lat="45.57990175607272" lon="3.11874688568596"><ele>527.0</ele><time>2026-04-18T08:29:01Z</time></trkpt><trkpt lat="45.57982301244276" lon="3.1186196694346004"><ele>527.0</ele><time>2026-04-18T08:29:02Z</time></trkpt><trkpt lat="45.579730132336685" lon="3.118506634675612"><ele>527.0</ele><time>2026-04-18T08:29:03Z</time></trkpt><trkpt lat="45.579632570366286" lon="3.118395624292837"><ele>527.0</ele><time>2026-04-18T08:29:04Z</time></trkpt><trkpt lat="45.57953677903092" lon="3.118282346949762"><ele>527.0</ele><time>2026-04-18T08:29:05Z</time></trkpt><trkpt lat="45.57944092324688" lon="3.1181660381522436"><ele>529.5</ele><time>2026-04-18T08:29:06Z</time></trkpt><trkpt lat="45.57934694604821" lon="3.1180541720205475"><ele>532.0</ele><time>2026-04-18T08:29:07Z</time></trkpt><trkpt lat="45.579250604803704" lon="3.1179341746099243"><ele>534.5</ele><time>2026-04-18T08:29:08Z</time></trkpt><trkpt lat="45.57915397009121" lon="3.1178078422956474"><ele>537.0</ele><time>2026-04-18T08:29:09Z</time></trkpt><trkpt lat="45.57906199114227" lon="3.117695971802456"><ele>537.0</ele><time>2026-04-18T08:29:10Z</time></trkpt><trkpt lat="45.578956224946744" lon="3.1176117392153384"><ele>537.0</ele><time>2026-04-18T08:29:11Z</time></trkpt><trkpt lat="45.57883503459788" lon="3.117564893137207"><ele>537.0</ele><time>2026-04-18T08:29:12Z</time></trkpt><trkpt lat="45.57870731341712" lon="3.11755502745486"><ele>537.0</ele><time>2026-04-18T08:29:13Z</time></trkpt><trkpt lat="45.578573459495374" lon="3.1175641039377977"><ele>538.0</ele><time>2026-04-18T08:29:14Z</time></trkpt><trkpt lat="45.5784515963138" lon="3.117589905793586"><ele>539.0</ele><time>2026-04-18T08:29:15Z</time></trkpt><trkpt lat="45.578347858879056" lon="3.117627741982882"><ele>540.0</ele><time>2026-04-18T08:29:16Z</time></trkpt><trkpt lat="45.57826887101653" lon="3.1176952689846"><ele>541.0</ele><time>2026-04-18T08:29:16.999Z</time></trkpt><trkpt lat="45.57820234694822" lon="3.117806906315778"><ele>542.0</ele><time>2026-04-18T08:29:17.999Z</time></trkpt><trkpt lat="45.5781610003741" lon="3.1179577962380445"><ele>542.0</ele><time>2026-04-18T08:29:18.999Z</time></trkpt><trkpt lat="45.57814734575149" lon="3.11813588739657"><ele>542.0</ele><time>2026-04-18T08:29:19.999Z</time></trkpt><trkpt lat="45.57813540434993" lon="3.1183208776054587"><ele>542.0</ele><time>2026-04-18T08:29:20.999Z</time></trkpt><trkpt lat="45.578152843740874" lon="3.1185029601951237"><ele>542.0</ele><time>2026-04-18T08:29:21.999Z</time></trkpt><trkpt lat="45.57817141315861" lon="3.1186703793651107"><ele>541.25</ele><time>2026-04-18T08:29:22.999Z</time></trkpt><trkpt lat="45.57818183103303" lon="3.1188350224438435"><ele>540.5</ele><time>2026-04-18T08:29:23.999Z</time></trkpt><trkpt lat="45.57816346967748" lon="3.1189951579288646"><ele>539.75</ele><time>2026-04-18T08:29:24.999Z</time></trkpt><trkpt lat="45.57813949825259" lon="3.1191707842323098"><ele>539.0</ele><time>2026-04-18T08:29:25.999Z</time></trkpt><trkpt lat="45.57811024579096" lon="3.119344055811787"><ele>539.0</ele><time>2026-04-18T08:29:26.999Z</time></trkpt><trkpt lat="45.578076872272405" lon="3.119519548735068"><ele>539.0</ele><time>2026-04-18T08:29:27.999Z</time></trkpt><trkpt lat="45.578040031436224" lon="3.119698946065355"><ele>539.0</ele><time>2026-04-18T08:29:28.999Z</time></trkpt><trkpt lat="45.578001518842896" lon="3.1198730586059993"><ele>539.0</ele><time>2026-04-18T08:29:29.999Z</time></trkpt><trkpt lat="45.57795634287385" lon="3.1200516290917006"><ele>538.75</ele><time>2026-04-18T08:29:30.999Z</time></trkpt><trkpt lat="45.577891485798155" lon="3.1202185834092715"><ele>538.5</ele><time>2026-04-18T08:29:31.999Z</time></trkpt><trkpt lat="45.57780554707082" lon="3.1203769051904797"><ele>538.25</ele><time>2026-04-18T08:29:32.999Z</time></trkpt><trkpt lat="45.57770893526482" lon="3.1205261018749924"><ele>538.0</ele><time>2026-04-18T08:29:33.999Z</time></trkpt><trkpt lat="45.57763177460203" lon="3.1206708488693335"><ele>540.6</ele><time>2026-04-18T08:29:34.999Z</time></trkpt><trkpt lat="45.577547894823" lon="3.1207755443341334"><ele>543.1999999999999</ele><time>2026-04-18T08:29:35.999Z</time></trkpt><trkpt lat="45.57746221992349" lon="3.1208426205341664"><ele>545.8</ele><time>2026-04-18T08:29:36.999Z</time></trkpt><trkpt lat="45.57735661194846" lon="3.1208667626703854"><ele>548.4</ele><time>2026-04-18T08:29:37.999Z</time></trkpt><trkpt lat="45.57723630923994" lon="3.120850042444183"><ele>551.0</ele><time>2026-04-18T08:29:38.999Z</time></trkpt><trkpt lat="45.577111478490274" lon="3.1207896889575726"><ele>557.3333333333333</ele><time>2026-04-18T08:29:39.999Z</time></trkpt><trkpt lat="45.57697736619659" lon="3.120716943135317"><ele>563.6666666666666</ele><time>2026-04-18T08:29:40.999Z</time></trkpt><trkpt lat="45.576832199367104" lon="3.1206481591476747"><ele>570.0</ele><time>2026-04-18T08:29:41.999Z</time></trkpt><trkpt lat="45.57667240781105" lon="3.120588175857059"><ele>570.0</ele><time>2026-04-18T08:29:42.999Z</time></trkpt><trkpt lat="45.5765132336819" lon="3.120537684173353"><ele>570.0</ele><time>2026-04-18T08:29:43.999Z</time></trkpt><trkpt lat="45.576372354710195" lon="3.120497709151924"><ele>570.0</ele><time>2026-04-18T08:29:44.999Z</time></trkpt><trkpt lat="45.57622940268374" lon="3.1204486025091764"><ele>570.6666666666666</ele><time>2026-04-18T08:29:45.999Z</time></trkpt><trkpt lat="45.576076988021455" lon="3.120396452937764"><ele>571.3333333333333</ele><time>2026-04-18T08:29:46.999Z</time></trkpt><trkpt lat="45.57590878583172" lon="3.120337959230719"><ele>572.0</ele><time>2026-04-18T08:29:47.999Z</time></trkpt><trkpt lat="45.57573880785527" lon="3.1202805148432464"><ele>572.0</ele><time>2026-04-18T08:29:48.999Z</time></trkpt><trkpt lat="45.57557768360969" lon="3.120221809685179"><ele>572.0</ele><time>2026-04-18T08:29:49.999Z</time></trkpt><trkpt lat="45.57540980333367" lon="3.1201592691025315"><ele>572.0</ele><time>2026-04-18T08:29:51Z</time></trkpt><trkpt lat="45.575237697326656" lon="3.120095404116973"><ele>572.3333333333333</ele><time>2026-04-18T08:29:52Z</time></trkpt><trkpt lat="45.57507819176984" lon="3.120031891714208"><ele>572.6666666666666</ele><time>2026-04-18T08:29:53Z</time></trkpt><trkpt lat="45.57492939526615" lon="3.1199646107464356"><ele>573.0</ele><time>2026-04-18T08:29:54Z</time></trkpt><trkpt lat="45.57477943598658" lon="3.1198809906809273"><ele>575.6666666666666</ele><time>2026-04-18T08:29:55Z</time></trkpt><trkpt lat="45.574646021400596" lon="3.1197757666420247"><ele>578.3333333333333</ele><time>2026-04-18T08:29:56Z</time></trkpt><trkpt lat="45.57451686718294" lon="3.1196459702388544"><ele>581.0</ele><time>2026-04-18T08:29:57Z</time></trkpt><trkpt lat="45.574387125808784" lon="3.1195240052494575"><ele>581.0</ele><time>2026-04-18T08:29:58Z</time></trkpt><trkpt lat="45.57426653022504" lon="3.119422115189795"><ele>581.0</ele><time>2026-04-18T08:29:59Z</time></trkpt><trkpt lat="45.574155844526345" lon="3.1193416580153634"><ele>581.0</ele><time>2026-04-18T08:30:00Z</time></trkpt><trkpt lat="45.574048308402396" lon="3.11930035713116"><ele>581.0</ele><time>2026-04-18T08:30:01Z</time></trkpt><trkpt lat="45.573948698725914" lon="3.119319744922204"><ele>581.0</ele><time>2026-04-18T08:30:02Z</time></trkpt><trkpt lat="45.57385896237764" lon="3.1193981350651847"><ele>581.0</ele><time>2026-04-18T08:30:03Z</time></trkpt><trkpt lat="45.57378132756787" lon="3.1195212088771482"><ele>581.0</ele><time>2026-04-18T08:30:04Z</time></trkpt><trkpt lat="45.57372594063792" lon="3.1196745031180453"><ele>581.0</ele><time>2026-04-18T08:30:05Z</time></trkpt><trkpt lat="45.57368661949928" lon="3.1198297879530346"><ele>579.5</ele><time>2026-04-18T08:30:06Z</time></trkpt><trkpt lat="45.57372074994918" lon="3.120012099586023"><ele>578.0</ele><time>2026-04-18T08:30:07Z</time></trkpt><trkpt lat="45.57375919411481" lon="3.120188963219478"><ele>576.5</ele><time>2026-04-18T08:30:08Z</time></trkpt><trkpt lat="45.573810414542585" lon="3.1203674792031144"><ele>575.0</ele><time>2026-04-18T08:30:09Z</time></trkpt><trkpt lat="45.5738421515865" lon="3.1205525377665224"><ele>575.0</ele><time>2026-04-18T08:30:10Z</time></trkpt><trkpt lat="45.57388951232902" lon="3.120726722990896"><ele>575.0</ele><time>2026-04-18T08:30:11Z</time></trkpt><trkpt lat="45.57393588129742" lon="3.1209004458035685"><ele>575.0</ele><time>2026-04-18T08:30:12Z</time></trkpt><trkpt lat="45.573981395744035" lon="3.121074897401426"><ele>575.0</ele><time>2026-04-18T08:30:13Z</time></trkpt><trkpt lat="45.57402832119877" lon="3.1212413091907454"><ele>575.25</ele><time>2026-04-18T08:30:14Z</time></trkpt><trkpt lat="45.574082188105514" lon="3.121418065334002"><ele>575.5</ele><time>2026-04-18T08:30:15Z</time></trkpt><trkpt lat="45.574141741178934" lon="3.1215895489649514"><ele>575.75</ele><time>2026-04-18T08:30:16Z</time></trkpt><trkpt lat="45.57420988032645" lon="3.1217635568902664"><ele>576.0</ele><time>2026-04-18T08:30:16.999Z</time></trkpt><trkpt lat="45.57428447048274" lon="3.121939925981467"><ele>576.75</ele><time>2026-04-18T08:30:17.999Z</time></trkpt><trkpt lat="45.574363703829945" lon="3.12211203641706"><ele>577.5</ele><time>2026-04-18T08:30:18.999Z</time></trkpt><trkpt lat="45.57446002900916" lon="3.122266787205184"><ele>578.25</ele><time>2026-04-18T08:30:19.999Z</time></trkpt><trkpt lat="45.574548735097714" lon="3.1224299145412946"><ele>579.0</ele><time>2026-04-18T08:30:20.999Z</time></trkpt><trkpt lat="45.57464647330909" lon="3.1225911953903713"><ele>579.0</ele><time>2026-04-18T08:30:21.999Z</time></trkpt><trkpt lat="45.57473435524349" lon="3.12275514871519"><ele>579.0</ele><time>2026-04-18T08:30:22.999Z</time></trkpt><trkpt lat="45.57482273781485" lon="3.122895267732259"><ele>579.0</ele><time>2026-04-18T08:30:23.999Z</time></trkpt><trkpt lat="45.574899402030404" lon="3.123041563002314"><ele>579.0</ele><time>2026-04-18T08:30:24.999Z</time></trkpt><trkpt lat="45.57497422417812" lon="3.1232096552166513"><ele>581.75</ele><time>2026-04-18T08:30:25.999Z</time></trkpt><trkpt lat="45.57504181008377" lon="3.1233674266645837"><ele>584.5</ele><time>2026-04-18T08:30:26.999Z</time></trkpt><trkpt lat="45.57510435817564" lon="3.123510925643304"><ele>587.25</ele><time>2026-04-18T08:30:27.999Z</time></trkpt><trkpt lat="45.575163952740645" lon="3.1236461406598406"><ele>590.0</ele><time>2026-04-18T08:30:28.999Z</time></trkpt><trkpt lat="45.575217268865806" lon="3.123783596835895"><ele>590.0</ele><time>2026-04-18T08:30:29.999Z</time></trkpt><trkpt lat="45.5752489218424" lon="3.1239211471159942"><ele>590.0</ele><time>2026-04-18T08:30:30.999Z</time></trkpt><trkpt lat="45.5752636533195" lon="3.1240522408663693"><ele>590.0</ele><time>2026-04-18T08:30:31.999Z</time></trkpt><trkpt lat="45.575240639938556" lon="3.124148891540835"><ele>590.0</ele><time>2026-04-18T08:30:32.999Z</time></trkpt><trkpt lat="45.575213079711745" lon="3.1242524463587467"><ele>590.0</ele><time>2026-04-18T08:30:33.999Z</time></trkpt><trkpt lat="45.57517362543665" lon="3.1243347205350323"><ele>590.0</ele><time>2026-04-18T08:30:34.999Z</time></trkpt><trkpt lat="45.57504254074315" lon="3.1242897429653866"><ele>590.0</ele><time>2026-04-18T08:30:35.999Z</time></trkpt><trkpt lat="45.57494293836839" lon="3.1242656332552206"><ele>590.0</ele><time>2026-04-18T08:30:36.999Z</time></trkpt><trkpt lat="45.57487221646505" lon="3.124170399129182"><ele>590.0</ele><time>2026-04-18T08:30:37.999Z</time></trkpt><trkpt lat="45.574807682745366" lon="3.1240431376851188"><ele>590.0</ele><time>2026-04-18T08:30:38.999Z</time></trkpt><trkpt lat="45.574751829004654" lon="3.1239174398138014"><ele>590.0</ele><time>2026-04-18T08:30:39.999Z</time></trkpt><trkpt lat="45.57468436134407" lon="3.123793314134443"><ele>590.0</ele><time>2026-04-18T08:30:40.999Z</time></trkpt><trkpt lat="45.57460671681629" lon="3.123658147361012"><ele>590.0</ele><time>2026-04-18T08:30:41.999Z</time></trkpt><trkpt lat="45.57452880017053" lon="3.123521231850452"><ele>590.0</ele><time>2026-04-18T08:30:42.999Z</time></trkpt><trkpt lat="45.57444058280462" lon="3.1233878595620266"><ele>590.0</ele><time>2026-04-18T08:30:43.999Z</time></trkpt><trkpt lat="45.57433963175189" lon="3.1232632137588934"><ele>591.0</ele><time>2026-04-18T08:30:44.999Z</time></trkpt><trkpt lat="45.574236846617566" lon="3.1231566053825683"><ele>592.0</ele><time>2026-04-18T08:30:45.999Z</time></trkpt><trkpt lat="45.57413201190092" lon="3.1230590535205196"><ele>593.0</ele><time>2026-04-18T08:30:46.999Z</time></trkpt><trkpt lat="45.57402940602508" lon="3.1229699868611718"><ele>594.0</ele><time>2026-04-18T08:30:47.999Z</time></trkpt><trkpt lat="45.57392844799564" lon="3.1228766809599158"><ele>594.0</ele><time>2026-04-18T08:30:48.999Z</time></trkpt><trkpt lat="45.573834118407795" lon="3.122782845986319"><ele>594.0</ele><time>2026-04-18T08:30:49.999Z</time></trkpt><trkpt lat="45.57373471286795" lon="3.1226849964639407"><ele>594.0</ele><time>2026-04-18T08:30:50.999Z</time></trkpt><trkpt lat="45.57362751320098" lon="3.122583981151619"><ele>594.0</ele><time>2026-04-18T08:30:51.999Z</time></trkpt><trkpt lat="45.57351003796937" lon="3.1224735413693443"><ele>595.5</ele><time>2026-04-18T08:30:52.999Z</time></trkpt><trkpt lat="45.57339998413568" lon="3.1223615418188477"><ele>597.0</ele><time>2026-04-18T08:30:53.999Z</time></trkpt><trkpt lat="45.573283726490146" lon="3.1222373952315903"><ele>598.5</ele><time>2026-04-18T08:30:54.999Z</time></trkpt><trkpt lat="45.57316322981104" lon="3.1220984060129084"><ele>600.0</ele><time>2026-04-18T08:30:55.999Z</time></trkpt><trkpt lat="45.57305007428061" lon="3.1219660076356264"><ele>600.0</ele><time>2026-04-18T08:30:56.999Z</time></trkpt><trkpt lat="45.572931000055355" lon="3.1218101014604747"><ele>600.0</ele><time>2026-04-18T08:30:57.999Z</time></trkpt><trkpt lat="45.572807701250376" lon="3.121663950594881"><ele>600.0</ele><time>2026-04-18T08:30:58.999Z</time></trkpt><trkpt lat="45.57269078634867" lon="3.121518776948094"><ele>604.0</ele><time>2026-04-18T08:30:59.999Z</time></trkpt><trkpt lat="45.57257387065886" lon="3.121373111836905"><ele>608.0</ele><time>2026-04-18T08:31:00.999Z</time></trkpt><trkpt lat="45.57245431307927" lon="3.1212201663554646"><ele>612.0</ele><time>2026-04-18T08:31:01.999Z</time></trkpt><trkpt lat="45.57234200908479" lon="3.1210705716953075"><ele>612.0</ele><time>2026-04-18T08:31:02.999Z</time></trkpt><trkpt lat="45.57223552936197" lon="3.1209068736166214"><ele>612.0</ele><time>2026-04-18T08:31:03.999Z</time></trkpt><trkpt lat="45.57214356754631" lon="3.1207402405345985"><ele>612.0</ele><time>2026-04-18T08:31:04.999Z</time></trkpt><trkpt lat="45.572051826998965" lon="3.12056979407036"><ele>616.0</ele><time>2026-04-18T08:31:05.999Z</time></trkpt><trkpt lat="45.571948506044414" lon="3.1204181422794703"><ele>620.0</ele><time>2026-04-18T08:31:06.999Z</time></trkpt><trkpt lat="45.571810975940565" lon="3.1202966302433066"><ele>624.0</ele><time>2026-04-18T08:31:07.999Z</time></trkpt><trkpt lat="45.57166673970422" lon="3.120188294155322"><ele>624.0</ele><time>2026-04-18T08:31:08.998Z</time></trkpt><trkpt lat="45.57152191882751" lon="3.12005675438708"><ele>624.0</ele><time>2026-04-18T08:31:09.998Z</time></trkpt><trkpt lat="45.57139099067863" lon="3.1199033162330636"><ele>624.0</ele><time>2026-04-18T08:31:10.998Z</time></trkpt><trkpt lat="45.571280106144044" lon="3.11973054081812"><ele>627.6666666666666</ele><time>2026-04-18T08:31:11.998Z</time></trkpt><trkpt lat="45.57117377857435" lon="3.119549750914438"><ele>631.3333333333333</ele><time>2026-04-18T08:31:12.998Z</time></trkpt><trkpt lat="45.57107771169391" lon="3.119370938432665"><ele>635.0</ele><time>2026-04-18T08:31:13.998Z</time></trkpt><trkpt lat="45.570995805236365" lon="3.119188454757156"><ele>634.3333333333333</ele><time>2026-04-18T08:31:14.998Z</time></trkpt><trkpt lat="45.57094948725486" lon="3.1189826793386546"><ele>633.6666666666666</ele><time>2026-04-18T08:31:15.998Z</time></trkpt><trkpt lat="45.57091825224823" lon="3.1187522707258903"><ele>633.0</ele><time>2026-04-18T08:31:16.998Z</time></trkpt><trkpt lat="45.570879308315774" lon="3.118529781811002"><ele>633.0</ele><time>2026-04-18T08:31:17.998Z</time></trkpt><trkpt lat="45.57082312810599" lon="3.1183107224541446"><ele>633.0</ele><time>2026-04-18T08:31:18.998Z</time></trkpt><trkpt lat="45.57076486014992" lon="3.1181066528624912"><ele>633.0</ele><time>2026-04-18T08:31:19.998Z</time></trkpt><trkpt lat="45.57072381810683" lon="3.1178965024479557"><ele>633.25</ele><time>2026-04-18T08:31:20.998Z</time></trkpt><trkpt lat="45.57073533855229" lon="3.117702341653445"><ele>633.5</ele><time>2026-04-18T08:31:21.998Z</time></trkpt><trkpt lat="45.570741952540864" lon="3.1174792330747167"><ele>633.75</ele><time>2026-04-18T08:31:22.998Z</time></trkpt><trkpt lat="45.57073324164502" lon="3.1172620800939117"><ele>634.0</ele><time>2026-04-18T08:31:23.998Z</time></trkpt><trkpt lat="45.570743256284004" lon="3.1170402274252305"><ele>635.25</ele><time>2026-04-18T08:31:24.998Z</time></trkpt><trkpt lat="45.570753258665064" lon="3.1168405209896655"><ele>636.5</ele><time>2026-04-18T08:31:25.998Z</time></trkpt><trkpt lat="45.57074122613613" lon="3.116658309631641"><ele>637.75</ele><time>2026-04-18T08:31:26.998Z</time></trkpt><trkpt lat="45.570699355674876" lon="3.1164783813954893"><ele>639.0</ele><time>2026-04-18T08:31:27.998Z</time></trkpt><trkpt lat="45.570646045138226" lon="3.1163053277581003"><ele>640.2</ele><time>2026-04-18T08:31:28.998Z</time></trkpt><trkpt lat="45.57059455676892" lon="3.116150552154295"><ele>641.4</ele><time>2026-04-18T08:31:29.998Z</time></trkpt><trkpt lat="45.570549897989764" lon="3.116008327810187"><ele>642.6</ele><time>2026-04-18T08:31:30.998Z</time></trkpt><trkpt lat="45.570511703617605" lon="3.1158639371012664"><ele>643.8</ele><time>2026-04-18T08:31:31.998Z</time></trkpt><trkpt lat="45.570477165747256" lon="3.1157181112718186"><ele>645.0</ele><time>2026-04-18T08:31:32.998Z</time></trkpt><trkpt lat="45.5704520984228" lon="3.1155642441906064"><ele>645.2</ele><time>2026-04-18T08:31:33.998Z</time></trkpt><trkpt lat="45.57043504304947" lon="3.1154229205864987"><ele>645.4</ele><time>2026-04-18T08:31:34.998Z</time></trkpt><trkpt lat="45.57041676722159" lon="3.115271496570386"><ele>645.5999999999999</ele><time>2026-04-18T08:31:35.998Z</time></trkpt><trkpt lat="45.57040034672806" lon="3.1151251592695077"><ele>645.8</ele><time>2026-04-18T08:31:36.998Z</time></trkpt><trkpt lat="45.57038937528442" lon="3.114979890345042"><ele>646.0</ele><time>2026-04-18T08:31:37.998Z</time></trkpt><trkpt lat="45.5703797131724" lon="3.114835820480437"><ele>644.1999999999999</ele><time>2026-04-18T08:31:38.998Z</time></trkpt><trkpt lat="45.570357964641396" lon="3.114705000668646"><ele>642.4</ele><time>2026-04-18T08:31:39.998Z</time></trkpt><trkpt lat="45.57032653020233" lon="3.114565733455472"><ele>640.6</ele><time>2026-04-18T08:31:40.998Z</time></trkpt><trkpt lat="45.57029056995761" lon="3.1144382562806947"><ele>638.8</ele><time>2026-04-18T08:31:41.998Z</time></trkpt><trkpt lat="45.57024770370236" lon="3.114308474754128"><ele>637.0</ele><time>2026-04-18T08:31:42.998Z</time></trkpt><trkpt lat="45.570198902432885" lon="3.114177452668297"><ele>636.25</ele><time>2026-04-18T08:31:43.998Z</time></trkpt><trkpt lat="45.57014627690807" lon="3.1140344104881996"><ele>635.5</ele><time>2026-04-18T08:31:44.998Z</time></trkpt><trkpt lat="45.570083768161446" lon="3.113872828390941"><ele>634.75</ele><time>2026-04-18T08:31:45.998Z</time></trkpt><trkpt lat="45.57001782517479" lon="3.1137160006489406"><ele>634.0</ele><time>2026-04-18T08:31:46.998Z</time></trkpt><trkpt lat="45.56994226706284" lon="3.113551568019419"><ele>634.0</ele><time>2026-04-18T08:31:47.998Z</time></trkpt><trkpt lat="45.56986296170329" lon="3.1133884998292154"><ele>634.0</ele><time>2026-04-18T08:31:48.998Z</time></trkpt><trkpt lat="45.56978022847364" lon="3.1132150732312893"><ele>634.0</ele><time>2026-04-18T08:31:49.998Z</time></trkpt><trkpt lat="45.569689613955546" lon="3.1130527410085924"><ele>634.0</ele><time>2026-04-18T08:31:50.998Z</time></trkpt><trkpt lat="45.56959045589585" lon="3.1128701461292985"><ele>631.3333333333334</ele><time>2026-04-18T08:31:51.998Z</time></trkpt><trkpt lat="45.569489712609446" lon="3.112680096758504"><ele>628.6666666666666</ele><time>2026-04-18T08:31:52.998Z</time></trkpt><trkpt lat="45.56939499862317" lon="3.1124947709978947"><ele>626.0</ele><time>2026-04-18T08:31:53.998Z</time></trkpt><trkpt lat="45.56929372600923" lon="3.1122977319621135"><ele>625.3333333333333</ele><time>2026-04-18T08:31:54.998Z</time></trkpt><trkpt lat="45.56919314010986" lon="3.112113095697587"><ele>624.6666666666666</ele><time>2026-04-18T08:31:55.998Z</time></trkpt><trkpt lat="45.56908493385589" lon="3.1119084162299884"><ele>624.0</ele><time>2026-04-18T08:31:56.999Z</time></trkpt><trkpt lat="45.56898631144352" lon="3.111715448383246"><ele>625.0</ele><time>2026-04-18T08:31:57.999Z</time></trkpt><trkpt lat="45.568887193390644" lon="3.111526010999798"><ele>626.0</ele><time>2026-04-18T08:31:58.999Z</time></trkpt><trkpt lat="45.568800346296655" lon="3.1113557529131497"><ele>627.0</ele><time>2026-04-18T08:31:59.999Z</time></trkpt><trkpt lat="45.56870861757276" lon="3.111181005953134"><ele>624.5</ele><time>2026-04-18T08:32:00.999Z</time></trkpt><trkpt lat="45.56861438946725" lon="3.111015301587853"><ele>622.0</ele><time>2026-04-18T08:32:01.999Z</time></trkpt><trkpt lat="45.56851604382074" lon="3.110862771650316"><ele>619.5</ele><time>2026-04-18T08:32:02.999Z</time></trkpt><trkpt lat="45.56841686915422" lon="3.110724283707623"><ele>617.0</ele><time>2026-04-18T08:32:03.999Z</time></trkpt><trkpt lat="45.568301884835584" lon="3.1105777079762635"><ele>616.3333333333333</ele><time>2026-04-18T08:32:04.999Z</time></trkpt><trkpt lat="45.56820166933434" lon="3.1104307230158414"><ele>615.6666666666666</ele><time>2026-04-18T08:32:05.999Z</time></trkpt><trkpt lat="45.5680899040995" lon="3.1102657942225225"><ele>615.0</ele><time>2026-04-18T08:32:07Z</time></trkpt><trkpt lat="45.56798644961512" lon="3.1100922807697198"><ele>615.6666666666666</ele><time>2026-04-18T08:32:08Z</time></trkpt><trkpt lat="45.56788385668803" lon="3.1099026268122345"><ele>616.3333333333333</ele><time>2026-04-18T08:32:09Z</time></trkpt><trkpt lat="45.567796856379296" lon="3.1097221200471625"><ele>617.0</ele><time>2026-04-18T08:32:10Z</time></trkpt><trkpt lat="45.56770489483004" lon="3.109549716301827"><ele>614.5</ele><time>2026-04-18T08:32:11Z</time></trkpt><trkpt lat="45.56760588568802" lon="3.1093776583500583"><ele>612.0</ele><time>2026-04-18T08:32:12Z</time></trkpt><trkpt lat="45.567521550209385" lon="3.1092303354373256"><ele>609.5</ele><time>2026-04-18T08:32:13Z</time></trkpt><trkpt lat="45.56742155397312" lon="3.109077208429571"><ele>607.0</ele><time>2026-04-18T08:32:14Z</time></trkpt><trkpt lat="45.56732741959313" lon="3.1089328322479064"><ele>607.0</ele><time>2026-04-18T08:32:15Z</time></trkpt><trkpt lat="45.5672402287224" lon="3.1087965430457354"><ele>607.0</ele><time>2026-04-18T08:32:16Z</time></trkpt><trkpt lat="45.56715524235973" lon="3.108658803861207"><ele>607.0</ele><time>2026-04-18T08:32:17Z</time></trkpt><trkpt lat="45.567067229275864" lon="3.1085212778505533"><ele>607.0</ele><time>2026-04-18T08:32:18Z</time></trkpt><trkpt lat="45.566988147918615" lon="3.108390892259953"><ele>605.25</ele><time>2026-04-18T08:32:19Z</time></trkpt><trkpt lat="45.56692213786228" lon="3.108234645531996"><ele>603.5</ele><time>2026-04-18T08:32:20Z</time></trkpt><trkpt lat="45.566835744190534" lon="3.108105601598121"><ele>601.75</ele><time>2026-04-18T08:32:21Z</time></trkpt><trkpt lat="45.566762759612665" lon="3.1079541665175263"><ele>600.0</ele><time>2026-04-18T08:32:22Z</time></trkpt><trkpt lat="45.56669351721139" lon="3.1077928245413102"><ele>600.0</ele><time>2026-04-18T08:32:23Z</time></trkpt><trkpt lat="45.56662271747227" lon="3.1076354604343983"><ele>600.0</ele><time>2026-04-18T08:32:24Z</time></trkpt><trkpt lat="45.56654650734677" lon="3.1074778757615813"><ele>600.0</ele><time>2026-04-18T08:32:25Z</time></trkpt><trkpt lat="45.566460207463194" lon="3.1073145730934817"><ele>600.0</ele><time>2026-04-18T08:32:26Z</time></trkpt><trkpt lat="45.56637125676192" lon="3.1071524770905556"><ele>601.3333333333334</ele><time>2026-04-18T08:32:27Z</time></trkpt><trkpt lat="45.56627517904853" lon="3.106981111003264"><ele>602.6666666666667</ele><time>2026-04-18T08:32:28Z</time></trkpt><trkpt lat="45.56617676043895" lon="3.1068235116450347"><ele>604.0</ele><time>2026-04-18T08:32:29Z</time></trkpt><trkpt lat="45.56606978592019" lon="3.1066589759020076"><ele>602.25</ele><time>2026-04-18T08:32:30Z</time></trkpt><trkpt lat="45.56597633121332" lon="3.1065200086951164"><ele>600.5</ele><time>2026-04-18T08:32:31Z</time></trkpt><trkpt lat="45.5658862059114" lon="3.106378727951968"><ele>598.75</ele><time>2026-04-18T08:32:32Z</time></trkpt><trkpt lat="45.56579842483216" lon="3.1062378230219023"><ele>597.0</ele><time>2026-04-18T08:32:33Z</time></trkpt><trkpt lat="45.56570630800823" lon="3.1061145291670247"><ele>597.0</ele><time>2026-04-18T08:32:34Z</time></trkpt><trkpt lat="45.56560320961207" lon="3.1060030417196094"><ele>597.0</ele><time>2026-04-18T08:32:35Z</time></trkpt><trkpt lat="45.56549835653715" lon="3.10591044140367"><ele>597.0</ele><time>2026-04-18T08:32:36Z</time></trkpt><trkpt lat="45.56538908994871" lon="3.105828781775281"><ele>597.0</ele><time>2026-04-18T08:32:37Z</time></trkpt><trkpt lat="45.565277230502694" lon="3.1057526485481834"><ele>595.0</ele><time>2026-04-18T08:32:38Z</time></trkpt><trkpt lat="45.565163534835115" lon="3.1056798024338628"><ele>593.0</ele><time>2026-04-18T08:32:39Z</time></trkpt><trkpt lat="45.565046275167006" lon="3.1056022492732303"><ele>591.0</ele><time>2026-04-18T08:32:40Z</time></trkpt><trkpt lat="45.56492663494363" lon="3.105519167881597"><ele>589.0</ele><time>2026-04-18T08:32:41Z</time></trkpt><trkpt lat="45.56481851738028" lon="3.105440981610009"><ele>589.0</ele><time>2026-04-18T08:32:42Z</time></trkpt><trkpt lat="45.56471659766877" lon="3.1053801593469776"><ele>589.0</ele><time>2026-04-18T08:32:43Z</time></trkpt><trkpt lat="45.564599602476456" lon="3.1052952154721827"><ele>589.0</ele><time>2026-04-18T08:32:44Z</time></trkpt><trkpt lat="45.56449271839765" lon="3.10523703259572"><ele>589.0</ele><time>2026-04-18T08:32:45Z</time></trkpt><trkpt lat="45.56438243008181" lon="3.1052007282852037"><ele>588.0</ele><time>2026-04-18T08:32:46Z</time></trkpt><trkpt lat="45.56427762229396" lon="3.105180494690191"><ele>587.0</ele><time>2026-04-18T08:32:47Z</time></trkpt><trkpt lat="45.56416753203413" lon="3.105177159335649"><ele>586.0</ele><time>2026-04-18T08:32:48Z</time></trkpt><trkpt lat="45.56406316922196" lon="3.1051826770924684"><ele>585.0</ele><time>2026-04-18T08:32:49Z</time></trkpt><trkpt lat="45.563969187443895" lon="3.10517025022825"><ele>584.0</ele><time>2026-04-18T08:32:50Z</time></trkpt><trkpt lat="45.563872679141575" lon="3.105155105500507"><ele>584.0</ele><time>2026-04-18T08:32:51Z</time></trkpt><trkpt lat="45.5637854563761" lon="3.1051205653705107"><ele>584.0</ele><time>2026-04-18T08:32:52Z</time></trkpt><trkpt lat="45.56369278109018" lon="3.105076008300122"><ele>584.0</ele><time>2026-04-18T08:32:53Z</time></trkpt><trkpt lat="45.563601417264685" lon="3.1050235221589606"><ele>584.0</ele><time>2026-04-18T08:32:54Z</time></trkpt><trkpt lat="45.563511267364206" lon="3.1049779505803405"><ele>584.0</ele><time>2026-04-18T08:32:55Z</time></trkpt><trkpt lat="45.563422487654336" lon="3.1049386555811926"><ele>584.1666666666666</ele><time>2026-04-18T08:32:56Z</time></trkpt><trkpt lat="45.56333654238815" lon="3.104909015567055"><ele>584.3333333333333</ele><time>2026-04-18T08:32:57Z</time></trkpt><trkpt lat="45.56326264624201" lon="3.1048792932160314"><ele>584.5</ele><time>2026-04-18T08:32:58Z</time></trkpt><trkpt lat="45.56317803970922" lon="3.1048595384435154"><ele>584.6666666666666</ele><time>2026-04-18T08:32:59Z</time></trkpt><trkpt lat="45.56309930582646" lon="3.1048380876333863"><ele>584.8333333333334</ele><time>2026-04-18T08:33:00Z</time></trkpt><trkpt lat="45.563018538181765" lon="3.1048219322943593"><ele>585.0</ele><time>2026-04-18T08:33:01Z</time></trkpt><trkpt lat="45.56291386832926" lon="3.1048154769104976"><ele>584.8</ele><time>2026-04-18T08:33:03Z</time></trkpt><trkpt lat="45.56282619636809" lon="3.1049115420804543"><ele>584.6</ele><time>2026-04-18T08:33:05Z</time></trkpt><trkpt lat="45.562746542364444" lon="3.1050562517904967"><ele>584.4</ele><time>2026-04-18T08:33:07Z</time></trkpt><trkpt lat="45.562736363993224" lon="3.1051871351103637"><ele>584.2</ele><time>2026-04-18T08:33:08Z</time></trkpt><trkpt lat="45.56269545801936" lon="3.10529964666788"><ele>584.0</ele><time>2026-04-18T08:33:09Z</time></trkpt><trkpt lat="45.562681154846864" lon="3.1054278335916727"><ele>582.8</ele><time>2026-04-18T08:33:10Z</time></trkpt><trkpt lat="45.56264409130732" lon="3.105546536617756"><ele>581.5999999999999</ele><time>2026-04-18T08:33:11Z</time></trkpt><trkpt lat="45.56261582224348" lon="3.10566698037242"><ele>580.4</ele><time>2026-04-18T08:33:12Z</time></trkpt><trkpt lat="45.56258521115547" lon="3.1057817644470584"><ele>579.1999999999999</ele><time>2026-04-18T08:33:13Z</time></trkpt><trkpt lat="45.562549015217755" lon="3.105910038675042"><ele>578.0</ele><time>2026-04-18T08:33:13.999Z</time></trkpt><trkpt lat="45.562511132979715" lon="3.106040733304795"><ele>577.6</ele><time>2026-04-18T08:33:14.999Z</time></trkpt><trkpt lat="45.56246852220818" lon="3.106173507566525"><ele>577.1999999999999</ele><time>2026-04-18T08:33:15.999Z</time></trkpt><trkpt lat="45.5624153476873" lon="3.1062943426287286"><ele>576.8</ele><time>2026-04-18T08:33:16.999Z</time></trkpt><trkpt lat="45.56235266189738" lon="3.106390491487998"><ele>576.4</ele><time>2026-04-18T08:33:17.999Z</time></trkpt><trkpt lat="45.56226299174772" lon="3.1064542934558954"><ele>576.0</ele><time>2026-04-18T08:33:19Z</time></trkpt><trkpt lat="45.562168274502135" lon="3.1064998260909897"><ele>576.0</ele><time>2026-04-18T08:33:19.999Z</time></trkpt><trkpt lat="45.562063078177395" lon="3.106524376550622"><ele>576.0</ele><time>2026-04-18T08:33:20.999Z</time></trkpt><trkpt lat="45.561951244083694" lon="3.106514805920376"><ele>576.0</ele><time>2026-04-18T08:33:21.999Z</time></trkpt><trkpt lat="45.56184350393223" lon="3.1064718498446564"><ele>576.0</ele><time>2026-04-18T08:33:22.999Z</time></trkpt><trkpt lat="45.56173262154326" lon="3.106436324993773"><ele>576.0</ele><time>2026-04-18T08:33:23.999Z</time></trkpt><trkpt lat="45.56163379159298" lon="3.106386681414002"><ele>574.75</ele><time>2026-04-18T08:33:24.999Z</time></trkpt><trkpt lat="45.56152682236722" lon="3.106337772408871"><ele>573.5</ele><time>2026-04-18T08:33:25.999Z</time></trkpt><trkpt lat="45.56141773504942" lon="3.1062888085624305"><ele>572.25</ele><time>2026-04-18T08:33:26.999Z</time></trkpt><trkpt lat="45.56130312783877" lon="3.1062384356176236"><ele>571.0</ele><time>2026-04-18T08:33:27.999Z</time></trkpt><trkpt lat="45.561195237531216" lon="3.106191846098317"><ele>570.0</ele><time>2026-04-18T08:33:28.999Z</time></trkpt><trkpt lat="45.56107943182923" lon="3.106146148413127"><ele>569.0</ele><time>2026-04-18T08:33:29.999Z</time></trkpt><trkpt lat="45.56096508117691" lon="3.10610090655916"><ele>568.0</ele><time>2026-04-18T08:33:30.999Z</time></trkpt><trkpt lat="45.56085089305032" lon="3.106055851061174"><ele>567.0</ele><time>2026-04-18T08:33:31.999Z</time></trkpt><trkpt lat="45.560734576911" lon="3.1060043775904327"><ele>567.0</ele><time>2026-04-18T08:33:32.999Z</time></trkpt><trkpt lat="45.56060841497515" lon="3.105948829887757"><ele>567.0</ele><time>2026-04-18T08:33:33.999Z</time></trkpt><trkpt lat="45.56048325251235" lon="3.105897485011742"><ele>567.0</ele><time>2026-04-18T08:33:34.999Z</time></trkpt><trkpt lat="45.56035533840981" lon="3.105855402529297"><ele>567.0</ele><time>2026-04-18T08:33:35.999Z</time></trkpt><trkpt lat="45.56022982859611" lon="3.10583010603412"><ele>566.25</ele><time>2026-04-18T08:33:36.999Z</time></trkpt><trkpt lat="45.560094466943" lon="3.1058093564275553"><ele>565.5</ele><time>2026-04-18T08:33:37.999Z</time></trkpt><trkpt lat="45.55996665520359" lon="3.105793295038213"><ele>564.75</ele><time>2026-04-18T08:33:38.999Z</time></trkpt><trkpt lat="45.55983730000561" lon="3.105777962538004"><ele>564.0</ele><time>2026-04-18T08:33:39.999Z</time></trkpt><trkpt lat="45.559706768854205" lon="3.1057623505197776"><ele>564.0</ele><time>2026-04-18T08:33:40.999Z</time></trkpt><trkpt lat="45.55957868646823" lon="3.105752032279089"><ele>564.0</ele><time>2026-04-18T08:33:41.999Z</time></trkpt><trkpt lat="45.55945088467685" lon="3.1057422796312233"><ele>564.0</ele><time>2026-04-18T08:33:42.999Z</time></trkpt><trkpt lat="45.55932003935267" lon="3.10573111986446"><ele>564.0</ele><time>2026-04-18T08:33:43.999Z</time></trkpt><trkpt lat="45.55918927965229" lon="3.1057237409606064"><ele>563.0</ele><time>2026-04-18T08:33:44.999Z</time></trkpt><trkpt lat="45.559058180010254" lon="3.105715020978058"><ele>562.0</ele><time>2026-04-18T08:33:45.999Z</time></trkpt><trkpt lat="45.55892023255578" lon="3.1057119226761083"><ele>561.0</ele><time>2026-04-18T08:33:46.999Z</time></trkpt><trkpt lat="45.55878486866465" lon="3.1057245727970177"><ele>560.0</ele><time>2026-04-18T08:33:47.999Z</time></trkpt><trkpt lat="45.55865235935748" lon="3.105756065542266"><ele>558.6666666666666</ele><time>2026-04-18T08:33:48.999Z</time></trkpt><trkpt lat="45.55850336511337" lon="3.105795540871115"><ele>557.3333333333334</ele><time>2026-04-18T08:33:49.999Z</time></trkpt><trkpt lat="45.5583563892945" lon="3.105828052954133"><ele>556.0</ele><time>2026-04-18T08:33:50.999Z</time></trkpt><trkpt lat="45.55820465872367" lon="3.1058539792529047"><ele>556.0</ele><time>2026-04-18T08:33:51.999Z</time></trkpt><trkpt lat="45.558047172474005" lon="3.1058791084976645"><ele>556.0</ele><time>2026-04-18T08:33:52.999Z</time></trkpt><trkpt lat="45.557892852012515" lon="3.1059115037009364"><ele>556.0</ele><time>2026-04-18T08:33:53.999Z</time></trkpt><trkpt lat="45.55773311901186" lon="3.105941688633895"><ele>554.0</ele><time>2026-04-18T08:33:54.999Z</time></trkpt><trkpt lat="45.55757217162558" lon="3.1059606702639018"><ele>552.0</ele><time>2026-04-18T08:33:55.999Z</time></trkpt><trkpt lat="45.5574297130029" lon="3.1059578300936024"><ele>550.0</ele><time>2026-04-18T08:33:56.999Z</time></trkpt><trkpt lat="45.55728736192308" lon="3.1059379649351264"><ele>548.0</ele><time>2026-04-18T08:33:57.999Z</time></trkpt><trkpt lat="45.557158231290956" lon="3.105906081803599"><ele>548.5</ele><time>2026-04-18T08:33:58.999Z</time></trkpt><trkpt lat="45.557027180926546" lon="3.1058563214300876"><ele>549.0</ele><time>2026-04-18T08:33:59.999Z</time></trkpt><trkpt lat="45.55690402159694" lon="3.105785154027611"><ele>549.5</ele><time>2026-04-18T08:34:00.999Z</time></trkpt><trkpt lat="45.55679766871167" lon="3.1056829476477392"><ele>550.0</ele><time>2026-04-18T08:34:01.999Z</time></trkpt><trkpt lat="45.55670080747071" lon="3.1055557746087574"><ele>548.3333333333334</ele><time>2026-04-18T08:34:03Z</time></trkpt><trkpt lat="45.55660358338954" lon="3.105400505328688"><ele>546.6666666666666</ele><time>2026-04-18T08:34:04Z</time></trkpt><trkpt lat="45.55650393541153" lon="3.1052225743047956"><ele>545.0</ele><time>2026-04-18T08:34:05Z</time></trkpt><trkpt lat="45.55640206512294" lon="3.1050345973991376"><ele>543.0</ele><time>2026-04-18T08:34:06Z</time></trkpt><trkpt lat="45.55629394049531" lon="3.1048510774392613"><ele>541.0</ele><time>2026-04-18T08:34:07Z</time></trkpt><trkpt lat="45.55618431805424" lon="3.1046916959337407"><ele>539.0</ele><time>2026-04-18T08:34:08Z</time></trkpt><trkpt lat="45.55606923911398" lon="3.1045484975129307"><ele>539.0</ele><time>2026-04-18T08:34:09Z</time></trkpt><trkpt lat="45.555960254816846" lon="3.104410200597368"><ele>539.0</ele><time>2026-04-18T08:34:10Z</time></trkpt><trkpt lat="45.55586033653412" lon="3.1042863293903054"><ele>539.0</ele><time>2026-04-18T08:34:11Z</time></trkpt><trkpt lat="45.55576024480783" lon="3.1041808109183213"><ele>539.0</ele><time>2026-04-18T08:34:12Z</time></trkpt><trkpt lat="45.55565287533946" lon="3.1040911200726913"><ele>540.75</ele><time>2026-04-18T08:34:13Z</time></trkpt><trkpt lat="45.55554607156876" lon="3.104018447513386"><ele>542.5</ele><time>2026-04-18T08:34:14Z</time></trkpt><trkpt lat="45.555415987952294" lon="3.1039479458482093"><ele>544.25</ele><time>2026-04-18T08:34:15Z</time></trkpt><trkpt lat="45.55527051085919" lon="3.103889431627836"><ele>546.0</ele><time>2026-04-18T08:34:16Z</time></trkpt><trkpt lat="45.55511505423682" lon="3.103849064099887"><ele>546.0</ele><time>2026-04-18T08:34:17Z</time></trkpt><trkpt lat="45.554966628297834" lon="3.1038245533475592"><ele>546.0</ele><time>2026-04-18T08:34:18Z</time></trkpt><trkpt lat="45.55484315679162" lon="3.103793901206969"><ele>546.0</ele><time>2026-04-18T08:34:19Z</time></trkpt><trkpt lat="45.55472108060428" lon="3.103763861709802"><ele>546.0</ele><time>2026-04-18T08:34:20Z</time></trkpt><trkpt lat="45.55460414223619" lon="3.1037538121803223"><ele>546.25</ele><time>2026-04-18T08:34:21Z</time></trkpt><trkpt lat="45.554492998382585" lon="3.103772368241922"><ele>546.5</ele><time>2026-04-18T08:34:22Z</time></trkpt><trkpt lat="45.554380618327336" lon="3.103818313178782"><ele>546.75</ele><time>2026-04-18T08:34:23Z</time></trkpt><trkpt lat="45.554277133722586" lon="3.1038949000516927"><ele>547.0</ele><time>2026-04-18T08:34:24Z</time></trkpt><trkpt lat="45.55419042905315" lon="3.1039951542985715"><ele>544.2</ele><time>2026-04-18T08:34:25Z</time></trkpt><trkpt lat="45.55410484523424" lon="3.1041077389894163"><ele>541.4000000000001</ele><time>2026-04-18T08:34:26Z</time></trkpt><trkpt lat="45.55401266582775" lon="3.1041684790374378"><ele>538.5999999999999</ele><time>2026-04-18T08:34:27Z</time></trkpt><trkpt lat="45.55391983057878" lon="3.104215957986266"><ele>535.8</ele><time>2026-04-18T08:34:28Z</time></trkpt><trkpt lat="45.55381451004743" lon="3.104217106359664"><ele>533.0</ele><time>2026-04-18T08:34:29Z</time></trkpt><trkpt lat="45.55371951286515" lon="3.1042109162169975"><ele>533.6</ele><time>2026-04-18T08:34:30Z</time></trkpt><trkpt lat="45.55361830959428" lon="3.1041864373681687"><ele>534.1999999999999</ele><time>2026-04-18T08:34:31Z</time></trkpt><trkpt lat="45.55353954327394" lon="3.1042214270367925"><ele>534.8</ele><time>2026-04-18T08:34:32Z</time></trkpt><trkpt lat="45.55347250395868" lon="3.104321251842895"><ele>535.4</ele><time>2026-04-18T08:34:33Z</time></trkpt><trkpt lat="45.553425605323916" lon="3.104470956677256"><ele>536.0</ele><time>2026-04-18T08:34:34Z</time></trkpt><trkpt lat="45.55336552871907" lon="3.1046088073076987"><ele>536.0</ele><time>2026-04-18T08:34:35Z</time></trkpt><trkpt lat="45.55330207810213" lon="3.1047561185330257"><ele>536.0</ele><time>2026-04-18T08:34:36Z</time></trkpt><trkpt lat="45.55321289863453" lon="3.104893507510717"><ele>536.0</ele><time>2026-04-18T08:34:37Z</time></trkpt><trkpt lat="45.553111843138545" lon="3.1050083253276703"><ele>536.0</ele><time>2026-04-18T08:34:38Z</time></trkpt><trkpt lat="45.55301398729656" lon="3.105106759470883"><ele>534.6</ele><time>2026-04-18T08:34:39Z</time></trkpt><trkpt lat="45.552920450771886" lon="3.1052185662357727"><ele>533.2</ele><time>2026-04-18T08:34:40Z</time></trkpt><trkpt lat="45.55285437581408" lon="3.1053406113087427"><ele>531.8</ele><time>2026-04-18T08:34:41Z</time></trkpt><trkpt lat="45.55279267788732" lon="3.105473174330037"><ele>530.4</ele><time>2026-04-18T08:34:42Z</time></trkpt><trkpt lat="45.552721474067084" lon="3.105570483409981"><ele>529.0</ele><time>2026-04-18T08:34:43Z</time></trkpt><trkpt lat="45.552661711592506" lon="3.1056694547272854"><ele>529.0</ele><time>2026-04-18T08:34:44Z</time></trkpt><trkpt lat="45.55259258629985" lon="3.1057274180777035"><ele>529.0</ele><time>2026-04-18T08:34:45Z</time></trkpt><trkpt lat="45.55251790105072" lon="3.1057426565983866"><ele>529.0</ele><time>2026-04-18T08:34:46Z</time></trkpt><trkpt lat="45.552433527782256" lon="3.1057459145586086"><ele>529.0</ele><time>2026-04-18T08:34:47Z</time></trkpt><trkpt lat="45.55236400051845" lon="3.1056391689558733"><ele>529.0</ele><time>2026-04-18T08:34:48Z</time></trkpt><trkpt lat="45.55225976092177" lon="3.105565053707685"><ele>529.0</ele><time>2026-04-18T08:34:49Z</time></trkpt><trkpt lat="45.55217933319494" lon="3.105518881699753"><ele>529.0</ele><time>2026-04-18T08:34:50Z</time></trkpt><trkpt lat="45.55209694591771" lon="3.105501352875982"><ele>529.0</ele><time>2026-04-18T08:34:51Z</time></trkpt><trkpt lat="45.55201529782598" lon="3.1055956769680146"><ele>529.0</ele><time>2026-04-18T08:34:52Z</time></trkpt><trkpt lat="45.55193866535725" lon="3.1057211568247856"><ele>529.0</ele><time>2026-04-18T08:34:53Z</time></trkpt><trkpt lat="45.55184731938766" lon="3.105838316394002"><ele>524.6</ele><time>2026-04-18T08:34:54Z</time></trkpt><trkpt lat="45.55178712918403" lon="3.105966023004071"><ele>520.2</ele><time>2026-04-18T08:34:55Z</time></trkpt><trkpt lat="45.55175263456451" lon="3.1060983325285996"><ele>515.8000000000001</ele><time>2026-04-18T08:34:56Z</time></trkpt><trkpt lat="45.551742960957526" lon="3.106208461378041"><ele>511.40000000000003</ele><time>2026-04-18T08:34:57Z</time></trkpt><trkpt lat="45.55171995979385" lon="3.106303230382745"><ele>507.0</ele><time>2026-04-18T08:34:58Z</time></trkpt><trkpt lat="45.55163905084291" lon="3.1064333791555687"><ele>507.0</ele><time>2026-04-18T08:35:00Z</time></trkpt><trkpt lat="45.55154039252882" lon="3.1065694338618535"><ele>507.00000000000006</ele><time>2026-04-18T08:35:02Z</time></trkpt><trkpt lat="45.55147906141691" lon="3.106634714254653"><ele>507.00000000000006</ele><time>2026-04-18T08:35:02.999Z</time></trkpt><trkpt lat="45.55140378421162" lon="3.1066684415113945"><ele>507.0</ele><time>2026-04-18T08:35:03.999Z</time></trkpt><trkpt lat="45.55130203434269" lon="3.1067702658976137"><ele>507.0</ele><time>2026-04-18T08:35:05.999Z</time></trkpt><trkpt lat="45.551210335951524" lon="3.10683703406117"><ele>506.6</ele><time>2026-04-18T08:35:07.999Z</time></trkpt><trkpt lat="45.55112668882178" lon="3.1068929562321363"><ele>506.20000000000005</ele><time>2026-04-18T08:35:09.999Z</time></trkpt><trkpt lat="45.551072074197556" lon="3.106942279036581"><ele>505.8</ele><time>2026-04-18T08:35:12.999Z</time></trkpt><trkpt lat="45.55101611880318" lon="3.1069928138862326"><ele>505.4</ele><time>2026-04-18T08:35:19.999Z</time></trkpt><trkpt lat="45.55105181625558" lon="3.1071775119170457"><ele>505.0</ele><time>2026-04-18T08:35:20.999Z</time></trkpt><trkpt lat="45.551075741693445" lon="3.107349035143369"><ele>506.6666666666667</ele><time>2026-04-18T08:35:22.999Z</time></trkpt><trkpt lat="45.55109172340673" lon="3.107462730028262"><ele>508.33333333333337</ele><time>2026-04-18T08:35:23.999Z</time></trkpt><trkpt lat="45.55110948027194" lon="3.107589053743498"><ele>510.0</ele><time>2026-04-18T08:35:24.999Z</time></trkpt><trkpt lat="45.551124549067985" lon="3.1077049298854504"><ele>511.66666666666663</ele><time>2026-04-18T08:35:25.999Z</time></trkpt><trkpt lat="45.551136103453075" lon="3.107808398480952"><ele>513.3333333333333</ele><time>2026-04-18T08:35:26.999Z</time></trkpt><trkpt lat="45.55114543942749" lon="3.1079122862150967"><ele>515.0</ele><time>2026-04-18T08:35:27.999Z</time></trkpt><trkpt lat="45.55115261831073" lon="3.1080218362278167"><ele>515.0</ele><time>2026-04-18T08:35:28.999Z</time></trkpt><trkpt lat="45.55115962753501" lon="3.1081305666465853"><ele>515.0</ele><time>2026-04-18T08:35:29.999Z</time></trkpt><trkpt lat="45.551165230948904" lon="3.108227214211303"><ele>515.0</ele><time>2026-04-18T08:35:30.999Z</time></trkpt><trkpt lat="45.55117022784481" lon="3.108318953424944"><ele>515.0</ele><time>2026-04-18T08:35:31.999Z</time></trkpt><trkpt lat="45.55117512845649" lon="3.108408924830039"><ele>515.0</ele><time>2026-04-18T08:35:32.999Z</time></trkpt><trkpt lat="45.5511862991466" lon="3.108622502237039"><ele>515.0</ele><time>2026-04-18T08:35:33.999Z</time></trkpt><trkpt lat="45.55119335546084" lon="3.108767420903316"><ele>514.2</ele><time>2026-04-18T08:35:34.999Z</time></trkpt><trkpt lat="45.55120044560796" lon="3.108911561938176"><ele>513.4</ele><time>2026-04-18T08:35:35.999Z</time></trkpt><trkpt lat="45.55120748068016" lon="3.109050984283687"><ele>512.6</ele><time>2026-04-18T08:35:36.999Z</time></trkpt><trkpt lat="45.551214570950634" lon="3.10919696865714"><ele>511.8</ele><time>2026-04-18T08:35:37.999Z</time></trkpt><trkpt lat="45.551221377185335" lon="3.1093443625829953"><ele>511.0</ele><time>2026-04-18T08:35:38.999Z</time></trkpt><trkpt lat="45.55122821051776" lon="3.1094923437769477"><ele>511.0</ele><time>2026-04-18T08:35:39.999Z</time></trkpt><trkpt lat="45.551234640729604" lon="3.109631594709932"><ele>511.0</ele><time>2026-04-18T08:35:40.999Z</time></trkpt><trkpt lat="45.55124183868573" lon="3.109766453644388"><ele>511.0</ele><time>2026-04-18T08:35:41.999Z</time></trkpt><trkpt lat="45.55124919744622" lon="3.109899328020466"><ele>511.0</ele><time>2026-04-18T08:35:42.999Z</time></trkpt><trkpt lat="45.55125375600226" lon="3.110023820869542"><ele>511.0</ele><time>2026-04-18T08:35:43.999Z</time></trkpt><trkpt lat="45.55125049891428" lon="3.1101589184517007"><ele>511.0</ele><time>2026-04-18T08:35:44.999Z</time></trkpt><trkpt lat="45.55123151147957" lon="3.1102961502491415"><ele>511.0</ele><time>2026-04-18T08:35:45.999Z</time></trkpt><trkpt lat="45.551202141113805" lon="3.110434392763376"><ele>511.0</ele><time>2026-04-18T08:35:46.999Z</time></trkpt><trkpt lat="45.551177444698546" lon="3.110583556337795"><ele>511.0</ele><time>2026-04-18T08:35:47.999Z</time></trkpt><trkpt lat="45.551132010545224" lon="3.110729760885133"><ele>511.0</ele><time>2026-04-18T08:35:48.999Z</time></trkpt><trkpt lat="45.5510775766555" lon="3.1108852181424047"><ele>506.25</ele><time>2026-04-18T08:35:49.999Z</time></trkpt><trkpt lat="45.55101369786687" lon="3.1110665615153517"><ele>501.5</ele><time>2026-04-18T08:35:50.999Z</time></trkpt><trkpt lat="45.55094001650661" lon="3.1112373916998686"><ele>496.75</ele><time>2026-04-18T08:35:51.999Z</time></trkpt><trkpt lat="45.55086092482177" lon="3.1114062043205264"><ele>492.0</ele><time>2026-04-18T08:35:52.999Z</time></trkpt><trkpt lat="45.550772667223846" lon="3.1115685732264176"><ele>496.33333333333337</ele><time>2026-04-18T08:35:53.999Z</time></trkpt><trkpt lat="45.55067537750743" lon="3.1117363774092706"><ele>500.6666666666667</ele><time>2026-04-18T08:35:54.999Z</time></trkpt><trkpt lat="45.550572081500974" lon="3.111894660439335"><ele>505.0</ele><time>2026-04-18T08:35:55.999Z</time></trkpt><trkpt lat="45.55045787437222" lon="3.1120561914975147"><ele>500.33333333333337</ele><time>2026-04-18T08:35:56.999Z</time></trkpt><trkpt lat="45.55034347626012" lon="3.112222918421424"><ele>495.66666666666663</ele><time>2026-04-18T08:35:57.999Z</time></trkpt><trkpt lat="45.55022787213667" lon="3.1123953404315197"><ele>491.0</ele><time>2026-04-18T08:35:58.999Z</time></trkpt><trkpt lat="45.55010927015515" lon="3.112574882432779"><ele>491.0</ele><time>2026-04-18T08:35:59.999Z</time></trkpt><trkpt lat="45.54998702334234" lon="3.112759239197946"><ele>491.0</ele><time>2026-04-18T08:36:00.999Z</time></trkpt><trkpt lat="45.54986855947812" lon="3.1129360968472013"><ele>491.0</ele><time>2026-04-18T08:36:01.999Z</time></trkpt><trkpt lat="45.54976071796555" lon="3.1130999284356067"><ele>494.3333333333333</ele><time>2026-04-18T08:36:02.999Z</time></trkpt><trkpt lat="45.54965934658586" lon="3.113264248993844"><ele>497.66666666666663</ele><time>2026-04-18T08:36:03.999Z</time></trkpt><trkpt lat="45.549566628170794" lon="3.113449708452146"><ele>501.0</ele><time>2026-04-18T08:36:04.999Z</time></trkpt><trkpt lat="45.54943761721457" lon="3.1138903800456825"><ele>499.33333333333337</ele><time>2026-04-18T08:36:06.999Z</time></trkpt><trkpt lat="45.54939470474013" lon="3.1141231424246274"><ele>497.6666666666667</ele><time>2026-04-18T08:36:07.999Z</time></trkpt><trkpt lat="45.54936770644594" lon="3.1143611360878913"><ele>496.0</ele><time>2026-04-18T08:36:09Z</time></trkpt><trkpt lat="45.54936486027308" lon="3.1146009556205945"><ele>496.0</ele><time>2026-04-18T08:36:10Z</time></trkpt><trkpt lat="45.54937603211228" lon="3.114838705174303"><ele>496.0</ele><time>2026-04-18T08:36:11Z</time></trkpt><trkpt lat="45.5493983097759" lon="3.115080625737299"><ele>496.0</ele><time>2026-04-18T08:36:12Z</time></trkpt><trkpt lat="45.549432461206315" lon="3.115319225134409"><ele>496.0</ele><time>2026-04-18T08:36:13Z</time></trkpt><trkpt lat="45.54943967918038" lon="3.1155541679892664"><ele>496.0</ele><time>2026-04-18T08:36:14Z</time></trkpt><trkpt lat="45.549464717760905" lon="3.1158025403809466"><ele>496.0</ele><time>2026-04-18T08:36:15Z</time></trkpt><trkpt lat="45.54948826010158" lon="3.116044200019872"><ele>496.0</ele><time>2026-04-18T08:36:16Z</time></trkpt><trkpt lat="45.549512385998796" lon="3.116292539883425"><ele>496.0</ele><time>2026-04-18T08:36:17Z</time></trkpt><trkpt lat="45.549534832909224" lon="3.1165235971050484"><ele>496.0</ele><time>2026-04-18T08:36:18Z</time></trkpt><trkpt lat="45.549556187921226" lon="3.116743414835275"><ele>495.75</ele><time>2026-04-18T08:36:19Z</time></trkpt><trkpt lat="45.549575908957756" lon="3.1169464132223714"><ele>495.5</ele><time>2026-04-18T08:36:20Z</time></trkpt><trkpt lat="45.54959403248624" lon="3.1171283202093676"><ele>495.25</ele><time>2026-04-18T08:36:21Z</time></trkpt><trkpt lat="45.549627832069866" lon="3.1172928079195708"><ele>495.0</ele><time>2026-04-18T08:36:22Z</time></trkpt><trkpt lat="45.549646579817605" lon="3.117448183945581"><ele>493.8</ele><time>2026-04-18T08:36:23Z</time></trkpt><trkpt lat="45.54966576193222" lon="3.117590970189126"><ele>492.6</ele><time>2026-04-18T08:36:24Z</time></trkpt><trkpt lat="45.54967648631029" lon="3.1177232198410243"><ele>491.4</ele><time>2026-04-18T08:36:25Z</time></trkpt><trkpt lat="45.54968627138779" lon="3.1178370648297444"><ele>490.2</ele><time>2026-04-18T08:36:26Z</time></trkpt><trkpt lat="45.549687890161266" lon="3.1179450873161754"><ele>489.0</ele><time>2026-04-18T08:36:27Z</time></trkpt><trkpt lat="45.5495988002077" lon="3.118100866518467"><ele>490.0</ele><time>2026-04-18T08:36:29Z</time></trkpt><trkpt lat="45.54953251605911" lon="3.118196076865672"><ele>491.0</ele><time>2026-04-18T08:36:30Z</time></trkpt><trkpt lat="45.549456792254546" lon="3.1183063284131514"><ele>492.0</ele><time>2026-04-18T08:36:31Z</time></trkpt><trkpt lat="45.549374614978575" lon="3.1184242731151954"><ele>493.0</ele><time>2026-04-18T08:36:32Z</time></trkpt><trkpt lat="45.54928730889315" lon="3.1185495946258723"><ele>494.0</ele><time>2026-04-18T08:36:33Z</time></trkpt><trkpt lat="45.5492001879811" lon="3.118700400491953"><ele>494.0</ele><time>2026-04-18T08:36:34Z</time></trkpt><trkpt lat="45.54909048791958" lon="3.1188469810489003"><ele>494.0</ele><time>2026-04-18T08:36:35Z</time></trkpt><trkpt lat="45.54896698397456" lon="3.119019368560504"><ele>494.0</ele><time>2026-04-18T08:36:36Z</time></trkpt><trkpt lat="45.5488333597019" lon="3.1192057466585568"><ele>495.75</ele><time>2026-04-18T08:36:37Z</time></trkpt><trkpt lat="45.54870698487904" lon="3.119353340372643"><ele>497.5</ele><time>2026-04-18T08:36:38Z</time></trkpt><trkpt lat="45.548602486565656" lon="3.1194753919422924"><ele>499.25</ele><time>2026-04-18T08:36:39Z</time></trkpt><trkpt lat="45.54849193700932" lon="3.119577591257695"><ele>501.0</ele><time>2026-04-18T08:36:40Z</time></trkpt><trkpt lat="45.54836616583229" lon="3.119655095299509"><ele>501.0</ele><time>2026-04-18T08:36:41Z</time></trkpt><trkpt lat="45.54824500314826" lon="3.119726650436014"><ele>501.0</ele><time>2026-04-18T08:36:42Z</time></trkpt><trkpt lat="45.54813225487523" lon="3.119756067570937"><ele>501.0</ele><time>2026-04-18T08:36:43Z</time></trkpt><trkpt lat="45.54802606703288" lon="3.119775478495002"><ele>501.0</ele><time>2026-04-18T08:36:44Z</time></trkpt><trkpt lat="45.54793374244197" lon="3.119802195353037"><ele>501.0</ele><time>2026-04-18T08:36:45Z</time></trkpt><trkpt lat="45.54785499982706" lon="3.1198604528218117"><ele>500.4</ele><time>2026-04-18T08:36:46Z</time></trkpt><trkpt lat="45.5477983818344" lon="3.119942685507975"><ele>499.8</ele><time>2026-04-18T08:36:47Z</time></trkpt><trkpt lat="45.54775540102491" lon="3.1200268948194987"><ele>499.19999999999993</ele><time>2026-04-18T08:36:48Z</time></trkpt><trkpt lat="45.54766772394279" lon="3.1201220219688137"><ele>498.59999999999997</ele><time>2026-04-18T08:36:50Z</time></trkpt><trkpt lat="45.547615390493384" lon="3.1201967540929334"><ele>498.0</ele><time>2026-04-18T08:36:52Z</time></trkpt><trkpt lat="45.54748484324626" lon="3.1201452206479843"><ele>498.0</ele><time>2026-04-18T08:36:54.999Z</time></trkpt><trkpt lat="45.547413634492" lon="3.120056314060022"><ele>497.99999999999994</ele><time>2026-04-18T08:36:55.999Z</time></trkpt><trkpt lat="45.54733724142186" lon="3.1199596519908863"><ele>497.99999999999994</ele><time>2026-04-18T08:36:56.999Z</time></trkpt><trkpt lat="45.54725225253887" lon="3.119857987558848"><ele>498.0</ele><time>2026-04-18T08:36:57.999Z</time></trkpt><trkpt lat="45.54715593209954" lon="3.1197479011194766"><ele>498.0</ele><time>2026-04-18T08:36:58.999Z</time></trkpt><trkpt lat="45.54706149109881" lon="3.1196443107291807"><ele>499.5</ele><time>2026-04-18T08:36:59.999Z</time></trkpt><trkpt lat="45.54696289422699" lon="3.1195371372140976"><ele>501.0</ele><time>2026-04-18T08:37:00.999Z</time></trkpt><trkpt lat="45.54686055293626" lon="3.1194203651119925"><ele>502.5</ele><time>2026-04-18T08:37:01.999Z</time></trkpt><trkpt lat="45.54675784269586" lon="3.119295131317603"><ele>504.0</ele><time>2026-04-18T08:37:02.999Z</time></trkpt><trkpt lat="45.54665373698223" lon="3.1191560555912714"><ele>507.66666666666663</ele><time>2026-04-18T08:37:03.999Z</time></trkpt><trkpt lat="45.54654968978813" lon="3.119006848101993"><ele>511.3333333333333</ele><time>2026-04-18T08:37:04.999Z</time></trkpt><trkpt lat="45.546435642269444" lon="3.1188517506975937"><ele>515.0</ele><time>2026-04-18T08:37:05.999Z</time></trkpt><trkpt lat="45.54632220458372" lon="3.1186949491767577"><ele>515.0</ele><time>2026-04-18T08:37:06.999Z</time></trkpt><trkpt lat="45.546216345756115" lon="3.118543545456992"><ele>515.0</ele><time>2026-04-18T08:37:07.999Z</time></trkpt><trkpt lat="45.54610834986932" lon="3.1183885552616064"><ele>515.0</ele><time>2026-04-18T08:37:08.999Z</time></trkpt><trkpt lat="45.54600089528821" lon="3.11823333464218"><ele>515.75</ele><time>2026-04-18T08:37:09.999Z</time></trkpt><trkpt lat="45.545892416479866" lon="3.1180820102554088"><ele>516.5</ele><time>2026-04-18T08:37:10.999Z</time></trkpt><trkpt lat="45.545785986720695" lon="3.1179340523207206"><ele>517.25</ele><time>2026-04-18T08:37:11.999Z</time></trkpt><trkpt lat="45.54567613080721" lon="3.1177899566946023"><ele>518.0</ele><time>2026-04-18T08:37:12.999Z</time></trkpt><trkpt lat="45.54555118739693" lon="3.11765520691643"><ele>518.0</ele><time>2026-04-18T08:37:13.999Z</time></trkpt><trkpt lat="45.54540499080072" lon="3.11755267126529"><ele>518.0</ele><time>2026-04-18T08:37:14.999Z</time></trkpt><trkpt lat="45.545231848469825" lon="3.11744623430589"><ele>518.0</ele><time>2026-04-18T08:37:15.999Z</time></trkpt><trkpt lat="45.545069350660675" lon="3.1172819308719806"><ele>520.3333333333333</ele><time>2026-04-18T08:37:16.999Z</time></trkpt><trkpt lat="45.54492109342178" lon="3.1170556450749585"><ele>522.6666666666666</ele><time>2026-04-18T08:37:17.999Z</time></trkpt><trkpt lat="45.544786445329166" lon="3.116825913163918"><ele>525.0</ele><time>2026-04-18T08:37:18.999Z</time></trkpt><trkpt lat="45.544668483784086" lon="3.116647059471899"><ele>526.75</ele><time>2026-04-18T08:37:19.999Z</time></trkpt><trkpt lat="45.54455696459325" lon="3.1164932316838483"><ele>528.5</ele><time>2026-04-18T08:37:20.999Z</time></trkpt><trkpt lat="45.54444970194251" lon="3.1163562814988754"><ele>530.25</ele><time>2026-04-18T08:37:21.999Z</time></trkpt><trkpt lat="45.54435413705175" lon="3.1162158097192907"><ele>532.0</ele><time>2026-04-18T08:37:22.999Z</time></trkpt><trkpt lat="45.54423578994729" lon="3.1160736356453542"><ele>532.0</ele><time>2026-04-18T08:37:23.999Z</time></trkpt><trkpt lat="45.54408399333154" lon="3.115969615932719"><ele>532.0</ele><time>2026-04-18T08:37:24.999Z</time></trkpt><trkpt lat="45.54390704349604" lon="3.115860310212185"><ele>532.0</ele><time>2026-04-18T08:37:25.999Z</time></trkpt><trkpt lat="45.54375283038818" lon="3.115686732685888"><ele>534.0</ele><time>2026-04-18T08:37:26.999Z</time></trkpt><trkpt lat="45.54364606088595" lon="3.1154812364253073"><ele>536.0</ele><time>2026-04-18T08:37:27.999Z</time></trkpt><trkpt lat="45.54354874231606" lon="3.1153127668000202"><ele>538.0</ele><time>2026-04-18T08:37:28.999Z</time></trkpt><trkpt lat="45.54343117333801" lon="3.1152052168191715"><ele>538.0</ele><time>2026-04-18T08:37:29.999Z</time></trkpt><trkpt lat="45.5432720417997" lon="3.115133356193604"><ele>538.0</ele><time>2026-04-18T08:37:30.999Z</time></trkpt><trkpt lat="45.54308703736343" lon="3.115075767531765"><ele>538.0</ele><time>2026-04-18T08:37:31.999Z</time></trkpt><trkpt lat="45.54289208363263" lon="3.115026807586786"><ele>540.0</ele><time>2026-04-18T08:37:32.999Z</time></trkpt><trkpt lat="45.5426710152525" lon="3.1150106896230314"><ele>542.0</ele><time>2026-04-18T08:37:33.999Z</time></trkpt><trkpt lat="45.54244897373786" lon="3.1150446353616688"><ele>544.0</ele><time>2026-04-18T08:37:34.999Z</time></trkpt><trkpt lat="45.54222899197798" lon="3.115040912890937"><ele>545.6666666666667</ele><time>2026-04-18T08:37:35.999Z</time></trkpt><trkpt lat="45.54201453211619" lon="3.115033742604362"><ele>547.3333333333334</ele><time>2026-04-18T08:37:36.999Z</time></trkpt><trkpt lat="45.541842180881716" lon="3.114956841675072"><ele>549.0</ele><time>2026-04-18T08:37:37.999Z</time></trkpt><trkpt lat="45.54167958249431" lon="3.114851168599561"><ele>549.0</ele><time>2026-04-18T08:37:38.999Z</time></trkpt><trkpt lat="45.54153732495262" lon="3.1147939867777126"><ele>549.0</ele><time>2026-04-18T08:37:39.999Z</time></trkpt><trkpt lat="45.54141563734104" lon="3.114841465476493"><ele>549.0</ele><time>2026-04-18T08:37:40.999Z</time></trkpt><trkpt lat="45.5412906010444" lon="3.1149620644684775"><ele>549.0</ele><time>2026-04-18T08:37:41.999Z</time></trkpt><trkpt lat="45.54114345339405" lon="3.1150423942831686"><ele>552.0</ele><time>2026-04-18T08:37:42.999Z</time></trkpt><trkpt lat="45.54099734546031" lon="3.1150615532015107"><ele>555.0</ele><time>2026-04-18T08:37:43.999Z</time></trkpt><trkpt lat="45.54083562851007" lon="3.114976618138866"><ele>558.0</ele><time>2026-04-18T08:37:44.999Z</time></trkpt><trkpt lat="45.54064657624155" lon="3.1149098433743703"><ele>557.3333333333334</ele><time>2026-04-18T08:37:45.999Z</time></trkpt><trkpt lat="45.54044879010848" lon="3.1148321266897288"><ele>556.6666666666667</ele><time>2026-04-18T08:37:46.999Z</time></trkpt><trkpt lat="45.54023921701121" lon="3.1148145277895547"><ele>556.0</ele><time>2026-04-18T08:37:47.999Z</time></trkpt><trkpt lat="45.540070607348284" lon="3.1147512314856725"><ele>557.6666666666667</ele><time>2026-04-18T08:37:48.999Z</time></trkpt><trkpt lat="45.539942829604286" lon="3.114648932485381"><ele>559.3333333333334</ele><time>2026-04-18T08:37:49.999Z</time></trkpt><trkpt lat="45.53978772630283" lon="3.1144980088813776"><ele>561.0</ele><time>2026-04-18T08:37:50.999Z</time></trkpt><trkpt lat="45.53964565501553" lon="3.1142998470684855"><ele>564.0</ele><time>2026-04-18T08:37:51.999Z</time></trkpt><trkpt lat="45.5394951958324" lon="3.11412006317225"><ele>567.0</ele><time>2026-04-18T08:37:52.999Z</time></trkpt><trkpt lat="45.53933902700098" lon="3.1139558357474195"><ele>570.0</ele><time>2026-04-18T08:37:53.999Z</time></trkpt><trkpt lat="45.53920418575266" lon="3.1138126795023493"><ele>570.75</ele><time>2026-04-18T08:37:54.999Z</time></trkpt><trkpt lat="45.539074492329334" lon="3.1136958835457667"><ele>571.5</ele><time>2026-04-18T08:37:55.999Z</time></trkpt><trkpt lat="45.538943167672834" lon="3.1136316255169105"><ele>572.25</ele><time>2026-04-18T08:37:56.999Z</time></trkpt><trkpt lat="45.53879809603165" lon="3.1135848429291215"><ele>573.0</ele><time>2026-04-18T08:37:57.999Z</time></trkpt><trkpt lat="45.53865367731302" lon="3.1135201671119797"><ele>575.5</ele><time>2026-04-18T08:37:58.999Z</time></trkpt><trkpt lat="45.538524773094714" lon="3.1134102023879326"><ele>578.0</ele><time>2026-04-18T08:37:59.999Z</time></trkpt><trkpt lat="45.53842087798402" lon="3.11326668352422"><ele>580.5</ele><time>2026-04-18T08:38:00.999Z</time></trkpt><trkpt lat="45.53832946141953" lon="3.1131055007735475"><ele>583.0</ele><time>2026-04-18T08:38:01.999Z</time></trkpt><trkpt lat="45.53822671239772" lon="3.1129541634470437"><ele>583.75</ele><time>2026-04-18T08:38:02.999Z</time></trkpt><trkpt lat="45.53810604128473" lon="3.1128347917390204"><ele>584.5</ele><time>2026-04-18T08:38:03.999Z</time></trkpt><trkpt lat="45.53798706970117" lon="3.112725285711768"><ele>585.25</ele><time>2026-04-18T08:38:04.999Z</time></trkpt><trkpt lat="45.537874551161956" lon="3.1126032964082255"><ele>586.0</ele><time>2026-04-18T08:38:05.999Z</time></trkpt><trkpt lat="45.537767487067626" lon="3.112472613334356"><ele>588.25</ele><time>2026-04-18T08:38:06.999Z</time></trkpt><trkpt lat="45.537655410691684" lon="3.1123502176124953"><ele>590.5</ele><time>2026-04-18T08:38:07.999Z</time></trkpt><trkpt lat="45.53753469516753" lon="3.1122576374099826"><ele>592.75</ele><time>2026-04-18T08:38:08.999Z</time></trkpt><trkpt lat="45.53740344399051" lon="3.1122042836211095"><ele>595.0</ele><time>2026-04-18T08:38:09.999Z</time></trkpt><trkpt lat="45.53727099806101" lon="3.112177069899798"><ele>595.0</ele><time>2026-04-18T08:38:10.999Z</time></trkpt><trkpt lat="45.537143184710246" lon="3.1121562511924132"><ele>595.0</ele><time>2026-04-18T08:38:11.999Z</time></trkpt><trkpt lat="45.53702863190916" lon="3.1121308346726626"><ele>595.0</ele><time>2026-04-18T08:38:12.999Z</time></trkpt><trkpt lat="45.536933330271744" lon="3.11209714994287"><ele>595.0</ele><time>2026-04-18T08:38:14Z</time></trkpt><trkpt lat="45.536858217088835" lon="3.1120442890905107"><ele>595.0</ele><time>2026-04-18T08:38:15Z</time></trkpt><trkpt lat="45.536804691169536" lon="3.1119688904207417"><ele>595.0</ele><time>2026-04-18T08:38:16Z</time></trkpt><trkpt lat="45.53678985104161" lon="3.111861298490497"><ele>595.0</ele><time>2026-04-18T08:38:17Z</time></trkpt><trkpt lat="45.53682095789264" lon="3.1117515500786777"><ele>595.0</ele><time>2026-04-18T08:38:18Z</time></trkpt><trkpt lat="45.536829571032435" lon="3.111635636501008"><ele>595.0</ele><time>2026-04-18T08:38:19Z</time></trkpt><trkpt lat="45.536876793787165" lon="3.111529360372497"><ele>595.0</ele><time>2026-04-18T08:38:20Z</time></trkpt><trkpt lat="45.536956775032365" lon="3.1114585924261284"><ele>595.0</ele><time>2026-04-18T08:38:21Z</time></trkpt><trkpt lat="45.537064841330505" lon="3.1114766452875133"><ele>597.2</ele><time>2026-04-18T08:38:22Z</time></trkpt><trkpt lat="45.537173886878584" lon="3.1115372693479135"><ele>599.4</ele><time>2026-04-18T08:38:23Z</time></trkpt><trkpt lat="45.53729286549953" lon="3.111548361643115"><ele>601.6</ele><time>2026-04-18T08:38:24Z</time></trkpt><trkpt lat="45.537391540905176" lon="3.11154940865091"><ele>603.8</ele><time>2026-04-18T08:38:25Z</time></trkpt><trkpt lat="45.53747742097264" lon="3.1114754196522645"><ele>606.0</ele><time>2026-04-18T08:38:26Z</time></trkpt><trkpt lat="45.53757632195909" lon="3.111343525056164"><ele>606.0</ele><time>2026-04-18T08:38:27Z</time></trkpt><trkpt lat="45.537704532155274" lon="3.111270246352078"><ele>606.0</ele><time>2026-04-18T08:38:28Z</time></trkpt><trkpt lat="45.53782329361194" lon="3.1112889968699307"><ele>606.0</ele><time>2026-04-18T08:38:29Z</time></trkpt><trkpt lat="45.53796548729458" lon="3.1113357909119688"><ele>606.0</ele><time>2026-04-18T08:38:30Z</time></trkpt><trkpt lat="45.53806453442148" lon="3.1113177475159657"><ele>605.3333333333334</ele><time>2026-04-18T08:38:31Z</time></trkpt><trkpt lat="45.53812084647479" lon="3.111253165967343"><ele>604.6666666666666</ele><time>2026-04-18T08:38:32Z</time></trkpt><trkpt lat="45.538149845339746" lon="3.111142685956711"><ele>604.0</ele><time>2026-04-18T08:38:33Z</time></trkpt><trkpt lat="45.53815456449752" lon="3.1109976630034253"><ele>603.3333333333333</ele><time>2026-04-18T08:38:34Z</time></trkpt><trkpt lat="45.53812987196522" lon="3.1108750546482566"><ele>602.6666666666666</ele><time>2026-04-18T08:38:35Z</time></trkpt><trkpt lat="45.538093191411825" lon="3.110786840483974"><ele>602.0</ele><time>2026-04-18T08:38:36Z</time></trkpt><trkpt lat="45.53801471283919" lon="3.110717494816134"><ele>602.8000000000001</ele><time>2026-04-18T08:38:38Z</time></trkpt><trkpt lat="45.537923945011265" lon="3.110677981362821"><ele>603.6</ele><time>2026-04-18T08:38:41Z</time></trkpt><trkpt lat="45.53781514778936" lon="3.110700011276134"><ele>604.4000000000001</ele><time>2026-04-18T08:38:43Z</time></trkpt><trkpt lat="45.5376959228874" lon="3.110734414006425"><ele>605.2</ele><time>2026-04-18T08:38:45Z</time></trkpt><trkpt lat="45.53762700587243" lon="3.1107558042971037"><ele>606.0</ele><time>2026-04-18T08:38:46Z</time></trkpt><trkpt lat="45.53755990936344" lon="3.1107752688815173"><ele>606.0</ele><time>2026-04-18T08:38:47Z</time></trkpt><trkpt lat="45.537486731397976" lon="3.1107995493270235"><ele>606.0</ele><time>2026-04-18T08:38:48Z</time></trkpt><trkpt lat="45.53740389608061" lon="3.110820569791433"><ele>606.0</ele><time>2026-04-18T08:38:48.999Z</time></trkpt><trkpt lat="45.5373171457865" lon="3.110830927702239"><ele>606.0</ele><time>2026-04-18T08:38:49.999Z</time></trkpt><trkpt lat="45.53722258219046" lon="3.1108291975039113"><ele>606.0</ele><time>2026-04-18T08:38:50.999Z</time></trkpt><trkpt lat="45.53712974628835" lon="3.1108085529521365"><ele>606.0</ele><time>2026-04-18T08:38:51.999Z</time></trkpt><trkpt lat="45.537040646113134" lon="3.1107794585905153"><ele>608.0</ele><time>2026-04-18T08:38:52.999Z</time></trkpt><trkpt lat="45.536953763924764" lon="3.1107389272652286"><ele>610.0</ele><time>2026-04-18T08:38:53.999Z</time></trkpt><trkpt lat="45.53687068859869" lon="3.1106846707854694"><ele>612.0</ele><time>2026-04-18T08:38:54.999Z</time></trkpt><trkpt lat="45.5367906338616" lon="3.1106136606232124"><ele>614.0</ele><time>2026-04-18T08:38:55.999Z</time></trkpt><trkpt lat="45.53671834884112" lon="3.1105265484867464"><ele>616.0</ele><time>2026-04-18T08:38:56.999Z</time></trkpt><trkpt lat="45.53664969082502" lon="3.1104314738520538"><ele>616.0</ele><time>2026-04-18T08:38:57.999Z</time></trkpt><trkpt lat="45.53657131764764" lon="3.1103301780846087"><ele>616.0</ele><time>2026-04-18T08:38:58.999Z</time></trkpt><trkpt lat="45.536497884251375" lon="3.1102406298778535"><ele>616.0</ele><time>2026-04-18T08:38:59.999Z</time></trkpt><trkpt lat="45.53642854166408" lon="3.110152808834391"><ele>616.0</ele><time>2026-04-18T08:39:00.999Z</time></trkpt><trkpt lat="45.5363519196209" lon="3.1100541970507907"><ele>616.0</ele><time>2026-04-18T08:39:01.999Z</time></trkpt><trkpt lat="45.536275294388645" lon="3.1099548988296544"><ele>617.2</ele><time>2026-04-18T08:39:02.999Z</time></trkpt><trkpt lat="45.53620041116828" lon="3.109859980453321"><ele>618.4000000000001</ele><time>2026-04-18T08:39:03.999Z</time></trkpt><trkpt lat="45.53612998374373" lon="3.1097686210322872"><ele>619.6</ele><time>2026-04-18T08:39:04.999Z</time></trkpt><trkpt lat="45.53606052436838" lon="3.109679475220761"><ele>620.8000000000001</ele><time>2026-04-18T08:39:05.999Z</time></trkpt><trkpt lat="45.53598600885287" lon="3.109583249119195"><ele>622.0</ele><time>2026-04-18T08:39:06.999Z</time></trkpt><trkpt lat="45.53591252898862" lon="3.109495017071089"><ele>622.0</ele><time>2026-04-18T08:39:07.999Z</time></trkpt><trkpt lat="45.53583909453235" lon="3.109408097351701"><ele>622.0</ele><time>2026-04-18T08:39:08.999Z</time></trkpt><trkpt lat="45.53576740116664" lon="3.1093217999522027"><ele>622.0</ele><time>2026-04-18T08:39:09.999Z</time></trkpt><trkpt lat="45.5357004065043" lon="3.1092364684654252"><ele>622.0</ele><time>2026-04-18T08:39:10.999Z</time></trkpt><trkpt lat="45.53563019634007" lon="3.1091463676376563"><ele>622.0</ele><time>2026-04-18T08:39:11.999Z</time></trkpt><trkpt lat="45.53556187339011" lon="3.109058376639285"><ele>623.4</ele><time>2026-04-18T08:39:12.999Z</time></trkpt><trkpt lat="45.53548489828147" lon="3.1089654684503314"><ele>624.8000000000001</ele><time>2026-04-18T08:39:13.999Z</time></trkpt><trkpt lat="45.53540990650292" lon="3.1088719382387353"><ele>626.2</ele><time>2026-04-18T08:39:14.999Z</time></trkpt><trkpt lat="45.53533400846215" lon="3.1087737634363695"><ele>627.6</ele><time>2026-04-18T08:39:15.999Z</time></trkpt><trkpt lat="45.53525630977431" lon="3.1086719798094"><ele>629.0</ele><time>2026-04-18T08:39:16.999Z</time></trkpt><trkpt lat="45.535175863695216" lon="3.1085715721239326"><ele>629.6</ele><time>2026-04-18T08:39:17.999Z</time></trkpt><trkpt lat="45.53509356129028" lon="3.108467237472679"><ele>630.2</ele><time>2026-04-18T08:39:18.999Z</time></trkpt><trkpt lat="45.535007781309304" lon="3.1083749309390205"><ele>630.8000000000001</ele><time>2026-04-18T08:39:19.999Z</time></trkpt><trkpt lat="45.53491587472852" lon="3.10829075019744"><ele>631.4</ele><time>2026-04-18T08:39:20.999Z</time></trkpt><trkpt lat="45.534815352897795" lon="3.1082128228583206"><ele>632.0</ele><time>2026-04-18T08:39:21.999Z</time></trkpt><trkpt lat="45.53471082959637" lon="3.1081540460957986"><ele>634.0</ele><time>2026-04-18T08:39:22.999Z</time></trkpt><trkpt lat="45.53460512806762" lon="3.1081050051173857"><ele>636.0</ele><time>2026-04-18T08:39:23.999Z</time></trkpt><trkpt lat="45.53450034862237" lon="3.1080433622842447"><ele>638.0</ele><time>2026-04-18T08:39:24.999Z</time></trkpt><trkpt lat="45.53439460182415" lon="3.1079704710146463"><ele>640.0</ele><time>2026-04-18T08:39:25.999Z</time></trkpt><trkpt lat="45.5342927928876" lon="3.1078871142891638"><ele>640.0</ele><time>2026-04-18T08:39:26.999Z</time></trkpt><trkpt lat="45.534190789722864" lon="3.1077911874918005"><ele>640.0</ele><time>2026-04-18T08:39:27.999Z</time></trkpt><trkpt lat="45.53408811868294" lon="3.1076927097830302"><ele>640.0</ele><time>2026-04-18T08:39:28.999Z</time></trkpt><trkpt lat="45.53398170724492" lon="3.107590515452761"><ele>640.0</ele><time>2026-04-18T08:39:29.999Z</time></trkpt><trkpt lat="45.53387583603913" lon="3.107487120416169"><ele>641.75</ele><time>2026-04-18T08:39:30.999Z</time></trkpt><trkpt lat="45.53377230598304" lon="3.107384687381497"><ele>643.5</ele><time>2026-04-18T08:39:31.999Z</time></trkpt><trkpt lat="45.53367284671945" lon="3.1072779361884204"><ele>645.25</ele><time>2026-04-18T08:39:32.999Z</time></trkpt><trkpt lat="45.53358059832125" lon="3.1071677984346886"><ele>647.0</ele><time>2026-04-18T08:39:33.999Z</time></trkpt><trkpt lat="45.53349263675198" lon="3.107057900741692"><ele>647.0</ele><time>2026-04-18T08:39:34.999Z</time></trkpt><trkpt lat="45.533412190736215" lon="3.106931368430281"><ele>647.0</ele><time>2026-04-18T08:39:35.999Z</time></trkpt><trkpt lat="45.53333366668705" lon="3.1067936724529592"><ele>647.0</ele><time>2026-04-18T08:39:36.999Z</time></trkpt><trkpt lat="45.533251301326395" lon="3.106647906040266"><ele>647.0</ele><time>2026-04-18T08:39:37.999Z</time></trkpt><trkpt lat="45.53317083933125" lon="3.1065007421779702"><ele>648.5</ele><time>2026-04-18T08:39:38.999Z</time></trkpt><trkpt lat="45.53308596969303" lon="3.1063486102520868"><ele>650.0</ele><time>2026-04-18T08:39:39.999Z</time></trkpt><trkpt lat="45.53300398692521" lon="3.1062025618200693"><ele>651.5</ele><time>2026-04-18T08:39:40.999Z</time></trkpt><trkpt lat="45.532918822212274" lon="3.106057525578"><ele>653.0</ele><time>2026-04-18T08:39:41.999Z</time></trkpt><trkpt lat="45.5328266679898" lon="3.1059252699802737"><ele>653.0</ele><time>2026-04-18T08:39:42.999Z</time></trkpt><trkpt lat="45.53272777547274" lon="3.1057902919633174"><ele>653.0</ele><time>2026-04-18T08:39:43.999Z</time></trkpt><trkpt lat="45.53261962882003" lon="3.105653278890234"><ele>653.0</ele><time>2026-04-18T08:39:44.999Z</time></trkpt><trkpt lat="45.53250059267309" lon="3.105520400752743"><ele>653.0</ele><time>2026-04-18T08:39:45.999Z</time></trkpt><trkpt lat="45.53238225789327" lon="3.105388537297188"><ele>654.75</ele><time>2026-04-18T08:39:46.999Z</time></trkpt><trkpt lat="45.532277295406274" lon="3.1052632682226675"><ele>656.5</ele><time>2026-04-18T08:39:47.999Z</time></trkpt><trkpt lat="45.532167271492035" lon="3.1051250407359254"><ele>658.25</ele><time>2026-04-18T08:39:48.999Z</time></trkpt><trkpt lat="45.53207407134601" lon="3.1049749311602013"><ele>660.0</ele><time>2026-04-18T08:39:49.999Z</time></trkpt><trkpt lat="45.53199184642902" lon="3.104803811023306"><ele>660.0</ele><time>2026-04-18T08:39:50.999Z</time></trkpt><trkpt lat="45.53191635326156" lon="3.1046248629806015"><ele>660.0</ele><time>2026-04-18T08:39:51.999Z</time></trkpt><trkpt lat="45.53184199678728" lon="3.10444697043047"><ele>660.0</ele><time>2026-04-18T08:39:52.999Z</time></trkpt><trkpt lat="45.53175941795793" lon="3.104250309983691"><ele>663.0</ele><time>2026-04-18T08:39:53.999Z</time></trkpt><trkpt lat="45.53168293807655" lon="3.104043435676"><ele>666.0</ele><time>2026-04-18T08:39:54.999Z</time></trkpt><trkpt lat="45.53161584649413" lon="3.103843568808974"><ele>669.0</ele><time>2026-04-18T08:39:55.999Z</time></trkpt><trkpt lat="45.53154262228065" lon="3.1036397034195997"><ele>669.0</ele><time>2026-04-18T08:39:56.999Z</time></trkpt><trkpt lat="45.53146087560776" lon="3.103451346453823"><ele>669.0</ele><time>2026-04-18T08:39:57.999Z</time></trkpt><trkpt lat="45.5313611561213" lon="3.1032560688923536"><ele>669.0</ele><time>2026-04-18T08:39:58.999Z</time></trkpt><trkpt lat="45.53125039809914" lon="3.1030526065110484"><ele>668.3333333333334</ele><time>2026-04-18T08:39:59.999Z</time></trkpt><trkpt lat="45.53113258398575" lon="3.1028679707956806"><ele>667.6666666666667</ele><time>2026-04-18T08:40:00.999Z</time></trkpt><trkpt lat="45.531008536738206" lon="3.1026913159084657"><ele>667.0</ele><time>2026-04-18T08:40:01.999Z</time></trkpt><trkpt lat="45.53088378897386" lon="3.102493588482779"><ele>672.0</ele><time>2026-04-18T08:40:02.999Z</time></trkpt><trkpt lat="45.53076832817795" lon="3.1023129224894195"><ele>677.0</ele><time>2026-04-18T08:40:03.999Z</time></trkpt><trkpt lat="45.53065769751301" lon="3.1021145353297643"><ele>682.0</ele><time>2026-04-18T08:40:04.999Z</time></trkpt><trkpt lat="45.530551691097756" lon="3.101931801464761"><ele>682.0</ele><time>2026-04-18T08:40:05.999Z</time></trkpt><trkpt lat="45.530448620716264" lon="3.1017619784202"><ele>682.0</ele><time>2026-04-18T08:40:06.999Z</time></trkpt><trkpt lat="45.53035055920395" lon="3.1015796857636584"><ele>682.0</ele><time>2026-04-18T08:40:07.999Z</time></trkpt><trkpt lat="45.5302447838031" lon="3.1014149296402245"><ele>681.3333333333334</ele><time>2026-04-18T08:40:08.999Z</time></trkpt><trkpt lat="45.5301313781678" lon="3.10126440543307"><ele>680.6666666666666</ele><time>2026-04-18T08:40:09.999Z</time></trkpt><trkpt lat="45.530012526951985" lon="3.101137567049152"><ele>680.0</ele><time>2026-04-18T08:40:10.999Z</time></trkpt><trkpt lat="45.52989051719295" lon="3.101003986987303"><ele>680.0</ele><time>2026-04-18T08:40:11.999Z</time></trkpt><trkpt lat="45.52976636239258" lon="3.100868642596739"><ele>680.0</ele><time>2026-04-18T08:40:12.999Z</time></trkpt><trkpt lat="45.52963934493154" lon="3.100736151829135"><ele>680.0</ele><time>2026-04-18T08:40:13.999Z</time></trkpt><trkpt lat="45.52950105972724" lon="3.1006156458964163"><ele>681.0</ele><time>2026-04-18T08:40:14.999Z</time></trkpt><trkpt lat="45.529353881282695" lon="3.1005049715772537"><ele>682.0</ele><time>2026-04-18T08:40:15.999Z</time></trkpt><trkpt lat="45.52921448804499" lon="3.100413313006499"><ele>683.0</ele><time>2026-04-18T08:40:16.999Z</time></trkpt><trkpt lat="45.52906992345859" lon="3.100302040884009"><ele>683.0</ele><time>2026-04-18T08:40:17.999Z</time></trkpt><trkpt lat="45.52893538257521" lon="3.100175818542367"><ele>683.0</ele><time>2026-04-18T08:40:18.999Z</time></trkpt><trkpt lat="45.528831268238264" lon="3.1000210946515074"><ele>683.0</ele><time>2026-04-18T08:40:20Z</time></trkpt><trkpt lat="45.52873695543463" lon="3.0998472053510837"><ele>685.25</ele><time>2026-04-18T08:40:21Z</time></trkpt><trkpt lat="45.528640362907666" lon="3.0997009643295748"><ele>687.5</ele><time>2026-04-18T08:40:22Z</time></trkpt><trkpt lat="45.52851940362474" lon="3.0995946236441467"><ele>689.75</ele><time>2026-04-18T08:40:23Z</time></trkpt><trkpt lat="45.528385850540616" lon="3.099529352363668"><ele>692.0</ele><time>2026-04-18T08:40:24Z</time></trkpt><trkpt lat="45.528244898367056" lon="3.0994670984187493"><ele>692.0</ele><time>2026-04-18T08:40:25Z</time></trkpt><trkpt lat="45.528127668815095" lon="3.0993786144213282"><ele>692.0</ele><time>2026-04-18T08:40:26Z</time></trkpt><trkpt lat="45.5280525840096" lon="3.0992184962175955"><ele>692.0</ele><time>2026-04-18T08:40:27Z</time></trkpt><trkpt lat="45.52796834807003" lon="3.0990445270337874"><ele>692.0</ele><time>2026-04-18T08:40:28Z</time></trkpt><trkpt lat="45.527906509757095" lon="3.0988541259356954"><ele>692.5</ele><time>2026-04-18T08:40:29Z</time></trkpt><trkpt lat="45.527837352707415" lon="3.0986779805875795"><ele>693.0</ele><time>2026-04-18T08:40:30Z</time></trkpt><trkpt lat="45.52777190161327" lon="3.098536130602538"><ele>693.5</ele><time>2026-04-18T08:40:31Z</time></trkpt><trkpt lat="45.527700957416336" lon="3.098411653606632"><ele>694.0</ele><time>2026-04-18T08:40:32Z</time></trkpt><trkpt lat="45.52760994013262" lon="3.0983148809557974"><ele>695.75</ele><time>2026-04-18T08:40:33Z</time></trkpt><trkpt lat="45.5274901661355" lon="3.098238899246069"><ele>697.5</ele><time>2026-04-18T08:40:34Z</time></trkpt><trkpt lat="45.52735125648737" lon="3.098178161054646"><ele>699.25</ele><time>2026-04-18T08:40:35Z</time></trkpt><trkpt lat="45.52720592707996" lon="3.0981074151344563"><ele>701.0</ele><time>2026-04-18T08:40:36Z</time></trkpt><trkpt lat="45.527062961738466" lon="3.098033224319975"><ele>700.0</ele><time>2026-04-18T08:40:37Z</time></trkpt><trkpt lat="45.52691214039804" lon="3.0979451592637908"><ele>699.0</ele><time>2026-04-18T08:40:38Z</time></trkpt><trkpt lat="45.52676175190597" lon="3.097852116622814"><ele>698.0</ele><time>2026-04-18T08:40:39Z</time></trkpt><trkpt lat="45.52661001562514" lon="3.097760923511665"><ele>698.0</ele><time>2026-04-18T08:40:40Z</time></trkpt><trkpt lat="45.52646435297837" lon="3.0976629463521728"><ele>698.0</ele><time>2026-04-18T08:40:41Z</time></trkpt><trkpt lat="45.52631999595676" lon="3.0975375985968983"><ele>698.0</ele><time>2026-04-18T08:40:42Z</time></trkpt><trkpt lat="45.52618472266464" lon="3.097406493118857"><ele>698.3333333333333</ele><time>2026-04-18T08:40:43Z</time></trkpt><trkpt lat="45.52606093101857" lon="3.097280786131395"><ele>698.6666666666666</ele><time>2026-04-18T08:40:44Z</time></trkpt><trkpt lat="45.525937464329125" lon="3.097144379928715"><ele>699.0</ele><time>2026-04-18T08:40:45Z</time></trkpt><trkpt lat="45.52580557049802" lon="3.096983485156195"><ele>699.0</ele><time>2026-04-18T08:40:46Z</time></trkpt><trkpt lat="45.525679237930156" lon="3.096819321447335"><ele>699.0</ele><time>2026-04-18T08:40:47Z</time></trkpt><trkpt lat="45.52554962108212" lon="3.0966623098274426"><ele>699.0</ele><time>2026-04-18T08:40:48Z</time></trkpt><trkpt lat="45.52541286765747" lon="3.09650860945135"><ele>699.6666666666666</ele><time>2026-04-18T08:40:48.999Z</time></trkpt><trkpt lat="45.525283509906174" lon="3.096378780996417"><ele>700.3333333333333</ele><time>2026-04-18T08:40:49.999Z</time></trkpt><trkpt lat="45.5251444426076" lon="3.0962534775215556"><ele>701.0</ele><time>2026-04-18T08:40:50.999Z</time></trkpt><trkpt lat="45.525000067657906" lon="3.0960991154509743"><ele>701.0</ele><time>2026-04-18T08:40:51.999Z</time></trkpt><trkpt lat="45.524882116426845" lon="3.095939107358784"><ele>701.0</ele><time>2026-04-18T08:40:52.999Z</time></trkpt><trkpt lat="45.52475101323073" lon="3.0957447058680296"><ele>701.0</ele><time>2026-04-18T08:40:53.999Z</time></trkpt><trkpt lat="45.52462789206803" lon="3.095567665114183"><ele>700.3333333333333</ele><time>2026-04-18T08:40:54.999Z</time></trkpt><trkpt lat="45.52451862886108" lon="3.0954013433576"><ele>699.6666666666666</ele><time>2026-04-18T08:40:55.999Z</time></trkpt><trkpt lat="45.52440612413211" lon="3.0952270830210145"><ele>699.0</ele><time>2026-04-18T08:40:56.999Z</time></trkpt><trkpt lat="45.52431192641635" lon="3.0950727263837723"><ele>700.6666666666666</ele><time>2026-04-18T08:40:57.999Z</time></trkpt><trkpt lat="45.5242113543606" lon="3.0949017525623232"><ele>702.3333333333333</ele><time>2026-04-18T08:40:58.999Z</time></trkpt><trkpt lat="45.5241167165171" lon="3.0947238216245254"><ele>704.0</ele><time>2026-04-18T08:40:59.999Z</time></trkpt><trkpt lat="45.52402728045646" lon="3.0945227721543196"><ele>704.0</ele><time>2026-04-18T08:41:00.999Z</time></trkpt><trkpt lat="45.52394712745773" lon="3.094320359430423"><ele>704.0</ele><time>2026-04-18T08:41:01.999Z</time></trkpt><trkpt lat="45.5238610056209" lon="3.094100176704613"><ele>704.0</ele><time>2026-04-18T08:41:02.999Z</time></trkpt><trkpt lat="45.523768264388934" lon="3.0938881248633936"><ele>704.6666666666666</ele><time>2026-04-18T08:41:03.999Z</time></trkpt><trkpt lat="45.523680526136474" lon="3.0936922158377915"><ele>705.3333333333334</ele><time>2026-04-18T08:41:04.999Z</time></trkpt><trkpt lat="45.523598849593334" lon="3.0935061327360227"><ele>706.0</ele><time>2026-04-18T08:41:05.999Z</time></trkpt><trkpt lat="45.52352595352369" lon="3.0933295734831407"><ele>707.25</ele><time>2026-04-18T08:41:06.999Z</time></trkpt><trkpt lat="45.5234573946053" lon="3.0931611767348"><ele>708.5</ele><time>2026-04-18T08:41:07.999Z</time></trkpt><trkpt lat="45.523391125012914" lon="3.093004454411744"><ele>709.75</ele><time>2026-04-18T08:41:08.999Z</time></trkpt><trkpt lat="45.52332944235992" lon="3.092857601290902"><ele>711.0</ele><time>2026-04-18T08:41:09.999Z</time></trkpt><trkpt lat="45.52326707175013" lon="3.0927115150311724"><ele>711.0</ele><time>2026-04-18T08:41:10.999Z</time></trkpt><trkpt lat="45.52321229462295" lon="3.092580766669047"><ele>711.0</ele><time>2026-04-18T08:41:11.999Z</time></trkpt><trkpt lat="45.52315407472205" lon="3.09246827337589"><ele>711.0</ele><time>2026-04-18T08:41:12.999Z</time></trkpt><trkpt lat="45.523092389563246" lon="3.092376417905996"><ele>711.0</ele><time>2026-04-18T08:41:13.999Z</time></trkpt><trkpt lat="45.52301012727161" lon="3.09230305736345"><ele>711.0</ele><time>2026-04-18T08:41:14.999Z</time></trkpt><trkpt lat="45.522904549692925" lon="3.092257234210392"><ele>713.5</ele><time>2026-04-18T08:41:15.999Z</time></trkpt><trkpt lat="45.52279013338317" lon="3.092244158676631"><ele>716.0</ele><time>2026-04-18T08:41:16.999Z</time></trkpt><trkpt lat="45.522668478486914" lon="3.0922415859217485"><ele>718.5</ele><time>2026-04-18T08:41:17.999Z</time></trkpt><trkpt lat="45.522544961649345" lon="3.0922328259854974"><ele>721.0</ele><time>2026-04-18T08:41:18.999Z</time></trkpt><trkpt lat="45.522433001394816" lon="3.0922190832108387"><ele>721.0</ele><time>2026-04-18T08:41:19.999Z</time></trkpt><trkpt lat="45.52232236216828" lon="3.0921975045005117"><ele>721.0</ele><time>2026-04-18T08:41:20.999Z</time></trkpt><trkpt lat="45.52223476455302" lon="3.092185600572034"><ele>721.0</ele><time>2026-04-18T08:41:21.999Z</time></trkpt><trkpt lat="45.52215036139404" lon="3.0921865290364923"><ele>721.0</ele><time>2026-04-18T08:41:22.999Z</time></trkpt><trkpt lat="45.5220757507328" lon="3.0922167241765486"><ele>721.0</ele><time>2026-04-18T08:41:23.999Z</time></trkpt><trkpt lat="45.522015582613484" lon="3.0922894200581266"><ele>721.0</ele><time>2026-04-18T08:41:24.999Z</time></trkpt><trkpt lat="45.521946115520954" lon="3.0923943595913275"><ele>720.3333333333334</ele><time>2026-04-18T08:41:25.999Z</time></trkpt><trkpt lat="45.52188836101497" lon="3.092494367986567"><ele>719.6666666666667</ele><time>2026-04-18T08:41:26.999Z</time></trkpt><trkpt lat="45.52182976772786" lon="3.092550372872393"><ele>719.0</ele><time>2026-04-18T08:41:27.999Z</time></trkpt><trkpt lat="45.52175111918359" lon="3.092584184812679"><ele>718.3333333333334</ele><time>2026-04-18T08:41:28.999Z</time></trkpt><trkpt lat="45.521677325680045" lon="3.0925724270451873"><ele>717.6666666666666</ele><time>2026-04-18T08:41:29.999Z</time></trkpt><trkpt lat="45.52159140439467" lon="3.0925251146634194"><ele>717.0</ele><time>2026-04-18T08:41:30.999Z</time></trkpt><trkpt lat="45.52150863808293" lon="3.0924630389826713"><ele>718.0</ele><time>2026-04-18T08:41:31.999Z</time></trkpt><trkpt lat="45.52141685821413" lon="3.0923804442772203"><ele>719.0</ele><time>2026-04-18T08:41:32.999Z</time></trkpt><trkpt lat="45.521336342582046" lon="3.092275300921242"><ele>720.0</ele><time>2026-04-18T08:41:33.999Z</time></trkpt><trkpt lat="45.52129201158846" lon="3.092139804583031"><ele>721.0</ele><time>2026-04-18T08:41:34.999Z</time></trkpt><trkpt lat="45.52128714543338" lon="3.0919902186798343"><ele>722.0</ele><time>2026-04-18T08:41:35.999Z</time></trkpt><trkpt lat="45.5213190878421" lon="3.091848358262725"><ele>722.0</ele><time>2026-04-18T08:41:36.999Z</time></trkpt><trkpt lat="45.52138722063533" lon="3.091741062688317"><ele>722.0</ele><time>2026-04-18T08:41:37.999Z</time></trkpt><trkpt lat="45.521484403558965" lon="3.091670681477909"><ele>722.0</ele><time>2026-04-18T08:41:38.999Z</time></trkpt><trkpt lat="45.52159831038453" lon="3.0916472437362237"><ele>722.0</ele><time>2026-04-18T08:41:39.999Z</time></trkpt><trkpt lat="45.52171265547651" lon="3.0916369598355864"><ele>722.0</ele><time>2026-04-18T08:41:40.999Z</time></trkpt><trkpt lat="45.5218046833724" lon="3.0915836120207856"><ele>724.2</ele><time>2026-04-18T08:41:41.999Z</time></trkpt><trkpt lat="45.52186835608859" lon="3.0914578993880557"><ele>726.4000000000001</ele><time>2026-04-18T08:41:42.999Z</time></trkpt><trkpt lat="45.521879448344386" lon="3.091299795408482"><ele>728.5999999999999</ele><time>2026-04-18T08:41:43.999Z</time></trkpt><trkpt lat="45.52185430565434" lon="3.09116195873841"><ele>730.8</ele><time>2026-04-18T08:41:44.999Z</time></trkpt><trkpt lat="45.521788770161095" lon="3.091047011403491"><ele>733.0</ele><time>2026-04-18T08:41:45.999Z</time></trkpt><trkpt lat="45.521700396652946" lon="3.0909898914736793"><ele>733.0</ele><time>2026-04-18T08:41:46.999Z</time></trkpt><trkpt lat="45.52159578123041" lon="3.0909849036427435"><ele>733.0</ele><time>2026-04-18T08:41:47.999Z</time></trkpt><trkpt lat="45.521485951544626" lon="3.0910093482883707"><ele>733.0</ele><time>2026-04-18T08:41:48.999Z</time></trkpt><trkpt lat="45.52138059967241" lon="3.0910241604312922"><ele>733.0</ele><time>2026-04-18T08:41:49.999Z</time></trkpt><trkpt lat="45.521277308764105" lon="3.0910170104150088"><ele>733.0</ele><time>2026-04-18T08:41:50.999Z</time></trkpt><trkpt lat="45.521174185070485" lon="3.0909927865486977"><ele>733.4</ele><time>2026-04-18T08:41:51.999Z</time></trkpt><trkpt lat="45.52106680495322" lon="3.0909659985459412"><ele>733.8</ele><time>2026-04-18T08:41:52.999Z</time></trkpt><trkpt lat="45.520965321685935" lon="3.0909292024578727"><ele>734.2</ele><time>2026-04-18T08:41:53.999Z</time></trkpt><trkpt lat="45.52086821733907" lon="3.0908844043432664"><ele>734.6</ele><time>2026-04-18T08:41:54.999Z</time></trkpt><trkpt lat="45.52076719103314" lon="3.0908478279253546"><ele>735.0</ele><time>2026-04-18T08:41:55.999Z</time></trkpt><trkpt lat="45.52066478407358" lon="3.09081619192906"><ele>735.0</ele><time>2026-04-18T08:41:56.999Z</time></trkpt><trkpt lat="45.52056395992041" lon="3.09077673078782"><ele>735.0</ele><time>2026-04-18T08:41:57.999Z</time></trkpt><trkpt lat="45.520473920029104" lon="3.0907171378503504"><ele>735.0</ele><time>2026-04-18T08:41:58.999Z</time></trkpt><trkpt lat="45.52040517420989" lon="3.090612649314778"><ele>735.0</ele><time>2026-04-18T08:41:59.999Z</time></trkpt><trkpt lat="45.52037391610808" lon="3.0904823360403815"><ele>735.0</ele><time>2026-04-18T08:42:00.999Z</time></trkpt><trkpt lat="45.52037951509912" lon="3.0903397298388025"><ele>736.6</ele><time>2026-04-18T08:42:01.999Z</time></trkpt><trkpt lat="45.52044117375526" lon="3.090226512098078"><ele>738.2</ele><time>2026-04-18T08:42:02.999Z</time></trkpt><trkpt lat="45.520531644926365" lon="3.0901512678214615"><ele>739.8</ele><time>2026-04-18T08:42:03.999Z</time></trkpt><trkpt lat="45.52063190496259" lon="3.0901207969259397"><ele>741.4</ele><time>2026-04-18T08:42:04.999Z</time></trkpt><trkpt lat="45.52074182681246" lon="3.0900831187393423"><ele>743.0</ele><time>2026-04-18T08:42:05.999Z</time></trkpt><trkpt lat="45.520841035072245" lon="3.0900108572055602"><ele>744.75</ele><time>2026-04-18T08:42:06.999Z</time></trkpt><trkpt lat="45.52091888002078" lon="3.0898846687063495"><ele>746.5</ele><time>2026-04-18T08:42:07.999Z</time></trkpt><trkpt lat="45.5209934629645" lon="3.089729438184386"><ele>748.25</ele><time>2026-04-18T08:42:08.999Z</time></trkpt><trkpt lat="45.52108719822628" lon="3.0895605635623027"><ele>750.0</ele><time>2026-04-18T08:42:09.999Z</time></trkpt><trkpt lat="45.52118737798858" lon="3.0893942009717845"><ele>749.6</ele><time>2026-04-18T08:42:10.999Z</time></trkpt><trkpt lat="45.521269079677964" lon="3.0892575152765067"><ele>749.2</ele><time>2026-04-18T08:42:11.999Z</time></trkpt><trkpt lat="45.52134486781037" lon="3.0891511785698222"><ele>748.8</ele><time>2026-04-18T08:42:12.999Z</time></trkpt><trkpt lat="45.521419489123964" lon="3.089082248117272"><ele>748.4</ele><time>2026-04-18T08:42:13.999Z</time></trkpt><trkpt lat="45.52151889570436" lon="3.0890401433771806"><ele>748.0</ele><time>2026-04-18T08:42:14.999Z</time></trkpt><trkpt lat="45.52160705185407" lon="3.0890329742321363"><ele>748.0</ele><time>2026-04-18T08:42:15.999Z</time></trkpt><trkpt lat="45.52168612163646" lon="3.089014969738586"><ele>748.0</ele><time>2026-04-18T08:42:16.999Z</time></trkpt><trkpt lat="45.52174578081255" lon="3.0889672891428415"><ele>748.0</ele><time>2026-04-18T08:42:17.999Z</time></trkpt><trkpt lat="45.52178503050951" lon="3.0888865003871713"><ele>748.0</ele><time>2026-04-18T08:42:18.999Z</time></trkpt><trkpt lat="45.52180912897539" lon="3.088790709703527"><ele>748.0</ele><time>2026-04-18T08:42:19.999Z</time></trkpt><trkpt lat="45.52181923910171" lon="3.088663234643628"><ele>748.0</ele><time>2026-04-18T08:42:20.999Z</time></trkpt><trkpt lat="45.521811903077335" lon="3.0885241510668795"><ele>748.0</ele><time>2026-04-18T08:42:21.999Z</time></trkpt><trkpt lat="45.52178822860337" lon="3.0883867169026322"><ele>748.0</ele><time>2026-04-18T08:42:22.999Z</time></trkpt><trkpt lat="45.52178431027293" lon="3.0882521077411367"><ele>748.0</ele><time>2026-04-18T08:42:23.999Z</time></trkpt><trkpt lat="45.521776848047516" lon="3.088128877330705"><ele>748.0</ele><time>2026-04-18T08:42:24.999Z</time></trkpt><trkpt lat="45.521769314610154" lon="3.087985701949364"><ele>748.0</ele><time>2026-04-18T08:42:25.999Z</time></trkpt><trkpt lat="45.521761517353774" lon="3.0878496218921323"><ele>748.8</ele><time>2026-04-18T08:42:26.999Z</time></trkpt><trkpt lat="45.521752698845056" lon="3.0877199566641016"><ele>749.5999999999999</ele><time>2026-04-18T08:42:27.999Z</time></trkpt><trkpt lat="45.52174869596759" lon="3.0875741160438483"><ele>750.4000000000001</ele><time>2026-04-18T08:42:28.999Z</time></trkpt><trkpt lat="45.521757540692704" lon="3.0874446385254957"><ele>751.2</ele><time>2026-04-18T08:42:29.999Z</time></trkpt><trkpt lat="45.521783166900875" lon="3.08731818964653"><ele>752.0</ele><time>2026-04-18T08:42:30.999Z</time></trkpt><trkpt lat="45.52183214329866" lon="3.0872139098896065"><ele>752.6</ele><time>2026-04-18T08:42:31.999Z</time></trkpt><trkpt lat="45.52190304029322" lon="3.0871255092305643"><ele>753.2</ele><time>2026-04-18T08:42:32.999Z</time></trkpt><trkpt lat="45.52199190080709" lon="3.087042200310425"><ele>753.8</ele><time>2026-04-18T08:42:33.999Z</time></trkpt><trkpt lat="45.522081679165" lon="3.0869504591621446"><ele>754.4</ele><time>2026-04-18T08:42:34.999Z</time></trkpt><trkpt lat="45.52216968823133" lon="3.086850811495264"><ele>755.0</ele><time>2026-04-18T08:42:35.999Z</time></trkpt><trkpt lat="45.522249350379184" lon="3.086743411282209"><ele>755.4</ele><time>2026-04-18T08:42:36.999Z</time></trkpt><trkpt lat="45.5223153003351" lon="3.086638742690478"><ele>755.8</ele><time>2026-04-18T08:42:37.999Z</time></trkpt><trkpt lat="45.522354680618406" lon="3.086521505756224"><ele>756.2</ele><time>2026-04-18T08:42:38.999Z</time></trkpt><trkpt lat="45.52236385939249" lon="3.086379861603165"><ele>756.6</ele><time>2026-04-18T08:42:39.999Z</time></trkpt><trkpt lat="45.522347809176274" lon="3.086230794385273"><ele>757.0</ele><time>2026-04-18T08:42:40.999Z</time></trkpt><trkpt lat="45.52231589760833" lon="3.0860820908216984"><ele>758.75</ele><time>2026-04-18T08:42:41.999Z</time></trkpt><trkpt lat="45.52228057164094" lon="3.0859324561875807"><ele>760.5</ele><time>2026-04-18T08:42:42.999Z</time></trkpt><trkpt lat="45.52225002143089" lon="3.0857788733295703"><ele>762.25</ele><time>2026-04-18T08:42:43.999Z</time></trkpt><trkpt lat="45.522222148208535" lon="3.0856243420976046"><ele>764.0</ele><time>2026-04-18T08:42:44.999Z</time></trkpt><trkpt lat="45.52219508789937" lon="3.0854642717401504"><ele>764.6</ele><time>2026-04-18T08:42:45.999Z</time></trkpt><trkpt lat="45.5221778121861" lon="3.085300183665137"><ele>765.2</ele><time>2026-04-18T08:42:46.999Z</time></trkpt><trkpt lat="45.522182493981106" lon="3.0851394344324556"><ele>765.8000000000001</ele><time>2026-04-18T08:42:47.999Z</time></trkpt><trkpt lat="45.52219765743779" lon="3.0849802140082367"><ele>766.4000000000001</ele><time>2026-04-18T08:42:48.999Z</time></trkpt><trkpt lat="45.5222095608933" lon="3.08482871295816"><ele>767.0</ele><time>2026-04-18T08:42:49.999Z</time></trkpt><trkpt lat="45.52221863783829" lon="3.0846720658462283"><ele>768.2</ele><time>2026-04-18T08:42:50.999Z</time></trkpt><trkpt lat="45.522226940408736" lon="3.084514699015823"><ele>769.4000000000001</ele><time>2026-04-18T08:42:51.999Z</time></trkpt><trkpt lat="45.52222124106118" lon="3.0843460465736836"><ele>770.5999999999999</ele><time>2026-04-18T08:42:52.999Z</time></trkpt><trkpt lat="45.5222032391316" lon="3.084191765829277"><ele>771.8</ele><time>2026-04-18T08:42:53.999Z</time></trkpt><trkpt lat="45.52218915232" lon="3.0840421212638627"><ele>773.0</ele><time>2026-04-18T08:42:54.999Z</time></trkpt><trkpt lat="45.5221831264027" lon="3.083879218382447"><ele>774.25</ele><time>2026-04-18T08:42:55.999Z</time></trkpt><trkpt lat="45.52219056014921" lon="3.0837277766640665"><ele>775.5</ele><time>2026-04-18T08:42:56.999Z</time></trkpt><trkpt lat="45.52221701922235" lon="3.083561564894931"><ele>776.75</ele><time>2026-04-18T08:42:57.999Z</time></trkpt><trkpt lat="45.52225479898296" lon="3.083405335817369"><ele>778.0</ele><time>2026-04-18T08:42:58.999Z</time></trkpt><trkpt lat="45.52229020324128" lon="3.083252891910718"><ele>778.6666666666666</ele><time>2026-04-18T08:42:59.999Z</time></trkpt><trkpt lat="45.52232546726366" lon="3.083109819897579"><ele>779.3333333333333</ele><time>2026-04-18T08:43:00.999Z</time></trkpt><trkpt lat="45.522353424851204" lon="3.0829664415165103"><ele>780.0</ele><time>2026-04-18T08:43:01.999Z</time></trkpt><trkpt lat="45.522373649993725" lon="3.0828415206416357"><ele>780.6666666666667</ele><time>2026-04-18T08:43:02.999Z</time></trkpt><trkpt lat="45.52238371026385" lon="3.0827296706365996"><ele>781.3333333333334</ele><time>2026-04-18T08:43:03.999Z</time></trkpt><trkpt lat="45.52238712176296" lon="3.082633625349165"><ele>782.0</ele><time>2026-04-18T08:43:04.999Z</time></trkpt><trkpt lat="45.522392329477015" lon="3.0825392160179677"><ele>782.0000000000001</ele><time>2026-04-18T08:43:05.999Z</time></trkpt><trkpt lat="45.52234936133108" lon="3.082644765957694"><ele>782.0</ele><time>2026-04-18T08:43:11.999Z</time></trkpt><trkpt lat="45.52236129286371" lon="3.0827349073616723"><ele>782.0</ele><time>2026-04-18T08:43:12.999Z</time></trkpt><trkpt lat="45.52235816195717" lon="3.0828425022969737"><ele>782.0</ele><time>2026-04-18T08:43:13.999Z</time></trkpt><trkpt lat="45.52234152238523" lon="3.082974825825496"><ele>782.0000000000001</ele><time>2026-04-18T08:43:14.999Z</time></trkpt><trkpt lat="45.52231937656768" lon="3.0830989134610425"><ele>782.0</ele><time>2026-04-18T08:43:15.999Z</time></trkpt><trkpt lat="45.52229762365873" lon="3.083200607616527"><ele>781.4285714285713</ele><time>2026-04-18T08:43:16.999Z</time></trkpt><trkpt lat="45.52227553911926" lon="3.0833035398838184"><ele>780.8571428571429</ele><time>2026-04-18T08:43:17.999Z</time></trkpt><trkpt lat="45.522253194702024" lon="3.083395948062454"><ele>780.2857142857142</ele><time>2026-04-18T08:43:18.999Z</time></trkpt><trkpt lat="45.52222905416306" lon="3.083485225477971"><ele>779.7142857142857</ele><time>2026-04-18T08:43:19.999Z</time></trkpt><trkpt lat="45.522198064361966" lon="3.0836137284108855"><ele>779.1428571428571</ele><time>2026-04-18T08:43:21.999Z</time></trkpt><trkpt lat="45.52219479057914" lon="3.0837164617472923"><ele>778.5714285714286</ele><time>2026-04-18T08:43:24.999Z</time></trkpt><trkpt lat="45.5222368108183" lon="3.0836488853769715"><ele>778.0</ele><time>2026-04-18T08:44:51.999Z</time></trkpt><trkpt lat="45.522245403220786" lon="3.0835444304899453"><ele>777.9999999999999</ele><time>2026-04-18T08:44:53.999Z</time></trkpt><trkpt lat="45.52227404425898" lon="3.0834032296876956"><ele>778.0</ele><time>2026-04-18T08:44:55.999Z</time></trkpt><trkpt lat="45.52230420220448" lon="3.083251529056059"><ele>778.0</ele><time>2026-04-18T08:44:57.999Z</time></trkpt><trkpt lat="45.52232333860282" lon="3.083160913917898"><ele>778.0</ele><time>2026-04-18T08:44:58.999Z</time></trkpt><trkpt lat="45.52234045016164" lon="3.0830667285371525"><ele>777.9999999999999</ele><time>2026-04-18T08:44:59.999Z</time></trkpt><trkpt lat="45.522357535447" lon="3.0829665568193882"><ele>778.0</ele><time>2026-04-18T08:45:00.999Z</time></trkpt><trkpt lat="45.522378823215746" lon="3.082786566869642"><ele>778.5714285714286</ele><time>2026-04-18T08:45:01.999Z</time></trkpt><trkpt lat="45.522369687912914" lon="3.0826770071252296"><ele>779.1428571428571</ele><time>2026-04-18T08:45:02.999Z</time></trkpt><trkpt lat="45.52234942690983" lon="3.0825277333249272"><ele>779.7142857142857</ele><time>2026-04-18T08:45:04.999Z</time></trkpt><trkpt lat="45.522336664701164" lon="3.082434643898032"><ele>780.2857142857142</ele><time>2026-04-18T08:45:05.999Z</time></trkpt><trkpt lat="45.52239839544383" lon="3.082406517684852"><ele>780.8571428571429</ele><time>2026-04-18T08:45:06.999Z</time></trkpt><trkpt lat="45.52239034533172" lon="3.082313626567869"><ele>781.4285714285713</ele><time>2026-04-18T08:45:07.999Z</time></trkpt><trkpt lat="45.52237726932742" lon="3.0822203574706464"><ele>782.0</ele><time>2026-04-18T08:45:08.999Z</time></trkpt><trkpt lat="45.52236998701572" lon="3.08211283734762"><ele>783.0</ele><time>2026-04-18T08:45:09.999Z</time></trkpt><trkpt lat="45.522364798584285" lon="3.082017018835415"><ele>784.0</ele><time>2026-04-18T08:45:10.999Z</time></trkpt><trkpt lat="45.52234979863038" lon="3.0818920355149446"><ele>785.0</ele><time>2026-04-18T08:45:12.999Z</time></trkpt><trkpt lat="45.522320837763694" lon="3.0817103156150267"><ele>786.0</ele><time>2026-04-18T08:45:14.999Z</time></trkpt><trkpt lat="45.522301545544366" lon="3.081592384811628"><ele>787.0</ele><time>2026-04-18T08:45:15.999Z</time></trkpt><trkpt lat="45.5222891473737" lon="3.081470965660211"><ele>787.8</ele><time>2026-04-18T08:45:16.999Z</time></trkpt><trkpt lat="45.5222874737918" lon="3.0813445567035878"><ele>788.6</ele><time>2026-04-18T08:45:17.999Z</time></trkpt><trkpt lat="45.52229829885433" lon="3.0812198009020517"><ele>789.4</ele><time>2026-04-18T08:45:18.999Z</time></trkpt><trkpt lat="45.52231854834086" lon="3.0811248164658127"><ele>790.1999999999999</ele><time>2026-04-18T08:45:19.999Z</time></trkpt><trkpt lat="45.5223389816109" lon="3.080975441090625"><ele>791.0</ele><time>2026-04-18T08:45:28.999Z</time></trkpt><trkpt lat="45.52234696191313" lon="3.0807750400792355"><ele>792.5</ele><time>2026-04-18T08:45:29.999Z</time></trkpt><trkpt lat="45.522377996957765" lon="3.080631873493191"><ele>794.0</ele><time>2026-04-18T08:45:30.999Z</time></trkpt><trkpt lat="45.52239985621731" lon="3.080414600581882"><ele>795.5</ele><time>2026-04-18T08:45:31.999Z</time></trkpt><trkpt lat="45.522428567952375" lon="3.0802300398716564"><ele>797.0</ele><time>2026-04-18T08:45:32.999Z</time></trkpt><trkpt lat="45.52245230596448" lon="3.080004538219951"><ele>797.0</ele><time>2026-04-18T08:45:33.999Z</time></trkpt><trkpt lat="45.522432157481425" lon="3.0802732865843905"><ele>797.0</ele><time>2026-04-18T08:45:34.999Z</time></trkpt><trkpt lat="45.52236151613466" lon="3.0803086877565415"><ele>797.0</ele><time>2026-04-18T08:45:39.999Z</time></trkpt><trkpt lat="45.522370362860926" lon="3.0804924948187766"><ele>797.0</ele><time>2026-04-18T08:45:41.999Z</time></trkpt><trkpt lat="45.52236839334847" lon="3.080617042465709"><ele>795.5</ele><time>2026-04-18T08:45:42.999Z</time></trkpt><trkpt lat="45.522359591374965" lon="3.0807786657865375"><ele>794.0</ele><time>2026-04-18T08:45:43.999Z</time></trkpt><trkpt lat="45.522337168596415" lon="3.0809487627593337"><ele>792.5</ele><time>2026-04-18T08:45:44.999Z</time></trkpt><trkpt lat="45.52231037392275" lon="3.081139387182992"><ele>791.0</ele><time>2026-04-18T08:45:45.999Z</time></trkpt><trkpt lat="45.522285791424544" lon="3.0813228929276377"><ele>791.0</ele><time>2026-04-18T08:45:46.999Z</time></trkpt><trkpt lat="45.52227919376441" lon="3.0814932889183733"><ele>791.0</ele><time>2026-04-18T08:45:47.999Z</time></trkpt><trkpt lat="45.52228595646906" lon="3.081662002631644"><ele>791.0</ele><time>2026-04-18T08:45:48.999Z</time></trkpt><trkpt lat="45.52230555959893" lon="3.081830334282655"><ele>791.0</ele><time>2026-04-18T08:45:49.999Z</time></trkpt><trkpt lat="45.52232813697771" lon="3.0819822281486133"><ele>790.3333333333334</ele><time>2026-04-18T08:45:50.999Z</time></trkpt><trkpt lat="45.522351974355736" lon="3.0821326202338257"><ele>789.6666666666667</ele><time>2026-04-18T08:45:51.999Z</time></trkpt><trkpt lat="45.52236339988855" lon="3.082262865618856"><ele>789.0</ele><time>2026-04-18T08:45:52.999Z</time></trkpt><trkpt lat="45.52236871740013" lon="3.0823882881020035"><ele>788.3333333333333</ele><time>2026-04-18T08:45:53.999Z</time></trkpt><trkpt lat="45.52237145995387" lon="3.082505768881363"><ele>787.6666666666666</ele><time>2026-04-18T08:45:54.999Z</time></trkpt><trkpt lat="45.52237030815199" lon="3.0826159591929594"><ele>787.0</ele><time>2026-04-18T08:45:55.999Z</time></trkpt><trkpt lat="45.52236650802289" lon="3.0827126932449715"><ele>786.9999999999999</ele><time>2026-04-18T08:45:56.999Z</time></trkpt><trkpt lat="45.52235518907473" lon="3.08281756139716"><ele>787.0</ele><time>2026-04-18T08:45:58.999Z</time></trkpt><trkpt lat="45.52239575725491" lon="3.0827244813947443"><ele>787.0</ele><time>2026-04-18T08:47:32Z</time></trkpt><trkpt lat="45.52240005417972" lon="3.082544855279741"><ele>787.0</ele><time>2026-04-18T08:47:34Z</time></trkpt><trkpt lat="45.5223966780329" lon="3.0824480318950345"><ele>786.9999999999999</ele><time>2026-04-18T08:47:35Z</time></trkpt><trkpt lat="45.52239239888121" lon="3.0823221115733888"><ele>787.0</ele><time>2026-04-18T08:47:36Z</time></trkpt><trkpt lat="45.52238591330261" lon="3.0821921274185953"><ele>787.0</ele><time>2026-04-18T08:47:37Z</time></trkpt><trkpt lat="45.52237361390775" lon="3.0820728672322124"><ele>787.0</ele><time>2026-04-18T08:47:38Z</time></trkpt><trkpt lat="45.522356541083525" lon="3.0819363974017797"><ele>787.0</ele><time>2026-04-18T08:47:39Z</time></trkpt><trkpt lat="45.5223358116273" lon="3.0817849539028543"><ele>787.0</ele><time>2026-04-18T08:47:40Z</time></trkpt><trkpt lat="45.522317703204735" lon="3.081648842953927"><ele>787.0</ele><time>2026-04-18T08:47:41Z</time></trkpt><trkpt lat="45.522304542890275" lon="3.0815198807751982"><ele>787.8</ele><time>2026-04-18T08:47:42Z</time></trkpt><trkpt lat="45.52229997245739" lon="3.08139327833639"><ele>788.6</ele><time>2026-04-18T08:47:43Z</time></trkpt><trkpt lat="45.522303362781564" lon="3.081269060391332"><ele>789.4</ele><time>2026-04-18T08:47:44Z</time></trkpt><trkpt lat="45.522315255746314" lon="3.08114603255915"><ele>790.1999999999999</ele><time>2026-04-18T08:47:45Z</time></trkpt><trkpt lat="45.52233209717432" lon="3.0810187889577016"><ele>791.0</ele><time>2026-04-18T08:47:46Z</time></trkpt><trkpt lat="45.522350292083765" lon="3.080881814441941"><ele>792.1999999999999</ele><time>2026-04-18T08:47:47Z</time></trkpt><trkpt lat="45.522367782236394" lon="3.0807274728805054"><ele>793.4</ele><time>2026-04-18T08:47:48Z</time></trkpt><trkpt lat="45.522382372391206" lon="3.080592013360277"><ele>794.6</ele><time>2026-04-18T08:47:49Z</time></trkpt><trkpt lat="45.52239184647348" lon="3.0804530401985026"><ele>795.8</ele><time>2026-04-18T08:47:50Z</time></trkpt><trkpt lat="45.522390923232784" lon="3.080315792270957"><ele>797.0</ele><time>2026-04-18T08:47:51Z</time></trkpt><trkpt lat="45.522381496127046" lon="3.0801720375846697"><ele>797.0</ele><time>2026-04-18T08:47:52Z</time></trkpt><trkpt lat="45.52236725474298" lon="3.0800244149119975"><ele>797.0</ele><time>2026-04-18T08:47:53Z</time></trkpt><trkpt lat="45.52235084417002" lon="3.0798770129911173"><ele>797.0</ele><time>2026-04-18T08:47:54Z</time></trkpt><trkpt lat="45.522346873206196" lon="3.0797243943810706"><ele>797.0</ele><time>2026-04-18T08:47:55Z</time></trkpt><trkpt lat="45.52235818355656" lon="3.0795564606668213"><ele>797.0</ele><time>2026-04-18T08:47:56Z</time></trkpt><trkpt lat="45.5223640098132" lon="3.079386356318945"><ele>799.0</ele><time>2026-04-18T08:47:57Z</time></trkpt><trkpt lat="45.522354044344084" lon="3.0792148355691924"><ele>801.0</ele><time>2026-04-18T08:47:58Z</time></trkpt><trkpt lat="45.52232573620016" lon="3.0790516082955133"><ele>803.0</ele><time>2026-04-18T08:47:59Z</time></trkpt><trkpt lat="45.522282759503916" lon="3.0788772611794037"><ele>805.0</ele><time>2026-04-18T08:48:00Z</time></trkpt><trkpt lat="45.52223596102134" lon="3.078701881721873"><ele>804.75</ele><time>2026-04-18T08:48:01Z</time></trkpt><trkpt lat="45.52218997700783" lon="3.078531739304436"><ele>804.5</ele><time>2026-04-18T08:48:02Z</time></trkpt><trkpt lat="45.52214404154188" lon="3.0783611640497317"><ele>804.25</ele><time>2026-04-18T08:48:03Z</time></trkpt><trkpt lat="45.522098573305456" lon="3.078194236815825"><ele>804.0</ele><time>2026-04-18T08:48:04Z</time></trkpt><trkpt lat="45.52205587600644" lon="3.0780256195150413"><ele>804.0</ele><time>2026-04-18T08:48:05Z</time></trkpt><trkpt lat="45.52201561433615" lon="3.0778554395517377"><ele>804.0</ele><time>2026-04-18T08:48:06Z</time></trkpt><trkpt lat="45.52197621644785" lon="3.0776721619291547"><ele>804.0</ele><time>2026-04-18T08:48:07Z</time></trkpt><trkpt lat="45.521943845604945" lon="3.077482661224341"><ele>804.0</ele><time>2026-04-18T08:48:08Z</time></trkpt><trkpt lat="45.52191520253613" lon="3.077291265872681"><ele>806.25</ele><time>2026-04-18T08:48:08.999Z</time></trkpt><trkpt lat="45.52188636040265" lon="3.077092330564937"><ele>808.5</ele><time>2026-04-18T08:48:09.999Z</time></trkpt><trkpt lat="45.521845609547306" lon="3.0769009349576972"><ele>810.75</ele><time>2026-04-18T08:48:10.999Z</time></trkpt><trkpt lat="45.521793134678674" lon="3.0767086573632887"><ele>813.0</ele><time>2026-04-18T08:48:11.999Z</time></trkpt><trkpt lat="45.521737671378304" lon="3.076513937164773"><ele>817.25</ele><time>2026-04-18T08:48:12.999Z</time></trkpt><trkpt lat="45.521683582730795" lon="3.076328491342217"><ele>821.5</ele><time>2026-04-18T08:48:13.999Z</time></trkpt><trkpt lat="45.52161691813476" lon="3.076154946250322"><ele>825.75</ele><time>2026-04-18T08:48:14.999Z</time></trkpt><trkpt lat="45.521538971620636" lon="3.0759783121587128"><ele>830.0</ele><time>2026-04-18T08:48:15.999Z</time></trkpt><trkpt lat="45.521454854614" lon="3.075795006189291"><ele>826.3333333333334</ele><time>2026-04-18T08:48:16.999Z</time></trkpt><trkpt lat="45.52137906367278" lon="3.0756146997963487"><ele>822.6666666666667</ele><time>2026-04-18T08:48:17.999Z</time></trkpt><trkpt lat="45.5213011344714" lon="3.0754296436204496"><ele>819.0</ele><time>2026-04-18T08:48:18.999Z</time></trkpt><trkpt lat="45.521219094207034" lon="3.0752447604770996"><ele>819.0</ele><time>2026-04-18T08:48:19.999Z</time></trkpt><trkpt lat="45.52114267828601" lon="3.0750666125394632"><ele>819.0</ele><time>2026-04-18T08:48:20.999Z</time></trkpt><trkpt lat="45.52106345976027" lon="3.0748796837744488"><ele>819.0</ele><time>2026-04-18T08:48:21.999Z</time></trkpt><trkpt lat="45.5209847903176" lon="3.0746940629171435"><ele>822.5</ele><time>2026-04-18T08:48:22.999Z</time></trkpt><trkpt lat="45.520912174190485" lon="3.0745154137581867"><ele>826.0</ele><time>2026-04-18T08:48:23.999Z</time></trkpt><trkpt lat="45.520847510946744" lon="3.0743350544878547"><ele>829.5</ele><time>2026-04-18T08:48:24.999Z</time></trkpt><trkpt lat="45.520788144083966" lon="3.074156130227754"><ele>833.0</ele><time>2026-04-18T08:48:25.999Z</time></trkpt><trkpt lat="45.52073832446764" lon="3.0739630111865033"><ele>835.25</ele><time>2026-04-18T08:48:26.999Z</time></trkpt><trkpt lat="45.52069866631057" lon="3.073761017983928"><ele>837.5</ele><time>2026-04-18T08:48:27.999Z</time></trkpt><trkpt lat="45.520675771888484" lon="3.073559901716363"><ele>839.75</ele><time>2026-04-18T08:48:28.999Z</time></trkpt><trkpt lat="45.52066101681278" lon="3.0733509207761656"><ele>842.0</ele><time>2026-04-18T08:48:29.999Z</time></trkpt><trkpt lat="45.520647678923154" lon="3.0731331489343727"><ele>843.0</ele><time>2026-04-18T08:48:30.999Z</time></trkpt><trkpt lat="45.5206289372656" lon="3.0729099815685297"><ele>844.0</ele><time>2026-04-18T08:48:31.999Z</time></trkpt><trkpt lat="45.52061057079793" lon="3.072691908731892"><ele>845.0</ele><time>2026-04-18T08:48:32.999Z</time></trkpt><trkpt lat="45.520595355182934" lon="3.0724754918960175"><ele>847.6666666666667</ele><time>2026-04-18T08:48:33.999Z</time></trkpt><trkpt lat="45.520577145057224" lon="3.07225599671685"><ele>850.3333333333333</ele><time>2026-04-18T08:48:34.999Z</time></trkpt><trkpt lat="45.520559540845184" lon="3.072043697600358"><ele>853.0</ele><time>2026-04-18T08:48:35.999Z</time></trkpt><trkpt lat="45.5205400438243" lon="3.0718244864962"><ele>853.0</ele><time>2026-04-18T08:48:36.999Z</time></trkpt><trkpt lat="45.520512881995266" lon="3.07161480879373"><ele>853.0</ele><time>2026-04-18T08:48:37.999Z</time></trkpt><trkpt lat="45.520478413607314" lon="3.071430146386281"><ele>853.0</ele><time>2026-04-18T08:48:38.999Z</time></trkpt><trkpt lat="45.52042700220931" lon="3.0712580697219485"><ele>853.0</ele><time>2026-04-18T08:48:39.999Z</time></trkpt><trkpt lat="45.520365298381996" lon="3.07107555561265"><ele>853.25</ele><time>2026-04-18T08:48:40.999Z</time></trkpt><trkpt lat="45.52029838261949" lon="3.0708835273878865"><ele>853.5</ele><time>2026-04-18T08:48:41.999Z</time></trkpt><trkpt lat="45.52023697204559" lon="3.07069044420484"><ele>853.75</ele><time>2026-04-18T08:48:43Z</time></trkpt><trkpt lat="45.52019703306268" lon="3.0705003289550272"><ele>854.0</ele><time>2026-04-18T08:48:44Z</time></trkpt><trkpt lat="45.52018350131008" lon="3.070330127201902"><ele>854.0</ele><time>2026-04-18T08:48:45Z</time></trkpt><trkpt lat="45.52017567275454" lon="3.0701828555558"><ele>854.0000000000001</ele><time>2026-04-18T08:48:46Z</time></trkpt><trkpt lat="45.520148311335205" lon="3.0700499131562924"><ele>854.0000000000001</ele><time>2026-04-18T08:48:47Z</time></trkpt><trkpt lat="45.520092077564605" lon="3.0699297821299294"><ele>854.0</ele><time>2026-04-18T08:48:48Z</time></trkpt><trkpt lat="45.52001747755008" lon="3.0698284712736568"><ele>854.0</ele><time>2026-04-18T08:48:49Z</time></trkpt><trkpt lat="45.519932827977" lon="3.0697496404234688"><ele>854.8000000000001</ele><time>2026-04-18T08:48:50Z</time></trkpt><trkpt lat="45.51984203845828" lon="3.0696821103048224"><ele>855.6000000000001</ele><time>2026-04-18T08:48:51Z</time></trkpt><trkpt lat="45.51975982090994" lon="3.0695886960386525"><ele>856.4</ele><time>2026-04-18T08:48:52Z</time></trkpt><trkpt lat="45.51969051029868" lon="3.0694582141473865"><ele>857.2</ele><time>2026-04-18T08:48:53Z</time></trkpt><trkpt lat="45.51964237372651" lon="3.0693313135655993"><ele>858.0</ele><time>2026-04-18T08:48:54Z</time></trkpt><trkpt lat="45.519605832503686" lon="3.0692309710752"><ele>857.8333333333334</ele><time>2026-04-18T08:48:55Z</time></trkpt><trkpt lat="45.51956430147592" lon="3.0691482920387587"><ele>857.6666666666667</ele><time>2026-04-18T08:48:56Z</time></trkpt><trkpt lat="45.51951700702294" lon="3.069078316375432"><ele>857.5</ele><time>2026-04-18T08:48:57Z</time></trkpt><trkpt lat="45.51946571428014" lon="3.069022635577586"><ele>857.3333333333334</ele><time>2026-04-18T08:48:58Z</time></trkpt><trkpt lat="45.519349737120045" lon="3.0689488038438433"><ele>857.1666666666667</ele><time>2026-04-18T08:49:00Z</time></trkpt><trkpt lat="45.51927746746596" lon="3.0689426490412766"><ele>857.0</ele><time>2026-04-18T08:49:02Z</time></trkpt><trkpt lat="45.51917920649235" lon="3.068975416610122"><ele>855.8333333333334</ele><time>2026-04-18T08:49:14Z</time></trkpt><trkpt lat="45.51906253067776" lon="3.0690003853508037"><ele>854.6666666666667</ele><time>2026-04-18T08:49:16Z</time></trkpt><trkpt lat="45.5189963299254" lon="3.0690123495211097"><ele>853.5</ele><time>2026-04-18T08:49:17Z</time></trkpt><trkpt lat="45.5189286920456" lon="3.069023123268523"><ele>852.3333333333333</ele><time>2026-04-18T08:49:18Z</time></trkpt><trkpt lat="45.51885864911667" lon="3.0690519525568054"><ele>851.1666666666666</ele><time>2026-04-18T08:49:19Z</time></trkpt><trkpt lat="45.51879179530074" lon="3.0691085277684595"><ele>850.0</ele><time>2026-04-18T08:49:20Z</time></trkpt><trkpt lat="45.51873083732684" lon="3.069188269725555"><ele>853.0</ele><time>2026-04-18T08:49:21Z</time></trkpt><trkpt lat="45.51868671972339" lon="3.069289672100802"><ele>856.0</ele><time>2026-04-18T08:49:22Z</time></trkpt><trkpt lat="45.51866252749658" lon="3.069412648792113"><ele>859.0</ele><time>2026-04-18T08:49:23Z</time></trkpt><trkpt lat="45.518645432103284" lon="3.06954655848958"><ele>862.0</ele><time>2026-04-18T08:49:24Z</time></trkpt><trkpt lat="45.518623561169875" lon="3.069702121621191"><ele>865.0</ele><time>2026-04-18T08:49:25Z</time></trkpt><trkpt lat="45.51858916392626" lon="3.0698458022391564"><ele>866.0</ele><time>2026-04-18T08:49:26Z</time></trkpt><trkpt lat="45.5185427729875" lon="3.069994997852622"><ele>867.0</ele><time>2026-04-18T08:49:27Z</time></trkpt><trkpt lat="45.51848611220375" lon="3.070149169302091"><ele>868.0</ele><time>2026-04-18T08:49:28Z</time></trkpt><trkpt lat="45.51842370641051" lon="3.0703071527813655"><ele>869.0</ele><time>2026-04-18T08:49:29Z</time></trkpt><trkpt lat="45.518360944630516" lon="3.070466791846342"><ele>869.0</ele><time>2026-04-18T08:49:30Z</time></trkpt><trkpt lat="45.51830545174655" lon="3.070609708215092"><ele>869.0000000000001</ele><time>2026-04-18T08:49:31Z</time></trkpt><trkpt lat="45.51825748063714" lon="3.070724355913055"><ele>869.0000000000001</ele><time>2026-04-18T08:49:32Z</time></trkpt><trkpt lat="45.51820604108336" lon="3.0708142995367163"><ele>869.0</ele><time>2026-04-18T08:49:33Z</time></trkpt><trkpt lat="45.51814644605276" lon="3.0708894619205633"><ele>869.0</ele><time>2026-04-18T08:49:34Z</time></trkpt><trkpt lat="45.51807544071774" lon="3.070956761833049"><ele>869.4000000000001</ele><time>2026-04-18T08:49:35Z</time></trkpt><trkpt lat="45.51799294571436" lon="3.070994337902255"><ele>869.8000000000001</ele><time>2026-04-18T08:49:36Z</time></trkpt><trkpt lat="45.517902328122815" lon="3.0710049285537946"><ele>870.1999999999999</ele><time>2026-04-18T08:49:37Z</time></trkpt><trkpt lat="45.5178058930009" lon="3.0709957018647778"><ele>870.5999999999999</ele><time>2026-04-18T08:49:38Z</time></trkpt><trkpt lat="45.517690988143194" lon="3.070973232817555"><ele>871.0</ele><time>2026-04-18T08:49:39Z</time></trkpt><trkpt lat="45.517555048985066" lon="3.0709465168792494"><ele>874.0</ele><time>2026-04-18T08:49:40Z</time></trkpt><trkpt lat="45.51739551688317" lon="3.0709185687977927"><ele>877.0</ele><time>2026-04-18T08:49:41Z</time></trkpt><trkpt lat="45.51721636596293" lon="3.0708786960126684"><ele>880.0</ele><time>2026-04-18T08:49:42Z</time></trkpt><trkpt lat="45.51706079145989" lon="3.0708573908841057"><ele>881.5</ele><time>2026-04-18T08:49:43Z</time></trkpt><trkpt lat="45.516922876570135" lon="3.0708701158474065"><ele>883.0</ele><time>2026-04-18T08:49:44Z</time></trkpt><trkpt lat="45.516785939306764" lon="3.0709066961748683"><ele>884.5</ele><time>2026-04-18T08:49:45Z</time></trkpt><trkpt lat="45.5166522793932" lon="3.070964162515885"><ele>886.0</ele><time>2026-04-18T08:49:46Z</time></trkpt><trkpt lat="45.5165276846797" lon="3.0710665613178274"><ele>886.0</ele><time>2026-04-18T08:49:47Z</time></trkpt><trkpt lat="45.51641608181607" lon="3.071196790133802"><ele>886.0</ele><time>2026-04-18T08:49:48Z</time></trkpt><trkpt lat="45.51631368403253" lon="3.071341814250412"><ele>886.0</ele><time>2026-04-18T08:49:49Z</time></trkpt><trkpt lat="45.51621331541869" lon="3.071490493923393"><ele>886.0</ele><time>2026-04-18T08:49:50Z</time></trkpt><trkpt lat="45.516114254258774" lon="3.0716351830963724"><ele>887.0</ele><time>2026-04-18T08:49:51Z</time></trkpt><trkpt lat="45.516012448673266" lon="3.071769264913471"><ele>888.0</ele><time>2026-04-18T08:49:52Z</time></trkpt><trkpt lat="45.515907264015524" lon="3.0718921751314765"><ele>889.0</ele><time>2026-04-18T08:49:53Z</time></trkpt><trkpt lat="45.515792999879984" lon="3.0719982553936527"><ele>890.0</ele><time>2026-04-18T08:49:54Z</time></trkpt><trkpt lat="45.51566750833237" lon="3.0720993937964627"><ele>890.0</ele><time>2026-04-18T08:49:55Z</time></trkpt><trkpt lat="45.51553886254471" lon="3.072198389745351"><ele>890.0</ele><time>2026-04-18T08:49:56Z</time></trkpt><trkpt lat="45.51541422254609" lon="3.0723015348713485"><ele>890.0</ele><time>2026-04-18T08:49:57Z</time></trkpt><trkpt lat="45.515291031876544" lon="3.0724071513722344"><ele>890.0</ele><time>2026-04-18T08:49:58Z</time></trkpt><trkpt lat="45.51516918717778" lon="3.0725263336921644"><ele>892.75</ele><time>2026-04-18T08:49:59Z</time></trkpt><trkpt lat="45.515059545847954" lon="3.0726627481365885"><ele>895.5</ele><time>2026-04-18T08:50:00Z</time></trkpt><trkpt lat="45.514956694925914" lon="3.0728237718180442"><ele>898.25</ele><time>2026-04-18T08:50:01Z</time></trkpt><trkpt lat="45.5148643278917" lon="3.0729856683681267"><ele>901.0</ele><time>2026-04-18T08:50:02Z</time></trkpt><trkpt lat="45.514765453903564" lon="3.0731164933237145"><ele>901.0</ele><time>2026-04-18T08:50:03Z</time></trkpt><trkpt lat="45.514651480012525" lon="3.073230876458324"><ele>901.0</ele><time>2026-04-18T08:50:04Z</time></trkpt><trkpt lat="45.5145378677338" lon="3.07330403793507"><ele>901.0</ele><time>2026-04-18T08:50:05Z</time></trkpt><trkpt lat="45.51440852432203" lon="3.0733517922038605"><ele>901.0</ele><time>2026-04-18T08:50:06Z</time></trkpt><trkpt lat="45.51427753575641" lon="3.073385710773789"><ele>902.5</ele><time>2026-04-18T08:50:07Z</time></trkpt><trkpt lat="45.51414788063382" lon="3.0734157444557315"><ele>904.0</ele><time>2026-04-18T08:50:08Z</time></trkpt><trkpt lat="45.51401769949841" lon="3.0734681574785436"><ele>905.5</ele><time>2026-04-18T08:50:09Z</time></trkpt><trkpt lat="45.51389717704471" lon="3.0735514533314308"><ele>907.0</ele><time>2026-04-18T08:50:10Z</time></trkpt><trkpt lat="45.51377985571866" lon="3.0736492810076914"><ele>911.25</ele><time>2026-04-18T08:50:11Z</time></trkpt><trkpt lat="45.513657998559154" lon="3.07375937649967"><ele>915.5</ele><time>2026-04-18T08:50:12Z</time></trkpt><trkpt lat="45.5135372051826" lon="3.0738602408482225"><ele>919.75</ele><time>2026-04-18T08:50:13Z</time></trkpt><trkpt lat="45.51339613516896" lon="3.0739522124947802"><ele>924.0</ele><time>2026-04-18T08:50:14Z</time></trkpt><trkpt lat="45.51324549129554" lon="3.074031495080237"><ele>927.6666666666667</ele><time>2026-04-18T08:50:15Z</time></trkpt><trkpt lat="45.51309541405243" lon="3.0741334513783123"><ele>931.3333333333334</ele><time>2026-04-18T08:50:16Z</time></trkpt><trkpt lat="45.51298354471863" lon="3.074264232879961"><ele>935.0</ele><time>2026-04-18T08:50:17Z</time></trkpt><trkpt lat="45.51289361366938" lon="3.074422418649883"><ele>935.0</ele><time>2026-04-18T08:50:18Z</time></trkpt><trkpt lat="45.51279901319876" lon="3.0746101691677654"><ele>935.0</ele><time>2026-04-18T08:50:19Z</time></trkpt><trkpt lat="45.512714823159605" lon="3.074817413307264"><ele>935.0</ele><time>2026-04-18T08:50:20Z</time></trkpt><trkpt lat="45.5126399398379" lon="3.0750511566449927"><ele>933.0</ele><time>2026-04-18T08:50:21Z</time></trkpt><trkpt lat="45.51257887315839" lon="3.0752422468901095"><ele>931.0</ele><time>2026-04-18T08:50:22Z</time></trkpt><trkpt lat="45.51253829574678" lon="3.0754046538052857"><ele>929.0</ele><time>2026-04-18T08:50:23Z</time></trkpt><trkpt lat="45.51247998618049" lon="3.075546109174804"><ele>927.0</ele><time>2026-04-18T08:50:24Z</time></trkpt><trkpt lat="45.51240101948528" lon="3.0756362477187906"><ele>927.0</ele><time>2026-04-18T08:50:25Z</time></trkpt><trkpt lat="45.5123093520273" lon="3.075722194777342"><ele>927.0</ele><time>2026-04-18T08:50:26Z</time></trkpt><trkpt lat="45.51221752469577" lon="3.0758412044000973"><ele>927.0</ele><time>2026-04-18T08:50:27Z</time></trkpt><trkpt lat="45.512144898558134" lon="3.0759382492656733"><ele>927.0</ele><time>2026-04-18T08:50:28Z</time></trkpt><trkpt lat="45.51210552978282" lon="3.0760481298601974"><ele>927.0</ele><time>2026-04-18T08:50:28.999Z</time></trkpt><trkpt lat="45.512129277460446" lon="3.0761772803811276"><ele>925.6</ele><time>2026-04-18T08:50:29.999Z</time></trkpt><trkpt lat="45.512146664599044" lon="3.076309316381685"><ele>924.2</ele><time>2026-04-18T08:50:30.999Z</time></trkpt><trkpt lat="45.51220777736199" lon="3.0764331471068984"><ele>922.8</ele><time>2026-04-18T08:50:31.999Z</time></trkpt><trkpt lat="45.512261264336914" lon="3.0765514452282736"><ele>921.4</ele><time>2026-04-18T08:50:32.999Z</time></trkpt><trkpt lat="45.51228526298118" lon="3.0766884496013542"><ele>920.0</ele><time>2026-04-18T08:50:33.999Z</time></trkpt><trkpt lat="45.5122847650764" lon="3.0768291835079995"><ele>920.0</ele><time>2026-04-18T08:50:34.999Z</time></trkpt><trkpt lat="45.51227646988424" lon="3.0769730164390094"><ele>920.0</ele><time>2026-04-18T08:50:35.999Z</time></trkpt><trkpt lat="45.51226104400447" lon="3.077124066399324"><ele>920.0</ele><time>2026-04-18T08:50:36.999Z</time></trkpt><trkpt lat="45.51224265079586" lon="3.077277228996297"><ele>920.0</ele><time>2026-04-18T08:50:37.999Z</time></trkpt><trkpt lat="45.51222144506428" lon="3.0774289862362205"><ele>920.0</ele><time>2026-04-18T08:50:38.999Z</time></trkpt><trkpt lat="45.51220049252758" lon="3.077587382562287"><ele>920.5</ele><time>2026-04-18T08:50:39.999Z</time></trkpt><trkpt lat="45.51218208730919" lon="3.077751228591516"><ele>921.0</ele><time>2026-04-18T08:50:40.999Z</time></trkpt><trkpt lat="45.51216938219175" lon="3.0779127740794494"><ele>921.5</ele><time>2026-04-18T08:50:41.999Z</time></trkpt><trkpt lat="45.5121639428419" lon="3.0780949813657434"><ele>922.0</ele><time>2026-04-18T08:50:42.999Z</time></trkpt><trkpt lat="45.512165424357875" lon="3.0782683185926194"><ele>922.25</ele><time>2026-04-18T08:50:43.999Z</time></trkpt><trkpt lat="45.51216572863405" lon="3.078438577843758"><ele>922.5</ele><time>2026-04-18T08:50:44.999Z</time></trkpt><trkpt lat="45.512175274494325" lon="3.0785996549415944"><ele>922.75</ele><time>2026-04-18T08:50:45.999Z</time></trkpt><trkpt lat="45.51215313951704" lon="3.0787522106638825"><ele>923.0</ele><time>2026-04-18T08:50:46.999Z</time></trkpt><trkpt lat="45.51214107907118" lon="3.0789262092867373"><ele>923.0</ele><time>2026-04-18T08:50:47.999Z</time></trkpt><trkpt lat="45.5121391079936" lon="3.0790925625612036"><ele>923.0</ele><time>2026-04-18T08:50:49Z</time></trkpt><trkpt lat="45.51210407550668" lon="3.0792434685481607"><ele>923.0</ele><time>2026-04-18T08:50:50Z</time></trkpt><trkpt lat="45.5120670696109" lon="3.079398773316647"><ele>923.0</ele><time>2026-04-18T08:50:51Z</time></trkpt><trkpt lat="45.51200618300473" lon="3.079535297153873"><ele>927.5</ele><time>2026-04-18T08:50:52Z</time></trkpt><trkpt lat="45.511943126471365" lon="3.07967797344366"><ele>932.0</ele><time>2026-04-18T08:50:53Z</time></trkpt><trkpt lat="45.511885223715986" lon="3.079818112928018"><ele>936.5</ele><time>2026-04-18T08:50:54Z</time></trkpt><trkpt lat="45.511829250093406" lon="3.079966579974106"><ele>941.0</ele><time>2026-04-18T08:50:55Z</time></trkpt><trkpt lat="45.51178271779017" lon="3.080109949198381"><ele>941.0</ele><time>2026-04-18T08:50:56Z</time></trkpt><trkpt lat="45.51175974603775" lon="3.080267518535177"><ele>941.0</ele><time>2026-04-18T08:50:57Z</time></trkpt><trkpt lat="45.511715705669594" lon="3.0804095288253026"><ele>941.0</ele><time>2026-04-18T08:50:58Z</time></trkpt><trkpt lat="45.511671549846895" lon="3.0805684518074408"><ele>941.0</ele><time>2026-04-18T08:50:59Z</time></trkpt><trkpt lat="45.511630848941714" lon="3.080725614330542"><ele>940.25</ele><time>2026-04-18T08:51:00Z</time></trkpt><trkpt lat="45.5115784754427" lon="3.0808905455544813"><ele>939.5</ele><time>2026-04-18T08:51:01Z</time></trkpt><trkpt lat="45.511513330936744" lon="3.081035140955647"><ele>938.75</ele><time>2026-04-18T08:51:02Z</time></trkpt><trkpt lat="45.51147058843748" lon="3.081205846371059"><ele>938.0</ele><time>2026-04-18T08:51:03Z</time></trkpt><trkpt lat="45.511390369113855" lon="3.0813607534677327"><ele>938.0</ele><time>2026-04-18T08:51:04Z</time></trkpt><trkpt lat="45.51129987777555" lon="3.0815182097670073"><ele>938.0</ele><time>2026-04-18T08:51:05Z</time></trkpt><trkpt lat="45.511185375363425" lon="3.0816715995725397"><ele>938.0</ele><time>2026-04-18T08:51:06Z</time></trkpt><trkpt lat="45.51102514568181" lon="3.0818561913350693"><ele>940.6666666666667</ele><time>2026-04-18T08:51:07Z</time></trkpt><trkpt lat="45.51087269586234" lon="3.082018700927437"><ele>943.3333333333333</ele><time>2026-04-18T08:51:08Z</time></trkpt><trkpt lat="45.51074509804473" lon="3.0821559552343074"><ele>946.0</ele><time>2026-04-18T08:51:09Z</time></trkpt><trkpt lat="45.51061221653509" lon="3.0822988931085322"><ele>946.3333333333333</ele><time>2026-04-18T08:51:10Z</time></trkpt><trkpt lat="45.51048376612375" lon="3.082435723774583"><ele>946.6666666666667</ele><time>2026-04-18T08:51:11Z</time></trkpt><trkpt lat="45.51035227037621" lon="3.0825764052692386"><ele>947.0</ele><time>2026-04-18T08:51:12Z</time></trkpt><trkpt lat="45.51022442978214" lon="3.082720543424122"><ele>947.0</ele><time>2026-04-18T08:51:13Z</time></trkpt><trkpt lat="45.51009167966475" lon="3.0828918234941125"><ele>947.0</ele><time>2026-04-18T08:51:14Z</time></trkpt><trkpt lat="45.50998644897596" lon="3.0830861572886477"><ele>947.0</ele><time>2026-04-18T08:51:15Z</time></trkpt><trkpt lat="45.50987683903301" lon="3.0832671821505335"><ele>947.0</ele><time>2026-04-18T08:51:16Z</time></trkpt><trkpt lat="45.509755748214346" lon="3.083471902413"><ele>947.0</ele><time>2026-04-18T08:51:17Z</time></trkpt><trkpt lat="45.509628981726486" lon="3.083619372741402"><ele>947.0</ele><time>2026-04-18T08:51:18Z</time></trkpt><trkpt lat="45.50951209496056" lon="3.0837520083451384"><ele>948.3333333333334</ele><time>2026-04-18T08:51:19Z</time></trkpt><trkpt lat="45.50938337250398" lon="3.083868408963884"><ele>949.6666666666667</ele><time>2026-04-18T08:51:20Z</time></trkpt><trkpt lat="45.509244922988145" lon="3.083961627300691"><ele>951.0</ele><time>2026-04-18T08:51:21Z</time></trkpt><trkpt lat="45.50909616272949" lon="3.084021142424725"><ele>951.0</ele><time>2026-04-18T08:51:22Z</time></trkpt><trkpt lat="45.508933471899326" lon="3.0840614189172175"><ele>951.0</ele><time>2026-04-18T08:51:23Z</time></trkpt><trkpt lat="45.50875921941195" lon="3.084102997456765"><ele>951.0</ele><time>2026-04-18T08:51:24Z</time></trkpt><trkpt lat="45.508568434872004" lon="3.084163897630423"><ele>951.0</ele><time>2026-04-18T08:51:25Z</time></trkpt><trkpt lat="45.50837778576653" lon="3.084239602378089"><ele>951.0</ele><time>2026-04-18T08:51:26Z</time></trkpt><trkpt lat="45.50820219333775" lon="3.0842991872020584"><ele>951.0</ele><time>2026-04-18T08:51:27Z</time></trkpt><trkpt lat="45.5080520686128" lon="3.084320907752458"><ele>951.0</ele><time>2026-04-18T08:51:28Z</time></trkpt><trkpt lat="45.50790195026412" lon="3.0843308406658996"><ele>951.0</ele><time>2026-04-18T08:51:29Z</time></trkpt><trkpt lat="45.507761409085084" lon="3.084321816480885"><ele>951.0</ele><time>2026-04-18T08:51:30Z</time></trkpt><trkpt lat="45.50761999671614" lon="3.0842884686702465"><ele>951.0</ele><time>2026-04-18T08:51:31Z</time></trkpt><trkpt lat="45.507483955745975" lon="3.0842212317008566"><ele>951.0</ele><time>2026-04-18T08:51:32Z</time></trkpt><trkpt lat="45.50735482138368" lon="3.0841240172101636"><ele>951.0</ele><time>2026-04-18T08:51:33Z</time></trkpt><trkpt lat="45.507220200177976" lon="3.084009210046403"><ele>951.0</ele><time>2026-04-18T08:51:34Z</time></trkpt><trkpt lat="45.50709947310599" lon="3.0838654540322517"><ele>952.0</ele><time>2026-04-18T08:51:35Z</time></trkpt><trkpt lat="45.50697663819588" lon="3.0837120429471163"><ele>953.0</ele><time>2026-04-18T08:51:36Z</time></trkpt><trkpt lat="45.50684946048564" lon="3.0835504693303704"><ele>954.0</ele><time>2026-04-18T08:51:37Z</time></trkpt><trkpt lat="45.506720119385974" lon="3.083416094407553"><ele>954.0</ele><time>2026-04-18T08:51:38Z</time></trkpt><trkpt lat="45.5065917246463" lon="3.0832838790941066"><ele>954.0</ele><time>2026-04-18T08:51:39Z</time></trkpt><trkpt lat="45.50645099555924" lon="3.083186078941561"><ele>954.0</ele><time>2026-04-18T08:51:40Z</time></trkpt><trkpt lat="45.50631342524355" lon="3.083112713022588"><ele>954.0</ele><time>2026-04-18T08:51:41Z</time></trkpt><trkpt lat="45.50619115999103" lon="3.0830174984836125"><ele>954.0</ele><time>2026-04-18T08:51:42Z</time></trkpt><trkpt lat="45.50607586861012" lon="3.0829190152199724"><ele>954.0</ele><time>2026-04-18T08:51:43Z</time></trkpt><trkpt lat="45.50596477015341" lon="3.082809324990459"><ele>954.0</ele><time>2026-04-18T08:51:44Z</time></trkpt><trkpt lat="45.50583414569768" lon="3.0827053002771088"><ele>954.0</ele><time>2026-04-18T08:51:45Z</time></trkpt><trkpt lat="45.5057109836582" lon="3.082584695298684"><ele>954.0</ele><time>2026-04-18T08:51:46Z</time></trkpt><trkpt lat="45.50557977594905" lon="3.0824947245304912"><ele>954.0</ele><time>2026-04-18T08:51:47Z</time></trkpt><trkpt lat="45.50545680970218" lon="3.082432754580126"><ele>954.0</ele><time>2026-04-18T08:51:48Z</time></trkpt><trkpt lat="45.50533756810871" lon="3.082356924201459"><ele>953.5</ele><time>2026-04-18T08:51:49Z</time></trkpt><trkpt lat="45.50521256674985" lon="3.0822991887662448"><ele>953.0</ele><time>2026-04-18T08:51:50Z</time></trkpt><trkpt lat="45.50509422000959" lon="3.08222464798939"><ele>952.5</ele><time>2026-04-18T08:51:51Z</time></trkpt><trkpt lat="45.504980080000266" lon="3.082136405277564"><ele>952.0</ele><time>2026-04-18T08:51:52Z</time></trkpt><trkpt lat="45.504873508025" lon="3.082041732632671"><ele>952.0</ele><time>2026-04-18T08:51:53Z</time></trkpt><trkpt lat="45.5047695262276" lon="3.081944342426105"><ele>952.0</ele><time>2026-04-18T08:51:54Z</time></trkpt><trkpt lat="45.50466744833289" lon="3.081844405946705"><ele>952.0</ele><time>2026-04-18T08:51:55Z</time></trkpt><trkpt lat="45.50457406164216" lon="3.0817362191806206"><ele>952.0</ele><time>2026-04-18T08:51:56Z</time></trkpt><trkpt lat="45.504494865727786" lon="3.0816139196351666"><ele>951.4000000000001</ele><time>2026-04-18T08:51:57Z</time></trkpt><trkpt lat="45.504414757545085" lon="3.0814903423827293"><ele>950.8000000000001</ele><time>2026-04-18T08:51:58Z</time></trkpt><trkpt lat="45.50433715684973" lon="3.081387808946859"><ele>950.2</ele><time>2026-04-18T08:51:59Z</time></trkpt><trkpt lat="45.5042592619916" lon="3.081306482953563"><ele>949.6</ele><time>2026-04-18T08:52:00Z</time></trkpt><trkpt lat="45.504177501088236" lon="3.0812369620093167"><ele>949.0</ele><time>2026-04-18T08:52:01Z</time></trkpt><trkpt lat="45.50409059159847" lon="3.0811695005025683"><ele>949.0</ele><time>2026-04-18T08:52:02Z</time></trkpt><trkpt lat="45.503979831877345" lon="3.081204448939313"><ele>949.0000000000001</ele><time>2026-04-18T08:52:03Z</time></trkpt><trkpt lat="45.50388937785021" lon="3.081246031030662"><ele>949.0000000000001</ele><time>2026-04-18T08:52:04Z</time></trkpt><trkpt lat="45.50379767792069" lon="3.0812470673913377"><ele>949.0</ele><time>2026-04-18T08:52:05Z</time></trkpt><trkpt lat="45.503723689387925" lon="3.0812171721845836"><ele>949.0</ele><time>2026-04-18T08:52:06Z</time></trkpt><trkpt lat="45.503654717556714" lon="3.081173546977525"><ele>948.4000000000001</ele><time>2026-04-18T08:52:07Z</time></trkpt><trkpt lat="45.503576664456524" lon="3.0811057257466947"><ele>947.8000000000001</ele><time>2026-04-18T08:52:08Z</time></trkpt><trkpt lat="45.50347732659519" lon="3.081076155711292"><ele>947.1999999999999</ele><time>2026-04-18T08:52:09Z</time></trkpt><trkpt lat="45.503383287256995" lon="3.0810188017701967"><ele>946.5999999999999</ele><time>2026-04-18T08:52:10Z</time></trkpt><trkpt lat="45.50327869923008" lon="3.0809888296486654"><ele>946.0</ele><time>2026-04-18T08:52:11Z</time></trkpt><trkpt lat="45.50317000397554" lon="3.080961501446339"><ele>946.0</ele><time>2026-04-18T08:52:12Z</time></trkpt><trkpt lat="45.503054408483756" lon="3.0809366413818164"><ele>946.0</ele><time>2026-04-18T08:52:13Z</time></trkpt><trkpt lat="45.50294069850884" lon="3.0809212248118234"><ele>946.0</ele><time>2026-04-18T08:52:14Z</time></trkpt><trkpt lat="45.50281764575389" lon="3.080918409930353"><ele>946.0</ele><time>2026-04-18T08:52:15Z</time></trkpt><trkpt lat="45.502697550448524" lon="3.0809229594963754"><ele>944.75</ele><time>2026-04-18T08:52:16Z</time></trkpt><trkpt lat="45.50257215899042" lon="3.0809586443239025"><ele>943.5</ele><time>2026-04-18T08:52:17Z</time></trkpt><trkpt lat="45.50244347697472" lon="3.0809733041119376"><ele>942.25</ele><time>2026-04-18T08:52:18Z</time></trkpt><trkpt lat="45.50231653746953" lon="3.0809835849313103"><ele>941.0</ele><time>2026-04-18T08:52:19Z</time></trkpt><trkpt lat="45.502188911205444" lon="3.0809933589309586"><ele>940.75</ele><time>2026-04-18T08:52:20Z</time></trkpt><trkpt lat="45.502062329922936" lon="3.0809571208356052"><ele>940.5</ele><time>2026-04-18T08:52:21Z</time></trkpt><trkpt lat="45.501936299254425" lon="3.0809632419317583"><ele>940.25</ele><time>2026-04-18T08:52:22Z</time></trkpt><trkpt lat="45.50181291136335" lon="3.080969106147182"><ele>940.0</ele><time>2026-04-18T08:52:23Z</time></trkpt><trkpt lat="45.50169901651834" lon="3.080974978933043"><ele>940.0</ele><time>2026-04-18T08:52:24Z</time></trkpt><trkpt lat="45.501591627311626" lon="3.0809816295198664"><ele>940.0</ele><time>2026-04-18T08:52:25Z</time></trkpt><trkpt lat="45.501488591107815" lon="3.080991801930107"><ele>940.0</ele><time>2026-04-18T08:52:25.999Z</time></trkpt><trkpt lat="45.50138148820523" lon="3.081016322182324"><ele>940.0</ele><time>2026-04-18T08:52:26.999Z</time></trkpt><trkpt lat="45.50127723274718" lon="3.081052133018238"><ele>940.0</ele><time>2026-04-18T08:52:27.999Z</time></trkpt><trkpt lat="45.50117403384903" lon="3.081136565484651"><ele>942.0</ele><time>2026-04-18T08:52:28.999Z</time></trkpt><trkpt lat="45.501097438439345" lon="3.081271061074559"><ele>944.0</ele><time>2026-04-18T08:52:29.999Z</time></trkpt><trkpt lat="45.50102375450777" lon="3.08140139119815"><ele>946.0</ele><time>2026-04-18T08:52:30.999Z</time></trkpt><trkpt lat="45.50094333332563" lon="3.0815319457704082"><ele>948.0</ele><time>2026-04-18T08:52:31.999Z</time></trkpt><trkpt lat="45.50087150362957" lon="3.0816723409962656"><ele>944.4</ele><time>2026-04-18T08:52:32.999Z</time></trkpt><trkpt lat="45.50080267636553" lon="3.08181471702251"><ele>940.8</ele><time>2026-04-18T08:52:33.999Z</time></trkpt><trkpt lat="45.50073674587006" lon="3.0819496749137545"><ele>937.2</ele><time>2026-04-18T08:52:34.999Z</time></trkpt><trkpt lat="45.500671445840005" lon="3.0820733065156705"><ele>933.6</ele><time>2026-04-18T08:52:35.999Z</time></trkpt><trkpt lat="45.50060378798562" lon="3.082179930089305"><ele>930.0</ele><time>2026-04-18T08:52:36.999Z</time></trkpt><trkpt lat="45.50052833808562" lon="3.0822705776825985"><ele>930.0</ele><time>2026-04-18T08:52:37.999Z</time></trkpt><trkpt lat="45.500434542742305" lon="3.0822958256811703"><ele>930.0</ele><time>2026-04-18T08:52:38.999Z</time></trkpt><trkpt lat="45.50034808213889" lon="3.082296401204355"><ele>930.0</ele><time>2026-04-18T08:52:39.999Z</time></trkpt><trkpt lat="45.50026616880162" lon="3.0822674353079913"><ele>930.0</ele><time>2026-04-18T08:52:40.999Z</time></trkpt><trkpt lat="45.500183014659164" lon="3.0822011794889463"><ele>930.0</ele><time>2026-04-18T08:52:41.999Z</time></trkpt><trkpt lat="45.50007860441266" lon="3.0821147479117283"><ele>930.3333333333333</ele><time>2026-04-18T08:52:42.999Z</time></trkpt><trkpt lat="45.49995320940551" lon="3.0820246967721485"><ele>930.6666666666666</ele><time>2026-04-18T08:52:43.999Z</time></trkpt><trkpt lat="45.49981430018644" lon="3.08189355314947"><ele>931.0</ele><time>2026-04-18T08:52:44.999Z</time></trkpt><trkpt lat="45.49967207118128" lon="3.08172611371416"><ele>929.5</ele><time>2026-04-18T08:52:45.999Z</time></trkpt><trkpt lat="45.49956329219551" lon="3.0815655060756413"><ele>928.0</ele><time>2026-04-18T08:52:46.999Z</time></trkpt><trkpt lat="45.499463755727774" lon="3.081424664482337"><ele>926.5</ele><time>2026-04-18T08:52:47.999Z</time></trkpt><trkpt lat="45.49939603242996" lon="3.0812697979913692"><ele>925.0</ele><time>2026-04-18T08:52:48.999Z</time></trkpt><trkpt lat="45.499343407970194" lon="3.0811176045255837"><ele>925.0</ele><time>2026-04-18T08:52:49.999Z</time></trkpt><trkpt lat="45.499321091322905" lon="3.0809532499403187"><ele>925.0</ele><time>2026-04-18T08:52:50.999Z</time></trkpt><trkpt lat="45.49932375985153" lon="3.0807668235754524"><ele>925.0</ele><time>2026-04-18T08:52:51.999Z</time></trkpt><trkpt lat="45.499331625541124" lon="3.080571917702906"><ele>925.0</ele><time>2026-04-18T08:52:52.999Z</time></trkpt><trkpt lat="45.499330991526364" lon="3.080375699361722"><ele>926.25</ele><time>2026-04-18T08:52:53.999Z</time></trkpt><trkpt lat="45.499324806529984" lon="3.0801768285910316"><ele>927.5</ele><time>2026-04-18T08:52:55Z</time></trkpt><trkpt lat="45.499317854061495" lon="3.0799711798275515"><ele>928.75</ele><time>2026-04-18T08:52:56Z</time></trkpt><trkpt lat="45.49930843180755" lon="3.079768229332724"><ele>930.0</ele><time>2026-04-18T08:52:57Z</time></trkpt><trkpt lat="45.49929583909661" lon="3.079562767651025"><ele>930.75</ele><time>2026-04-18T08:52:58Z</time></trkpt><trkpt lat="45.49928085328737" lon="3.079354647395958"><ele>931.5</ele><time>2026-04-18T08:52:59Z</time></trkpt><trkpt lat="45.49926666711257" lon="3.0791430333927265"><ele>932.25</ele><time>2026-04-18T08:53:00Z</time></trkpt><trkpt lat="45.49925249826802" lon="3.078929891528725"><ele>933.0</ele><time>2026-04-18T08:53:01Z</time></trkpt><trkpt lat="45.49924070248847" lon="3.0787132796664487"><ele>934.0</ele><time>2026-04-18T08:53:02Z</time></trkpt><trkpt lat="45.49922692198351" lon="3.078496031372533"><ele>935.0</ele><time>2026-04-18T08:53:03Z</time></trkpt><trkpt lat="45.49920960679028" lon="3.07827198486028"><ele>936.0</ele><time>2026-04-18T08:53:04Z</time></trkpt><trkpt lat="45.49918854635581" lon="3.0780511797481296"><ele>936.6666666666667</ele><time>2026-04-18T08:53:05Z</time></trkpt><trkpt lat="45.49916580503796" lon="3.077832383842612"><ele>937.3333333333334</ele><time>2026-04-18T08:53:06Z</time></trkpt><trkpt lat="45.49914403623809" lon="3.077616898807476"><ele>938.0</ele><time>2026-04-18T08:53:07Z</time></trkpt><trkpt lat="45.49913092137346" lon="3.077402228868798"><ele>938.5</ele><time>2026-04-18T08:53:08Z</time></trkpt><trkpt lat="45.49912830646293" lon="3.0771886183843162"><ele>939.0</ele><time>2026-04-18T08:53:09Z</time></trkpt><trkpt lat="45.49913579593701" lon="3.0769818966271707"><ele>939.5</ele><time>2026-04-18T08:53:10Z</time></trkpt><trkpt lat="45.4991489561929" lon="3.0767868180574003"><ele>940.0</ele><time>2026-04-18T08:53:11Z</time></trkpt><trkpt lat="45.49915282519291" lon="3.076592109056725"><ele>940.75</ele><time>2026-04-18T08:53:12Z</time></trkpt><trkpt lat="45.499145544835294" lon="3.076396290681207"><ele>941.5</ele><time>2026-04-18T08:53:13Z</time></trkpt><trkpt lat="45.49912622696343" lon="3.076199157663979"><ele>942.25</ele><time>2026-04-18T08:53:14Z</time></trkpt><trkpt lat="45.49909570908098" lon="3.075993989611728"><ele>943.0</ele><time>2026-04-18T08:53:15Z</time></trkpt><trkpt lat="45.499059495765295" lon="3.0757873301531773"><ele>943.5</ele><time>2026-04-18T08:53:16Z</time></trkpt><trkpt lat="45.49902209229896" lon="3.075575389345566"><ele>944.0</ele><time>2026-04-18T08:53:17Z</time></trkpt><trkpt lat="45.49897597207183" lon="3.075376078786293"><ele>944.5</ele><time>2026-04-18T08:53:18Z</time></trkpt><trkpt lat="45.498919878901475" lon="3.075195749375634"><ele>945.0</ele><time>2026-04-18T08:53:19Z</time></trkpt><trkpt lat="45.49885461886738" lon="3.075023909247669"><ele>946.0</ele><time>2026-04-18T08:53:20Z</time></trkpt><trkpt lat="45.49878583031019" lon="3.074856717805981"><ele>947.0</ele><time>2026-04-18T08:53:21Z</time></trkpt><trkpt lat="45.49871844636205" lon="3.0746952551095217"><ele>948.0</ele><time>2026-04-18T08:53:22Z</time></trkpt><trkpt lat="45.49864851557843" lon="3.074552424693094"><ele>949.0</ele><time>2026-04-18T08:53:23Z</time></trkpt><trkpt lat="45.49856174659878" lon="3.074435765937398"><ele>949.0</ele><time>2026-04-18T08:53:24Z</time></trkpt><trkpt lat="45.498462099961166" lon="3.0743291253736804"><ele>949.0</ele><time>2026-04-18T08:53:25Z</time></trkpt><trkpt lat="45.498367410558686" lon="3.074215455018534"><ele>949.0</ele><time>2026-04-18T08:53:26Z</time></trkpt><trkpt lat="45.49828865815448" lon="3.0740763139574874"><ele>949.0</ele><time>2026-04-18T08:53:27Z</time></trkpt><trkpt lat="45.498224982135675" lon="3.0739123193768343"><ele>950.5</ele><time>2026-04-18T08:53:28Z</time></trkpt><trkpt lat="45.498160935841625" lon="3.073737967701427"><ele>952.0</ele><time>2026-04-18T08:53:29Z</time></trkpt><trkpt lat="45.498085384421564" lon="3.073569667011452"><ele>953.5</ele><time>2026-04-18T08:53:30Z</time></trkpt><trkpt lat="45.49799362310219" lon="3.0734337999286554"><ele>955.0</ele><time>2026-04-18T08:53:31Z</time></trkpt><trkpt lat="45.49787886214274" lon="3.073321250989171"><ele>954.25</ele><time>2026-04-18T08:53:32Z</time></trkpt><trkpt lat="45.49776256127061" lon="3.073204557286569"><ele>953.5</ele><time>2026-04-18T08:53:33Z</time></trkpt><trkpt lat="45.49766541872139" lon="3.0730630863960573"><ele>952.75</ele><time>2026-04-18T08:53:34Z</time></trkpt><trkpt lat="45.49761403733464" lon="3.0728888101209706"><ele>952.0</ele><time>2026-04-18T08:53:35Z</time></trkpt><trkpt lat="45.49758827976717" lon="3.072706300551859"><ele>952.0</ele><time>2026-04-18T08:53:36Z</time></trkpt><trkpt lat="45.49756481576907" lon="3.0725158454674455"><ele>952.0</ele><time>2026-04-18T08:53:37Z</time></trkpt><trkpt lat="45.49753247545654" lon="3.072314959859844"><ele>952.0</ele><time>2026-04-18T08:53:38Z</time></trkpt><trkpt lat="45.49749609383957" lon="3.0721239852509266"><ele>952.0</ele><time>2026-04-18T08:53:39Z</time></trkpt><trkpt lat="45.49745577363365" lon="3.071944582054267"><ele>953.75</ele><time>2026-04-18T08:53:40Z</time></trkpt><trkpt lat="45.497403886058436" lon="3.0717841872094245"><ele>955.5</ele><time>2026-04-18T08:53:41Z</time></trkpt><trkpt lat="45.4973400768908" lon="3.0716239157260192"><ele>957.25</ele><time>2026-04-18T08:53:42Z</time></trkpt><trkpt lat="45.49726101939294" lon="3.0714715287090564"><ele>959.0</ele><time>2026-04-18T08:53:43Z</time></trkpt><trkpt lat="45.49716590180981" lon="3.0713228426449106"><ele>958.25</ele><time>2026-04-18T08:53:44Z</time></trkpt><trkpt lat="45.497072684897695" lon="3.071160520993201"><ele>957.5</ele><time>2026-04-18T08:53:45Z</time></trkpt><trkpt lat="45.49697398183821" lon="3.0709997799574236"><ele>956.75</ele><time>2026-04-18T08:53:46Z</time></trkpt><trkpt lat="45.496883680674024" lon="3.070860596171797"><ele>956.0</ele><time>2026-04-18T08:53:47Z</time></trkpt><trkpt lat="45.496800903210385" lon="3.070730644666437"><ele>958.5</ele><time>2026-04-18T08:53:48Z</time></trkpt><trkpt lat="45.49671881055931" lon="3.0706000746001463"><ele>961.0</ele><time>2026-04-18T08:53:49Z</time></trkpt><trkpt lat="45.49663244781736" lon="3.0704795007385433"><ele>963.5</ele><time>2026-04-18T08:53:50Z</time></trkpt><trkpt lat="45.496555230859265" lon="3.0703684323670717"><ele>966.0</ele><time>2026-04-18T08:53:51Z</time></trkpt><trkpt lat="45.49648303518117" lon="3.0702622715989523"><ele>966.0</ele><time>2026-04-18T08:53:52Z</time></trkpt><trkpt lat="45.496416639848555" lon="3.0701640822086085"><ele>966.0</ele><time>2026-04-18T08:53:53Z</time></trkpt><trkpt lat="45.49635253740553" lon="3.070071935551579"><ele>966.0</ele><time>2026-04-18T08:53:54Z</time></trkpt><trkpt lat="45.496291618433894" lon="3.0699849202213163"><ele>966.0</ele><time>2026-04-18T08:53:55Z</time></trkpt><trkpt lat="45.49623400238126" lon="3.06990020772852"><ele>966.0</ele><time>2026-04-18T08:53:56Z</time></trkpt><trkpt lat="45.496180232265566" lon="3.069815568798471"><ele>966.0</ele><time>2026-04-18T08:53:57Z</time></trkpt><trkpt lat="45.49612889168183" lon="3.0697263736821156"><ele>966.0</ele><time>2026-04-18T08:53:58Z</time></trkpt><trkpt lat="45.49608123807867" lon="3.069623742612402"><ele>966.0</ele><time>2026-04-18T08:53:59Z</time></trkpt><trkpt lat="45.496041921814786" lon="3.0694884252045713"><ele>966.0</ele><time>2026-04-18T08:54:00Z</time></trkpt><trkpt lat="45.49600146160993" lon="3.069351110872979"><ele>966.0</ele><time>2026-04-18T08:54:01Z</time></trkpt><trkpt lat="45.495973549976256" lon="3.0692697744407957"><ele>966.0</ele><time>2026-04-18T08:54:02Z</time></trkpt><trkpt lat="45.49594462307125" lon="3.069159517953842"><ele>966.0</ele><time>2026-04-18T08:54:03Z</time></trkpt><trkpt lat="45.49590588523891" lon="3.069046651522939"><ele>966.0</ele><time>2026-04-18T08:54:04Z</time></trkpt><trkpt lat="45.49586280915114" lon="3.068932256157636"><ele>966.0</ele><time>2026-04-18T08:54:05Z</time></trkpt><trkpt lat="45.49581875198227" lon="3.0688256843846773"><ele>966.0</ele><time>2026-04-18T08:54:06Z</time></trkpt><trkpt lat="45.49577685035512" lon="3.0687240805150737"><ele>966.0</ele><time>2026-04-18T08:54:07Z</time></trkpt><trkpt lat="45.495737415202875" lon="3.0686242032452125"><ele>966.0</ele><time>2026-04-18T08:54:08Z</time></trkpt><trkpt lat="45.4957015742388" lon="3.0685303640608486"><ele>966.0</ele><time>2026-04-18T08:54:09Z</time></trkpt><trkpt lat="45.49566379196863" lon="3.0684398144326566"><ele>966.0</ele><time>2026-04-18T08:54:10Z</time></trkpt><trkpt lat="45.49562073487748" lon="3.068351499245461"><ele>966.0</ele><time>2026-04-18T08:54:11Z</time></trkpt><trkpt lat="45.495577112376154" lon="3.0682701752069357"><ele>966.0</ele><time>2026-04-18T08:54:12Z</time></trkpt><trkpt lat="45.495524264265356" lon="3.0681920933934377"><ele>966.0</ele><time>2026-04-18T08:54:13Z</time></trkpt><trkpt lat="45.49545924283541" lon="3.0681242680019936"><ele>966.0</ele><time>2026-04-18T08:54:14Z</time></trkpt><trkpt lat="45.495381346433874" lon="3.0680590630359483"><ele>966.0</ele><time>2026-04-18T08:54:15Z</time></trkpt><trkpt lat="45.49528603287934" lon="3.0679938856326703"><ele>963.0</ele><time>2026-04-18T08:54:16Z</time></trkpt><trkpt lat="45.49518587682801" lon="3.067889496531493"><ele>960.0</ele><time>2026-04-18T08:54:17Z</time></trkpt><trkpt lat="45.49509204967688" lon="3.0677969165172474"><ele>957.0</ele><time>2026-04-18T08:54:18Z</time></trkpt><trkpt lat="45.49501978104568" lon="3.0676895141140266"><ele>954.0</ele><time>2026-04-18T08:54:19Z</time></trkpt><trkpt lat="45.49494825403917" lon="3.067564176719469"><ele>954.5</ele><time>2026-04-18T08:54:20Z</time></trkpt><trkpt lat="45.49486497580242" lon="3.0674217915882003"><ele>955.0</ele><time>2026-04-18T08:54:21Z</time></trkpt><trkpt lat="45.49478533951355" lon="3.067246377572415"><ele>955.5</ele><time>2026-04-18T08:54:22Z</time></trkpt><trkpt lat="45.49469082884965" lon="3.067051972141914"><ele>956.0</ele><time>2026-04-18T08:54:23Z</time></trkpt><trkpt lat="45.49463965989454" lon="3.066852149095645"><ele>955.0</ele><time>2026-04-18T08:54:24Z</time></trkpt><trkpt lat="45.49457471786208" lon="3.066680427402228"><ele>954.0</ele><time>2026-04-18T08:54:25Z</time></trkpt><trkpt lat="45.49450342841345" lon="3.0665245686516815"><ele>953.0</ele><time>2026-04-18T08:54:26Z</time></trkpt><trkpt lat="45.494400389293055" lon="3.0664095988476205"><ele>952.0</ele><time>2026-04-18T08:54:27Z</time></trkpt><trkpt lat="45.49427972624469" lon="3.066357609495279"><ele>952.0</ele><time>2026-04-18T08:54:28Z</time></trkpt><trkpt lat="45.49416246114407" lon="3.0663606105755603"><ele>952.0</ele><time>2026-04-18T08:54:29Z</time></trkpt><trkpt lat="45.49404564339929" lon="3.0664386116842786"><ele>952.0</ele><time>2026-04-18T08:54:30Z</time></trkpt><trkpt lat="45.493931966555365" lon="3.0665847457579587"><ele>952.0</ele><time>2026-04-18T08:54:31Z</time></trkpt><trkpt lat="45.493822773840485" lon="3.0667922318201057"><ele>953.0</ele><time>2026-04-18T08:54:32Z</time></trkpt><trkpt lat="45.493691811794974" lon="3.067007835256526"><ele>954.0</ele><time>2026-04-18T08:54:33Z</time></trkpt><trkpt lat="45.493579039787306" lon="3.0672105911313765"><ele>955.0</ele><time>2026-04-18T08:54:34Z</time></trkpt><trkpt lat="45.49346881803532" lon="3.067360390363481"><ele>951.6666666666666</ele><time>2026-04-18T08:54:35Z</time></trkpt><trkpt lat="45.493351753501365" lon="3.067458378769148"><ele>948.3333333333333</ele><time>2026-04-18T08:54:36Z</time></trkpt><trkpt lat="45.49320054494136" lon="3.0675459394916937"><ele>945.0</ele><time>2026-04-18T08:54:37Z</time></trkpt><trkpt lat="45.49303556351474" lon="3.067638897291184"><ele>945.4</ele><time>2026-04-18T08:54:38Z</time></trkpt><trkpt lat="45.492917837200984" lon="3.0677028487537283"><ele>945.8</ele><time>2026-04-18T08:54:39Z</time></trkpt><trkpt lat="45.49283407024493" lon="3.067743011039366"><ele>946.2</ele><time>2026-04-18T08:54:40Z</time></trkpt><trkpt lat="45.492749211710894" lon="3.0677566935995606"><ele>946.6</ele><time>2026-04-18T08:54:41Z</time></trkpt><trkpt lat="45.49266431571341" lon="3.0677466592337943"><ele>947.0</ele><time>2026-04-18T08:54:42Z</time></trkpt><trkpt lat="45.492576363933864" lon="3.0677136416079334"><ele>947.0</ele><time>2026-04-18T08:54:43Z</time></trkpt><trkpt lat="45.49249217458723" lon="3.0676509180951395"><ele>947.0</ele><time>2026-04-18T08:54:44Z</time></trkpt><trkpt lat="45.49240997011614" lon="3.0675545809543427"><ele>947.0</ele><time>2026-04-18T08:54:45Z</time></trkpt><trkpt lat="45.49233036045282" lon="3.067444683588828"><ele>947.0</ele><time>2026-04-18T08:54:46Z</time></trkpt><trkpt lat="45.492248022492234" lon="3.0673645910170153"><ele>947.0</ele><time>2026-04-18T08:54:47Z</time></trkpt><trkpt lat="45.49216530451734" lon="3.0672964487196226"><ele>947.8</ele><time>2026-04-18T08:54:48Z</time></trkpt><trkpt lat="45.49206974152873" lon="3.067272434053996"><ele>948.6</ele><time>2026-04-18T08:54:49Z</time></trkpt><trkpt lat="45.49197783647135" lon="3.067308587695056"><ele>949.3999999999999</ele><time>2026-04-18T08:54:49.999Z</time></trkpt><trkpt lat="45.49190564031276" lon="3.067388240526619"><ele>950.1999999999999</ele><time>2026-04-18T08:54:50.999Z</time></trkpt><trkpt lat="45.491862618740846" lon="3.0674951065382388"><ele>951.0</ele><time>2026-04-18T08:54:51.999Z</time></trkpt><trkpt lat="45.49184769884528" lon="3.0676218529956265"><ele>951.0</ele><time>2026-04-18T08:54:52.999Z</time></trkpt><trkpt lat="45.491851292231466" lon="3.0677635362750277"><ele>950.9999999999999</ele><time>2026-04-18T08:54:53.999Z</time></trkpt><trkpt lat="45.49184136588231" lon="3.067917629596611"><ele>950.9999999999999</ele><time>2026-04-18T08:54:54.999Z</time></trkpt><trkpt lat="45.491840115298764" lon="3.068063170757016"><ele>951.0</ele><time>2026-04-18T08:54:55.999Z</time></trkpt><trkpt lat="45.49183753606234" lon="3.0682175656257185"><ele>951.0</ele><time>2026-04-18T08:54:56.999Z</time></trkpt><trkpt lat="45.49182605884379" lon="3.068373114825486"><ele>951.0</ele><time>2026-04-18T08:54:57.999Z</time></trkpt><trkpt lat="45.491800927610214" lon="3.068533325576661"><ele>951.0</ele><time>2026-04-18T08:54:58.999Z</time></trkpt><trkpt lat="45.49175975698281" lon="3.0686874731325235"><ele>951.0</ele><time>2026-04-18T08:55:00Z</time></trkpt><trkpt lat="45.49170808170498" lon="3.0688475302374436"><ele>951.0</ele><time>2026-04-18T08:55:01Z</time></trkpt><trkpt lat="45.491649943304935" lon="3.069006530823374"><ele>950.8</ele><time>2026-04-18T08:55:02Z</time></trkpt><trkpt lat="45.4915884559445" lon="3.0691518842921255"><ele>950.5999999999999</ele><time>2026-04-18T08:55:03Z</time></trkpt><trkpt lat="45.491523922973" lon="3.0692846897285917"><ele>950.4</ele><time>2026-04-18T08:55:04Z</time></trkpt><trkpt lat="45.491459987141994" lon="3.0693974520442944"><ele>950.2</ele><time>2026-04-18T08:55:05Z</time></trkpt><trkpt lat="45.49139603841106" lon="3.0694955810540194"><ele>950.0</ele><time>2026-04-18T08:55:06Z</time></trkpt><trkpt lat="45.491330759286434" lon="3.0695865219140663"><ele>950.0</ele><time>2026-04-18T08:55:07Z</time></trkpt><trkpt lat="45.49126492916444" lon="3.0696742955253997"><ele>950.0</ele><time>2026-04-18T08:55:08Z</time></trkpt><trkpt lat="45.49119357299744" lon="3.069768514271065"><ele>950.0</ele><time>2026-04-18T08:55:09Z</time></trkpt><trkpt lat="45.49111635864261" lon="3.069870468221217"><ele>950.0</ele><time>2026-04-18T08:55:10Z</time></trkpt><trkpt lat="45.491038610998984" lon="3.069973126300867"><ele>950.0</ele><time>2026-04-18T08:55:11Z</time></trkpt><trkpt lat="45.49095971065864" lon="3.070077306384269"><ele>952.5</ele><time>2026-04-18T08:55:12Z</time></trkpt><trkpt lat="45.490878510088635" lon="3.070186346353734"><ele>955.0</ele><time>2026-04-18T08:55:13Z</time></trkpt><trkpt lat="45.49079163352035" lon="3.0703051374168804"><ele>957.5</ele><time>2026-04-18T08:55:14Z</time></trkpt><trkpt lat="45.49069999412642" lon="3.0704313470549316"><ele>960.0</ele><time>2026-04-18T08:55:15Z</time></trkpt><trkpt lat="45.49060318300797" lon="3.070560089618375"><ele>960.0</ele><time>2026-04-18T08:55:16Z</time></trkpt><trkpt lat="45.49050577459045" lon="3.0706885251080407"><ele>960.0</ele><time>2026-04-18T08:55:17Z</time></trkpt><trkpt lat="45.490409981837836" lon="3.070815495789255"><ele>960.0</ele><time>2026-04-18T08:55:18Z</time></trkpt><trkpt lat="45.49031658492615" lon="3.070939680128632"><ele>960.0</ele><time>2026-04-18T08:55:19Z</time></trkpt><trkpt lat="45.49022200759877" lon="3.0710679326644508"><ele>961.75</ele><time>2026-04-18T08:55:20Z</time></trkpt><trkpt lat="45.49012564137007" lon="3.071199646289025"><ele>963.5</ele><time>2026-04-18T08:55:21Z</time></trkpt><trkpt lat="45.4900315375541" lon="3.0713282676493425"><ele>965.25</ele><time>2026-04-18T08:55:22Z</time></trkpt><trkpt lat="45.48995036524487" lon="3.0714340725583065"><ele>967.0</ele><time>2026-04-18T08:55:23Z</time></trkpt><trkpt lat="45.48986759226769" lon="3.071510393740816"><ele>967.0</ele><time>2026-04-18T08:55:24Z</time></trkpt><trkpt lat="45.48978704126025" lon="3.071564336788609"><ele>967.0</ele><time>2026-04-18T08:55:25Z</time></trkpt><trkpt lat="45.489696288589265" lon="3.071572955888449"><ele>967.0</ele><time>2026-04-18T08:55:26Z</time></trkpt><trkpt lat="45.4896058601632" lon="3.0715336276460232"><ele>967.0</ele><time>2026-04-18T08:55:27Z</time></trkpt><trkpt lat="45.48950623998931" lon="3.071476796923027"><ele>967.0</ele><time>2026-04-18T08:55:28Z</time></trkpt><trkpt lat="45.48939181101299" lon="3.07141915170771"><ele>967.0</ele><time>2026-04-18T08:55:29Z</time></trkpt><trkpt lat="45.48927738598422" lon="3.071471251734401"><ele>967.0</ele><time>2026-04-18T08:55:30Z</time></trkpt><trkpt lat="45.48917972213073" lon="3.071545054732805"><ele>967.0</ele><time>2026-04-18T08:55:31Z</time></trkpt><trkpt lat="45.48910360804775" lon="3.071673956070577"><ele>967.0</ele><time>2026-04-18T08:55:32Z</time></trkpt><trkpt lat="45.48904849708167" lon="3.0718395912601446"><ele>967.0</ele><time>2026-04-18T08:55:33Z</time></trkpt><trkpt lat="45.4890010846291" lon="3.072045883994911"><ele>967.0</ele><time>2026-04-18T08:55:34Z</time></trkpt><trkpt lat="45.488937942230585" lon="3.072292225770156"><ele>967.0</ele><time>2026-04-18T08:55:35Z</time></trkpt><trkpt lat="45.488849731906" lon="3.0725369534056455"><ele>965.0</ele><time>2026-04-18T08:55:36Z</time></trkpt><trkpt lat="45.48878538498552" lon="3.0728156756240397"><ele>963.0</ele><time>2026-04-18T08:55:37Z</time></trkpt><trkpt lat="45.4887009801641" lon="3.073044329084686"><ele>961.0</ele><time>2026-04-18T08:55:38Z</time></trkpt><trkpt lat="45.48863607386596" lon="3.073250247819048"><ele>963.5</ele><time>2026-04-18T08:55:39Z</time></trkpt><trkpt lat="45.48856701352522" lon="3.0734131591792977"><ele>966.0</ele><time>2026-04-18T08:55:40Z</time></trkpt><trkpt lat="45.488468863244904" lon="3.073530596735664"><ele>968.5</ele><time>2026-04-18T08:55:41Z</time></trkpt><trkpt lat="45.488359217148265" lon="3.0736106600043636"><ele>971.0</ele><time>2026-04-18T08:55:42Z</time></trkpt><trkpt lat="45.48820209394622" lon="3.073659738350969"><ele>971.0</ele><time>2026-04-18T08:55:43Z</time></trkpt><trkpt lat="45.488022449580896" lon="3.0737326545801023"><ele>971.0</ele><time>2026-04-18T08:55:44Z</time></trkpt><trkpt lat="45.487849790026104" lon="3.0738841684484095"><ele>971.0</ele><time>2026-04-18T08:55:45Z</time></trkpt><trkpt lat="45.48768841117149" lon="3.0740433053886127"><ele>973.0</ele><time>2026-04-18T08:55:46Z</time></trkpt><trkpt lat="45.487582345698634" lon="3.0741576219337126"><ele>975.0</ele><time>2026-04-18T08:55:47Z</time></trkpt><trkpt lat="45.48750163730946" lon="3.0742616194103323"><ele>977.0</ele><time>2026-04-18T08:55:48Z</time></trkpt><trkpt lat="45.48745524163439" lon="3.0744010719718"><ele>979.0</ele><time>2026-04-18T08:55:49Z</time></trkpt><trkpt lat="45.487451838245555" lon="3.0745808565332653"><ele>979.0</ele><time>2026-04-18T08:55:50Z</time></trkpt><trkpt lat="45.487499834575644" lon="3.074763698685792"><ele>979.0</ele><time>2026-04-18T08:55:51Z</time></trkpt><trkpt lat="45.48760139806703" lon="3.0749246195585824"><ele>979.0</ele><time>2026-04-18T08:55:52Z</time></trkpt><trkpt lat="45.48774903555965" lon="3.0749942916562594"><ele>979.0</ele><time>2026-04-18T08:55:53Z</time></trkpt><trkpt lat="45.487902601495236" lon="3.0750027685536687"><ele>975.6666666666666</ele><time>2026-04-18T08:55:54Z</time></trkpt><trkpt lat="45.48807208461682" lon="3.075029230288104"><ele>972.3333333333333</ele><time>2026-04-18T08:55:55Z</time></trkpt><trkpt lat="45.48819705410788" lon="3.075132588049807"><ele>969.0</ele><time>2026-04-18T08:55:56Z</time></trkpt><trkpt lat="45.48832186061569" lon="3.075295199862413"><ele>969.0</ele><time>2026-04-18T08:55:57Z</time></trkpt><trkpt lat="45.488433721257046" lon="3.0755241572418988"><ele>969.0</ele><time>2026-04-18T08:55:58Z</time></trkpt><trkpt lat="45.48853161108454" lon="3.075783824690111"><ele>969.0</ele><time>2026-04-18T08:55:59Z</time></trkpt><trkpt lat="45.48860033889985" lon="3.0760427525373153"><ele>974.6666666666667</ele><time>2026-04-18T08:56:00Z</time></trkpt><trkpt lat="45.48862847324566" lon="3.076294453102385"><ele>980.3333333333334</ele><time>2026-04-18T08:56:01Z</time></trkpt><trkpt lat="45.48863381620596" lon="3.076569541741246"><ele>986.0</ele><time>2026-04-18T08:56:02Z</time></trkpt><trkpt lat="45.48865233854005" lon="3.076873567154543"><ele>988.6666666666667</ele><time>2026-04-18T08:56:03Z</time></trkpt><trkpt lat="45.48865191933089" lon="3.0771554029449906"><ele>991.3333333333333</ele><time>2026-04-18T08:56:04Z</time></trkpt><trkpt lat="45.48864066224707" lon="3.0773828251001936"><ele>994.0</ele><time>2026-04-18T08:56:05Z</time></trkpt><trkpt lat="45.488641729228426" lon="3.0776046381193165"><ele>995.0</ele><time>2026-04-18T08:56:06Z</time></trkpt><trkpt lat="45.4886553981808" lon="3.0777994121392243"><ele>996.0</ele><time>2026-04-18T08:56:07Z</time></trkpt><trkpt lat="45.488639918368065" lon="3.0779693243178454"><ele>997.0</ele><time>2026-04-18T08:56:08Z</time></trkpt><trkpt lat="45.48858048658302" lon="3.078107568103351"><ele>998.0</ele><time>2026-04-18T08:56:09Z</time></trkpt><trkpt lat="45.48851958288182" lon="3.078225065484426"><ele>997.25</ele><time>2026-04-18T08:56:10Z</time></trkpt><trkpt lat="45.48845376944777" lon="3.0783649548699947"><ele>996.5</ele><time>2026-04-18T08:56:11Z</time></trkpt><trkpt lat="45.48841128346637" lon="3.078531309601816"><ele>995.75</ele><time>2026-04-18T08:56:12Z</time></trkpt><trkpt lat="45.48835961079121" lon="3.0787001726518515"><ele>995.0</ele><time>2026-04-18T08:56:13Z</time></trkpt><trkpt lat="45.48832924615009" lon="3.0788788849804933"><ele>995.0</ele><time>2026-04-18T08:56:14Z</time></trkpt><trkpt lat="45.48831197048403" lon="3.0790606860589653"><ele>995.0</ele><time>2026-04-18T08:56:15Z</time></trkpt><trkpt lat="45.48829931159235" lon="3.079249572122962"><ele>995.0</ele><time>2026-04-18T08:56:16Z</time></trkpt><trkpt lat="45.488288096416454" lon="3.0794404963117756"><ele>995.0</ele><time>2026-04-18T08:56:17Z</time></trkpt><trkpt lat="45.48827566598114" lon="3.0796369223014204"><ele>994.25</ele><time>2026-04-18T08:56:18Z</time></trkpt><trkpt lat="45.4882820041176" lon="3.0798393612195216"><ele>993.5</ele><time>2026-04-18T08:56:19Z</time></trkpt><trkpt lat="45.48828540725726" lon="3.0800324251526536"><ele>992.75</ele><time>2026-04-18T08:56:20Z</time></trkpt><trkpt lat="45.48828618224309" lon="3.0802229150383105"><ele>992.0</ele><time>2026-04-18T08:56:21Z</time></trkpt><trkpt lat="45.488295753002745" lon="3.0803982113486037"><ele>992.0</ele><time>2026-04-18T08:56:22Z</time></trkpt><trkpt lat="45.488324029526915" lon="3.0805586729015033"><ele>992.0</ele><time>2026-04-18T08:56:23Z</time></trkpt><trkpt lat="45.488370821584766" lon="3.0806985869480634"><ele>992.0</ele><time>2026-04-18T08:56:24Z</time></trkpt><trkpt lat="45.488425027096795" lon="3.080835614223641"><ele>992.0</ele><time>2026-04-18T08:56:25Z</time></trkpt><trkpt lat="45.488463290701574" lon="3.0809748796051535"><ele>992.0</ele><time>2026-04-18T08:56:26Z</time></trkpt><trkpt lat="45.48848993317731" lon="3.081136669646803"><ele>992.4000000000001</ele><time>2026-04-18T08:56:27Z</time></trkpt><trkpt lat="45.488500024263196" lon="3.081305527969594"><ele>992.8000000000001</ele><time>2026-04-18T08:56:28Z</time></trkpt><trkpt lat="45.48847208859611" lon="3.0814580089749244"><ele>993.2</ele><time>2026-04-18T08:56:29Z</time></trkpt><trkpt lat="45.48843722820072" lon="3.08159226326943"><ele>993.6</ele><time>2026-04-18T08:56:30Z</time></trkpt><trkpt lat="45.488358598198296" lon="3.0816796211063195"><ele>994.0</ele><time>2026-04-18T08:56:31Z</time></trkpt><trkpt lat="45.48826758594933" lon="3.081745569680975"><ele>994.0</ele><time>2026-04-18T08:56:32Z</time></trkpt><trkpt lat="45.48816505982789" lon="3.081823564834618"><ele>994.0</ele><time>2026-04-18T08:56:33Z</time></trkpt><trkpt lat="45.48806155566063" lon="3.081903585975545"><ele>994.0</ele><time>2026-04-18T08:56:34Z</time></trkpt><trkpt lat="45.48796215190965" lon="3.081980436921418"><ele>994.0</ele><time>2026-04-18T08:56:35Z</time></trkpt><trkpt lat="45.48787855323312" lon="3.0820707143883173"><ele>994.4000000000001</ele><time>2026-04-18T08:56:36Z</time></trkpt><trkpt lat="45.4877954535178" lon="3.082124305810662"><ele>994.8000000000001</ele><time>2026-04-18T08:56:37Z</time></trkpt><trkpt lat="45.48772184695498" lon="3.0822049957894224"><ele>995.1999999999999</ele><time>2026-04-18T08:56:38Z</time></trkpt><trkpt lat="45.4876497986315" lon="3.0822949626452276"><ele>995.5999999999999</ele><time>2026-04-18T08:56:39Z</time></trkpt><trkpt lat="45.48759031512343" lon="3.082400166540589"><ele>996.0</ele><time>2026-04-18T08:56:40Z</time></trkpt><trkpt lat="45.48754479566917" lon="3.0825220446350596"><ele>996.0</ele><time>2026-04-18T08:56:41Z</time></trkpt><trkpt lat="45.4875108113189" lon="3.0826543964673756"><ele>995.9999999999999</ele><time>2026-04-18T08:56:42Z</time></trkpt><trkpt lat="45.48747887126416" lon="3.0827943248418337"><ele>995.9999999999999</ele><time>2026-04-18T08:56:43Z</time></trkpt><trkpt lat="45.48744632689921" lon="3.0829255544703655"><ele>996.0</ele><time>2026-04-18T08:56:44Z</time></trkpt><trkpt lat="45.487415979788615" lon="3.083050476651115"><ele>996.0</ele><time>2026-04-18T08:56:45Z</time></trkpt><trkpt lat="45.48738078722671" lon="3.0831738807822835"><ele>995.6666666666666</ele><time>2026-04-18T08:56:46Z</time></trkpt><trkpt lat="45.48734867144459" lon="3.0832792146228583"><ele>995.3333333333333</ele><time>2026-04-18T08:56:47Z</time></trkpt><trkpt lat="45.487301661853564" lon="3.0833930409545554"><ele>995.0</ele><time>2026-04-18T08:56:48Z</time></trkpt><trkpt lat="45.487253162972536" lon="3.0834936045115753"><ele>994.6666666666666</ele><time>2026-04-18T08:56:49Z</time></trkpt><trkpt lat="45.48719963762369" lon="3.0835954757089357"><ele>994.3333333333333</ele><time>2026-04-18T08:56:50Z</time></trkpt><trkpt lat="45.4871325948167" lon="3.083671741460503"><ele>994.0</ele><time>2026-04-18T08:56:51Z</time></trkpt><trkpt lat="45.487065120818244" lon="3.083771146768382"><ele>993.9999999999999</ele><time>2026-04-18T08:56:52Z</time></trkpt><trkpt lat="45.486997007089975" lon="3.0838671555807036"><ele>994.0</ele><time>2026-04-18T08:56:53Z</time></trkpt><trkpt lat="45.48692933734491" lon="3.083945501897263"><ele>994.0</ele><time>2026-04-18T08:56:54Z</time></trkpt><trkpt lat="45.48685659984359" lon="3.0840037251346604"><ele>994.0</ele><time>2026-04-18T08:56:55Z</time></trkpt><trkpt lat="45.4867716282226" lon="3.0840470839955434"><ele>993.9999999999999</ele><time>2026-04-18T08:56:56Z</time></trkpt><trkpt lat="45.48668078733652" lon="3.0840728204229824"><ele>994.0</ele><time>2026-04-18T08:56:57Z</time></trkpt><trkpt lat="45.486580160322546" lon="3.084078697746028"><ele>994.0</ele><time>2026-04-18T08:56:58Z</time></trkpt><trkpt lat="45.486477801455514" lon="3.084093416564304"><ele>994.0000000000001</ele><time>2026-04-18T08:56:59Z</time></trkpt><trkpt lat="45.486364051334135" lon="3.0841097734351495"><ele>994.0000000000001</ele><time>2026-04-18T08:57:00Z</time></trkpt><trkpt lat="45.4862480485222" lon="3.0841264542188895"><ele>994.0</ele><time>2026-04-18T08:57:01Z</time></trkpt><trkpt lat="45.48613312058361" lon="3.0841429804476013"><ele>994.0</ele><time>2026-04-18T08:57:02Z</time></trkpt><trkpt lat="45.486011047826544" lon="3.0841605340793112"><ele>992.0</ele><time>2026-04-18T08:57:03Z</time></trkpt><trkpt lat="45.48589767090751" lon="3.084178331263372"><ele>990.0</ele><time>2026-04-18T08:57:04Z</time></trkpt><trkpt lat="45.485778971626466" lon="3.0842001889393313"><ele>988.0</ele><time>2026-04-18T08:57:05Z</time></trkpt><trkpt lat="45.48566556266855" lon="3.0842265292857807"><ele>986.0</ele><time>2026-04-18T08:57:06Z</time></trkpt><trkpt lat="45.48556170233833" lon="3.0842538586726285"><ele>986.0</ele><time>2026-04-18T08:57:07Z</time></trkpt><trkpt lat="45.48546126946528" lon="3.084279909295297"><ele>985.9999999999999</ele><time>2026-04-18T08:57:08Z</time></trkpt><trkpt lat="45.485356162256444" lon="3.0843037788885486"><ele>985.9999999999999</ele><time>2026-04-18T08:57:09Z</time></trkpt><trkpt lat="45.48525686932419" lon="3.084312538241324"><ele>986.0</ele><time>2026-04-18T08:57:10Z</time></trkpt><trkpt lat="45.4851586697929" lon="3.0842999594650444"><ele>986.0</ele><time>2026-04-18T08:57:11Z</time></trkpt><trkpt lat="45.4850674369547" lon="3.0842607391639"><ele>986.0</ele><time>2026-04-18T08:57:12Z</time></trkpt><trkpt lat="45.484981991175864" lon="3.0842120037219978"><ele>985.9999999999999</ele><time>2026-04-18T08:57:13Z</time></trkpt><trkpt lat="45.48489176029987" lon="3.0841395119904105"><ele>985.9999999999999</ele><time>2026-04-18T08:57:14Z</time></trkpt><trkpt lat="45.484790898630216" lon="3.084082754261646"><ele>986.0</ele><time>2026-04-18T08:57:15Z</time></trkpt><trkpt lat="45.48469660482161" lon="3.083987941457732"><ele>986.0</ele><time>2026-04-18T08:57:16Z</time></trkpt><trkpt lat="45.484591910809755" lon="3.0839382593230114"><ele>986.0</ele><time>2026-04-18T08:57:17Z</time></trkpt><trkpt lat="45.48449016163737" lon="3.0838802241150907"><ele>986.0</ele><time>2026-04-18T08:57:18Z</time></trkpt><trkpt lat="45.484382639332765" lon="3.0838346931478746"><ele>986.0</ele><time>2026-04-18T08:57:19Z</time></trkpt><trkpt lat="45.48427557231599" lon="3.083780490336883"><ele>986.0</ele><time>2026-04-18T08:57:20Z</time></trkpt><trkpt lat="45.48415578956399" lon="3.0837582053549095"><ele>986.0</ele><time>2026-04-18T08:57:21Z</time></trkpt><trkpt lat="45.48403654179099" lon="3.083737879017145"><ele>986.0</ele><time>2026-04-18T08:57:22Z</time></trkpt><trkpt lat="45.48391352008691" lon="3.083718056504289"><ele>986.0</ele><time>2026-04-18T08:57:23Z</time></trkpt><trkpt lat="45.48379212118589" lon="3.0837240030112936"><ele>986.0</ele><time>2026-04-18T08:57:24Z</time></trkpt><trkpt lat="45.483669236839035" lon="3.0837050672074047"><ele>984.0</ele><time>2026-04-18T08:57:25Z</time></trkpt><trkpt lat="45.48355515406761" lon="3.083662729328551"><ele>982.0</ele><time>2026-04-18T08:57:26Z</time></trkpt><trkpt lat="45.483440405968175" lon="3.083641663482038"><ele>980.0</ele><time>2026-04-18T08:57:27Z</time></trkpt><trkpt lat="45.48333207325727" lon="3.0836206461443223"><ele>978.0</ele><time>2026-04-18T08:57:28Z</time></trkpt><trkpt lat="45.483225528967" lon="3.083594689972759"><ele>978.0</ele><time>2026-04-18T08:57:29Z</time></trkpt><trkpt lat="45.48312057893057" lon="3.0835644940737663"><ele>978.0</ele><time>2026-04-18T08:57:30Z</time></trkpt><trkpt lat="45.48301127905471" lon="3.08355408528095"><ele>978.0</ele><time>2026-04-18T08:57:31Z</time></trkpt><trkpt lat="45.482909178896065" lon="3.0835099106017068"><ele>978.0</ele><time>2026-04-18T08:57:32Z</time></trkpt><trkpt lat="45.482808535972424" lon="3.083480302517556"><ele>978.0</ele><time>2026-04-18T08:57:33Z</time></trkpt><trkpt lat="45.482697639880016" lon="3.0834472465117044"><ele>979.25</ele><time>2026-04-18T08:57:34Z</time></trkpt><trkpt lat="45.4825910050344" lon="3.083385818405745"><ele>980.5</ele><time>2026-04-18T08:57:35Z</time></trkpt><trkpt lat="45.48247915465739" lon="3.083335365558326"><ele>981.75</ele><time>2026-04-18T08:57:36Z</time></trkpt><trkpt lat="45.482361270523455" lon="3.083281975348658"><ele>983.0</ele><time>2026-04-18T08:57:37Z</time></trkpt><trkpt lat="45.482247211245664" lon="3.0832261175760447"><ele>983.0</ele><time>2026-04-18T08:57:38Z</time></trkpt><trkpt lat="45.48211370104029" lon="3.083176918136685"><ele>983.0</ele><time>2026-04-18T08:57:39Z</time></trkpt><trkpt lat="45.4819981831908" lon="3.083082921235288"><ele>983.0</ele><time>2026-04-18T08:57:40Z</time></trkpt><trkpt lat="45.48187981330576" lon="3.0829917569929637"><ele>983.0</ele><time>2026-04-18T08:57:41Z</time></trkpt><trkpt lat="45.481754825532775" lon="3.0828974432732488"><ele>980.0</ele><time>2026-04-18T08:57:42Z</time></trkpt><trkpt lat="45.48162932503016" lon="3.082858727044444"><ele>977.0</ele><time>2026-04-18T08:57:43Z</time></trkpt><trkpt lat="45.48151290877624" lon="3.0828016370642546"><ele>974.0</ele><time>2026-04-18T08:57:44Z</time></trkpt><trkpt lat="45.4813950468858" lon="3.0827666292338005"><ele>971.0</ele><time>2026-04-18T08:57:45Z</time></trkpt><trkpt lat="45.48127446371052" lon="3.082747071149878"><ele>968.75</ele><time>2026-04-18T08:57:46Z</time></trkpt><trkpt lat="45.481152567654796" lon="3.0827208918499776"><ele>966.5</ele><time>2026-04-18T08:57:47Z</time></trkpt><trkpt lat="45.481024395473035" lon="3.082687498804969"><ele>964.25</ele><time>2026-04-18T08:57:48Z</time></trkpt><trkpt lat="45.48089952077279" lon="3.082651653182876"><ele>962.0</ele><time>2026-04-18T08:57:49Z</time></trkpt><trkpt lat="45.48078030793226" lon="3.082627762864411"><ele>962.0</ele><time>2026-04-18T08:57:50Z</time></trkpt><trkpt lat="45.4806658488163" lon="3.0826047101340732"><ele>962.0</ele><time>2026-04-18T08:57:51Z</time></trkpt><trkpt lat="45.48055274253348" lon="3.0826310480875265"><ele>962.0</ele><time>2026-04-18T08:57:52Z</time></trkpt><trkpt lat="45.48043288319336" lon="3.0826902524052096"><ele>962.0</ele><time>2026-04-18T08:57:53Z</time></trkpt><trkpt lat="45.480314230796125" lon="3.0827819315511014"><ele>961.75</ele><time>2026-04-18T08:57:54Z</time></trkpt><trkpt lat="45.480195000316286" lon="3.0828907366331366"><ele>961.5</ele><time>2026-04-18T08:57:55Z</time></trkpt><trkpt lat="45.480075699684896" lon="3.0830110206426613"><ele>961.25</ele><time>2026-04-18T08:57:56Z</time></trkpt><trkpt lat="45.4799463720442" lon="3.0831014621503865"><ele>961.0</ele><time>2026-04-18T08:57:57Z</time></trkpt><trkpt lat="45.479818408067665" lon="3.0831935700235977"><ele>960.3333333333333</ele><time>2026-04-18T08:57:58Z</time></trkpt><trkpt lat="45.479672932816975" lon="3.083285693997352"><ele>959.6666666666667</ele><time>2026-04-18T08:57:59Z</time></trkpt><trkpt lat="45.47953705969577" lon="3.0833670049374864"><ele>959.0</ele><time>2026-04-18T08:58:00Z</time></trkpt><trkpt lat="45.479390600996226" lon="3.0834466657001265"><ele>959.0</ele><time>2026-04-18T08:58:01Z</time></trkpt><trkpt lat="45.4792448577909" lon="3.0835090272100376"><ele>959.0</ele><time>2026-04-18T08:58:02Z</time></trkpt><trkpt lat="45.47909622097228" lon="3.08354800466034"><ele>959.0</ele><time>2026-04-18T08:58:03Z</time></trkpt><trkpt lat="45.47894827374955" lon="3.0835764546071798"><ele>959.0</ele><time>2026-04-18T08:58:04Z</time></trkpt><trkpt lat="45.47879905412405" lon="3.0835992628197264"><ele>959.0</ele><time>2026-04-18T08:58:05Z</time></trkpt><trkpt lat="45.47864295403671" lon="3.0836194365510026"><ele>959.0</ele><time>2026-04-18T08:58:06Z</time></trkpt><trkpt lat="45.47848827354927" lon="3.0836390114811802"><ele>960.6666666666667</ele><time>2026-04-18T08:58:07Z</time></trkpt><trkpt lat="45.478338120560224" lon="3.0836572303280634"><ele>962.3333333333333</ele><time>2026-04-18T08:58:08Z</time></trkpt><trkpt lat="45.47818072741008" lon="3.083676327618316"><ele>964.0</ele><time>2026-04-18T08:58:09Z</time></trkpt><trkpt lat="45.47802405870196" lon="3.083695337018807"><ele>965.3333333333333</ele><time>2026-04-18T08:58:10Z</time></trkpt><trkpt lat="45.47785734363333" lon="3.083715565372834"><ele>966.6666666666667</ele><time>2026-04-18T08:58:11Z</time></trkpt><trkpt lat="45.477687118859734" lon="3.0837378051384863"><ele>968.0</ele><time>2026-04-18T08:58:12Z</time></trkpt><trkpt lat="45.47751953897959" lon="3.083760800768164"><ele>968.0</ele><time>2026-04-18T08:58:13Z</time></trkpt><trkpt lat="45.47734802168785" lon="3.08378529346178"><ele>968.0</ele><time>2026-04-18T08:58:14Z</time></trkpt><trkpt lat="45.47716973710621" lon="3.083810752517605"><ele>968.0</ele><time>2026-04-18T08:58:15Z</time></trkpt><trkpt lat="45.47698916538695" lon="3.083836538184643"><ele>968.3333333333334</ele><time>2026-04-18T08:58:16Z</time></trkpt><trkpt lat="45.47680886750818" lon="3.0838622454225213"><ele>968.6666666666667</ele><time>2026-04-18T08:58:17Z</time></trkpt><trkpt lat="45.47662747837074" lon="3.08388513231156"><ele>969.0</ele><time>2026-04-18T08:58:18Z</time></trkpt><trkpt lat="45.47644920263931" lon="3.0839076263222536"><ele>969.0</ele><time>2026-04-18T08:58:19Z</time></trkpt><trkpt lat="45.476271516711776" lon="3.0839300459589047"><ele>969.0</ele><time>2026-04-18T08:58:20Z</time></trkpt><trkpt lat="45.476092723453945" lon="3.0839526052965547"><ele>969.0</ele><time>2026-04-18T08:58:21Z</time></trkpt><trkpt lat="45.47592178934162" lon="3.0839732782153697"><ele>969.3333333333333</ele><time>2026-04-18T08:58:22Z</time></trkpt><trkpt lat="45.47575175902001" lon="3.0839935047469775"><ele>969.6666666666666</ele><time>2026-04-18T08:58:23Z</time></trkpt><trkpt lat="45.47560363045323" lon="3.084011125852936"><ele>970.0</ele><time>2026-04-18T08:58:24Z</time></trkpt><trkpt lat="45.47546200975553" lon="3.0840289161836605"><ele>970.25</ele><time>2026-04-18T08:58:25Z</time></trkpt><trkpt lat="45.4753307185832" lon="3.0840451831537417"><ele>970.5</ele><time>2026-04-18T08:58:26Z</time></trkpt><trkpt lat="45.47520608608602" lon="3.084053618870141"><ele>970.75</ele><time>2026-04-18T08:58:27Z</time></trkpt><trkpt lat="45.47508867935229" lon="3.0840458603905527"><ele>971.0</ele><time>2026-04-18T08:58:28Z</time></trkpt><trkpt lat="45.47498248420984" lon="3.08400749408937"><ele>971.0</ele><time>2026-04-18T08:58:29Z</time></trkpt><trkpt lat="45.47488940363802" lon="3.083957544652848"><ele>970.9999999999999</ele><time>2026-04-18T08:58:30Z</time></trkpt><trkpt lat="45.47481182256903" lon="3.08390655519611"><ele>970.9999999999999</ele><time>2026-04-18T08:58:31Z</time></trkpt><trkpt lat="45.47474893628281" lon="3.083869439464504"><ele>971.0</ele><time>2026-04-18T08:58:32Z</time></trkpt><trkpt lat="45.47464191145821" lon="3.083827712022345"><ele>971.0</ele><time>2026-04-18T08:58:34Z</time></trkpt><trkpt lat="45.47453546246681" lon="3.0837383569421535"><ele>970.0</ele><time>2026-04-18T08:58:36Z</time></trkpt><trkpt lat="45.47442247041385" lon="3.083661656660121"><ele>969.0</ele><time>2026-04-18T08:58:37Z</time></trkpt><trkpt lat="45.47429870982425" lon="3.083572432323936"><ele>968.0</ele><time>2026-04-18T08:58:38Z</time></trkpt><trkpt lat="45.474183096793155" lon="3.0834645680904718"><ele>967.0</ele><time>2026-04-18T08:58:39Z</time></trkpt><trkpt lat="45.47405274373801" lon="3.083375950961331"><ele>967.0</ele><time>2026-04-18T08:58:40Z</time></trkpt><trkpt lat="45.47391520239831" lon="3.0832831034110937"><ele>967.0</ele><time>2026-04-18T08:58:41Z</time></trkpt><trkpt lat="45.473779148029905" lon="3.0831896987061285"><ele>967.0</ele><time>2026-04-18T08:58:42Z</time></trkpt><trkpt lat="45.47363426607334" lon="3.0831033332712754"><ele>969.6666666666666</ele><time>2026-04-18T08:58:43Z</time></trkpt><trkpt lat="45.47350489902208" lon="3.0829806267332267"><ele>972.3333333333333</ele><time>2026-04-18T08:58:44Z</time></trkpt><trkpt lat="45.47337877129678" lon="3.0828503528934625"><ele>975.0</ele><time>2026-04-18T08:58:45Z</time></trkpt><trkpt lat="45.47325652292805" lon="3.0827015231870414"><ele>975.0</ele><time>2026-04-18T08:58:46Z</time></trkpt><trkpt lat="45.47313587732737" lon="3.0825514632849536"><ele>975.0</ele><time>2026-04-18T08:58:47Z</time></trkpt><trkpt lat="45.47301653985227" lon="3.08240518682727"><ele>975.0</ele><time>2026-04-18T08:58:48Z</time></trkpt><trkpt lat="45.47290238927253" lon="3.0822669499072615"><ele>975.6666666666667</ele><time>2026-04-18T08:58:49Z</time></trkpt><trkpt lat="45.47279356198086" lon="3.082132100323084"><ele>976.3333333333334</ele><time>2026-04-18T08:58:50Z</time></trkpt><trkpt lat="45.47268189126537" lon="3.08198487253136"><ele>977.0</ele><time>2026-04-18T08:58:51Z</time></trkpt><trkpt lat="45.47255642051821" lon="3.0818430686627347"><ele>977.0</ele><time>2026-04-18T08:58:52Z</time></trkpt><trkpt lat="45.47245046578686" lon="3.0816625618631663"><ele>977.0</ele><time>2026-04-18T08:58:53Z</time></trkpt><trkpt lat="45.47232424222905" lon="3.0815086161072247"><ele>977.0</ele><time>2026-04-18T08:58:54Z</time></trkpt><trkpt lat="45.472213542123825" lon="3.081334581316527"><ele>974.6666666666667</ele><time>2026-04-18T08:58:55Z</time></trkpt><trkpt lat="45.472108364941185" lon="3.0811485166232404"><ele>972.3333333333333</ele><time>2026-04-18T08:58:56Z</time></trkpt><trkpt lat="45.47201918545108" lon="3.0809572900622126"><ele>970.0</ele><time>2026-04-18T08:58:57Z</time></trkpt><trkpt lat="45.47193221184776" lon="3.0807477640916305"><ele>975.6666666666666</ele><time>2026-04-18T08:58:58Z</time></trkpt><trkpt lat="45.47184778046353" lon="3.0805445280897694"><ele>981.3333333333333</ele><time>2026-04-18T08:58:59Z</time></trkpt><trkpt lat="45.47176252047948" lon="3.0803431099662872"><ele>987.0</ele><time>2026-04-18T08:59:00Z</time></trkpt><trkpt lat="45.471675148102214" lon="3.0801352825834107"><ele>990.6666666666667</ele><time>2026-04-18T08:59:01Z</time></trkpt><trkpt lat="45.471603702980005" lon="3.0799212925379393"><ele>994.3333333333334</ele><time>2026-04-18T08:59:02Z</time></trkpt><trkpt lat="45.47152009651125" lon="3.079714140520229"><ele>998.0</ele><time>2026-04-18T08:59:03Z</time></trkpt><trkpt lat="45.47143911624655" lon="3.0795140985876936"><ele>998.0</ele><time>2026-04-18T08:59:04Z</time></trkpt><trkpt lat="45.47134909356034" lon="3.079317421278571"><ele>998.0</ele><time>2026-04-18T08:59:05Z</time></trkpt><trkpt lat="45.47128279690738" lon="3.0791215540144425"><ele>998.0</ele><time>2026-04-18T08:59:06Z</time></trkpt><trkpt lat="45.471232260024024" lon="3.078939140489195"><ele>992.0</ele><time>2026-04-18T08:59:07Z</time></trkpt><trkpt lat="45.47119373049356" lon="3.078765099868253"><ele>986.0</ele><time>2026-04-18T08:59:08Z</time></trkpt><trkpt lat="45.47117766635267" lon="3.0785986370395415"><ele>980.0</ele><time>2026-04-18T08:59:09Z</time></trkpt><trkpt lat="45.47118477907095" lon="3.078426035577324"><ele>974.0</ele><time>2026-04-18T08:59:10Z</time></trkpt><trkpt lat="45.47122787799943" lon="3.078251795382157"><ele>980.25</ele><time>2026-04-18T08:59:11Z</time></trkpt><trkpt lat="45.471301449544136" lon="3.0780729306827173"><ele>986.5</ele><time>2026-04-18T08:59:12Z</time></trkpt><trkpt lat="45.471380339092164" lon="3.077887536363375"><ele>992.75</ele><time>2026-04-18T08:59:13Z</time></trkpt><trkpt lat="45.47143776353055" lon="3.0776877741139095"><ele>999.0</ele><time>2026-04-18T08:59:14Z</time></trkpt><trkpt lat="45.471454887860695" lon="3.0774709267019724"><ele>1000.3333333333333</ele><time>2026-04-18T08:59:15Z</time></trkpt><trkpt lat="45.47143644401972" lon="3.077238847637923"><ele>1001.6666666666666</ele><time>2026-04-18T08:59:16Z</time></trkpt><trkpt lat="45.471392766015825" lon="3.0770009568916032"><ele>1003.0</ele><time>2026-04-18T08:59:17Z</time></trkpt><trkpt lat="45.4713395546655" lon="3.0767404296819474"><ele>1005.6666666666666</ele><time>2026-04-18T08:59:18Z</time></trkpt><trkpt lat="45.4712877123095" lon="3.0764572484584614"><ele>1008.3333333333333</ele><time>2026-04-18T08:59:19Z</time></trkpt><trkpt lat="45.47124174350237" lon="3.0761674804672667"><ele>1011.0</ele><time>2026-04-18T08:59:20Z</time></trkpt><trkpt lat="45.47118704911708" lon="3.0759121079282252"><ele>1008.6666666666667</ele><time>2026-04-18T08:59:21Z</time></trkpt><trkpt lat="45.47110615029141" lon="3.075707373363126"><ele>1006.3333333333334</ele><time>2026-04-18T08:59:22Z</time></trkpt><trkpt lat="45.47100663054483" lon="3.075533431729082"><ele>1004.0</ele><time>2026-04-18T08:59:23Z</time></trkpt><trkpt lat="45.470895434907895" lon="3.0753809811946042"><ele>1004.0</ele><time>2026-04-18T08:59:24Z</time></trkpt><trkpt lat="45.470768481734126" lon="3.075229060692906"><ele>1004.0</ele><time>2026-04-18T08:59:25Z</time></trkpt><trkpt lat="45.47064664451008" lon="3.075080203462009"><ele>1004.0</ele><time>2026-04-18T08:59:26Z</time></trkpt><trkpt lat="45.47056974037482" lon="3.074912214607481"><ele>1008.75</ele><time>2026-04-18T08:59:27Z</time></trkpt><trkpt lat="45.470482265597965" lon="3.07478852990859"><ele>1013.5</ele><time>2026-04-18T08:59:28Z</time></trkpt><trkpt lat="45.47039583365546" lon="3.074693955167621"><ele>1018.25</ele><time>2026-04-18T08:59:29Z</time></trkpt><trkpt lat="45.47028845061518" lon="3.074660470231033"><ele>1023.0</ele><time>2026-04-18T08:59:30Z</time></trkpt><trkpt lat="45.47017194680044" lon="3.0746959575778474"><ele>1023.75</ele><time>2026-04-18T08:59:31Z</time></trkpt><trkpt lat="45.470056338324014" lon="3.0747739893702875"><ele>1024.5</ele><time>2026-04-18T08:59:32Z</time></trkpt><trkpt lat="45.46996009187207" lon="3.0749180478799842"><ele>1025.25</ele><time>2026-04-18T08:59:33Z</time></trkpt><trkpt lat="45.46987535523784" lon="3.07508705421159"><ele>1026.0</ele><time>2026-04-18T08:59:34Z</time></trkpt><trkpt lat="45.46979668537776" lon="3.075259407566956"><ele>1023.6666666666667</ele><time>2026-04-18T08:59:35Z</time></trkpt><trkpt lat="45.46963647161309" lon="3.0752902144079495"><ele>1021.3333333333334</ele><time>2026-04-18T08:59:36Z</time></trkpt><trkpt lat="45.46950501859042" lon="3.0753812633742683"><ele>1019.0</ele><time>2026-04-18T08:59:37Z</time></trkpt><trkpt lat="45.46936426793712" lon="3.075461982878882"><ele>1019.0</ele><time>2026-04-18T08:59:38Z</time></trkpt><trkpt lat="45.46921977490071" lon="3.075538125068328"><ele>1019.0</ele><time>2026-04-18T08:59:39Z</time></trkpt><trkpt lat="45.46906722992044" lon="3.0756072875218927"><ele>1019.0</ele><time>2026-04-18T08:59:40Z</time></trkpt><trkpt lat="45.468909792704906" lon="3.0756556684599174"><ele>1022.3333333333334</ele><time>2026-04-18T08:59:41Z</time></trkpt><trkpt lat="45.46874830220931" lon="3.0756729794457827"><ele>1025.6666666666667</ele><time>2026-04-18T08:59:42Z</time></trkpt><trkpt lat="45.46858277250356" lon="3.0756841815228424"><ele>1029.0</ele><time>2026-04-18T08:59:43Z</time></trkpt><trkpt lat="45.46841557103052" lon="3.0756924891680737"><ele>1029.0</ele><time>2026-04-18T08:59:44Z</time></trkpt><trkpt lat="45.46824527036277" lon="3.075697798043359"><ele>1029.0</ele><time>2026-04-18T08:59:45Z</time></trkpt><trkpt lat="45.4680715870687" lon="3.0757033602802806"><ele>1029.0</ele><time>2026-04-18T08:59:46Z</time></trkpt><trkpt lat="45.46789569168531" lon="3.0757120003002467"><ele>1030.3333333333333</ele><time>2026-04-18T08:59:47Z</time></trkpt><trkpt lat="45.46771552704861" lon="3.075720527593624"><ele>1031.6666666666665</ele><time>2026-04-18T08:59:48Z</time></trkpt><trkpt lat="45.467535680530794" lon="3.075728363042419"><ele>1033.0</ele><time>2026-04-18T08:59:49Z</time></trkpt><trkpt lat="45.467353744574545" lon="3.075734423285128"><ele>1033.0</ele><time>2026-04-18T08:59:50Z</time></trkpt><trkpt lat="45.46717993272514" lon="3.075743646835301"><ele>1033.0</ele><time>2026-04-18T08:59:51Z</time></trkpt><trkpt lat="45.46701343287149" lon="3.0757642181287954"><ele>1033.0</ele><time>2026-04-18T08:59:52Z</time></trkpt><trkpt lat="45.466858929099864" lon="3.0758229194570954"><ele>1030.5</ele><time>2026-04-18T08:59:53Z</time></trkpt><trkpt lat="45.46672504122308" lon="3.075934231077669"><ele>1028.0</ele><time>2026-04-18T08:59:54Z</time></trkpt><trkpt lat="45.466591484838155" lon="3.0760224512811205"><ele>1025.5</ele><time>2026-04-18T08:59:55Z</time></trkpt><trkpt lat="45.46646318833755" lon="3.0761220956173063"><ele>1023.0</ele><time>2026-04-18T08:59:56Z</time></trkpt><trkpt lat="45.466335273973996" lon="3.0761915028044657"><ele>1024.25</ele><time>2026-04-18T08:59:57Z</time></trkpt><trkpt lat="45.46619695488344" lon="3.076225412206074"><ele>1025.5</ele><time>2026-04-18T08:59:58Z</time></trkpt><trkpt lat="45.466054972454515" lon="3.0762403876343702"><ele>1026.75</ele><time>2026-04-18T08:59:59Z</time></trkpt><trkpt lat="45.46591870707015" lon="3.0762486805471085"><ele>1028.0</ele><time>2026-04-18T09:00:00Z</time></trkpt><trkpt lat="45.46578593561313" lon="3.076255377231915"><ele>1028.0</ele><time>2026-04-18T09:00:01Z</time></trkpt><trkpt lat="45.465656326099044" lon="3.076257435325254"><ele>1028.0</ele><time>2026-04-18T09:00:02Z</time></trkpt><trkpt lat="45.465532177405095" lon="3.07624179754315"><ele>1028.0</ele><time>2026-04-18T09:00:03Z</time></trkpt><trkpt lat="45.46541125815564" lon="3.0761997825685317"><ele>1028.0</ele><time>2026-04-18T09:00:04Z</time></trkpt><trkpt lat="45.46530707334282" lon="3.0761108778846746"><ele>1027.0</ele><time>2026-04-18T09:00:05Z</time></trkpt><trkpt lat="45.465192255553106" lon="3.0760056240547935"><ele>1026.0</ele><time>2026-04-18T09:00:06Z</time></trkpt><trkpt lat="45.46507775051262" lon="3.075896593722217"><ele>1025.0</ele><time>2026-04-18T09:00:07Z</time></trkpt><trkpt lat="45.46496487607664" lon="3.0757882247338224"><ele>1024.0</ele><time>2026-04-18T09:00:08Z</time></trkpt><trkpt lat="45.4648469802069" lon="3.0756741984856437"><ele>1023.75</ele><time>2026-04-18T09:00:09Z</time></trkpt><trkpt lat="45.464727352157155" lon="3.075557866962143"><ele>1023.5</ele><time>2026-04-18T09:00:10Z</time></trkpt><trkpt lat="45.4646090154999" lon="3.075438222533639"><ele>1023.25</ele><time>2026-04-18T09:00:11Z</time></trkpt><trkpt lat="45.46449974706728" lon="3.075316001612821"><ele>1023.0</ele><time>2026-04-18T09:00:12Z</time></trkpt><trkpt lat="45.46440998625558" lon="3.075198054671459"><ele>1023.0</ele><time>2026-04-18T09:00:13Z</time></trkpt><trkpt lat="45.464335007815414" lon="3.0750687881881746"><ele>1023.0</ele><time>2026-04-18T09:00:14Z</time></trkpt><trkpt lat="45.464273058924725" lon="3.07492675334855"><ele>1023.0</ele><time>2026-04-18T09:00:15Z</time></trkpt><trkpt lat="45.46422748563171" lon="3.0747643766943606"><ele>1023.0</ele><time>2026-04-18T09:00:16Z</time></trkpt><trkpt lat="45.464182105609666" lon="3.07459488239056"><ele>1025.0</ele><time>2026-04-18T09:00:17Z</time></trkpt><trkpt lat="45.46416587769476" lon="3.0744066867427136"><ele>1027.0</ele><time>2026-04-18T09:00:18Z</time></trkpt><trkpt lat="45.46416161122584" lon="3.0742113537055915"><ele>1029.0</ele><time>2026-04-18T09:00:19Z</time></trkpt><trkpt lat="45.46415422471064" lon="3.0740196461077534"><ele>1031.0</ele><time>2026-04-18T09:00:20Z</time></trkpt><trkpt lat="45.46412502550986" lon="3.073852140629531"><ele>1033.75</ele><time>2026-04-18T09:00:21Z</time></trkpt><trkpt lat="45.464075046718186" lon="3.07369424756753"><ele>1036.5</ele><time>2026-04-18T09:00:22Z</time></trkpt><trkpt lat="45.46400622501404" lon="3.0735429776662855"><ele>1039.25</ele><time>2026-04-18T09:00:23Z</time></trkpt><trkpt lat="45.46391581507135" lon="3.073406846140405"><ele>1042.0</ele><time>2026-04-18T09:00:24Z</time></trkpt><trkpt lat="45.463798322569524" lon="3.0733217486128264"><ele>1041.5</ele><time>2026-04-18T09:00:25Z</time></trkpt><trkpt lat="45.46366665621314" lon="3.073277068392662"><ele>1041.0</ele><time>2026-04-18T09:00:26Z</time></trkpt><trkpt lat="45.463528407821286" lon="3.073262951888005"><ele>1040.5</ele><time>2026-04-18T09:00:27Z</time></trkpt><trkpt lat="45.46338322392235" lon="3.0732662148757854"><ele>1040.0</ele><time>2026-04-18T09:00:28Z</time></trkpt><trkpt lat="45.46324471650038" lon="3.073252817044651"><ele>1040.0</ele><time>2026-04-18T09:00:29Z</time></trkpt><trkpt lat="45.46310828474785" lon="3.0732761741349433"><ele>1040.0</ele><time>2026-04-18T09:00:30Z</time></trkpt><trkpt lat="45.462984735224936" lon="3.0733420610002646"><ele>1040.0</ele><time>2026-04-18T09:00:31Z</time></trkpt><trkpt lat="45.462866862760734" lon="3.073423160699969"><ele>1040.0</ele><time>2026-04-18T09:00:32Z</time></trkpt><trkpt lat="45.46275229261233" lon="3.073528134458482"><ele>1041.0</ele><time>2026-04-18T09:00:33Z</time></trkpt><trkpt lat="45.46263060774906" lon="3.0736113273163155"><ele>1042.0</ele><time>2026-04-18T09:00:34Z</time></trkpt><trkpt lat="45.46251426262073" lon="3.073691254824848"><ele>1043.0</ele><time>2026-04-18T09:00:35Z</time></trkpt><trkpt lat="45.46240276606459" lon="3.073756772088861"><ele>1044.0</ele><time>2026-04-18T09:00:36Z</time></trkpt><trkpt lat="45.46229863693866" lon="3.073811869711932"><ele>1044.0</ele><time>2026-04-18T09:00:37Z</time></trkpt><trkpt lat="45.4621974862938" lon="3.0738645370762177"><ele>1044.0</ele><time>2026-04-18T09:00:38Z</time></trkpt><trkpt lat="45.46210277368822" lon="3.0739139484192095"><ele>1044.0</ele><time>2026-04-18T09:00:39Z</time></trkpt><trkpt lat="45.46201679729895" lon="3.0739603004051785"><ele>1044.0</ele><time>2026-04-18T09:00:40Z</time></trkpt><trkpt lat="45.46193549636069" lon="3.074002472541924"><ele>1044.0</ele><time>2026-04-18T09:00:41Z</time></trkpt><trkpt lat="45.461858924659786" lon="3.074038548023049"><ele>1044.8333333333333</ele><time>2026-04-18T09:00:42Z</time></trkpt><trkpt lat="45.461785873351644" lon="3.074069155319215"><ele>1045.6666666666667</ele><time>2026-04-18T09:00:43Z</time></trkpt><trkpt lat="45.46171850103221" lon="3.074079614018799"><ele>1046.5</ele><time>2026-04-18T09:00:44Z</time></trkpt><trkpt lat="45.461655220033684" lon="3.074079948632542"><ele>1047.3333333333335</ele><time>2026-04-18T09:00:45Z</time></trkpt><trkpt lat="45.46155523509387" lon="3.0740425529624456"><ele>1048.1666666666667</ele><time>2026-04-18T09:00:47Z</time></trkpt><trkpt lat="45.46148062595615" lon="3.0741508491562333"><ele>1049.0</ele><time>2026-04-18T09:00:49Z</time></trkpt><trkpt lat="45.46145146283677" lon="3.0742579731402917"><ele>1046.8</ele><time>2026-04-18T09:00:51Z</time></trkpt><trkpt lat="45.46136581371215" lon="3.074321599850936"><ele>1044.6000000000001</ele><time>2026-04-18T09:00:53Z</time></trkpt><trkpt lat="45.46122691546952" lon="3.0743615579747647"><ele>1042.4</ele><time>2026-04-18T09:00:55Z</time></trkpt><trkpt lat="45.46114551967087" lon="3.074379712094102"><ele>1040.2</ele><time>2026-04-18T09:00:56Z</time></trkpt><trkpt lat="45.46106207055963" lon="3.074387887106498"><ele>1038.0</ele><time>2026-04-18T09:00:57Z</time></trkpt><trkpt lat="45.46096993782229" lon="3.0743866825946657"><ele>1037.4</ele><time>2026-04-18T09:00:58Z</time></trkpt><trkpt lat="45.460875958468286" lon="3.0743712060555515"><ele>1036.8</ele><time>2026-04-18T09:00:59Z</time></trkpt><trkpt lat="45.46077451843556" lon="3.0743418128093887"><ele>1036.2</ele><time>2026-04-18T09:01:00Z</time></trkpt><trkpt lat="45.460665496357535" lon="3.074305755110533"><ele>1035.6</ele><time>2026-04-18T09:01:01Z</time></trkpt><trkpt lat="45.46055183789574" lon="3.0742609598163533"><ele>1035.0</ele><time>2026-04-18T09:01:02Z</time></trkpt><trkpt lat="45.46043321016317" lon="3.0742142058548567"><ele>1035.5</ele><time>2026-04-18T09:01:03Z</time></trkpt><trkpt lat="45.46031071134163" lon="3.0741680565860054"><ele>1036.0</ele><time>2026-04-18T09:01:04Z</time></trkpt><trkpt lat="45.46018570775595" lon="3.0741212684498143"><ele>1036.5</ele><time>2026-04-18T09:01:05Z</time></trkpt><trkpt lat="45.460061109951894" lon="3.074075573906424"><ele>1037.0</ele><time>2026-04-18T09:01:06Z</time></trkpt><trkpt lat="45.45993196241661" lon="3.074039780452628"><ele>1037.0</ele><time>2026-04-18T09:01:07Z</time></trkpt><trkpt lat="45.459797987201945" lon="3.074016914965853"><ele>1037.0</ele><time>2026-04-18T09:01:08Z</time></trkpt><trkpt lat="45.45966865576302" lon="3.0740089506526167"><ele>1037.0</ele><time>2026-04-18T09:01:09Z</time></trkpt><trkpt lat="45.45954522157791" lon="3.074012243754775"><ele>1037.0</ele><time>2026-04-18T09:01:10Z</time></trkpt><trkpt lat="45.45942283794293" lon="3.074020428970252"><ele>1036.25</ele><time>2026-04-18T09:01:11Z</time></trkpt><trkpt lat="45.45929772035652" lon="3.0740326000641227"><ele>1035.5</ele><time>2026-04-18T09:01:12Z</time></trkpt><trkpt lat="45.459171384160136" lon="3.0740448896701835"><ele>1034.75</ele><time>2026-04-18T09:01:13Z</time></trkpt><trkpt lat="45.45904739234091" lon="3.07405695124092"><ele>1034.0</ele><time>2026-04-18T09:01:14Z</time></trkpt><trkpt lat="45.45892666493593" lon="3.0740688403920715"><ele>1034.0</ele><time>2026-04-18T09:01:15Z</time></trkpt><trkpt lat="45.45880469453267" lon="3.074082266559877"><ele>1034.0</ele><time>2026-04-18T09:01:16Z</time></trkpt><trkpt lat="45.458688094858644" lon="3.0741062988878793"><ele>1034.0</ele><time>2026-04-18T09:01:17Z</time></trkpt><trkpt lat="45.45857379560233" lon="3.0741657823541004"><ele>1034.0</ele><time>2026-04-18T09:01:18Z</time></trkpt><trkpt lat="45.45848188305127" lon="3.0742862496949943"><ele>1032.5</ele><time>2026-04-18T09:01:19Z</time></trkpt><trkpt lat="45.45839906668965" lon="3.0744177165936843"><ele>1031.0</ele><time>2026-04-18T09:01:20Z</time></trkpt><trkpt lat="45.45834064451326" lon="3.0745812999536484"><ele>1029.5</ele><time>2026-04-18T09:01:21Z</time></trkpt><trkpt lat="45.45828893162579" lon="3.074759530661923"><ele>1028.0</ele><time>2026-04-18T09:01:22Z</time></trkpt><trkpt lat="45.458248178532955" lon="3.0749487516459255"><ele>1027.25</ele><time>2026-04-18T09:01:23Z</time></trkpt><trkpt lat="45.45820451150944" lon="3.0751328948126253"><ele>1026.5</ele><time>2026-04-18T09:01:24Z</time></trkpt><trkpt lat="45.45815912607212" lon="3.075316655340349"><ele>1025.75</ele><time>2026-04-18T09:01:25Z</time></trkpt><trkpt lat="45.458112441859896" lon="3.0755032134509106"><ele>1025.0</ele><time>2026-04-18T09:01:26Z</time></trkpt><trkpt lat="45.45806212503855" lon="3.075683668919587"><ele>1024.25</ele><time>2026-04-18T09:01:27Z</time></trkpt><trkpt lat="45.45801497693556" lon="3.0758658818151887"><ele>1023.5</ele><time>2026-04-18T09:01:28Z</time></trkpt><trkpt lat="45.45796900582181" lon="3.076042195034421"><ele>1022.75</ele><time>2026-04-18T09:01:29Z</time></trkpt><trkpt lat="45.457920360168664" lon="3.076218685440886"><ele>1022.0</ele><time>2026-04-18T09:01:30Z</time></trkpt><trkpt lat="45.457864380531085" lon="3.076385917920401"><ele>1021.25</ele><time>2026-04-18T09:01:31Z</time></trkpt><trkpt lat="45.45783222062099" lon="3.0765648250532953"><ele>1020.5</ele><time>2026-04-18T09:01:32Z</time></trkpt><trkpt lat="45.45778079680398" lon="3.0767219450892402"><ele>1019.75</ele><time>2026-04-18T09:01:33Z</time></trkpt><trkpt lat="45.457701566627925" lon="3.0768464495987278"><ele>1019.0</ele><time>2026-04-18T09:01:34Z</time></trkpt><trkpt lat="45.45762052682455" lon="3.076937490311738"><ele>1018.4000000000001</ele><time>2026-04-18T09:01:35Z</time></trkpt><trkpt lat="45.45753196547598" lon="3.0769961831314645"><ele>1017.8000000000001</ele><time>2026-04-18T09:01:36Z</time></trkpt><trkpt lat="45.45743710758618" lon="3.0770123296838237"><ele>1017.1999999999999</ele><time>2026-04-18T09:01:37Z</time></trkpt><trkpt lat="45.45734303344105" lon="3.076990395991595"><ele>1016.5999999999999</ele><time>2026-04-18T09:01:38Z</time></trkpt><trkpt lat="45.457246304931665" lon="3.0769395674786533"><ele>1016.0</ele><time>2026-04-18T09:01:39Z</time></trkpt><trkpt lat="45.45716014533117" lon="3.0768540988048207"><ele>1013.1999999999999</ele><time>2026-04-18T09:01:40Z</time></trkpt><trkpt lat="45.45708700391627" lon="3.0767459310993597"><ele>1010.3999999999999</ele><time>2026-04-18T09:01:41Z</time></trkpt><trkpt lat="45.45704532661712" lon="3.0766190591656506"><ele>1007.6</ele><time>2026-04-18T09:01:42Z</time></trkpt><trkpt lat="45.457020374216256" lon="3.0764799698748053"><ele>1004.8</ele><time>2026-04-18T09:01:43Z</time></trkpt><trkpt lat="45.457029937374045" lon="3.0763260598266284"><ele>1002.0</ele><time>2026-04-18T09:01:44Z</time></trkpt><trkpt lat="45.45702026697652" lon="3.076146242224765"><ele>1002.0</ele><time>2026-04-18T09:01:45Z</time></trkpt><trkpt lat="45.457002925926126" lon="3.0759550957225965"><ele>1002.0</ele><time>2026-04-18T09:01:46Z</time></trkpt><trkpt lat="45.45695690311197" lon="3.0757630781546355"><ele>1002.0</ele><time>2026-04-18T09:01:47Z</time></trkpt><trkpt lat="45.4568933013345" lon="3.0755657673926224"><ele>1002.0</ele><time>2026-04-18T09:01:48Z</time></trkpt><trkpt lat="45.45681647938773" lon="3.0753734921854052"><ele>1003.0</ele><time>2026-04-18T09:01:49Z</time></trkpt><trkpt lat="45.45672029538469" lon="3.075188542000407"><ele>1004.0</ele><time>2026-04-18T09:01:50Z</time></trkpt><trkpt lat="45.4566115907655" lon="3.0750061328165676"><ele>1005.0</ele><time>2026-04-18T09:01:51Z</time></trkpt><trkpt lat="45.45649534979973" lon="3.0748242508447934"><ele>1007.0</ele><time>2026-04-18T09:01:52Z</time></trkpt><trkpt lat="45.45638062416686" lon="3.074644499690151"><ele>1009.0</ele><time>2026-04-18T09:01:53Z</time></trkpt><trkpt lat="45.456282394156034" lon="3.0744571649119075"><ele>1011.0</ele><time>2026-04-18T09:01:54Z</time></trkpt><trkpt lat="45.45617837659216" lon="3.0742906011002895"><ele>1007.6666666666667</ele><time>2026-04-18T09:01:55Z</time></trkpt><trkpt lat="45.45606974626979" lon="3.0741327609085833"><ele>1004.3333333333334</ele><time>2026-04-18T09:01:56Z</time></trkpt><trkpt lat="45.45594235570125" lon="3.07399594662502"><ele>1001.0</ele><time>2026-04-18T09:01:57Z</time></trkpt><trkpt lat="45.45580535252516" lon="3.0738723765918006"><ele>1001.0</ele><time>2026-04-18T09:01:58Z</time></trkpt><trkpt lat="45.45566431773512" lon="3.0737403899228206"><ele>1001.0</ele><time>2026-04-18T09:01:59Z</time></trkpt><trkpt lat="45.45553719970867" lon="3.0736031977679117"><ele>1001.0</ele><time>2026-04-18T09:02:00Z</time></trkpt><trkpt lat="45.45541353110942" lon="3.0734657602858624"><ele>998.0</ele><time>2026-04-18T09:02:01Z</time></trkpt><trkpt lat="45.4552958163431" lon="3.0733392272523474"><ele>995.0</ele><time>2026-04-18T09:02:02Z</time></trkpt><trkpt lat="45.455189542522874" lon="3.073224512837812"><ele>992.0</ele><time>2026-04-18T09:02:03Z</time></trkpt><trkpt lat="45.4551049936073" lon="3.0731045883186976"><ele>989.0</ele><time>2026-04-18T09:02:04Z</time></trkpt><trkpt lat="45.45505084913158" lon="3.0729508002584547"><ele>989.0</ele><time>2026-04-18T09:02:05Z</time></trkpt><trkpt lat="45.45501874231264" lon="3.072780587749878"><ele>989.0000000000001</ele><time>2026-04-18T09:02:06Z</time></trkpt><trkpt lat="45.454973589278026" lon="3.072623322884464"><ele>989.0000000000001</ele><time>2026-04-18T09:02:07Z</time></trkpt><trkpt lat="45.45493536758125" lon="3.0724969012722805"><ele>989.0</ele><time>2026-04-18T09:02:08Z</time></trkpt><trkpt lat="45.45487039366319" lon="3.0724183190270558"><ele>989.0</ele><time>2026-04-18T09:02:09Z</time></trkpt><trkpt lat="45.45478985714025" lon="3.072365852299661"><ele>988.4000000000001</ele><time>2026-04-18T09:02:10Z</time></trkpt><trkpt lat="45.454698553953946" lon="3.0723699031136857"><ele>987.8000000000001</ele><time>2026-04-18T09:02:11Z</time></trkpt><trkpt lat="45.45461330186045" lon="3.0723901584627553"><ele>987.1999999999999</ele><time>2026-04-18T09:02:12Z</time></trkpt><trkpt lat="45.45454722507426" lon="3.072495284597295"><ele>986.5999999999999</ele><time>2026-04-18T09:02:13Z</time></trkpt><trkpt lat="45.45452761139856" lon="3.072638857853609"><ele>986.0</ele><time>2026-04-18T09:02:14Z</time></trkpt><trkpt lat="45.45452722679043" lon="3.072767737697465"><ele>986.0</ele><time>2026-04-18T09:02:15Z</time></trkpt><trkpt lat="45.45455671704552" lon="3.0728947512915954"><ele>985.9999999999999</ele><time>2026-04-18T09:02:16Z</time></trkpt><trkpt lat="45.45460952170759" lon="3.0730127996043093"><ele>985.9999999999999</ele><time>2026-04-18T09:02:17Z</time></trkpt><trkpt lat="45.454673063342085" lon="3.073127880590069"><ele>986.0</ele><time>2026-04-18T09:02:18Z</time></trkpt><trkpt lat="45.454731816676336" lon="3.073259092827363"><ele>986.0</ele><time>2026-04-18T09:02:19Z</time></trkpt><trkpt lat="45.454788073323435" lon="3.0733960060563663"><ele>985.25</ele><time>2026-04-18T09:02:20Z</time></trkpt><trkpt lat="45.454840121442565" lon="3.0735412579408847"><ele>984.5</ele><time>2026-04-18T09:02:21Z</time></trkpt><trkpt lat="45.45488636263652" lon="3.073690393061858"><ele>983.75</ele><time>2026-04-18T09:02:22Z</time></trkpt><trkpt lat="45.454950808628936" lon="3.073841834322157"><ele>983.0</ele><time>2026-04-18T09:02:23Z</time></trkpt><trkpt lat="45.45501683191501" lon="3.074004429035952"><ele>981.25</ele><time>2026-04-18T09:02:24Z</time></trkpt><trkpt lat="45.45508226743721" lon="3.074161831719217"><ele>979.5</ele><time>2026-04-18T09:02:25Z</time></trkpt><trkpt lat="45.455137509505306" lon="3.074328964464514"><ele>977.75</ele><time>2026-04-18T09:02:26Z</time></trkpt><trkpt lat="45.455184619749865" lon="3.074507111617941"><ele>976.0</ele><time>2026-04-18T09:02:27Z</time></trkpt><trkpt lat="45.45520806502165" lon="3.074695837201552"><ele>976.0</ele><time>2026-04-18T09:02:28Z</time></trkpt><trkpt lat="45.45523225675089" lon="3.0748698885649945"><ele>976.0</ele><time>2026-04-18T09:02:29Z</time></trkpt><trkpt lat="45.455264876642346" lon="3.0750442819410355"><ele>976.0</ele><time>2026-04-18T09:02:30Z</time></trkpt><trkpt lat="45.45525096065196" lon="3.075223057189819"><ele>976.0</ele><time>2026-04-18T09:02:31Z</time></trkpt><trkpt lat="45.45523273316374" lon="3.075392755392436"><ele>975.5</ele><time>2026-04-18T09:02:32Z</time></trkpt><trkpt lat="45.45519949458375" lon="3.0755769048234227"><ele>975.0</ele><time>2026-04-18T09:02:33Z</time></trkpt><trkpt lat="45.455176138638535" lon="3.0757771490481627"><ele>974.5</ele><time>2026-04-18T09:02:34Z</time></trkpt><trkpt lat="45.455134257233304" lon="3.075987610115392"><ele>974.0</ele><time>2026-04-18T09:02:35Z</time></trkpt><trkpt lat="45.45509981562859" lon="3.0762116676712106"><ele>973.25</ele><time>2026-04-18T09:02:36Z</time></trkpt><trkpt lat="45.45506434447611" lon="3.076413349547658"><ele>972.5</ele><time>2026-04-18T09:02:37Z</time></trkpt><trkpt lat="45.45500133509951" lon="3.0765986230599154"><ele>971.75</ele><time>2026-04-18T09:02:38Z</time></trkpt><trkpt lat="45.4549791927086" lon="3.076789240119156"><ele>971.0</ele><time>2026-04-18T09:02:39Z</time></trkpt><trkpt lat="45.45496546001441" lon="3.0769781977137973"><ele>970.0</ele><time>2026-04-18T09:02:40Z</time></trkpt><trkpt lat="45.454969891905805" lon="3.0771698787745647"><ele>969.0</ele><time>2026-04-18T09:02:41Z</time></trkpt><trkpt lat="45.454981918620014" lon="3.0773846513443774"><ele>968.0</ele><time>2026-04-18T09:02:42Z</time></trkpt><trkpt lat="45.45499790362593" lon="3.077607543351748"><ele>967.0</ele><time>2026-04-18T09:02:43Z</time></trkpt><trkpt lat="45.455020549085766" lon="3.077816241152074"><ele>966.0</ele><time>2026-04-18T09:02:44Z</time></trkpt><trkpt lat="45.45503616385063" lon="3.0780148585680003"><ele>965.0</ele><time>2026-04-18T09:02:45Z</time></trkpt><trkpt lat="45.4550098506956" lon="3.078204764234331"><ele>964.0</ele><time>2026-04-18T09:02:46Z</time></trkpt><trkpt lat="45.45495974930265" lon="3.0783767365988"><ele>963.0</ele><time>2026-04-18T09:02:47Z</time></trkpt><trkpt lat="45.454901145720825" lon="3.0785502028288514"><ele>961.25</ele><time>2026-04-18T09:02:48Z</time></trkpt><trkpt lat="45.45483855388517" lon="3.0787262805552325"><ele>959.5</ele><time>2026-04-18T09:02:49Z</time></trkpt><trkpt lat="45.45479039342354" lon="3.078920740036094"><ele>957.75</ele><time>2026-04-18T09:02:50Z</time></trkpt><trkpt lat="45.45477161016584" lon="3.07912819463086"><ele>956.0</ele><time>2026-04-18T09:02:51Z</time></trkpt><trkpt lat="45.45475803521386" lon="3.07932600168447"><ele>956.0</ele><time>2026-04-18T09:02:52Z</time></trkpt><trkpt lat="45.4547321686966" lon="3.0795198240816677"><ele>956.0</ele><time>2026-04-18T09:02:53Z</time></trkpt><trkpt lat="45.45471382067096" lon="3.079704123631257"><ele>956.0</ele><time>2026-04-18T09:02:54Z</time></trkpt><trkpt lat="45.454685772926226" lon="3.0798798132483527"><ele>956.0</ele><time>2026-04-18T09:02:55Z</time></trkpt><trkpt lat="45.45465002424054" lon="3.080035268957058"><ele>955.8</ele><time>2026-04-18T09:02:56Z</time></trkpt><trkpt lat="45.45459760433634" lon="3.080165317032207"><ele>955.5999999999999</ele><time>2026-04-18T09:02:57Z</time></trkpt><trkpt lat="45.45452210666661" lon="3.080250501838413"><ele>955.4</ele><time>2026-04-18T09:02:58Z</time></trkpt><trkpt lat="45.45444035152868" lon="3.0803160853400016"><ele>955.2</ele><time>2026-04-18T09:02:59Z</time></trkpt><trkpt lat="45.45435758656772" lon="3.080338354285302"><ele>955.0</ele><time>2026-04-18T09:03:00Z</time></trkpt><trkpt lat="45.45427320104881" lon="3.080381743340114"><ele>955.0</ele><time>2026-04-18T09:03:01Z</time></trkpt><trkpt lat="45.45419190824162" lon="3.0804262693418125"><ele>955.0</ele><time>2026-04-18T09:03:02Z</time></trkpt><trkpt lat="45.454113672092554" lon="3.0804782369489385"><ele>955.0</ele><time>2026-04-18T09:03:03Z</time></trkpt><trkpt lat="45.454057405632994" lon="3.080586515663424"><ele>955.0</ele><time>2026-04-18T09:03:04Z</time></trkpt><trkpt lat="45.45397935883237" lon="3.080643284080405"><ele>955.0</ele><time>2026-04-18T09:03:05Z</time></trkpt><trkpt lat="45.45389596458055" lon="3.0807077183016123"><ele>958.0</ele><time>2026-04-18T09:03:06Z</time></trkpt><trkpt lat="45.45379978629651" lon="3.0807743575238127"><ele>961.0</ele><time>2026-04-18T09:03:07Z</time></trkpt><trkpt lat="45.453694994954475" lon="3.0808427220863255"><ele>964.0</ele><time>2026-04-18T09:03:08Z</time></trkpt><trkpt lat="45.45357803032994" lon="3.0808587608136873"><ele>967.0</ele><time>2026-04-18T09:03:09Z</time></trkpt><trkpt lat="45.453463999662006" lon="3.080918688929314"><ele>967.0</ele><time>2026-04-18T09:03:10Z</time></trkpt><trkpt lat="45.45334991887874" lon="3.081000826368446"><ele>967.0</ele><time>2026-04-18T09:03:11Z</time></trkpt><trkpt lat="45.45323355651841" lon="3.0811059814114965"><ele>967.0</ele><time>2026-04-18T09:03:12Z</time></trkpt><trkpt lat="45.45311345024109" lon="3.081219039613648"><ele>967.0</ele><time>2026-04-18T09:03:13Z</time></trkpt><trkpt lat="45.45298662953781" lon="3.081342521121804"><ele>966.6666666666666</ele><time>2026-04-18T09:03:14Z</time></trkpt><trkpt lat="45.45284101034776" lon="3.0814887374595985"><ele>966.3333333333333</ele><time>2026-04-18T09:03:15Z</time></trkpt><trkpt lat="45.452688801483845" lon="3.0816422918441306"><ele>966.0</ele><time>2026-04-18T09:03:16Z</time></trkpt><trkpt lat="45.45255361080769" lon="3.081771772872107"><ele>966.0</ele><time>2026-04-18T09:03:17Z</time></trkpt><trkpt lat="45.45242711575894" lon="3.0818851052812284"><ele>966.0</ele><time>2026-04-18T09:03:18Z</time></trkpt><trkpt lat="45.45229752183861" lon="3.0820106731794006"><ele>966.0</ele><time>2026-04-18T09:03:19Z</time></trkpt><trkpt lat="45.45216921663554" lon="3.0821571689095952"><ele>965.6666666666667</ele><time>2026-04-18T09:03:20Z</time></trkpt><trkpt lat="45.452042688337905" lon="3.0823323395433815"><ele>965.3333333333334</ele><time>2026-04-18T09:03:21Z</time></trkpt><trkpt lat="45.451916861000306" lon="3.0825207841998283"><ele>965.0</ele><time>2026-04-18T09:03:22Z</time></trkpt><trkpt lat="45.45178523368165" lon="3.082726204935377"><ele>965.0</ele><time>2026-04-18T09:03:23Z</time></trkpt><trkpt lat="45.45165960191921" lon="3.082943516464326"><ele>965.0</ele><time>2026-04-18T09:03:24Z</time></trkpt><trkpt lat="45.45153723261384" lon="3.0831822977973085"><ele>965.0</ele><time>2026-04-18T09:03:25Z</time></trkpt><trkpt lat="45.4514122922053" lon="3.083439368149191"><ele>970.3333333333334</ele><time>2026-04-18T09:03:26Z</time></trkpt><trkpt lat="45.451298459524985" lon="3.0836720270398827"><ele>975.6666666666667</ele><time>2026-04-18T09:03:27Z</time></trkpt><trkpt lat="45.451190725154554" lon="3.083879045121792"><ele>981.0</ele><time>2026-04-18T09:03:28Z</time></trkpt><trkpt lat="45.45108543460591" lon="3.0840546733273992"><ele>975.75</ele><time>2026-04-18T09:03:29Z</time></trkpt><trkpt lat="45.45098524643344" lon="3.0842213347214456"><ele>970.5</ele><time>2026-04-18T09:03:30Z</time></trkpt><trkpt lat="45.45090059009632" lon="3.084385502990121"><ele>965.25</ele><time>2026-04-18T09:03:31Z</time></trkpt><trkpt lat="45.45081914487875" lon="3.084532658104147"><ele>960.0</ele><time>2026-04-18T09:03:32Z</time></trkpt><trkpt lat="45.45073359406166" lon="3.084647304022591"><ele>960.0</ele><time>2026-04-18T09:03:33Z</time></trkpt><trkpt lat="45.45062733524436" lon="3.0847451130372434"><ele>960.0</ele><time>2026-04-18T09:03:34Z</time></trkpt><trkpt lat="45.45050584290579" lon="3.0848449056683442"><ele>960.0</ele><time>2026-04-18T09:03:35Z</time></trkpt><trkpt lat="45.45038415202655" lon="3.084970092800063"><ele>960.0</ele><time>2026-04-18T09:03:36Z</time></trkpt><trkpt lat="45.450269868896406" lon="3.085127789936503"><ele>963.3333333333333</ele><time>2026-04-18T09:03:37Z</time></trkpt><trkpt lat="45.450164801712276" lon="3.0853006969503776"><ele>966.6666666666666</ele><time>2026-04-18T09:03:38Z</time></trkpt><trkpt lat="45.45006070606383" lon="3.085485740313212"><ele>970.0</ele><time>2026-04-18T09:03:39Z</time></trkpt><trkpt lat="45.44997266007683" lon="3.0856758203385346"><ele>971.0</ele><time>2026-04-18T09:03:40Z</time></trkpt><trkpt lat="45.449897955202665" lon="3.085837699066678"><ele>972.0</ele><time>2026-04-18T09:03:41Z</time></trkpt><trkpt lat="45.44981754796521" lon="3.085973253909777"><ele>973.0</ele><time>2026-04-18T09:03:42Z</time></trkpt><trkpt lat="45.44972283049904" lon="3.0860473441857956"><ele>974.0</ele><time>2026-04-18T09:03:43Z</time></trkpt><trkpt lat="45.44961178567625" lon="3.08608370877632"><ele>974.0</ele><time>2026-04-18T09:03:44Z</time></trkpt><trkpt lat="45.449471160263975" lon="3.0861174883509053"><ele>974.0</ele><time>2026-04-18T09:03:45Z</time></trkpt><trkpt lat="45.449315161323824" lon="3.08617844703043"><ele>974.0</ele><time>2026-04-18T09:03:46Z</time></trkpt><trkpt lat="45.449153426427266" lon="3.086253916448932"><ele>974.0</ele><time>2026-04-18T09:03:47Z</time></trkpt><trkpt lat="45.44898373405953" lon="3.0862802856897797"><ele>974.0</ele><time>2026-04-18T09:03:48Z</time></trkpt><trkpt lat="45.448822216978556" lon="3.086263510691237"><ele>974.0</ele><time>2026-04-18T09:03:49Z</time></trkpt><trkpt lat="45.44867735464725" lon="3.0862086763660317"><ele>972.3333333333334</ele><time>2026-04-18T09:03:50Z</time></trkpt><trkpt lat="45.44852352568048" lon="3.0861102932739772"><ele>970.6666666666667</ele><time>2026-04-18T09:03:51Z</time></trkpt><trkpt lat="45.44834784634389" lon="3.0859771501795894"><ele>969.0</ele><time>2026-04-18T09:03:52Z</time></trkpt><trkpt lat="45.44816789291696" lon="3.0858189440165953"><ele>968.0</ele><time>2026-04-18T09:03:53Z</time></trkpt><trkpt lat="45.44799320241209" lon="3.085620734804546"><ele>967.0</ele><time>2026-04-18T09:03:54Z</time></trkpt><trkpt lat="45.44782253600024" lon="3.085381261181255"><ele>967.0</ele><time>2026-04-18T09:03:55Z</time></trkpt><trkpt lat="45.44765972279363" lon="3.0851218289610682"><ele>967.0</ele><time>2026-04-18T09:03:56Z</time></trkpt><trkpt lat="45.44749892113026" lon="3.084923110885479"><ele>970.3333333333333</ele><time>2026-04-18T09:03:57Z</time></trkpt><trkpt lat="45.44734624749872" lon="3.0847619300001945"><ele>973.6666666666667</ele><time>2026-04-18T09:03:58Z</time></trkpt><trkpt lat="45.4471887831084" lon="3.084673896434603"><ele>977.0</ele><time>2026-04-18T09:03:59Z</time></trkpt><trkpt lat="45.44703305181144" lon="3.084630509654684"><ele>977.0</ele><time>2026-04-18T09:04:00Z</time></trkpt><trkpt lat="45.44688931987449" lon="3.0846243842709082"><ele>977.0</ele><time>2026-04-18T09:04:01Z</time></trkpt><trkpt lat="45.446775804837955" lon="3.084684497298399"><ele>977.0</ele><time>2026-04-18T09:04:02Z</time></trkpt><trkpt lat="45.4466819891563" lon="3.0848221049444473"><ele>977.0</ele><time>2026-04-18T09:04:03Z</time></trkpt><trkpt lat="45.44661867200995" lon="3.085036794723498"><ele>974.6666666666667</ele><time>2026-04-18T09:04:04Z</time></trkpt><trkpt lat="45.446562268060916" lon="3.0853035388047676"><ele>972.3333333333333</ele><time>2026-04-18T09:04:05Z</time></trkpt><trkpt lat="45.4464552922828" lon="3.0855117462941197"><ele>970.0</ele><time>2026-04-18T09:04:06Z</time></trkpt><trkpt lat="45.44632636874691" lon="3.0856800189491387"><ele>971.25</ele><time>2026-04-18T09:04:07Z</time></trkpt><trkpt lat="45.446221876851865" lon="3.0858061815273783"><ele>972.5</ele><time>2026-04-18T09:04:08Z</time></trkpt><trkpt lat="45.44613513039887" lon="3.0859140709991113"><ele>973.75</ele><time>2026-04-18T09:04:09Z</time></trkpt><trkpt lat="45.44606031589801" lon="3.0860270538897203"><ele>975.0</ele><time>2026-04-18T09:04:10Z</time></trkpt><trkpt lat="45.44601502350028" lon="3.086162802733626"><ele>975.0</ele><time>2026-04-18T09:04:11Z</time></trkpt><trkpt lat="45.4459620091277" lon="3.0862777715052663"><ele>975.0</ele><time>2026-04-18T09:04:12Z</time></trkpt><trkpt lat="45.44592054119554" lon="3.08639661513738"><ele>975.0</ele><time>2026-04-18T09:04:13Z</time></trkpt><trkpt lat="45.445880757964964" lon="3.0865073803328644"><ele>975.0</ele><time>2026-04-18T09:04:14Z</time></trkpt><trkpt lat="45.445824361311914" lon="3.086605604580772"><ele>975.0</ele><time>2026-04-18T09:04:15Z</time></trkpt><trkpt lat="45.44578396237004" lon="3.086710128873377"><ele>974.2857142857142</ele><time>2026-04-18T09:04:16Z</time></trkpt><trkpt lat="45.44574184465508" lon="3.0868104545511765"><ele>973.5714285714284</ele><time>2026-04-18T09:04:17Z</time></trkpt><trkpt lat="45.44569744101803" lon="3.0868973273887446"><ele>972.8571428571429</ele><time>2026-04-18T09:04:18Z</time></trkpt><trkpt lat="45.44564544655423" lon="3.086973317587283"><ele>972.1428571428571</ele><time>2026-04-18T09:04:19Z</time></trkpt><trkpt lat="45.44558889306807" lon="3.0870379905368646"><ele>971.4285714285714</ele><time>2026-04-18T09:04:20Z</time></trkpt><trkpt lat="45.44552984921335" lon="3.0870887761003"><ele>970.7142857142858</ele><time>2026-04-18T09:04:21Z</time></trkpt><trkpt lat="45.44546408495303" lon="3.0871229998975536"><ele>970.0000000000001</ele><time>2026-04-18T09:04:22Z</time></trkpt><trkpt lat="45.445359051444896" lon="3.0871392703012086"><ele>969.0</ele><time>2026-04-18T09:04:24Z</time></trkpt><trkpt lat="45.44523619062842" lon="3.087109578492924"><ele>968.0</ele><time>2026-04-18T09:04:26Z</time></trkpt><trkpt lat="45.44516127345633" lon="3.0870652549020248"><ele>967.0</ele><time>2026-04-18T09:04:27Z</time></trkpt><trkpt lat="45.4450858949865" lon="3.086994706950078"><ele>966.0</ele><time>2026-04-18T09:04:28Z</time></trkpt><trkpt lat="45.44500731461672" lon="3.0869108226068804"><ele>965.0</ele><time>2026-04-18T09:04:29Z</time></trkpt><trkpt lat="45.444918057139986" lon="3.086827617049474"><ele>965.0</ele><time>2026-04-18T09:04:30Z</time></trkpt><trkpt lat="45.44481943175515" lon="3.0867516471684215"><ele>965.0</ele><time>2026-04-18T09:04:31Z</time></trkpt><trkpt lat="45.44470369363667" lon="3.086703722236651"><ele>965.0</ele><time>2026-04-18T09:04:32Z</time></trkpt><trkpt lat="45.44459198726511" lon="3.086652350077936"><ele>965.0</ele><time>2026-04-18T09:04:33Z</time></trkpt><trkpt lat="45.444484056592785" lon="3.0865914070783247"><ele>964.2</ele><time>2026-04-18T09:04:34Z</time></trkpt><trkpt lat="45.44437794720378" lon="3.0865209596536567"><ele>963.4</ele><time>2026-04-18T09:04:35Z</time></trkpt><trkpt lat="45.44427739112714" lon="3.086446340373493"><ele>962.5999999999999</ele><time>2026-04-18T09:04:36Z</time></trkpt><trkpt lat="45.44418501000486" lon="3.086367192571993"><ele>961.8</ele><time>2026-04-18T09:04:37Z</time></trkpt><trkpt lat="45.44409575639891" lon="3.086277693447469"><ele>961.0</ele><time>2026-04-18T09:04:38Z</time></trkpt><trkpt lat="45.44400964482988" lon="3.0861894227213083"><ele>961.0</ele><time>2026-04-18T09:04:39Z</time></trkpt><trkpt lat="45.44391350923107" lon="3.086101922227208"><ele>961.0</ele><time>2026-04-18T09:04:40Z</time></trkpt><trkpt lat="45.44379518790989" lon="3.086043025622216"><ele>961.0</ele><time>2026-04-18T09:04:41Z</time></trkpt><trkpt lat="45.44366050710486" lon="3.086039368962373"><ele>961.0</ele><time>2026-04-18T09:04:42Z</time></trkpt><trkpt lat="45.44353319037436" lon="3.0861301489577446"><ele>961.0</ele><time>2026-04-18T09:04:43Z</time></trkpt><trkpt lat="45.44339606898435" lon="3.0861973578810984"><ele>961.0</ele><time>2026-04-18T09:04:44Z</time></trkpt><trkpt lat="45.44325280353291" lon="3.086287486569915"><ele>961.0</ele><time>2026-04-18T09:04:45Z</time></trkpt><trkpt lat="45.443115407967525" lon="3.086348041766437"><ele>961.0</ele><time>2026-04-18T09:04:46Z</time></trkpt><trkpt lat="45.442977174236574" lon="3.0863870694306903"><ele>962.5</ele><time>2026-04-18T09:04:47Z</time></trkpt><trkpt lat="45.4428478655072" lon="3.086438189012545"><ele>964.0</ele><time>2026-04-18T09:04:48Z</time></trkpt><trkpt lat="45.44272543856633" lon="3.0865117609570265"><ele>965.5</ele><time>2026-04-18T09:04:49Z</time></trkpt><trkpt lat="45.4426097492231" lon="3.0865871667448306"><ele>967.0</ele><time>2026-04-18T09:04:50Z</time></trkpt><trkpt lat="45.44249473972936" lon="3.0866621294017293"><ele>961.25</ele><time>2026-04-18T09:04:51Z</time></trkpt><trkpt lat="45.442381222618046" lon="3.086724575382104"><ele>955.5</ele><time>2026-04-18T09:04:52Z</time></trkpt><trkpt lat="45.44226671854971" lon="3.086768528355087"><ele>949.75</ele><time>2026-04-18T09:04:53Z</time></trkpt><trkpt lat="45.44215393400982" lon="3.08679147247412"><ele>944.0</ele><time>2026-04-18T09:04:54Z</time></trkpt><trkpt lat="45.44204593419658" lon="3.0867891154926896"><ele>942.5</ele><time>2026-04-18T09:04:55Z</time></trkpt><trkpt lat="45.44194296479709" lon="3.0867596361825242"><ele>941.0</ele><time>2026-04-18T09:04:56Z</time></trkpt><trkpt lat="45.44183377177161" lon="3.0867090089644673"><ele>939.5</ele><time>2026-04-18T09:04:57Z</time></trkpt><trkpt lat="45.441708720475106" lon="3.086650846988715"><ele>938.0</ele><time>2026-04-18T09:04:58Z</time></trkpt><trkpt lat="45.44156635877967" lon="3.086591172824675"><ele>938.75</ele><time>2026-04-18T09:04:59Z</time></trkpt><trkpt lat="45.44142502011021" lon="3.086541690681471"><ele>939.5</ele><time>2026-04-18T09:05:00Z</time></trkpt><trkpt lat="45.44129027563411" lon="3.086499994308317"><ele>940.25</ele><time>2026-04-18T09:05:01Z</time></trkpt><trkpt lat="45.44116148306305" lon="3.0864665132822844"><ele>941.0</ele><time>2026-04-18T09:05:02Z</time></trkpt><trkpt lat="45.441036147791586" lon="3.086446972238231"><ele>941.0</ele><time>2026-04-18T09:05:03Z</time></trkpt><trkpt lat="45.44092376106344" lon="3.0864330670291995"><ele>940.9999999999999</ele><time>2026-04-18T09:05:04Z</time></trkpt><trkpt lat="45.44082788745292" lon="3.086418042530311"><ele>940.9999999999999</ele><time>2026-04-18T09:05:05Z</time></trkpt><trkpt lat="45.44074179828379" lon="3.0863864028670873"><ele>941.0</ele><time>2026-04-18T09:05:06Z</time></trkpt><trkpt lat="45.44066591883131" lon="3.086315950565905"><ele>941.0</ele><time>2026-04-18T09:05:07Z</time></trkpt><trkpt lat="45.4406024484139" lon="3.0862246273048752"><ele>941.0</ele><time>2026-04-18T09:05:08Z</time></trkpt><trkpt lat="45.440548362903534" lon="3.0861201457605976"><ele>941.0</ele><time>2026-04-18T09:05:09Z</time></trkpt><trkpt lat="45.44049769373214" lon="3.085999502634861"><ele>941.0</ele><time>2026-04-18T09:05:10Z</time></trkpt><trkpt lat="45.44042995272298" lon="3.085842999286735"><ele>941.0</ele><time>2026-04-18T09:05:11Z</time></trkpt><trkpt lat="45.44037147185362" lon="3.0856491119314264"><ele>939.4</ele><time>2026-04-18T09:05:12Z</time></trkpt><trkpt lat="45.44030947380322" lon="3.085469366282434"><ele>937.8</ele><time>2026-04-18T09:05:13Z</time></trkpt><trkpt lat="45.44025509600955" lon="3.0853225700250495"><ele>936.1999999999999</ele><time>2026-04-18T09:05:14Z</time></trkpt><trkpt lat="45.440192897400976" lon="3.0852149296183073"><ele>934.5999999999999</ele><time>2026-04-18T09:05:15Z</time></trkpt><trkpt lat="45.440127092886605" lon="3.0851460075353314"><ele>933.0</ele><time>2026-04-18T09:05:16Z</time></trkpt><trkpt lat="45.4400529669463" lon="3.0851209749614665"><ele>933.0</ele><time>2026-04-18T09:05:17Z</time></trkpt><trkpt lat="45.43998130978824" lon="3.0850963558248066"><ele>933.0</ele><time>2026-04-18T09:05:18Z</time></trkpt><trkpt lat="45.43990177161851" lon="3.085132777161953"><ele>933.0</ele><time>2026-04-18T09:05:19Z</time></trkpt><trkpt lat="45.43983504580403" lon="3.085185792532871"><ele>933.0</ele><time>2026-04-18T09:05:20Z</time></trkpt><trkpt lat="45.43977947587868" lon="3.0852509668434265"><ele>933.0</ele><time>2026-04-18T09:05:21Z</time></trkpt><trkpt lat="45.43972980027625" lon="3.0853312549188954"><ele>933.0</ele><time>2026-04-18T09:05:22Z</time></trkpt><trkpt lat="45.439690234635826" lon="3.0854253838033054"><ele>933.0</ele><time>2026-04-18T09:05:23Z</time></trkpt><trkpt lat="45.439651921032414" lon="3.0855332893332723"><ele>933.0</ele><time>2026-04-18T09:05:24Z</time></trkpt><trkpt lat="45.43962121041627" lon="3.085651295074211"><ele>933.0</ele><time>2026-04-18T09:05:25Z</time></trkpt><trkpt lat="45.43959405678809" lon="3.085792005253042"><ele>933.0</ele><time>2026-04-18T09:05:26Z</time></trkpt><trkpt lat="45.43956396558614" lon="3.0859469763452974"><ele>933.0</ele><time>2026-04-18T09:05:27Z</time></trkpt><trkpt lat="45.43953907872107" lon="3.086075144783888"><ele>933.75</ele><time>2026-04-18T09:05:28Z</time></trkpt><trkpt lat="45.43950786144316" lon="3.086235915198422"><ele>934.5</ele><time>2026-04-18T09:05:29Z</time></trkpt><trkpt lat="45.43947315771884" lon="3.086422691628409"><ele>935.25</ele><time>2026-04-18T09:05:30Z</time></trkpt><trkpt lat="45.439445253080024" lon="3.0866016630968165"><ele>936.0</ele><time>2026-04-18T09:05:31Z</time></trkpt><trkpt lat="45.439422684645955" lon="3.086783823257108"><ele>936.0</ele><time>2026-04-18T09:05:32Z</time></trkpt><trkpt lat="45.43940316255743" lon="3.0869589416262824"><ele>936.0</ele><time>2026-04-18T09:05:33Z</time></trkpt><trkpt lat="45.43938471653288" lon="3.087124407655688"><ele>936.0</ele><time>2026-04-18T09:05:34Z</time></trkpt><trkpt lat="45.4393649543339" lon="3.087277021322855"><ele>936.0</ele><time>2026-04-18T09:05:35Z</time></trkpt><trkpt lat="45.43935157599201" lon="3.087441792193178"><ele>931.75</ele><time>2026-04-18T09:05:36Z</time></trkpt><trkpt lat="45.439302246252545" lon="3.0876018469383473"><ele>927.5</ele><time>2026-04-18T09:05:37Z</time></trkpt><trkpt lat="45.439251666315045" lon="3.087762085588222"><ele>923.25</ele><time>2026-04-18T09:05:38Z</time></trkpt><trkpt lat="45.439185411259075" lon="3.0879209311340454"><ele>919.0</ele><time>2026-04-18T09:05:39Z</time></trkpt><trkpt lat="45.43910552007483" lon="3.088076391706382"><ele>919.0</ele><time>2026-04-18T09:05:40Z</time></trkpt><trkpt lat="45.43901340579735" lon="3.0882384544264885"><ele>919.0</ele><time>2026-04-18T09:05:41Z</time></trkpt><trkpt lat="45.43891861676337" lon="3.088404848203589"><ele>919.0</ele><time>2026-04-18T09:05:42Z</time></trkpt><trkpt lat="45.43882758657507" lon="3.088564643695982"><ele>919.0</ele><time>2026-04-18T09:05:43Z</time></trkpt><trkpt lat="45.438737188041195" lon="3.088723330276092"><ele>916.0</ele><time>2026-04-18T09:05:44Z</time></trkpt><trkpt lat="45.43864321872238" lon="3.0888843246420374"><ele>913.0</ele><time>2026-04-18T09:05:45Z</time></trkpt><trkpt lat="45.43854007644377" lon="3.089055434948601"><ele>910.0</ele><time>2026-04-18T09:05:46Z</time></trkpt><trkpt lat="45.438426486341186" lon="3.0892309523327413"><ele>910.0</ele><time>2026-04-18T09:05:47Z</time></trkpt><trkpt lat="45.43830859886113" lon="3.0894013675857015"><ele>910.0</ele><time>2026-04-18T09:05:48Z</time></trkpt><trkpt lat="45.438185054560996" lon="3.089573478938409"><ele>910.0</ele><time>2026-04-18T09:05:49Z</time></trkpt><trkpt lat="45.43807559674877" lon="3.0897565574518953"><ele>910.6666666666666</ele><time>2026-04-18T09:05:50Z</time></trkpt><trkpt lat="45.43794619237243" lon="3.089898092635745"><ele>911.3333333333333</ele><time>2026-04-18T09:05:51Z</time></trkpt><trkpt lat="45.43782416813073" lon="3.0900502060876622"><ele>912.0</ele><time>2026-04-18T09:05:52Z</time></trkpt><trkpt lat="45.437722273903695" lon="3.090236975001037"><ele>912.0</ele><time>2026-04-18T09:05:53Z</time></trkpt><trkpt lat="45.43760947094204" lon="3.09041776447562"><ele>912.0</ele><time>2026-04-18T09:05:54Z</time></trkpt><trkpt lat="45.43748798723387" lon="3.0905940307222166"><ele>912.0</ele><time>2026-04-18T09:05:55Z</time></trkpt><trkpt lat="45.437370191444785" lon="3.090769488868683"><ele>909.6666666666667</ele><time>2026-04-18T09:05:56Z</time></trkpt><trkpt lat="45.43725397834712" lon="3.0909289029931966"><ele>907.3333333333334</ele><time>2026-04-18T09:05:57Z</time></trkpt><trkpt lat="45.43713658600825" lon="3.091083721408226"><ele>905.0</ele><time>2026-04-18T09:05:58Z</time></trkpt><trkpt lat="45.4370165797816" lon="3.0912363380908947"><ele>905.0</ele><time>2026-04-18T09:05:59Z</time></trkpt><trkpt lat="45.43688872304194" lon="3.0913904183899814"><ele>905.0</ele><time>2026-04-18T09:06:00Z</time></trkpt><trkpt lat="45.436763415468505" lon="3.0915342058726094"><ele>905.0</ele><time>2026-04-18T09:06:01Z</time></trkpt><trkpt lat="45.43664009255295" lon="3.091667900060656"><ele>900.0</ele><time>2026-04-18T09:06:02Z</time></trkpt><trkpt lat="45.43651683009623" lon="3.0917944567913973"><ele>895.0</ele><time>2026-04-18T09:06:03Z</time></trkpt><trkpt lat="45.43639018252725" lon="3.09191224352166"><ele>890.0</ele><time>2026-04-18T09:06:04Z</time></trkpt><trkpt lat="45.43625484053533" lon="3.0920215469664982"><ele>890.0</ele><time>2026-04-18T09:06:05Z</time></trkpt><trkpt lat="45.43610907402992" lon="3.092120246703214"><ele>890.0</ele><time>2026-04-18T09:06:06Z</time></trkpt><trkpt lat="45.435954856359714" lon="3.092206686227099"><ele>890.0</ele><time>2026-04-18T09:06:07Z</time></trkpt><trkpt lat="45.435795437779404" lon="3.0922879950816524"><ele>890.0</ele><time>2026-04-18T09:06:08Z</time></trkpt><trkpt lat="45.43563815755172" lon="3.092368843042617"><ele>890.0</ele><time>2026-04-18T09:06:09Z</time></trkpt><trkpt lat="45.43548136204709" lon="3.0924508516834215"><ele>890.0</ele><time>2026-04-18T09:06:10Z</time></trkpt><trkpt lat="45.43532112670393" lon="3.0925345823101518"><ele>885.3333333333334</ele><time>2026-04-18T09:06:11Z</time></trkpt><trkpt lat="45.4351585525489" lon="3.092626744525315"><ele>880.6666666666667</ele><time>2026-04-18T09:06:12Z</time></trkpt><trkpt lat="45.43500419750216" lon="3.0927301763877386"><ele>876.0</ele><time>2026-04-18T09:06:13Z</time></trkpt><trkpt lat="45.43485484213838" lon="3.092840589564275"><ele>876.0</ele><time>2026-04-18T09:06:14Z</time></trkpt><trkpt lat="45.43471287359059" lon="3.092949278458904"><ele>876.0</ele><time>2026-04-18T09:06:15Z</time></trkpt><trkpt lat="45.43457651179693" lon="3.0930552112624703"><ele>876.0</ele><time>2026-04-18T09:06:16Z</time></trkpt><trkpt lat="45.4344448183301" lon="3.093160511896854"><ele>872.5</ele><time>2026-04-18T09:06:17Z</time></trkpt><trkpt lat="45.43431561803956" lon="3.0932660490025747"><ele>869.0</ele><time>2026-04-18T09:06:18Z</time></trkpt><trkpt lat="45.43419254973373" lon="3.0933803406375397"><ele>865.5</ele><time>2026-04-18T09:06:19Z</time></trkpt><trkpt lat="45.43407495347866" lon="3.0935006695474105"><ele>862.0</ele><time>2026-04-18T09:06:20Z</time></trkpt><trkpt lat="45.43395501371385" lon="3.093625207183866"><ele>862.0</ele><time>2026-04-18T09:06:21Z</time></trkpt><trkpt lat="45.43383892762137" lon="3.093748415257612"><ele>862.0</ele><time>2026-04-18T09:06:22Z</time></trkpt><trkpt lat="45.43372519919292" lon="3.0938710311415734"><ele>862.0</ele><time>2026-04-18T09:06:23Z</time></trkpt><trkpt lat="45.43361281029124" lon="3.0939908519422743"><ele>862.0</ele><time>2026-04-18T09:06:24Z</time></trkpt><trkpt lat="45.433498618143744" lon="3.094090293529326"><ele>861.6666666666666</ele><time>2026-04-18T09:06:25Z</time></trkpt><trkpt lat="45.43341498688523" lon="3.0942838535055346"><ele>861.3333333333333</ele><time>2026-04-18T09:06:26Z</time></trkpt><trkpt lat="45.43331906695724" lon="3.0944420339900014"><ele>861.0</ele><time>2026-04-18T09:06:27Z</time></trkpt><trkpt lat="45.43323145610238" lon="3.0946215884840838"><ele>861.0</ele><time>2026-04-18T09:06:28Z</time></trkpt><trkpt lat="45.433149580593216" lon="3.094814444183549"><ele>861.0</ele><time>2026-04-18T09:06:29Z</time></trkpt><trkpt lat="45.43308060386784" lon="3.095006664234799"><ele>861.0</ele><time>2026-04-18T09:06:30Z</time></trkpt><trkpt lat="45.433018626122454" lon="3.0952015649168767"><ele>862.6666666666667</ele><time>2026-04-18T09:06:31Z</time></trkpt><trkpt lat="45.43294050026414" lon="3.095397882170908"><ele>864.3333333333334</ele><time>2026-04-18T09:06:32Z</time></trkpt><trkpt lat="45.432891359892146" lon="3.0956216095981137"><ele>866.0</ele><time>2026-04-18T09:06:33Z</time></trkpt><trkpt lat="45.43282883667445" lon="3.095847042377894"><ele>861.6666666666667</ele><time>2026-04-18T09:06:34Z</time></trkpt><trkpt lat="45.432753957458296" lon="3.096062681680716"><ele>857.3333333333333</ele><time>2026-04-18T09:06:35Z</time></trkpt><trkpt lat="45.43270666824542" lon="3.0962935406627263"><ele>853.0</ele><time>2026-04-18T09:06:36Z</time></trkpt><trkpt lat="45.43262903601694" lon="3.096496288481473"><ele>848.3333333333333</ele><time>2026-04-18T09:06:37Z</time></trkpt><trkpt lat="45.43256393905404" lon="3.096704089537202"><ele>843.6666666666667</ele><time>2026-04-18T09:06:38Z</time></trkpt><trkpt lat="45.432496709778974" lon="3.0969165587126954"><ele>839.0</ele><time>2026-04-18T09:06:39Z</time></trkpt><trkpt lat="45.43243401846199" lon="3.0971215048848757"><ele>839.0</ele><time>2026-04-18T09:06:40Z</time></trkpt><trkpt lat="45.43237377677261" lon="3.0973211252286847"><ele>839.0</ele><time>2026-04-18T09:06:41Z</time></trkpt><trkpt lat="45.432310421625004" lon="3.097510179356441"><ele>839.0</ele><time>2026-04-18T09:06:42Z</time></trkpt><trkpt lat="45.43224596516721" lon="3.097687089483255"><ele>839.0</ele><time>2026-04-18T09:06:43Z</time></trkpt><trkpt lat="45.432177958905825" lon="3.0978553588861253"><ele>839.5</ele><time>2026-04-18T09:06:44Z</time></trkpt><trkpt lat="45.432104433666204" lon="3.098005740546217"><ele>840.0</ele><time>2026-04-18T09:06:45Z</time></trkpt><trkpt lat="45.43202061972754" lon="3.0981259459180195"><ele>840.5</ele><time>2026-04-18T09:06:46Z</time></trkpt><trkpt lat="45.43192377148854" lon="3.09822428130981"><ele>841.0</ele><time>2026-04-18T09:06:47Z</time></trkpt><trkpt lat="45.43182637009931" lon="3.098299944815587"><ele>837.5999999999999</ele><time>2026-04-18T09:06:48Z</time></trkpt><trkpt lat="45.43172746613503" lon="3.098350582593385"><ele>834.2</ele><time>2026-04-18T09:06:49Z</time></trkpt><trkpt lat="45.4316302100177" lon="3.09836777783073"><ele>830.8</ele><time>2026-04-18T09:06:50Z</time></trkpt><trkpt lat="45.431532433834725" lon="3.0983474584483788"><ele>827.4000000000001</ele><time>2026-04-18T09:06:51Z</time></trkpt><trkpt lat="45.4314068445286" lon="3.0983148748088913"><ele>824.0</ele><time>2026-04-18T09:06:52Z</time></trkpt><trkpt lat="45.43127102480532" lon="3.0983019619532723"><ele>823.25</ele><time>2026-04-18T09:06:53Z</time></trkpt><trkpt lat="45.43112394877522" lon="3.0983377979177167"><ele>822.5</ele><time>2026-04-18T09:06:54Z</time></trkpt><trkpt lat="45.43098660785057" lon="3.0984146282964593"><ele>821.75</ele><time>2026-04-18T09:06:55Z</time></trkpt><trkpt lat="45.43084879733744" lon="3.098457650252124"><ele>821.0</ele><time>2026-04-18T09:06:56Z</time></trkpt><trkpt lat="45.43072551370371" lon="3.0985450300585455"><ele>821.0</ele><time>2026-04-18T09:06:57Z</time></trkpt><trkpt lat="45.43061164745934" lon="3.098649353524675"><ele>821.0</ele><time>2026-04-18T09:06:58Z</time></trkpt><trkpt lat="45.43051085657809" lon="3.098766963378983"><ele>821.0</ele><time>2026-04-18T09:06:59Z</time></trkpt><trkpt lat="45.43043941013447" lon="3.098915547668139"><ele>821.0</ele><time>2026-04-18T09:07:00Z</time></trkpt><trkpt lat="45.430364190769396" lon="3.0990345831803965"><ele>819.0</ele><time>2026-04-18T09:07:01Z</time></trkpt><trkpt lat="45.43028835925663" lon="3.099152271273298"><ele>817.0</ele><time>2026-04-18T09:07:02Z</time></trkpt><trkpt lat="45.43018362283592" lon="3.099201733007555"><ele>815.0</ele><time>2026-04-18T09:07:03Z</time></trkpt><trkpt lat="45.43008196330518" lon="3.099256503418309"><ele>813.0</ele><time>2026-04-18T09:07:04Z</time></trkpt><trkpt lat="45.42996759610791" lon="3.0992753305890117"><ele>811.0</ele><time>2026-04-18T09:07:05Z</time></trkpt><trkpt lat="45.42983508625566" lon="3.099296335423189"><ele>811.0</ele><time>2026-04-18T09:07:06Z</time></trkpt><trkpt lat="45.42970769337878" lon="3.0992111393603508"><ele>811.0</ele><time>2026-04-18T09:07:07Z</time></trkpt><trkpt lat="45.42957712542203" lon="3.0991754556724675"><ele>811.0</ele><time>2026-04-18T09:07:08Z</time></trkpt><trkpt lat="45.42945984975564" lon="3.099163300397239"><ele>811.0</ele><time>2026-04-18T09:07:09Z</time></trkpt><trkpt lat="45.42935496363299" lon="3.0991948713038595"><ele>813.25</ele><time>2026-04-18T09:07:10Z</time></trkpt><trkpt lat="45.429275407328525" lon="3.09931888036953"><ele>815.5</ele><time>2026-04-18T09:07:11Z</time></trkpt><trkpt lat="45.429216956495964" lon="3.099465494453294"><ele>817.75</ele><time>2026-04-18T09:07:12Z</time></trkpt><trkpt lat="45.42918430603483" lon="3.099661539280466"><ele>820.0</ele><time>2026-04-18T09:07:13Z</time></trkpt><trkpt lat="45.429161647608964" lon="3.099877834269187"><ele>815.25</ele><time>2026-04-18T09:07:14Z</time></trkpt><trkpt lat="45.429087089995974" lon="3.1000551378949943"><ele>810.5</ele><time>2026-04-18T09:07:15Z</time></trkpt><trkpt lat="45.429007294346725" lon="3.1002211786816223"><ele>805.75</ele><time>2026-04-18T09:07:16Z</time></trkpt><trkpt lat="45.42893131175559" lon="3.100385218033774"><ele>801.0</ele><time>2026-04-18T09:07:17Z</time></trkpt><trkpt lat="45.428860996132855" lon="3.100551278571761"><ele>803.75</ele><time>2026-04-18T09:07:18Z</time></trkpt><trkpt lat="45.42879095139811" lon="3.100712723879807"><ele>806.5</ele><time>2026-04-18T09:07:19Z</time></trkpt><trkpt lat="45.42869618469229" lon="3.1008634601572753"><ele>809.25</ele><time>2026-04-18T09:07:20Z</time></trkpt><trkpt lat="45.42857733077119" lon="3.1009931064336236"><ele>812.0</ele><time>2026-04-18T09:07:21Z</time></trkpt><trkpt lat="45.42847398938784" lon="3.1011546912819288"><ele>812.0</ele><time>2026-04-18T09:07:22Z</time></trkpt><trkpt lat="45.42838835172909" lon="3.1013315366414536"><ele>812.0</ele><time>2026-04-18T09:07:23Z</time></trkpt><trkpt lat="45.42827914942687" lon="3.1014685181876573"><ele>812.0</ele><time>2026-04-18T09:07:24Z</time></trkpt><trkpt lat="45.42818050328223" lon="3.1016097626231414"><ele>812.0</ele><time>2026-04-18T09:07:25Z</time></trkpt><trkpt lat="45.42808485911419" lon="3.1017467086983035"><ele>808.75</ele><time>2026-04-18T09:07:26Z</time></trkpt><trkpt lat="45.427992099065285" lon="3.1018659466153506"><ele>805.5</ele><time>2026-04-18T09:07:27Z</time></trkpt><trkpt lat="45.42789914726343" lon="3.1019632925704763"><ele>802.25</ele><time>2026-04-18T09:07:28Z</time></trkpt><trkpt lat="45.42780143642546" lon="3.1020240525439897"><ele>799.0</ele><time>2026-04-18T09:07:28.999Z</time></trkpt><trkpt lat="45.42769187531716" lon="3.102062083354197"><ele>799.0</ele><time>2026-04-18T09:07:29.999Z</time></trkpt><trkpt lat="45.427570293287445" lon="3.1020626157072138"><ele>799.0</ele><time>2026-04-18T09:07:30.999Z</time></trkpt><trkpt lat="45.42743225600985" lon="3.102093232689497"><ele>799.0</ele><time>2026-04-18T09:07:31.999Z</time></trkpt><trkpt lat="45.42729616663777" lon="3.102180640511658"><ele>799.0</ele><time>2026-04-18T09:07:32.999Z</time></trkpt><trkpt lat="45.42718200197127" lon="3.1023146184617896"><ele>796.25</ele><time>2026-04-18T09:07:33.999Z</time></trkpt><trkpt lat="45.42706453423017" lon="3.1024265240357476"><ele>793.5</ele><time>2026-04-18T09:07:34.999Z</time></trkpt><trkpt lat="45.42698491617244" lon="3.1025882217335035"><ele>790.75</ele><time>2026-04-18T09:07:36Z</time></trkpt><trkpt lat="45.4269119377769" lon="3.1027408299081864"><ele>788.0</ele><time>2026-04-18T09:07:37Z</time></trkpt><trkpt lat="45.42682464440192" lon="3.102878134514833"><ele>788.0</ele><time>2026-04-18T09:07:38Z</time></trkpt><trkpt lat="45.42675248539494" lon="3.103012866919375"><ele>788.0</ele><time>2026-04-18T09:07:39Z</time></trkpt><trkpt lat="45.42666663375798" lon="3.1031154239927536"><ele>788.0</ele><time>2026-04-18T09:07:40Z</time></trkpt><trkpt lat="45.42656995345452" lon="3.1031876279641133"><ele>788.0</ele><time>2026-04-18T09:07:41Z</time></trkpt><trkpt lat="45.42647050345937" lon="3.1031936495380044"><ele>788.0</ele><time>2026-04-18T09:07:42Z</time></trkpt><trkpt lat="45.42636619369736" lon="3.103194861771341"><ele>786.25</ele><time>2026-04-18T09:07:43Z</time></trkpt><trkpt lat="45.42625638979434" lon="3.1032015094479566"><ele>784.5</ele><time>2026-04-18T09:07:44Z</time></trkpt><trkpt lat="45.42615158027748" lon="3.1032400937843114"><ele>782.75</ele><time>2026-04-18T09:07:45Z</time></trkpt><trkpt lat="45.426071744589" lon="3.103378435102321"><ele>781.0</ele><time>2026-04-18T09:07:46Z</time></trkpt><trkpt lat="45.42601002362589" lon="3.103551102186198"><ele>781.0</ele><time>2026-04-18T09:07:47Z</time></trkpt><trkpt lat="45.42595485234761" lon="3.1037504619863436"><ele>781.0</ele><time>2026-04-18T09:07:48Z</time></trkpt><trkpt lat="45.425896893483554" lon="3.1039677164748802"><ele>781.0</ele><time>2026-04-18T09:07:49Z</time></trkpt><trkpt lat="45.425836654039486" lon="3.1041785674955906"><ele>777.75</ele><time>2026-04-18T09:07:50Z</time></trkpt><trkpt lat="45.4257876036913" lon="3.1043710738174926"><ele>774.5</ele><time>2026-04-18T09:07:51Z</time></trkpt><trkpt lat="45.425749799843096" lon="3.1045600289289492"><ele>771.25</ele><time>2026-04-18T09:07:52Z</time></trkpt><trkpt lat="45.42572302777644" lon="3.1047458617643353"><ele>768.0</ele><time>2026-04-18T09:07:53Z</time></trkpt><trkpt lat="45.42570118507007" lon="3.1049287345419083"><ele>765.0</ele><time>2026-04-18T09:07:54Z</time></trkpt><trkpt lat="45.425680239454735" lon="3.105109052162471"><ele>762.0</ele><time>2026-04-18T09:07:55Z</time></trkpt><trkpt lat="45.42565785253918" lon="3.105285883806498"><ele>759.0</ele><time>2026-04-18T09:07:56Z</time></trkpt><trkpt lat="45.42560463134965" lon="3.105440072428597"><ele>756.0</ele><time>2026-04-18T09:07:57Z</time></trkpt><trkpt lat="45.42553617730854" lon="3.105586748425905"><ele>757.25</ele><time>2026-04-18T09:07:58Z</time></trkpt><trkpt lat="45.42544394609074" lon="3.1057203828657354"><ele>758.5</ele><time>2026-04-18T09:07:59Z</time></trkpt><trkpt lat="45.425334125796255" lon="3.10585958926426"><ele>759.75</ele><time>2026-04-18T09:08:00Z</time></trkpt><trkpt lat="45.42521977947401" lon="3.105991218277273"><ele>761.0</ele><time>2026-04-18T09:08:01Z</time></trkpt><trkpt lat="45.42508836482335" lon="3.1061234613875284"><ele>761.0</ele><time>2026-04-18T09:08:02Z</time></trkpt><trkpt lat="45.42494209883388" lon="3.106234123405183"><ele>761.0</ele><time>2026-04-18T09:08:03Z</time></trkpt><trkpt lat="45.42475324268129" lon="3.1063293705420043"><ele>761.0</ele><time>2026-04-18T09:08:04Z</time></trkpt><trkpt lat="45.42454028869224" lon="3.1064574025557468"><ele>757.6666666666666</ele><time>2026-04-18T09:08:05Z</time></trkpt><trkpt lat="45.42435579602208" lon="3.1066648886366606"><ele>754.3333333333334</ele><time>2026-04-18T09:08:06Z</time></trkpt><trkpt lat="45.424197862808704" lon="3.1068643894827495"><ele>751.0</ele><time>2026-04-18T09:08:07Z</time></trkpt><trkpt lat="45.42404232804905" lon="3.1070278309357477"><ele>751.0</ele><time>2026-04-18T09:08:08Z</time></trkpt><trkpt lat="45.423901731068554" lon="3.107197386170967"><ele>751.0</ele><time>2026-04-18T09:08:09Z</time></trkpt><trkpt lat="45.423769536695836" lon="3.107359176312698"><ele>751.0</ele><time>2026-04-18T09:08:10Z</time></trkpt><trkpt lat="45.42366647094901" lon="3.1075501965059478"><ele>747.6666666666667</ele><time>2026-04-18T09:08:11Z</time></trkpt><trkpt lat="45.42355994539696" lon="3.107723036456339"><ele>744.3333333333334</ele><time>2026-04-18T09:08:12Z</time></trkpt><trkpt lat="45.4234580051643" lon="3.107889864091203"><ele>741.0</ele><time>2026-04-18T09:08:13Z</time></trkpt><trkpt lat="45.42334387650181" lon="3.1080461043725904"><ele>741.0</ele><time>2026-04-18T09:08:14Z</time></trkpt><trkpt lat="45.42323267797929" lon="3.108224661471037"><ele>741.0</ele><time>2026-04-18T09:08:15Z</time></trkpt><trkpt lat="45.42311512418361" lon="3.1084052122669164"><ele>741.0</ele><time>2026-04-18T09:08:16Z</time></trkpt><trkpt lat="45.42299306629611" lon="3.108578898795092"><ele>738.3333333333334</ele><time>2026-04-18T09:08:17Z</time></trkpt><trkpt lat="45.422873810077874" lon="3.1087318565985655"><ele>735.6666666666667</ele><time>2026-04-18T09:08:18Z</time></trkpt><trkpt lat="45.42275132399344" lon="3.1088849774645873"><ele>733.0</ele><time>2026-04-18T09:08:19Z</time></trkpt><trkpt lat="45.42263101050366" lon="3.1090301988178837"><ele>733.6666666666667</ele><time>2026-04-18T09:08:20Z</time></trkpt><trkpt lat="45.42250209483227" lon="3.1091620594306737"><ele>734.3333333333334</ele><time>2026-04-18T09:08:21Z</time></trkpt><trkpt lat="45.42236086147146" lon="3.1092922872671753"><ele>735.0</ele><time>2026-04-18T09:08:22Z</time></trkpt><trkpt lat="45.4222112242386" lon="3.1094038666100854"><ele>733.0</ele><time>2026-04-18T09:08:23Z</time></trkpt><trkpt lat="45.422057265286924" lon="3.1095131596115193"><ele>731.0</ele><time>2026-04-18T09:08:24Z</time></trkpt><trkpt lat="45.42189397358218" lon="3.1096266150054936"><ele>729.0</ele><time>2026-04-18T09:08:25Z</time></trkpt><trkpt lat="45.42172734701855" lon="3.109739753254919"><ele>729.0</ele><time>2026-04-18T09:08:26Z</time></trkpt><trkpt lat="45.421567308529085" lon="3.1098483513378214"><ele>729.0</ele><time>2026-04-18T09:08:27Z</time></trkpt><trkpt lat="45.42141090955198" lon="3.109953682055091"><ele>729.0</ele><time>2026-04-18T09:08:28Z</time></trkpt><trkpt lat="45.42125475246031" lon="3.1100584506015143"><ele>727.6666666666666</ele><time>2026-04-18T09:08:29Z</time></trkpt><trkpt lat="45.42109637267357" lon="3.1101647113572035"><ele>726.3333333333333</ele><time>2026-04-18T09:08:30Z</time></trkpt><trkpt lat="45.420941006135635" lon="3.1102702637497024"><ele>725.0</ele><time>2026-04-18T09:08:31Z</time></trkpt><trkpt lat="45.42079407295433" lon="3.110386378779546"><ele>725.0</ele><time>2026-04-18T09:08:32Z</time></trkpt><trkpt lat="45.42065799528317" lon="3.1105296736946246"><ele>725.0</ele><time>2026-04-18T09:08:33Z</time></trkpt><trkpt lat="45.42055323382279" lon="3.1107187409850616"><ele>725.0</ele><time>2026-04-18T09:08:34Z</time></trkpt><trkpt lat="45.4204464405513" lon="3.110924648656963"><ele>721.3333333333333</ele><time>2026-04-18T09:08:35Z</time></trkpt><trkpt lat="45.42031769332404" lon="3.1111392733230465"><ele>717.6666666666666</ele><time>2026-04-18T09:08:36Z</time></trkpt><trkpt lat="45.420202670096174" lon="3.1113622097358795"><ele>714.0</ele><time>2026-04-18T09:08:37Z</time></trkpt><trkpt lat="45.420090533964945" lon="3.1115746066159025"><ele>712.3333333333334</ele><time>2026-04-18T09:08:38Z</time></trkpt><trkpt lat="45.41998260615037" lon="3.1117790321644625"><ele>710.6666666666667</ele><time>2026-04-18T09:08:39Z</time></trkpt><trkpt lat="45.41987429185745" lon="3.1119836095589264"><ele>709.0</ele><time>2026-04-18T09:08:40Z</time></trkpt><trkpt lat="45.41976846513529" lon="3.1121825839565544"><ele>709.0</ele><time>2026-04-18T09:08:41Z</time></trkpt><trkpt lat="45.419663353451384" lon="3.1123802140389847"><ele>709.0</ele><time>2026-04-18T09:08:42Z</time></trkpt><trkpt lat="45.41956408932483" lon="3.1125668494257925"><ele>709.0</ele><time>2026-04-18T09:08:43Z</time></trkpt><trkpt lat="45.41946730745283" lon="3.1127537853507428"><ele>707.3333333333334</ele><time>2026-04-18T09:08:44Z</time></trkpt><trkpt lat="45.419376169215404" lon="3.112933972774291"><ele>705.6666666666666</ele><time>2026-04-18T09:08:45Z</time></trkpt><trkpt lat="45.419291219556214" lon="3.1131030397196637"><ele>704.0</ele><time>2026-04-18T09:08:46Z</time></trkpt><trkpt lat="45.41920461571406" lon="3.113282523887886"><ele>703.3333333333333</ele><time>2026-04-18T09:08:47Z</time></trkpt><trkpt lat="45.419120145470515" lon="3.113465458424628"><ele>702.6666666666666</ele><time>2026-04-18T09:08:48Z</time></trkpt><trkpt lat="45.4190410989502" lon="3.1136500451379683"><ele>702.0</ele><time>2026-04-18T09:08:49Z</time></trkpt><trkpt lat="45.41896504354423" lon="3.1138433483550925"><ele>702.0</ele><time>2026-04-18T09:08:50Z</time></trkpt><trkpt lat="45.41889376191942" lon="3.1140405824857456"><ele>702.0</ele><time>2026-04-18T09:08:51Z</time></trkpt><trkpt lat="45.41884679425078" lon="3.114259319807482"><ele>702.0</ele><time>2026-04-18T09:08:52Z</time></trkpt><trkpt lat="45.41878344042587" lon="3.114466711403568"><ele>701.6666666666666</ele><time>2026-04-18T09:08:53Z</time></trkpt><trkpt lat="45.41872009399186" lon="3.1146794832411278"><ele>701.3333333333333</ele><time>2026-04-18T09:08:54Z</time></trkpt><trkpt lat="45.41865682617534" lon="3.11488899274858"><ele>701.0</ele><time>2026-04-18T09:08:55Z</time></trkpt><trkpt lat="45.41859296317216" lon="3.1151009331154587"><ele>700.3333333333333</ele><time>2026-04-18T09:08:56Z</time></trkpt><trkpt lat="45.41853287913643" lon="3.115321866910638"><ele>699.6666666666666</ele><time>2026-04-18T09:08:57Z</time></trkpt><trkpt lat="45.418479227285964" lon="3.1155418001871293"><ele>699.0</ele><time>2026-04-18T09:08:58Z</time></trkpt><trkpt lat="45.4184127306181" lon="3.115760693404416"><ele>698.3333333333334</ele><time>2026-04-18T09:08:59Z</time></trkpt><trkpt lat="45.41835237801493" lon="3.115982780588735"><ele>697.6666666666667</ele><time>2026-04-18T09:09:00Z</time></trkpt><trkpt lat="45.41828614043144" lon="3.1161902629481206"><ele>697.0</ele><time>2026-04-18T09:09:01Z</time></trkpt><trkpt lat="45.41820469336033" lon="3.1163962514556856"><ele>697.0</ele><time>2026-04-18T09:09:02Z</time></trkpt><trkpt lat="45.41811996908558" lon="3.1166016755082144"><ele>697.0</ele><time>2026-04-18T09:09:03Z</time></trkpt><trkpt lat="45.41803494963077" lon="3.116801631536388"><ele>697.0</ele><time>2026-04-18T09:09:04Z</time></trkpt><trkpt lat="45.41794924082345" lon="3.1170032079002707"><ele>697.0</ele><time>2026-04-18T09:09:05Z</time></trkpt><trkpt lat="45.41786474449389" lon="3.1172043974731434"><ele>697.0</ele><time>2026-04-18T09:09:06Z</time></trkpt><trkpt lat="45.417799956069054" lon="3.117403615077193"><ele>697.0</ele><time>2026-04-18T09:09:07Z</time></trkpt><trkpt lat="45.417721533729015" lon="3.1175827817528754"><ele>697.0</ele><time>2026-04-18T09:09:07.999Z</time></trkpt><trkpt lat="45.41762967593788" lon="3.117734501575096"><ele>697.0</ele><time>2026-04-18T09:09:08.999Z</time></trkpt><trkpt lat="45.417546226798244" lon="3.117886939953694"><ele>697.0</ele><time>2026-04-18T09:09:09.999Z</time></trkpt><trkpt lat="45.41747957981394" lon="3.118043089542014"><ele>697.0</ele><time>2026-04-18T09:09:10.999Z</time></trkpt><trkpt lat="45.41740285120003" lon="3.118177860525928"><ele>696.5</ele><time>2026-04-18T09:09:11.999Z</time></trkpt><trkpt lat="45.41733985716083" lon="3.1183106610920137"><ele>696.0</ele><time>2026-04-18T09:09:12.999Z</time></trkpt><trkpt lat="45.417284277693206" lon="3.118446365843858"><ele>695.5</ele><time>2026-04-18T09:09:13.999Z</time></trkpt><trkpt lat="45.41722979283791" lon="3.1185895194467923"><ele>695.0</ele><time>2026-04-18T09:09:14.999Z</time></trkpt><trkpt lat="45.41717294980533" lon="3.1187342494539667"><ele>695.0</ele><time>2026-04-18T09:09:15.999Z</time></trkpt><trkpt lat="45.41710216764977" lon="3.118873035626934"><ele>695.0</ele><time>2026-04-18T09:09:16.999Z</time></trkpt><trkpt lat="45.41706329224865" lon="3.119036129791263"><ele>695.0</ele><time>2026-04-18T09:09:17.999Z</time></trkpt><trkpt lat="45.41700853066119" lon="3.119189140171312"><ele>695.0</ele><time>2026-04-18T09:09:18.999Z</time></trkpt><trkpt lat="45.41695891832575" lon="3.1193348594703094"><ele>695.0</ele><time>2026-04-18T09:09:19.999Z</time></trkpt><trkpt lat="45.41690871000212" lon="3.119484645854164"><ele>695.0</ele><time>2026-04-18T09:09:20.999Z</time></trkpt><trkpt lat="45.41685467102595" lon="3.1196422342522063"><ele>695.0</ele><time>2026-04-18T09:09:21.999Z</time></trkpt><trkpt lat="45.416774378738836" lon="3.119785740865668"><ele>695.0</ele><time>2026-04-18T09:09:22.999Z</time></trkpt><trkpt lat="45.41669620638484" lon="3.119941453765436"><ele>694.25</ele><time>2026-04-18T09:09:23.999Z</time></trkpt><trkpt lat="45.41661781787268" lon="3.1201015272888246"><ele>693.5</ele><time>2026-04-18T09:09:24.999Z</time></trkpt><trkpt lat="45.416546135999155" lon="3.1202751930341788"><ele>692.75</ele><time>2026-04-18T09:09:25.999Z</time></trkpt><trkpt lat="45.41646299588429" lon="3.120439464369585"><ele>692.0</ele><time>2026-04-18T09:09:26.999Z</time></trkpt><trkpt lat="45.416373344161954" lon="3.1206100944077892"><ele>689.6666666666666</ele><time>2026-04-18T09:09:27.999Z</time></trkpt><trkpt lat="45.4162843171776" lon="3.1207849278692916"><ele>687.3333333333334</ele><time>2026-04-18T09:09:28.999Z</time></trkpt><trkpt lat="45.416196276294954" lon="3.1209666430168497"><ele>685.0</ele><time>2026-04-18T09:09:29.999Z</time></trkpt><trkpt lat="45.41610464918964" lon="3.1211540759258773"><ele>685.0</ele><time>2026-04-18T09:09:30.999Z</time></trkpt><trkpt lat="45.41600932829496" lon="3.121340704323283"><ele>685.0</ele><time>2026-04-18T09:09:31.999Z</time></trkpt><trkpt lat="45.415909063887646" lon="3.1215248792644408"><ele>685.0</ele><time>2026-04-18T09:09:32.999Z</time></trkpt><trkpt lat="45.41581717176238" lon="3.1217143889159398"><ele>684.5</ele><time>2026-04-18T09:09:33.999Z</time></trkpt><trkpt lat="45.41572953768356" lon="3.121885822898455"><ele>684.0</ele><time>2026-04-18T09:09:34.999Z</time></trkpt><trkpt lat="45.4156409365579" lon="3.1220494899870794"><ele>683.5</ele><time>2026-04-18T09:09:35.999Z</time></trkpt><trkpt lat="45.415550549305905" lon="3.122193812570991"><ele>683.0</ele><time>2026-04-18T09:09:36.999Z</time></trkpt><trkpt lat="45.41546182451702" lon="3.1223325373839597"><ele>682.0</ele><time>2026-04-18T09:09:37.999Z</time></trkpt><trkpt lat="45.41534830389695" lon="3.1224587000604074"><ele>681.0</ele><time>2026-04-18T09:09:38.999Z</time></trkpt><trkpt lat="45.41526125730847" lon="3.1226267845826277"><ele>680.0</ele><time>2026-04-18T09:09:39.999Z</time></trkpt><trkpt lat="45.415172713217956" lon="3.1227955586850538"><ele>679.0</ele><time>2026-04-18T09:09:41Z</time></trkpt><trkpt lat="45.41509310486084" lon="3.122979266098845"><ele>679.0</ele><time>2026-04-18T09:09:42Z</time></trkpt><trkpt lat="45.415017117728404" lon="3.1231659639092793"><ele>679.0</ele><time>2026-04-18T09:09:43Z</time></trkpt><trkpt lat="45.41492489804743" lon="3.123336544831302"><ele>679.0</ele><time>2026-04-18T09:09:44Z</time></trkpt><trkpt lat="45.41486043385956" lon="3.1235257864210713"><ele>678.3333333333334</ele><time>2026-04-18T09:09:45Z</time></trkpt><trkpt lat="45.414784686068764" lon="3.123710015881862"><ele>677.6666666666666</ele><time>2026-04-18T09:09:46Z</time></trkpt><trkpt lat="45.41471207777246" lon="3.123902271009704"><ele>677.0</ele><time>2026-04-18T09:09:47Z</time></trkpt><trkpt lat="45.41463869539362" lon="3.1240900197077393"><ele>680.0</ele><time>2026-04-18T09:09:48Z</time></trkpt><trkpt lat="45.414564368445845" lon="3.1242865531081203"><ele>683.0</ele><time>2026-04-18T09:09:49Z</time></trkpt><trkpt lat="45.4144974371589" lon="3.1244968611122323"><ele>686.0</ele><time>2026-04-18T09:09:50Z</time></trkpt><trkpt lat="45.414425105480106" lon="3.1246945378240114"><ele>684.0</ele><time>2026-04-18T09:09:51Z</time></trkpt><trkpt lat="45.41435467060369" lon="3.124896346675061"><ele>682.0</ele><time>2026-04-18T09:09:52Z</time></trkpt><trkpt lat="45.41428237202308" lon="3.1251010550094245"><ele>680.0</ele><time>2026-04-18T09:09:53Z</time></trkpt><trkpt lat="45.41421172666016" lon="3.1253031460031435"><ele>680.0</ele><time>2026-04-18T09:09:54Z</time></trkpt><trkpt lat="45.414141554221175" lon="3.1255082036847965"><ele>680.0</ele><time>2026-04-18T09:09:55Z</time></trkpt><trkpt lat="45.414070451519095" lon="3.1257117307918425"><ele>680.0</ele><time>2026-04-18T09:09:56Z</time></trkpt><trkpt lat="45.41399905991369" lon="3.1259070698967037"><ele>678.5</ele><time>2026-04-18T09:09:57Z</time></trkpt><trkpt lat="45.41393193789132" lon="3.1260902463852247"><ele>677.0</ele><time>2026-04-18T09:09:58Z</time></trkpt><trkpt lat="45.41387430828349" lon="3.126250071833177"><ele>675.5</ele><time>2026-04-18T09:09:59Z</time></trkpt><trkpt lat="45.41381794250783" lon="3.1264049301498607"><ele>674.0</ele><time>2026-04-18T09:10:00Z</time></trkpt><trkpt lat="45.41376680025201" lon="3.126555749588743"><ele>676.75</ele><time>2026-04-18T09:10:01Z</time></trkpt><trkpt lat="45.41371106747292" lon="3.1267028004463246"><ele>679.5</ele><time>2026-04-18T09:10:02Z</time></trkpt><trkpt lat="45.413652990323236" lon="3.1268379759367333"><ele>682.25</ele><time>2026-04-18T09:10:03Z</time></trkpt><trkpt lat="45.41358388080853" lon="3.126959526346466"><ele>685.0</ele><time>2026-04-18T09:10:04Z</time></trkpt><trkpt lat="45.41349654254629" lon="3.127062790161446"><ele>685.0</ele><time>2026-04-18T09:10:05Z</time></trkpt><trkpt lat="45.4133762138188" lon="3.1271086761942106"><ele>685.0</ele><time>2026-04-18T09:10:06Z</time></trkpt><trkpt lat="45.4132423307234" lon="3.1271534898372915"><ele>685.0</ele><time>2026-04-18T09:10:07Z</time></trkpt><trkpt lat="45.41310707895762" lon="3.1272126769250583"><ele>685.0</ele><time>2026-04-18T09:10:08Z</time></trkpt><trkpt lat="45.41297372857498" lon="3.12727122107892"><ele>686.75</ele><time>2026-04-18T09:10:09Z</time></trkpt><trkpt lat="45.4128501452478" lon="3.127371009348998"><ele>688.5</ele><time>2026-04-18T09:10:10Z</time></trkpt><trkpt lat="45.41273446347642" lon="3.127496471034794"><ele>690.25</ele><time>2026-04-18T09:10:11Z</time></trkpt><trkpt lat="45.412629454865105" lon="3.1276235391380074"><ele>692.0</ele><time>2026-04-18T09:10:12Z</time></trkpt><trkpt lat="45.41252960247069" lon="3.127736684379405"><ele>688.5</ele><time>2026-04-18T09:10:13Z</time></trkpt><trkpt lat="45.412417171275195" lon="3.1278075437908854"><ele>685.0</ele><time>2026-04-18T09:10:14Z</time></trkpt><trkpt lat="45.4123072170982" lon="3.1278713538842546"><ele>681.5</ele><time>2026-04-18T09:10:15Z</time></trkpt><trkpt lat="45.41218736167939" lon="3.127932565620485"><ele>678.0</ele><time>2026-04-18T09:10:16Z</time></trkpt><trkpt lat="45.4120601601893" lon="3.1280030562832315"><ele>678.0</ele><time>2026-04-18T09:10:17Z</time></trkpt><trkpt lat="45.41191741714162" lon="3.1280337637994644"><ele>678.0</ele><time>2026-04-18T09:10:18Z</time></trkpt><trkpt lat="45.411764483181464" lon="3.128044789215893"><ele>678.0</ele><time>2026-04-18T09:10:19Z</time></trkpt><trkpt lat="45.41161491074525" lon="3.1280239915645587"><ele>678.0</ele><time>2026-04-18T09:10:20Z</time></trkpt><trkpt lat="45.41146898326686" lon="3.127996725749593"><ele>678.0</ele><time>2026-04-18T09:10:21Z</time></trkpt><trkpt lat="45.41132911403743" lon="3.127953615203646"><ele>678.0</ele><time>2026-04-18T09:10:22Z</time></trkpt><trkpt lat="45.41119105466378" lon="3.1279031443711114"><ele>678.0</ele><time>2026-04-18T09:10:23Z</time></trkpt><trkpt lat="45.41105509175852" lon="3.1278378734913876"><ele>678.0</ele><time>2026-04-18T09:10:24Z</time></trkpt><trkpt lat="45.41092817042441" lon="3.127753694011507"><ele>674.25</ele><time>2026-04-18T09:10:25Z</time></trkpt><trkpt lat="45.41080673769948" lon="3.127659864560637"><ele>670.5</ele><time>2026-04-18T09:10:26Z</time></trkpt><trkpt lat="45.41067893874173" lon="3.1275909499683197"><ele>666.75</ele><time>2026-04-18T09:10:27Z</time></trkpt><trkpt lat="45.410544913252124" lon="3.1275512444176172"><ele>663.0</ele><time>2026-04-18T09:10:28Z</time></trkpt><trkpt lat="45.41041191747657" lon="3.127526704838712"><ele>661.75</ele><time>2026-04-18T09:10:29Z</time></trkpt><trkpt lat="45.4102784383805" lon="3.1275051175179684"><ele>660.5</ele><time>2026-04-18T09:10:30Z</time></trkpt><trkpt lat="45.410147186575124" lon="3.1274755869736257"><ele>659.25</ele><time>2026-04-18T09:10:31Z</time></trkpt><trkpt lat="45.410020666167085" lon="3.1274290224582053"><ele>658.0</ele><time>2026-04-18T09:10:32Z</time></trkpt><trkpt lat="45.409894664085705" lon="3.127361962496307"><ele>658.0</ele><time>2026-04-18T09:10:33Z</time></trkpt><trkpt lat="45.40977663272831" lon="3.127279489902495"><ele>658.0</ele><time>2026-04-18T09:10:34Z</time></trkpt><trkpt lat="45.40967228025873" lon="3.12716508512513"><ele>658.0</ele><time>2026-04-18T09:10:35Z</time></trkpt><trkpt lat="45.409569284472255" lon="3.12705114066395"><ele>658.0</ele><time>2026-04-18T09:10:36Z</time></trkpt><trkpt lat="45.40946005624308" lon="3.1269295336745566"><ele>652.0</ele><time>2026-04-18T09:10:37Z</time></trkpt><trkpt lat="45.40935224813446" lon="3.126804607256722"><ele>646.0</ele><time>2026-04-18T09:10:38Z</time></trkpt><trkpt lat="45.40925023293713" lon="3.1266948701627952"><ele>640.0</ele><time>2026-04-18T09:10:39Z</time></trkpt><trkpt lat="45.4091356444816" lon="3.1266150006144415"><ele>634.0</ele><time>2026-04-18T09:10:40Z</time></trkpt><trkpt lat="45.40901179297519" lon="3.12657551959103"><ele>633.75</ele><time>2026-04-18T09:10:41Z</time></trkpt><trkpt lat="45.408888000763596" lon="3.1265395836450858"><ele>633.5</ele><time>2026-04-18T09:10:42Z</time></trkpt><trkpt lat="45.40876904622932" lon="3.1265111475421237"><ele>633.25</ele><time>2026-04-18T09:10:43Z</time></trkpt><trkpt lat="45.40865532679061" lon="3.1264752204573436"><ele>633.0</ele><time>2026-04-18T09:10:44Z</time></trkpt><trkpt lat="45.408549290394184" lon="3.1264239607985775"><ele>633.0</ele><time>2026-04-18T09:10:45Z</time></trkpt><trkpt lat="45.408449509229676" lon="3.126356847242287"><ele>633.0</ele><time>2026-04-18T09:10:46Z</time></trkpt><trkpt lat="45.40833788872955" lon="3.126269502688246"><ele>633.0</ele><time>2026-04-18T09:10:47Z</time></trkpt><trkpt lat="45.40823032640296" lon="3.126172158580436"><ele>633.0</ele><time>2026-04-18T09:10:48Z</time></trkpt><trkpt lat="45.40812777206154" lon="3.1260800128971056"><ele>633.0</ele><time>2026-04-18T09:10:49Z</time></trkpt><trkpt lat="45.40803088321128" lon="3.1259811297586437"><ele>633.0</ele><time>2026-04-18T09:10:50Z</time></trkpt><trkpt lat="45.40794821379018" lon="3.1258642189754315"><ele>633.0</ele><time>2026-04-18T09:10:51Z</time></trkpt><trkpt lat="45.407878678824964" lon="3.1257221663323964"><ele>633.0</ele><time>2026-04-18T09:10:52Z</time></trkpt><trkpt lat="45.40781833090135" lon="3.1255616612279264"><ele>632.0</ele><time>2026-04-18T09:10:53Z</time></trkpt><trkpt lat="45.40775472979956" lon="3.125395081364521"><ele>631.0</ele><time>2026-04-18T09:10:54Z</time></trkpt><trkpt lat="45.40768839035836" lon="3.1252177837109634"><ele>630.0</ele><time>2026-04-18T09:10:55Z</time></trkpt><trkpt lat="45.407622997844875" lon="3.1250352350698676"><ele>629.0</ele><time>2026-04-18T09:10:56Z</time></trkpt><trkpt lat="45.407557082935035" lon="3.1248603398455934"><ele>629.0</ele><time>2026-04-18T09:10:57Z</time></trkpt><trkpt lat="45.40748797178109" lon="3.1246888112292757"><ele>629.0</ele><time>2026-04-18T09:10:58Z</time></trkpt><trkpt lat="45.4074170976577" lon="3.1245173969865214"><ele>629.0</ele><time>2026-04-18T09:10:59Z</time></trkpt><trkpt lat="45.40733891940266" lon="3.1243546063534513"><ele>629.0</ele><time>2026-04-18T09:10:59.999Z</time></trkpt><trkpt lat="45.4072585281666" lon="3.1241973535180376"><ele>633.0</ele><time>2026-04-18T09:11:00.999Z</time></trkpt><trkpt lat="45.40718677681096" lon="3.1240292799783647"><ele>637.0</ele><time>2026-04-18T09:11:01.999Z</time></trkpt><trkpt lat="45.40711645491331" lon="3.12386442469273"><ele>641.0</ele><time>2026-04-18T09:11:02.999Z</time></trkpt><trkpt lat="45.40703629835001" lon="3.123696293586362"><ele>645.0</ele><time>2026-04-18T09:11:03.999Z</time></trkpt><trkpt lat="45.40695208887961" lon="3.1235334299609336"><ele>637.0</ele><time>2026-04-18T09:11:04.999Z</time></trkpt><trkpt lat="45.406867459246115" lon="3.123376167186626"><ele>629.0</ele><time>2026-04-18T09:11:05.999Z</time></trkpt><trkpt lat="45.40677894294047" lon="3.1232244451064393"><ele>621.0</ele><time>2026-04-18T09:11:06.999Z</time></trkpt><trkpt lat="45.4066962186275" lon="3.1230773519062467"><ele>613.0</ele><time>2026-04-18T09:11:07.999Z</time></trkpt><trkpt lat="45.40662106882327" lon="3.1229247806348686"><ele>613.0</ele><time>2026-04-18T09:11:08.999Z</time></trkpt><trkpt lat="45.40655587739746" lon="3.1227635142108547"><ele>613.0</ele><time>2026-04-18T09:11:09.999Z</time></trkpt><trkpt lat="45.40649197835725" lon="3.1226039204943477"><ele>613.0</ele><time>2026-04-18T09:11:10.999Z</time></trkpt><trkpt lat="45.40642793945164" lon="3.1224437583198763"><ele>613.0</ele><time>2026-04-18T09:11:11.999Z</time></trkpt><trkpt lat="45.40636286372389" lon="3.122289556538834"><ele>608.75</ele><time>2026-04-18T09:11:12.999Z</time></trkpt><trkpt lat="45.406293131584476" lon="3.1221410684166515"><ele>604.5</ele><time>2026-04-18T09:11:13.999Z</time></trkpt><trkpt lat="45.40620519358326" lon="3.1220193485950096"><ele>600.25</ele><time>2026-04-18T09:11:14.999Z</time></trkpt><trkpt lat="45.40608949306852" lon="3.1219395295253056"><ele>596.0</ele><time>2026-04-18T09:11:15.999Z</time></trkpt><trkpt lat="45.405963003996966" lon="3.121906207026025"><ele>596.0</ele><time>2026-04-18T09:11:16.999Z</time></trkpt><trkpt lat="45.405843028813315" lon="3.1219084417105476"><ele>596.0</ele><time>2026-04-18T09:11:17.999Z</time></trkpt><trkpt lat="45.40573272238762" lon="3.1219238329350674"><ele>596.0</ele><time>2026-04-18T09:11:18.999Z</time></trkpt><trkpt lat="45.40562880366017" lon="3.121934878396914"><ele>596.0</ele><time>2026-04-18T09:11:19.999Z</time></trkpt><trkpt lat="45.40553433952" lon="3.121961587271209"><ele>596.0</ele><time>2026-04-18T09:11:20.999Z</time></trkpt><trkpt lat="45.40545364360498" lon="3.122010120688728"><ele>597.1666666666666</ele><time>2026-04-18T09:11:21.999Z</time></trkpt><trkpt lat="45.40538043305535" lon="3.1220308924416487"><ele>598.3333333333333</ele><time>2026-04-18T09:11:22.999Z</time></trkpt><trkpt lat="45.40532180392449" lon="3.122067572194304"><ele>599.5</ele><time>2026-04-18T09:11:23.999Z</time></trkpt><trkpt lat="45.40523645541549" lon="3.1221629358012284"><ele>600.6666666666666</ele><time>2026-04-18T09:11:25.999Z</time></trkpt><trkpt lat="45.405162606458184" lon="3.1222250433105354"><ele>601.8333333333334</ele><time>2026-04-18T09:11:27.999Z</time></trkpt><trkpt lat="45.405106423113594" lon="3.122266071454576"><ele>603.0</ele><time>2026-04-18T09:11:29.999Z</time></trkpt><trkpt lat="45.40510694177886" lon="3.1224676701488994"><ele>603.0</ele><time>2026-04-18T09:11:31.999Z</time></trkpt><trkpt lat="45.405125627550035" lon="3.1225695525926516"><ele>603.0</ele><time>2026-04-18T09:11:32.999Z</time></trkpt><trkpt lat="45.40513229428201" lon="3.122670227908132"><ele>603.0</ele><time>2026-04-18T09:11:33.999Z</time></trkpt><trkpt lat="45.40513500678249" lon="3.122776392243095"><ele>603.0</ele><time>2026-04-18T09:11:34.999Z</time></trkpt><trkpt lat="45.40513575585679" lon="3.12289220526741"><ele>603.0</ele><time>2026-04-18T09:11:35.999Z</time></trkpt><trkpt lat="45.40513575585899" lon="3.1230147875429726"><ele>603.0</ele><time>2026-04-18T09:11:36.999Z</time></trkpt><trkpt lat="45.40513586707562" lon="3.1231526901522813"><ele>603.0</ele><time>2026-04-18T09:11:37.999Z</time></trkpt><trkpt lat="45.405136691314226" lon="3.123283007914605"><ele>603.0</ele><time>2026-04-18T09:11:38.999Z</time></trkpt><trkpt lat="45.40513753090188" lon="3.123415752428006"><ele>603.0</ele><time>2026-04-18T09:11:39.999Z</time></trkpt><trkpt lat="45.40513838701623" lon="3.123551110024172"><ele>603.0</ele><time>2026-04-18T09:11:40.999Z</time></trkpt><trkpt lat="45.40513776357131" lon="3.1236908805238484"><ele>603.0</ele><time>2026-04-18T09:11:41.999Z</time></trkpt><trkpt lat="45.40512953136089" lon="3.12381459459377"><ele>603.0</ele><time>2026-04-18T09:11:42.999Z</time></trkpt><trkpt lat="45.40511038359482" lon="3.1239354838243356"><ele>603.0</ele><time>2026-04-18T09:11:43.999Z</time></trkpt><trkpt lat="45.40508219786796" lon="3.124064927158573"><ele>603.0</ele><time>2026-04-18T09:11:44.999Z</time></trkpt><trkpt lat="45.405061571441905" lon="3.1242083809415293"><ele>603.0</ele><time>2026-04-18T09:11:46Z</time></trkpt><trkpt lat="45.40502325857301" lon="3.124355208959189"><ele>603.0</ele><time>2026-04-18T09:11:47Z</time></trkpt><trkpt lat="45.40499841561881" lon="3.124482112438771"><ele>603.0</ele><time>2026-04-18T09:11:48Z</time></trkpt><trkpt lat="45.40496323422654" lon="3.1246119738711102"><ele>603.0</ele><time>2026-04-18T09:11:49Z</time></trkpt><trkpt lat="45.404929648012924" lon="3.124734767638827"><ele>603.0</ele><time>2026-04-18T09:11:50Z</time></trkpt><trkpt lat="45.404906299611106" lon="3.124842832061522"><ele>603.0</ele><time>2026-04-18T09:11:51Z</time></trkpt><trkpt lat="45.4049046669459" lon="3.124955196140151"><ele>603.0</ele><time>2026-04-18T09:11:52Z</time></trkpt><trkpt lat="45.40493181545273" lon="3.1250722932275172"><ele>603.0</ele><time>2026-04-18T09:11:53Z</time></trkpt><trkpt lat="45.404982710823454" lon="3.125204002692445"><ele>603.0</ele><time>2026-04-18T09:11:54Z</time></trkpt><trkpt lat="45.405018497184244" lon="3.1253408956996895"><ele>603.0</ele><time>2026-04-18T09:11:55Z</time></trkpt><trkpt lat="45.405050129300925" lon="3.125443003709382"><ele>603.0</ele><time>2026-04-18T09:11:56Z</time></trkpt><trkpt lat="45.40508429451756" lon="3.1255351585244213"><ele>603.0</ele><time>2026-04-18T09:11:57Z</time></trkpt><trkpt lat="45.4050629033041" lon="3.1256687993546506"><ele>603.0</ele><time>2026-04-18T09:11:58Z</time></trkpt><trkpt lat="45.40508353789795" lon="3.1258186843895817"><ele>604.0</ele><time>2026-04-18T09:11:59Z</time></trkpt><trkpt lat="45.40508891886481" lon="3.1259664389970236"><ele>605.0</ele><time>2026-04-18T09:12:00Z</time></trkpt><trkpt lat="45.405095562482714" lon="3.126085461765975"><ele>606.0</ele><time>2026-04-18T09:12:01Z</time></trkpt><trkpt lat="45.40510698928224" lon="3.126210822387911"><ele>607.0</ele><time>2026-04-18T09:12:02Z</time></trkpt><trkpt lat="45.40513333962695" lon="3.1263534143140563"><ele>608.0</ele><time>2026-04-18T09:12:03Z</time></trkpt><trkpt lat="45.40515853445367" lon="3.126519505431545"><ele>609.75</ele><time>2026-04-18T09:12:04Z</time></trkpt><trkpt lat="45.40521065837492" lon="3.1266928375861656"><ele>611.5</ele><time>2026-04-18T09:12:05Z</time></trkpt><trkpt lat="45.405277141470684" lon="3.1268687056558737"><ele>613.25</ele><time>2026-04-18T09:12:06Z</time></trkpt><trkpt lat="45.40535142494655" lon="3.127055245584921"><ele>615.0</ele><time>2026-04-18T09:12:07Z</time></trkpt><trkpt lat="45.405469228120886" lon="3.127243014079011"><ele>612.3333333333334</ele><time>2026-04-18T09:12:08Z</time></trkpt><trkpt lat="45.405602054122454" lon="3.127451605064585"><ele>609.6666666666667</ele><time>2026-04-18T09:12:09Z</time></trkpt><trkpt lat="45.40574405604704" lon="3.127612506928071"><ele>607.0</ele><time>2026-04-18T09:12:10Z</time></trkpt><trkpt lat="45.40583737763076" lon="3.1277348314092404"><ele>607.0</ele><time>2026-04-18T09:12:11Z</time></trkpt><trkpt lat="45.40589874451207" lon="3.127822891666536"><ele>607.0</ele><time>2026-04-18T09:12:12Z</time></trkpt><trkpt lat="45.40592950273137" lon="3.127909054956968"><ele>607.0</ele><time>2026-04-18T09:12:13Z</time></trkpt><trkpt lat="45.405915726068535" lon="3.128069329359992"><ele>607.0</ele><time>2026-04-18T09:12:15Z</time></trkpt><trkpt lat="45.405861956621195" lon="3.12816316180992"><ele>607.0</ele><time>2026-04-18T09:12:17Z</time></trkpt><trkpt lat="45.40579251803567" lon="3.1282180480543347"><ele>607.0</ele><time>2026-04-18T09:12:19Z</time></trkpt><trkpt lat="45.40571316980746" lon="3.1281895643352917"><ele>607.0</ele><time>2026-04-18T09:12:20Z</time></trkpt><trkpt lat="45.40565107708524" lon="3.128162051009891"><ele>607.0</ele><time>2026-04-18T09:12:21Z</time></trkpt><trkpt lat="45.40557942723389" lon="3.1281210824097947"><ele>607.0</ele><time>2026-04-18T09:12:22Z</time></trkpt><trkpt lat="45.40550256208408" lon="3.1280717056958345"><ele>607.0</ele><time>2026-04-18T09:12:23Z</time></trkpt><trkpt lat="45.40542553886677" lon="3.1280240510812183"><ele>607.0</ele><time>2026-04-18T09:12:24Z</time></trkpt><trkpt lat="45.40534114828583" lon="3.127968558522123"><ele>607.0</ele><time>2026-04-18T09:12:25Z</time></trkpt><trkpt lat="45.405249316191096" lon="3.127903934308586"><ele>610.0</ele><time>2026-04-18T09:12:26Z</time></trkpt><trkpt lat="45.4051596692189" lon="3.127832337072386"><ele>613.0</ele><time>2026-04-18T09:12:27Z</time></trkpt><trkpt lat="45.405078711736046" lon="3.1277655896605014"><ele>616.0</ele><time>2026-04-18T09:12:28Z</time></trkpt><trkpt lat="45.40499347453192" lon="3.127685092261331"><ele>619.0</ele><time>2026-04-18T09:12:29Z</time></trkpt><trkpt lat="45.40490886956701" lon="3.127593982069412"><ele>622.0</ele><time>2026-04-18T09:12:30Z</time></trkpt><trkpt lat="45.404824888526264" lon="3.1274898295314246"><ele>623.5</ele><time>2026-04-18T09:12:31Z</time></trkpt><trkpt lat="45.40473992194687" lon="3.1273892721888665"><ele>625.0</ele><time>2026-04-18T09:12:32Z</time></trkpt><trkpt lat="45.40465384193116" lon="3.127278283036531"><ele>626.5</ele><time>2026-04-18T09:12:33Z</time></trkpt><trkpt lat="45.40456596697333" lon="3.127167906335169"><ele>628.0</ele><time>2026-04-18T09:12:34Z</time></trkpt><trkpt lat="45.40447629888118" lon="3.1270550561031305"><ele>628.0</ele><time>2026-04-18T09:12:35Z</time></trkpt><trkpt lat="45.40438445309443" lon="3.1269447270026176"><ele>628.0</ele><time>2026-04-18T09:12:36Z</time></trkpt><trkpt lat="45.404292996130245" lon="3.1268306131228045"><ele>628.0</ele><time>2026-04-18T09:12:37Z</time></trkpt><trkpt lat="45.40420497563659" lon="3.1267183362501623"><ele>628.0</ele><time>2026-04-18T09:12:38Z</time></trkpt><trkpt lat="45.404121363309955" lon="3.126613949944134"><ele>627.6666666666667</ele><time>2026-04-18T09:12:39Z</time></trkpt><trkpt lat="45.4040407816626" lon="3.1265167642290113"><ele>627.3333333333334</ele><time>2026-04-18T09:12:40Z</time></trkpt><trkpt lat="45.40397076314474" lon="3.1264310197890643"><ele>627.0</ele><time>2026-04-18T09:12:41Z</time></trkpt><trkpt lat="45.40390893239481" lon="3.1263566794161406"><ele>626.6666666666666</ele><time>2026-04-18T09:12:42Z</time></trkpt><trkpt lat="45.40385161635069" lon="3.1262846646127858"><ele>626.3333333333333</ele><time>2026-04-18T09:12:43Z</time></trkpt><trkpt lat="45.40380143139583" lon="3.1262205147039523"><ele>626.0</ele><time>2026-04-18T09:12:44Z</time></trkpt><trkpt lat="45.403750585075535" lon="3.1261619803634186"><ele>626.4</ele><time>2026-04-18T09:12:45Z</time></trkpt><trkpt lat="45.403648357653225" lon="3.1260544659994722"><ele>626.8</ele><time>2026-04-18T09:12:47Z</time></trkpt><trkpt lat="45.40357246681871" lon="3.1259593590197623"><ele>627.1999999999999</ele><time>2026-04-18T09:12:49Z</time></trkpt><trkpt lat="45.40350813661148" lon="3.1258846762684915"><ele>627.6</ele><time>2026-04-18T09:12:51Z</time></trkpt><trkpt lat="45.40343963495163" lon="3.1258013020923494"><ele>628.0</ele><time>2026-04-18T09:12:52.999Z</time></trkpt><trkpt lat="45.40334663759125" lon="3.1256821562675463"><ele>628.0</ele><time>2026-04-18T09:12:54.999Z</time></trkpt><trkpt lat="45.40329204019573" lon="3.1256214237622544"><ele>628.0</ele><time>2026-04-18T09:12:55.999Z</time></trkpt><trkpt lat="45.40323867995537" lon="3.1255549547063297"><ele>628.0</ele><time>2026-04-18T09:12:56.999Z</time></trkpt><trkpt lat="45.40318317717667" lon="3.1254808929472206"><ele>628.0</ele><time>2026-04-18T09:12:57.999Z</time></trkpt><trkpt lat="45.40313377258634" lon="3.125406314129182"><ele>628.0</ele><time>2026-04-18T09:12:58.999Z</time></trkpt><trkpt lat="45.40308836509596" lon="3.1253390552579265"><ele>628.0</ele><time>2026-04-18T09:12:59.999Z</time></trkpt><trkpt lat="45.4029938190763" lon="3.1252196926801745"><ele>628.9999999999999</ele><time>2026-04-18T09:13:01.999Z</time></trkpt><trkpt lat="45.402945462772195" lon="3.125153986461145"><ele>630.0</ele><time>2026-04-18T09:13:02.999Z</time></trkpt><trkpt lat="45.40289672531705" lon="3.1250869881691083"><ele>631.0</ele><time>2026-04-18T09:13:03.999Z</time></trkpt><trkpt lat="45.402848490940755" lon="3.1250228588813864"><ele>632.0</ele><time>2026-04-18T09:13:04.999Z</time></trkpt><trkpt lat="45.4027777281501" lon="3.1249283179912863"><ele>633.0</ele><time>2026-04-18T09:13:06.999Z</time></trkpt><trkpt lat="45.40272178038481" lon="3.1248581271652602"><ele>633.9999999999999</ele><time>2026-04-18T09:13:08.999Z</time></trkpt><trkpt lat="45.40266205450557" lon="3.124789231197395"><ele>635.0</ele><time>2026-04-18T09:13:11.999Z</time></trkpt><trkpt lat="45.40259636403385" lon="3.1247043142829782"><ele>635.4</ele><time>2026-04-18T09:13:15.999Z</time></trkpt><trkpt lat="45.4024451373713" lon="3.1247286143103636"><ele>635.8</ele><time>2026-04-18T09:13:17.999Z</time></trkpt><trkpt lat="45.40238948840101" lon="3.1246847808902714"><ele>636.2</ele><time>2026-04-18T09:13:18.999Z</time></trkpt><trkpt lat="45.40230300502193" lon="3.1246196138660274"><ele>636.6</ele><time>2026-04-18T09:13:20.999Z</time></trkpt><trkpt lat="45.40223121195506" lon="3.124545347777587"><ele>637.0</ele><time>2026-04-18T09:13:22.999Z</time></trkpt><trkpt lat="45.402148859865406" lon="3.124510916689101"><ele>637.4</ele><time>2026-04-18T09:13:24.999Z</time></trkpt><trkpt lat="45.40204415574823" lon="3.1245272387489176"><ele>637.8000000000001</ele><time>2026-04-18T09:13:26.999Z</time></trkpt><trkpt lat="45.401949905503976" lon="3.124561628867077"><ele>638.2</ele><time>2026-04-18T09:13:28.999Z</time></trkpt><trkpt lat="45.40183664389516" lon="3.124609066396834"><ele>638.6</ele><time>2026-04-18T09:13:30.999Z</time></trkpt><trkpt lat="45.4017372552965" lon="3.124685017221105"><ele>639.0</ele><time>2026-04-18T09:13:32.999Z</time></trkpt><trkpt lat="45.40163219157647" lon="3.124766899184997"><ele>639.0</ele><time>2026-04-18T09:13:34.999Z</time></trkpt><trkpt lat="45.40159697224706" lon="3.124859109632908"><ele>639.0</ele><time>2026-04-18T09:13:35.999Z</time></trkpt><trkpt lat="45.40158018703066" lon="3.1249651333770285"><ele>639.0</ele><time>2026-04-18T09:13:36.999Z</time></trkpt><trkpt lat="45.40161638900063" lon="3.1250786939380886"><ele>639.0</ele><time>2026-04-18T09:13:37.999Z</time></trkpt><trkpt lat="45.40166090446204" lon="3.12516758204761"><ele>639.0</ele><time>2026-04-18T09:13:38.999Z</time></trkpt><trkpt lat="45.40171767696987" lon="3.1252383648092272"><ele>639.0</ele><time>2026-04-18T09:13:39.999Z</time></trkpt><trkpt lat="45.401767763934295" lon="3.1253681353990728"><ele>638.2</ele><time>2026-04-18T09:13:41.999Z</time></trkpt><trkpt lat="45.40163183470149" lon="3.1255025561330148"><ele>637.4</ele><time>2026-04-18T09:13:44.999Z</time></trkpt><trkpt lat="45.40156286739171" lon="3.125554299787398"><ele>636.6</ele><time>2026-04-18T09:13:45.999Z</time></trkpt><trkpt lat="45.40147971737364" lon="3.1256164230785277"><ele>635.8</ele><time>2026-04-18T09:13:46.999Z</time></trkpt><trkpt lat="45.40139486638679" lon="3.125705747936645"><ele>635.0</ele><time>2026-04-18T09:13:47.999Z</time></trkpt><trkpt lat="45.401286212601846" lon="3.1257775763096083"><ele>637.5</ele><time>2026-04-18T09:13:48.999Z</time></trkpt><trkpt lat="45.40118600970801" lon="3.1258516202107685"><ele>640.0</ele><time>2026-04-18T09:13:49.999Z</time></trkpt><trkpt lat="45.401080644947214" lon="3.125917812554573"><ele>642.5</ele><time>2026-04-18T09:13:50.999Z</time></trkpt><trkpt lat="45.400987152122305" lon="3.1260431001519273"><ele>645.0</ele><time>2026-04-18T09:13:52Z</time></trkpt><trkpt lat="45.40087952730546" lon="3.1261476298254"><ele>645.0</ele><time>2026-04-18T09:13:53Z</time></trkpt><trkpt lat="45.40076392933469" lon="3.126241465509166"><ele>645.0</ele><time>2026-04-18T09:13:54Z</time></trkpt><trkpt lat="45.40064593401048" lon="3.126316932234441"><ele>645.0</ele><time>2026-04-18T09:13:55Z</time></trkpt><trkpt lat="45.40051542868531" lon="3.126374253793532"><ele>645.0</ele><time>2026-04-18T09:13:56Z</time></trkpt><trkpt lat="45.400379481376746" lon="3.1264220716859965"><ele>644.25</ele><time>2026-04-18T09:13:57Z</time></trkpt><trkpt lat="45.40024094845003" lon="3.1264872486636723"><ele>643.5</ele><time>2026-04-18T09:13:58Z</time></trkpt><trkpt lat="45.4000925685247" lon="3.126527394055193"><ele>642.75</ele><time>2026-04-18T09:13:59Z</time></trkpt><trkpt lat="45.39995973478041" lon="3.126576301576829"><ele>642.0</ele><time>2026-04-18T09:14:00Z</time></trkpt><trkpt lat="45.399845340217496" lon="3.1266406556987483"><ele>642.0</ele><time>2026-04-18T09:14:01Z</time></trkpt><trkpt lat="45.399743976410065" lon="3.126722768321551"><ele>642.0</ele><time>2026-04-18T09:14:02Z</time></trkpt><trkpt lat="45.399659328419226" lon="3.126826491206151"><ele>642.0</ele><time>2026-04-18T09:14:03Z</time></trkpt><trkpt lat="45.39958220951296" lon="3.1269559637428803"><ele>642.0</ele><time>2026-04-18T09:14:04Z</time></trkpt><trkpt lat="45.39950965363826" lon="3.127099546050297"><ele>641.6666666666666</ele><time>2026-04-18T09:14:05Z</time></trkpt><trkpt lat="45.39944316953717" lon="3.1272769116540986"><ele>641.3333333333333</ele><time>2026-04-18T09:14:06Z</time></trkpt><trkpt lat="45.39938366424714" lon="3.1274832786677482"><ele>641.0</ele><time>2026-04-18T09:14:07Z</time></trkpt><trkpt lat="45.399320202739695" lon="3.127705742079982"><ele>641.0</ele><time>2026-04-18T09:14:08Z</time></trkpt><trkpt lat="45.399225232393164" lon="3.1278816424416527"><ele>641.0</ele><time>2026-04-18T09:14:09Z</time></trkpt><trkpt lat="45.39913242064122" lon="3.1280334157749055"><ele>641.0</ele><time>2026-04-18T09:14:10Z</time></trkpt><trkpt lat="45.39904055015869" lon="3.128190093796977"><ele>641.0</ele><time>2026-04-18T09:14:11Z</time></trkpt><trkpt lat="45.39897141763044" lon="3.128362164485816"><ele>637.75</ele><time>2026-04-18T09:14:12Z</time></trkpt><trkpt lat="45.398922898378984" lon="3.1285456382168984"><ele>634.5</ele><time>2026-04-18T09:14:13Z</time></trkpt><trkpt lat="45.398893379579235" lon="3.128748118936563"><ele>631.25</ele><time>2026-04-18T09:14:14Z</time></trkpt><trkpt lat="45.3988685630599" lon="3.128964355445394"><ele>628.0</ele><time>2026-04-18T09:14:15Z</time></trkpt><trkpt lat="45.39882799215533" lon="3.12916135666618"><ele>627.5</ele><time>2026-04-18T09:14:16Z</time></trkpt><trkpt lat="45.39874293152083" lon="3.1292935730892375"><ele>627.0</ele><time>2026-04-18T09:14:17Z</time></trkpt><trkpt lat="45.398637516656095" lon="3.1294128472306935"><ele>626.5</ele><time>2026-04-18T09:14:18Z</time></trkpt><trkpt lat="45.39850949167922" lon="3.1295258376436834"><ele>626.0</ele><time>2026-04-18T09:14:19Z</time></trkpt><trkpt lat="45.39839048127184" lon="3.1296645157239187"><ele>626.0</ele><time>2026-04-18T09:14:20Z</time></trkpt><trkpt lat="45.398288043263406" lon="3.1298376185741605"><ele>626.0</ele><time>2026-04-18T09:14:21Z</time></trkpt><trkpt lat="45.398233912809715" lon="3.1300757736653244"><ele>626.0</ele><time>2026-04-18T09:14:22Z</time></trkpt><trkpt lat="45.39819006883008" lon="3.1302956928251757"><ele>625.75</ele><time>2026-04-18T09:14:23Z</time></trkpt><trkpt lat="45.39814337280775" lon="3.1304880564454565"><ele>625.5</ele><time>2026-04-18T09:14:24Z</time></trkpt><trkpt lat="45.3980944796577" lon="3.1306641369846258"><ele>625.25</ele><time>2026-04-18T09:14:25Z</time></trkpt><trkpt lat="45.39805203050096" lon="3.130842095108256"><ele>625.0</ele><time>2026-04-18T09:14:26Z</time></trkpt><trkpt lat="45.398019412633744" lon="3.1310221515926737"><ele>628.0</ele><time>2026-04-18T09:14:27Z</time></trkpt><trkpt lat="45.39798695303625" lon="3.1312122080330513"><ele>631.0</ele><time>2026-04-18T09:14:28Z</time></trkpt><trkpt lat="45.397957898413416" lon="3.1314026913971347"><ele>634.0</ele><time>2026-04-18T09:14:29Z</time></trkpt><trkpt lat="45.39789915886939" lon="3.1315716725797196"><ele>637.0</ele><time>2026-04-18T09:14:30Z</time></trkpt><trkpt lat="45.397833598095986" lon="3.1317461569702396"><ele>637.0</ele><time>2026-04-18T09:14:31Z</time></trkpt><trkpt lat="45.39777356354825" lon="3.1319251733962004"><ele>637.0</ele><time>2026-04-18T09:14:32Z</time></trkpt><trkpt lat="45.3977078018761" lon="3.132101504224806"><ele>637.0</ele><time>2026-04-18T09:14:33Z</time></trkpt><trkpt lat="45.39765633042168" lon="3.132295248597027"><ele>637.0</ele><time>2026-04-18T09:14:34Z</time></trkpt><trkpt lat="45.39762018333997" lon="3.1325079188613967"><ele>637.0</ele><time>2026-04-18T09:14:35Z</time></trkpt><trkpt lat="45.397586262747325" lon="3.132719607249667"><ele>637.0</ele><time>2026-04-18T09:14:36Z</time></trkpt><trkpt lat="45.397545548809624" lon="3.1329279816504876"><ele>637.0</ele><time>2026-04-18T09:14:37Z</time></trkpt><trkpt lat="45.39749910482827" lon="3.133133767852123"><ele>636.6666666666667</ele><time>2026-04-18T09:14:38Z</time></trkpt><trkpt lat="45.39741523476483" lon="3.1333122104915616"><ele>636.3333333333334</ele><time>2026-04-18T09:14:39Z</time></trkpt><trkpt lat="45.39733046122107" lon="3.1334902619013003"><ele>636.0</ele><time>2026-04-18T09:14:39.999Z</time></trkpt><trkpt lat="45.397260057145175" lon="3.133679738415383"><ele>636.0</ele><time>2026-04-18T09:14:40.999Z</time></trkpt><trkpt lat="45.397178944288825" lon="3.1338620502289136"><ele>636.0</ele><time>2026-04-18T09:14:41.999Z</time></trkpt><trkpt lat="45.39709689186157" lon="3.13403825449381"><ele>636.0</ele><time>2026-04-18T09:14:42.999Z</time></trkpt><trkpt lat="45.39697417689509" lon="3.1341622885497413"><ele>637.6666666666666</ele><time>2026-04-18T09:14:43.999Z</time></trkpt><trkpt lat="45.39684915221167" lon="3.1343025115841274"><ele>639.3333333333333</ele><time>2026-04-18T09:14:44.999Z</time></trkpt><trkpt lat="45.39672849693183" lon="3.1344550169764673"><ele>641.0</ele><time>2026-04-18T09:14:45.999Z</time></trkpt><trkpt lat="45.39659601004574" lon="3.134596547978596"><ele>641.0</ele><time>2026-04-18T09:14:46.999Z</time></trkpt><trkpt lat="45.39646551563808" lon="3.134752938190541"><ele>641.0</ele><time>2026-04-18T09:14:47.999Z</time></trkpt><trkpt lat="45.39634827909839" lon="3.134914980212553"><ele>641.0</ele><time>2026-04-18T09:14:48.999Z</time></trkpt><trkpt lat="45.39624055065846" lon="3.1350749100177255"><ele>642.5</ele><time>2026-04-18T09:14:49.999Z</time></trkpt><trkpt lat="45.39615426846055" lon="3.13522604284545"><ele>644.0</ele><time>2026-04-18T09:14:50.999Z</time></trkpt><trkpt lat="45.396059307042464" lon="3.1353342115349436"><ele>645.5</ele><time>2026-04-18T09:14:51.999Z</time></trkpt><trkpt lat="45.395969821119515" lon="3.1354264555580684"><ele>647.0</ele><time>2026-04-18T09:14:52.999Z</time></trkpt><trkpt lat="45.395863437096565" lon="3.1354888383287878"><ele>647.0</ele><time>2026-04-18T09:14:53.999Z</time></trkpt><trkpt lat="45.395735762869805" lon="3.1355329898936537"><ele>647.0</ele><time>2026-04-18T09:14:54.999Z</time></trkpt><trkpt lat="45.3956010822296" lon="3.135590018161223"><ele>647.0</ele><time>2026-04-18T09:14:55.999Z</time></trkpt><trkpt lat="45.395476448555726" lon="3.1356783709272884"><ele>647.0</ele><time>2026-04-18T09:14:56.999Z</time></trkpt><trkpt lat="45.395348519865905" lon="3.135768811023264"><ele>648.25</ele><time>2026-04-18T09:14:57.999Z</time></trkpt><trkpt lat="45.39522188745914" lon="3.1358710861052694"><ele>649.5</ele><time>2026-04-18T09:14:58.999Z</time></trkpt><trkpt lat="45.39508738222946" lon="3.135960721361021"><ele>650.75</ele><time>2026-04-18T09:14:59.999Z</time></trkpt><trkpt lat="45.39493918003307" lon="3.1360005751097644"><ele>652.0</ele><time>2026-04-18T09:15:00.999Z</time></trkpt><trkpt lat="45.39479660756203" lon="3.1360981661125704"><ele>652.6666666666667</ele><time>2026-04-18T09:15:01.999Z</time></trkpt><trkpt lat="45.39465367756407" lon="3.1361822167403313"><ele>653.3333333333334</ele><time>2026-04-18T09:15:02.999Z</time></trkpt><trkpt lat="45.39451610921214" lon="3.1362899236310633"><ele>654.0</ele><time>2026-04-18T09:15:03.999Z</time></trkpt><trkpt lat="45.394381984512584" lon="3.1364008545104665"><ele>654.0</ele><time>2026-04-18T09:15:04.999Z</time></trkpt><trkpt lat="45.39424772391881" lon="3.136498432458778"><ele>654.0</ele><time>2026-04-18T09:15:05.999Z</time></trkpt><trkpt lat="45.39411725992837" lon="3.13658937731691"><ele>654.0</ele><time>2026-04-18T09:15:06.999Z</time></trkpt><trkpt lat="45.39397977568515" lon="3.1366942018695814"><ele>655.6666666666666</ele><time>2026-04-18T09:15:07.999Z</time></trkpt><trkpt lat="45.39384658659558" lon="3.136815546240033"><ele>657.3333333333333</ele><time>2026-04-18T09:15:08.999Z</time></trkpt><trkpt lat="45.393717244618585" lon="3.1369521663310747"><ele>659.0</ele><time>2026-04-18T09:15:09.999Z</time></trkpt><trkpt lat="45.393592832352354" lon="3.137099507001106"><ele>659.0</ele><time>2026-04-18T09:15:10.999Z</time></trkpt><trkpt lat="45.39345132765231" lon="3.137221549732789"><ele>659.0</ele><time>2026-04-18T09:15:11.999Z</time></trkpt><trkpt lat="45.393299239092826" lon="3.1373319634218886"><ele>659.0</ele><time>2026-04-18T09:15:12.999Z</time></trkpt><trkpt lat="45.39314067629582" lon="3.1374352938432652"><ele>661.0</ele><time>2026-04-18T09:15:13.999Z</time></trkpt><trkpt lat="45.392992988405275" lon="3.1375520101456797"><ele>663.0</ele><time>2026-04-18T09:15:14.999Z</time></trkpt><trkpt lat="45.39285226769228" lon="3.137656978021168"><ele>665.0</ele><time>2026-04-18T09:15:15.999Z</time></trkpt><trkpt lat="45.39271261776993" lon="3.1377764144258844"><ele>665.0</ele><time>2026-04-18T09:15:16.999Z</time></trkpt><trkpt lat="45.392589299955844" lon="3.1379187300142806"><ele>665.0</ele><time>2026-04-18T09:15:17.999Z</time></trkpt><trkpt lat="45.392478847155495" lon="3.138079996162303"><ele>665.0</ele><time>2026-04-18T09:15:18.999Z</time></trkpt><trkpt lat="45.39238201782083" lon="3.138252731612263"><ele>666.0</ele><time>2026-04-18T09:15:19.999Z</time></trkpt><trkpt lat="45.39229723745887" lon="3.1384303956683866"><ele>667.0</ele><time>2026-04-18T09:15:20.999Z</time></trkpt><trkpt lat="45.39222767701396" lon="3.1386171874115174"><ele>668.0</ele><time>2026-04-18T09:15:21.999Z</time></trkpt><trkpt lat="45.39217788008937" lon="3.1388061957096105"><ele>669.0</ele><time>2026-04-18T09:15:22.999Z</time></trkpt><trkpt lat="45.392153353811075" lon="3.1389828860422764"><ele>670.25</ele><time>2026-04-18T09:15:23.999Z</time></trkpt><trkpt lat="45.39214140046955" lon="3.1391462325297597"><ele>671.5</ele><time>2026-04-18T09:15:24.999Z</time></trkpt><trkpt lat="45.392121561270066" lon="3.139309516017623"><ele>672.75</ele><time>2026-04-18T09:15:25.999Z</time></trkpt><trkpt lat="45.39207073065381" lon="3.1394628255379"><ele>674.0</ele><time>2026-04-18T09:15:26.999Z</time></trkpt><trkpt lat="45.392009342134216" lon="3.1396069811382286"><ele>674.0</ele><time>2026-04-18T09:15:27.999Z</time></trkpt><trkpt lat="45.39191871374647" lon="3.1397115368255273"><ele>674.0</ele><time>2026-04-18T09:15:28.999Z</time></trkpt><trkpt lat="45.39181305063757" lon="3.1397649924487823"><ele>674.0</ele><time>2026-04-18T09:15:29.999Z</time></trkpt><trkpt lat="45.391698735878265" lon="3.139815212771571"><ele>674.0</ele><time>2026-04-18T09:15:30.999Z</time></trkpt><trkpt lat="45.39158690397467" lon="3.139893136955674"><ele>676.0</ele><time>2026-04-18T09:15:31.999Z</time></trkpt><trkpt lat="45.39146324874039" lon="3.1399642036334963"><ele>678.0</ele><time>2026-04-18T09:15:32.999Z</time></trkpt><trkpt lat="45.39133989946024" lon="3.1400693725811184"><ele>680.0</ele><time>2026-04-18T09:15:33.999Z</time></trkpt><trkpt lat="45.39121480366276" lon="3.1401878836959014"><ele>682.0</ele><time>2026-04-18T09:15:34.999Z</time></trkpt><trkpt lat="45.39108807232061" lon="3.140300455268577"><ele>682.0</ele><time>2026-04-18T09:15:35.999Z</time></trkpt><trkpt lat="45.39095510036337" lon="3.1404097564463713"><ele>682.0</ele><time>2026-04-18T09:15:36.999Z</time></trkpt><trkpt lat="45.39082366354455" lon="3.1405291939944027"><ele>682.0</ele><time>2026-04-18T09:15:37.999Z</time></trkpt><trkpt lat="45.39070083922194" lon="3.1406485000843714"><ele>684.0</ele><time>2026-04-18T09:15:38.999Z</time></trkpt><trkpt lat="45.39058804747355" lon="3.1407889291537345"><ele>686.0</ele><time>2026-04-18T09:15:39.999Z</time></trkpt><trkpt lat="45.39049503501536" lon="3.140958547546548"><ele>688.0</ele><time>2026-04-18T09:15:40.999Z</time></trkpt><trkpt lat="45.39040696317326" lon="3.1411396873751505"><ele>688.0</ele><time>2026-04-18T09:15:41.999Z</time></trkpt><trkpt lat="45.39031228457693" lon="3.141338995958954"><ele>688.0</ele><time>2026-04-18T09:15:42.999Z</time></trkpt><trkpt lat="45.39021185633126" lon="3.1415489084538524"><ele>688.0</ele><time>2026-04-18T09:15:43.999Z</time></trkpt><trkpt lat="45.39010789292228" lon="3.141756144561937"><ele>689.5</ele><time>2026-04-18T09:15:44.999Z</time></trkpt><trkpt lat="45.38998959633956" lon="3.1419087729188853"><ele>691.0</ele><time>2026-04-18T09:15:45.999Z</time></trkpt><trkpt lat="45.38988345701018" lon="3.1420289909140933"><ele>692.5</ele><time>2026-04-18T09:15:46.999Z</time></trkpt><trkpt lat="45.389778976705145" lon="3.1421320424936257"><ele>694.0</ele><time>2026-04-18T09:15:47.999Z</time></trkpt><trkpt lat="45.389682179151706" lon="3.142249860230053"><ele>694.6</ele><time>2026-04-18T09:15:48.999Z</time></trkpt><trkpt lat="45.389593839966764" lon="3.142345979548341"><ele>695.2</ele><time>2026-04-18T09:15:49.999Z</time></trkpt><trkpt lat="45.38953160811138" lon="3.1424645883847764"><ele>695.8000000000001</ele><time>2026-04-18T09:15:50.999Z</time></trkpt><trkpt lat="45.389496646480474" lon="3.1425885519068983"><ele>696.4000000000001</ele><time>2026-04-18T09:15:51.999Z</time></trkpt><trkpt lat="45.38949268013764" lon="3.142709727383524"><ele>697.0</ele><time>2026-04-18T09:15:52.999Z</time></trkpt><trkpt lat="45.38948969913685" lon="3.142824535303534"><ele>697.8</ele><time>2026-04-18T09:15:53.999Z</time></trkpt><trkpt lat="45.389484206093194" lon="3.142949352316227"><ele>698.6</ele><time>2026-04-18T09:15:54.999Z</time></trkpt><trkpt lat="45.38946648997344" lon="3.1430826575004813"><ele>699.4</ele><time>2026-04-18T09:15:55.999Z</time></trkpt><trkpt lat="45.389431825235924" lon="3.1432152006722696"><ele>700.1999999999999</ele><time>2026-04-18T09:15:56.999Z</time></trkpt><trkpt lat="45.38937257587132" lon="3.143349238306651"><ele>701.0</ele><time>2026-04-18T09:15:58Z</time></trkpt><trkpt lat="45.38932037323728" lon="3.1434861878863765"><ele>701.1999999999999</ele><time>2026-04-18T09:15:59Z</time></trkpt><trkpt lat="45.38927587128924" lon="3.1436418878803805"><ele>701.4</ele><time>2026-04-18T09:16:00Z</time></trkpt><trkpt lat="45.389221162954215" lon="3.1437790515836435"><ele>701.6</ele><time>2026-04-18T09:16:01Z</time></trkpt><trkpt lat="45.38917731496017" lon="3.143910361470912"><ele>701.8</ele><time>2026-04-18T09:16:02Z</time></trkpt><trkpt lat="45.38913943468684" lon="3.1440300031476247"><ele>702.0</ele><time>2026-04-18T09:16:03Z</time></trkpt><trkpt lat="45.389103725531704" lon="3.1441484726103646"><ele>702.0</ele><time>2026-04-18T09:16:04Z</time></trkpt><trkpt lat="45.389068017435264" lon="3.144258253026735"><ele>702.0</ele><time>2026-04-18T09:16:05Z</time></trkpt><trkpt lat="45.389031629128084" lon="3.1443486859589656"><ele>702.0</ele><time>2026-04-18T09:16:06Z</time></trkpt><trkpt lat="45.38897319598343" lon="3.144423670129464"><ele>702.0</ele><time>2026-04-18T09:16:07Z</time></trkpt><trkpt lat="45.388896982285814" lon="3.1444779794743534"><ele>702.0</ele><time>2026-04-18T09:16:08Z</time></trkpt><trkpt lat="45.38879148904323" lon="3.144477458631562"><ele>702.0</ele><time>2026-04-18T09:16:09Z</time></trkpt><trkpt lat="45.38868729673403" lon="3.1445179127023777"><ele>700.5</ele><time>2026-04-18T09:16:10Z</time></trkpt><trkpt lat="45.38857731276771" lon="3.144573510159713"><ele>699.0</ele><time>2026-04-18T09:16:11Z</time></trkpt><trkpt lat="45.388475315077" lon="3.1446662808194366"><ele>697.5</ele><time>2026-04-18T09:16:12Z</time></trkpt><trkpt lat="45.388366771358776" lon="3.1447549571671654"><ele>696.0</ele><time>2026-04-18T09:16:13Z</time></trkpt><trkpt lat="45.38826189622886" lon="3.144855427353229"><ele>696.25</ele><time>2026-04-18T09:16:14Z</time></trkpt><trkpt lat="45.388147678122564" lon="3.144932268583269"><ele>696.5</ele><time>2026-04-18T09:16:15Z</time></trkpt><trkpt lat="45.38804173675896" lon="3.145019579140163"><ele>696.75</ele><time>2026-04-18T09:16:16Z</time></trkpt><trkpt lat="45.38792635376664" lon="3.145093441484032"><ele>697.0</ele><time>2026-04-18T09:16:17Z</time></trkpt><trkpt lat="45.38780148591368" lon="3.145144184664893"><ele>695.6666666666667</ele><time>2026-04-18T09:16:18Z</time></trkpt><trkpt lat="45.3876645318521" lon="3.145187062447656"><ele>694.3333333333334</ele><time>2026-04-18T09:16:19Z</time></trkpt><trkpt lat="45.387512446570916" lon="3.14522625876101"><ele>693.0</ele><time>2026-04-18T09:16:20Z</time></trkpt><trkpt lat="45.38734744465251" lon="3.1452662617211518"><ele>693.0</ele><time>2026-04-18T09:16:21Z</time></trkpt><trkpt lat="45.38717765672511" lon="3.1453074977862996"><ele>693.0</ele><time>2026-04-18T09:16:22Z</time></trkpt><trkpt lat="45.387015270083296" lon="3.14534745806541"><ele>693.0</ele><time>2026-04-18T09:16:23Z</time></trkpt><trkpt lat="45.38684860942258" lon="3.145388470093588"><ele>693.0</ele><time>2026-04-18T09:16:24Z</time></trkpt><trkpt lat="45.386687867959736" lon="3.145453197291092"><ele>693.0</ele><time>2026-04-18T09:16:24.999Z</time></trkpt><trkpt lat="45.38652607188651" lon="3.1454992368027783"><ele>693.0</ele><time>2026-04-18T09:16:25.999Z</time></trkpt><trkpt lat="45.38636950281116" lon="3.1455585078689876"><ele>693.0</ele><time>2026-04-18T09:16:26.999Z</time></trkpt><trkpt lat="45.38622768145369" lon="3.145633399359075"><ele>693.0</ele><time>2026-04-18T09:16:27.999Z</time></trkpt><trkpt lat="45.38610714662845" lon="3.1457330523992804"><ele>693.0</ele><time>2026-04-18T09:16:28.999Z</time></trkpt><trkpt lat="45.3859880510181" lon="3.145862693837572"><ele>693.0</ele><time>2026-04-18T09:16:29.999Z</time></trkpt><trkpt lat="45.385838952973096" lon="3.1459535598645836"><ele>693.0</ele><time>2026-04-18T09:16:30.999Z</time></trkpt><trkpt lat="45.38566303819481" lon="3.146054086765099"><ele>693.0</ele><time>2026-04-18T09:16:31.999Z</time></trkpt><trkpt lat="45.3854554122437" lon="3.146160906493338"><ele>693.0</ele><time>2026-04-18T09:16:32.999Z</time></trkpt><trkpt lat="45.385246985104395" lon="3.146291768839333"><ele>691.3333333333334</ele><time>2026-04-18T09:16:33.999Z</time></trkpt><trkpt lat="45.38503720913997" lon="3.146374194775474"><ele>689.6666666666667</ele><time>2026-04-18T09:16:34.999Z</time></trkpt><trkpt lat="45.384847981309825" lon="3.1464744430271154"><ele>688.0</ele><time>2026-04-18T09:16:35.999Z</time></trkpt><trkpt lat="45.384660981822954" lon="3.1465756227302104"><ele>685.6666666666667</ele><time>2026-04-18T09:16:36.999Z</time></trkpt><trkpt lat="45.384480766795626" lon="3.1466779557546185"><ele>683.3333333333334</ele><time>2026-04-18T09:16:37.999Z</time></trkpt><trkpt lat="45.38430356977828" lon="3.1467878952415496"><ele>681.0</ele><time>2026-04-18T09:16:38.999Z</time></trkpt><trkpt lat="45.38412195800089" lon="3.1469138047177827"><ele>681.0</ele><time>2026-04-18T09:16:39.999Z</time></trkpt><trkpt lat="45.38394074880365" lon="3.1470651528454083"><ele>681.0</ele><time>2026-04-18T09:16:40.999Z</time></trkpt><trkpt lat="45.38376151716015" lon="3.147234742668083"><ele>681.0</ele><time>2026-04-18T09:16:41.999Z</time></trkpt><trkpt lat="45.38357759044065" lon="3.147415265728691"><ele>678.6666666666666</ele><time>2026-04-18T09:16:42.999Z</time></trkpt><trkpt lat="45.38339363673483" lon="3.1476019893821756"><ele>676.3333333333333</ele><time>2026-04-18T09:16:43.999Z</time></trkpt><trkpt lat="45.38320892247655" lon="3.14778085494441"><ele>674.0</ele><time>2026-04-18T09:16:44.999Z</time></trkpt><trkpt lat="45.3830354260127" lon="3.1479486246990436"><ele>675.3333333333333</ele><time>2026-04-18T09:16:45.999Z</time></trkpt><trkpt lat="45.38286320748402" lon="3.1481073363469663"><ele>676.6666666666666</ele><time>2026-04-18T09:16:46.999Z</time></trkpt><trkpt lat="45.38269166544862" lon="3.148264081616837"><ele>678.0</ele><time>2026-04-18T09:16:47.999Z</time></trkpt><trkpt lat="45.38251758107794" lon="3.148420300387937"><ele>675.6666666666666</ele><time>2026-04-18T09:16:48.999Z</time></trkpt><trkpt lat="45.382346466732045" lon="3.1485706254530803"><ele>673.3333333333333</ele><time>2026-04-18T09:16:49.999Z</time></trkpt><trkpt lat="45.38218126381108" lon="3.1487081111610715"><ele>671.0</ele><time>2026-04-18T09:16:50.999Z</time></trkpt><trkpt lat="45.38201812055364" lon="3.14882665580847"><ele>671.0</ele><time>2026-04-18T09:16:51.999Z</time></trkpt><trkpt lat="45.38185927031181" lon="3.148937540318825"><ele>671.0</ele><time>2026-04-18T09:16:52.999Z</time></trkpt><trkpt lat="45.38170938267214" lon="3.1490783960569084"><ele>671.0</ele><time>2026-04-18T09:16:53.999Z</time></trkpt><trkpt lat="45.381574129593204" lon="3.149260362181699"><ele>670.0</ele><time>2026-04-18T09:16:54.999Z</time></trkpt><trkpt lat="45.38146787135058" lon="3.149496648901351"><ele>669.0</ele><time>2026-04-18T09:16:55.999Z</time></trkpt><trkpt lat="45.38136805993025" lon="3.149740478919148"><ele>668.0</ele><time>2026-04-18T09:16:56.999Z</time></trkpt><trkpt lat="45.38127302869109" lon="3.150012998986402"><ele>669.0</ele><time>2026-04-18T09:16:57.999Z</time></trkpt><trkpt lat="45.38115776253639" lon="3.1502707641641594"><ele>670.0</ele><time>2026-04-18T09:16:58.999Z</time></trkpt><trkpt lat="45.38103263292175" lon="3.150527940358049"><ele>671.0</ele><time>2026-04-18T09:16:59.999Z</time></trkpt><trkpt lat="45.38091457451456" lon="3.1507978303563333"><ele>671.0</ele><time>2026-04-18T09:17:00.999Z</time></trkpt><trkpt lat="45.38078118423966" lon="3.151048224865724"><ele>671.0</ele><time>2026-04-18T09:17:01.999Z</time></trkpt><trkpt lat="45.38066092821314" lon="3.1512807335395245"><ele>671.0</ele><time>2026-04-18T09:17:02.999Z</time></trkpt><trkpt lat="45.38053277487083" lon="3.1514680166672737"><ele>673.0</ele><time>2026-04-18T09:17:03.999Z</time></trkpt><trkpt lat="45.38041743338466" lon="3.1516453509195204"><ele>675.0</ele><time>2026-04-18T09:17:04.999Z</time></trkpt><trkpt lat="45.38029837898105" lon="3.1518265875539333"><ele>677.0</ele><time>2026-04-18T09:17:05.999Z</time></trkpt><trkpt lat="45.38019977557984" lon="3.152012692325121"><ele>677.0</ele><time>2026-04-18T09:17:06.999Z</time></trkpt><trkpt lat="45.38008740410399" lon="3.1521536425439667"><ele>677.0</ele><time>2026-04-18T09:17:07.999Z</time></trkpt><trkpt lat="45.37998610428419" lon="3.1523031853791914"><ele>677.0</ele><time>2026-04-18T09:17:08.999Z</time></trkpt><trkpt lat="45.37989526727959" lon="3.15238660831776"><ele>677.0</ele><time>2026-04-18T09:17:09.999Z</time></trkpt><trkpt lat="45.379802909423226" lon="3.1524240031395094"><ele>676.75</ele><time>2026-04-18T09:17:10.999Z</time></trkpt><trkpt lat="45.379701123276675" lon="3.152403767555057"><ele>676.5</ele><time>2026-04-18T09:17:11.999Z</time></trkpt><trkpt lat="45.37958736476471" lon="3.152367873465068"><ele>676.25</ele><time>2026-04-18T09:17:12.999Z</time></trkpt><trkpt lat="45.3794669467446" lon="3.152375291920235"><ele>676.0</ele><time>2026-04-18T09:17:13.999Z</time></trkpt><trkpt lat="45.3793451210555" lon="3.1523989322487025"><ele>676.0</ele><time>2026-04-18T09:17:14.999Z</time></trkpt><trkpt lat="45.379232234993225" lon="3.152486543519073"><ele>676.0</ele><time>2026-04-18T09:17:15.999Z</time></trkpt><trkpt lat="45.37912325258721" lon="3.1525874207290925"><ele>676.0</ele><time>2026-04-18T09:17:16.999Z</time></trkpt><trkpt lat="45.3790245634441" lon="3.1527109071231747"><ele>676.0</ele><time>2026-04-18T09:17:17.999Z</time></trkpt><trkpt lat="45.37894145790559" lon="3.152878707117576"><ele>676.0</ele><time>2026-04-18T09:17:18.999Z</time></trkpt><trkpt lat="45.37887348426544" lon="3.153083406740644"><ele>676.0</ele><time>2026-04-18T09:17:19.999Z</time></trkpt><trkpt lat="45.378817403957875" lon="3.153321698972784"><ele>676.0</ele><time>2026-04-18T09:17:20.999Z</time></trkpt><trkpt lat="45.37876893479888" lon="3.153533178803499"><ele>678.25</ele><time>2026-04-18T09:17:21.999Z</time></trkpt><trkpt lat="45.37873961134368" lon="3.1537269550438527"><ele>680.5</ele><time>2026-04-18T09:17:22.999Z</time></trkpt><trkpt lat="45.37871538961762" lon="3.1538997812872864"><ele>682.75</ele><time>2026-04-18T09:17:23.999Z</time></trkpt><trkpt lat="45.37868384812416" lon="3.1540665230843765"><ele>685.0</ele><time>2026-04-18T09:17:24.999Z</time></trkpt><trkpt lat="45.37862196420497" lon="3.1541932509482096"><ele>685.25</ele><time>2026-04-18T09:17:25.999Z</time></trkpt><trkpt lat="45.37854876918506" lon="3.154301790800073"><ele>685.5</ele><time>2026-04-18T09:17:26.999Z</time></trkpt><trkpt lat="45.378432742833326" lon="3.1543343976999565"><ele>685.75</ele><time>2026-04-18T09:17:27.999Z</time></trkpt><trkpt lat="45.378301059404826" lon="3.1543531903159643"><ele>686.0</ele><time>2026-04-18T09:17:28.999Z</time></trkpt><trkpt lat="45.37814723368872" lon="3.1543894971823696"><ele>685.75</ele><time>2026-04-18T09:17:29.999Z</time></trkpt><trkpt lat="45.37801716078895" lon="3.154458073857361"><ele>685.5</ele><time>2026-04-18T09:17:30.999Z</time></trkpt><trkpt lat="45.377897373270244" lon="3.154564738092883"><ele>685.25</ele><time>2026-04-18T09:17:31.999Z</time></trkpt><trkpt lat="45.37778321967241" lon="3.154733733473541"><ele>685.0</ele><time>2026-04-18T09:17:32.999Z</time></trkpt><trkpt lat="45.37766006001751" lon="3.1549051064100135"><ele>685.0</ele><time>2026-04-18T09:17:33.999Z</time></trkpt><trkpt lat="45.377536067914484" lon="3.1550779983690846"><ele>685.0</ele><time>2026-04-18T09:17:34.999Z</time></trkpt><trkpt lat="45.377390533707484" lon="3.155251338613957"><ele>685.0</ele><time>2026-04-18T09:17:35.999Z</time></trkpt><trkpt lat="45.37724155924028" lon="3.15544849450917"><ele>687.0</ele><time>2026-04-18T09:17:36.999Z</time></trkpt><trkpt lat="45.377085131337246" lon="3.1556537977494754"><ele>689.0</ele><time>2026-04-18T09:17:37.999Z</time></trkpt><trkpt lat="45.37695990537658" lon="3.1558489432091257"><ele>691.0</ele><time>2026-04-18T09:17:38.999Z</time></trkpt><trkpt lat="45.376838893389234" lon="3.1560144209578858"><ele>691.0</ele><time>2026-04-18T09:17:39.999Z</time></trkpt><trkpt lat="45.37674146755131" lon="3.1561832373583973"><ele>691.0</ele><time>2026-04-18T09:17:40.999Z</time></trkpt><trkpt lat="45.37666229926432" lon="3.156363590761361"><ele>691.0</ele><time>2026-04-18T09:17:41.999Z</time></trkpt><trkpt lat="45.37661643403719" lon="3.156544188220982"><ele>691.0</ele><time>2026-04-18T09:17:42.999Z</time></trkpt><trkpt lat="45.37657169588753" lon="3.1567171116977204"><ele>690.75</ele><time>2026-04-18T09:17:43.999Z</time></trkpt><trkpt lat="45.37652768146009" lon="3.1568830848399205"><ele>690.5</ele><time>2026-04-18T09:17:44.999Z</time></trkpt><trkpt lat="45.376475517292285" lon="3.157047169227191"><ele>690.25</ele><time>2026-04-18T09:17:45.999Z</time></trkpt><trkpt lat="45.376436691141464" lon="3.1571971901250606"><ele>690.0</ele><time>2026-04-18T09:17:46.999Z</time></trkpt><trkpt lat="45.37639311068292" lon="3.1573329911318404"><ele>690.4</ele><time>2026-04-18T09:17:47.999Z</time></trkpt><trkpt lat="45.376347364349854" lon="3.157450278235278"><ele>690.8</ele><time>2026-04-18T09:17:48.999Z</time></trkpt><trkpt lat="45.376275147230224" lon="3.1575544801850617"><ele>691.2</ele><time>2026-04-18T09:17:49.999Z</time></trkpt><trkpt lat="45.376208267841925" lon="3.1576677187512314"><ele>691.6</ele><time>2026-04-18T09:17:50.999Z</time></trkpt><trkpt lat="45.3761325747567" lon="3.157782710276316"><ele>692.0</ele><time>2026-04-18T09:17:51.999Z</time></trkpt><trkpt lat="45.37605067081673" lon="3.157899870845995"><ele>692.0</ele><time>2026-04-18T09:17:52.999Z</time></trkpt><trkpt lat="45.3759691861037" lon="3.1580376007825346"><ele>692.0</ele><time>2026-04-18T09:17:53.999Z</time></trkpt><trkpt lat="45.37586576999101" lon="3.1581395726423915"><ele>692.0</ele><time>2026-04-18T09:17:54.999Z</time></trkpt><trkpt lat="45.3757618514421" lon="3.1582487564329713"><ele>692.0</ele><time>2026-04-18T09:17:55.999Z</time></trkpt><trkpt lat="45.37564577080238" lon="3.158345436654074"><ele>692.25</ele><time>2026-04-18T09:17:56.999Z</time></trkpt><trkpt lat="45.37553122757537" lon="3.158455418850158"><ele>692.5</ele><time>2026-04-18T09:17:57.999Z</time></trkpt><trkpt lat="45.375404152360886" lon="3.158545954182901"><ele>692.75</ele><time>2026-04-18T09:17:58.999Z</time></trkpt><trkpt lat="45.37528315959092" lon="3.158651160783022"><ele>693.0</ele><time>2026-04-18T09:17:59.999Z</time></trkpt><trkpt lat="45.37517398721265" lon="3.158766420407383"><ele>693.0</ele><time>2026-04-18T09:18:00.999Z</time></trkpt><trkpt lat="45.37508271401456" lon="3.1589042221377226"><ele>693.0</ele><time>2026-04-18T09:18:01.999Z</time></trkpt><trkpt lat="45.37500900410216" lon="3.1590615055081837"><ele>693.0</ele><time>2026-04-18T09:18:02.999Z</time></trkpt><trkpt lat="45.3749431249477" lon="3.159208218534222"><ele>693.0</ele><time>2026-04-18T09:18:04Z</time></trkpt><trkpt lat="45.37487916915571" lon="3.1593422803455313"><ele>693.25</ele><time>2026-04-18T09:18:05Z</time></trkpt><trkpt lat="45.37480715762522" lon="3.1594792556019633"><ele>693.5</ele><time>2026-04-18T09:18:06Z</time></trkpt><trkpt lat="45.37472546517184" lon="3.1596196595149366"><ele>693.75</ele><time>2026-04-18T09:18:06.999Z</time></trkpt><trkpt lat="45.37463782102423" lon="3.159766068493745"><ele>694.0</ele><time>2026-04-18T09:18:07.999Z</time></trkpt><trkpt lat="45.37452689321947" lon="3.1598847694356995"><ele>692.75</ele><time>2026-04-18T09:18:08.999Z</time></trkpt><trkpt lat="45.3744295782249" lon="3.1600370817466876"><ele>691.5</ele><time>2026-04-18T09:18:09.999Z</time></trkpt><trkpt lat="45.37432253264781" lon="3.160177732139391"><ele>690.25</ele><time>2026-04-18T09:18:10.999Z</time></trkpt><trkpt lat="45.374221981972525" lon="3.160339009004093"><ele>689.0</ele><time>2026-04-18T09:18:11.999Z</time></trkpt><trkpt lat="45.37413061489772" lon="3.160517018579037"><ele>689.0</ele><time>2026-04-18T09:18:12.999Z</time></trkpt><trkpt lat="45.374041258635984" lon="3.1606998567002154"><ele>689.0</ele><time>2026-04-18T09:18:13.999Z</time></trkpt><trkpt lat="45.37394051350854" lon="3.1608771545483543"><ele>689.0</ele><time>2026-04-18T09:18:14.999Z</time></trkpt><trkpt lat="45.373818695007785" lon="3.1610091614030633"><ele>689.0</ele><time>2026-04-18T09:18:15.999Z</time></trkpt><trkpt lat="45.37372581265465" lon="3.161161791704082"><ele>689.0</ele><time>2026-04-18T09:18:17Z</time></trkpt><trkpt lat="45.37362665776862" lon="3.1612833035779704"><ele>689.0</ele><time>2026-04-18T09:18:18Z</time></trkpt><trkpt lat="45.373519677741186" lon="3.161396334061409"><ele>689.0</ele><time>2026-04-18T09:18:19Z</time></trkpt><trkpt lat="45.37339996661261" lon="3.1615010373717705"><ele>688.25</ele><time>2026-04-18T09:18:20Z</time></trkpt><trkpt lat="45.37328410402302" lon="3.1616023867969427"><ele>687.5</ele><time>2026-04-18T09:18:21Z</time></trkpt><trkpt lat="45.373174866016456" lon="3.1616962238768167"><ele>686.75</ele><time>2026-04-18T09:18:22Z</time></trkpt><trkpt lat="45.37306340983116" lon="3.1617831032642396"><ele>686.0</ele><time>2026-04-18T09:18:23Z</time></trkpt><trkpt lat="45.37294986295707" lon="3.1618837275027682"><ele>686.0</ele><time>2026-04-18T09:18:24Z</time></trkpt><trkpt lat="45.37283728527583" lon="3.161983039340708"><ele>686.0</ele><time>2026-04-18T09:18:25Z</time></trkpt><trkpt lat="45.37272311557967" lon="3.1620683811273915"><ele>686.0</ele><time>2026-04-18T09:18:26Z</time></trkpt><trkpt lat="45.37261288256382" lon="3.1621545484716176"><ele>686.0</ele><time>2026-04-18T09:18:27Z</time></trkpt><trkpt lat="45.372503984787905" lon="3.162235279402461"><ele>686.0</ele><time>2026-04-18T09:18:28Z</time></trkpt><trkpt lat="45.37238975227824" lon="3.1623114599695104"><ele>686.0</ele><time>2026-04-18T09:18:29Z</time></trkpt><trkpt lat="45.3722663632958" lon="3.1623787244747525"><ele>686.0</ele><time>2026-04-18T09:18:30Z</time></trkpt><trkpt lat="45.372131074037" lon="3.1624285583888816"><ele>686.0</ele><time>2026-04-18T09:18:31Z</time></trkpt><trkpt lat="45.371986246178494" lon="3.1624324126685055"><ele>684.3333333333333</ele><time>2026-04-18T09:18:32Z</time></trkpt><trkpt lat="45.371835459234944" lon="3.162457418045875"><ele>682.6666666666666</ele><time>2026-04-18T09:18:33Z</time></trkpt><trkpt lat="45.37167681149698" lon="3.1624924418174487"><ele>681.0</ele><time>2026-04-18T09:18:34Z</time></trkpt><trkpt lat="45.3715244779529" lon="3.1625618361285683"><ele>681.0</ele><time>2026-04-18T09:18:34.999Z</time></trkpt><trkpt lat="45.371374584370116" lon="3.1626366647033266"><ele>681.0</ele><time>2026-04-18T09:18:35.999Z</time></trkpt><trkpt lat="45.37122987661122" lon="3.162729235352306"><ele>681.0</ele><time>2026-04-18T09:18:36.999Z</time></trkpt><trkpt lat="45.37107890187451" lon="3.1628375463319633"><ele>680.3333333333334</ele><time>2026-04-18T09:18:37.999Z</time></trkpt><trkpt lat="45.37092762146434" lon="3.162951599611261"><ele>679.6666666666667</ele><time>2026-04-18T09:18:38.999Z</time></trkpt><trkpt lat="45.37077442231197" lon="3.163026454206512"><ele>679.0</ele><time>2026-04-18T09:18:39.999Z</time></trkpt><trkpt lat="45.3706355544875" lon="3.1630925785126434"><ele>679.5</ele><time>2026-04-18T09:18:40.999Z</time></trkpt><trkpt lat="45.37049186422355" lon="3.1631402436333604"><ele>680.0</ele><time>2026-04-18T09:18:41.999Z</time></trkpt><trkpt lat="45.37036131122909" lon="3.163194872054379"><ele>680.5</ele><time>2026-04-18T09:18:42.999Z</time></trkpt><trkpt lat="45.370233147083695" lon="3.1632466295700015"><ele>681.0</ele><time>2026-04-18T09:18:43.999Z</time></trkpt><trkpt lat="45.37012275554398" lon="3.1633461413474415"><ele>679.25</ele><time>2026-04-18T09:18:44.999Z</time></trkpt><trkpt lat="45.37002522694216" lon="3.163500772763139"><ele>677.5</ele><time>2026-04-18T09:18:45.999Z</time></trkpt><trkpt lat="45.36994033190319" lon="3.163674075614869"><ele>675.75</ele><time>2026-04-18T09:18:46.999Z</time></trkpt><trkpt lat="45.369855599247515" lon="3.163846642033233"><ele>674.0</ele><time>2026-04-18T09:18:47.999Z</time></trkpt><trkpt lat="45.3697453833455" lon="3.163992778893779"><ele>674.25</ele><time>2026-04-18T09:18:48.999Z</time></trkpt><trkpt lat="45.36965696554655" lon="3.164159451193848"><ele>674.5</ele><time>2026-04-18T09:18:49.999Z</time></trkpt><trkpt lat="45.369558648688624" lon="3.1643033752648972"><ele>674.75</ele><time>2026-04-18T09:18:50.999Z</time></trkpt><trkpt lat="45.369469767201046" lon="3.1644491195580184"><ele>675.0</ele><time>2026-04-18T09:18:51.999Z</time></trkpt><trkpt lat="45.36938247702772" lon="3.16460882769026"><ele>675.0</ele><time>2026-04-18T09:18:52.999Z</time></trkpt><trkpt lat="45.369292776699346" lon="3.164770040769697"><ele>675.0</ele><time>2026-04-18T09:18:53.999Z</time></trkpt><trkpt lat="45.36919175843445" lon="3.164943487655325"><ele>675.0</ele><time>2026-04-18T09:18:54.999Z</time></trkpt><trkpt lat="45.3690752338208" lon="3.165100766887158"><ele>673.6666666666666</ele><time>2026-04-18T09:18:55.999Z</time></trkpt><trkpt lat="45.368966706065855" lon="3.1652572648182082"><ele>672.3333333333333</ele><time>2026-04-18T09:18:56.999Z</time></trkpt><trkpt lat="45.36886300261949" lon="3.1654127496685063"><ele>671.0</ele><time>2026-04-18T09:18:57.999Z</time></trkpt><trkpt lat="45.368767220882596" lon="3.1655812838499036"><ele>669.3333333333333</ele><time>2026-04-18T09:18:58.999Z</time></trkpt><trkpt lat="45.368657490467314" lon="3.1657262443255267"><ele>667.6666666666666</ele><time>2026-04-18T09:18:59.999Z</time></trkpt><trkpt lat="45.36853608039331" lon="3.165859834252331"><ele>666.0</ele><time>2026-04-18T09:19:00.999Z</time></trkpt><trkpt lat="45.36838710414031" lon="3.1659666126025447"><ele>666.0</ele><time>2026-04-18T09:19:01.999Z</time></trkpt><trkpt lat="45.36825029365275" lon="3.1661012243175195"><ele>666.0</ele><time>2026-04-18T09:19:02.999Z</time></trkpt><trkpt lat="45.36810048089525" lon="3.166186930985579"><ele>666.0</ele><time>2026-04-18T09:19:03.999Z</time></trkpt><trkpt lat="45.36795384388107" lon="3.166269869072284"><ele>665.6666666666666</ele><time>2026-04-18T09:19:04.999Z</time></trkpt><trkpt lat="45.36779798430601" lon="3.1663304675197073"><ele>665.3333333333333</ele><time>2026-04-18T09:19:05.999Z</time></trkpt><trkpt lat="45.367639778410336" lon="3.1663890060643274"><ele>665.0</ele><time>2026-04-18T09:19:06.999Z</time></trkpt><trkpt lat="45.36748268754848" lon="3.166466515179733"><ele>665.0</ele><time>2026-04-18T09:19:07.999Z</time></trkpt><trkpt lat="45.36732610791808" lon="3.1665193719616838"><ele>665.0</ele><time>2026-04-18T09:19:08.999Z</time></trkpt><trkpt lat="45.36717423763778" lon="3.166573122833268"><ele>665.0</ele><time>2026-04-18T09:19:09.999Z</time></trkpt><trkpt lat="45.36702422511241" lon="3.166638468317095"><ele>663.3333333333333</ele><time>2026-04-18T09:19:10.999Z</time></trkpt><trkpt lat="45.36687124334853" lon="3.1667201115460077"><ele>661.6666666666666</ele><time>2026-04-18T09:19:11.999Z</time></trkpt><trkpt lat="45.36672012549051" lon="3.1668192853617745"><ele>660.0</ele><time>2026-04-18T09:19:12.999Z</time></trkpt><trkpt lat="45.3665844731642" lon="3.1669234272630797"><ele>660.0</ele><time>2026-04-18T09:19:13.999Z</time></trkpt><trkpt lat="45.366455335655736" lon="3.1670156339756357"><ele>660.0</ele><time>2026-04-18T09:19:14.999Z</time></trkpt><trkpt lat="45.3663369570105" lon="3.1671004702618717"><ele>660.0</ele><time>2026-04-18T09:19:15.999Z</time></trkpt><trkpt lat="45.36623069206231" lon="3.1671946884282844"><ele>660.0</ele><time>2026-04-18T09:19:16.999Z</time></trkpt><trkpt lat="45.36615467815287" lon="3.167327257057941"><ele>660.25</ele><time>2026-04-18T09:19:17.999Z</time></trkpt><trkpt lat="45.36609858660313" lon="3.167489023918072"><ele>660.5</ele><time>2026-04-18T09:19:18.999Z</time></trkpt><trkpt lat="45.36605368214707" lon="3.1676879312502875"><ele>660.75</ele><time>2026-04-18T09:19:19.999Z</time></trkpt><trkpt lat="45.36601502501115" lon="3.167910792825502"><ele>661.0</ele><time>2026-04-18T09:19:20.999Z</time></trkpt><trkpt lat="45.3659621804928" lon="3.1681372049601215"><ele>660.3333333333334</ele><time>2026-04-18T09:19:21.999Z</time></trkpt><trkpt lat="45.365902604287704" lon="3.16837784353663"><ele>659.6666666666666</ele><time>2026-04-18T09:19:22.999Z</time></trkpt><trkpt lat="45.365844372260185" lon="3.1686331378722095"><ele>659.0</ele><time>2026-04-18T09:19:23.999Z</time></trkpt><trkpt lat="45.36578737843642" lon="3.1688694238255013"><ele>658.6666666666666</ele><time>2026-04-18T09:19:24.999Z</time></trkpt><trkpt lat="45.36573203892086" lon="3.169086975130755"><ele>658.3333333333334</ele><time>2026-04-18T09:19:25.999Z</time></trkpt><trkpt lat="45.36568719104231" lon="3.1692929145932194"><ele>658.0</ele><time>2026-04-18T09:19:26.999Z</time></trkpt><trkpt lat="45.36565678623668" lon="3.1695172906365308"><ele>658.0</ele><time>2026-04-18T09:19:27.999Z</time></trkpt><trkpt lat="45.365647231904106" lon="3.16976684577969"><ele>658.0</ele><time>2026-04-18T09:19:28.999Z</time></trkpt><trkpt lat="45.36565920367289" lon="3.1700410358605073"><ele>658.0</ele><time>2026-04-18T09:19:29.999Z</time></trkpt><trkpt lat="45.36566855690794" lon="3.170320010073424"><ele>657.3333333333334</ele><time>2026-04-18T09:19:30.999Z</time></trkpt><trkpt lat="45.365674918447844" lon="3.170593477377521"><ele>656.6666666666666</ele><time>2026-04-18T09:19:31.999Z</time></trkpt><trkpt lat="45.36568352457317" lon="3.1708591000318007"><ele>656.0</ele><time>2026-04-18T09:19:32.999Z</time></trkpt><trkpt lat="45.36568716890727" lon="3.1711198068730946"><ele>655.3333333333333</ele><time>2026-04-18T09:19:33.999Z</time></trkpt><trkpt lat="45.36568909460755" lon="3.1713835593524964"><ele>654.6666666666666</ele><time>2026-04-18T09:19:34.999Z</time></trkpt><trkpt lat="45.365693531682" lon="3.171646100083079"><ele>654.0</ele><time>2026-04-18T09:19:35.999Z</time></trkpt><trkpt lat="45.36569887837105" lon="3.171915642719208"><ele>653.6666666666666</ele><time>2026-04-18T09:19:36.999Z</time></trkpt><trkpt lat="45.36568765420379" lon="3.172179448485985"><ele>653.3333333333333</ele><time>2026-04-18T09:19:37.999Z</time></trkpt><trkpt lat="45.365690480740504" lon="3.172428269685669"><ele>653.0</ele><time>2026-04-18T09:19:38.999Z</time></trkpt><trkpt lat="45.36571152632769" lon="3.172670818461403"><ele>652.3333333333333</ele><time>2026-04-18T09:19:39.999Z</time></trkpt><trkpt lat="45.36571533907525" lon="3.172899689111808"><ele>651.6666666666666</ele><time>2026-04-18T09:19:40.999Z</time></trkpt><trkpt lat="45.365712873513" lon="3.1731175821096973"><ele>651.0</ele><time>2026-04-18T09:19:41.999Z</time></trkpt><trkpt lat="45.36571596288204" lon="3.1733150644983983"><ele>650.4</ele><time>2026-04-18T09:19:42.999Z</time></trkpt><trkpt lat="45.36572272349045" lon="3.173495024390222"><ele>649.8</ele><time>2026-04-18T09:19:43.999Z</time></trkpt><trkpt lat="45.36572297579218" lon="3.173655350484337"><ele>649.1999999999999</ele><time>2026-04-18T09:19:44.999Z</time></trkpt><trkpt lat="45.36569411191021" lon="3.173804878575791"><ele>648.5999999999999</ele><time>2026-04-18T09:19:45.999Z</time></trkpt><trkpt lat="45.3656632172632" lon="3.1739379926501736"><ele>648.0</ele><time>2026-04-18T09:19:46.999Z</time></trkpt><trkpt lat="45.36562229037091" lon="3.1740740432064904"><ele>647.0</ele><time>2026-04-18T09:19:47.999Z</time></trkpt><trkpt lat="45.365514478144895" lon="3.1741590321154183"><ele>646.0</ele><time>2026-04-18T09:19:48.999Z</time></trkpt><trkpt lat="45.36540785417181" lon="3.1742350573711353"><ele>645.0</ele><time>2026-04-18T09:19:49.999Z</time></trkpt><trkpt lat="45.36529782066256" lon="3.1743042382231024"><ele>644.0</ele><time>2026-04-18T09:19:50.999Z</time></trkpt><trkpt lat="45.36518340267039" lon="3.1743848560185617"><ele>644.0</ele><time>2026-04-18T09:19:51.999Z</time></trkpt><trkpt lat="45.36507081006133" lon="3.174452232515719"><ele>644.0</ele><time>2026-04-18T09:19:52.999Z</time></trkpt><trkpt lat="45.364966023977125" lon="3.1745126647900825"><ele>644.0</ele><time>2026-04-18T09:19:53.999Z</time></trkpt><trkpt lat="45.364870020851534" lon="3.1745717040662593"><ele>644.0</ele><time>2026-04-18T09:19:54.999Z</time></trkpt><trkpt lat="45.364774677206064" lon="3.174638963753961"><ele>644.0</ele><time>2026-04-18T09:19:55.999Z</time></trkpt><trkpt lat="45.36467969836539" lon="3.174718517355168"><ele>643.75</ele><time>2026-04-18T09:19:56.999Z</time></trkpt><trkpt lat="45.36459363998999" lon="3.174826968362588"><ele>643.5</ele><time>2026-04-18T09:19:57.999Z</time></trkpt><trkpt lat="45.3645150697171" lon="3.1749587824716476"><ele>643.25</ele><time>2026-04-18T09:19:58.999Z</time></trkpt><trkpt lat="45.364432869722236" lon="3.1751139633955723"><ele>643.0</ele><time>2026-04-18T09:19:59.999Z</time></trkpt><trkpt lat="45.364326817061524" lon="3.175274988011617"><ele>642.0</ele><time>2026-04-18T09:20:00.999Z</time></trkpt><trkpt lat="45.364253539683595" lon="3.1754614851750764"><ele>641.0</ele><time>2026-04-18T09:20:01.999Z</time></trkpt><trkpt lat="45.36418691168857" lon="3.175624992360316"><ele>640.0</ele><time>2026-04-18T09:20:02.999Z</time></trkpt><trkpt lat="45.36413341233229" lon="3.17578731728408"><ele>639.0</ele><time>2026-04-18T09:20:03.999Z</time></trkpt><trkpt lat="45.36405259606801" lon="3.175912873680787"><ele>639.0</ele><time>2026-04-18T09:20:04.999Z</time></trkpt><trkpt lat="45.36396991811284" lon="3.1760244445813894"><ele>639.0</ele><time>2026-04-18T09:20:05.999Z</time></trkpt><trkpt lat="45.363868514265135" lon="3.176145697995742"><ele>639.0</ele><time>2026-04-18T09:20:06.999Z</time></trkpt><trkpt lat="45.36377960094387" lon="3.1762798603500646"><ele>639.0</ele><time>2026-04-18T09:20:07.999Z</time></trkpt><trkpt lat="45.36369065800095" lon="3.1763958811215356"><ele>637.25</ele><time>2026-04-18T09:20:09Z</time></trkpt><trkpt lat="45.363629012325745" lon="3.1765379728369005"><ele>635.5</ele><time>2026-04-18T09:20:10Z</time></trkpt><trkpt lat="45.36359567368723" lon="3.1767032938115816"><ele>633.75</ele><time>2026-04-18T09:20:11Z</time></trkpt><trkpt lat="45.36359235362115" lon="3.176881729908329"><ele>632.0</ele><time>2026-04-18T09:20:12Z</time></trkpt><trkpt lat="45.36361963575862" lon="3.177065969328135"><ele>632.0</ele><time>2026-04-18T09:20:13Z</time></trkpt><trkpt lat="45.363652278604434" lon="3.177235145099406"><ele>632.0</ele><time>2026-04-18T09:20:14Z</time></trkpt><trkpt lat="45.363676679125874" lon="3.177391925975619"><ele>632.0</ele><time>2026-04-18T09:20:15Z</time></trkpt><trkpt lat="45.363712227022845" lon="3.1775379739682075"><ele>632.0</ele><time>2026-04-18T09:20:16Z</time></trkpt><trkpt lat="45.363772279193604" lon="3.1776655251767525"><ele>632.0</ele><time>2026-04-18T09:20:17Z</time></trkpt><trkpt lat="45.36384939174177" lon="3.1777878426805244"><ele>632.0</ele><time>2026-04-18T09:20:18Z</time></trkpt><trkpt lat="45.36393043402272" lon="3.1779139415916946"><ele>632.0</ele><time>2026-04-18T09:20:19Z</time></trkpt><trkpt lat="45.36400466467824" lon="3.178035969986886"><ele>632.0</ele><time>2026-04-18T09:20:20Z</time></trkpt><trkpt lat="45.36407267323457" lon="3.1781537604973678"><ele>630.2</ele><time>2026-04-18T09:20:21Z</time></trkpt><trkpt lat="45.364136840280565" lon="3.1782661781361283"><ele>628.4000000000001</ele><time>2026-04-18T09:20:22Z</time></trkpt><trkpt lat="45.364174926885184" lon="3.1784088712877994"><ele>626.5999999999999</ele><time>2026-04-18T09:20:23Z</time></trkpt><trkpt lat="45.364195816895645" lon="3.1785411720598424"><ele>624.8</ele><time>2026-04-18T09:20:24Z</time></trkpt><trkpt lat="45.364222748027494" lon="3.178685637428857"><ele>623.0</ele><time>2026-04-18T09:20:25Z</time></trkpt><trkpt lat="45.364268763966" lon="3.1788308676679344"><ele>623.0</ele><time>2026-04-18T09:20:26Z</time></trkpt><trkpt lat="45.364329600524414" lon="3.1789856030686807"><ele>623.0</ele><time>2026-04-18T09:20:27Z</time></trkpt><trkpt lat="45.36441813694933" lon="3.179138056101101"><ele>623.0</ele><time>2026-04-18T09:20:28Z</time></trkpt><trkpt lat="45.36450758185621" lon="3.179295469081193"><ele>623.0</ele><time>2026-04-18T09:20:29Z</time></trkpt><trkpt lat="45.364577015915415" lon="3.1794929684764783"><ele>621.6666666666666</ele><time>2026-04-18T09:20:30Z</time></trkpt><trkpt lat="45.36466223945886" lon="3.179702683633223"><ele>620.3333333333334</ele><time>2026-04-18T09:20:31Z</time></trkpt><trkpt lat="45.36474962995915" lon="3.1798937741623745"><ele>619.0</ele><time>2026-04-18T09:20:32Z</time></trkpt><trkpt lat="45.36481899635195" lon="3.1800772422100607"><ele>617.75</ele><time>2026-04-18T09:20:33Z</time></trkpt><trkpt lat="45.36490608749138" lon="3.180238054635032"><ele>616.5</ele><time>2026-04-18T09:20:34Z</time></trkpt><trkpt lat="45.36502512250592" lon="3.180337781414999"><ele>615.25</ele><time>2026-04-18T09:20:34.999Z</time></trkpt><trkpt lat="45.36514639625812" lon="3.1804075564438086"><ele>614.0</ele><time>2026-04-18T09:20:35.999Z</time></trkpt><trkpt lat="45.36521244238962" lon="3.180511451808006"><ele>614.0</ele><time>2026-04-18T09:20:36.999Z</time></trkpt><trkpt lat="45.365267271683024" lon="3.1806279265404043"><ele>614.0</ele><time>2026-04-18T09:20:37.999Z</time></trkpt><trkpt lat="45.365206271361195" lon="3.1807785748014354"><ele>614.0</ele><time>2026-04-18T09:20:38.999Z</time></trkpt><trkpt lat="45.365150888065806" lon="3.180966879255578"><ele>614.0</ele><time>2026-04-18T09:20:39.999Z</time></trkpt><trkpt lat="45.36514151619296" lon="3.1811355579666674"><ele>612.75</ele><time>2026-04-18T09:20:40.999Z</time></trkpt><trkpt lat="45.365189054579524" lon="3.181264658635232"><ele>611.5</ele><time>2026-04-18T09:20:41.999Z</time></trkpt><trkpt lat="45.365314026615465" lon="3.1813655359925286"><ele>610.25</ele><time>2026-04-18T09:20:42.999Z</time></trkpt><trkpt lat="45.36545260146865" lon="3.1814930908652306"><ele>609.0</ele><time>2026-04-18T09:20:43.999Z</time></trkpt><trkpt lat="45.36550436355051" lon="3.1816294609421125"><ele>608.3333333333334</ele><time>2026-04-18T09:20:44.999Z</time></trkpt><trkpt lat="45.36550629745997" lon="3.181738593831786"><ele>607.6666666666666</ele><time>2026-04-18T09:20:45.999Z</time></trkpt><trkpt lat="45.3654654462696" lon="3.1818597900230867"><ele>607.0</ele><time>2026-04-18T09:20:46.999Z</time></trkpt><trkpt lat="45.365358861895444" lon="3.1818947170018257"><ele>606.3333333333333</ele><time>2026-04-18T09:20:47.999Z</time></trkpt><trkpt lat="45.36528789496026" lon="3.181958722960845"><ele>605.6666666666666</ele><time>2026-04-18T09:20:48.999Z</time></trkpt><trkpt lat="45.3652249547422" lon="3.1820281675544635"><ele>605.0</ele><time>2026-04-18T09:20:49.999Z</time></trkpt><trkpt lat="45.365164060996776" lon="3.182097315795732"><ele>605.0</ele><time>2026-04-18T09:20:50.999Z</time></trkpt><trkpt lat="45.365098683334445" lon="3.182191513725417"><ele>605.0</ele><time>2026-04-18T09:20:51.999Z</time></trkpt><trkpt lat="45.365044052366535" lon="3.182297470375429"><ele>605.0</ele><time>2026-04-18T09:20:52.999Z</time></trkpt><trkpt lat="45.36499589426937" lon="3.1824189887714978"><ele>605.0</ele><time>2026-04-18T09:20:53.999Z</time></trkpt><trkpt lat="45.36496458647451" lon="3.182561413042615"><ele>605.0</ele><time>2026-04-18T09:20:54.999Z</time></trkpt><trkpt lat="45.36494439896058" lon="3.182711269438248"><ele>605.5</ele><time>2026-04-18T09:20:55.999Z</time></trkpt><trkpt lat="45.3649180059938" lon="3.1828374215262607"><ele>606.0</ele><time>2026-04-18T09:20:56.999Z</time></trkpt><trkpt lat="45.36488217531274" lon="3.18294933988836"><ele>606.5</ele><time>2026-04-18T09:20:57.999Z</time></trkpt><trkpt lat="45.364838540082346" lon="3.183055062911786"><ele>607.0</ele><time>2026-04-18T09:20:58.999Z</time></trkpt><trkpt lat="45.36478818042206" lon="3.1831581801846944"><ele>607.5</ele><time>2026-04-18T09:20:59.999Z</time></trkpt><trkpt lat="45.364737411318885" lon="3.183268953240633"><ele>608.0</ele><time>2026-04-18T09:21:00.999Z</time></trkpt><trkpt lat="45.36469612503645" lon="3.1834002810134017"><ele>608.0</ele><time>2026-04-18T09:21:01.999Z</time></trkpt><trkpt lat="45.36467513402255" lon="3.1835528702994975"><ele>608.0</ele><time>2026-04-18T09:21:02.999Z</time></trkpt><trkpt lat="45.36465831576245" lon="3.183718349055066"><ele>608.0</ele><time>2026-04-18T09:21:03.999Z</time></trkpt><trkpt lat="45.364627647994396" lon="3.1839105762450206"><ele>608.0</ele><time>2026-04-18T09:21:04.999Z</time></trkpt><trkpt lat="45.364632447677764" lon="3.1841017508236753"><ele>606.25</ele><time>2026-04-18T09:21:05.999Z</time></trkpt><trkpt lat="45.36466195878854" lon="3.184295647643358"><ele>604.5</ele><time>2026-04-18T09:21:06.999Z</time></trkpt><trkpt lat="45.36464945544098" lon="3.1844649491873174"><ele>602.75</ele><time>2026-04-18T09:21:07.999Z</time></trkpt><trkpt lat="45.36454448531801" lon="3.1845543148793825"><ele>601.0</ele><time>2026-04-18T09:21:08.999Z</time></trkpt><trkpt lat="45.36447919798073" lon="3.1846766967162106"><ele>601.0</ele><time>2026-04-18T09:21:09.999Z</time></trkpt><trkpt lat="45.36443441619948" lon="3.184804667364624"><ele>601.0</ele><time>2026-04-18T09:21:10.999Z</time></trkpt><trkpt lat="45.364380341265054" lon="3.1849292701223497"><ele>601.0</ele><time>2026-04-18T09:21:11.999Z</time></trkpt><trkpt lat="45.36433773337521" lon="3.185076366737171"><ele>601.0</ele><time>2026-04-18T09:21:12.999Z</time></trkpt><trkpt lat="45.36428785909151" lon="3.1852222938602384"><ele>601.0</ele><time>2026-04-18T09:21:13.999Z</time></trkpt><trkpt lat="45.364238250110304" lon="3.1853630921776057"><ele>600.4</ele><time>2026-04-18T09:21:14.999Z</time></trkpt><trkpt lat="45.36418616280183" lon="3.185495075272239"><ele>599.8</ele><time>2026-04-18T09:21:15.999Z</time></trkpt><trkpt lat="45.364130523755435" lon="3.1856237911072025"><ele>599.1999999999999</ele><time>2026-04-18T09:21:16.999Z</time></trkpt><trkpt lat="45.3640587428758" lon="3.1857320393603508"><ele>598.6</ele><time>2026-04-18T09:21:17.999Z</time></trkpt><trkpt lat="45.364006896012285" lon="3.185860211878936"><ele>598.0</ele><time>2026-04-18T09:21:18.999Z</time></trkpt><trkpt lat="45.3639431831712" lon="3.1859732126726876"><ele>598.0</ele><time>2026-04-18T09:21:19.999Z</time></trkpt><trkpt lat="45.36387793755031" lon="3.186085124203625"><ele>598.0</ele><time>2026-04-18T09:21:20.999Z</time></trkpt><trkpt lat="45.36382138033749" lon="3.1862003462388966"><ele>598.0</ele><time>2026-04-18T09:21:21.999Z</time></trkpt><trkpt lat="45.36376724455566" lon="3.1863282955804575"><ele>598.0</ele><time>2026-04-18T09:21:22.999Z</time></trkpt><trkpt lat="45.36371113669129" lon="3.18647186730967"><ele>598.0</ele><time>2026-04-18T09:21:23.999Z</time></trkpt><trkpt lat="45.36364717946065" lon="3.1866329893893823"><ele>595.0</ele><time>2026-04-18T09:21:24.999Z</time></trkpt><trkpt lat="45.363587395199175" lon="3.1867932473328597"><ele>592.0</ele><time>2026-04-18T09:21:25.999Z</time></trkpt><trkpt lat="45.36353803285781" lon="3.186947147669314"><ele>589.0</ele><time>2026-04-18T09:21:26.999Z</time></trkpt><trkpt lat="45.363495244190894" lon="3.1870993220861603"><ele>586.0</ele><time>2026-04-18T09:21:27.999Z</time></trkpt><trkpt lat="45.36346960120772" lon="3.1872624662324434"><ele>585.25</ele><time>2026-04-18T09:21:28.999Z</time></trkpt><trkpt lat="45.36346397479963" lon="3.1874425739925396"><ele>584.5</ele><time>2026-04-18T09:21:29.999Z</time></trkpt><trkpt lat="45.363469022107" lon="3.187655272347225"><ele>583.75</ele><time>2026-04-18T09:21:31Z</time></trkpt><trkpt lat="45.36348026664121" lon="3.1878869476518834"><ele>583.0</ele><time>2026-04-18T09:21:32Z</time></trkpt><trkpt lat="45.36345572877569" lon="3.1880825333396086"><ele>582.25</ele><time>2026-04-18T09:21:33Z</time></trkpt><trkpt lat="45.36341063106495" lon="3.1882621075236326"><ele>581.5</ele><time>2026-04-18T09:21:34Z</time></trkpt><trkpt lat="45.3633596875066" lon="3.1884374254774905"><ele>580.75</ele><time>2026-04-18T09:21:35Z</time></trkpt><trkpt lat="45.36332138332778" lon="3.1886159015252233"><ele>580.0</ele><time>2026-04-18T09:21:36Z</time></trkpt><trkpt lat="45.363284195459386" lon="3.188753709639763"><ele>580.0</ele><time>2026-04-18T09:21:37Z</time></trkpt><trkpt lat="45.36326213208451" lon="3.188899656999191"><ele>580.0</ele><time>2026-04-18T09:21:38Z</time></trkpt><trkpt lat="45.36328117188795" lon="3.1890461491115056"><ele>580.0</ele><time>2026-04-18T09:21:39Z</time></trkpt><trkpt lat="45.36333576017944" lon="3.189195102682555"><ele>580.0</ele><time>2026-04-18T09:21:40Z</time></trkpt><trkpt lat="45.363413013676805" lon="3.189366995479002"><ele>578.3333333333334</ele><time>2026-04-18T09:21:41Z</time></trkpt><trkpt lat="45.36347921189401" lon="3.1896007956631607"><ele>576.6666666666666</ele><time>2026-04-18T09:21:42Z</time></trkpt><trkpt lat="45.363553261001066" lon="3.189833307866565"><ele>575.0</ele><time>2026-04-18T09:21:43Z</time></trkpt><trkpt lat="45.363617705870965" lon="3.1900388230284924"><ele>573.8</ele><time>2026-04-18T09:21:44Z</time></trkpt><trkpt lat="45.363644618666264" lon="3.1902429077451577"><ele>572.6</ele><time>2026-04-18T09:21:45Z</time></trkpt><trkpt lat="45.36371099887087" lon="3.1903894428690003"><ele>571.4</ele><time>2026-04-18T09:21:46Z</time></trkpt><trkpt lat="45.363788491658504" lon="3.190480158063944"><ele>570.2</ele><time>2026-04-18T09:21:47Z</time></trkpt><trkpt lat="45.363824357202745" lon="3.1905585235218528"><ele>569.0</ele><time>2026-04-18T09:21:48Z</time></trkpt><trkpt lat="45.36380187189822" lon="3.190718072802253"><ele>568.1666666666666</ele><time>2026-04-18T09:21:50Z</time></trkpt><trkpt lat="45.36375032090625" lon="3.190783738492255"><ele>567.3333333333333</ele><time>2026-04-18T09:21:52Z</time></trkpt><trkpt lat="45.36367967055911" lon="3.19082997734409"><ele>566.5</ele><time>2026-04-18T09:21:55Z</time></trkpt><trkpt lat="45.36358997424453" lon="3.190943021407552"><ele>565.6666666666666</ele><time>2026-04-18T09:21:57Z</time></trkpt><trkpt lat="45.36356161253313" lon="3.191038479985712"><ele>564.8333333333334</ele><time>2026-04-18T09:21:58Z</time></trkpt><trkpt lat="45.36354763058656" lon="3.191129562677629"><ele>564.0</ele><time>2026-04-18T09:21:59Z</time></trkpt><trkpt lat="45.3634861399172" lon="3.191288373359082"><ele>564.0</ele><time>2026-04-18T09:22:01Z</time></trkpt><trkpt lat="45.36344236269421" lon="3.191384387679155"><ele>564.0</ele><time>2026-04-18T09:22:02Z</time></trkpt><trkpt lat="45.3633916491074" lon="3.1914786539311386"><ele>564.0</ele><time>2026-04-18T09:22:03Z</time></trkpt><trkpt lat="45.36333845843867" lon="3.191582778273289"><ele>564.0</ele><time>2026-04-18T09:22:04Z</time></trkpt><trkpt lat="45.363289096293045" lon="3.1916998298853265"><ele>564.0</ele><time>2026-04-18T09:22:05Z</time></trkpt><trkpt lat="45.36325709805067" lon="3.1918364522221263"><ele>564.2</ele><time>2026-04-18T09:22:06Z</time></trkpt><trkpt lat="45.36323964633884" lon="3.191984597226998"><ele>564.4</ele><time>2026-04-18T09:22:07Z</time></trkpt><trkpt lat="45.36323409222791" lon="3.1921365436659057"><ele>564.6</ele><time>2026-04-18T09:22:08Z</time></trkpt><trkpt lat="45.36322500798435" lon="3.1922807995781213"><ele>564.8</ele><time>2026-04-18T09:22:09Z</time></trkpt><trkpt lat="45.36321276702496" lon="3.1924330233403326"><ele>565.0</ele><time>2026-04-18T09:22:10Z</time></trkpt><trkpt lat="45.36320101538921" lon="3.1925967446749297"><ele>565.0</ele><time>2026-04-18T09:22:11Z</time></trkpt><trkpt lat="45.36318904096393" lon="3.192761205034054"><ele>565.0</ele><time>2026-04-18T09:22:12Z</time></trkpt><trkpt lat="45.36317717608711" lon="3.1929217525630236"><ele>565.0</ele><time>2026-04-18T09:22:13Z</time></trkpt><trkpt lat="45.363168875110915" lon="3.193071590988235"><ele>565.0</ele><time>2026-04-18T09:22:14Z</time></trkpt><trkpt lat="45.36316816542169" lon="3.193216590403744"><ele>565.0</ele><time>2026-04-18T09:22:15.001Z</time></trkpt><trkpt lat="45.36317313309502" lon="3.193359930058307"><ele>564.8</ele><time>2026-04-18T09:22:16.001Z</time></trkpt><trkpt lat="45.36316837654129" lon="3.1934999619572433"><ele>564.6</ele><time>2026-04-18T09:22:17.001Z</time></trkpt><trkpt lat="45.363130287068294" lon="3.193623689562483"><ele>564.4</ele><time>2026-04-18T09:22:18.001Z</time></trkpt><trkpt lat="45.363116963312244" lon="3.1937612612944046"><ele>564.2</ele><time>2026-04-18T09:22:19.001Z</time></trkpt><trkpt lat="45.36307714263023" lon="3.1938906866553576"><ele>564.0</ele><time>2026-04-18T09:22:20.001Z</time></trkpt><trkpt lat="45.3630477890463" lon="3.1940178260999943"><ele>562.8</ele><time>2026-04-18T09:22:21.001Z</time></trkpt><trkpt lat="45.36303245744151" lon="3.1941477042169386"><ele>561.5999999999999</ele><time>2026-04-18T09:22:22.001Z</time></trkpt><trkpt lat="45.363037668407316" lon="3.1942801271453645"><ele>560.4</ele><time>2026-04-18T09:22:23Z</time></trkpt><trkpt lat="45.3630486692329" lon="3.1944127320500777"><ele>559.1999999999999</ele><time>2026-04-18T09:22:24.001Z</time></trkpt><trkpt lat="45.363103784300215" lon="3.194526740023246"><ele>558.0</ele><time>2026-04-18T09:22:25.001Z</time></trkpt><trkpt lat="45.36317835648307" lon="3.1946086835079015"><ele>558.0</ele><time>2026-04-18T09:22:26Z</time></trkpt><trkpt lat="45.36323294157715" lon="3.194686701261869"><ele>558.0</ele><time>2026-04-18T09:22:27Z</time></trkpt><trkpt lat="45.363282413044736" lon="3.1947739876947154"><ele>558.0</ele><time>2026-04-18T09:22:28Z</time></trkpt><trkpt lat="45.363278719891284" lon="3.194903604822144"><ele>558.0</ele><time>2026-04-18T09:22:29Z</time></trkpt><trkpt lat="45.363247658535215" lon="3.1950434145854305"><ele>558.0</ele><time>2026-04-18T09:22:30Z</time></trkpt><trkpt lat="45.36321209727088" lon="3.195170393092769"><ele>558.0</ele><time>2026-04-18T09:22:31Z</time></trkpt><trkpt lat="45.36319418013125" lon="3.1953038160567453"><ele>556.25</ele><time>2026-04-18T09:22:32Z</time></trkpt><trkpt lat="45.36318096613906" lon="3.1954527504389634"><ele>554.5</ele><time>2026-04-18T09:22:33Z</time></trkpt><trkpt lat="45.36315027265377" lon="3.1956118875952133"><ele>552.75</ele><time>2026-04-18T09:22:34Z</time></trkpt><trkpt lat="45.36307906780646" lon="3.1957474243908637"><ele>551.0</ele><time>2026-04-18T09:22:35Z</time></trkpt><trkpt lat="45.36302541524554" lon="3.1958838895869386"><ele>549.8</ele><time>2026-04-18T09:22:36Z</time></trkpt><trkpt lat="45.362972976413076" lon="3.1960120793936975"><ele>548.6</ele><time>2026-04-18T09:22:37Z</time></trkpt><trkpt lat="45.36291121710425" lon="3.1961349085999866"><ele>547.4</ele><time>2026-04-18T09:22:38Z</time></trkpt><trkpt lat="45.36285732823818" lon="3.196277162613909"><ele>546.2</ele><time>2026-04-18T09:22:39Z</time></trkpt><trkpt lat="45.362770026439684" lon="3.196395619158539"><ele>545.0</ele><time>2026-04-18T09:22:40Z</time></trkpt><trkpt lat="45.362704057590804" lon="3.1965386570996155"><ele>543.6</ele><time>2026-04-18T09:22:41Z</time></trkpt><trkpt lat="45.362627232761795" lon="3.196662941653345"><ele>542.2</ele><time>2026-04-18T09:22:42Z</time></trkpt><trkpt lat="45.36256510827054" lon="3.1967803069679417"><ele>540.8</ele><time>2026-04-18T09:22:43Z</time></trkpt><trkpt lat="45.36249883014204" lon="3.1968878324727186"><ele>539.4</ele><time>2026-04-18T09:22:44Z</time></trkpt><trkpt lat="45.36244083777797" lon="3.196998025266506"><ele>538.0</ele><time>2026-04-18T09:22:45Z</time></trkpt><trkpt lat="45.362381683379596" lon="3.1971018416849515"><ele>538.0</ele><time>2026-04-18T09:22:46Z</time></trkpt><trkpt lat="45.36232390427262" lon="3.197201972818754"><ele>538.0</ele><time>2026-04-18T09:22:47Z</time></trkpt><trkpt lat="45.36226456311481" lon="3.197299488792256"><ele>538.0</ele><time>2026-04-18T09:22:48Z</time></trkpt><trkpt lat="45.36220601315919" lon="3.1973929787554836"><ele>538.0</ele><time>2026-04-18T09:22:49Z</time></trkpt><trkpt lat="45.36214928938296" lon="3.1974909950258787"><ele>538.0</ele><time>2026-04-18T09:22:50Z</time></trkpt><trkpt lat="45.36208964728793" lon="3.197601723331739"><ele>537.1999999999999</ele><time>2026-04-18T09:22:51Z</time></trkpt><trkpt lat="45.3620406747818" lon="3.1977156320628217"><ele>536.4</ele><time>2026-04-18T09:22:52Z</time></trkpt><trkpt lat="45.36200061197008" lon="3.19784259124367"><ele>535.5999999999999</ele><time>2026-04-18T09:22:53Z</time></trkpt><trkpt lat="45.361949090718234" lon="3.1979752411485776"><ele>534.8</ele><time>2026-04-18T09:22:54Z</time></trkpt><trkpt lat="45.36191668457853" lon="3.1981230586863516"><ele>534.0</ele><time>2026-04-18T09:22:55Z</time></trkpt><trkpt lat="45.36188904985613" lon="3.198256668075704"><ele>532.6</ele><time>2026-04-18T09:22:56Z</time></trkpt><trkpt lat="45.36185592518015" lon="3.198375254884606"><ele>531.2</ele><time>2026-04-18T09:22:57Z</time></trkpt><trkpt lat="45.361784532702465" lon="3.198468992344149"><ele>529.8000000000001</ele><time>2026-04-18T09:22:58Z</time></trkpt><trkpt lat="45.3616973267875" lon="3.198540779929949"><ele>528.4</ele><time>2026-04-18T09:22:59Z</time></trkpt><trkpt lat="45.36158146583821" lon="3.1985672186347465"><ele>527.0</ele><time>2026-04-18T09:23:00Z</time></trkpt><trkpt lat="45.361453002627144" lon="3.1986379182347107"><ele>527.25</ele><time>2026-04-18T09:23:01Z</time></trkpt><trkpt lat="45.36134736245348" lon="3.1987394680681387"><ele>527.5</ele><time>2026-04-18T09:23:02Z</time></trkpt><trkpt lat="45.36124610523525" lon="3.1988262544995054"><ele>527.75</ele><time>2026-04-18T09:23:03Z</time></trkpt><trkpt lat="45.36114688535722" lon="3.1989126232864113"><ele>528.0</ele><time>2026-04-18T09:23:04Z</time></trkpt><trkpt lat="45.36103827710047" lon="3.199006848602989"><ele>527.5</ele><time>2026-04-18T09:23:05Z</time></trkpt><trkpt lat="45.360919650730885" lon="3.199083091778974"><ele>527.0</ele><time>2026-04-18T09:23:06Z</time></trkpt><trkpt lat="45.36080384273702" lon="3.199142286701122"><ele>526.5</ele><time>2026-04-18T09:23:07Z</time></trkpt><trkpt lat="45.36068002744158" lon="3.1991855637617377"><ele>526.0</ele><time>2026-04-18T09:23:08Z</time></trkpt><trkpt lat="45.36054608050143" lon="3.1992141486412673"><ele>523.5</ele><time>2026-04-18T09:23:09Z</time></trkpt><trkpt lat="45.360434366306855" lon="3.1992598356488817"><ele>521.0</ele><time>2026-04-18T09:23:10Z</time></trkpt><trkpt lat="45.360304949870155" lon="3.1993234218506084"><ele>518.5</ele><time>2026-04-18T09:23:11Z</time></trkpt><trkpt lat="45.36017792607046" lon="3.1994158335236196"><ele>516.0</ele><time>2026-04-18T09:23:12Z</time></trkpt><trkpt lat="45.360058621173806" lon="3.1995149262961835"><ele>516.0</ele><time>2026-04-18T09:23:13Z</time></trkpt><trkpt lat="45.35994197255022" lon="3.19959332502368"><ele>516.0</ele><time>2026-04-18T09:23:14Z</time></trkpt><trkpt lat="45.3598155128805" lon="3.199657379168572"><ele>516.0</ele><time>2026-04-18T09:23:15Z</time></trkpt><trkpt lat="45.35967552060074" lon="3.1996949446218768"><ele>516.0</ele><time>2026-04-18T09:23:16Z</time></trkpt><trkpt lat="45.35953841423225" lon="3.1997077943530328"><ele>516.5</ele><time>2026-04-18T09:23:17Z</time></trkpt><trkpt lat="45.359413151177144" lon="3.1997394834764408"><ele>517.0</ele><time>2026-04-18T09:23:18Z</time></trkpt><trkpt lat="45.359290009609886" lon="3.199808105010042"><ele>517.5</ele><time>2026-04-18T09:23:19Z</time></trkpt><trkpt lat="45.359159582628166" lon="3.199917629868889"><ele>518.0</ele><time>2026-04-18T09:23:20Z</time></trkpt><trkpt lat="45.3590212032707" lon="3.200053844091383"><ele>518.0</ele><time>2026-04-18T09:23:21Z</time></trkpt><trkpt lat="45.35889326055063" lon="3.200184721015675"><ele>518.0</ele><time>2026-04-18T09:23:22Z</time></trkpt><trkpt lat="45.358791763924245" lon="3.2002905990767934"><ele>518.0</ele><time>2026-04-18T09:23:23Z</time></trkpt><trkpt lat="45.358707398271115" lon="3.2004055590802065"><ele>518.0</ele><time>2026-04-18T09:23:24Z</time></trkpt><trkpt lat="45.35864045158276" lon="3.200567690789162"><ele>516.0</ele><time>2026-04-18T09:23:25Z</time></trkpt><trkpt lat="45.35859453769691" lon="3.200773820857086"><ele>514.0</ele><time>2026-04-18T09:23:26Z</time></trkpt><trkpt lat="45.35857094010355" lon="3.201025153546462"><ele>512.0</ele><time>2026-04-18T09:23:27Z</time></trkpt><trkpt lat="45.358529114551985" lon="3.201307614494715"><ele>510.5</ele><time>2026-04-18T09:23:28Z</time></trkpt><trkpt lat="45.3585007436362" lon="3.2015206184653064"><ele>509.0</ele><time>2026-04-18T09:23:29Z</time></trkpt><trkpt lat="45.358450780854724" lon="3.201688899538752"><ele>507.5</ele><time>2026-04-18T09:23:30Z</time></trkpt><trkpt lat="45.35837310104606" lon="3.201852291409868"><ele>506.0</ele><time>2026-04-18T09:23:31Z</time></trkpt><trkpt lat="45.35829521033395" lon="3.2020154527149916"><ele>506.0</ele><time>2026-04-18T09:23:32Z</time></trkpt><trkpt lat="45.3582361899917" lon="3.2021796795205244"><ele>506.0</ele><time>2026-04-18T09:23:33Z</time></trkpt><trkpt lat="45.35817160703133" lon="3.2023230992557834"><ele>506.0</ele><time>2026-04-18T09:23:34Z</time></trkpt><trkpt lat="45.35812537334537" lon="3.202464314017052"><ele>506.0</ele><time>2026-04-18T09:23:35Z</time></trkpt><trkpt lat="45.35809335352312" lon="3.20261887932222"><ele>507.75</ele><time>2026-04-18T09:23:36Z</time></trkpt><trkpt lat="45.358083536990016" lon="3.2027986332091025"><ele>509.5</ele><time>2026-04-18T09:23:37Z</time></trkpt><trkpt lat="45.35808266783726" lon="3.2029844205388716"><ele>511.25</ele><time>2026-04-18T09:23:38Z</time></trkpt><trkpt lat="45.35805771837107" lon="3.203143854500377"><ele>513.0</ele><time>2026-04-18T09:23:39Z</time></trkpt><trkpt lat="45.35804170392386" lon="3.203297341012341"><ele>509.75</ele><time>2026-04-18T09:23:40Z</time></trkpt><trkpt lat="45.358002945420814" lon="3.2034404786756854"><ele>506.5</ele><time>2026-04-18T09:23:41Z</time></trkpt><trkpt lat="45.3579344891372" lon="3.20358773699842"><ele>503.25</ele><time>2026-04-18T09:23:42Z</time></trkpt><trkpt lat="45.3578765736874" lon="3.2037569435872815"><ele>500.0</ele><time>2026-04-18T09:23:43Z</time></trkpt><trkpt lat="45.35781358843441" lon="3.2039231790531493"><ele>498.8</ele><time>2026-04-18T09:23:44Z</time></trkpt><trkpt lat="45.35778187746433" lon="3.204076496554307"><ele>497.6</ele><time>2026-04-18T09:23:45Z</time></trkpt><trkpt lat="45.357752873230766" lon="3.2042314913837058"><ele>496.4</ele><time>2026-04-18T09:23:46Z</time></trkpt><trkpt lat="45.357736415768066" lon="3.2043785155642452"><ele>495.2</ele><time>2026-04-18T09:23:47Z</time></trkpt><trkpt lat="45.35774818801439" lon="3.204521281035991"><ele>494.0</ele><time>2026-04-18T09:23:48Z</time></trkpt><trkpt lat="45.357803722241755" lon="3.2046520244686953"><ele>494.0</ele><time>2026-04-18T09:23:49Z</time></trkpt><trkpt lat="45.35788396160087" lon="3.2047684468861046"><ele>494.0</ele><time>2026-04-18T09:23:50Z</time></trkpt><trkpt lat="45.35797343739506" lon="3.2048969986487448"><ele>494.0</ele><time>2026-04-18T09:23:51Z</time></trkpt><trkpt lat="45.35802299531058" lon="3.205059879022129"><ele>494.0</ele><time>2026-04-18T09:23:52Z</time></trkpt><trkpt lat="45.35806085983253" lon="3.205226654305559"><ele>495.25</ele><time>2026-04-18T09:23:53Z</time></trkpt><trkpt lat="45.358084156902436" lon="3.2054034610589257"><ele>496.5</ele><time>2026-04-18T09:23:54Z</time></trkpt><trkpt lat="45.35808756762553" lon="3.2055665004411105"><ele>497.75</ele><time>2026-04-18T09:23:55Z</time></trkpt><trkpt lat="45.35808620047665" lon="3.2057192746008933"><ele>499.0</ele><time>2026-04-18T09:23:56Z</time></trkpt><trkpt lat="45.358075961281244" lon="3.2058697391158453"><ele>499.0</ele><time>2026-04-18T09:23:57Z</time></trkpt><trkpt lat="45.358051389882775" lon="3.206013221684209"><ele>499.0</ele><time>2026-04-18T09:23:58Z</time></trkpt><trkpt lat="45.35800540449386" lon="3.2061384363890184"><ele>499.0</ele><time>2026-04-18T09:23:59Z</time></trkpt><trkpt lat="45.35794000809321" lon="3.20625484975637"><ele>499.0</ele><time>2026-04-18T09:24:00Z</time></trkpt><trkpt lat="45.357855921462196" lon="3.2063537809183"><ele>499.0</ele><time>2026-04-18T09:24:01Z</time></trkpt><trkpt lat="45.35777008797084" lon="3.2064518657400374"><ele>494.79999999999995</ele><time>2026-04-18T09:24:02Z</time></trkpt><trkpt lat="45.35769793826381" lon="3.2065750129564385"><ele>490.59999999999997</ele><time>2026-04-18T09:24:03Z</time></trkpt><trkpt lat="45.35763755287484" lon="3.206706178611833"><ele>486.4</ele><time>2026-04-18T09:24:04Z</time></trkpt><trkpt lat="45.3576234657304" lon="3.206853622265894"><ele>482.2</ele><time>2026-04-18T09:24:05Z</time></trkpt><trkpt lat="45.35762601889678" lon="3.2069935329718198"><ele>478.0</ele><time>2026-04-18T09:24:06Z</time></trkpt><trkpt lat="45.35762108128673" lon="3.207104632906283"><ele>478.0</ele><time>2026-04-18T09:24:07Z</time></trkpt><trkpt lat="45.35761704013861" lon="3.2071955618187307"><ele>477.99999999999994</ele><time>2026-04-18T09:24:08Z</time></trkpt><trkpt lat="45.35774692101289" lon="3.207379262242211"><ele>477.99999999999994</ele><time>2026-04-18T09:24:10Z</time></trkpt><trkpt lat="45.35770098353296" lon="3.2074488707711644"><ele>478.0</ele><time>2026-04-18T09:24:11Z</time></trkpt><trkpt lat="45.357605037455485" lon="3.207508734796462"><ele>478.0</ele><time>2026-04-18T09:24:13Z</time></trkpt><trkpt lat="45.35749310874253" lon="3.2075931117213066"><ele>478.00000000000006</ele><time>2026-04-18T09:24:15Z</time></trkpt><trkpt lat="45.3574289290779" lon="3.207656688933892"><ele>478.0</ele><time>2026-04-18T09:24:15.999Z</time></trkpt><trkpt lat="45.35736223143617" lon="3.207720503131149"><ele>478.0</ele><time>2026-04-18T09:24:16.999Z</time></trkpt><trkpt lat="45.357307140862474" lon="3.2077766892425417"><ele>478.0</ele><time>2026-04-18T09:24:17.999Z</time></trkpt><trkpt lat="45.357224808570436" lon="3.2079051924792994"><ele>478.00000000000006</ele><time>2026-04-18T09:24:20Z</time></trkpt><trkpt lat="45.357194208545486" lon="3.208000046393242"><ele>478.0</ele><time>2026-04-18T09:24:21Z</time></trkpt><trkpt lat="45.357184752875646" lon="3.2081058375703755"><ele>478.2</ele><time>2026-04-18T09:24:22Z</time></trkpt><trkpt lat="45.35720406015974" lon="3.208217005069132"><ele>478.4</ele><time>2026-04-18T09:24:23Z</time></trkpt><trkpt lat="45.35724363812751" lon="3.2083285117036713"><ele>478.59999999999997</ele><time>2026-04-18T09:24:24Z</time></trkpt><trkpt lat="45.35729260793654" lon="3.208438909154314"><ele>478.79999999999995</ele><time>2026-04-18T09:24:25Z</time></trkpt><trkpt lat="45.35733765567051" lon="3.2085545730770675"><ele>479.0</ele><time>2026-04-18T09:24:26Z</time></trkpt><trkpt lat="45.35739386978198" lon="3.208675116538721"><ele>479.0</ele><time>2026-04-18T09:24:27Z</time></trkpt><trkpt lat="45.357458598114135" lon="3.208793956467304"><ele>479.0</ele><time>2026-04-18T09:24:28Z</time></trkpt><trkpt lat="45.35752862367148" lon="3.2089153767818432"><ele>479.0</ele><time>2026-04-18T09:24:29Z</time></trkpt><trkpt lat="45.357599083106116" lon="3.209037611226025"><ele>479.0</ele><time>2026-04-18T09:24:30Z</time></trkpt><trkpt lat="45.35766088397593" lon="3.2091505470170008"><ele>479.0</ele><time>2026-04-18T09:24:31Z</time></trkpt><trkpt lat="45.35772336400485" lon="3.2092575891342245"><ele>481.6</ele><time>2026-04-18T09:24:32Z</time></trkpt><trkpt lat="45.35777821777726" lon="3.2093754520943074"><ele>484.2</ele><time>2026-04-18T09:24:33Z</time></trkpt><trkpt lat="45.35782595875142" lon="3.209501786108094"><ele>486.80000000000007</ele><time>2026-04-18T09:24:34Z</time></trkpt><trkpt lat="45.35785581733568" lon="3.209650288674402"><ele>489.40000000000003</ele><time>2026-04-18T09:24:35Z</time></trkpt><trkpt lat="45.35789447974736" lon="3.2097896773599137"><ele>492.0</ele><time>2026-04-18T09:24:36Z</time></trkpt><trkpt lat="45.35792483467065" lon="3.209940045963971"><ele>494.5</ele><time>2026-04-18T09:24:37Z</time></trkpt><trkpt lat="45.35793569159116" lon="3.2100930806121184"><ele>497.0</ele><time>2026-04-18T09:24:38Z</time></trkpt><trkpt lat="45.35793538019997" lon="3.2102439984868094"><ele>499.5</ele><time>2026-04-18T09:24:39Z</time></trkpt><trkpt lat="45.357914559863794" lon="3.2104137926709577"><ele>502.0</ele><time>2026-04-18T09:24:40Z</time></trkpt><trkpt lat="45.357895586904654" lon="3.210580247328837"><ele>503.0</ele><time>2026-04-18T09:24:41Z</time></trkpt><trkpt lat="45.35787048245654" lon="3.210753604347303"><ele>504.0</ele><time>2026-04-18T09:24:42Z</time></trkpt><trkpt lat="45.3578451120043" lon="3.210925450749592"><ele>505.0</ele><time>2026-04-18T09:24:43Z</time></trkpt><trkpt lat="45.35781075260672" lon="3.21108199596569"><ele>506.0</ele><time>2026-04-18T09:24:44Z</time></trkpt><trkpt lat="45.3577779696011" lon="3.211212417873662"><ele>506.0</ele><time>2026-04-18T09:24:45Z</time></trkpt><trkpt lat="45.35775343267181" lon="3.211337563633562"><ele>506.0</ele><time>2026-04-18T09:24:46Z</time></trkpt><trkpt lat="45.35775212817952" lon="3.211476369478481"><ele>506.0</ele><time>2026-04-18T09:24:47Z</time></trkpt><trkpt lat="45.357789351466074" lon="3.211591277356332"><ele>506.0</ele><time>2026-04-18T09:24:48Z</time></trkpt><trkpt lat="45.35785642833091" lon="3.211684045600191"><ele>506.0</ele><time>2026-04-18T09:24:49Z</time></trkpt><trkpt lat="45.35795296134939" lon="3.2117418351689677"><ele>501.0</ele><time>2026-04-18T09:24:50Z</time></trkpt><trkpt lat="45.35805545983485" lon="3.2117908588128943"><ele>496.0</ele><time>2026-04-18T09:24:51Z</time></trkpt><trkpt lat="45.35815462959866" lon="3.211847534716827"><ele>491.0</ele><time>2026-04-18T09:24:52Z</time></trkpt><trkpt lat="45.35825466554692" lon="3.211941397222299"><ele>486.0</ele><time>2026-04-18T09:24:53Z</time></trkpt><trkpt lat="45.358338977178335" lon="3.2120701404050083"><ele>486.0</ele><time>2026-04-18T09:24:54Z</time></trkpt><trkpt lat="45.358409784031906" lon="3.212183961595257"><ele>486.0</ele><time>2026-04-18T09:24:55Z</time></trkpt><trkpt lat="45.35848877218536" lon="3.2122669941015904"><ele>486.0</ele><time>2026-04-18T09:24:56Z</time></trkpt><trkpt lat="45.35858337248715" lon="3.2123145741255588"><ele>486.0</ele><time>2026-04-18T09:24:57Z</time></trkpt><trkpt lat="45.35868896631913" lon="3.21233917151825"><ele>486.0</ele><time>2026-04-18T09:24:58Z</time></trkpt><trkpt lat="45.35878633608577" lon="3.2123725514849766"><ele>486.20000000000005</ele><time>2026-04-18T09:24:59Z</time></trkpt><trkpt lat="45.35886272832232" lon="3.212439050934654"><ele>486.40000000000003</ele><time>2026-04-18T09:25:00Z</time></trkpt><trkpt lat="45.35892028561668" lon="3.2125326494947553"><ele>486.6</ele><time>2026-04-18T09:25:01Z</time></trkpt><trkpt lat="45.358965770598935" lon="3.2126607993824745"><ele>486.8</ele><time>2026-04-18T09:25:02Z</time></trkpt><trkpt lat="45.358994652070486" lon="3.212809708012073"><ele>487.0</ele><time>2026-04-18T09:25:03Z</time></trkpt><trkpt lat="45.35899359385804" lon="3.2129821140807127"><ele>487.25</ele><time>2026-04-18T09:25:04Z</time></trkpt><trkpt lat="45.35896608291436" lon="3.213164465216302"><ele>487.5</ele><time>2026-04-18T09:25:05Z</time></trkpt><trkpt lat="45.35894851638654" lon="3.2133506308248294"><ele>487.75</ele><time>2026-04-18T09:25:06Z</time></trkpt><trkpt lat="45.35898124982884" lon="3.213514023177048"><ele>488.0</ele><time>2026-04-18T09:25:07Z</time></trkpt><trkpt lat="45.359021198764985" lon="3.2136607747434804"><ele>488.0</ele><time>2026-04-18T09:25:08Z</time></trkpt><trkpt lat="45.35903555370542" lon="3.213803445948236"><ele>487.99999999999994</ele><time>2026-04-18T09:25:09Z</time></trkpt><trkpt lat="45.35902624265543" lon="3.2139440590928996"><ele>487.99999999999994</ele><time>2026-04-18T09:25:10Z</time></trkpt><trkpt lat="45.35899859981255" lon="3.2140881582105303"><ele>488.0</ele><time>2026-04-18T09:25:11Z</time></trkpt><trkpt lat="45.358960702550306" lon="3.214260111724988"><ele>488.0</ele><time>2026-04-18T09:25:12Z</time></trkpt><trkpt lat="45.35890824807785" lon="3.2144626384614376"><ele>493.0</ele><time>2026-04-18T09:25:13Z</time></trkpt><trkpt lat="45.35886126707978" lon="3.2146447991183527"><ele>498.0</ele><time>2026-04-18T09:25:14Z</time></trkpt><trkpt lat="45.35881409146378" lon="3.214811955039278"><ele>503.0</ele><time>2026-04-18T09:25:15Z</time></trkpt><trkpt lat="45.35875696461971" lon="3.2149675757472584"><ele>508.0</ele><time>2026-04-18T09:25:16Z</time></trkpt><trkpt lat="45.35868469651246" lon="3.21512477952899"><ele>508.0</ele><time>2026-04-18T09:25:17Z</time></trkpt><trkpt lat="45.358607688519115" lon="3.2152995615512996"><ele>508.0</ele><time>2026-04-18T09:25:18Z</time></trkpt><trkpt lat="45.35854325273012" lon="3.215497372236756"><ele>508.0</ele><time>2026-04-18T09:25:19Z</time></trkpt><trkpt lat="45.35848443649612" lon="3.215709335341685"><ele>505.25</ele><time>2026-04-18T09:25:20Z</time></trkpt><trkpt lat="45.358426226646635" lon="3.2158992225044427"><ele>502.5</ele><time>2026-04-18T09:25:21Z</time></trkpt><trkpt lat="45.35836886661312" lon="3.2160694339274256"><ele>499.75</ele><time>2026-04-18T09:25:22Z</time></trkpt><trkpt lat="45.358309184768665" lon="3.2162343109653913"><ele>497.0</ele><time>2026-04-18T09:25:23Z</time></trkpt><trkpt lat="45.3582391712409" lon="3.2163852245152094"><ele>499.25</ele><time>2026-04-18T09:25:24Z</time></trkpt><trkpt lat="45.358144290524" lon="3.216524121812441"><ele>501.5</ele><time>2026-04-18T09:25:25Z</time></trkpt><trkpt lat="45.3580401979887" lon="3.21666941294765"><ele>503.75</ele><time>2026-04-18T09:25:26Z</time></trkpt><trkpt lat="45.357938674740055" lon="3.21681301285584"><ele>506.0</ele><time>2026-04-18T09:25:27Z</time></trkpt><trkpt lat="45.35783784672316" lon="3.2169652853514563"><ele>506.0</ele><time>2026-04-18T09:25:28Z</time></trkpt><trkpt lat="45.35773661621547" lon="3.2171150325320985"><ele>506.0</ele><time>2026-04-18T09:25:29Z</time></trkpt><trkpt lat="45.35763219611924" lon="3.217255064386056"><ele>506.0</ele><time>2026-04-18T09:25:30Z</time></trkpt><trkpt lat="45.357523295130406" lon="3.2173924830298404"><ele>506.0</ele><time>2026-04-18T09:25:31Z</time></trkpt><trkpt lat="45.357394212202664" lon="3.217527338303256"><ele>505.0</ele><time>2026-04-18T09:25:32Z</time></trkpt><trkpt lat="45.35725645122562" lon="3.2176556767093833"><ele>504.0</ele><time>2026-04-18T09:25:33Z</time></trkpt><trkpt lat="45.35711702486054" lon="3.2177785525727036"><ele>503.0</ele><time>2026-04-18T09:25:34Z</time></trkpt><trkpt lat="45.356982438329176" lon="3.217902366782485"><ele>503.0</ele><time>2026-04-18T09:25:35Z</time></trkpt><trkpt lat="45.35685230611127" lon="3.218018772796925"><ele>503.0</ele><time>2026-04-18T09:25:36Z</time></trkpt><trkpt lat="45.35673669576332" lon="3.2181269261661636"><ele>503.0</ele><time>2026-04-18T09:25:37Z</time></trkpt><trkpt lat="45.35661750779629" lon="3.2182227015304403"><ele>503.0</ele><time>2026-04-18T09:25:38Z</time></trkpt><trkpt lat="45.35649616776211" lon="3.2183072282155503"><ele>498.5</ele><time>2026-04-18T09:25:39Z</time></trkpt><trkpt lat="45.35636913265279" lon="3.2183773254002896"><ele>494.0</ele><time>2026-04-18T09:25:40Z</time></trkpt><trkpt lat="45.35623685779415" lon="3.218430959102394"><ele>489.5</ele><time>2026-04-18T09:25:41Z</time></trkpt><trkpt lat="45.35611116481334" lon="3.218457838502965"><ele>485.0</ele><time>2026-04-18T09:25:42Z</time></trkpt><trkpt lat="45.35599979441332" lon="3.2184745382093274"><ele>485.0</ele><time>2026-04-18T09:25:43Z</time></trkpt><trkpt lat="45.355900590052634" lon="3.218476955435706"><ele>485.0</ele><time>2026-04-18T09:25:44Z</time></trkpt><trkpt lat="45.355821069661154" lon="3.2184815733650214"><ele>485.0</ele><time>2026-04-18T09:25:45Z</time></trkpt><trkpt lat="45.35571487008931" lon="3.218466240475606"><ele>485.0</ele><time>2026-04-18T09:25:46.999Z</time></trkpt><trkpt lat="45.355634743634035" lon="3.2185305408823712"><ele>485.0</ele><time>2026-04-18T09:25:48.999Z</time></trkpt><trkpt lat="45.35561231960315" lon="3.218663532182829"><ele>484.99999999999994</ele><time>2026-04-18T09:25:50.999Z</time></trkpt><trkpt lat="45.355614232115364" lon="3.2188151331404895"><ele>485.0</ele><time>2026-04-18T09:25:52.999Z</time></trkpt><trkpt lat="45.35561446735498" lon="3.2189320117240086"><ele>485.0</ele><time>2026-04-18T09:25:54.999Z</time></trkpt><trkpt lat="45.355617150653984" lon="3.219035940659072"><ele>485.0</ele><time>2026-04-18T09:25:56.999Z</time></trkpt><trkpt lat="45.35561388353871" lon="3.2191398797857618"><ele>484.99999999999994</ele><time>2026-04-18T09:25:58.999Z</time></trkpt><trkpt lat="45.3556170994153" lon="3.2192594928540084"><ele>485.0</ele><time>2026-04-18T09:26:00.999Z</time></trkpt><trkpt lat="45.35561910443781" lon="3.2194013419163903"><ele>482.16666666666663</ele><time>2026-04-18T09:26:02.999Z</time></trkpt><trkpt lat="45.35561763509576" lon="3.2194924323391807"><ele>479.3333333333333</ele><time>2026-04-18T09:26:03.999Z</time></trkpt><trkpt lat="45.35561633027744" lon="3.219591070283439"><ele>476.5</ele><time>2026-04-18T09:26:04.999Z</time></trkpt><trkpt lat="45.3556147150102" lon="3.219682159848082"><ele>473.66666666666663</ele><time>2026-04-18T09:26:05.999Z</time></trkpt><trkpt lat="45.35560221474244" lon="3.219772393549085"><ele>470.8333333333333</ele><time>2026-04-18T09:26:06.999Z</time></trkpt><trkpt lat="45.35556400463633" lon="3.2199333912219896"><ele>468.0</ele><time>2026-04-18T09:26:08.999Z</time></trkpt><trkpt lat="45.35552608033174" lon="3.220051637489039"><ele>468.0</ele><time>2026-04-18T09:26:10.999Z</time></trkpt><trkpt lat="45.35546840692997" lon="3.2201314995608232"><ele>467.99999999999994</ele><time>2026-04-18T09:26:27Z</time></trkpt><trkpt lat="45.355398922219756" lon="3.2201196413771935"><ele>467.99999999999994</ele><time>2026-04-18T09:26:29Z</time></trkpt><trkpt lat="45.35529066205776" lon="3.2200670907289006"><ele>468.0</ele><time>2026-04-18T09:26:31Z</time></trkpt><trkpt lat="45.355159949082385" lon="3.220021349043268"><ele>468.0</ele><time>2026-04-18T09:26:33Z</time></trkpt><trkpt lat="45.35507760455371" lon="3.2200024565288734"><ele>468.0</ele><time>2026-04-18T09:26:34Z</time></trkpt><trkpt lat="45.35499239255617" lon="3.2199825518906193"><ele>467.99999999999994</ele><time>2026-04-18T09:26:35Z</time></trkpt><trkpt lat="45.35490508609011" lon="3.2199626755205664"><ele>467.99999999999994</ele><time>2026-04-18T09:26:36Z</time></trkpt><trkpt lat="45.354814985326904" lon="3.219949897627468"><ele>468.0</ele><time>2026-04-18T09:26:37Z</time></trkpt><trkpt lat="45.354720898965034" lon="3.2199424970386263"><ele>468.0</ele><time>2026-04-18T09:26:38Z</time></trkpt><trkpt lat="45.354625237306564" lon="3.219947369962814"><ele>467.3333333333333</ele><time>2026-04-18T09:26:39Z</time></trkpt><trkpt lat="45.35454389860539" lon="3.2199542557125347"><ele>466.66666666666663</ele><time>2026-04-18T09:26:40Z</time></trkpt><trkpt lat="45.354473631806215" lon="3.219970028795373"><ele>466.0</ele><time>2026-04-18T09:26:41Z</time></trkpt><trkpt lat="45.35434451246157" lon="3.22001189096688"><ele>465.3333333333333</ele><time>2026-04-18T09:26:43Z</time></trkpt><trkpt lat="45.35427235340098" lon="3.220037676193333"><ele>464.66666666666663</ele><time>2026-04-18T09:26:44Z</time></trkpt><trkpt lat="45.35420131837034" lon="3.220074341528651"><ele>464.0</ele><time>2026-04-18T09:26:45Z</time></trkpt><trkpt lat="45.35413038921164" lon="3.220114513690403"><ele>463.99999999999994</ele><time>2026-04-18T09:26:46Z</time></trkpt><trkpt lat="45.35404151114579" lon="3.2201136001735096"><ele>464.0</ele><time>2026-04-18T09:26:47Z</time></trkpt><trkpt lat="45.353958999398756" lon="3.2201298005166685"><ele>464.0</ele><time>2026-04-18T09:26:48Z</time></trkpt><trkpt lat="45.35389632787792" lon="3.220155166587743"><ele>464.0</ele><time>2026-04-18T09:26:49Z</time></trkpt><trkpt lat="45.35383078839459" lon="3.2201774731200445"><ele>463.99999999999994</ele><time>2026-04-18T09:26:50Z</time></trkpt><trkpt lat="45.35372208515461" lon="3.2202104183194544"><ele>464.0</ele><time>2026-04-18T09:26:52Z</time></trkpt><trkpt lat="45.35368369093041" lon="3.2202837936989206"><ele>464.0</ele><time>2026-04-18T09:26:58Z</time></trkpt><trkpt lat="45.353769545529325" lon="3.22027850391673"><ele>464.0</ele><time>2026-04-18T09:27:00Z</time></trkpt><trkpt lat="45.35384764396211" lon="3.2202365255548977"><ele>464.0</ele><time>2026-04-18T09:27:01Z</time></trkpt><trkpt lat="45.353931846554126" lon="3.2201850473670866"><ele>464.0</ele><time>2026-04-18T09:27:02Z</time></trkpt><trkpt lat="45.354031413742206" lon="3.2201345518664484"><ele>464.0</ele><time>2026-04-18T09:27:03Z</time></trkpt><trkpt lat="45.35418110481397" lon="3.2200755483351817"><ele>464.0</ele><time>2026-04-18T09:27:04Z</time></trkpt><trkpt lat="45.354340868220234" lon="3.220016427198176"><ele>464.0</ele><time>2026-04-18T09:27:05Z</time></trkpt><trkpt lat="45.35447645773964" lon="3.2199701821066027"><ele>464.0</ele><time>2026-04-18T09:27:06Z</time></trkpt><trkpt lat="45.35456588740199" lon="3.219951529489441"><ele>464.0</ele><time>2026-04-18T09:27:07Z</time></trkpt><trkpt lat="45.35463338560454" lon="3.219986320939609"><ele>463.99999999999994</ele><time>2026-04-18T09:27:09Z</time></trkpt><trkpt lat="45.35459906999101" lon="3.2200736663378735"><ele>464.0</ele><time>2026-04-18T09:27:11Z</time></trkpt><trkpt lat="45.354508158887924" lon="3.220143647123415"><ele>464.0</ele><time>2026-04-18T09:27:13Z</time></trkpt><trkpt lat="45.35442200851668" lon="3.2201691547261944"><ele>464.0</ele><time>2026-04-18T09:27:14Z</time></trkpt><trkpt lat="45.354348460074426" lon="3.220220530968501"><ele>463.99999999999994</ele><time>2026-04-18T09:27:15Z</time></trkpt><trkpt lat="45.354270107279966" lon="3.220299281019812"><ele>464.0</ele><time>2026-04-18T09:27:16Z</time></trkpt><trkpt lat="45.35418784951058" lon="3.220383252323587"><ele>464.0</ele><time>2026-04-18T09:27:17Z</time></trkpt><trkpt lat="45.35408903219652" lon="3.220472495864622"><ele>464.0</ele><time>2026-04-18T09:27:18Z</time></trkpt><trkpt lat="45.35396072008387" lon="3.2205707281214586"><ele>464.0</ele><time>2026-04-18T09:27:19Z</time></trkpt><trkpt lat="45.35382188289965" lon="3.220641666710716"><ele>464.0</ele><time>2026-04-18T09:27:20Z</time></trkpt><trkpt lat="45.35367734887862" lon="3.220674487568088"><ele>467.0</ele><time>2026-04-18T09:27:21Z</time></trkpt><trkpt lat="45.35354291387906" lon="3.2206988183203458"><ele>470.0</ele><time>2026-04-18T09:27:22Z</time></trkpt><trkpt lat="45.35343802297542" lon="3.2207227255673767"><ele>473.0</ele><time>2026-04-18T09:27:23Z</time></trkpt><trkpt lat="45.35336860755286" lon="3.22076070597202"><ele>476.0</ele><time>2026-04-18T09:27:24Z</time></trkpt><trkpt lat="45.35333726737584" lon="3.2208395891822277"><ele>479.0</ele><time>2026-04-18T09:27:25Z</time></trkpt><trkpt lat="45.35342200736661" lon="3.220984473592516"><ele>479.0</ele><time>2026-04-18T09:27:27Z</time></trkpt><trkpt lat="45.35351902301429" lon="3.22098628860225"><ele>479.0</ele><time>2026-04-18T09:27:28Z</time></trkpt><trkpt lat="45.35363017718575" lon="3.220960965327879"><ele>479.0</ele><time>2026-04-18T09:27:29Z</time></trkpt><trkpt lat="45.35376342165365" lon="3.2209382069499974"><ele>479.0</ele><time>2026-04-18T09:27:30Z</time></trkpt><trkpt lat="45.35391427595968" lon="3.220927077880662"><ele>479.0</ele><time>2026-04-18T09:27:31Z</time></trkpt><trkpt lat="45.35408774179272" lon="3.220918742237979"><ele>479.0</ele><time>2026-04-18T09:27:32Z</time></trkpt><trkpt lat="45.35429178932828" lon="3.2209077796432317"><ele>479.0</ele><time>2026-04-18T09:27:33Z</time></trkpt><trkpt lat="45.35451372495332" lon="3.2208734979602998"><ele>480.66666666666663</ele><time>2026-04-18T09:27:34Z</time></trkpt><trkpt lat="45.354708848505396" lon="3.220822301529309"><ele>482.33333333333337</ele><time>2026-04-18T09:27:35Z</time></trkpt><trkpt lat="45.354875789332624" lon="3.2207713896037595"><ele>484.0</ele><time>2026-04-18T09:27:36Z</time></trkpt><trkpt lat="45.35502421676223" lon="3.220722811085338"><ele>484.0</ele><time>2026-04-18T09:27:37Z</time></trkpt><trkpt lat="45.35514964661251" lon="3.2206958249318"><ele>484.0</ele><time>2026-04-18T09:27:38Z</time></trkpt><trkpt lat="45.355265284101904" lon="3.2206859803516776"><ele>484.0</ele><time>2026-04-18T09:27:39Z</time></trkpt><trkpt lat="45.35535559106076" lon="3.2207039211540858"><ele>484.0</ele><time>2026-04-18T09:27:40Z</time></trkpt><trkpt lat="45.35542776129722" lon="3.220758653729306"><ele>484.0</ele><time>2026-04-18T09:27:41Z</time></trkpt><trkpt lat="45.3554568028644" lon="3.220858584453194"><ele>484.0</ele><time>2026-04-18T09:27:42Z</time></trkpt><trkpt lat="45.35545614962199" lon="3.220973191347835"><ele>484.0</ele><time>2026-04-18T09:27:43Z</time></trkpt><trkpt lat="45.35542290700774" lon="3.2210835402741753"><ele>484.0</ele><time>2026-04-18T09:27:44Z</time></trkpt><trkpt lat="45.355371581007226" lon="3.221165629046597"><ele>484.0</ele><time>2026-04-18T09:27:45Z</time></trkpt><trkpt lat="45.35527503256846" lon="3.2212512027554903"><ele>484.0</ele><time>2026-04-18T09:27:47Z</time></trkpt><trkpt lat="45.355179343243066" lon="3.2213149739068263"><ele>484.0</ele><time>2026-04-18T09:27:49Z</time></trkpt><trkpt lat="45.355117626826456" lon="3.2213556911663135"><ele>484.0</ele><time>2026-04-18T09:27:51Z</time></trkpt><trkpt lat="45.3550108808859" lon="3.221330761486118"><ele>484.0</ele><time>2026-04-18T09:35:52Z</time></trkpt><trkpt lat="45.35494054493846" lon="3.2213571616142014"><ele>484.0</ele><time>2026-04-18T09:35:53Z</time></trkpt><trkpt lat="45.35482002381247" lon="3.22136858977213"><ele>484.0</ele><time>2026-04-18T09:35:55Z</time></trkpt><trkpt lat="45.354703235639384" lon="3.2214269607884036"><ele>486.1666666666667</ele><time>2026-04-18T09:35:57Z</time></trkpt><trkpt lat="45.35464863473607" lon="3.221484067768394"><ele>488.33333333333337</ele><time>2026-04-18T09:35:58Z</time></trkpt><trkpt lat="45.35458801384593" lon="3.2215273452531465"><ele>490.5</ele><time>2026-04-18T09:35:59Z</time></trkpt><trkpt lat="45.35452176465553" lon="3.2215780431408136"><ele>492.66666666666663</ele><time>2026-04-18T09:36:00Z</time></trkpt><trkpt lat="45.35445629406687" lon="3.221631267488429"><ele>494.8333333333333</ele><time>2026-04-18T09:36:01Z</time></trkpt><trkpt lat="45.354384069490436" lon="3.221695551973337"><ele>497.0</ele><time>2026-04-18T09:36:02Z</time></trkpt><trkpt lat="45.35431106762359" lon="3.2217448968892564"><ele>496.99999999999994</ele><time>2026-04-18T09:36:02.999Z</time></trkpt><trkpt lat="45.35424204822144" lon="3.221792368766912"><ele>497.0</ele><time>2026-04-18T09:36:03.999Z</time></trkpt><trkpt lat="45.35416506687088" lon="3.22184429847363"><ele>497.0</ele><time>2026-04-18T09:36:04.999Z</time></trkpt><trkpt lat="45.354086216314144" lon="3.2218939555253634"><ele>497.0</ele><time>2026-04-18T09:36:05.999Z</time></trkpt><trkpt lat="45.35400732277003" lon="3.2219442072550004"><ele>496.99999999999994</ele><time>2026-04-18T09:36:06.999Z</time></trkpt><trkpt lat="45.35392913359452" lon="3.2219772272722595"><ele>497.0</ele><time>2026-04-18T09:36:07.999Z</time></trkpt><trkpt lat="45.353849678061394" lon="3.222003494093845"><ele>497.3333333333333</ele><time>2026-04-18T09:36:08.999Z</time></trkpt><trkpt lat="45.35377215998927" lon="3.222039907770007"><ele>497.66666666666663</ele><time>2026-04-18T09:36:09.999Z</time></trkpt><trkpt lat="45.35369200951463" lon="3.222048804628533"><ele>498.0</ele><time>2026-04-18T09:36:10.999Z</time></trkpt><trkpt lat="45.353607800896754" lon="3.222059711554976"><ele>498.33333333333337</ele><time>2026-04-18T09:36:11.999Z</time></trkpt><trkpt lat="45.353521064436634" lon="3.2220405846695037"><ele>498.6666666666667</ele><time>2026-04-18T09:36:12.999Z</time></trkpt><trkpt lat="45.35343557402536" lon="3.2220074495254796"><ele>499.0</ele><time>2026-04-18T09:36:13.999Z</time></trkpt><trkpt lat="45.353350235116984" lon="3.2219528598756755"><ele>499.00000000000006</ele><time>2026-04-18T09:36:14.999Z</time></trkpt><trkpt lat="45.35326900077365" lon="3.2218942324965734"><ele>499.0</ele><time>2026-04-18T09:36:15.999Z</time></trkpt><trkpt lat="45.353182000603624" lon="3.2218427370482727"><ele>499.0</ele><time>2026-04-18T09:36:16.999Z</time></trkpt><trkpt lat="45.35309792083173" lon="3.2218072984675508"><ele>499.0</ele><time>2026-04-18T09:36:17.999Z</time></trkpt><trkpt lat="45.35302153587341" lon="3.2217814029306537"><ele>499.00000000000006</ele><time>2026-04-18T09:36:18.999Z</time></trkpt><trkpt lat="45.3529452803909" lon="3.2217594092149793"><ele>499.0</ele><time>2026-04-18T09:36:19.999Z</time></trkpt><trkpt lat="45.352860875858646" lon="3.2217505705072846"><ele>498.33333333333337</ele><time>2026-04-18T09:36:20.999Z</time></trkpt><trkpt lat="45.352772511856344" lon="3.221782931377642"><ele>497.6666666666667</ele><time>2026-04-18T09:36:21.999Z</time></trkpt><trkpt lat="45.352694281432115" lon="3.2218295514956385"><ele>497.0</ele><time>2026-04-18T09:36:22.999Z</time></trkpt><trkpt lat="45.352617475075505" lon="3.2218684423999284"><ele>496.33333333333337</ele><time>2026-04-18T09:36:23.999Z</time></trkpt><trkpt lat="45.35254332660103" lon="3.2219295143093434"><ele>495.6666666666667</ele><time>2026-04-18T09:36:24.999Z</time></trkpt><trkpt lat="45.352475345962695" lon="3.2220042599785996"><ele>495.0</ele><time>2026-04-18T09:36:25.999Z</time></trkpt><trkpt lat="45.352414069162286" lon="3.2220969652751053"><ele>495.0</ele><time>2026-04-18T09:36:26.999Z</time></trkpt><trkpt lat="45.35236481910126" lon="3.2222203058047056"><ele>495.0</ele><time>2026-04-18T09:36:27.999Z</time></trkpt><trkpt lat="45.352315706785525" lon="3.2223480451994604"><ele>495.0</ele><time>2026-04-18T09:36:28.999Z</time></trkpt><trkpt lat="45.352266981260925" lon="3.2224507804382347"><ele>495.0</ele><time>2026-04-18T09:36:29.999Z</time></trkpt><trkpt lat="45.35220273576993" lon="3.2225523641539926"><ele>495.0</ele><time>2026-04-18T09:36:30.999Z</time></trkpt><trkpt lat="45.35213133438134" lon="3.222668551617474"><ele>496.2</ele><time>2026-04-18T09:36:31.999Z</time></trkpt><trkpt lat="45.35205847018917" lon="3.222788563076493"><ele>497.4</ele><time>2026-04-18T09:36:32.999Z</time></trkpt><trkpt lat="45.35198030843865" lon="3.222903166563591"><ele>498.6</ele><time>2026-04-18T09:36:33.999Z</time></trkpt><trkpt lat="45.351892511055645" lon="3.223005107590947"><ele>499.8</ele><time>2026-04-18T09:36:34.999Z</time></trkpt><trkpt lat="45.35180031474112" lon="3.2230864016649257"><ele>501.0</ele><time>2026-04-18T09:36:35.999Z</time></trkpt><trkpt lat="45.35169454948704" lon="3.223149715398529"><ele>504.0</ele><time>2026-04-18T09:36:36.999Z</time></trkpt><trkpt lat="45.35158301413074" lon="3.223211329762898"><ele>507.0</ele><time>2026-04-18T09:36:37.999Z</time></trkpt><trkpt lat="45.35146628089071" lon="3.2232745446386772"><ele>510.0</ele><time>2026-04-18T09:36:38.999Z</time></trkpt><trkpt lat="45.35134243158274" lon="3.223339682248446"><ele>513.0</ele><time>2026-04-18T09:36:39.999Z</time></trkpt><trkpt lat="45.351218959000704" lon="3.223405346199224"><ele>513.0</ele><time>2026-04-18T09:36:40.999Z</time></trkpt><trkpt lat="45.35109272272836" lon="3.2234719836153816"><ele>513.0</ele><time>2026-04-18T09:36:41.999Z</time></trkpt><trkpt lat="45.35097122672513" lon="3.223536246032287"><ele>513.0</ele><time>2026-04-18T09:36:42.999Z</time></trkpt><trkpt lat="45.35084703130225" lon="3.223604036880113"><ele>513.0</ele><time>2026-04-18T09:36:43.999Z</time></trkpt><trkpt lat="45.350715048745634" lon="3.22367488802465"><ele>513.0</ele><time>2026-04-18T09:36:44.999Z</time></trkpt><trkpt lat="45.3505756212595" lon="3.2237536125321147"><ele>513.0</ele><time>2026-04-18T09:36:45.999Z</time></trkpt><trkpt lat="45.35042928599931" lon="3.223835069649261"><ele>513.0</ele><time>2026-04-18T09:36:46.999Z</time></trkpt><trkpt lat="45.35028294906147" lon="3.2239194546662038"><ele>515.3333333333334</ele><time>2026-04-18T09:36:47.999Z</time></trkpt><trkpt lat="45.35013491083568" lon="3.2240017061667134"><ele>517.6666666666667</ele><time>2026-04-18T09:36:48.999Z</time></trkpt><trkpt lat="45.34998810308576" lon="3.2240824790564235"><ele>520.0</ele><time>2026-04-18T09:36:49.999Z</time></trkpt><trkpt lat="45.349840142898834" lon="3.224163710792895"><ele>523.3333333333334</ele><time>2026-04-18T09:36:50.999Z</time></trkpt><trkpt lat="45.3496944658642" lon="3.224243766033624"><ele>526.6666666666666</ele><time>2026-04-18T09:36:51.999Z</time></trkpt><trkpt lat="45.34954799009292" lon="3.224323880655582"><ele>530.0</ele><time>2026-04-18T09:36:52.999Z</time></trkpt><trkpt lat="45.349402862297225" lon="3.224401129742287"><ele>530.0</ele><time>2026-04-18T09:36:53.999Z</time></trkpt><trkpt lat="45.349267721071314" lon="3.2244770334565707"><ele>530.0</ele><time>2026-04-18T09:36:54.999Z</time></trkpt><trkpt lat="45.34914395905917" lon="3.2245457261869634"><ele>530.0</ele><time>2026-04-18T09:36:55.999Z</time></trkpt><trkpt lat="45.34902145570264" lon="3.224614502315449"><ele>530.0</ele><time>2026-04-18T09:36:56.999Z</time></trkpt><trkpt lat="45.348897095605764" lon="3.224684347901166"><ele>530.25</ele><time>2026-04-18T09:36:57.999Z</time></trkpt><trkpt lat="45.34877034660969" lon="3.2247540367755514"><ele>530.5</ele><time>2026-04-18T09:36:58.999Z</time></trkpt><trkpt lat="45.3486381938598" lon="3.2248190180175333"><ele>530.75</ele><time>2026-04-18T09:36:59.999Z</time></trkpt><trkpt lat="45.348502772116376" lon="3.224875324493842"><ele>531.0</ele><time>2026-04-18T09:37:01Z</time></trkpt><trkpt lat="45.348370397403166" lon="3.2249215794071944"><ele>531.0</ele><time>2026-04-18T09:37:02Z</time></trkpt><trkpt lat="45.348241216555515" lon="3.2249553873805588"><ele>531.0</ele><time>2026-04-18T09:37:03Z</time></trkpt><trkpt lat="45.34811015928547" lon="3.224974138299888"><ele>531.0</ele><time>2026-04-18T09:37:04Z</time></trkpt><trkpt lat="45.347977625724745" lon="3.224977597496575"><ele>531.0</ele><time>2026-04-18T09:37:05Z</time></trkpt><trkpt lat="45.347848847796804" lon="3.224962831920199"><ele>530.8</ele><time>2026-04-18T09:37:06Z</time></trkpt><trkpt lat="45.34773009360121" lon="3.2249411148962146"><ele>530.6</ele><time>2026-04-18T09:37:07Z</time></trkpt><trkpt lat="45.347619351758475" lon="3.2249137798978933"><ele>530.4</ele><time>2026-04-18T09:37:08Z</time></trkpt><trkpt lat="45.34751469609402" lon="3.224876573933244"><ele>530.2</ele><time>2026-04-18T09:37:09Z</time></trkpt><trkpt lat="45.3474156328678" lon="3.2248355296181006"><ele>530.0</ele><time>2026-04-18T09:37:10Z</time></trkpt><trkpt lat="45.347319210564734" lon="3.224802309022104"><ele>529.8</ele><time>2026-04-18T09:37:11Z</time></trkpt><trkpt lat="45.34722598874222" lon="3.2247852930130216"><ele>529.6</ele><time>2026-04-18T09:37:12Z</time></trkpt><trkpt lat="45.34713890554936" lon="3.224791769551451"><ele>529.4</ele><time>2026-04-18T09:37:13Z</time></trkpt><trkpt lat="45.34705909721646" lon="3.2248475042625007"><ele>529.2</ele><time>2026-04-18T09:37:14Z</time></trkpt><trkpt lat="45.347002464645634" lon="3.224950322513518"><ele>529.0</ele><time>2026-04-18T09:37:15Z</time></trkpt><trkpt lat="45.346958018516126" lon="3.2250753462937585"><ele>529.0</ele><time>2026-04-18T09:37:16Z</time></trkpt><trkpt lat="45.346924436754264" lon="3.2252289207275546"><ele>529.0</ele><time>2026-04-18T09:37:17Z</time></trkpt><trkpt lat="45.34689217223115" lon="3.2253944753041566"><ele>529.0</ele><time>2026-04-18T09:37:18Z</time></trkpt><trkpt lat="45.346864450019226" lon="3.225561177910246"><ele>529.0</ele><time>2026-04-18T09:37:19Z</time></trkpt><trkpt lat="45.34683987705579" lon="3.225724730237091"><ele>528.4</ele><time>2026-04-18T09:37:20Z</time></trkpt><trkpt lat="45.34683906975508" lon="3.225880418046356"><ele>527.8</ele><time>2026-04-18T09:37:21Z</time></trkpt><trkpt lat="45.34683807791552" lon="3.2260236900517034"><ele>527.2</ele><time>2026-04-18T09:37:22Z</time></trkpt><trkpt lat="45.34686779970648" lon="3.2261471485444084"><ele>526.6</ele><time>2026-04-18T09:37:23Z</time></trkpt><trkpt lat="45.346924891644804" lon="3.2262439920861374"><ele>526.0</ele><time>2026-04-18T09:37:24Z</time></trkpt><trkpt lat="45.347006835675096" lon="3.226317978263362"><ele>526.0</ele><time>2026-04-18T09:37:25Z</time></trkpt><trkpt lat="45.347099175126786" lon="3.226404800269974"><ele>526.0</ele><time>2026-04-18T09:37:26Z</time></trkpt><trkpt lat="45.34717739023319" lon="3.226503759657149"><ele>526.0</ele><time>2026-04-18T09:37:27Z</time></trkpt><trkpt lat="45.34720272873385" lon="3.2266237932909143"><ele>526.0</ele><time>2026-04-18T09:37:28Z</time></trkpt><trkpt lat="45.347210721515275" lon="3.22675247414757"><ele>526.0</ele><time>2026-04-18T09:37:29Z</time></trkpt><trkpt lat="45.347184728736416" lon="3.2268864912708137"><ele>526.4</ele><time>2026-04-18T09:37:30Z</time></trkpt><trkpt lat="45.34713062577383" lon="3.2270128313885733"><ele>526.8</ele><time>2026-04-18T09:37:31Z</time></trkpt><trkpt lat="45.34709152865194" lon="3.2271533124920775"><ele>527.1999999999999</ele><time>2026-04-18T09:37:32Z</time></trkpt><trkpt lat="45.34703616356594" lon="3.227289233676313"><ele>527.6</ele><time>2026-04-18T09:37:33Z</time></trkpt><trkpt lat="45.34698400209416" lon="3.2274350736446076"><ele>528.0</ele><time>2026-04-18T09:37:34Z</time></trkpt><trkpt lat="45.346933760801896" lon="3.2275765136896233"><ele>529.0</ele><time>2026-04-18T09:37:35Z</time></trkpt><trkpt lat="45.346877563409436" lon="3.227729111309413"><ele>530.0</ele><time>2026-04-18T09:37:36Z</time></trkpt><trkpt lat="45.34682321555918" lon="3.2278752351165156"><ele>531.0</ele><time>2026-04-18T09:37:37Z</time></trkpt><trkpt lat="45.346767315714686" lon="3.2280222510134973"><ele>532.0</ele><time>2026-04-18T09:37:38Z</time></trkpt><trkpt lat="45.346713932606285" lon="3.2281666869435965"><ele>533.25</ele><time>2026-04-18T09:37:39Z</time></trkpt><trkpt lat="45.34665797997195" lon="3.228326401376444"><ele>534.5</ele><time>2026-04-18T09:37:40Z</time></trkpt><trkpt lat="45.346603335635145" lon="3.2284837046739168"><ele>535.75</ele><time>2026-04-18T09:37:41Z</time></trkpt><trkpt lat="45.346547020177915" lon="3.2286384702660174"><ele>537.0</ele><time>2026-04-18T09:37:42Z</time></trkpt><trkpt lat="45.34648804915061" lon="3.2287972927379607"><ele>537.0</ele><time>2026-04-18T09:37:43Z</time></trkpt><trkpt lat="45.346410790625825" lon="3.2289303246534273"><ele>537.0</ele><time>2026-04-18T09:37:44Z</time></trkpt><trkpt lat="45.34636460740026" lon="3.2290652321177817"><ele>537.0</ele><time>2026-04-18T09:37:45Z</time></trkpt><trkpt lat="45.34629330588898" lon="3.2291509381112604"><ele>537.0</ele><time>2026-04-18T09:37:45.999Z</time></trkpt><trkpt lat="45.34623190322516" lon="3.2292348897404026"><ele>537.0</ele><time>2026-04-18T09:37:46.999Z</time></trkpt><trkpt lat="45.34618006855596" lon="3.229315014475281"><ele>537.8000000000001</ele><time>2026-04-18T09:37:47.999Z</time></trkpt><trkpt lat="45.34610234024191" lon="3.229351655905096"><ele>538.6</ele><time>2026-04-18T09:37:48.999Z</time></trkpt><trkpt lat="45.346032032981036" lon="3.2294303885416564"><ele>539.4000000000001</ele><time>2026-04-18T09:37:49.999Z</time></trkpt><trkpt lat="45.34595024705286" lon="3.229492336904992"><ele>540.2</ele><time>2026-04-18T09:37:50.999Z</time></trkpt><trkpt lat="45.34585313458251" lon="3.2295848367600106"><ele>541.0</ele><time>2026-04-18T09:37:51.999Z</time></trkpt><trkpt lat="45.34575974218641" lon="3.2296877711771557"><ele>541.0</ele><time>2026-04-18T09:37:52.999Z</time></trkpt><trkpt lat="45.345667790308404" lon="3.229805167996119"><ele>541.0</ele><time>2026-04-18T09:37:53.999Z</time></trkpt><trkpt lat="45.34557174442908" lon="3.2299314061094035"><ele>541.0</ele><time>2026-04-18T09:37:54.999Z</time></trkpt><trkpt lat="45.34544496674645" lon="3.2300165281036084"><ele>541.0</ele><time>2026-04-18T09:37:55.999Z</time></trkpt><trkpt lat="45.34532880252388" lon="3.2300851439748937"><ele>541.5</ele><time>2026-04-18T09:37:56.999Z</time></trkpt><trkpt lat="45.34522299797995" lon="3.230151729686607"><ele>542.0</ele><time>2026-04-18T09:37:57.999Z</time></trkpt><trkpt lat="45.34512847311809" lon="3.2302469407779273"><ele>542.5</ele><time>2026-04-18T09:37:58.999Z</time></trkpt><trkpt lat="45.34504486987716" lon="3.230397248260307"><ele>543.0</ele><time>2026-04-18T09:37:59.999Z</time></trkpt><trkpt lat="45.344996497822535" lon="3.230599347822321"><ele>542.0</ele><time>2026-04-18T09:38:00.999Z</time></trkpt><trkpt lat="45.34495450666883" lon="3.230799523538559"><ele>541.0</ele><time>2026-04-18T09:38:01.999Z</time></trkpt><trkpt lat="45.34490966603527" lon="3.23102402005965"><ele>540.0</ele><time>2026-04-18T09:38:02.999Z</time></trkpt><trkpt lat="45.34483887414405" lon="3.2312132924278765"><ele>540.0</ele><time>2026-04-18T09:38:03.999Z</time></trkpt><trkpt lat="45.34477810510609" lon="3.2313777852317913"><ele>540.0</ele><time>2026-04-18T09:38:04.999Z</time></trkpt><trkpt lat="45.34470906907279" lon="3.231549846362953"><ele>540.0</ele><time>2026-04-18T09:38:05.999Z</time></trkpt><trkpt lat="45.34464042733801" lon="3.2317509216294393"><ele>540.0</ele><time>2026-04-18T09:38:06.999Z</time></trkpt><trkpt lat="45.34459812686059" lon="3.231998394657948"><ele>543.0</ele><time>2026-04-18T09:38:07.999Z</time></trkpt><trkpt lat="45.34453621270456" lon="3.2322543513782036"><ele>546.0</ele><time>2026-04-18T09:38:08.999Z</time></trkpt><trkpt lat="45.34444529887234" lon="3.232477940733899"><ele>549.0</ele><time>2026-04-18T09:38:09.999Z</time></trkpt><trkpt lat="45.34436301333274" lon="3.2326732324787235"><ele>549.5</ele><time>2026-04-18T09:38:10.999Z</time></trkpt><trkpt lat="45.34428933487131" lon="3.232849940763204"><ele>550.0</ele><time>2026-04-18T09:38:11.999Z</time></trkpt><trkpt lat="45.344219225905306" lon="3.233032866785801"><ele>550.5</ele><time>2026-04-18T09:38:12.999Z</time></trkpt><trkpt lat="45.34415492225754" lon="3.233218102433734"><ele>551.0</ele><time>2026-04-18T09:38:13.999Z</time></trkpt><trkpt lat="45.34409105899064" lon="3.2334154898065255"><ele>549.0</ele><time>2026-04-18T09:38:14.999Z</time></trkpt><trkpt lat="45.344042883349125" lon="3.233620824622734"><ele>547.0</ele><time>2026-04-18T09:38:15.999Z</time></trkpt><trkpt lat="45.34399562533649" lon="3.2338212244937146"><ele>545.0</ele><time>2026-04-18T09:38:16.999Z</time></trkpt><trkpt lat="45.34395515793617" lon="3.234040172482146"><ele>544.5</ele><time>2026-04-18T09:38:17.999Z</time></trkpt><trkpt lat="45.343924144743106" lon="3.234243647735294"><ele>544.0</ele><time>2026-04-18T09:38:18.999Z</time></trkpt><trkpt lat="45.34387432855717" lon="3.234440887261296"><ele>543.5</ele><time>2026-04-18T09:38:19.999Z</time></trkpt><trkpt lat="45.34382487250403" lon="3.234649964892872"><ele>543.0</ele><time>2026-04-18T09:38:20.999Z</time></trkpt><trkpt lat="45.343772377653025" lon="3.234845294227182"><ele>542.75</ele><time>2026-04-18T09:38:21.999Z</time></trkpt><trkpt lat="45.3437333171819" lon="3.2350350498156977"><ele>542.5</ele><time>2026-04-18T09:38:22.999Z</time></trkpt><trkpt lat="45.343676309501284" lon="3.235226814611612"><ele>542.25</ele><time>2026-04-18T09:38:23.999Z</time></trkpt><trkpt lat="45.3436248977079" lon="3.2354133842083352"><ele>542.0</ele><time>2026-04-18T09:38:24.999Z</time></trkpt><trkpt lat="45.34357677838784" lon="3.2355891474646787"><ele>541.4</ele><time>2026-04-18T09:38:25.999Z</time></trkpt><trkpt lat="45.34353361982727" lon="3.2357509243434093"><ele>540.8000000000001</ele><time>2026-04-18T09:38:26.999Z</time></trkpt><trkpt lat="45.34349277621192" lon="3.2359132142465663"><ele>540.2</ele><time>2026-04-18T09:38:27.999Z</time></trkpt><trkpt lat="45.34345418097734" lon="3.2360481641120047"><ele>539.6</ele><time>2026-04-18T09:38:28.999Z</time></trkpt><trkpt lat="45.343410540401706" lon="3.2361816381966357"><ele>539.0</ele><time>2026-04-18T09:38:29.999Z</time></trkpt><trkpt lat="45.34337071631337" lon="3.236309241883107"><ele>539.0</ele><time>2026-04-18T09:38:30.999Z</time></trkpt><trkpt lat="45.34332017919405" lon="3.236401851560207"><ele>539.0</ele><time>2026-04-18T09:38:31.999Z</time></trkpt><trkpt lat="45.343293727170604" lon="3.2365078092294284"><ele>539.0</ele><time>2026-04-18T09:38:32.999Z</time></trkpt><trkpt lat="45.3432521364568" lon="3.2366010578097546"><ele>539.0</ele><time>2026-04-18T09:38:33.999Z</time></trkpt><trkpt lat="45.34319394360853" lon="3.236702953237207"><ele>539.0</ele><time>2026-04-18T09:38:35.999Z</time></trkpt><trkpt lat="45.34313568770921" lon="3.236737569045296"><ele>539.0</ele><time>2026-04-18T09:38:41.999Z</time></trkpt><trkpt lat="45.34311293910988" lon="3.2365282389896577"><ele>539.0</ele><time>2026-04-18T09:38:44.999Z</time></trkpt><trkpt lat="45.34312581424084" lon="3.236431991895199"><ele>539.0</ele><time>2026-04-18T09:38:45.999Z</time></trkpt><trkpt lat="45.343124073990005" lon="3.2363291039610527"><ele>539.0</ele><time>2026-04-18T09:38:46.999Z</time></trkpt><trkpt lat="45.34311760723052" lon="3.236188173257682"><ele>539.0</ele><time>2026-04-18T09:38:47.999Z</time></trkpt><trkpt lat="45.343115336494996" lon="3.2360701894319117"><ele>539.0</ele><time>2026-04-18T09:38:48.999Z</time></trkpt><trkpt lat="45.343120842546604" lon="3.2358853173302893"><ele>539.0</ele><time>2026-04-18T09:38:49.999Z</time></trkpt><trkpt lat="45.34314460741643" lon="3.235716830547084"><ele>539.0</ele><time>2026-04-18T09:38:50.999Z</time></trkpt><trkpt lat="45.34316305334294" lon="3.235542814480087"><ele>539.0</ele><time>2026-04-18T09:38:51.999Z</time></trkpt><trkpt lat="45.34317926416329" lon="3.2353605880710785"><ele>539.0</ele><time>2026-04-18T09:38:52.999Z</time></trkpt><trkpt lat="45.34319907658098" lon="3.2351701412359186"><ele>539.75</ele><time>2026-04-18T09:38:53.999Z</time></trkpt><trkpt lat="45.3432204892363" lon="3.234982915077204"><ele>540.5</ele><time>2026-04-18T09:38:54.999Z</time></trkpt><trkpt lat="45.34324361147194" lon="3.2348049557132237"><ele>541.25</ele><time>2026-04-18T09:38:55.999Z</time></trkpt><trkpt lat="45.34326401430995" lon="3.2346421919371333"><ele>542.0</ele><time>2026-04-18T09:38:56.999Z</time></trkpt><trkpt lat="45.34327928557363" lon="3.234516299201407"><ele>542.2</ele><time>2026-04-18T09:38:57.999Z</time></trkpt><trkpt lat="45.3432829721095" lon="3.2344048615501304"><ele>542.4000000000001</ele><time>2026-04-18T09:38:58.999Z</time></trkpt><trkpt lat="45.343244562638475" lon="3.2343244422314474"><ele>542.5999999999999</ele><time>2026-04-18T09:38:59.999Z</time></trkpt><trkpt lat="45.34317652535866" lon="3.2342737712070653"><ele>542.8</ele><time>2026-04-18T09:39:01Z</time></trkpt><trkpt lat="45.343061661162" lon="3.234349104122456"><ele>543.0</ele><time>2026-04-18T09:39:02Z</time></trkpt><trkpt lat="45.34297170724424" lon="3.234459221536196"><ele>546.5</ele><time>2026-04-18T09:39:03Z</time></trkpt><trkpt lat="45.342869628383475" lon="3.2345747663715563"><ele>550.0</ele><time>2026-04-18T09:39:04Z</time></trkpt><trkpt lat="45.34274012681777" lon="3.234628449832854"><ele>553.5</ele><time>2026-04-18T09:39:05Z</time></trkpt><trkpt lat="45.34257755867729" lon="3.2346089448105646"><ele>557.0</ele><time>2026-04-18T09:39:06Z</time></trkpt><trkpt lat="45.34241297004586" lon="3.2345263287381205"><ele>557.0</ele><time>2026-04-18T09:39:07Z</time></trkpt><trkpt lat="45.3422393884351" lon="3.2344233293069125"><ele>557.0</ele><time>2026-04-18T09:39:08Z</time></trkpt><trkpt lat="45.34204238008542" lon="3.2342937476623175"><ele>557.0</ele><time>2026-04-18T09:39:09Z</time></trkpt><trkpt lat="45.34188922017322" lon="3.2341522034796357"><ele>559.0</ele><time>2026-04-18T09:39:10Z</time></trkpt><trkpt lat="45.34177831167602" lon="3.2340047493781885"><ele>561.0</ele><time>2026-04-18T09:39:11Z</time></trkpt><trkpt lat="45.341666222857455" lon="3.233851688349096"><ele>563.0</ele><time>2026-04-18T09:39:12Z</time></trkpt><trkpt lat="45.341555640780804" lon="3.233697037075405"><ele>564.0</ele><time>2026-04-18T09:39:13Z</time></trkpt><trkpt lat="45.34145161850284" lon="3.233549225868114"><ele>565.0</ele><time>2026-04-18T09:39:14Z</time></trkpt><trkpt lat="45.34133368168756" lon="3.23340808330723"><ele>566.0</ele><time>2026-04-18T09:39:15Z</time></trkpt><trkpt lat="45.34122386014203" lon="3.233249842578825"><ele>567.0</ele><time>2026-04-18T09:39:16Z</time></trkpt><trkpt lat="45.341116469132764" lon="3.233087478886343"><ele>568.0</ele><time>2026-04-18T09:39:17Z</time></trkpt><trkpt lat="45.341001957713196" lon="3.232916568402097"><ele>569.0</ele><time>2026-04-18T09:39:18Z</time></trkpt><trkpt lat="45.34088775096109" lon="3.232753659837069"><ele>569.0</ele><time>2026-04-18T09:39:19Z</time></trkpt><trkpt lat="45.34076574676792" lon="3.232587977454072"><ele>569.0</ele><time>2026-04-18T09:39:20Z</time></trkpt><trkpt lat="45.3406419310415" lon="3.232420476232411"><ele>569.0</ele><time>2026-04-18T09:39:21Z</time></trkpt><trkpt lat="45.340516415935895" lon="3.2322446289003195"><ele>570.6666666666666</ele><time>2026-04-18T09:39:22Z</time></trkpt><trkpt lat="45.34039745614499" lon="3.232069954584193"><ele>572.3333333333334</ele><time>2026-04-18T09:39:23Z</time></trkpt><trkpt lat="45.340278508480054" lon="3.2318878828492554"><ele>574.0</ele><time>2026-04-18T09:39:24Z</time></trkpt><trkpt lat="45.34015638754466" lon="3.2317068086528127"><ele>574.0</ele><time>2026-04-18T09:39:25Z</time></trkpt><trkpt lat="45.34003668937893" lon="3.2315346403567435"><ele>574.0</ele><time>2026-04-18T09:39:26Z</time></trkpt><trkpt lat="45.33991132428508" lon="3.2313552358565714"><ele>574.0</ele><time>2026-04-18T09:39:27Z</time></trkpt><trkpt lat="45.33979087000117" lon="3.231171661910449"><ele>576.6666666666667</ele><time>2026-04-18T09:39:28Z</time></trkpt><trkpt lat="45.33966625536587" lon="3.231000210420618"><ele>579.3333333333334</ele><time>2026-04-18T09:39:29Z</time></trkpt><trkpt lat="45.33954420397032" lon="3.2308327776511976"><ele>582.0</ele><time>2026-04-18T09:39:30Z</time></trkpt><trkpt lat="45.33942057442444" lon="3.23067565847632"><ele>585.25</ele><time>2026-04-18T09:39:31Z</time></trkpt><trkpt lat="45.33931142188864" lon="3.230518589042571"><ele>588.5</ele><time>2026-04-18T09:39:32Z</time></trkpt><trkpt lat="45.339212265383246" lon="3.2303882494372007"><ele>591.75</ele><time>2026-04-18T09:39:33Z</time></trkpt><trkpt lat="45.33910580832152" lon="3.2302609819700043"><ele>595.0</ele><time>2026-04-18T09:39:34Z</time></trkpt><trkpt lat="45.33898890600849" lon="3.230160615444726"><ele>594.25</ele><time>2026-04-18T09:39:35Z</time></trkpt><trkpt lat="45.33886010076383" lon="3.2300751932729854"><ele>593.5</ele><time>2026-04-18T09:39:36Z</time></trkpt><trkpt lat="45.33872241794103" lon="3.2300115476349025"><ele>592.75</ele><time>2026-04-18T09:39:37Z</time></trkpt><trkpt lat="45.33858155983113" lon="3.229952219393544"><ele>592.0</ele><time>2026-04-18T09:39:38Z</time></trkpt><trkpt lat="45.338440879873765" lon="3.2298643580353392"><ele>594.6666666666667</ele><time>2026-04-18T09:39:39Z</time></trkpt><trkpt lat="45.338294968529816" lon="3.229797507706486"><ele>597.3333333333334</ele><time>2026-04-18T09:39:40Z</time></trkpt><trkpt lat="45.33814838087253" lon="3.2297374412190343"><ele>600.0</ele><time>2026-04-18T09:39:41Z</time></trkpt><trkpt lat="45.33799776836993" lon="3.2297105882348665"><ele>602.0</ele><time>2026-04-18T09:39:42Z</time></trkpt><trkpt lat="45.33784613392919" lon="3.2296711277297736"><ele>604.0</ele><time>2026-04-18T09:39:43Z</time></trkpt><trkpt lat="45.337698932800826" lon="3.2296451567050397"><ele>606.0</ele><time>2026-04-18T09:39:44Z</time></trkpt><trkpt lat="45.337552635938884" lon="3.2296221614509646"><ele>606.0</ele><time>2026-04-18T09:39:45Z</time></trkpt><trkpt lat="45.337399252288584" lon="3.2295989321791123"><ele>606.0</ele><time>2026-04-18T09:39:46Z</time></trkpt><trkpt lat="45.337246288976154" lon="3.2295762773957635"><ele>606.0</ele><time>2026-04-18T09:39:47Z</time></trkpt><trkpt lat="45.337089663137746" lon="3.229550161547133"><ele>607.6666666666666</ele><time>2026-04-18T09:39:48Z</time></trkpt><trkpt lat="45.33692469830573" lon="3.2295167658710695"><ele>609.3333333333333</ele><time>2026-04-18T09:39:49Z</time></trkpt><trkpt lat="45.336751376489566" lon="3.229471833709971"><ele>611.0</ele><time>2026-04-18T09:39:50Z</time></trkpt><trkpt lat="45.3365648055345" lon="3.229411265074497"><ele>610.3333333333333</ele><time>2026-04-18T09:39:51Z</time></trkpt><trkpt lat="45.33637348879778" lon="3.229322508979881"><ele>609.6666666666666</ele><time>2026-04-18T09:39:52Z</time></trkpt><trkpt lat="45.336175605632675" lon="3.2291912847799904"><ele>609.0</ele><time>2026-04-18T09:39:53Z</time></trkpt><trkpt lat="45.33597950516933" lon="3.2290451217012697"><ele>612.3333333333334</ele><time>2026-04-18T09:39:54Z</time></trkpt><trkpt lat="45.33577980371604" lon="3.2288916693232235"><ele>615.6666666666667</ele><time>2026-04-18T09:39:55Z</time></trkpt><trkpt lat="45.33559910898972" lon="3.2287307301556654"><ele>619.0</ele><time>2026-04-18T09:39:56Z</time></trkpt><trkpt lat="45.33542527379271" lon="3.228586285848797"><ele>619.0</ele><time>2026-04-18T09:39:56.999Z</time></trkpt><trkpt lat="45.335261568530235" lon="3.228448356299874"><ele>619.0</ele><time>2026-04-18T09:39:57.999Z</time></trkpt><trkpt lat="45.33512755809475" lon="3.228309118914603"><ele>619.0</ele><time>2026-04-18T09:39:58.999Z</time></trkpt><trkpt lat="45.335012859523864" lon="3.2281608806693716"><ele>621.0</ele><time>2026-04-18T09:39:59.999Z</time></trkpt><trkpt lat="45.3349255474103" lon="3.2280062587307548"><ele>623.0</ele><time>2026-04-18T09:40:00.999Z</time></trkpt><trkpt lat="45.33484984491491" lon="3.2278690010223334"><ele>625.0</ele><time>2026-04-18T09:40:01.999Z</time></trkpt><trkpt lat="45.3347861781969" lon="3.2277382763703155"><ele>627.0</ele><time>2026-04-18T09:40:02.999Z</time></trkpt><trkpt lat="45.33472617737504" lon="3.227617052821025"><ele>626.8333333333334</ele><time>2026-04-18T09:40:03.999Z</time></trkpt><trkpt lat="45.334682491012174" lon="3.2275055193750863"><ele>626.6666666666666</ele><time>2026-04-18T09:40:04.999Z</time></trkpt><trkpt lat="45.334643730122664" lon="3.2274082162283064"><ele>626.5</ele><time>2026-04-18T09:40:05.999Z</time></trkpt><trkpt lat="45.334605982433864" lon="3.227330953815064"><ele>626.3333333333333</ele><time>2026-04-18T09:40:06.999Z</time></trkpt><trkpt lat="45.33453195750268" lon="3.2271864212580668"><ele>626.1666666666666</ele><time>2026-04-18T09:40:08.999Z</time></trkpt><trkpt lat="45.33448637818761" lon="3.227078350267088"><ele>626.0</ele><time>2026-04-18T09:40:09.999Z</time></trkpt><trkpt lat="45.33442766023789" lon="3.2269536418257943"><ele>628.25</ele><time>2026-04-18T09:40:10.999Z</time></trkpt><trkpt lat="45.33435710068081" lon="3.22680779482745"><ele>630.5</ele><time>2026-04-18T09:40:11.999Z</time></trkpt><trkpt lat="45.334283306893596" lon="3.2266529106958513"><ele>632.75</ele><time>2026-04-18T09:40:12.999Z</time></trkpt><trkpt lat="45.3342061528472" lon="3.2264856799763195"><ele>635.0</ele><time>2026-04-18T09:40:13.999Z</time></trkpt><trkpt lat="45.33412126662251" lon="3.2263101008325084"><ele>636.3333333333333</ele><time>2026-04-18T09:40:14.999Z</time></trkpt><trkpt lat="45.33403054738663" lon="3.2261254934270815"><ele>637.6666666666666</ele><time>2026-04-18T09:40:15.999Z</time></trkpt><trkpt lat="45.333936864657055" lon="3.2259287063142357"><ele>639.0</ele><time>2026-04-18T09:40:16.999Z</time></trkpt><trkpt lat="45.333853790712354" lon="3.2257449758079937"><ele>642.3333333333334</ele><time>2026-04-18T09:40:17.999Z</time></trkpt><trkpt lat="45.33377049929769" lon="3.225558549821039"><ele>645.6666666666667</ele><time>2026-04-18T09:40:18.999Z</time></trkpt><trkpt lat="45.33367893317802" lon="3.22535996301359"><ele>649.0</ele><time>2026-04-18T09:40:19.999Z</time></trkpt><trkpt lat="45.33357779262811" lon="3.2251477863019113"><ele>649.0</ele><time>2026-04-18T09:40:20.999Z</time></trkpt><trkpt lat="45.33348901299748" lon="3.224967735919638"><ele>649.0</ele><time>2026-04-18T09:40:21.999Z</time></trkpt><trkpt lat="45.33339447150167" lon="3.224778580087966"><ele>649.0</ele><time>2026-04-18T09:40:22.999Z</time></trkpt><trkpt lat="45.33330610939657" lon="3.2245990479668993"><ele>650.6666666666667</ele><time>2026-04-18T09:40:23.999Z</time></trkpt><trkpt lat="45.33321798431252" lon="3.2244113934200613"><ele>652.3333333333334</ele><time>2026-04-18T09:40:24.999Z</time></trkpt><trkpt lat="45.333137113786684" lon="3.224234233322052"><ele>654.0</ele><time>2026-04-18T09:40:25.999Z</time></trkpt><trkpt lat="45.33305767541639" lon="3.2240552008498713"><ele>656.3333333333334</ele><time>2026-04-18T09:40:26.999Z</time></trkpt><trkpt lat="45.33297560006339" lon="3.2238726931103097"><ele>658.6666666666667</ele><time>2026-04-18T09:40:27.999Z</time></trkpt><trkpt lat="45.33289151050631" lon="3.2236887856772265"><ele>661.0</ele><time>2026-04-18T09:40:28.999Z</time></trkpt><trkpt lat="45.33281353666444" lon="3.2234871477837177"><ele>661.0</ele><time>2026-04-18T09:40:29.999Z</time></trkpt><trkpt lat="45.33275203045942" lon="3.2232805033073064"><ele>661.0</ele><time>2026-04-18T09:40:30.999Z</time></trkpt><trkpt lat="45.33269910466284" lon="3.2230572396598673"><ele>661.0</ele><time>2026-04-18T09:40:31.999Z</time></trkpt><trkpt lat="45.33264017892872" lon="3.222829433007362"><ele>664.3333333333334</ele><time>2026-04-18T09:40:32.999Z</time></trkpt><trkpt lat="45.33257682862978" lon="3.2226373513440274"><ele>667.6666666666666</ele><time>2026-04-18T09:40:33.999Z</time></trkpt><trkpt lat="45.332498819204346" lon="3.222427723236171"><ele>671.0</ele><time>2026-04-18T09:40:34.999Z</time></trkpt><trkpt lat="45.33240367989169" lon="3.2222426362626995"><ele>673.3333333333333</ele><time>2026-04-18T09:40:35.999Z</time></trkpt><trkpt lat="45.332286081718664" lon="3.2220619706904605"><ele>675.6666666666666</ele><time>2026-04-18T09:40:36.999Z</time></trkpt><trkpt lat="45.33215350066301" lon="3.221902275863444"><ele>678.0</ele><time>2026-04-18T09:40:37.999Z</time></trkpt><trkpt lat="45.332004209006904" lon="3.2217627376216513"><ele>678.3333333333334</ele><time>2026-04-18T09:40:38.999Z</time></trkpt><trkpt lat="45.33182888068401" lon="3.2216327270902676"><ele>678.6666666666667</ele><time>2026-04-18T09:40:39.999Z</time></trkpt><trkpt lat="45.33165312149956" lon="3.2215569921837783"><ele>679.0</ele><time>2026-04-18T09:40:40.999Z</time></trkpt><trkpt lat="45.331447318664814" lon="3.22150219673584"><ele>683.0</ele><time>2026-04-18T09:40:41.999Z</time></trkpt><trkpt lat="45.33122440030353" lon="3.221461687122268"><ele>687.0</ele><time>2026-04-18T09:40:42.999Z</time></trkpt><trkpt lat="45.33102070618384" lon="3.2214120845436796"><ele>691.0</ele><time>2026-04-18T09:40:43.999Z</time></trkpt><trkpt lat="45.33084669492236" lon="3.221365806025366"><ele>691.0</ele><time>2026-04-18T09:40:44.999Z</time></trkpt><trkpt lat="45.33069170487804" lon="3.2213392756714505"><ele>691.0</ele><time>2026-04-18T09:40:45.999Z</time></trkpt><trkpt lat="45.330558132336456" lon="3.221261074383371"><ele>691.0</ele><time>2026-04-18T09:40:46.999Z</time></trkpt><trkpt lat="45.33043717433116" lon="3.2211514632151874"><ele>691.0</ele><time>2026-04-18T09:40:47.999Z</time></trkpt><trkpt lat="45.330331581511764" lon="3.2210086873114268"><ele>691.0</ele><time>2026-04-18T09:40:48.999Z</time></trkpt><trkpt lat="45.33025786310897" lon="3.2208363906794912"><ele>691.0</ele><time>2026-04-18T09:40:49.999Z</time></trkpt><trkpt lat="45.330214912891165" lon="3.2206795257886305"><ele>691.0</ele><time>2026-04-18T09:40:50.999Z</time></trkpt><trkpt lat="45.330166059216005" lon="3.2205370312022716"><ele>691.0</ele><time>2026-04-18T09:40:51.999Z</time></trkpt><trkpt lat="45.330115458951234" lon="3.220427906048765"><ele>690.1999999999999</ele><time>2026-04-18T09:40:52.999Z</time></trkpt><trkpt lat="45.330040402382124" lon="3.2203256219967216"><ele>689.4</ele><time>2026-04-18T09:40:53.999Z</time></trkpt><trkpt lat="45.3299575581548" lon="3.220260461978912"><ele>688.6</ele><time>2026-04-18T09:40:54.999Z</time></trkpt><trkpt lat="45.32986350746358" lon="3.2202159819498433"><ele>687.8</ele><time>2026-04-18T09:40:55.999Z</time></trkpt><trkpt lat="45.329738949537415" lon="3.2202036800708953"><ele>687.0</ele><time>2026-04-18T09:40:56.999Z</time></trkpt><trkpt lat="45.32959804752195" lon="3.220207861683571"><ele>685.25</ele><time>2026-04-18T09:40:57.999Z</time></trkpt><trkpt lat="45.329446194110716" lon="3.220228813210187"><ele>683.5</ele><time>2026-04-18T09:40:58.999Z</time></trkpt><trkpt lat="45.329295969888726" lon="3.2202468131203736"><ele>681.75</ele><time>2026-04-18T09:40:59.999Z</time></trkpt><trkpt lat="45.32915057703451" lon="3.2202531659502096"><ele>680.0</ele><time>2026-04-18T09:41:00.999Z</time></trkpt><trkpt lat="45.32900175551758" lon="3.220253301238393"><ele>678.3333333333333</ele><time>2026-04-18T09:41:01.999Z</time></trkpt><trkpt lat="45.32884128104033" lon="3.2202397715688225"><ele>676.6666666666666</ele><time>2026-04-18T09:41:02.999Z</time></trkpt><trkpt lat="45.32867602769792" lon="3.2202079215839574"><ele>675.0</ele><time>2026-04-18T09:41:03.999Z</time></trkpt><trkpt lat="45.32848598585065" lon="3.2201657661252883"><ele>675.0</ele><time>2026-04-18T09:41:04.999Z</time></trkpt><trkpt lat="45.32827243509801" lon="3.220102151837609"><ele>675.0</ele><time>2026-04-18T09:41:05.999Z</time></trkpt><trkpt lat="45.32805786050667" lon="3.2200046165806446"><ele>675.0</ele><time>2026-04-18T09:41:07Z</time></trkpt><trkpt lat="45.32781339299866" lon="3.219877215118606"><ele>675.0</ele><time>2026-04-18T09:41:08Z</time></trkpt><trkpt lat="45.327573385534684" lon="3.219751136575445"><ele>675.0</ele><time>2026-04-18T09:41:09Z</time></trkpt><trkpt lat="45.327349833737735" lon="3.219636152020357"><ele>676.3333333333334</ele><time>2026-04-18T09:41:10Z</time></trkpt><trkpt lat="45.32714411955501" lon="3.21952321065679"><ele>677.6666666666667</ele><time>2026-04-18T09:41:11Z</time></trkpt><trkpt lat="45.326941299150796" lon="3.21941378363028"><ele>679.0</ele><time>2026-04-18T09:41:12Z</time></trkpt><trkpt lat="45.326737969356415" lon="3.2193093721841826"><ele>679.0</ele><time>2026-04-18T09:41:13Z</time></trkpt><trkpt lat="45.32654368781031" lon="3.2192045337628716"><ele>679.0</ele><time>2026-04-18T09:41:14Z</time></trkpt><trkpt lat="45.326352763487904" lon="3.2191013450167407"><ele>679.0</ele><time>2026-04-18T09:41:15Z</time></trkpt><trkpt lat="45.32616109465688" lon="3.219003924155792"><ele>680.3333333333334</ele><time>2026-04-18T09:41:16Z</time></trkpt><trkpt lat="45.325991390713554" lon="3.218920359184317"><ele>681.6666666666666</ele><time>2026-04-18T09:41:17Z</time></trkpt><trkpt lat="45.32581360550228" lon="3.2188305791805227"><ele>683.0</ele><time>2026-04-18T09:41:18Z</time></trkpt><trkpt lat="45.3256452751575" lon="3.218741617062416"><ele>682.3333333333333</ele><time>2026-04-18T09:41:19Z</time></trkpt><trkpt lat="45.3254629232193" lon="3.2186530405432086"><ele>681.6666666666666</ele><time>2026-04-18T09:41:20Z</time></trkpt><trkpt lat="45.32528641985811" lon="3.218575059245654"><ele>681.0</ele><time>2026-04-18T09:41:21Z</time></trkpt><trkpt lat="45.32511883495233" lon="3.2185042237851045"><ele>681.0</ele><time>2026-04-18T09:41:22Z</time></trkpt><trkpt lat="45.32493836575273" lon="3.2184405624400956"><ele>681.0</ele><time>2026-04-18T09:41:23Z</time></trkpt><trkpt lat="45.32476099151201" lon="3.2183719756675213"><ele>681.0</ele><time>2026-04-18T09:41:24Z</time></trkpt><trkpt lat="45.32457180494497" lon="3.2183019642186657"><ele>679.0</ele><time>2026-04-18T09:41:25Z</time></trkpt><trkpt lat="45.32438084144011" lon="3.218228880565728"><ele>677.0</ele><time>2026-04-18T09:41:26Z</time></trkpt><trkpt lat="45.32420962794103" lon="3.218161332066891"><ele>675.0</ele><time>2026-04-18T09:41:27Z</time></trkpt><trkpt lat="45.32403080191482" lon="3.218092572830351"><ele>671.0</ele><time>2026-04-18T09:41:28Z</time></trkpt><trkpt lat="45.323839054394895" lon="3.218020514671541"><ele>667.0</ele><time>2026-04-18T09:41:29Z</time></trkpt><trkpt lat="45.32365527904483" lon="3.2179459523870793"><ele>663.0</ele><time>2026-04-18T09:41:30Z</time></trkpt><trkpt lat="45.3234621513942" lon="3.2178718570749223"><ele>663.0</ele><time>2026-04-18T09:41:31Z</time></trkpt><trkpt lat="45.32324256717914" lon="3.217786618373249"><ele>663.0</ele><time>2026-04-18T09:41:32Z</time></trkpt><trkpt lat="45.32303304850773" lon="3.2177083190998803"><ele>663.0</ele><time>2026-04-18T09:41:33Z</time></trkpt><trkpt lat="45.322808363383764" lon="3.217617938131218"><ele>661.6666666666666</ele><time>2026-04-18T09:41:34Z</time></trkpt><trkpt lat="45.322606174203116" lon="3.2175386247270654"><ele>660.3333333333333</ele><time>2026-04-18T09:41:35Z</time></trkpt><trkpt lat="45.3223887099804" lon="3.2174507653284405"><ele>659.0</ele><time>2026-04-18T09:41:36Z</time></trkpt><trkpt lat="45.322181736769906" lon="3.2173719631128965"><ele>658.3333333333333</ele><time>2026-04-18T09:41:37Z</time></trkpt><trkpt lat="45.321965684826495" lon="3.2172821380199124"><ele>657.6666666666666</ele><time>2026-04-18T09:41:38Z</time></trkpt><trkpt lat="45.321760942859406" lon="3.217203986735204"><ele>657.0</ele><time>2026-04-18T09:41:39Z</time></trkpt><trkpt lat="45.32155152011535" lon="3.2171257883786124"><ele>657.0</ele><time>2026-04-18T09:41:40Z</time></trkpt><trkpt lat="45.32132991600797" lon="3.2170292733937167"><ele>657.0</ele><time>2026-04-18T09:41:41Z</time></trkpt><trkpt lat="45.32112304357159" lon="3.216954123655765"><ele>657.0</ele><time>2026-04-18T09:41:42Z</time></trkpt><trkpt lat="45.320913765447976" lon="3.2168665179671274"><ele>657.0</ele><time>2026-04-18T09:41:43Z</time></trkpt><trkpt lat="45.320707469215556" lon="3.21678268608171"><ele>657.0</ele><time>2026-04-18T09:41:44Z</time></trkpt><trkpt lat="45.32050924364188" lon="3.2167110518122977"><ele>657.0</ele><time>2026-04-18T09:41:45Z</time></trkpt><trkpt lat="45.320307820231015" lon="3.2166287142674688"><ele>657.0</ele><time>2026-04-18T09:41:46Z</time></trkpt><trkpt lat="45.320108712255305" lon="3.2165502284292122"><ele>657.0</ele><time>2026-04-18T09:41:47Z</time></trkpt><trkpt lat="45.31990821580604" lon="3.2164761956242085"><ele>657.0</ele><time>2026-04-18T09:41:48Z</time></trkpt><trkpt lat="45.31971086373516" lon="3.2163963749961915"><ele>657.0</ele><time>2026-04-18T09:41:49Z</time></trkpt><trkpt lat="45.31952241454075" lon="3.216323929876426"><ele>657.0</ele><time>2026-04-18T09:41:50Z</time></trkpt><trkpt lat="45.31932800401686" lon="3.2162441826985204"><ele>657.0</ele><time>2026-04-18T09:41:51Z</time></trkpt><trkpt lat="45.31912762612344" lon="3.216155950647602"><ele>657.0</ele><time>2026-04-18T09:41:52Z</time></trkpt><trkpt lat="45.31893876818429" lon="3.216083193161338"><ele>657.0</ele><time>2026-04-18T09:41:53Z</time></trkpt><trkpt lat="45.318761795144326" lon="3.2160108330337924"><ele>657.0</ele><time>2026-04-18T09:41:54Z</time></trkpt><trkpt lat="45.318591472882034" lon="3.2159440824935475"><ele>656.6666666666666</ele><time>2026-04-18T09:41:55Z</time></trkpt><trkpt lat="45.31842753628793" lon="3.2158800220181547"><ele>656.3333333333333</ele><time>2026-04-18T09:41:56Z</time></trkpt><trkpt lat="45.31825998518074" lon="3.2158105998370385"><ele>656.0</ele><time>2026-04-18T09:41:57Z</time></trkpt><trkpt lat="45.31810486080962" lon="3.215745656676492"><ele>655.3333333333333</ele><time>2026-04-18T09:41:58Z</time></trkpt><trkpt lat="45.317953106093775" lon="3.215700013231802"><ele>654.6666666666666</ele><time>2026-04-18T09:41:59Z</time></trkpt><trkpt lat="45.31780713462405" lon="3.21564061675246"><ele>654.0</ele><time>2026-04-18T09:42:00Z</time></trkpt><trkpt lat="45.31766805773229" lon="3.2155840088361654"><ele>654.0</ele><time>2026-04-18T09:42:01Z</time></trkpt><trkpt lat="45.31752741889716" lon="3.2155301506317477"><ele>654.0</ele><time>2026-04-18T09:42:02Z</time></trkpt><trkpt lat="45.31738556498466" lon="3.2154722417564305"><ele>654.0</ele><time>2026-04-18T09:42:03Z</time></trkpt><trkpt lat="45.31724970003842" lon="3.215422060774025"><ele>654.0</ele><time>2026-04-18T09:42:04Z</time></trkpt><trkpt lat="45.3171107703875" lon="3.215363449746756"><ele>653.5</ele><time>2026-04-18T09:42:05Z</time></trkpt><trkpt lat="45.31698609750285" lon="3.215319343796982"><ele>653.0</ele><time>2026-04-18T09:42:06Z</time></trkpt><trkpt lat="45.31686106373566" lon="3.2152707143026715"><ele>652.5</ele><time>2026-04-18T09:42:07Z</time></trkpt><trkpt lat="45.316730354182404" lon="3.215218305490972"><ele>652.0</ele><time>2026-04-18T09:42:08Z</time></trkpt><trkpt lat="45.316575678234685" lon="3.215165472273393"><ele>652.0</ele><time>2026-04-18T09:42:09Z</time></trkpt><trkpt lat="45.316421619828816" lon="3.215101886083356"><ele>652.0</ele><time>2026-04-18T09:42:10Z</time></trkpt><trkpt lat="45.316272048485445" lon="3.215045122167254"><ele>652.0</ele><time>2026-04-18T09:42:11Z</time></trkpt><trkpt lat="45.3161293901756" lon="3.214988597368457"><ele>650.5</ele><time>2026-04-18T09:42:12Z</time></trkpt><trkpt lat="45.315991955654304" lon="3.214931544331804"><ele>649.0</ele><time>2026-04-18T09:42:13Z</time></trkpt><trkpt lat="45.3158531982638" lon="3.214873513376977"><ele>647.5</ele><time>2026-04-18T09:42:14Z</time></trkpt><trkpt lat="45.31571972248822" lon="3.214820302818642"><ele>646.0</ele><time>2026-04-18T09:42:15Z</time></trkpt><trkpt lat="45.31559648473533" lon="3.214767111569174"><ele>646.0</ele><time>2026-04-18T09:42:16Z</time></trkpt><trkpt lat="45.315494775032384" lon="3.214725129632496"><ele>646.0</ele><time>2026-04-18T09:42:17Z</time></trkpt><trkpt lat="45.31541661107769" lon="3.214690615741705"><ele>646.0</ele><time>2026-04-18T09:42:18Z</time></trkpt><trkpt lat="45.31534950757956" lon="3.2146632034852813"><ele>646.0</ele><time>2026-04-18T09:42:19Z</time></trkpt><trkpt lat="45.315256965716564" lon="3.2146225546175584"><ele>646.0</ele><time>2026-04-18T09:42:21Z</time></trkpt><trkpt lat="45.3151651186208" lon="3.2145812814603283"><ele>646.0</ele><time>2026-04-18T09:42:23Z</time></trkpt><trkpt lat="45.3150707947135" lon="3.2145369413241935"><ele>646.0</ele><time>2026-04-18T09:42:24Z</time></trkpt><trkpt lat="45.31494672974636" lon="3.214490970112581"><ele>646.0</ele><time>2026-04-18T09:42:25Z</time></trkpt><trkpt lat="45.31479264502731" lon="3.214439744911619"><ele>646.0</ele><time>2026-04-18T09:42:26Z</time></trkpt><trkpt lat="45.314621872743714" lon="3.2143769747603606"><ele>645.6666666666667</ele><time>2026-04-18T09:42:27Z</time></trkpt><trkpt lat="45.31443124801489" lon="3.2143007547430007"><ele>645.3333333333334</ele><time>2026-04-18T09:42:28Z</time></trkpt><trkpt lat="45.3142198908374" lon="3.2142175679493157"><ele>645.0</ele><time>2026-04-18T09:42:29Z</time></trkpt><trkpt lat="45.314011392007096" lon="3.21413603579805"><ele>646.0</ele><time>2026-04-18T09:42:30Z</time></trkpt><trkpt lat="45.31381473839516" lon="3.214058253541169"><ele>647.0</ele><time>2026-04-18T09:42:31Z</time></trkpt><trkpt lat="45.31362193857618" lon="3.2139870191716393"><ele>648.0</ele><time>2026-04-18T09:42:32Z</time></trkpt><trkpt lat="45.31343816594638" lon="3.2139199388667237"><ele>649.0</ele><time>2026-04-18T09:42:33Z</time></trkpt><trkpt lat="45.313239891042784" lon="3.2138424977455786"><ele>650.0</ele><time>2026-04-18T09:42:34Z</time></trkpt><trkpt lat="45.31304550646381" lon="3.2137646785065463"><ele>651.0</ele><time>2026-04-18T09:42:35Z</time></trkpt><trkpt lat="45.31284218573039" lon="3.21367785861528"><ele>651.0</ele><time>2026-04-18T09:42:36Z</time></trkpt><trkpt lat="45.312637054590716" lon="3.213594127889115"><ele>651.0</ele><time>2026-04-18T09:42:37Z</time></trkpt><trkpt lat="45.31243562542242" lon="3.213516241531303"><ele>651.0</ele><time>2026-04-18T09:42:38Z</time></trkpt><trkpt lat="45.312237886857254" lon="3.213438342659849"><ele>651.0</ele><time>2026-04-18T09:42:39Z</time></trkpt><trkpt lat="45.31203721953562" lon="3.2133595286141468"><ele>651.0</ele><time>2026-04-18T09:42:40Z</time></trkpt><trkpt lat="45.31183540785641" lon="3.2132796045468557"><ele>651.0</ele><time>2026-04-18T09:42:41Z</time></trkpt><trkpt lat="45.31163455810685" lon="3.2132008506720053"><ele>652.0</ele><time>2026-04-18T09:42:42Z</time></trkpt><trkpt lat="45.31143003847128" lon="3.21312016227072"><ele>653.0</ele><time>2026-04-18T09:42:43Z</time></trkpt><trkpt lat="45.311234901067905" lon="3.213043667160177"><ele>654.0</ele><time>2026-04-18T09:42:44Z</time></trkpt><trkpt lat="45.31101860086411" lon="3.2129552046093335"><ele>654.0</ele><time>2026-04-18T09:42:45Z</time></trkpt><trkpt lat="45.31080716915616" lon="3.2128690802679905"><ele>654.0</ele><time>2026-04-18T09:42:46Z</time></trkpt><trkpt lat="45.3106081659277" lon="3.2127950248601613"><ele>654.0</ele><time>2026-04-18T09:42:47Z</time></trkpt><trkpt lat="45.310398414979275" lon="3.212713474931941"><ele>654.3333333333334</ele><time>2026-04-18T09:42:48Z</time></trkpt><trkpt lat="45.310192950556996" lon="3.212634308382864"><ele>654.6666666666667</ele><time>2026-04-18T09:42:49Z</time></trkpt><trkpt lat="45.30998985307085" lon="3.2125494584018295"><ele>655.0</ele><time>2026-04-18T09:42:50Z</time></trkpt><trkpt lat="45.309787647990454" lon="3.212461810967407"><ele>655.0</ele><time>2026-04-18T09:42:51Z</time></trkpt><trkpt lat="45.30957959712268" lon="3.212380343409593"><ele>655.0</ele><time>2026-04-18T09:42:52Z</time></trkpt><trkpt lat="45.30936652267208" lon="3.2123008754942113"><ele>655.0</ele><time>2026-04-18T09:42:53Z</time></trkpt><trkpt lat="45.30915333492005" lon="3.2122212166833175"><ele>655.0</ele><time>2026-04-18T09:42:54Z</time></trkpt><trkpt lat="45.30893407067137" lon="3.2121401054115197"><ele>655.0</ele><time>2026-04-18T09:42:55Z</time></trkpt><trkpt lat="45.308719782244715" lon="3.2120625024465017"><ele>655.0</ele><time>2026-04-18T09:42:56Z</time></trkpt><trkpt lat="45.308497795947936" lon="3.211968268178139"><ele>654.5</ele><time>2026-04-18T09:42:56.999Z</time></trkpt><trkpt lat="45.30828376333646" lon="3.2118844951867263"><ele>654.0</ele><time>2026-04-18T09:42:57.999Z</time></trkpt><trkpt lat="45.308064098223966" lon="3.2117869195437603"><ele>654.6666666666666</ele><time>2026-04-18T09:42:58.999Z</time></trkpt><trkpt lat="45.30784879755572" lon="3.21169490766082"><ele>655.3333333333333</ele><time>2026-04-18T09:42:59.999Z</time></trkpt><trkpt lat="45.307640701162796" lon="3.2116124161186637"><ele>656.0</ele><time>2026-04-18T09:43:00.999Z</time></trkpt><trkpt lat="45.30743598710297" lon="3.2115328838114245"><ele>656.6666666666666</ele><time>2026-04-18T09:43:01.999Z</time></trkpt><trkpt lat="45.30723037853955" lon="3.2114503777813486"><ele>657.3333333333334</ele><time>2026-04-18T09:43:02.999Z</time></trkpt><trkpt lat="45.307027433718446" lon="3.2113680601326418"><ele>658.0</ele><time>2026-04-18T09:43:03.999Z</time></trkpt><trkpt lat="45.306831499476274" lon="3.211292716606142"><ele>658.0</ele><time>2026-04-18T09:43:04.999Z</time></trkpt><trkpt lat="45.306631753833884" lon="3.211217204064286"><ele>658.0</ele><time>2026-04-18T09:43:05.999Z</time></trkpt><trkpt lat="45.306438304982585" lon="3.211144566871254"><ele>658.0</ele><time>2026-04-18T09:43:06.999Z</time></trkpt><trkpt lat="45.30624425576936" lon="3.2110667286482886"><ele>659.3333333333334</ele><time>2026-04-18T09:43:07.999Z</time></trkpt><trkpt lat="45.306045364290476" lon="3.210988268001713"><ele>660.6666666666666</ele><time>2026-04-18T09:43:08.999Z</time></trkpt><trkpt lat="45.30584783317604" lon="3.210911335945466"><ele>662.0</ele><time>2026-04-18T09:43:09.999Z</time></trkpt><trkpt lat="45.30564811305481" lon="3.210833684443132"><ele>662.3333333333333</ele><time>2026-04-18T09:43:10.999Z</time></trkpt><trkpt lat="45.305442153184046" lon="3.2107542540935947"><ele>662.6666666666666</ele><time>2026-04-18T09:43:12Z</time></trkpt><trkpt lat="45.305241044577485" lon="3.210678518962802"><ele>663.0</ele><time>2026-04-18T09:43:13Z</time></trkpt><trkpt lat="45.30503354297841" lon="3.2105945359642196"><ele>663.0</ele><time>2026-04-18T09:43:14Z</time></trkpt><trkpt lat="45.3048285063197" lon="3.2105073818841694"><ele>663.0</ele><time>2026-04-18T09:43:15Z</time></trkpt><trkpt lat="45.30462227367538" lon="3.2104201109679686"><ele>663.0</ele><time>2026-04-18T09:43:16Z</time></trkpt><trkpt lat="45.304412630941904" lon="3.2103343246493883"><ele>664.6666666666666</ele><time>2026-04-18T09:43:17Z</time></trkpt><trkpt lat="45.30420160321925" lon="3.210254080477906"><ele>666.3333333333333</ele><time>2026-04-18T09:43:18Z</time></trkpt><trkpt lat="45.30399308840562" lon="3.210175552193365"><ele>668.0</ele><time>2026-04-18T09:43:19Z</time></trkpt><trkpt lat="45.303773069514286" lon="3.2100911504041454"><ele>668.3333333333333</ele><time>2026-04-18T09:43:20Z</time></trkpt><trkpt lat="45.3035663769608" lon="3.2100095205695074"><ele>668.6666666666666</ele><time>2026-04-18T09:43:21Z</time></trkpt><trkpt lat="45.303360437607324" lon="3.209925626095733"><ele>669.0</ele><time>2026-04-18T09:43:22Z</time></trkpt><trkpt lat="45.303150710987566" lon="3.2098394161375268"><ele>672.0</ele><time>2026-04-18T09:43:23Z</time></trkpt><trkpt lat="45.30295474041137" lon="3.2097633469784004"><ele>675.0</ele><time>2026-04-18T09:43:24Z</time></trkpt><trkpt lat="45.30274916035955" lon="3.2096823123332756"><ele>678.0</ele><time>2026-04-18T09:43:25Z</time></trkpt><trkpt lat="45.302548719907044" lon="3.2096063085901405"><ele>678.0</ele><time>2026-04-18T09:43:26Z</time></trkpt><trkpt lat="45.30235855003439" lon="3.209529585183104"><ele>678.0</ele><time>2026-04-18T09:43:27Z</time></trkpt><trkpt lat="45.30216068959515" lon="3.2094525935684266"><ele>678.0</ele><time>2026-04-18T09:43:28Z</time></trkpt><trkpt lat="45.30197101877553" lon="3.2093756592859166"><ele>679.6666666666666</ele><time>2026-04-18T09:43:29Z</time></trkpt><trkpt lat="45.30178649884226" lon="3.2092988583960653"><ele>681.3333333333333</ele><time>2026-04-18T09:43:30Z</time></trkpt><trkpt lat="45.30160562684951" lon="3.2092308474886604"><ele>683.0</ele><time>2026-04-18T09:43:31Z</time></trkpt><trkpt lat="45.30145096025154" lon="3.209167319548405"><ele>684.0</ele><time>2026-04-18T09:43:32Z</time></trkpt><trkpt lat="45.30129925244446" lon="3.209100040815665"><ele>685.0</ele><time>2026-04-18T09:43:33Z</time></trkpt><trkpt lat="45.30116489335432" lon="3.209014887677633"><ele>686.0</ele><time>2026-04-18T09:43:34Z</time></trkpt><trkpt lat="45.30104710792283" lon="3.2088955391589433"><ele>686.6666666666666</ele><time>2026-04-18T09:43:35Z</time></trkpt><trkpt lat="45.30094071272474" lon="3.2087292054704792"><ele>687.3333333333334</ele><time>2026-04-18T09:43:36Z</time></trkpt><trkpt lat="45.300842077059286" lon="3.208541328427631"><ele>688.0</ele><time>2026-04-18T09:43:37Z</time></trkpt><trkpt lat="45.30074043817617" lon="3.2083463231339557"><ele>688.3333333333334</ele><time>2026-04-18T09:43:38Z</time></trkpt><trkpt lat="45.30062965965215" lon="3.208128099219123"><ele>688.6666666666666</ele><time>2026-04-18T09:43:39Z</time></trkpt><trkpt lat="45.300521696820276" lon="3.2079178058800735"><ele>689.0</ele><time>2026-04-18T09:43:40Z</time></trkpt><trkpt lat="45.3004113891" lon="3.2077063916475597"><ele>689.6666666666666</ele><time>2026-04-18T09:43:41Z</time></trkpt><trkpt lat="45.30030224496576" lon="3.2075022628021777"><ele>690.3333333333334</ele><time>2026-04-18T09:43:42Z</time></trkpt><trkpt lat="45.300187601688734" lon="3.2072846738396104"><ele>691.0</ele><time>2026-04-18T09:43:43Z</time></trkpt><trkpt lat="45.30006958904883" lon="3.207065256153815"><ele>691.3333333333334</ele><time>2026-04-18T09:43:44Z</time></trkpt><trkpt lat="45.29995696621656" lon="3.206847880791169"><ele>691.6666666666666</ele><time>2026-04-18T09:43:45Z</time></trkpt><trkpt lat="45.299831242291276" lon="3.2066148201660707"><ele>692.0</ele><time>2026-04-18T09:43:46Z</time></trkpt><trkpt lat="45.29971878358393" lon="3.2064040507408733"><ele>690.6666666666666</ele><time>2026-04-18T09:43:47Z</time></trkpt><trkpt lat="45.29959854391516" lon="3.2061834900289834"><ele>689.3333333333334</ele><time>2026-04-18T09:43:48Z</time></trkpt><trkpt lat="45.299488241747575" lon="3.2059714416225398"><ele>688.0</ele><time>2026-04-18T09:43:49Z</time></trkpt><trkpt lat="45.29936395696662" lon="3.205740524211492"><ele>688.3333333333334</ele><time>2026-04-18T09:43:50Z</time></trkpt><trkpt lat="45.29925617523769" lon="3.2055226355086504"><ele>688.6666666666666</ele><time>2026-04-18T09:43:51Z</time></trkpt><trkpt lat="45.29913579058763" lon="3.205298267494294"><ele>689.0</ele><time>2026-04-18T09:43:52Z</time></trkpt><trkpt lat="45.29901268569032" lon="3.205069836146363"><ele>689.0</ele><time>2026-04-18T09:43:53Z</time></trkpt><trkpt lat="45.29889719030672" lon="3.2048496549559466"><ele>689.0</ele><time>2026-04-18T09:43:54Z</time></trkpt><trkpt lat="45.29877695099303" lon="3.204623846425755"><ele>689.0</ele><time>2026-04-18T09:43:55Z</time></trkpt><trkpt lat="45.298664917215184" lon="3.204410068910077"><ele>689.0</ele><time>2026-04-18T09:43:56Z</time></trkpt><trkpt lat="45.29854209468264" lon="3.204181953493095"><ele>689.0</ele><time>2026-04-18T09:43:57Z</time></trkpt><trkpt lat="45.29842625533918" lon="3.203958542657773"><ele>689.0</ele><time>2026-04-18T09:43:58Z</time></trkpt><trkpt lat="45.298305381186026" lon="3.203733878501392"><ele>689.3333333333333</ele><time>2026-04-18T09:43:59Z</time></trkpt><trkpt lat="45.298174131700364" lon="3.2034888530011902"><ele>689.6666666666666</ele><time>2026-04-18T09:44:00Z</time></trkpt><trkpt lat="45.29804995836089" lon="3.203253474649575"><ele>690.0</ele><time>2026-04-18T09:44:01Z</time></trkpt><trkpt lat="45.29792323469004" lon="3.2030128384318934"><ele>690.0</ele><time>2026-04-18T09:44:02Z</time></trkpt><trkpt lat="45.29780450110591" lon="3.202795904033385"><ele>690.0</ele><time>2026-04-18T09:44:03Z</time></trkpt><trkpt lat="45.29768722254568" lon="3.2025701405351197"><ele>690.0</ele><time>2026-04-18T09:44:04Z</time></trkpt><trkpt lat="45.29757103609871" lon="3.202353391621212"><ele>689.3333333333334</ele><time>2026-04-18T09:44:05Z</time></trkpt><trkpt lat="45.29745194257906" lon="3.202119464401067"><ele>688.6666666666667</ele><time>2026-04-18T09:44:06Z</time></trkpt><trkpt lat="45.29733579869096" lon="3.2018946108814577"><ele>688.0</ele><time>2026-04-18T09:44:07Z</time></trkpt><trkpt lat="45.29721973196233" lon="3.2016691786143836"><ele>687.6666666666667</ele><time>2026-04-18T09:44:08Z</time></trkpt><trkpt lat="45.297094693365075" lon="3.201429504436716"><ele>687.3333333333334</ele><time>2026-04-18T09:44:09Z</time></trkpt><trkpt lat="45.296974067585055" lon="3.2012048473219545"><ele>687.0</ele><time>2026-04-18T09:44:10Z</time></trkpt><trkpt lat="45.296864966423634" lon="3.2010023160243795"><ele>687.0</ele><time>2026-04-18T09:44:11Z</time></trkpt><trkpt lat="45.296750440917215" lon="3.2008136346909097"><ele>687.0</ele><time>2026-04-18T09:44:12Z</time></trkpt><trkpt lat="45.296624771957305" lon="3.200639256951772"><ele>687.0</ele><time>2026-04-18T09:44:13Z</time></trkpt><trkpt lat="45.29648123347261" lon="3.200497657795921"><ele>686.0</ele><time>2026-04-18T09:44:14Z</time></trkpt><trkpt lat="45.29633518878936" lon="3.2003702847595306"><ele>685.0</ele><time>2026-04-18T09:44:15Z</time></trkpt><trkpt lat="45.296189926917464" lon="3.2002412144281216"><ele>684.0</ele><time>2026-04-18T09:44:16Z</time></trkpt><trkpt lat="45.296055480595776" lon="3.2001172129630637"><ele>684.0</ele><time>2026-04-18T09:44:17Z</time></trkpt><trkpt lat="45.295927669336606" lon="3.2000031493091705"><ele>684.0</ele><time>2026-04-18T09:44:18Z</time></trkpt><trkpt lat="45.29580358080574" lon="3.19988362362695"><ele>684.0</ele><time>2026-04-18T09:44:19Z</time></trkpt><trkpt lat="45.29567913830543" lon="3.1997677946966"><ele>681.75</ele><time>2026-04-18T09:44:20Z</time></trkpt><trkpt lat="45.295556493434916" lon="3.1996425844063605"><ele>679.5</ele><time>2026-04-18T09:44:21Z</time></trkpt><trkpt lat="45.29543857767723" lon="3.1995275030652484"><ele>677.25</ele><time>2026-04-18T09:44:22Z</time></trkpt><trkpt lat="45.29532526376469" lon="3.1994203865790944"><ele>675.0</ele><time>2026-04-18T09:44:23Z</time></trkpt><trkpt lat="45.295213605339235" lon="3.1993358222569226"><ele>675.0</ele><time>2026-04-18T09:44:24Z</time></trkpt><trkpt lat="45.29508849329597" lon="3.1992932369093183"><ele>675.0</ele><time>2026-04-18T09:44:25Z</time></trkpt><trkpt lat="45.29495492879444" lon="3.1992978105665637"><ele>675.0</ele><time>2026-04-18T09:44:26Z</time></trkpt><trkpt lat="45.29481521642857" lon="3.1993446004859387"><ele>675.0</ele><time>2026-04-18T09:44:27Z</time></trkpt><trkpt lat="45.294679803250716" lon="3.1994031998379864"><ele>673.0</ele><time>2026-04-18T09:44:28Z</time></trkpt><trkpt lat="45.29454157289701" lon="3.1994551973743923"><ele>671.0</ele><time>2026-04-18T09:44:29Z</time></trkpt><trkpt lat="45.29439693587531" lon="3.199485081409744"><ele>669.0</ele><time>2026-04-18T09:44:30Z</time></trkpt><trkpt lat="45.294258510815915" lon="3.199491869895029"><ele>667.0</ele><time>2026-04-18T09:44:31Z</time></trkpt><trkpt lat="45.29411635619108" lon="3.1994904407917493"><ele>667.0</ele><time>2026-04-18T09:44:32Z</time></trkpt><trkpt lat="45.29397475012664" lon="3.1994725246164277"><ele>667.0</ele><time>2026-04-18T09:44:33Z</time></trkpt><trkpt lat="45.293838539240724" lon="3.1994307359813234"><ele>667.0</ele><time>2026-04-18T09:44:34Z</time></trkpt><trkpt lat="45.293704998049265" lon="3.199372224533655"><ele>667.0</ele><time>2026-04-18T09:44:35Z</time></trkpt><trkpt lat="45.29357682842601" lon="3.19928990889616"><ele>665.75</ele><time>2026-04-18T09:44:36Z</time></trkpt><trkpt lat="45.29345835840192" lon="3.199180502610542"><ele>664.5</ele><time>2026-04-18T09:44:37Z</time></trkpt><trkpt lat="45.293347981848235" lon="3.199034122438446"><ele>663.25</ele><time>2026-04-18T09:44:38Z</time></trkpt><trkpt lat="45.29325438342985" lon="3.19887878455526"><ele>662.0</ele><time>2026-04-18T09:44:39Z</time></trkpt><trkpt lat="45.293164801465885" lon="3.19872133426814"><ele>659.5</ele><time>2026-04-18T09:44:40Z</time></trkpt><trkpt lat="45.29307440667583" lon="3.1985735779630002"><ele>657.0</ele><time>2026-04-18T09:44:41Z</time></trkpt><trkpt lat="45.292979960869474" lon="3.1984226390087445"><ele>654.5</ele><time>2026-04-18T09:44:42Z</time></trkpt><trkpt lat="45.292887284637274" lon="3.198283091814074"><ele>652.0</ele><time>2026-04-18T09:44:43Z</time></trkpt><trkpt lat="45.29279164719461" lon="3.198152843794493"><ele>649.5</ele><time>2026-04-18T09:44:44Z</time></trkpt><trkpt lat="45.292696853059816" lon="3.1980391480642316"><ele>647.0</ele><time>2026-04-18T09:44:45Z</time></trkpt><trkpt lat="45.29258822804222" lon="3.197940000087015"><ele>644.5</ele><time>2026-04-18T09:44:46Z</time></trkpt><trkpt lat="45.29247503992228" lon="3.197855944749035"><ele>642.0</ele><time>2026-04-18T09:44:47Z</time></trkpt><trkpt lat="45.29235874445747" lon="3.197779944940129"><ele>642.0</ele><time>2026-04-18T09:44:47.999Z</time></trkpt><trkpt lat="45.29224322974737" lon="3.1977161508471283"><ele>642.0</ele><time>2026-04-18T09:44:48.999Z</time></trkpt><trkpt lat="45.292126357998455" lon="3.1976548556540982"><ele>642.0</ele><time>2026-04-18T09:44:49.999Z</time></trkpt><trkpt lat="45.29201241910239" lon="3.197599678644495"><ele>642.0</ele><time>2026-04-18T09:44:50.999Z</time></trkpt><trkpt lat="45.29189485736797" lon="3.1975636471844067"><ele>642.0</ele><time>2026-04-18T09:44:51.999Z</time></trkpt><trkpt lat="45.29177530073153" lon="3.197540548382783"><ele>642.0</ele><time>2026-04-18T09:44:52.999Z</time></trkpt><trkpt lat="45.29165424431441" lon="3.1975077025706145"><ele>642.0</ele><time>2026-04-18T09:44:53.999Z</time></trkpt><trkpt lat="45.29153679490278" lon="3.197454258238373"><ele>642.0</ele><time>2026-04-18T09:44:54.999Z</time></trkpt><trkpt lat="45.29142963392379" lon="3.1974041516399114"><ele>641.8</ele><time>2026-04-18T09:44:55.999Z</time></trkpt><trkpt lat="45.29132276615557" lon="3.1973517174947697"><ele>641.6</ele><time>2026-04-18T09:44:56.999Z</time></trkpt><trkpt lat="45.29121583119991" lon="3.197291929483228"><ele>641.4</ele><time>2026-04-18T09:44:57.999Z</time></trkpt><trkpt lat="45.29111379848363" lon="3.1972290503772673"><ele>641.1999999999999</ele><time>2026-04-18T09:44:58.999Z</time></trkpt><trkpt lat="45.29101121625761" lon="3.197176872562425"><ele>641.0</ele><time>2026-04-18T09:44:59.999Z</time></trkpt><trkpt lat="45.29091344395396" lon="3.197132072111489"><ele>638.4</ele><time>2026-04-18T09:45:00.999Z</time></trkpt><trkpt lat="45.290826295651534" lon="3.1970835580305965"><ele>635.8</ele><time>2026-04-18T09:45:01.999Z</time></trkpt><trkpt lat="45.29075318760108" lon="3.1970529638274083"><ele>633.1999999999999</ele><time>2026-04-18T09:45:02.999Z</time></trkpt><trkpt lat="45.29064476249187" lon="3.1969654005773704"><ele>630.5999999999999</ele><time>2026-04-18T09:45:04.999Z</time></trkpt><trkpt lat="45.29064848937006" lon="3.196812987539564"><ele>628.0</ele><time>2026-04-18T09:45:06.999Z</time></trkpt><trkpt lat="45.29069789860215" lon="3.1967569775114364"><ele>628.0</ele><time>2026-04-18T09:45:07.999Z</time></trkpt><trkpt lat="45.29076242356682" lon="3.1967339370071577"><ele>628.0</ele><time>2026-04-18T09:45:08.999Z</time></trkpt><trkpt lat="45.290831681028386" lon="3.1967228351701444"><ele>628.0</ele><time>2026-04-18T09:45:09.999Z</time></trkpt><trkpt lat="45.290921826546885" lon="3.196701960485282"><ele>628.0</ele><time>2026-04-18T09:45:10.999Z</time></trkpt><trkpt lat="45.29101280619874" lon="3.196674503834159"><ele>628.0</ele><time>2026-04-18T09:45:11.999Z</time></trkpt><trkpt lat="45.29108227403158" lon="3.1966606423368042"><ele>628.0</ele><time>2026-04-18T09:45:12.999Z</time></trkpt><trkpt lat="45.29116355219655" lon="3.1966317731165828"><ele>628.0</ele><time>2026-04-18T09:45:13.999Z</time></trkpt><trkpt lat="45.29123880103142" lon="3.196598845433025"><ele>628.0</ele><time>2026-04-18T09:45:14.999Z</time></trkpt><trkpt lat="45.29132507888963" lon="3.196546472113414"><ele>628.0</ele><time>2026-04-18T09:45:15.999Z</time></trkpt><trkpt lat="45.291406874743444" lon="3.1964961512936254"><ele>628.0</ele><time>2026-04-18T09:45:16.999Z</time></trkpt><trkpt lat="45.29148174193416" lon="3.196447155701231"><ele>628.0</ele><time>2026-04-18T09:45:18Z</time></trkpt><trkpt lat="45.29156792899346" lon="3.196378292839245"><ele>628.0</ele><time>2026-04-18T09:45:19Z</time></trkpt><trkpt lat="45.291672279598586" lon="3.1962989674844966"><ele>624.6</ele><time>2026-04-18T09:45:20Z</time></trkpt><trkpt lat="45.29177168606658" lon="3.1962139954139452"><ele>621.1999999999999</ele><time>2026-04-18T09:45:21Z</time></trkpt><trkpt lat="45.29185209120917" lon="3.1961320100486597"><ele>617.8</ele><time>2026-04-18T09:45:22Z</time></trkpt><trkpt lat="45.29193765697611" lon="3.196059239401647"><ele>614.4</ele><time>2026-04-18T09:45:23Z</time></trkpt><trkpt lat="45.2920143564987" lon="3.195985536488487"><ele>611.0</ele><time>2026-04-18T09:45:24Z</time></trkpt><trkpt lat="45.29209117853971" lon="3.1959212695098063"><ele>611.0</ele><time>2026-04-18T09:45:25Z</time></trkpt><trkpt lat="45.292158681094556" lon="3.1958456055400712"><ele>611.0</ele><time>2026-04-18T09:45:26Z</time></trkpt><trkpt lat="45.29222802172711" lon="3.195762849292582"><ele>611.0</ele><time>2026-04-18T09:45:27Z</time></trkpt><trkpt lat="45.292306402317706" lon="3.195637570443626"><ele>611.0</ele><time>2026-04-18T09:45:28Z</time></trkpt><trkpt lat="45.29238442248204" lon="3.1955140122739363"><ele>611.0</ele><time>2026-04-18T09:45:29Z</time></trkpt><trkpt lat="45.29246839686678" lon="3.1953971915454034"><ele>610.0</ele><time>2026-04-18T09:45:30Z</time></trkpt><trkpt lat="45.2925526142939" lon="3.1953036418718828"><ele>609.0</ele><time>2026-04-18T09:45:31Z</time></trkpt><trkpt lat="45.29263754349917" lon="3.1952373620763397"><ele>608.0</ele><time>2026-04-18T09:45:32Z</time></trkpt><trkpt lat="45.2927045245176" lon="3.1951878320882297"><ele>607.0</ele><time>2026-04-18T09:45:33Z</time></trkpt><trkpt lat="45.29274985334058" lon="3.1950555397581413"><ele>606.0</ele><time>2026-04-18T09:45:35Z</time></trkpt><trkpt lat="45.29270966644369" lon="3.1949670521043387"><ele>606.0</ele><time>2026-04-18T09:45:36Z</time></trkpt><trkpt lat="45.29255514288005" lon="3.1949454605496017"><ele>606.0</ele><time>2026-04-18T09:45:38Z</time></trkpt><trkpt lat="45.292453856152285" lon="3.1949980030256735"><ele>606.0</ele><time>2026-04-18T09:45:39Z</time></trkpt><trkpt lat="45.29234403480366" lon="3.195055776538263"><ele>606.0</ele><time>2026-04-18T09:45:40Z</time></trkpt><trkpt lat="45.292229114716925" lon="3.1950966165139767"><ele>604.0</ele><time>2026-04-18T09:45:41Z</time></trkpt><trkpt lat="45.29211528529292" lon="3.195116719769663"><ele>602.0</ele><time>2026-04-18T09:45:42Z</time></trkpt><trkpt lat="45.292004154940514" lon="3.195099465700474"><ele>600.0</ele><time>2026-04-18T09:45:43Z</time></trkpt><trkpt lat="45.29188605711745" lon="3.1950803787668423"><ele>598.0</ele><time>2026-04-18T09:45:44Z</time></trkpt><trkpt lat="45.291763017041774" lon="3.195074179973245"><ele>598.0</ele><time>2026-04-18T09:45:45Z</time></trkpt><trkpt lat="45.29162192857473" lon="3.1950533010905273"><ele>598.0</ele><time>2026-04-18T09:45:46Z</time></trkpt><trkpt lat="45.29145356536832" lon="3.195059503759167"><ele>598.0</ele><time>2026-04-18T09:45:47Z</time></trkpt><trkpt lat="45.29125901374372" lon="3.195093449944407"><ele>595.6666666666667</ele><time>2026-04-18T09:45:48Z</time></trkpt><trkpt lat="45.291079279248436" lon="3.195109769340007"><ele>593.3333333333334</ele><time>2026-04-18T09:45:49Z</time></trkpt><trkpt lat="45.290907374014004" lon="3.1950696903258797"><ele>591.0</ele><time>2026-04-18T09:45:50Z</time></trkpt><trkpt lat="45.29070973700241" lon="3.1950490598911"><ele>587.5</ele><time>2026-04-18T09:45:51Z</time></trkpt><trkpt lat="45.290497110412126" lon="3.1950183857999415"><ele>584.0</ele><time>2026-04-18T09:45:52Z</time></trkpt><trkpt lat="45.290256575260194" lon="3.1949976125424877"><ele>584.0</ele><time>2026-04-18T09:45:53Z</time></trkpt><trkpt lat="45.289995452052935" lon="3.195015778632113"><ele>584.0</ele><time>2026-04-18T09:45:54Z</time></trkpt><trkpt lat="45.289763675947796" lon="3.1950516679006635"><ele>580.0</ele><time>2026-04-18T09:45:55Z</time></trkpt><trkpt lat="45.289569021862896" lon="3.195082038396781"><ele>576.0</ele><time>2026-04-18T09:45:56Z</time></trkpt><trkpt lat="45.289403153531175" lon="3.195095335577669"><ele>572.0</ele><time>2026-04-18T09:45:57Z</time></trkpt><trkpt lat="45.2892580792556" lon="3.195119195782738"><ele>572.0</ele><time>2026-04-18T09:45:58Z</time></trkpt><trkpt lat="45.28910314305146" lon="3.195166120817032"><ele>572.0</ele><time>2026-04-18T09:45:59Z</time></trkpt><trkpt lat="45.288977406136816" lon="3.195243893554809"><ele>572.0</ele><time>2026-04-18T09:46:00Z</time></trkpt><trkpt lat="45.28887659832457" lon="3.195316500016653"><ele>572.0</ele><time>2026-04-18T09:46:01Z</time></trkpt><trkpt lat="45.28879608097482" lon="3.195415671395379"><ele>568.2</ele><time>2026-04-18T09:46:02Z</time></trkpt><trkpt lat="45.288735466819965" lon="3.1954989080580694"><ele>564.4000000000001</ele><time>2026-04-18T09:46:03Z</time></trkpt><trkpt lat="45.288636057678595" lon="3.195556724763749"><ele>560.5999999999999</ele><time>2026-04-18T09:46:05Z</time></trkpt><trkpt lat="45.28860517754147" lon="3.1953834777286927"><ele>556.8</ele><time>2026-04-18T09:46:07Z</time></trkpt><trkpt lat="45.28864365120118" lon="3.1952648261139514"><ele>553.0</ele><time>2026-04-18T09:46:08Z</time></trkpt><trkpt lat="45.288745486860385" lon="3.195159283485286"><ele>553.0</ele><time>2026-04-18T09:46:09Z</time></trkpt><trkpt lat="45.28885043673591" lon="3.1949790910619127"><ele>553.0</ele><time>2026-04-18T09:46:10Z</time></trkpt><trkpt lat="45.28897118553466" lon="3.194816116694219"><ele>553.0</ele><time>2026-04-18T09:46:11Z</time></trkpt><trkpt lat="45.289138985887625" lon="3.194638030707873"><ele>553.3333333333334</ele><time>2026-04-18T09:46:12Z</time></trkpt><trkpt lat="45.289317202681815" lon="3.1944525080109916"><ele>553.6666666666666</ele><time>2026-04-18T09:46:13Z</time></trkpt><trkpt lat="45.28946771665474" lon="3.19433960847636"><ele>554.0</ele><time>2026-04-18T09:46:14Z</time></trkpt><trkpt lat="45.28958864792745" lon="3.194248734863098"><ele>554.0</ele><time>2026-04-18T09:46:15Z</time></trkpt><trkpt lat="45.289694598897" lon="3.194208927876489"><ele>554.0</ele><time>2026-04-18T09:46:16Z</time></trkpt><trkpt lat="45.289777793623394" lon="3.1941722222162814"><ele>554.0</ele><time>2026-04-18T09:46:17Z</time></trkpt><trkpt lat="45.28983971055533" lon="3.1940429544633107"><ele>554.0</ele><time>2026-04-18T09:46:19Z</time></trkpt><trkpt lat="45.28979686188925" lon="3.193955622628459"><ele>554.0</ele><time>2026-04-18T09:46:20Z</time></trkpt><trkpt lat="45.289725571037906" lon="3.1939103281843635"><ele>554.0</ele><time>2026-04-18T09:46:21Z</time></trkpt><trkpt lat="45.28962342814094" lon="3.1939189629856855"><ele>554.0</ele><time>2026-04-18T09:46:22Z</time></trkpt><trkpt lat="45.28947764192586" lon="3.1939675688519777"><ele>554.0</ele><time>2026-04-18T09:46:23Z</time></trkpt><trkpt lat="45.289323745505776" lon="3.1940132344524046"><ele>554.0</ele><time>2026-04-18T09:46:24Z</time></trkpt><trkpt lat="45.28913149423776" lon="3.1940172006798844"><ele>549.0</ele><time>2026-04-18T09:46:25Z</time></trkpt><trkpt lat="45.28890746807226" lon="3.193998360817354"><ele>544.0</ele><time>2026-04-18T09:46:26Z</time></trkpt><trkpt lat="45.28871854570023" lon="3.1939926371009912"><ele>539.0</ele><time>2026-04-18T09:46:27Z</time></trkpt><trkpt lat="45.28854270522767" lon="3.19398388547399"><ele>539.0</ele><time>2026-04-18T09:46:28Z</time></trkpt><trkpt lat="45.28838144743929" lon="3.1939247134616693"><ele>539.0</ele><time>2026-04-18T09:46:29Z</time></trkpt><trkpt lat="45.288243575012025" lon="3.1938789105970544"><ele>539.0</ele><time>2026-04-18T09:46:30Z</time></trkpt><trkpt lat="45.288140118810055" lon="3.1937845340823006"><ele>539.0</ele><time>2026-04-18T09:46:31Z</time></trkpt><trkpt lat="45.288048147963444" lon="3.193754028170645"><ele>536.8</ele><time>2026-04-18T09:46:32Z</time></trkpt><trkpt lat="45.287965929009616" lon="3.1938096158457885"><ele>534.5999999999999</ele><time>2026-04-18T09:46:33Z</time></trkpt><trkpt lat="45.28789166648046" lon="3.1939037744114183"><ele>532.4</ele><time>2026-04-18T09:46:34Z</time></trkpt><trkpt lat="45.28783978823808" lon="3.194038307878104"><ele>530.1999999999999</ele><time>2026-04-18T09:46:35Z</time></trkpt><trkpt lat="45.287789597242075" lon="3.194178218523389"><ele>528.0</ele><time>2026-04-18T09:46:36Z</time></trkpt><trkpt lat="45.28774214146283" lon="3.1943163825947263"><ele>528.0</ele><time>2026-04-18T09:46:36.999Z</time></trkpt><trkpt lat="45.287693073430695" lon="3.1944521756414193"><ele>528.0</ele><time>2026-04-18T09:46:37.999Z</time></trkpt><trkpt lat="45.28765169142112" lon="3.1945863940771164"><ele>528.0</ele><time>2026-04-18T09:46:38.999Z</time></trkpt><trkpt lat="45.28761538225743" lon="3.194729613496892"><ele>528.0</ele><time>2026-04-18T09:46:39.999Z</time></trkpt><trkpt lat="45.287592583190985" lon="3.194874159628852"><ele>528.0</ele><time>2026-04-18T09:46:40.999Z</time></trkpt><trkpt lat="45.28755664950597" lon="3.1950004976489295"><ele>528.0</ele><time>2026-04-18T09:46:41.999Z</time></trkpt><trkpt lat="45.287531925350315" lon="3.1951153981916707"><ele>528.0</ele><time>2026-04-18T09:46:42.999Z</time></trkpt><trkpt lat="45.287488429543" lon="3.195262450607113"><ele>528.0</ele><time>2026-04-18T09:46:44.999Z</time></trkpt><trkpt lat="45.287415399295604" lon="3.195243703305951"><ele>528.0</ele><time>2026-04-18T09:46:47.999Z</time></trkpt><trkpt lat="45.28740045020248" lon="3.195108146404662"><ele>528.0</ele><time>2026-04-18T09:47:05.999Z</time></trkpt><trkpt lat="45.28740090343864" lon="3.1949460582524423"><ele>528.0</ele><time>2026-04-18T09:47:07.999Z</time></trkpt><trkpt lat="45.287398338243754" lon="3.1948436649233614"><ele>528.0</ele><time>2026-04-18T09:47:08.999Z</time></trkpt><trkpt lat="45.28739385549533" lon="3.194738787450033"><ele>528.0</ele><time>2026-04-18T09:47:09.999Z</time></trkpt><trkpt lat="45.28738457900317" lon="3.1946173506695406"><ele>528.0</ele><time>2026-04-18T09:47:10.999Z</time></trkpt><trkpt lat="45.28736872729942" lon="3.194503974772354"><ele>528.0</ele><time>2026-04-18T09:47:11.999Z</time></trkpt><trkpt lat="45.2873551913498" lon="3.1943898322847106"><ele>528.0</ele><time>2026-04-18T09:47:12.999Z</time></trkpt><trkpt lat="45.287343105859094" lon="3.19425684058073"><ele>528.0</ele><time>2026-04-18T09:47:13.999Z</time></trkpt><trkpt lat="45.28732325604878" lon="3.1941290946907457"><ele>528.0</ele><time>2026-04-18T09:47:14.999Z</time></trkpt><trkpt lat="45.28730317428028" lon="3.1939892944265087"><ele>528.0</ele><time>2026-04-18T09:47:15.999Z</time></trkpt><trkpt lat="45.28727452335882" lon="3.1938285272301923"><ele>528.0</ele><time>2026-04-18T09:47:16.999Z</time></trkpt><trkpt lat="45.28724796165196" lon="3.1936623822152232"><ele>528.0</ele><time>2026-04-18T09:47:17.999Z</time></trkpt><trkpt lat="45.28722154086272" lon="3.1935093868507427"><ele>526.1666666666666</ele><time>2026-04-18T09:47:18.999Z</time></trkpt><trkpt lat="45.28719099077925" lon="3.19337407891941"><ele>524.3333333333334</ele><time>2026-04-18T09:47:19.999Z</time></trkpt><trkpt lat="45.28714979414905" lon="3.19325999280493"><ele>522.5</ele><time>2026-04-18T09:47:20.999Z</time></trkpt><trkpt lat="45.28711463905543" lon="3.1931527654207166"><ele>520.6666666666667</ele><time>2026-04-18T09:47:21.999Z</time></trkpt><trkpt lat="45.28709007505514" lon="3.193069533462992"><ele>518.8333333333334</ele><time>2026-04-18T09:47:22.999Z</time></trkpt><trkpt lat="45.28705778571892" lon="3.192955621392569"><ele>517.0</ele><time>2026-04-18T09:47:25Z</time></trkpt><trkpt lat="45.28700763251653" lon="3.1928914197973604"><ele>516.6</ele><time>2026-04-18T09:47:27Z</time></trkpt><trkpt lat="45.286879726124944" lon="3.1929022705430876"><ele>516.2</ele><time>2026-04-18T09:47:29Z</time></trkpt><trkpt lat="45.286803663167156" lon="3.192908717379452"><ele>515.8</ele><time>2026-04-18T09:47:30Z</time></trkpt><trkpt lat="45.28671994765701" lon="3.1929080432168115"><ele>515.4</ele><time>2026-04-18T09:47:31Z</time></trkpt><trkpt lat="45.28662002636144" lon="3.1928812622520315"><ele>515.0</ele><time>2026-04-18T09:47:32Z</time></trkpt><trkpt lat="45.286499058693934" lon="3.192833881845676"><ele>514.75</ele><time>2026-04-18T09:47:33Z</time></trkpt><trkpt lat="45.286396758638176" lon="3.1928041070124324"><ele>514.5</ele><time>2026-04-18T09:47:34Z</time></trkpt><trkpt lat="45.286287164733956" lon="3.1927708047954293"><ele>514.25</ele><time>2026-04-18T09:47:35Z</time></trkpt><trkpt lat="45.2861707336768" lon="3.1927307831131357"><ele>514.0</ele><time>2026-04-18T09:47:36Z</time></trkpt><trkpt lat="45.28603883458525" lon="3.192686334408792"><ele>514.0</ele><time>2026-04-18T09:47:37Z</time></trkpt><trkpt lat="45.28589347582481" lon="3.192640258001587"><ele>514.0</ele><time>2026-04-18T09:47:38Z</time></trkpt><trkpt lat="45.28575033401596" lon="3.192594829647308"><ele>514.0</ele><time>2026-04-18T09:47:39Z</time></trkpt><trkpt lat="45.28560341742237" lon="3.1925479696403887"><ele>514.0</ele><time>2026-04-18T09:47:40Z</time></trkpt><trkpt lat="45.28545865833408" lon="3.1925025375725102"><ele>514.0</ele><time>2026-04-18T09:47:41Z</time></trkpt><trkpt lat="45.28529920581055" lon="3.192454002426141"><ele>514.0</ele><time>2026-04-18T09:47:42Z</time></trkpt><trkpt lat="45.285144219503515" lon="3.192405131051073"><ele>514.0</ele><time>2026-04-18T09:47:43Z</time></trkpt><trkpt lat="45.28497922498858" lon="3.192349640373381"><ele>514.0</ele><time>2026-04-18T09:47:44Z</time></trkpt><trkpt lat="45.28481713694635" lon="3.1922964809619327"><ele>514.0</ele><time>2026-04-18T09:47:45Z</time></trkpt><trkpt lat="45.2846561614211" lon="3.192242414205412"><ele>514.0</ele><time>2026-04-18T09:47:46Z</time></trkpt><trkpt lat="45.28448578846835" lon="3.192184007577682"><ele>513.6666666666667</ele><time>2026-04-18T09:47:47Z</time></trkpt><trkpt lat="45.28431434249869" lon="3.1921259316037993"><ele>513.3333333333334</ele><time>2026-04-18T09:47:48Z</time></trkpt><trkpt lat="45.28414602288239" lon="3.1920706057391124"><ele>513.0</ele><time>2026-04-18T09:47:49Z</time></trkpt><trkpt lat="45.2839672060646" lon="3.192009412874108"><ele>513.6666666666666</ele><time>2026-04-18T09:47:50Z</time></trkpt><trkpt lat="45.28378355267563" lon="3.1919436066361713"><ele>514.3333333333333</ele><time>2026-04-18T09:47:51Z</time></trkpt><trkpt lat="45.283615089416344" lon="3.191886693403572"><ele>515.0</ele><time>2026-04-18T09:47:52Z</time></trkpt><trkpt lat="45.28343661603345" lon="3.1918244927778683"><ele>515.0</ele><time>2026-04-18T09:47:53Z</time></trkpt><trkpt lat="45.28326251406576" lon="3.19176355847753"><ele>515.0</ele><time>2026-04-18T09:47:54Z</time></trkpt><trkpt lat="45.28311037422427" lon="3.19170952331324"><ele>515.0</ele><time>2026-04-18T09:47:55Z</time></trkpt><trkpt lat="45.282951112444565" lon="3.19164393005909"><ele>515.0</ele><time>2026-04-18T09:47:56Z</time></trkpt><trkpt lat="45.28280592286432" lon="3.191568351137955"><ele>515.0</ele><time>2026-04-18T09:47:57Z</time></trkpt><trkpt lat="45.28266784511585" lon="3.1914777908964345"><ele>515.0</ele><time>2026-04-18T09:47:58Z</time></trkpt><trkpt lat="45.28254556541554" lon="3.191396579140414"><ele>515.0</ele><time>2026-04-18T09:47:59Z</time></trkpt><trkpt lat="45.28241614476464" lon="3.1913299383776184"><ele>514.6666666666666</ele><time>2026-04-18T09:48:00Z</time></trkpt><trkpt lat="45.28227268480439" lon="3.1912784122168216"><ele>514.3333333333334</ele><time>2026-04-18T09:48:01Z</time></trkpt><trkpt lat="45.282119629285035" lon="3.191243778813485"><ele>514.0</ele><time>2026-04-18T09:48:02Z</time></trkpt><trkpt lat="45.2819478906418" lon="3.191237241130389"><ele>514.0</ele><time>2026-04-18T09:48:03Z</time></trkpt><trkpt lat="45.281782565159546" lon="3.191263835562928"><ele>514.0</ele><time>2026-04-18T09:48:04Z</time></trkpt><trkpt lat="45.28158578959328" lon="3.191308490644056"><ele>514.0</ele><time>2026-04-18T09:48:05Z</time></trkpt><trkpt lat="45.28139357509329" lon="3.191360121678821"><ele>513.3333333333334</ele><time>2026-04-18T09:48:06Z</time></trkpt><trkpt lat="45.281198904165066" lon="3.191404122411777"><ele>512.6666666666666</ele><time>2026-04-18T09:48:07Z</time></trkpt><trkpt lat="45.28098784234934" lon="3.1914440115675675"><ele>512.0</ele><time>2026-04-18T09:48:08Z</time></trkpt><trkpt lat="45.280779778906926" lon="3.1914813919982805"><ele>514.3333333333333</ele><time>2026-04-18T09:48:09Z</time></trkpt><trkpt lat="45.280567621208" lon="3.1915217368993725"><ele>516.6666666666666</ele><time>2026-04-18T09:48:10Z</time></trkpt><trkpt lat="45.28034715909559" lon="3.191567093385833"><ele>519.0</ele><time>2026-04-18T09:48:11Z</time></trkpt><trkpt lat="45.28013202259695" lon="3.1916107196385957"><ele>519.0</ele><time>2026-04-18T09:48:12Z</time></trkpt><trkpt lat="45.279924739674996" lon="3.191656688210728"><ele>519.0</ele><time>2026-04-18T09:48:13Z</time></trkpt><trkpt lat="45.27971367759863" lon="3.1916977896009104"><ele>519.0</ele><time>2026-04-18T09:48:14Z</time></trkpt><trkpt lat="45.27950187550166" lon="3.191741427405689"><ele>517.5</ele><time>2026-04-18T09:48:15Z</time></trkpt><trkpt lat="45.27928393311767" lon="3.1917877918876725"><ele>516.0</ele><time>2026-04-18T09:48:16Z</time></trkpt><trkpt lat="45.27905493631041" lon="3.1918322207444794"><ele>515.0</ele><time>2026-04-18T09:48:17Z</time></trkpt><trkpt lat="45.27884250684393" lon="3.1918779060658125"><ele>514.0</ele><time>2026-04-18T09:48:18Z</time></trkpt><trkpt lat="45.27861510043761" lon="3.1919222146956456"><ele>513.0</ele><time>2026-04-18T09:48:19Z</time></trkpt><trkpt lat="45.278389484493424" lon="3.1919691296530157"><ele>513.0</ele><time>2026-04-18T09:48:20Z</time></trkpt><trkpt lat="45.27816483391236" lon="3.1920163098849583"><ele>513.0</ele><time>2026-04-18T09:48:21Z</time></trkpt><trkpt lat="45.277951326889884" lon="3.192063529049042"><ele>513.0</ele><time>2026-04-18T09:48:22Z</time></trkpt><trkpt lat="45.27772679269224" lon="3.192105928525015"><ele>513.3333333333334</ele><time>2026-04-18T09:48:23Z</time></trkpt><trkpt lat="45.27750900694898" lon="3.1921481454331473"><ele>513.6666666666667</ele><time>2026-04-18T09:48:24Z</time></trkpt><trkpt lat="45.277282489038" lon="3.192189362496464"><ele>514.0</ele><time>2026-04-18T09:48:24.999Z</time></trkpt><trkpt lat="45.27706120861351" lon="3.192229609122281"><ele>515.0</ele><time>2026-04-18T09:48:25.999Z</time></trkpt><trkpt lat="45.2768416143853" lon="3.192271998963723"><ele>516.0</ele><time>2026-04-18T09:48:26.999Z</time></trkpt><trkpt lat="45.27662322850232" lon="3.1923150509716267"><ele>517.0</ele><time>2026-04-18T09:48:27.999Z</time></trkpt><trkpt lat="45.276401825922804" lon="3.192363021484431"><ele>518.3333333333334</ele><time>2026-04-18T09:48:28.999Z</time></trkpt><trkpt lat="45.27618257112955" lon="3.1924067579626434"><ele>519.6666666666666</ele><time>2026-04-18T09:48:29.999Z</time></trkpt><trkpt lat="45.27596824793701" lon="3.192450495208691"><ele>521.0</ele><time>2026-04-18T09:48:30.999Z</time></trkpt><trkpt lat="45.27575225734904" lon="3.192494724235997"><ele>520.3333333333333</ele><time>2026-04-18T09:48:31.999Z</time></trkpt><trkpt lat="45.275533136954294" lon="3.192538430696307"><ele>519.6666666666666</ele><time>2026-04-18T09:48:32.999Z</time></trkpt><trkpt lat="45.275322914502944" lon="3.192582089143822"><ele>519.0</ele><time>2026-04-18T09:48:33.999Z</time></trkpt><trkpt lat="45.275109054758936" lon="3.1926266497967237"><ele>519.0</ele><time>2026-04-18T09:48:34.999Z</time></trkpt><trkpt lat="45.27489559592851" lon="3.192669451313302"><ele>519.0</ele><time>2026-04-18T09:48:35.999Z</time></trkpt><trkpt lat="45.274686714703044" lon="3.192713802455464"><ele>519.0</ele><time>2026-04-18T09:48:36.999Z</time></trkpt><trkpt lat="45.2744754888154" lon="3.1927579034169646"><ele>519.0</ele><time>2026-04-18T09:48:37.999Z</time></trkpt><trkpt lat="45.27426158217661" lon="3.192805742899907"><ele>519.0</ele><time>2026-04-18T09:48:38.999Z</time></trkpt><trkpt lat="45.27405432118432" lon="3.192853472677469"><ele>519.0</ele><time>2026-04-18T09:48:39.999Z</time></trkpt><trkpt lat="45.27384555176476" lon="3.1928968053770856"><ele>519.0</ele><time>2026-04-18T09:48:40.999Z</time></trkpt><trkpt lat="45.27362861802114" lon="3.192939213385518"><ele>519.0</ele><time>2026-04-18T09:48:41.999Z</time></trkpt><trkpt lat="45.27321691874492" lon="3.1930222998876885"><ele>520.0</ele><time>2026-04-18T09:48:43.999Z</time></trkpt><trkpt lat="45.273005764271566" lon="3.1930643906580154"><ele>521.0</ele><time>2026-04-18T09:48:44.999Z</time></trkpt><trkpt lat="45.27279638424112" lon="3.1931023750136256"><ele>522.0</ele><time>2026-04-18T09:48:45.999Z</time></trkpt><trkpt lat="45.272594856313084" lon="3.1931402318245756"><ele>522.0</ele><time>2026-04-18T09:48:46.999Z</time></trkpt><trkpt lat="45.27238870360895" lon="3.193180903613738"><ele>522.0</ele><time>2026-04-18T09:48:47.999Z</time></trkpt><trkpt lat="45.27219056949071" lon="3.1932207052793737"><ele>522.0</ele><time>2026-04-18T09:48:48.999Z</time></trkpt><trkpt lat="45.27198143318212" lon="3.193263891465567"><ele>521.6666666666666</ele><time>2026-04-18T09:48:49.999Z</time></trkpt><trkpt lat="45.27178980389087" lon="3.1933053161077547"><ele>521.3333333333333</ele><time>2026-04-18T09:48:50.999Z</time></trkpt><trkpt lat="45.27160220942801" lon="3.1933488394458234"><ele>521.0</ele><time>2026-04-18T09:48:51.999Z</time></trkpt><trkpt lat="45.27144007007727" lon="3.1933832500556885"><ele>521.0</ele><time>2026-04-18T09:48:52.999Z</time></trkpt><trkpt lat="45.27129329518087" lon="3.193413746797643"><ele>521.0</ele><time>2026-04-18T09:48:53.999Z</time></trkpt><trkpt lat="45.27116186448724" lon="3.1934448537179803"><ele>521.0</ele><time>2026-04-18T09:48:54.999Z</time></trkpt><trkpt lat="45.271045375702116" lon="3.1934787125066038"><ele>521.0</ele><time>2026-04-18T09:48:55.999Z</time></trkpt><trkpt lat="45.270939776943415" lon="3.193507417248886"><ele>521.0</ele><time>2026-04-18T09:48:56.999Z</time></trkpt><trkpt lat="45.27084303149811" lon="3.193539786871319"><ele>521.0</ele><time>2026-04-18T09:48:57.999Z</time></trkpt><trkpt lat="45.27077513806382" lon="3.1935686570533792"><ele>521.0</ele><time>2026-04-18T09:48:58.999Z</time></trkpt><trkpt lat="45.2707131009825" lon="3.193587479340113"><ele>521.0</ele><time>2026-04-18T09:48:59.999Z</time></trkpt><trkpt lat="45.27064171866961" lon="3.193552546495647"><ele>521.0</ele><time>2026-04-18T09:49:01.999Z</time></trkpt><trkpt lat="45.27061782095424" lon="3.1934197502177013"><ele>521.0</ele><time>2026-04-18T09:49:02.999Z</time></trkpt><trkpt lat="45.27060949056594" lon="3.1932990916209256"><ele>521.2</ele><time>2026-04-18T09:49:03.999Z</time></trkpt><trkpt lat="45.27060776855255" lon="3.193166898130446"><ele>521.4000000000001</ele><time>2026-04-18T09:49:04.999Z</time></trkpt><trkpt lat="45.27060336344918" lon="3.1930363436585103"><ele>521.6</ele><time>2026-04-18T09:49:05.999Z</time></trkpt><trkpt lat="45.27059874189457" lon="3.1928795758980844"><ele>521.8000000000001</ele><time>2026-04-18T09:49:06.999Z</time></trkpt><trkpt lat="45.2705936763162" lon="3.1927356540232217"><ele>522.0</ele><time>2026-04-18T09:49:07.999Z</time></trkpt><trkpt lat="45.27059779768297" lon="3.192558692449075"><ele>522.0</ele><time>2026-04-18T09:49:08.999Z</time></trkpt><trkpt lat="45.270596710850164" lon="3.192394968427312"><ele>522.0</ele><time>2026-04-18T09:49:09.999Z</time></trkpt><trkpt lat="45.27059664712689" lon="3.192241365253082"><ele>522.0</ele><time>2026-04-18T09:49:10.999Z</time></trkpt><trkpt lat="45.27058965689784" lon="3.1920894499611"><ele>522.0</ele><time>2026-04-18T09:49:11.999Z</time></trkpt><trkpt lat="45.27058236803664" lon="3.1919323159202104"><ele>522.0</ele><time>2026-04-18T09:49:12.999Z</time></trkpt><trkpt lat="45.27057905831449" lon="3.1917721713217504"><ele>521.8333333333334</ele><time>2026-04-18T09:49:13.999Z</time></trkpt><trkpt lat="45.27057929892602" lon="3.191635122739216"><ele>521.6666666666666</ele><time>2026-04-18T09:49:14.999Z</time></trkpt><trkpt lat="45.270582762653106" lon="3.1915067196913163"><ele>521.5</ele><time>2026-04-18T09:49:15.999Z</time></trkpt><trkpt lat="45.27059144297218" lon="3.1913963126607006"><ele>521.3333333333333</ele><time>2026-04-18T09:49:16.999Z</time></trkpt><trkpt lat="45.27059944315123" lon="3.191278659309694"><ele>521.1666666666666</ele><time>2026-04-18T09:49:17.999Z</time></trkpt><trkpt lat="45.270602706226214" lon="3.191180171840487"><ele>521.0</ele><time>2026-04-18T09:49:18.999Z</time></trkpt><trkpt lat="45.27059015491435" lon="3.1910838862618216"><ele>521.6</ele><time>2026-04-18T09:49:20.999Z</time></trkpt><trkpt lat="45.27054817774884" lon="3.1909917001442714"><ele>522.2</ele><time>2026-04-18T09:50:02.999Z</time></trkpt><trkpt lat="45.27049200938901" lon="3.190852102544919"><ele>522.8</ele><time>2026-04-18T09:50:04.999Z</time></trkpt><trkpt lat="45.27042555964829" lon="3.190715909628797"><ele>523.4</ele><time>2026-04-18T09:50:06.999Z</time></trkpt><trkpt lat="45.27037329603585" lon="3.190615943390715"><ele>524.0</ele><time>2026-04-18T09:50:08.999Z</time></trkpt><trkpt lat="45.270334280865036" lon="3.1905418247513744"><ele>524.0</ele><time>2026-04-18T09:50:10.999Z</time></trkpt><trkpt lat="45.27029489586208" lon="3.1904670993344633"><ele>524.0</ele><time>2026-04-18T09:50:12.999Z</time></trkpt><trkpt lat="45.27016599352324" lon="3.1905860553451535"><ele>524.0</ele><time>2026-04-18T09:50:14.999Z</time></trkpt><trkpt lat="45.270129785398126" lon="3.190663701777655"><ele>524.0</ele><time>2026-04-18T09:50:15.999Z</time></trkpt><trkpt lat="45.27009163000351" lon="3.190743295552516"><ele>524.0</ele><time>2026-04-18T09:50:16.999Z</time></trkpt><trkpt lat="45.27004777152116" lon="3.1908229191971813"><ele>524.0</ele><time>2026-04-18T09:50:17.999Z</time></trkpt><trkpt lat="45.26999652645123" lon="3.190905446719626"><ele>524.0</ele><time>2026-04-18T09:50:18.999Z</time></trkpt><trkpt lat="45.269939761912426" lon="3.190983179802468"><ele>524.0</ele><time>2026-04-18T09:50:19.999Z</time></trkpt><trkpt lat="45.269866881099674" lon="3.1910561687894328"><ele>524.0</ele><time>2026-04-18T09:50:20.999Z</time></trkpt><trkpt lat="45.26976919669863" lon="3.1911172242468058"><ele>524.0</ele><time>2026-04-18T09:50:21.999Z</time></trkpt><trkpt lat="45.26964981236871" lon="3.1911727390254434"><ele>524.0</ele><time>2026-04-18T09:50:22.999Z</time></trkpt><trkpt lat="45.26952369463549" lon="3.1912272886139537"><ele>526.0</ele><time>2026-04-18T09:50:23.999Z</time></trkpt><trkpt lat="45.26943198204322" lon="3.1912592961599135"><ele>528.0</ele><time>2026-04-18T09:50:24.999Z</time></trkpt><trkpt lat="45.26931359141252" lon="3.1913092326324226"><ele>530.0</ele><time>2026-04-18T09:50:25.999Z</time></trkpt><trkpt lat="45.2691833265613" lon="3.1913567318136566"><ele>532.0</ele><time>2026-04-18T09:50:26.999Z</time></trkpt><trkpt lat="45.26905461029533" lon="3.1914049637275865"><ele>531.5</ele><time>2026-04-18T09:50:27.999Z</time></trkpt><trkpt lat="45.26892751811697" lon="3.1914579364668496"><ele>531.0</ele><time>2026-04-18T09:50:28.999Z</time></trkpt><trkpt lat="45.26879488616088" lon="3.191522898682059"><ele>530.5</ele><time>2026-04-18T09:50:29.999Z</time></trkpt><trkpt lat="45.268658284930645" lon="3.1915997536398004"><ele>530.0</ele><time>2026-04-18T09:50:30.999Z</time></trkpt><trkpt lat="45.26852595360773" lon="3.1916855846152403"><ele>530.0</ele><time>2026-04-18T09:50:31.999Z</time></trkpt><trkpt lat="45.268400488862476" lon="3.191773431217482"><ele>530.0</ele><time>2026-04-18T09:50:32.999Z</time></trkpt><trkpt lat="45.268282880231354" lon="3.191862338196252"><ele>530.0</ele><time>2026-04-18T09:50:33.999Z</time></trkpt><trkpt lat="45.268171363835215" lon="3.19196090775916"><ele>530.0</ele><time>2026-04-18T09:50:34.999Z</time></trkpt><trkpt lat="45.2680600162007" lon="3.1920709862377334"><ele>528.75</ele><time>2026-04-18T09:50:35.999Z</time></trkpt><trkpt lat="45.26795010873079" lon="3.1921753511919206"><ele>527.5</ele><time>2026-04-18T09:50:36.999Z</time></trkpt><trkpt lat="45.26783883531652" lon="3.192264792643833"><ele>526.25</ele><time>2026-04-18T09:50:37.999Z</time></trkpt><trkpt lat="45.267718345345564" lon="3.192337339061819"><ele>525.0</ele><time>2026-04-18T09:50:38.999Z</time></trkpt><trkpt lat="45.267594456100056" lon="3.192378689574003"><ele>525.0</ele><time>2026-04-18T09:50:39.999Z</time></trkpt><trkpt lat="45.26746974152053" lon="3.1923885836148997"><ele>525.0</ele><time>2026-04-18T09:50:40.999Z</time></trkpt><trkpt lat="45.2673367088203" lon="3.1923824327376127"><ele>525.0</ele><time>2026-04-18T09:50:41.999Z</time></trkpt><trkpt lat="45.26720359251445" lon="3.192367590017899"><ele>525.0</ele><time>2026-04-18T09:50:42.999Z</time></trkpt><trkpt lat="45.267058888618415" lon="3.192365336480706"><ele>525.0</ele><time>2026-04-18T09:50:43.999Z</time></trkpt><trkpt lat="45.26691328379504" lon="3.1923858187452145"><ele>525.0</ele><time>2026-04-18T09:50:44.999Z</time></trkpt><trkpt lat="45.266763589107896" lon="3.1924375373511538"><ele>525.0</ele><time>2026-04-18T09:50:45.999Z</time></trkpt><trkpt lat="45.266604098398616" lon="3.1925037507371496"><ele>525.0</ele><time>2026-04-18T09:50:46.999Z</time></trkpt><trkpt lat="45.266449374049614" lon="3.1925517612728713"><ele>525.0</ele><time>2026-04-18T09:50:47.999Z</time></trkpt><trkpt lat="45.266285208225035" lon="3.1925937260322748"><ele>525.0</ele><time>2026-04-18T09:50:48.999Z</time></trkpt><trkpt lat="45.266127578170305" lon="3.1926214567124047"><ele>525.25</ele><time>2026-04-18T09:50:49.999Z</time></trkpt><trkpt lat="45.26598357593607" lon="3.1926291484527844"><ele>525.5</ele><time>2026-04-18T09:50:50.999Z</time></trkpt><trkpt lat="45.265841803562274" lon="3.1926317145006156"><ele>525.75</ele><time>2026-04-18T09:50:51.999Z</time></trkpt><trkpt lat="45.26571399761683" lon="3.1926320525388436"><ele>526.0</ele><time>2026-04-18T09:50:52.999Z</time></trkpt><trkpt lat="45.26558235477849" lon="3.192605261558354"><ele>526.0</ele><time>2026-04-18T09:50:53.999Z</time></trkpt><trkpt lat="45.26545005735506" lon="3.1925453329266587"><ele>526.0</ele><time>2026-04-18T09:50:54.999Z</time></trkpt><trkpt lat="45.2653091520664" lon="3.192474930540472"><ele>526.0</ele><time>2026-04-18T09:50:55.999Z</time></trkpt><trkpt lat="45.26515549858688" lon="3.1924018767330993"><ele>529.0</ele><time>2026-04-18T09:50:56.999Z</time></trkpt><trkpt lat="45.265001617412125" lon="3.192325235886577"><ele>532.0</ele><time>2026-04-18T09:50:57.999Z</time></trkpt><trkpt lat="45.26484288976777" lon="3.192242738758183"><ele>535.0</ele><time>2026-04-18T09:50:58.999Z</time></trkpt><trkpt lat="45.26468168165612" lon="3.192163469324944"><ele>535.0</ele><time>2026-04-18T09:50:59.999Z</time></trkpt><trkpt lat="45.26451599109092" lon="3.192081143080729"><ele>535.0</ele><time>2026-04-18T09:51:00.999Z</time></trkpt><trkpt lat="45.26435253812536" lon="3.192002754497909"><ele>535.0</ele><time>2026-04-18T09:51:01.999Z</time></trkpt><trkpt lat="45.26418896230734" lon="3.1919320551050543"><ele>535.0</ele><time>2026-04-18T09:51:02.999Z</time></trkpt><trkpt lat="45.26403021480286" lon="3.191892975573313"><ele>535.0</ele><time>2026-04-18T09:51:03.999Z</time></trkpt><trkpt lat="45.263863848079524" lon="3.191858750975551"><ele>535.0</ele><time>2026-04-18T09:51:04.999Z</time></trkpt><trkpt lat="45.26368465420251" lon="3.1918196844492885"><ele>535.6666666666667</ele><time>2026-04-18T09:51:05.999Z</time></trkpt><trkpt lat="45.26351082403906" lon="3.1917792342000677"><ele>536.3333333333334</ele><time>2026-04-18T09:51:06.999Z</time></trkpt><trkpt lat="45.26334099379007" lon="3.191745970862565"><ele>537.0</ele><time>2026-04-18T09:51:07.999Z</time></trkpt><trkpt lat="45.26318531913377" lon="3.191725232350037"><ele>536.5</ele><time>2026-04-18T09:51:08.999Z</time></trkpt><trkpt lat="45.263039160690276" lon="3.1917224265306996"><ele>536.0</ele><time>2026-04-18T09:51:09.999Z</time></trkpt><trkpt lat="45.26291081636645" lon="3.191732923270447"><ele>535.5</ele><time>2026-04-18T09:51:10.999Z</time></trkpt><trkpt lat="45.26279725767524" lon="3.1917551850771373"><ele>535.0</ele><time>2026-04-18T09:51:11.999Z</time></trkpt><trkpt lat="45.262691440296294" lon="3.1917884712771807"><ele>535.0</ele><time>2026-04-18T09:51:12.999Z</time></trkpt><trkpt lat="45.26259161169268" lon="3.1918276646372155"><ele>535.0</ele><time>2026-04-18T09:51:13.999Z</time></trkpt><trkpt lat="45.26249187758328" lon="3.191863404632664"><ele>535.0</ele><time>2026-04-18T09:51:14.999Z</time></trkpt><trkpt lat="45.26237778294745" lon="3.191867351460356"><ele>535.0</ele><time>2026-04-18T09:51:15.999Z</time></trkpt><trkpt lat="45.26225233278166" lon="3.191848614958776"><ele>535.0</ele><time>2026-04-18T09:51:16.999Z</time></trkpt><trkpt lat="45.26211951207012" lon="3.191818795611232"><ele>534.75</ele><time>2026-04-18T09:51:17.999Z</time></trkpt><trkpt lat="45.261974463361334" lon="3.191789107684794"><ele>534.5</ele><time>2026-04-18T09:51:18.999Z</time></trkpt><trkpt lat="45.26183357728463" lon="3.1917680408646447"><ele>534.25</ele><time>2026-04-18T09:51:19.999Z</time></trkpt><trkpt lat="45.26169494995983" lon="3.19175125671059"><ele>534.0</ele><time>2026-04-18T09:51:20.999Z</time></trkpt><trkpt lat="45.261553341462445" lon="3.191729485264101"><ele>534.0</ele><time>2026-04-18T09:51:21.999Z</time></trkpt><trkpt lat="45.26141055604837" lon="3.191708572026864"><ele>534.0</ele><time>2026-04-18T09:51:22.999Z</time></trkpt><trkpt lat="45.261265664455564" lon="3.191689546750155"><ele>534.0</ele><time>2026-04-18T09:51:23.999Z</time></trkpt><trkpt lat="45.26113125641272" lon="3.191667321285488"><ele>534.0</ele><time>2026-04-18T09:51:24.999Z</time></trkpt><trkpt lat="45.260995984348106" lon="3.191647065615064"><ele>534.0</ele><time>2026-04-18T09:51:25.999Z</time></trkpt><trkpt lat="45.26086303478393" lon="3.19163504982159"><ele>534.0</ele><time>2026-04-18T09:51:26.999Z</time></trkpt><trkpt lat="45.26072450663738" lon="3.1916193276629627"><ele>534.0</ele><time>2026-04-18T09:51:27.999Z</time></trkpt><trkpt lat="45.260586555695966" lon="3.1915992713720485"><ele>534.0</ele><time>2026-04-18T09:51:28.999Z</time></trkpt><trkpt lat="45.26045160782333" lon="3.191572040074236"><ele>534.5</ele><time>2026-04-18T09:51:29.999Z</time></trkpt><trkpt lat="45.26032170268421" lon="3.191540559571637"><ele>535.0</ele><time>2026-04-18T09:51:30.999Z</time></trkpt><trkpt lat="45.260195054974155" lon="3.191491626514933"><ele>535.5</ele><time>2026-04-18T09:51:31.999Z</time></trkpt><trkpt lat="45.260074366523725" lon="3.1914305148480344"><ele>536.0</ele><time>2026-04-18T09:51:32.999Z</time></trkpt><trkpt lat="45.25994839135144" lon="3.19136900134693"><ele>537.75</ele><time>2026-04-18T09:51:33.999Z</time></trkpt><trkpt lat="45.259825212276816" lon="3.1913190408551673"><ele>539.5</ele><time>2026-04-18T09:51:34.999Z</time></trkpt><trkpt lat="45.259692338487135" lon="3.1912977921141357"><ele>541.25</ele><time>2026-04-18T09:51:35.999Z</time></trkpt><trkpt lat="45.259567364459706" lon="3.1912950892215064"><ele>543.0</ele><time>2026-04-18T09:51:36.999Z</time></trkpt><trkpt lat="45.25944218497115" lon="3.1913052939701116"><ele>543.25</ele><time>2026-04-18T09:51:37.999Z</time></trkpt><trkpt lat="45.25931812601568" lon="3.1913210571950152"><ele>543.5</ele><time>2026-04-18T09:51:38.999Z</time></trkpt><trkpt lat="45.25918998478153" lon="3.191341449741091"><ele>543.75</ele><time>2026-04-18T09:51:39.999Z</time></trkpt><trkpt lat="45.25905850107034" lon="3.191371285379365"><ele>544.0</ele><time>2026-04-18T09:51:40.999Z</time></trkpt><trkpt lat="45.25890789592147" lon="3.191405563232784"><ele>542.6666666666667</ele><time>2026-04-18T09:51:41.999Z</time></trkpt><trkpt lat="45.25875873749267" lon="3.1914439265483665"><ele>541.3333333333334</ele><time>2026-04-18T09:51:42.999Z</time></trkpt><trkpt lat="45.25859639309909" lon="3.191484331233769"><ele>540.0</ele><time>2026-04-18T09:51:43.999Z</time></trkpt><trkpt lat="45.258433044349545" lon="3.191524567345709"><ele>540.0</ele><time>2026-04-18T09:51:44.999Z</time></trkpt><trkpt lat="45.25826507351213" lon="3.1915629141841633"><ele>540.0</ele><time>2026-04-18T09:51:45.999Z</time></trkpt><trkpt lat="45.25809526586059" lon="3.191597718890124"><ele>540.0</ele><time>2026-04-18T09:51:46.999Z</time></trkpt><trkpt lat="45.257928540793586" lon="3.1916305605743718"><ele>539.0</ele><time>2026-04-18T09:51:47.999Z</time></trkpt><trkpt lat="45.25776087579365" lon="3.1916594288709863"><ele>538.0</ele><time>2026-04-18T09:51:48.999Z</time></trkpt><trkpt lat="45.25759150707957" lon="3.1916828013718797"><ele>537.0</ele><time>2026-04-18T09:51:49.999Z</time></trkpt><trkpt lat="45.25743134152452" lon="3.19170211134755"><ele>537.3333333333334</ele><time>2026-04-18T09:51:50.999Z</time></trkpt><trkpt lat="45.257263634599944" lon="3.1917307541036912"><ele>537.6666666666667</ele><time>2026-04-18T09:51:51.999Z</time></trkpt><trkpt lat="45.257108852995835" lon="3.1917419758088728"><ele>538.0</ele><time>2026-04-18T09:51:52.999Z</time></trkpt><trkpt lat="45.256941137181364" lon="3.1917696404151292"><ele>538.0</ele><time>2026-04-18T09:51:53.999Z</time></trkpt><trkpt lat="45.256784011716306" lon="3.1917875617628466"><ele>538.0</ele><time>2026-04-18T09:51:54.999Z</time></trkpt><trkpt lat="45.25662730445343" lon="3.191809214740335"><ele>538.0</ele><time>2026-04-18T09:51:55.999Z</time></trkpt><trkpt lat="45.25647247467202" lon="3.1918308033686333"><ele>538.6666666666667</ele><time>2026-04-18T09:51:56.999Z</time></trkpt><trkpt lat="45.25632036476944" lon="3.1918467485539166"><ele>539.3333333333334</ele><time>2026-04-18T09:51:57.999Z</time></trkpt><trkpt lat="45.25616733976625" lon="3.1918635934145336"><ele>540.0</ele><time>2026-04-18T09:51:58.999Z</time></trkpt><trkpt lat="45.25601159032049" lon="3.1918833279852357"><ele>540.0</ele><time>2026-04-18T09:51:59.999Z</time></trkpt><trkpt lat="45.25585579393901" lon="3.1919052674068147"><ele>540.0</ele><time>2026-04-18T09:52:00.999Z</time></trkpt><trkpt lat="45.255706584087925" lon="3.1919467109112523"><ele>540.0</ele><time>2026-04-18T09:52:01.999Z</time></trkpt><trkpt lat="45.25556717406335" lon="3.192017514284622"><ele>541.3333333333334</ele><time>2026-04-18T09:52:02.999Z</time></trkpt><trkpt lat="45.25543326742954" lon="3.192121728216632"><ele>542.6666666666667</ele><time>2026-04-18T09:52:03.999Z</time></trkpt><trkpt lat="45.25530893587866" lon="3.19226351507861"><ele>544.0</ele><time>2026-04-18T09:52:04.999Z</time></trkpt><trkpt lat="45.255190459884766" lon="3.1924136296937413"><ele>541.3333333333334</ele><time>2026-04-18T09:52:05.999Z</time></trkpt><trkpt lat="45.25506702348817" lon="3.1925459737041733"><ele>538.6666666666666</ele><time>2026-04-18T09:52:06.999Z</time></trkpt><trkpt lat="45.2549405878214" lon="3.192674565705637"><ele>536.0</ele><time>2026-04-18T09:52:07.999Z</time></trkpt><trkpt lat="45.254821934057844" lon="3.1927824740196433"><ele>535.75</ele><time>2026-04-18T09:52:08.999Z</time></trkpt><trkpt lat="45.25470835372637" lon="3.1928927444182844"><ele>535.5</ele><time>2026-04-18T09:52:09.999Z</time></trkpt><trkpt lat="45.25460337217337" lon="3.192982719578105"><ele>535.25</ele><time>2026-04-18T09:52:10.999Z</time></trkpt><trkpt lat="45.25450356021657" lon="3.1930774720356805"><ele>535.0</ele><time>2026-04-18T09:52:11.999Z</time></trkpt><trkpt lat="45.2544087108318" lon="3.193172690871354"><ele>535.0</ele><time>2026-04-18T09:52:12.999Z</time></trkpt><trkpt lat="45.254329981486585" lon="3.1932480244244186"><ele>535.0</ele><time>2026-04-18T09:52:13.999Z</time></trkpt><trkpt lat="45.25426370211912" lon="3.193309724952772"><ele>535.0</ele><time>2026-04-18T09:52:14.999Z</time></trkpt><trkpt lat="45.25420485883041" lon="3.193365835280082"><ele>535.0</ele><time>2026-04-18T09:52:15.999Z</time></trkpt><trkpt lat="45.2541397136954" lon="3.193429500978034"><ele>535.0</ele><time>2026-04-18T09:52:16.999Z</time></trkpt><trkpt lat="45.2540584165455" lon="3.1935074275919666"><ele>535.0</ele><time>2026-04-18T09:52:17.999Z</time></trkpt><trkpt lat="45.25397202908799" lon="3.193588074971429"><ele>535.5</ele><time>2026-04-18T09:52:18.999Z</time></trkpt><trkpt lat="45.25387384074479" lon="3.1936833075551077"><ele>536.0</ele><time>2026-04-18T09:52:19.999Z</time></trkpt><trkpt lat="45.25378328573305" lon="3.1937711396997153"><ele>536.5</ele><time>2026-04-18T09:52:20.999Z</time></trkpt><trkpt lat="45.25360834310131" lon="3.1939259255517225"><ele>537.0</ele><time>2026-04-18T09:52:22.999Z</time></trkpt><trkpt lat="45.25353399161507" lon="3.1939856203234585"><ele>536.8333333333334</ele><time>2026-04-18T09:52:23.999Z</time></trkpt><trkpt lat="45.25346280783036" lon="3.1940390293408085"><ele>536.6666666666666</ele><time>2026-04-18T09:52:24.999Z</time></trkpt><trkpt lat="45.25339311823789" lon="3.1940917364743653"><ele>536.5</ele><time>2026-04-18T09:52:25.999Z</time></trkpt><trkpt lat="45.25331601873798" lon="3.194132709551652"><ele>536.3333333333333</ele><time>2026-04-18T09:52:26.999Z</time></trkpt><trkpt lat="45.2532391107978" lon="3.194182300352326"><ele>536.1666666666666</ele><time>2026-04-18T09:52:27.999Z</time></trkpt><trkpt lat="45.25314363820399" lon="3.194223832682659"><ele>536.0</ele><time>2026-04-18T09:52:28.999Z</time></trkpt><trkpt lat="45.25304559385399" lon="3.194252638557345"><ele>535.8</ele><time>2026-04-18T09:52:29.999Z</time></trkpt><trkpt lat="45.25293799846288" lon="3.1942753892994498"><ele>535.6</ele><time>2026-04-18T09:52:30.999Z</time></trkpt><trkpt lat="45.252819527241144" lon="3.194290515042775"><ele>535.4</ele><time>2026-04-18T09:52:31.999Z</time></trkpt><trkpt lat="45.25270953795135" lon="3.1942866331460484"><ele>535.2</ele><time>2026-04-18T09:52:32.999Z</time></trkpt><trkpt lat="45.252600600999735" lon="3.194270863230632"><ele>535.0</ele><time>2026-04-18T09:52:33.999Z</time></trkpt><trkpt lat="45.25251095100964" lon="3.1942351916181257"><ele>535.0</ele><time>2026-04-18T09:52:34.999Z</time></trkpt><trkpt lat="45.252426294351146" lon="3.19419418666131"><ele>535.0</ele><time>2026-04-18T09:52:35.999Z</time></trkpt><trkpt lat="45.25234161932342" lon="3.1941533578599657"><ele>535.0</ele><time>2026-04-18T09:52:36.999Z</time></trkpt><trkpt lat="45.25224619845563" lon="3.194111442755739"><ele>535.0</ele><time>2026-04-18T09:52:37.999Z</time></trkpt><trkpt lat="45.252148218360844" lon="3.194073979116139"><ele>535.0</ele><time>2026-04-18T09:52:38.999Z</time></trkpt><trkpt lat="45.252030120267904" lon="3.19403307961128"><ele>535.75</ele><time>2026-04-18T09:52:39.999Z</time></trkpt><trkpt lat="45.25189825821874" lon="3.1939948630387147"><ele>536.5</ele><time>2026-04-18T09:52:40.999Z</time></trkpt><trkpt lat="45.251756760340406" lon="3.193959283326754"><ele>537.25</ele><time>2026-04-18T09:52:41.999Z</time></trkpt><trkpt lat="45.2516122390861" lon="3.1939176727328227"><ele>538.0</ele><time>2026-04-18T09:52:42.999Z</time></trkpt><trkpt lat="45.251489132976225" lon="3.1938772242285456"><ele>537.8</ele><time>2026-04-18T09:52:43.999Z</time></trkpt><trkpt lat="45.25137860008181" lon="3.1938248377889504"><ele>537.5999999999999</ele><time>2026-04-18T09:52:44.999Z</time></trkpt><trkpt lat="45.25128431962718" lon="3.1937631952186614"><ele>537.4000000000001</ele><time>2026-04-18T09:52:45.999Z</time></trkpt><trkpt lat="45.25121452840562" lon="3.1937043196255797"><ele>537.2</ele><time>2026-04-18T09:52:46.999Z</time></trkpt><trkpt lat="45.25117633086163" lon="3.1935308143374397"><ele>537.0</ele><time>2026-04-18T09:52:48.999Z</time></trkpt><trkpt lat="45.25120508837234" lon="3.1934331852710205"><ele>536.9999999999999</ele><time>2026-04-18T09:52:49.999Z</time></trkpt><trkpt lat="45.25125470035885" lon="3.1933406494386305"><ele>537.0</ele><time>2026-04-18T09:52:50.999Z</time></trkpt><trkpt lat="45.2512928323798" lon="3.193252845726216"><ele>537.0</ele><time>2026-04-18T09:52:51.999Z</time></trkpt><trkpt lat="45.25131485203967" lon="3.1931678614232806"><ele>537.0</ele><time>2026-04-18T09:52:52.999Z</time></trkpt><trkpt lat="45.251328909015406" lon="3.19306886283113"><ele>537.0</ele><time>2026-04-18T09:52:53.999Z</time></trkpt><trkpt lat="45.25133644294991" lon="3.192950460578065"><ele>536.9999999999999</ele><time>2026-04-18T09:52:54.999Z</time></trkpt><trkpt lat="45.25134039469209" lon="3.192852376726628"><ele>537.0</ele><time>2026-04-18T09:52:55.999Z</time></trkpt><trkpt lat="45.25137263059944" lon="3.1927090715840216"><ele>537.5</ele><time>2026-04-18T09:52:57.999Z</time></trkpt><trkpt lat="45.25139746816217" lon="3.192611388803875"><ele>538.0</ele><time>2026-04-18T09:52:59.999Z</time></trkpt><trkpt lat="45.251215002474765" lon="3.1924656939204397"><ele>538.5</ele><time>2026-04-18T09:53:01.999Z</time></trkpt><trkpt lat="45.251125295924226" lon="3.1924158073980973"><ele>539.0</ele><time>2026-04-18T09:53:02.999Z</time></trkpt><trkpt lat="45.25104391742021" lon="3.192368986615707"><ele>539.0</ele><time>2026-04-18T09:53:03.999Z</time></trkpt><trkpt lat="45.250941202547004" lon="3.1922959453683064"><ele>539.0</ele><time>2026-04-18T09:53:04.999Z</time></trkpt><trkpt lat="45.250863945989856" lon="3.1922341571729462"><ele>539.0</ele><time>2026-04-18T09:53:05.999Z</time></trkpt><trkpt lat="45.250776446368235" lon="3.1921706354958115"><ele>539.0</ele><time>2026-04-18T09:53:06.999Z</time></trkpt><trkpt lat="45.25069090061026" lon="3.192110974824912"><ele>539.0</ele><time>2026-04-18T09:53:07.999Z</time></trkpt><trkpt lat="45.250604365247575" lon="3.192047428077243"><ele>539.0</ele><time>2026-04-18T09:53:08.999Z</time></trkpt><trkpt lat="45.25052405057054" lon="3.191990213081301"><ele>539.0</ele><time>2026-04-18T09:53:09.999Z</time></trkpt><trkpt lat="45.250444536408416" lon="3.1919355317854534"><ele>539.0</ele><time>2026-04-18T09:53:10.999Z</time></trkpt><trkpt lat="45.2503772598001" lon="3.1918948020508817"><ele>539.0</ele><time>2026-04-18T09:53:11.999Z</time></trkpt><trkpt lat="45.250312813710195" lon="3.1918597846742456"><ele>539.0</ele><time>2026-04-18T09:53:12.999Z</time></trkpt><trkpt lat="45.2502105497174" lon="3.1918363063970157"><ele>539.0</ele><time>2026-04-18T09:53:14.999Z</time></trkpt><trkpt lat="45.25014798533288" lon="3.191877343321271"><ele>539.0</ele><time>2026-04-18T09:53:16.999Z</time></trkpt><trkpt lat="45.250137656464446" lon="3.192041161358822"><ele>539.0</ele><time>2026-04-18T09:53:25.999Z</time></trkpt><trkpt lat="45.25017509432392" lon="3.192126653826105"><ele>539.0</ele><time>2026-04-18T09:53:26.999Z</time></trkpt><trkpt lat="45.250216778473416" lon="3.192219032696587"><ele>539.0</ele><time>2026-04-18T09:53:27.999Z</time></trkpt><trkpt lat="45.250268494753854" lon="3.192330829219957"><ele>539.0</ele><time>2026-04-18T09:53:28.999Z</time></trkpt><trkpt lat="45.25032657617402" lon="3.1924454842915266"><ele>539.0</ele><time>2026-04-18T09:53:29.999Z</time></trkpt><trkpt lat="45.250381033155946" lon="3.1925799113290476"><ele>539.0</ele><time>2026-04-18T09:53:30.999Z</time></trkpt><trkpt lat="45.250430120218226" lon="3.1926923580273283"><ele>539.0</ele><time>2026-04-18T09:53:31.999Z</time></trkpt><trkpt lat="45.25047847484969" lon="3.1928165089767817"><ele>539.0</ele><time>2026-04-18T09:53:32.999Z</time></trkpt><trkpt lat="45.25052686562925" lon="3.19294888357818"><ele>539.0</ele><time>2026-04-18T09:53:33.999Z</time></trkpt><trkpt lat="45.25057340847375" lon="3.1930797394013957"><ele>538.8</ele><time>2026-04-18T09:53:34.999Z</time></trkpt><trkpt lat="45.25061366821984" lon="3.1932185338277868"><ele>538.5999999999999</ele><time>2026-04-18T09:53:35.999Z</time></trkpt><trkpt lat="45.250649287445945" lon="3.1933573670784705"><ele>538.4</ele><time>2026-04-18T09:53:36.999Z</time></trkpt><trkpt lat="45.25067693344794" lon="3.1935025564043187"><ele>538.1999999999999</ele><time>2026-04-18T09:53:37.999Z</time></trkpt><trkpt lat="45.250703973826" lon="3.193636559276974"><ele>538.0</ele><time>2026-04-18T09:53:38.999Z</time></trkpt><trkpt lat="45.25072752113733" lon="3.1937823595355934"><ele>538.0</ele><time>2026-04-18T09:53:39.999Z</time></trkpt><trkpt lat="45.25074786970787" lon="3.193930632534761"><ele>538.0</ele><time>2026-04-18T09:53:40.999Z</time></trkpt><trkpt lat="45.25076417548777" lon="3.194087495063662"><ele>538.0</ele><time>2026-04-18T09:53:41.999Z</time></trkpt><trkpt lat="45.25078327670624" lon="3.194240207472499"><ele>538.0</ele><time>2026-04-18T09:53:42.999Z</time></trkpt><trkpt lat="45.250796505058304" lon="3.1944008776548856"><ele>538.0</ele><time>2026-04-18T09:53:43.999Z</time></trkpt><trkpt lat="45.250811967858134" lon="3.1945644519940046"><ele>538.0</ele><time>2026-04-18T09:53:44.999Z</time></trkpt><trkpt lat="45.25082292153019" lon="3.194738278677624"><ele>538.0</ele><time>2026-04-18T09:53:45.999Z</time></trkpt><trkpt lat="45.250836505606166" lon="3.194914033929143"><ele>538.0</ele><time>2026-04-18T09:53:46.999Z</time></trkpt><trkpt lat="45.2508483905556" lon="3.1950812812437475"><ele>538.0</ele><time>2026-04-18T09:53:47.999Z</time></trkpt><trkpt lat="45.250857156530415" lon="3.195229076289677"><ele>538.1999999999999</ele><time>2026-04-18T09:53:48.999Z</time></trkpt><trkpt lat="45.25086675832765" lon="3.195348718633501"><ele>538.4</ele><time>2026-04-18T09:53:49.999Z</time></trkpt><trkpt lat="45.250877014181405" lon="3.1954652002414887"><ele>538.5999999999999</ele><time>2026-04-18T09:53:50.999Z</time></trkpt><trkpt lat="45.25086158821264" lon="3.1956196897538165"><ele>538.8</ele><time>2026-04-18T09:53:52.999Z</time></trkpt><trkpt lat="45.250804459204055" lon="3.195659911445621"><ele>539.0</ele><time>2026-04-18T09:53:53.999Z</time></trkpt><trkpt lat="45.25065168758127" lon="3.1956169710186155"><ele>539.2</ele><time>2026-04-18T09:53:55.999Z</time></trkpt><trkpt lat="45.250567089292254" lon="3.195579407998075"><ele>539.4</ele><time>2026-04-18T09:53:56.999Z</time></trkpt><trkpt lat="45.250468070423864" lon="3.1955398371312436"><ele>539.6</ele><time>2026-04-18T09:53:57.999Z</time></trkpt><trkpt lat="45.250364368689745" lon="3.1955020445133444"><ele>539.8</ele><time>2026-04-18T09:53:58.999Z</time></trkpt><trkpt lat="45.250273357120754" lon="3.195462774942602"><ele>540.0</ele><time>2026-04-18T09:53:59.999Z</time></trkpt><trkpt lat="45.250165642115064" lon="3.1954136185641437"><ele>540.0</ele><time>2026-04-18T09:54:00.999Z</time></trkpt><trkpt lat="45.25005793822056" lon="3.1953638257113766"><ele>540.0</ele><time>2026-04-18T09:54:01.999Z</time></trkpt><trkpt lat="45.24994554328472" lon="3.1953063220301203"><ele>540.0</ele><time>2026-04-18T09:54:02.999Z</time></trkpt><trkpt lat="45.2498452328843" lon="3.1952409208574912"><ele>540.0</ele><time>2026-04-18T09:54:03.999Z</time></trkpt><trkpt lat="45.24975494451125" lon="3.1951756552733777"><ele>540.0</ele><time>2026-04-18T09:54:04.999Z</time></trkpt><trkpt lat="45.249662321275764" lon="3.195098152708144"><ele>540.25</ele><time>2026-04-18T09:54:05.999Z</time></trkpt><trkpt lat="45.24956924470243" lon="3.1950236848632048"><ele>540.5</ele><time>2026-04-18T09:54:06.999Z</time></trkpt><trkpt lat="45.249471634276766" lon="3.1949430975290536"><ele>540.75</ele><time>2026-04-18T09:54:07.999Z</time></trkpt><trkpt lat="45.24937586986912" lon="3.1948562352822343"><ele>541.0</ele><time>2026-04-18T09:54:08.999Z</time></trkpt><trkpt lat="45.249275801177646" lon="3.194766539871537"><ele>541.0</ele><time>2026-04-18T09:54:09.999Z</time></trkpt><trkpt lat="45.24917820423317" lon="3.194682840797153"><ele>541.0</ele><time>2026-04-18T09:54:10.999Z</time></trkpt><trkpt lat="45.249085258067595" lon="3.194601755369649"><ele>541.0</ele><time>2026-04-18T09:54:11.999Z</time></trkpt><trkpt lat="45.249005084377124" lon="3.1945364655038144"><ele>541.0</ele><time>2026-04-18T09:54:12.999Z</time></trkpt><trkpt lat="45.24893004692848" lon="3.1944713913523928"><ele>541.0</ele><time>2026-04-18T09:54:13.999Z</time></trkpt><trkpt lat="45.24884989825408" lon="3.194398992957052"><ele>541.0</ele><time>2026-04-18T09:54:14.999Z</time></trkpt><trkpt lat="45.24877302679197" lon="3.1943295385007064"><ele>541.0</ele><time>2026-04-18T09:54:15.999Z</time></trkpt><trkpt lat="45.24867531108161" lon="3.194252888898776"><ele>541.0</ele><time>2026-04-18T09:54:16.999Z</time></trkpt><trkpt lat="45.248579611076785" lon="3.194170982249144"><ele>541.0</ele><time>2026-04-18T09:54:17.999Z</time></trkpt><trkpt lat="45.248477319143134" lon="3.1940800435905294"><ele>541.0</ele><time>2026-04-18T09:54:18.999Z</time></trkpt><trkpt lat="45.248379467309015" lon="3.1939822856086093"><ele>541.0</ele><time>2026-04-18T09:54:19.999Z</time></trkpt><trkpt lat="45.24828777192593" lon="3.1938981858493416"><ele>541.0</ele><time>2026-04-18T09:54:20.999Z</time></trkpt><trkpt lat="45.24820824383862" lon="3.193829155046949"><ele>541.0</ele><time>2026-04-18T09:54:21.999Z</time></trkpt><trkpt lat="45.24812616351145" lon="3.1937683962668983"><ele>541.0</ele><time>2026-04-18T09:54:22.999Z</time></trkpt><trkpt lat="45.248054891732146" lon="3.1937110587715987"><ele>541.0</ele><time>2026-04-18T09:54:23.999Z</time></trkpt><trkpt lat="45.247985149475255" lon="3.1936552270255527"><ele>541.5</ele><time>2026-04-18T09:54:24.999Z</time></trkpt><trkpt lat="45.24791680628539" lon="3.1936053334089434"><ele>542.0</ele><time>2026-04-18T09:54:25.999Z</time></trkpt><trkpt lat="45.24785084350206" lon="3.1935638244596096"><ele>542.5</ele><time>2026-04-18T09:54:26.999Z</time></trkpt><trkpt lat="45.2477893640739" lon="3.1935286698189835"><ele>543.0</ele><time>2026-04-18T09:54:27.999Z</time></trkpt><trkpt lat="45.247679575422794" lon="3.1934819862660477"><ele>543.5</ele><time>2026-04-18T09:54:29.999Z</time></trkpt><trkpt lat="45.24760777053547" lon="3.1934469311279905"><ele>544.0</ele><time>2026-04-18T09:54:30.999Z</time></trkpt><trkpt lat="45.24753576301005" lon="3.1934108636532823"><ele>544.0</ele><time>2026-04-18T09:54:31.999Z</time></trkpt><trkpt lat="45.24746587916401" lon="3.1933637286050045"><ele>544.0</ele><time>2026-04-18T09:54:32.999Z</time></trkpt><trkpt lat="45.2474029651382" lon="3.1933182839976344"><ele>544.0</ele><time>2026-04-18T09:54:33.999Z</time></trkpt><trkpt lat="45.24734547936578" lon="3.1932709191320927"><ele>544.0</ele><time>2026-04-18T09:54:34.999Z</time></trkpt><trkpt lat="45.247238770071206" lon="3.193177047863285"><ele>544.0</ele><time>2026-04-18T09:54:36.999Z</time></trkpt><trkpt lat="45.24717461203017" lon="3.1931206452505974"><ele>544.0</ele><time>2026-04-18T09:54:37.999Z</time></trkpt><trkpt lat="45.24711594955691" lon="3.193066159561763"><ele>544.0</ele><time>2026-04-18T09:54:38.999Z</time></trkpt><trkpt lat="45.247062627757586" lon="3.1930153766227276"><ele>544.0</ele><time>2026-04-18T09:54:39.999Z</time></trkpt><trkpt lat="45.24695806423738" lon="3.192899950818357"><ele>544.0</ele><time>2026-04-18T09:54:41.999Z</time></trkpt><trkpt lat="45.24690023744473" lon="3.192823190225386"><ele>544.0</ele><time>2026-04-18T09:54:42.999Z</time></trkpt><trkpt lat="45.24684440157833" lon="3.192744187012598"><ele>544.0</ele><time>2026-04-18T09:54:43.999Z</time></trkpt><trkpt lat="45.24679538729754" lon="3.192663200181449"><ele>544.0</ele><time>2026-04-18T09:54:44.999Z</time></trkpt><trkpt lat="45.24672131849376" lon="3.192526816752155"><ele>544.0</ele><time>2026-04-18T09:54:46.999Z</time></trkpt><trkpt lat="45.246636758067716" lon="3.1924740627753585"><ele>544.0</ele><time>2026-04-18T09:54:48.999Z</time></trkpt><trkpt lat="45.246515565784854" lon="3.1925265594678"><ele>544.0</ele><time>2026-04-18T09:54:50.999Z</time></trkpt><trkpt lat="45.24644902361279" lon="3.1925714158305465"><ele>544.0</ele><time>2026-04-18T09:54:51.999Z</time></trkpt><trkpt lat="45.24635732738447" lon="3.192590851263417"><ele>544.0</ele><time>2026-04-18T09:54:52.999Z</time></trkpt><trkpt lat="45.246265338026525" lon="3.1925665818967377"><ele>543.8</ele><time>2026-04-18T09:54:53.999Z</time></trkpt><trkpt lat="45.24616581834799" lon="3.1925015666840952"><ele>543.5999999999999</ele><time>2026-04-18T09:54:54.999Z</time></trkpt><trkpt lat="45.246074345224564" lon="3.192444457913448"><ele>543.4</ele><time>2026-04-18T09:54:55.999Z</time></trkpt><trkpt lat="45.24597603873973" lon="3.192374458640975"><ele>543.1999999999999</ele><time>2026-04-18T09:54:56.999Z</time></trkpt><trkpt lat="45.24587479832663" lon="3.1922978063710357"><ele>543.0</ele><time>2026-04-18T09:54:57.999Z</time></trkpt><trkpt lat="45.2457788826955" lon="3.192223747991477"><ele>543.0</ele><time>2026-04-18T09:54:58.999Z</time></trkpt><trkpt lat="45.24568407916522" lon="3.192158717116438"><ele>543.0</ele><time>2026-04-18T09:54:59.999Z</time></trkpt><trkpt lat="45.24558954692172" lon="3.192096458648416"><ele>543.0</ele><time>2026-04-18T09:55:00.999Z</time></trkpt><trkpt lat="45.24548876144896" lon="3.1920224100549084"><ele>543.0</ele><time>2026-04-18T09:55:01.999Z</time></trkpt><trkpt lat="45.245389094847106" lon="3.1919490646842723"><ele>543.0</ele><time>2026-04-18T09:55:02.999Z</time></trkpt><trkpt lat="45.245286059930024" lon="3.1918714224130436"><ele>542.8</ele><time>2026-04-18T09:55:03.999Z</time></trkpt><trkpt lat="45.2451826997137" lon="3.1917896198317974"><ele>542.5999999999999</ele><time>2026-04-18T09:55:04.999Z</time></trkpt><trkpt lat="45.245081729759185" lon="3.191712540313735"><ele>542.4000000000001</ele><time>2026-04-18T09:55:05.999Z</time></trkpt><trkpt lat="45.24499141732021" lon="3.1916420871681663"><ele>542.2</ele><time>2026-04-18T09:55:06.999Z</time></trkpt><trkpt lat="45.2449002476212" lon="3.1915732256652767"><ele>542.0</ele><time>2026-04-18T09:55:07.999Z</time></trkpt><trkpt lat="45.24480098522316" lon="3.1914954437643415"><ele>543.2</ele><time>2026-04-18T09:55:08.999Z</time></trkpt><trkpt lat="45.244715151763685" lon="3.191425396952143"><ele>544.4000000000001</ele><time>2026-04-18T09:55:09.999Z</time></trkpt><trkpt lat="45.24463069264769" lon="3.1913559405654253"><ele>545.5999999999999</ele><time>2026-04-18T09:55:10.999Z</time></trkpt><trkpt lat="45.24454125938611" lon="3.191279861982626"><ele>546.8</ele><time>2026-04-18T09:55:11.999Z</time></trkpt><trkpt lat="45.244440172271375" lon="3.1911936441649704"><ele>548.0</ele><time>2026-04-18T09:55:12.999Z</time></trkpt><trkpt lat="45.24434163416936" lon="3.1911029681733805"><ele>548.0</ele><time>2026-04-18T09:55:13.999Z</time></trkpt><trkpt lat="45.24424619667921" lon="3.1909937393802204"><ele>548.0</ele><time>2026-04-18T09:55:14.999Z</time></trkpt><trkpt lat="45.244170153058924" lon="3.190883565871646"><ele>548.0</ele><time>2026-04-18T09:55:15.999Z</time></trkpt><trkpt lat="45.244094472050804" lon="3.1907740108525733"><ele>548.0</ele><time>2026-04-18T09:55:16.999Z</time></trkpt><trkpt lat="45.24402027574741" lon="3.19066060371488"><ele>548.0</ele><time>2026-04-18T09:55:17.999Z</time></trkpt><trkpt lat="45.24394330732938" lon="3.1905591889935465"><ele>550.1999999999999</ele><time>2026-04-18T09:55:18.999Z</time></trkpt><trkpt lat="45.24385716504344" lon="3.1904668277406496"><ele>552.4</ele><time>2026-04-18T09:55:19.999Z</time></trkpt><trkpt lat="45.2437717295703" lon="3.190377791651087"><ele>554.5999999999999</ele><time>2026-04-18T09:55:20.999Z</time></trkpt><trkpt lat="45.24367880957143" lon="3.1902814511042195"><ele>556.8</ele><time>2026-04-18T09:55:21.999Z</time></trkpt><trkpt lat="45.24358807103981" lon="3.190179220559546"><ele>559.0</ele><time>2026-04-18T09:55:22.999Z</time></trkpt><trkpt lat="45.2435074725419" lon="3.190060174916725"><ele>559.0</ele><time>2026-04-18T09:55:23.999Z</time></trkpt><trkpt lat="45.243420451986836" lon="3.1899338903359964"><ele>559.0</ele><time>2026-04-18T09:55:24.999Z</time></trkpt><trkpt lat="45.24334154213221" lon="3.1898047402082566"><ele>559.0</ele><time>2026-04-18T09:55:25.999Z</time></trkpt><trkpt lat="45.24325628629692" lon="3.1896711096902437"><ele>559.0</ele><time>2026-04-18T09:55:26.999Z</time></trkpt><trkpt lat="45.24317104244241" lon="3.1895335558619813"><ele>558.5</ele><time>2026-04-18T09:55:27.999Z</time></trkpt><trkpt lat="45.24309065148972" lon="3.1894004777853735"><ele>558.0</ele><time>2026-04-18T09:55:28.999Z</time></trkpt><trkpt lat="45.24301451443723" lon="3.18926569116619"><ele>557.5</ele><time>2026-04-18T09:55:29.999Z</time></trkpt><trkpt lat="45.2429326795329" lon="3.189130795643892"><ele>557.0</ele><time>2026-04-18T09:55:30.999Z</time></trkpt><trkpt lat="45.24285400702632" lon="3.1889998702716684"><ele>557.0</ele><time>2026-04-18T09:55:31.999Z</time></trkpt><trkpt lat="45.24278056464888" lon="3.188879587513701"><ele>557.0</ele><time>2026-04-18T09:55:32.999Z</time></trkpt><trkpt lat="45.24270171370668" lon="3.1887541652090903"><ele>557.0</ele><time>2026-04-18T09:55:33.999Z</time></trkpt><trkpt lat="45.24262156105446" lon="3.1886357467036377"><ele>557.0</ele><time>2026-04-18T09:55:34.999Z</time></trkpt><trkpt lat="45.24253135642831" lon="3.1885315145021274"><ele>557.0</ele><time>2026-04-18T09:55:35.999Z</time></trkpt><trkpt lat="45.24243245040989" lon="3.188431501835296"><ele>557.0</ele><time>2026-04-18T09:55:36.999Z</time></trkpt><trkpt lat="45.242329681391304" lon="3.188330712973779"><ele>557.0</ele><time>2026-04-18T09:55:37.999Z</time></trkpt><trkpt lat="45.2422369925021" lon="3.1882162223518344"><ele>557.0</ele><time>2026-04-18T09:55:38.999Z</time></trkpt><trkpt lat="45.24215631840262" lon="3.1880883157721107"><ele>560.0</ele><time>2026-04-18T09:55:39.999Z</time></trkpt><trkpt lat="45.24209075921316" lon="3.1879578753238946"><ele>563.0</ele><time>2026-04-18T09:55:40.999Z</time></trkpt><trkpt lat="45.24202794440314" lon="3.187821079396858"><ele>566.0</ele><time>2026-04-18T09:55:41.999Z</time></trkpt><trkpt lat="45.241974526630706" lon="3.187687949233273"><ele>569.0</ele><time>2026-04-18T09:55:42.999Z</time></trkpt><trkpt lat="45.241920370265326" lon="3.1875429594286477"><ele>569.0</ele><time>2026-04-18T09:55:43.999Z</time></trkpt><trkpt lat="45.24187839456854" lon="3.187402385688369"><ele>569.0</ele><time>2026-04-18T09:55:44.999Z</time></trkpt><trkpt lat="45.241848281593924" lon="3.1872374491878177"><ele>569.0</ele><time>2026-04-18T09:55:45.999Z</time></trkpt><trkpt lat="45.241822964351385" lon="3.18708376944089"><ele>569.0</ele><time>2026-04-18T09:55:46.999Z</time></trkpt><trkpt lat="45.241794094930775" lon="3.18693075812592"><ele>566.8</ele><time>2026-04-18T09:55:47.999Z</time></trkpt><trkpt lat="45.241763982203786" lon="3.1867845483330357"><ele>564.5999999999999</ele><time>2026-04-18T09:55:48.999Z</time></trkpt><trkpt lat="45.24173074454144" lon="3.186644329652071"><ele>562.4</ele><time>2026-04-18T09:55:49.999Z</time></trkpt><trkpt lat="45.24169614341127" lon="3.186506313868338"><ele>560.1999999999999</ele><time>2026-04-18T09:55:50.999Z</time></trkpt><trkpt lat="45.2416673280224" lon="3.186387747374721"><ele>558.0</ele><time>2026-04-18T09:55:51.999Z</time></trkpt><trkpt lat="45.241637071780914" lon="3.186256496219446"><ele>557.0</ele><time>2026-04-18T09:55:52.999Z</time></trkpt><trkpt lat="45.241604307077026" lon="3.186121485349393"><ele>556.0</ele><time>2026-04-18T09:55:53.999Z</time></trkpt><trkpt lat="45.24157485204795" lon="3.1859939835531925"><ele>555.0</ele><time>2026-04-18T09:55:54.999Z</time></trkpt><trkpt lat="45.24155194648276" lon="3.1858735999911856"><ele>554.0</ele><time>2026-04-18T09:55:55.999Z</time></trkpt><trkpt lat="45.24152048802091" lon="3.1857617819292687"><ele>553.0</ele><time>2026-04-18T09:55:56.999Z</time></trkpt><trkpt lat="45.241488629669725" lon="3.1856471750123045"><ele>552.8</ele><time>2026-04-18T09:55:57.999Z</time></trkpt><trkpt lat="45.2414450635264" lon="3.1855412288951457"><ele>552.5999999999999</ele><time>2026-04-18T09:55:58.999Z</time></trkpt><trkpt lat="45.241384271189894" lon="3.185447162123178"><ele>552.4000000000001</ele><time>2026-04-18T09:55:59.999Z</time></trkpt><trkpt lat="45.241320794372555" lon="3.185344687729861"><ele>552.2</ele><time>2026-04-18T09:56:00.999Z</time></trkpt><trkpt lat="45.241269800554434" lon="3.185225089759277"><ele>552.0</ele><time>2026-04-18T09:56:01.999Z</time></trkpt><trkpt lat="45.24122979987281" lon="3.1850896955683115"><ele>552.0</ele><time>2026-04-18T09:56:02.999Z</time></trkpt><trkpt lat="45.241215881841" lon="3.1849653961632653"><ele>552.0</ele><time>2026-04-18T09:56:03.999Z</time></trkpt><trkpt lat="45.241201983848846" lon="3.184838315928146"><ele>552.0</ele><time>2026-04-18T09:56:04.999Z</time></trkpt><trkpt lat="45.24117847763389" lon="3.1847293525485236"><ele>552.0</ele><time>2026-04-18T09:56:05.999Z</time></trkpt><trkpt lat="45.24115179849805" lon="3.1846301383043825"><ele>552.0</ele><time>2026-04-18T09:56:06.999Z</time></trkpt><trkpt lat="45.24112432424102" lon="3.184535749122655"><ele>552.0</ele><time>2026-04-18T09:56:07.999Z</time></trkpt><trkpt lat="45.24110341117455" lon="3.184447387438541"><ele>551.6</ele><time>2026-04-18T09:56:08.999Z</time></trkpt><trkpt lat="45.24107571150547" lon="3.1842870878933307"><ele>551.2</ele><time>2026-04-18T09:56:10.999Z</time></trkpt><trkpt lat="45.24110726213877" lon="3.184124005699251"><ele>550.8</ele><time>2026-04-18T09:56:12.999Z</time></trkpt><trkpt lat="45.241146233695844" lon="3.1840409107665493"><ele>550.4</ele><time>2026-04-18T09:56:13.999Z</time></trkpt><trkpt lat="45.24118724182247" lon="3.183949178410715"><ele>550.0</ele><time>2026-04-18T09:56:14.999Z</time></trkpt><trkpt lat="45.24123131716988" lon="3.183834459505272"><ele>550.0</ele><time>2026-04-18T09:56:15.999Z</time></trkpt><trkpt lat="45.24126357187605" lon="3.183723370829938"><ele>550.0</ele><time>2026-04-18T09:56:16.999Z</time></trkpt><trkpt lat="45.241295987389876" lon="3.183610090096448"><ele>550.0</ele><time>2026-04-18T09:56:17.999Z</time></trkpt><trkpt lat="45.241333167018134" lon="3.1835015793827544"><ele>550.0</ele><time>2026-04-18T09:56:18.999Z</time></trkpt><trkpt lat="45.24138005505291" lon="3.1833984966371514"><ele>550.0</ele><time>2026-04-18T09:56:19.999Z</time></trkpt><trkpt lat="45.2414469042628" lon="3.183315993192812"><ele>550.0</ele><time>2026-04-18T09:56:20.999Z</time></trkpt><trkpt lat="45.241532905383345" lon="3.1833000608683166"><ele>550.0</ele><time>2026-04-18T09:56:21.999Z</time></trkpt><trkpt lat="45.24161234500976" lon="3.1832785689627587"><ele>550.0</ele><time>2026-04-18T09:56:22.999Z</time></trkpt><trkpt lat="45.2417158845467" lon="3.1832312595947267"><ele>550.0</ele><time>2026-04-18T09:56:24.999Z</time></trkpt><trkpt lat="45.24176006302859" lon="3.183050840479553"><ele>550.0</ele><time>2026-04-18T09:56:26.999Z</time></trkpt><trkpt lat="45.2417527140259" lon="3.182934314536444"><ele>550.0</ele><time>2026-04-18T09:56:27.999Z</time></trkpt><trkpt lat="45.24172604185889" lon="3.1828085717038137"><ele>551.0</ele><time>2026-04-18T09:56:28.999Z</time></trkpt><trkpt lat="45.24162565644651" lon="3.1826946054791714"><ele>552.0</ele><time>2026-04-18T09:56:29.999Z</time></trkpt><trkpt lat="45.24151543724766" lon="3.1825774630906123"><ele>553.0</ele><time>2026-04-18T09:56:30.999Z</time></trkpt><trkpt lat="45.24142229970691" lon="3.1824689988021584"><ele>554.0</ele><time>2026-04-18T09:56:31.999Z</time></trkpt><trkpt lat="45.24134597505983" lon="3.1823839714262125"><ele>556.0</ele><time>2026-04-18T09:56:32.999Z</time></trkpt><trkpt lat="45.24127434675588" lon="3.182309813188153"><ele>558.0</ele><time>2026-04-18T09:56:33.999Z</time></trkpt><trkpt lat="45.24120401913806" lon="3.182241486654881"><ele>560.0</ele><time>2026-04-18T09:56:34.999Z</time></trkpt><trkpt lat="45.241134917396685" lon="3.182181131229656"><ele>562.0</ele><time>2026-04-18T09:56:35.999Z</time></trkpt><trkpt lat="45.24106240176624" lon="3.1821241557426263"><ele>564.0</ele><time>2026-04-18T09:56:36.999Z</time></trkpt><trkpt lat="45.24097018250781" lon="3.182060665291789"><ele>566.0</ele><time>2026-04-18T09:56:37.999Z</time></trkpt><trkpt lat="45.24086996594238" lon="3.181997208493905"><ele>566.0</ele><time>2026-04-18T09:56:38.999Z</time></trkpt><trkpt lat="45.24077528159602" lon="3.1819318610109932"><ele>566.0</ele><time>2026-04-18T09:56:39.999Z</time></trkpt><trkpt lat="45.24067600180549" lon="3.181849307254714"><ele>566.0</ele><time>2026-04-18T09:56:40.999Z</time></trkpt><trkpt lat="45.24057511588335" lon="3.1817536294095876"><ele>566.0</ele><time>2026-04-18T09:56:41.999Z</time></trkpt><trkpt lat="45.240469194002785" lon="3.1816586034184864"><ele>565.75</ele><time>2026-04-18T09:56:42.999Z</time></trkpt><trkpt lat="45.24036360421437" lon="3.1815543800384334"><ele>565.5</ele><time>2026-04-18T09:56:43.999Z</time></trkpt><trkpt lat="45.24026024132803" lon="3.181447094200097"><ele>565.25</ele><time>2026-04-18T09:56:44.999Z</time></trkpt><trkpt lat="45.24015996616799" lon="3.1813428553165077"><ele>565.0</ele><time>2026-04-18T09:56:45.999Z</time></trkpt><trkpt lat="45.2400726387882" lon="3.1812471264279196"><ele>565.0</ele><time>2026-04-18T09:56:46.999Z</time></trkpt><trkpt lat="45.239990633402385" lon="3.18115681594408"><ele>565.0</ele><time>2026-04-18T09:56:47.999Z</time></trkpt><trkpt lat="45.239906290559325" lon="3.1810481698012008"><ele>565.0</ele><time>2026-04-18T09:56:48.999Z</time></trkpt><trkpt lat="45.239823607325086" lon="3.180921969302123"><ele>565.0</ele><time>2026-04-18T09:56:49.999Z</time></trkpt><trkpt lat="45.23974590988474" lon="3.180800425476828"><ele>565.25</ele><time>2026-04-18T09:56:50.999Z</time></trkpt><trkpt lat="45.23966931111642" lon="3.180664268686876"><ele>565.5</ele><time>2026-04-18T09:56:51.999Z</time></trkpt><trkpt lat="45.23959328551457" lon="3.180524216211099"><ele>565.75</ele><time>2026-04-18T09:56:52.999Z</time></trkpt><trkpt lat="45.2395211562523" lon="3.1803710667155127"><ele>566.0</ele><time>2026-04-18T09:56:53.999Z</time></trkpt><trkpt lat="45.239460085601074" lon="3.180217764249858"><ele>566.0</ele><time>2026-04-18T09:56:54.999Z</time></trkpt><trkpt lat="45.23940044319143" lon="3.180081021459753"><ele>566.0</ele><time>2026-04-18T09:56:55.999Z</time></trkpt><trkpt lat="45.23933230058991" lon="3.1799609584390813"><ele>566.0</ele><time>2026-04-18T09:56:56.999Z</time></trkpt><trkpt lat="45.23925191207668" lon="3.1798442713533603"><ele>566.0</ele><time>2026-04-18T09:56:57.999Z</time></trkpt><trkpt lat="45.239161460148765" lon="3.1797441788154956"><ele>565.0</ele><time>2026-04-18T09:56:58.999Z</time></trkpt><trkpt lat="45.23905567839071" lon="3.1796438454936746"><ele>564.0</ele><time>2026-04-18T09:56:59.999Z</time></trkpt><trkpt lat="45.23895985405" lon="3.179554642486737"><ele>563.0</ele><time>2026-04-18T09:57:00.999Z</time></trkpt><trkpt lat="45.23886196575098" lon="3.179453686332198"><ele>562.0</ele><time>2026-04-18T09:57:01.999Z</time></trkpt><trkpt lat="45.23876843646459" lon="3.179341006699673"><ele>562.0</ele><time>2026-04-18T09:57:02.999Z</time></trkpt><trkpt lat="45.23867634175471" lon="3.1792167284531487"><ele>562.0</ele><time>2026-04-18T09:57:03.999Z</time></trkpt><trkpt lat="45.238598690016346" lon="3.179093221634228"><ele>562.0</ele><time>2026-04-18T09:57:04.999Z</time></trkpt><trkpt lat="45.238535572542084" lon="3.178980143925093"><ele>562.0</ele><time>2026-04-18T09:57:05.999Z</time></trkpt><trkpt lat="45.238477290133275" lon="3.1788657706071564"><ele>562.0</ele><time>2026-04-18T09:57:06.999Z</time></trkpt><trkpt lat="45.23842511085597" lon="3.1787525765124527"><ele>561.4</ele><time>2026-04-18T09:57:07.999Z</time></trkpt><trkpt lat="45.238375835936516" lon="3.17865120169291"><ele>560.8000000000001</ele><time>2026-04-18T09:57:08.999Z</time></trkpt><trkpt lat="45.23831706729313" lon="3.1785412309569208"><ele>560.2</ele><time>2026-04-18T09:57:09.999Z</time></trkpt><trkpt lat="45.23824217291085" lon="3.1784247465864417"><ele>559.6</ele><time>2026-04-18T09:57:10.999Z</time></trkpt><trkpt lat="45.23815742014419" lon="3.17832206670561"><ele>559.0</ele><time>2026-04-18T09:57:11.999Z</time></trkpt><trkpt lat="45.23806890175808" lon="3.1782292866537207"><ele>561.0</ele><time>2026-04-18T09:57:12.999Z</time></trkpt><trkpt lat="45.23797812587598" lon="3.1781364242582866"><ele>563.0</ele><time>2026-04-18T09:57:13.999Z</time></trkpt><trkpt lat="45.23788973580062" lon="3.1780348697887852"><ele>565.0</ele><time>2026-04-18T09:57:14.999Z</time></trkpt><trkpt lat="45.23781062850031" lon="3.1779207055602194"><ele>567.0</ele><time>2026-04-18T09:57:15.999Z</time></trkpt><trkpt lat="45.23773416116233" lon="3.177803241912779"><ele>567.0</ele><time>2026-04-18T09:57:16.999Z</time></trkpt><trkpt lat="45.23765510510246" lon="3.17768436426879"><ele>567.0</ele><time>2026-04-18T09:57:17.999Z</time></trkpt><trkpt lat="45.23756798056315" lon="3.177566741499671"><ele>567.0</ele><time>2026-04-18T09:57:18.999Z</time></trkpt><trkpt lat="45.23747432404442" lon="3.1774506609049884"><ele>567.0</ele><time>2026-04-18T09:57:19.999Z</time></trkpt><trkpt lat="45.23737998942366" lon="3.17734594079391"><ele>567.0</ele><time>2026-04-18T09:57:20.999Z</time></trkpt><trkpt lat="45.23728591731453" lon="3.1772456671610247"><ele>567.0</ele><time>2026-04-18T09:57:21.999Z</time></trkpt><trkpt lat="45.23720335708702" lon="3.177158345146493"><ele>567.0</ele><time>2026-04-18T09:57:22.999Z</time></trkpt><trkpt lat="45.23713286182494" lon="3.1770850307072753"><ele>567.0</ele><time>2026-04-18T09:57:23.999Z</time></trkpt><trkpt lat="45.237067406085686" lon="3.1770176012003617"><ele>567.0</ele><time>2026-04-18T09:57:24.999Z</time></trkpt><trkpt lat="45.23700343000411" lon="3.176958643056965"><ele>567.0</ele><time>2026-04-18T09:57:25.999Z</time></trkpt><trkpt lat="45.236923531218636" lon="3.176882510866359"><ele>567.0</ele><time>2026-04-18T09:57:26.999Z</time></trkpt><trkpt lat="45.23682624411583" lon="3.1767886059188233"><ele>567.0</ele><time>2026-04-18T09:57:27.999Z</time></trkpt><trkpt lat="45.23671389715737" lon="3.176701093938267"><ele>567.0</ele><time>2026-04-18T09:57:28.999Z</time></trkpt><trkpt lat="45.236593694997744" lon="3.176593200112852"><ele>566.75</ele><time>2026-04-18T09:57:29.999Z</time></trkpt><trkpt lat="45.23647248204138" lon="3.1764688677693766"><ele>566.5</ele><time>2026-04-18T09:57:30.999Z</time></trkpt><trkpt lat="45.23636199818239" lon="3.1763374031634934"><ele>566.25</ele><time>2026-04-18T09:57:31.999Z</time></trkpt><trkpt lat="45.23626181428243" lon="3.176204665021146"><ele>566.0</ele><time>2026-04-18T09:57:32.999Z</time></trkpt><trkpt lat="45.23615672504995" lon="3.1760594407219798"><ele>566.0</ele><time>2026-04-18T09:57:33.999Z</time></trkpt><trkpt lat="45.23606302168015" lon="3.1759226796666904"><ele>566.0</ele><time>2026-04-18T09:57:34.999Z</time></trkpt><trkpt lat="45.23597986346959" lon="3.1757897537158755"><ele>566.0</ele><time>2026-04-18T09:57:35.999Z</time></trkpt><trkpt lat="45.235906176455515" lon="3.175655352007521"><ele>566.0</ele><time>2026-04-18T09:57:36.999Z</time></trkpt><trkpt lat="45.235850262178126" lon="3.1755167549542835"><ele>567.25</ele><time>2026-04-18T09:57:37.999Z</time></trkpt><trkpt lat="45.235811427033084" lon="3.175362210057982"><ele>568.5</ele><time>2026-04-18T09:57:38.999Z</time></trkpt><trkpt lat="45.23578720301419" lon="3.175186494556169"><ele>569.75</ele><time>2026-04-18T09:57:39.999Z</time></trkpt><trkpt lat="45.235765476857075" lon="3.1749961602804952"><ele>571.0</ele><time>2026-04-18T09:57:40.999Z</time></trkpt><trkpt lat="45.23573970934811" lon="3.1747990595846787"><ele>573.0</ele><time>2026-04-18T09:57:41.999Z</time></trkpt><trkpt lat="45.235684048738065" lon="3.1745997620566975"><ele>575.0</ele><time>2026-04-18T09:57:42.999Z</time></trkpt><trkpt lat="45.23559849873941" lon="3.174405715931718"><ele>577.0</ele><time>2026-04-18T09:57:43.999Z</time></trkpt><trkpt lat="45.235504178451684" lon="3.174203439165897"><ele>575.25</ele><time>2026-04-18T09:57:44.999Z</time></trkpt><trkpt lat="45.23542154742139" lon="3.1740142475203985"><ele>573.5</ele><time>2026-04-18T09:57:45.999Z</time></trkpt><trkpt lat="45.2353448721518" lon="3.17383950452932"><ele>571.75</ele><time>2026-04-18T09:57:46.999Z</time></trkpt><trkpt lat="45.23526501079062" lon="3.173673457286491"><ele>570.0</ele><time>2026-04-18T09:57:47.999Z</time></trkpt><trkpt lat="45.23517705909585" lon="3.1735098245219775"><ele>570.0</ele><time>2026-04-18T09:57:48.999Z</time></trkpt><trkpt lat="45.235084895997225" lon="3.173374384208171"><ele>570.0</ele><time>2026-04-18T09:57:49.999Z</time></trkpt><trkpt lat="45.2349924660401" lon="3.1732434982766753"><ele>570.0</ele><time>2026-04-18T09:57:50.999Z</time></trkpt><trkpt lat="45.23491102578129" lon="3.173120396075257"><ele>570.0</ele><time>2026-04-18T09:57:51.999Z</time></trkpt><trkpt lat="45.23484118752941" lon="3.172980202748141"><ele>568.0</ele><time>2026-04-18T09:57:52.999Z</time></trkpt><trkpt lat="45.23480023686077" lon="3.172818737927942"><ele>566.0</ele><time>2026-04-18T09:57:53.999Z</time></trkpt><trkpt lat="45.23477279056196" lon="3.1726346295030905"><ele>564.0</ele><time>2026-04-18T09:57:54.999Z</time></trkpt><trkpt lat="45.23476841247977" lon="3.1724325613067985"><ele>562.0</ele><time>2026-04-18T09:57:55.999Z</time></trkpt><trkpt lat="45.23476941204135" lon="3.1722288948637187"><ele>562.0</ele><time>2026-04-18T09:57:56.999Z</time></trkpt><trkpt lat="45.234747468849434" lon="3.1720225513175917"><ele>562.0</ele><time>2026-04-18T09:57:57.999Z</time></trkpt><trkpt lat="45.23470750357168" lon="3.171810202305828"><ele>562.0</ele><time>2026-04-18T09:57:58.999Z</time></trkpt><trkpt lat="45.23465998872368" lon="3.1715993387767925"><ele>564.3333333333334</ele><time>2026-04-18T09:57:59.999Z</time></trkpt><trkpt lat="45.234610213853564" lon="3.1713863180775745"><ele>566.6666666666666</ele><time>2026-04-18T09:58:00.999Z</time></trkpt><trkpt lat="45.2345332489595" lon="3.171176673517131"><ele>569.0</ele><time>2026-04-18T09:58:01.999Z</time></trkpt><trkpt lat="45.23443469110204" lon="3.1709881774563433"><ele>569.0</ele><time>2026-04-18T09:58:02.999Z</time></trkpt><trkpt lat="45.23433754010962" lon="3.170812393999473"><ele>569.0</ele><time>2026-04-18T09:58:03.999Z</time></trkpt><trkpt lat="45.2342524987318" lon="3.170649067127873"><ele>569.0</ele><time>2026-04-18T09:58:04.999Z</time></trkpt><trkpt lat="45.23416353587646" lon="3.1705035935636094"><ele>569.0</ele><time>2026-04-18T09:58:05.999Z</time></trkpt><trkpt lat="45.234050160795" lon="3.1703741570330117"><ele>567.6666666666666</ele><time>2026-04-18T09:58:06.999Z</time></trkpt><trkpt lat="45.2339150796876" lon="3.170270079417899"><ele>566.3333333333334</ele><time>2026-04-18T09:58:07.999Z</time></trkpt><trkpt lat="45.23376087238041" lon="3.1701893172340876"><ele>565.0</ele><time>2026-04-18T09:58:08.999Z</time></trkpt><trkpt lat="45.23360680041757" lon="3.1701112925608324"><ele>565.0</ele><time>2026-04-18T09:58:09.999Z</time></trkpt><trkpt lat="45.23344878356711" lon="3.170028599485816"><ele>565.0</ele><time>2026-04-18T09:58:10.999Z</time></trkpt><trkpt lat="45.23329057556317" lon="3.1699460883924746"><ele>565.0</ele><time>2026-04-18T09:58:11.999Z</time></trkpt><trkpt lat="45.23312774774109" lon="3.169852311244889"><ele>565.0</ele><time>2026-04-18T09:58:12.999Z</time></trkpt><trkpt lat="45.23297462006743" lon="3.1697523346735226"><ele>565.0</ele><time>2026-04-18T09:58:13.999Z</time></trkpt><trkpt lat="45.23281731222386" lon="3.1696323280516068"><ele>565.0</ele><time>2026-04-18T09:58:14.999Z</time></trkpt><trkpt lat="45.232669722448" lon="3.1695082188952153"><ele>565.0</ele><time>2026-04-18T09:58:15.999Z</time></trkpt><trkpt lat="45.23252246493308" lon="3.1693751728370394"><ele>565.0</ele><time>2026-04-18T09:58:16.999Z</time></trkpt><trkpt lat="45.232374881388274" lon="3.169242359649791"><ele>565.0</ele><time>2026-04-18T09:58:17.999Z</time></trkpt><trkpt lat="45.23223138487347" lon="3.169115774133951"><ele>565.5</ele><time>2026-04-18T09:58:18.999Z</time></trkpt><trkpt lat="45.232097748455985" lon="3.169000596777124"><ele>566.0</ele><time>2026-04-18T09:58:19.999Z</time></trkpt><trkpt lat="45.23197223754484" lon="3.1688926889354825"><ele>566.5</ele><time>2026-04-18T09:58:20.999Z</time></trkpt><trkpt lat="45.231851862094224" lon="3.168786919573557"><ele>567.0</ele><time>2026-04-18T09:58:22Z</time></trkpt><trkpt lat="45.23173212918125" lon="3.1686817287092404"><ele>567.0</ele><time>2026-04-18T09:58:23Z</time></trkpt><trkpt lat="45.23161894415758" lon="3.16858689421311"><ele>567.0</ele><time>2026-04-18T09:58:24Z</time></trkpt><trkpt lat="45.231502309060865" lon="3.1684875053482893"><ele>567.0</ele><time>2026-04-18T09:58:25Z</time></trkpt><trkpt lat="45.23138556853893" lon="3.168398148670507"><ele>567.0</ele><time>2026-04-18T09:58:26Z</time></trkpt><trkpt lat="45.231266745908414" lon="3.1683305789569567"><ele>567.25</ele><time>2026-04-18T09:58:27Z</time></trkpt><trkpt lat="45.23115300080162" lon="3.168274785440313"><ele>567.5</ele><time>2026-04-18T09:58:28Z</time></trkpt><trkpt lat="45.23104555354003" lon="3.168234302158976"><ele>567.75</ele><time>2026-04-18T09:58:29Z</time></trkpt><trkpt lat="45.23093889620029" lon="3.1681969628023574"><ele>568.0</ele><time>2026-04-18T09:58:30Z</time></trkpt><trkpt lat="45.2308383754914" lon="3.1681392085153477"><ele>567.8</ele><time>2026-04-18T09:58:31Z</time></trkpt><trkpt lat="45.23075495828065" lon="3.1680494308599476"><ele>567.5999999999999</ele><time>2026-04-18T09:58:32Z</time></trkpt><trkpt lat="45.230699220684535" lon="3.167935961473308"><ele>567.4000000000001</ele><time>2026-04-18T09:58:33Z</time></trkpt><trkpt lat="45.230637186060335" lon="3.1678078677785537"><ele>567.2</ele><time>2026-04-18T09:58:34Z</time></trkpt><trkpt lat="45.2305611133981" lon="3.167665024309341"><ele>567.0</ele><time>2026-04-18T09:58:35Z</time></trkpt><trkpt lat="45.230482699175035" lon="3.1675074488519552"><ele>570.75</ele><time>2026-04-18T09:58:36Z</time></trkpt><trkpt lat="45.23040046676078" lon="3.167341356363878"><ele>574.5</ele><time>2026-04-18T09:58:37Z</time></trkpt><trkpt lat="45.23031251071271" lon="3.167168233991294"><ele>578.25</ele><time>2026-04-18T09:58:38Z</time></trkpt><trkpt lat="45.23022314046732" lon="3.16699539496233"><ele>582.0</ele><time>2026-04-18T09:58:39Z</time></trkpt><trkpt lat="45.23013202055519" lon="3.1668347284843996"><ele>582.0</ele><time>2026-04-18T09:58:40Z</time></trkpt><trkpt lat="45.230031448801775" lon="3.1666839486237928"><ele>582.0</ele><time>2026-04-18T09:58:41Z</time></trkpt><trkpt lat="45.22991287565638" lon="3.1665672789306485"><ele>582.0</ele><time>2026-04-18T09:58:42Z</time></trkpt><trkpt lat="45.22976881907328" lon="3.1664921945237747"><ele>582.0</ele><time>2026-04-18T09:58:43Z</time></trkpt><trkpt lat="45.22961298858983" lon="3.1664408607430543"><ele>583.6666666666666</ele><time>2026-04-18T09:58:44Z</time></trkpt><trkpt lat="45.229449384930895" lon="3.1663929965331112"><ele>585.3333333333333</ele><time>2026-04-18T09:58:45Z</time></trkpt><trkpt lat="45.229291996464326" lon="3.166347867979688"><ele>587.0</ele><time>2026-04-18T09:58:46Z</time></trkpt><trkpt lat="45.22916007919713" lon="3.1662721662467006"><ele>587.0</ele><time>2026-04-18T09:58:47Z</time></trkpt><trkpt lat="45.229047873708794" lon="3.1661697589450903"><ele>587.0</ele><time>2026-04-18T09:58:48Z</time></trkpt><trkpt lat="45.22894605041707" lon="3.1660395614123025"><ele>587.0</ele><time>2026-04-18T09:58:49Z</time></trkpt><trkpt lat="45.22884711839931" lon="3.165879214120422"><ele>587.0</ele><time>2026-04-18T09:58:50Z</time></trkpt><trkpt lat="45.22874128892883" lon="3.16570143381354"><ele>586.0</ele><time>2026-04-18T09:58:51Z</time></trkpt><trkpt lat="45.22864042539194" lon="3.165506328760978"><ele>585.0</ele><time>2026-04-18T09:58:52Z</time></trkpt><trkpt lat="45.228568731690764" lon="3.1653130554994267"><ele>584.0</ele><time>2026-04-18T09:58:53Z</time></trkpt><trkpt lat="45.228522364846405" lon="3.165115699996073"><ele>584.0</ele><time>2026-04-18T09:58:54Z</time></trkpt><trkpt lat="45.22848300801488" lon="3.1649134649992767"><ele>584.0</ele><time>2026-04-18T09:58:55Z</time></trkpt><trkpt lat="45.22842897564026" lon="3.1647173317474526"><ele>584.0</ele><time>2026-04-18T09:58:56Z</time></trkpt><trkpt lat="45.228337069540736" lon="3.1645373827259538"><ele>586.3333333333333</ele><time>2026-04-18T09:58:57Z</time></trkpt><trkpt lat="45.22822740996675" lon="3.16436653319105"><ele>588.6666666666666</ele><time>2026-04-18T09:58:58Z</time></trkpt><trkpt lat="45.22811881957158" lon="3.1641898487386384"><ele>591.0</ele><time>2026-04-18T09:58:59Z</time></trkpt><trkpt lat="45.2280163185937" lon="3.16401632371012"><ele>591.0</ele><time>2026-04-18T09:59:00Z</time></trkpt><trkpt lat="45.227905831415185" lon="3.1638470545681496"><ele>591.0</ele><time>2026-04-18T09:59:01Z</time></trkpt><trkpt lat="45.22778204145444" lon="3.163681488719912"><ele>591.0</ele><time>2026-04-18T09:59:02Z</time></trkpt><trkpt lat="45.227654296676015" lon="3.1635350373346047"><ele>591.0</ele><time>2026-04-18T09:59:03Z</time></trkpt><trkpt lat="45.227530292668455" lon="3.1633844976295284"><ele>591.0</ele><time>2026-04-18T09:59:04Z</time></trkpt><trkpt lat="45.227417501256205" lon="3.163253432018977"><ele>591.0</ele><time>2026-04-18T09:59:05Z</time></trkpt><trkpt lat="45.227289204594996" lon="3.163156335650972"><ele>592.3333333333334</ele><time>2026-04-18T09:59:06Z</time></trkpt><trkpt lat="45.22714018577088" lon="3.1630844508653984"><ele>593.6666666666667</ele><time>2026-04-18T09:59:07Z</time></trkpt><trkpt lat="45.22697505012483" lon="3.1630320333551047"><ele>595.0</ele><time>2026-04-18T09:59:08Z</time></trkpt><trkpt lat="45.22682661350619" lon="3.1629777963196397"><ele>595.0</ele><time>2026-04-18T09:59:09Z</time></trkpt><trkpt lat="45.2267017742862" lon="3.16291084378124"><ele>595.0</ele><time>2026-04-18T09:59:10Z</time></trkpt><trkpt lat="45.22658774480249" lon="3.16282068771156"><ele>595.0</ele><time>2026-04-18T09:59:11Z</time></trkpt><trkpt lat="45.22649409977082" lon="3.1627030121990645"><ele>595.0</ele><time>2026-04-18T09:59:12Z</time></trkpt><trkpt lat="45.22642482135486" lon="3.162562158311038"><ele>592.25</ele><time>2026-04-18T09:59:13Z</time></trkpt><trkpt lat="45.226382866088926" lon="3.162393425485456"><ele>589.5</ele><time>2026-04-18T09:59:14Z</time></trkpt><trkpt lat="45.226358242633" lon="3.1622016748469948"><ele>586.75</ele><time>2026-04-18T09:59:15Z</time></trkpt><trkpt lat="45.22635143143379" lon="3.1619936668824455"><ele>584.0</ele><time>2026-04-18T09:59:16Z</time></trkpt><trkpt lat="45.226339597259994" lon="3.161769669889138"><ele>584.0</ele><time>2026-04-18T09:59:17Z</time></trkpt><trkpt lat="45.22631161242832" lon="3.161539039809222"><ele>584.0</ele><time>2026-04-18T09:59:18Z</time></trkpt><trkpt lat="45.226272714069815" lon="3.16129962902456"><ele>584.0</ele><time>2026-04-18T09:59:19Z</time></trkpt><trkpt lat="45.22621524190291" lon="3.1610720687052587"><ele>584.3333333333333</ele><time>2026-04-18T09:59:20Z</time></trkpt><trkpt lat="45.226140476884254" lon="3.1608535086738287"><ele>584.6666666666666</ele><time>2026-04-18T09:59:21Z</time></trkpt><trkpt lat="45.226050129997844" lon="3.160643431306589"><ele>585.0</ele><time>2026-04-18T09:59:22Z</time></trkpt><trkpt lat="45.225948801849356" lon="3.1604378107391344"><ele>585.0</ele><time>2026-04-18T09:59:23Z</time></trkpt><trkpt lat="45.22584725945636" lon="3.160243795302446"><ele>585.0</ele><time>2026-04-18T09:59:24Z</time></trkpt><trkpt lat="45.225730333722545" lon="3.160059237829067"><ele>585.0</ele><time>2026-04-18T09:59:25Z</time></trkpt><trkpt lat="45.225603911346795" lon="3.159894996767799"><ele>592.6666666666666</ele><time>2026-04-18T09:59:26Z</time></trkpt><trkpt lat="45.22545841528611" lon="3.1597663891686545"><ele>600.3333333333333</ele><time>2026-04-18T09:59:27Z</time></trkpt><trkpt lat="45.22529597264723" lon="3.1596803344502455"><ele>608.0</ele><time>2026-04-18T09:59:28Z</time></trkpt><trkpt lat="45.22511883434989" lon="3.159611482526373"><ele>608.0</ele><time>2026-04-18T09:59:29Z</time></trkpt><trkpt lat="45.224943004922025" lon="3.159546005428913"><ele>608.0</ele><time>2026-04-18T09:59:30Z</time></trkpt><trkpt lat="45.2247753383976" lon="3.159479212049109"><ele>608.0</ele><time>2026-04-18T09:59:31Z</time></trkpt><trkpt lat="45.224606326787004" lon="3.159409754800481"><ele>601.6666666666666</ele><time>2026-04-18T09:59:32Z</time></trkpt><trkpt lat="45.22444244743534" lon="3.1593404471356914"><ele>595.3333333333334</ele><time>2026-04-18T09:59:33Z</time></trkpt><trkpt lat="45.224277164751705" lon="3.1592733636480146"><ele>589.0</ele><time>2026-04-18T09:59:34Z</time></trkpt><trkpt lat="45.22411640846748" lon="3.159206197736559"><ele>587.0</ele><time>2026-04-18T09:59:35Z</time></trkpt><trkpt lat="45.22395655453634" lon="3.159145823763626"><ele>585.0</ele><time>2026-04-18T09:59:36Z</time></trkpt><trkpt lat="45.22379195193631" lon="3.15908830710968"><ele>583.0</ele><time>2026-04-18T09:59:37Z</time></trkpt><trkpt lat="45.22361930905682" lon="3.159038508149189"><ele>590.3333333333334</ele><time>2026-04-18T09:59:38Z</time></trkpt><trkpt lat="45.223449615001876" lon="3.1590015835818237"><ele>597.6666666666666</ele><time>2026-04-18T09:59:39Z</time></trkpt><trkpt lat="45.22327375889417" lon="3.1589722482319775"><ele>605.0</ele><time>2026-04-18T09:59:40Z</time></trkpt><trkpt lat="45.22310402861629" lon="3.158939048019762"><ele>605.3333333333333</ele><time>2026-04-18T09:59:41Z</time></trkpt><trkpt lat="45.22293631872048" lon="3.158906127898634"><ele>605.6666666666666</ele><time>2026-04-18T09:59:42Z</time></trkpt><trkpt lat="45.22277860848318" lon="3.1588664379093423"><ele>606.0</ele><time>2026-04-18T09:59:43Z</time></trkpt><trkpt lat="45.222627226901345" lon="3.1588274058319805"><ele>606.0</ele><time>2026-04-18T09:59:44Z</time></trkpt><trkpt lat="45.22247985925551" lon="3.1587895016452903"><ele>606.0</ele><time>2026-04-18T09:59:45Z</time></trkpt><trkpt lat="45.22232665936583" lon="3.15875331097868"><ele>606.0</ele><time>2026-04-18T09:59:46Z</time></trkpt><trkpt lat="45.22217286406597" lon="3.1587204033571115"><ele>606.3333333333334</ele><time>2026-04-18T09:59:47Z</time></trkpt><trkpt lat="45.22201231094463" lon="3.158688208361045"><ele>606.6666666666667</ele><time>2026-04-18T09:59:48Z</time></trkpt><trkpt lat="45.22185725240118" lon="3.158657112347607"><ele>607.0</ele><time>2026-04-18T09:59:49Z</time></trkpt><trkpt lat="45.22169920694476" lon="3.1586299532223396"><ele>607.0</ele><time>2026-04-18T09:59:50Z</time></trkpt><trkpt lat="45.22153889295084" lon="3.158614259376422"><ele>607.0</ele><time>2026-04-18T09:59:51Z</time></trkpt><trkpt lat="45.22137816583676" lon="3.1586093507234625"><ele>607.0</ele><time>2026-04-18T09:59:52Z</time></trkpt><trkpt lat="45.22121469145623" lon="3.1586111419692373"><ele>608.0</ele><time>2026-04-18T09:59:53Z</time></trkpt><trkpt lat="45.22104828697338" lon="3.1586285359990915"><ele>609.0</ele><time>2026-04-18T09:59:54Z</time></trkpt><trkpt lat="45.22087914386402" lon="3.158659893991887"><ele>610.0</ele><time>2026-04-18T09:59:55Z</time></trkpt><trkpt lat="45.22070837644919" lon="3.1587036605598358"><ele>613.3333333333334</ele><time>2026-04-18T09:59:56Z</time></trkpt><trkpt lat="45.220538019929045" lon="3.158763212242119"><ele>616.6666666666666</ele><time>2026-04-18T09:59:57Z</time></trkpt><trkpt lat="45.2203700890667" lon="3.1588398473561927"><ele>620.0</ele><time>2026-04-18T09:59:58Z</time></trkpt><trkpt lat="45.22019742088136" lon="3.1589264013838805"><ele>620.0</ele><time>2026-04-18T09:59:59Z</time></trkpt><trkpt lat="45.220024692082355" lon="3.15901073041684"><ele>620.0</ele><time>2026-04-18T10:00:00Z</time></trkpt><trkpt lat="45.219851406178655" lon="3.1590942341094137"><ele>620.0</ele><time>2026-04-18T10:00:01Z</time></trkpt><trkpt lat="45.21967483637018" lon="3.159179365905304"><ele>615.0</ele><time>2026-04-18T10:00:02Z</time></trkpt><trkpt lat="45.21950324311274" lon="3.1592569906820724"><ele>610.0</ele><time>2026-04-18T10:00:03Z</time></trkpt><trkpt lat="45.21932747854053" lon="3.1593293981366397"><ele>605.0</ele><time>2026-04-18T10:00:04Z</time></trkpt><trkpt lat="45.219151429308766" lon="3.1594007294691053"><ele>610.6666666666666</ele><time>2026-04-18T10:00:05Z</time></trkpt><trkpt lat="45.21897748531343" lon="3.1594646886816755"><ele>616.3333333333334</ele><time>2026-04-18T10:00:06Z</time></trkpt><trkpt lat="45.21880251403689" lon="3.1595260073583837"><ele>622.0</ele><time>2026-04-18T10:00:07Z</time></trkpt><trkpt lat="45.21862338636097" lon="3.1595747142011406"><ele>622.0</ele><time>2026-04-18T10:00:08Z</time></trkpt><trkpt lat="45.218447997984725" lon="3.1596143956085814"><ele>622.0</ele><time>2026-04-18T10:00:09Z</time></trkpt><trkpt lat="45.21828195361388" lon="3.1596524055528956"><ele>622.0</ele><time>2026-04-18T10:00:10Z</time></trkpt><trkpt lat="45.21811944980128" lon="3.159693282929101"><ele>627.6666666666667</ele><time>2026-04-18T10:00:11Z</time></trkpt><trkpt lat="45.2179611574846" lon="3.159741797719971"><ele>633.3333333333334</ele><time>2026-04-18T10:00:12Z</time></trkpt><trkpt lat="45.21780446394381" lon="3.159809071059326"><ele>639.0</ele><time>2026-04-18T10:00:13Z</time></trkpt><trkpt lat="45.21765318161669" lon="3.159898257381918"><ele>631.6666666666666</ele><time>2026-04-18T10:00:14Z</time></trkpt><trkpt lat="45.21750775148431" lon="3.160006241066649"><ele>624.3333333333333</ele><time>2026-04-18T10:00:15Z</time></trkpt><trkpt lat="45.21735347698656" lon="3.160119633147728"><ele>617.0</ele><time>2026-04-18T10:00:16Z</time></trkpt><trkpt lat="45.21719522848747" lon="3.160230972681706"><ele>617.0</ele><time>2026-04-18T10:00:17Z</time></trkpt><trkpt lat="45.21704228373028" lon="3.1603355081128317"><ele>617.0</ele><time>2026-04-18T10:00:18Z</time></trkpt><trkpt lat="45.216897589574806" lon="3.160427939300983"><ele>617.0</ele><time>2026-04-18T10:00:19Z</time></trkpt><trkpt lat="45.21673879978552" lon="3.1605087812889705"><ele>617.0</ele><time>2026-04-18T10:00:20Z</time></trkpt><trkpt lat="45.216581375928556" lon="3.1605682132757145"><ele>617.0</ele><time>2026-04-18T10:00:21Z</time></trkpt><trkpt lat="45.21641036369273" lon="3.1606233976115843"><ele>617.0</ele><time>2026-04-18T10:00:22Z</time></trkpt><trkpt lat="45.216243447834096" lon="3.1606731033297506"><ele>610.6666666666666</ele><time>2026-04-18T10:00:23Z</time></trkpt><trkpt lat="45.216076205409166" lon="3.1607234302927765"><ele>604.3333333333334</ele><time>2026-04-18T10:00:24Z</time></trkpt><trkpt lat="45.21590242503045" lon="3.1607741484422758"><ele>598.0</ele><time>2026-04-18T10:00:25Z</time></trkpt><trkpt lat="45.215731641882776" lon="3.1608277769029316"><ele>602.6666666666667</ele><time>2026-04-18T10:00:26Z</time></trkpt><trkpt lat="45.215558338665254" lon="3.160885779769632"><ele>607.3333333333334</ele><time>2026-04-18T10:00:27Z</time></trkpt><trkpt lat="45.215388890611976" lon="3.1609414022292075"><ele>612.0</ele><time>2026-04-18T10:00:28Z</time></trkpt><trkpt lat="45.21522385843542" lon="3.160993474147859"><ele>612.0</ele><time>2026-04-18T10:00:29Z</time></trkpt><trkpt lat="45.21505839619316" lon="3.161037865971022"><ele>612.0</ele><time>2026-04-18T10:00:30Z</time></trkpt><trkpt lat="45.21489772634376" lon="3.1610682587229393"><ele>612.0</ele><time>2026-04-18T10:00:31Z</time></trkpt><trkpt lat="45.21472598256862" lon="3.1610755650115423"><ele>610.3333333333334</ele><time>2026-04-18T10:00:32Z</time></trkpt><trkpt lat="45.21454892485813" lon="3.1610544301382255"><ele>608.6666666666667</ele><time>2026-04-18T10:00:33Z</time></trkpt><trkpt lat="45.21438287361662" lon="3.1610198543425323"><ele>607.0</ele><time>2026-04-18T10:00:34Z</time></trkpt><trkpt lat="45.214211973343836" lon="3.1609870227648345"><ele>607.0</ele><time>2026-04-18T10:00:35Z</time></trkpt><trkpt lat="45.21404358151671" lon="3.160954779640205"><ele>607.0</ele><time>2026-04-18T10:00:36Z</time></trkpt><trkpt lat="45.21387728797694" lon="3.160927019434128"><ele>607.0</ele><time>2026-04-18T10:00:37Z</time></trkpt><trkpt lat="45.213721246174465" lon="3.160904041373531"><ele>606.0</ele><time>2026-04-18T10:00:38Z</time></trkpt><trkpt lat="45.21355596704195" lon="3.1608778118901726"><ele>605.0</ele><time>2026-04-18T10:00:39Z</time></trkpt><trkpt lat="45.213394538591224" lon="3.160849353876228"><ele>604.0</ele><time>2026-04-18T10:00:40Z</time></trkpt><trkpt lat="45.21323829899823" lon="3.1608120989772974"><ele>600.6666666666667</ele><time>2026-04-18T10:00:41Z</time></trkpt><trkpt lat="45.21307475973731" lon="3.1607449860211227"><ele>597.3333333333334</ele><time>2026-04-18T10:00:42Z</time></trkpt><trkpt lat="45.212927992407025" lon="3.160648025963434"><ele>594.0</ele><time>2026-04-18T10:00:43Z</time></trkpt><trkpt lat="45.21277666546066" lon="3.160549389491376"><ele>602.3333333333334</ele><time>2026-04-18T10:00:44Z</time></trkpt><trkpt lat="45.21262915233469" lon="3.160432139729664"><ele>610.6666666666667</ele><time>2026-04-18T10:00:45Z</time></trkpt><trkpt lat="45.212494866286164" lon="3.160313054157904"><ele>619.0</ele><time>2026-04-18T10:00:46Z</time></trkpt><trkpt lat="45.21235057782997" lon="3.160195148394543"><ele>614.0</ele><time>2026-04-18T10:00:47Z</time></trkpt><trkpt lat="45.212214474690775" lon="3.160087552776081"><ele>609.0</ele><time>2026-04-18T10:00:48Z</time></trkpt><trkpt lat="45.21207931026386" lon="3.159984844067406"><ele>604.0</ele><time>2026-04-18T10:00:49Z</time></trkpt><trkpt lat="45.21194674401056" lon="3.1599013561151725"><ele>605.25</ele><time>2026-04-18T10:00:50Z</time></trkpt><trkpt lat="45.211809979291765" lon="3.1598527654088753"><ele>606.5</ele><time>2026-04-18T10:00:51Z</time></trkpt><trkpt lat="45.21166003914331" lon="3.1598353854206587"><ele>607.75</ele><time>2026-04-18T10:00:52Z</time></trkpt><trkpt lat="45.21151571698854" lon="3.159838438391301"><ele>609.0</ele><time>2026-04-18T10:00:53Z</time></trkpt><trkpt lat="45.21138092414998" lon="3.1598335251104968"><ele>609.0</ele><time>2026-04-18T10:00:54Z</time></trkpt><trkpt lat="45.21126016560049" lon="3.1598147978140796"><ele>609.0</ele><time>2026-04-18T10:00:55Z</time></trkpt><trkpt lat="45.21114286457614" lon="3.1597740462618713"><ele>609.0</ele><time>2026-04-18T10:00:56Z</time></trkpt><trkpt lat="45.21103038842327" lon="3.1596900329120414"><ele>609.0</ele><time>2026-04-18T10:00:57Z</time></trkpt><trkpt lat="45.21092519980715" lon="3.1595753799648456"><ele>609.0</ele><time>2026-04-18T10:00:58Z</time></trkpt><trkpt lat="45.21081047003917" lon="3.15945945154169"><ele>609.0</ele><time>2026-04-18T10:00:59Z</time></trkpt><trkpt lat="45.210679392974654" lon="3.1593737989567328"><ele>609.0</ele><time>2026-04-18T10:01:00Z</time></trkpt><trkpt lat="45.2105259635775" lon="3.1593234715578413"><ele>609.0</ele><time>2026-04-18T10:01:01Z</time></trkpt><trkpt lat="45.210376764369904" lon="3.1592731160398264"><ele>608.25</ele><time>2026-04-18T10:01:02Z</time></trkpt><trkpt lat="45.210234460743465" lon="3.1592214803493497"><ele>607.5</ele><time>2026-04-18T10:01:03Z</time></trkpt><trkpt lat="45.2100897296447" lon="3.159188584391361"><ele>606.75</ele><time>2026-04-18T10:01:04Z</time></trkpt><trkpt lat="45.209935832173834" lon="3.1591638134533224"><ele>606.0</ele><time>2026-04-18T10:01:05Z</time></trkpt><trkpt lat="45.209775084223594" lon="3.1591523539563133"><ele>602.6666666666666</ele><time>2026-04-18T10:01:06Z</time></trkpt><trkpt lat="45.20961714488515" lon="3.159138342717505"><ele>599.3333333333333</ele><time>2026-04-18T10:01:07Z</time></trkpt><trkpt lat="45.209450658869315" lon="3.159135283698015"><ele>596.0</ele><time>2026-04-18T10:01:08Z</time></trkpt><trkpt lat="45.20929309263325" lon="3.159124007898657"><ele>596.0</ele><time>2026-04-18T10:01:09Z</time></trkpt><trkpt lat="45.209142899216786" lon="3.1591084387577695"><ele>596.0</ele><time>2026-04-18T10:01:10Z</time></trkpt><trkpt lat="45.20900181468459" lon="3.15908559210206"><ele>596.0</ele><time>2026-04-18T10:01:11Z</time></trkpt><trkpt lat="45.208866584619926" lon="3.1590604762025696"><ele>596.0</ele><time>2026-04-18T10:01:12Z</time></trkpt><trkpt lat="45.208739103654935" lon="3.159016384803761"><ele>596.5</ele><time>2026-04-18T10:01:13Z</time></trkpt><trkpt lat="45.20861691029941" lon="3.1589675188735056"><ele>597.0</ele><time>2026-04-18T10:01:14Z</time></trkpt><trkpt lat="45.20850794073257" lon="3.1589147872502883"><ele>597.5</ele><time>2026-04-18T10:01:15Z</time></trkpt><trkpt lat="45.20839816634983" lon="3.158859576244682"><ele>598.0</ele><time>2026-04-18T10:01:16Z</time></trkpt><trkpt lat="45.2082894288974" lon="3.1588043318685526"><ele>598.0</ele><time>2026-04-18T10:01:17Z</time></trkpt><trkpt lat="45.20818794565335" lon="3.1587553080083257"><ele>598.0</ele><time>2026-04-18T10:01:18Z</time></trkpt><trkpt lat="45.20809197378247" lon="3.1587107760626005"><ele>598.0</ele><time>2026-04-18T10:01:19Z</time></trkpt><trkpt lat="45.20800759642055" lon="3.1586769649971105"><ele>598.0</ele><time>2026-04-18T10:01:20Z</time></trkpt><trkpt lat="45.20792877034974" lon="3.1586008030679267"><ele>598.0</ele><time>2026-04-18T10:01:22Z</time></trkpt><trkpt lat="45.207835624651764" lon="3.1588437337554236"><ele>598.3333333333334</ele><time>2026-04-18T10:01:24Z</time></trkpt><trkpt lat="45.20782706579753" lon="3.1589491953075415"><ele>598.6666666666667</ele><time>2026-04-18T10:01:25Z</time></trkpt><trkpt lat="45.20781629903299" lon="3.1590484356867568"><ele>599.0</ele><time>2026-04-18T10:01:26Z</time></trkpt><trkpt lat="45.20780040882799" lon="3.159148281280593"><ele>599.3333333333334</ele><time>2026-04-18T10:01:27Z</time></trkpt><trkpt lat="45.2077339671044" lon="3.159300426757997"><ele>599.6666666666666</ele><time>2026-04-18T10:01:29Z</time></trkpt><trkpt lat="45.20768610901587" lon="3.159362621381385"><ele>600.0</ele><time>2026-04-18T10:01:30Z</time></trkpt><trkpt lat="45.207632762019095" lon="3.1594498719456565"><ele>600.0</ele><time>2026-04-18T10:01:31Z</time></trkpt><trkpt lat="45.20757962021019" lon="3.159550393867045"><ele>600.0</ele><time>2026-04-18T10:01:32Z</time></trkpt><trkpt lat="45.20752221290476" lon="3.159663800204995"><ele>600.0</ele><time>2026-04-18T10:01:33Z</time></trkpt><trkpt lat="45.207460788221404" lon="3.159779375590568"><ele>600.0</ele><time>2026-04-18T10:01:34Z</time></trkpt><trkpt lat="45.207386155045235" lon="3.159893385558527"><ele>600.0</ele><time>2026-04-18T10:01:35Z</time></trkpt><trkpt lat="45.20729732841354" lon="3.159978081834747"><ele>604.0</ele><time>2026-04-18T10:01:36Z</time></trkpt><trkpt lat="45.20718758575627" lon="3.1600410664520995"><ele>608.0</ele><time>2026-04-18T10:01:37Z</time></trkpt><trkpt lat="45.20706299440618" lon="3.1601013660762587"><ele>612.0</ele><time>2026-04-18T10:01:38Z</time></trkpt><trkpt lat="45.2069378821761" lon="3.1601766585826927"><ele>616.0</ele><time>2026-04-18T10:01:39Z</time></trkpt><trkpt lat="45.2068188675238" lon="3.1602696045382643"><ele>616.0</ele><time>2026-04-18T10:01:40Z</time></trkpt><trkpt lat="45.20669683269964" lon="3.1603765948108338"><ele>616.0</ele><time>2026-04-18T10:01:41Z</time></trkpt><trkpt lat="45.20658101100794" lon="3.1604947251763584"><ele>616.0</ele><time>2026-04-18T10:01:42Z</time></trkpt><trkpt lat="45.20647894181594" lon="3.160623488694728"><ele>616.0</ele><time>2026-04-18T10:01:43Z</time></trkpt><trkpt lat="45.206398709196066" lon="3.1607725146001022"><ele>618.6</ele><time>2026-04-18T10:01:44Z</time></trkpt><trkpt lat="45.20632797461716" lon="3.1609284281770162"><ele>621.2</ele><time>2026-04-18T10:01:45Z</time></trkpt><trkpt lat="45.20626919097382" lon="3.1610568867350506"><ele>623.8</ele><time>2026-04-18T10:01:46Z</time></trkpt><trkpt lat="45.20621172747652" lon="3.161157012020452"><ele>626.4</ele><time>2026-04-18T10:01:47Z</time></trkpt><trkpt lat="45.20615782830811" lon="3.1612325447835876"><ele>629.0</ele><time>2026-04-18T10:01:48Z</time></trkpt><trkpt lat="45.20611699124978" lon="3.1613087984084074"><ele>629.0</ele><time>2026-04-18T10:01:49Z</time></trkpt><trkpt lat="45.20609864721349" lon="3.161403550737696"><ele>629.0</ele><time>2026-04-18T10:01:50Z</time></trkpt><trkpt lat="45.206121332951405" lon="3.1615137313876835"><ele>629.0</ele><time>2026-04-18T10:01:51Z</time></trkpt><trkpt lat="45.20618813493486" lon="3.1615998755014636"><ele>629.0</ele><time>2026-04-18T10:01:52Z</time></trkpt><trkpt lat="45.206296604924326" lon="3.161633228747061"><ele>629.0</ele><time>2026-04-18T10:01:53Z</time></trkpt><trkpt lat="45.20641498709281" lon="3.161618535773684"><ele>628.5</ele><time>2026-04-18T10:01:54Z</time></trkpt><trkpt lat="45.20654849594417" lon="3.1615485894168596"><ele>628.0</ele><time>2026-04-18T10:01:55Z</time></trkpt><trkpt lat="45.20667450865927" lon="3.1614375533572767"><ele>627.5</ele><time>2026-04-18T10:01:56Z</time></trkpt><trkpt lat="45.206767220482355" lon="3.1613553163169006"><ele>627.0</ele><time>2026-04-18T10:01:57Z</time></trkpt><trkpt lat="45.20683763198951" lon="3.1613422563792546"><ele>627.0</ele><time>2026-04-18T10:01:58Z</time></trkpt><trkpt lat="45.20690267497008" lon="3.161394178774372"><ele>627.0</ele><time>2026-04-18T10:01:59Z</time></trkpt><trkpt lat="45.20694063305752" lon="3.161495225960872"><ele>627.0</ele><time>2026-04-18T10:02:00Z</time></trkpt><trkpt lat="45.20694316711769" lon="3.161620211194263"><ele>627.0</ele><time>2026-04-18T10:02:01Z</time></trkpt><trkpt lat="45.20690650548945" lon="3.161758308647161"><ele>627.0</ele><time>2026-04-18T10:02:02Z</time></trkpt><trkpt lat="45.20684052814739" lon="3.161884387080829"><ele>627.0</ele><time>2026-04-18T10:02:03Z</time></trkpt><trkpt lat="45.2067700861745" lon="3.1620168866350133"><ele>627.0</ele><time>2026-04-18T10:02:04Z</time></trkpt><trkpt lat="45.20670928886495" lon="3.162167706186508"><ele>627.0</ele><time>2026-04-18T10:02:05Z</time></trkpt><trkpt lat="45.20665262074118" lon="3.162328877683675"><ele>627.0</ele><time>2026-04-18T10:02:06Z</time></trkpt><trkpt lat="45.206598702279095" lon="3.162493608855403"><ele>628.25</ele><time>2026-04-18T10:02:07Z</time></trkpt><trkpt lat="45.206549033197895" lon="3.1626624081973183"><ele>629.5</ele><time>2026-04-18T10:02:08Z</time></trkpt><trkpt lat="45.20649564213324" lon="3.1628307234713438"><ele>630.75</ele><time>2026-04-18T10:02:09Z</time></trkpt><trkpt lat="45.20643566806029" lon="3.162995397140816"><ele>632.0</ele><time>2026-04-18T10:02:10Z</time></trkpt><trkpt lat="45.206362172081484" lon="3.1631518915028187"><ele>635.0</ele><time>2026-04-18T10:02:11Z</time></trkpt><trkpt lat="45.20628079224919" lon="3.163303331460776"><ele>638.0</ele><time>2026-04-18T10:02:12Z</time></trkpt><trkpt lat="45.20620052213822" lon="3.1634558185087913"><ele>641.0</ele><time>2026-04-18T10:02:13Z</time></trkpt><trkpt lat="45.206120284531565" lon="3.163611070652672"><ele>644.0</ele><time>2026-04-18T10:02:14Z</time></trkpt><trkpt lat="45.206036475248396" lon="3.163769088826692"><ele>644.0</ele><time>2026-04-18T10:02:15Z</time></trkpt><trkpt lat="45.205952791911045" lon="3.1639315994244623"><ele>644.0</ele><time>2026-04-18T10:02:16Z</time></trkpt><trkpt lat="45.205870655134774" lon="3.1640901553794096"><ele>644.0</ele><time>2026-04-18T10:02:17Z</time></trkpt><trkpt lat="45.205785816552996" lon="3.1642513451980796"><ele>644.0</ele><time>2026-04-18T10:02:18Z</time></trkpt><trkpt lat="45.205700700566986" lon="3.1644167043123193"><ele>649.25</ele><time>2026-04-18T10:02:19Z</time></trkpt><trkpt lat="45.205619102849816" lon="3.16457809149582"><ele>654.5</ele><time>2026-04-18T10:02:20Z</time></trkpt><trkpt lat="45.205541799513206" lon="3.164737640751774"><ele>659.75</ele><time>2026-04-18T10:02:21Z</time></trkpt><trkpt lat="45.20547012531075" lon="3.164902995229634"><ele>665.0</ele><time>2026-04-18T10:02:22Z</time></trkpt><trkpt lat="45.205400037748504" lon="3.165070526238729"><ele>666.25</ele><time>2026-04-18T10:02:23Z</time></trkpt><trkpt lat="45.2053279045124" lon="3.1652285449479227"><ele>667.5</ele><time>2026-04-18T10:02:24Z</time></trkpt><trkpt lat="45.205253232948245" lon="3.165385257333468"><ele>668.75</ele><time>2026-04-18T10:02:25Z</time></trkpt><trkpt lat="45.20518004702462" lon="3.16553850831073"><ele>670.0</ele><time>2026-04-18T10:02:26Z</time></trkpt><trkpt lat="45.205108654033005" lon="3.1656912288185666"><ele>670.0</ele><time>2026-04-18T10:02:27Z</time></trkpt><trkpt lat="45.205037303173" lon="3.1658406714769485"><ele>670.0</ele><time>2026-04-18T10:02:28Z</time></trkpt><trkpt lat="45.20496081321723" lon="3.165987549832994"><ele>670.0</ele><time>2026-04-18T10:02:29Z</time></trkpt><trkpt lat="45.20487503116328" lon="3.1661184623560987"><ele>670.0</ele><time>2026-04-18T10:02:30Z</time></trkpt><trkpt lat="45.204780146108355" lon="3.166236844733927"><ele>678.25</ele><time>2026-04-18T10:02:31Z</time></trkpt><trkpt lat="45.204676370748196" lon="3.16634296057482"><ele>686.5</ele><time>2026-04-18T10:02:32Z</time></trkpt><trkpt lat="45.20456795446624" lon="3.1664407672649206"><ele>694.75</ele><time>2026-04-18T10:02:33Z</time></trkpt><trkpt lat="45.20446239726972" lon="3.166547362482685"><ele>703.0</ele><time>2026-04-18T10:02:34Z</time></trkpt><trkpt lat="45.20436163383904" lon="3.166660879768548"><ele>703.0</ele><time>2026-04-18T10:02:35Z</time></trkpt><trkpt lat="45.20426124228336" lon="3.1667800072310097"><ele>703.0</ele><time>2026-04-18T10:02:36Z</time></trkpt><trkpt lat="45.204163722185" lon="3.166904589397941"><ele>703.0</ele><time>2026-04-18T10:02:37Z</time></trkpt><trkpt lat="45.20406897032821" lon="3.1670389473195897"><ele>703.0</ele><time>2026-04-18T10:02:38Z</time></trkpt><trkpt lat="45.20397606810044" lon="3.1671752737358467"><ele>705.5</ele><time>2026-04-18T10:02:39Z</time></trkpt><trkpt lat="45.20387153703344" lon="3.167291871407534"><ele>708.0</ele><time>2026-04-18T10:02:40Z</time></trkpt><trkpt lat="45.20376153800735" lon="3.1673881487550624"><ele>710.5</ele><time>2026-04-18T10:02:41Z</time></trkpt><trkpt lat="45.20364960978463" lon="3.1674739902697593"><ele>713.0</ele><time>2026-04-18T10:02:42Z</time></trkpt><trkpt lat="45.20353513749762" lon="3.16754087351561"><ele>713.0</ele><time>2026-04-18T10:02:43Z</time></trkpt><trkpt lat="45.203413936061864" lon="3.1675961365130414"><ele>713.0</ele><time>2026-04-18T10:02:44Z</time></trkpt><trkpt lat="45.20328570075197" lon="3.1676466258585414"><ele>713.0</ele><time>2026-04-18T10:02:45Z</time></trkpt><trkpt lat="45.20315123395035" lon="3.16769843384009"><ele>713.0</ele><time>2026-04-18T10:02:46Z</time></trkpt><trkpt lat="45.20301627089173" lon="3.1677573910760692"><ele>718.0</ele><time>2026-04-18T10:02:47Z</time></trkpt><trkpt lat="45.20288314167198" lon="3.1678248367108353"><ele>723.0</ele><time>2026-04-18T10:02:48Z</time></trkpt><trkpt lat="45.20275381969599" lon="3.167894384284574"><ele>728.0</ele><time>2026-04-18T10:02:49Z</time></trkpt><trkpt lat="45.20263472856789" lon="3.1679637636269704"><ele>733.0</ele><time>2026-04-18T10:02:50Z</time></trkpt><trkpt lat="45.20253527430982" lon="3.168044123041086"><ele>733.0</ele><time>2026-04-18T10:02:51Z</time></trkpt><trkpt lat="45.20245616053615" lon="3.1681467015865215"><ele>733.0</ele><time>2026-04-18T10:02:52Z</time></trkpt><trkpt lat="45.20240406294628" lon="3.1682825899149494"><ele>733.0</ele><time>2026-04-18T10:02:53Z</time></trkpt><trkpt lat="45.20238817295123" lon="3.1684455077373843"><ele>733.0</ele><time>2026-04-18T10:02:54Z</time></trkpt><trkpt lat="45.202403317652845" lon="3.1686091794806837"><ele>733.0</ele><time>2026-04-18T10:02:55Z</time></trkpt><trkpt lat="45.20243918093909" lon="3.1687625503879446"><ele>732.8</ele><time>2026-04-18T10:02:56Z</time></trkpt><trkpt lat="45.20248951582569" lon="3.168910274748502"><ele>732.5999999999999</ele><time>2026-04-18T10:02:57Z</time></trkpt><trkpt lat="45.20252458469065" lon="3.1690473197754585"><ele>732.4000000000001</ele><time>2026-04-18T10:02:58Z</time></trkpt><trkpt lat="45.202518242359226" lon="3.1691847598464222"><ele>732.2</ele><time>2026-04-18T10:02:59Z</time></trkpt><trkpt lat="45.20246692138185" lon="3.1693123297367447"><ele>732.0</ele><time>2026-04-18T10:03:00Z</time></trkpt><trkpt lat="45.20239077390962" lon="3.1694320429664486"><ele>738.75</ele><time>2026-04-18T10:03:01Z</time></trkpt><trkpt lat="45.20229354567543" lon="3.1695546960918666"><ele>745.5</ele><time>2026-04-18T10:03:02Z</time></trkpt><trkpt lat="45.2022003944691" lon="3.1696852755669482"><ele>752.25</ele><time>2026-04-18T10:03:03Z</time></trkpt><trkpt lat="45.202120091213025" lon="3.169822986134909"><ele>759.0</ele><time>2026-04-18T10:03:04Z</time></trkpt><trkpt lat="45.20206328700006" lon="3.169979655129779"><ele>759.0</ele><time>2026-04-18T10:03:05Z</time></trkpt><trkpt lat="45.20202837930456" lon="3.1701533244430493"><ele>759.0</ele><time>2026-04-18T10:03:06Z</time></trkpt><trkpt lat="45.20199524945284" lon="3.170321495630621"><ele>759.0</ele><time>2026-04-18T10:03:07Z</time></trkpt><trkpt lat="45.201958174032015" lon="3.170474508609254"><ele>759.0</ele><time>2026-04-18T10:03:08Z</time></trkpt><trkpt lat="45.201929571980386" lon="3.1706091766614763"><ele>757.1666666666666</ele><time>2026-04-18T10:03:09Z</time></trkpt><trkpt lat="45.20189879619567" lon="3.1707273106402787"><ele>755.3333333333334</ele><time>2026-04-18T10:03:10Z</time></trkpt><trkpt lat="45.20184439630885" lon="3.170811818787159"><ele>753.5</ele><time>2026-04-18T10:03:11Z</time></trkpt><trkpt lat="45.20176568046434" lon="3.1708545335569"><ele>751.6666666666667</ele><time>2026-04-18T10:03:12Z</time></trkpt><trkpt lat="45.20167022240214" lon="3.1708422739078608"><ele>749.8333333333334</ele><time>2026-04-18T10:03:13Z</time></trkpt><trkpt lat="45.2015770735633" lon="3.1708028325153172"><ele>748.0</ele><time>2026-04-18T10:03:14Z</time></trkpt><trkpt lat="45.20149729602805" lon="3.1707068386724613"><ele>752.25</ele><time>2026-04-18T10:03:15Z</time></trkpt><trkpt lat="45.20139050679385" lon="3.1706563406885033"><ele>756.5</ele><time>2026-04-18T10:03:16Z</time></trkpt><trkpt lat="45.20128433876656" lon="3.1705729107098852"><ele>760.75</ele><time>2026-04-18T10:03:17Z</time></trkpt><trkpt lat="45.20116690857424" lon="3.1704963692887196"><ele>765.0</ele><time>2026-04-18T10:03:18Z</time></trkpt><trkpt lat="45.201037582871685" lon="3.170428222254885"><ele>765.0</ele><time>2026-04-18T10:03:19Z</time></trkpt><trkpt lat="45.20089676476063" lon="3.1703672482493053"><ele>765.0</ele><time>2026-04-18T10:03:20Z</time></trkpt><trkpt lat="45.20074674106255" lon="3.1703097463857937"><ele>765.0</ele><time>2026-04-18T10:03:21Z</time></trkpt><trkpt lat="45.200576835730814" lon="3.1702516695752405"><ele>762.6666666666666</ele><time>2026-04-18T10:03:22Z</time></trkpt><trkpt lat="45.20038069680356" lon="3.1701921169275433"><ele>760.3333333333333</ele><time>2026-04-18T10:03:23Z</time></trkpt><trkpt lat="45.200165940105144" lon="3.1701273441546625"><ele>758.0</ele><time>2026-04-18T10:03:24Z</time></trkpt><trkpt lat="45.19996102208039" lon="3.1700667781307974"><ele>759.3333333333333</ele><time>2026-04-18T10:03:25Z</time></trkpt><trkpt lat="45.19977340568308" lon="3.1700094007491195"><ele>760.6666666666666</ele><time>2026-04-18T10:03:26Z</time></trkpt><trkpt lat="45.19960643165769" lon="3.169962518055059"><ele>762.0</ele><time>2026-04-18T10:03:27Z</time></trkpt><trkpt lat="45.19944536908911" lon="3.1699280336594846"><ele>762.0</ele><time>2026-04-18T10:03:28Z</time></trkpt><trkpt lat="45.19929247423231" lon="3.1699182383725875"><ele>762.0</ele><time>2026-04-18T10:03:29Z</time></trkpt><trkpt lat="45.1991379321265" lon="3.169911271691982"><ele>762.0</ele><time>2026-04-18T10:03:30Z</time></trkpt><trkpt lat="45.1989842602504" lon="3.1698876808367715"><ele>765.0</ele><time>2026-04-18T10:03:31Z</time></trkpt><trkpt lat="45.19882874739816" lon="3.1698685625501373"><ele>768.0</ele><time>2026-04-18T10:03:32Z</time></trkpt><trkpt lat="45.1986738531791" lon="3.1698867318663693"><ele>771.0</ele><time>2026-04-18T10:03:33Z</time></trkpt><trkpt lat="45.198500386788744" lon="3.169959102182729"><ele>771.0</ele><time>2026-04-18T10:03:34Z</time></trkpt><trkpt lat="45.19831156097056" lon="3.1699920129695482"><ele>771.0</ele><time>2026-04-18T10:03:35Z</time></trkpt><trkpt lat="45.19811367002069" lon="3.1700785627746866"><ele>771.0</ele><time>2026-04-18T10:03:36Z</time></trkpt><trkpt lat="45.19788818397642" lon="3.170147172313146"><ele>776.0</ele><time>2026-04-18T10:03:37Z</time></trkpt><trkpt lat="45.19767248164936" lon="3.1701881664535936"><ele>781.0</ele><time>2026-04-18T10:03:38Z</time></trkpt><trkpt lat="45.19748463783444" lon="3.170232088778155"><ele>786.0</ele><time>2026-04-18T10:03:39Z</time></trkpt><trkpt lat="45.19731740610226" lon="3.170253292318966"><ele>790.25</ele><time>2026-04-18T10:03:40Z</time></trkpt><trkpt lat="45.19716586999817" lon="3.1702770263215"><ele>794.5</ele><time>2026-04-18T10:03:41Z</time></trkpt><trkpt lat="45.19703251794599" lon="3.170350430221508"><ele>798.75</ele><time>2026-04-18T10:03:42Z</time></trkpt><trkpt lat="45.19689279500316" lon="3.1704139755234286"><ele>803.0</ele><time>2026-04-18T10:03:43Z</time></trkpt><trkpt lat="45.196758485129166" lon="3.1704392266662467"><ele>803.0</ele><time>2026-04-18T10:03:44Z</time></trkpt><trkpt lat="45.196598276492146" lon="3.170497735025044"><ele>803.0</ele><time>2026-04-18T10:03:45Z</time></trkpt><trkpt lat="45.19644945606499" lon="3.1705649903347988"><ele>803.0</ele><time>2026-04-18T10:03:46Z</time></trkpt><trkpt lat="45.19630158369881" lon="3.1706470247150205"><ele>799.3333333333334</ele><time>2026-04-18T10:03:47Z</time></trkpt><trkpt lat="45.19616175699004" lon="3.1707584764386145"><ele>795.6666666666667</ele><time>2026-04-18T10:03:48Z</time></trkpt><trkpt lat="45.19600812830283" lon="3.1708175137253285"><ele>792.0</ele><time>2026-04-18T10:03:49Z</time></trkpt><trkpt lat="45.1958578488566" lon="3.1708895510634236"><ele>792.0</ele><time>2026-04-18T10:03:50Z</time></trkpt><trkpt lat="45.195724807106345" lon="3.1709889670078546"><ele>792.0</ele><time>2026-04-18T10:03:51Z</time></trkpt><trkpt lat="45.195595916052845" lon="3.171093658746258"><ele>792.0</ele><time>2026-04-18T10:03:52Z</time></trkpt><trkpt lat="45.1954787880266" lon="3.171215451800646"><ele>792.0</ele><time>2026-04-18T10:03:53Z</time></trkpt><trkpt lat="45.195361904850536" lon="3.171346500564492"><ele>791.5</ele><time>2026-04-18T10:03:54Z</time></trkpt><trkpt lat="45.19524005832291" lon="3.1714394231039646"><ele>791.0</ele><time>2026-04-18T10:03:55Z</time></trkpt><trkpt lat="45.1951239779596" lon="3.171508726268496"><ele>790.5</ele><time>2026-04-18T10:03:56Z</time></trkpt><trkpt lat="45.19499207562144" lon="3.1715593185152033"><ele>790.0</ele><time>2026-04-18T10:03:57Z</time></trkpt><trkpt lat="45.19485062860264" lon="3.171606299204534"><ele>794.25</ele><time>2026-04-18T10:03:58Z</time></trkpt><trkpt lat="45.19472076120941" lon="3.171646442495853"><ele>798.5</ele><time>2026-04-18T10:03:59Z</time></trkpt><trkpt lat="45.194583794874085" lon="3.1716878975862115"><ele>802.75</ele><time>2026-04-18T10:04:00Z</time></trkpt><trkpt lat="45.19443214706398" lon="3.171734494084258"><ele>807.0</ele><time>2026-04-18T10:04:01Z</time></trkpt><trkpt lat="45.19429296945238" lon="3.1718081129754445"><ele>807.0</ele><time>2026-04-18T10:04:02Z</time></trkpt><trkpt lat="45.19415430866264" lon="3.171862490726801"><ele>807.0</ele><time>2026-04-18T10:04:03Z</time></trkpt><trkpt lat="45.19402166559752" lon="3.1719043701561858"><ele>807.0</ele><time>2026-04-18T10:04:04Z</time></trkpt><trkpt lat="45.19387828072773" lon="3.1719809556826113"><ele>807.0</ele><time>2026-04-18T10:04:05Z</time></trkpt><trkpt lat="45.19374246853599" lon="3.172062649922009"><ele>809.25</ele><time>2026-04-18T10:04:06Z</time></trkpt><trkpt lat="45.19362747445905" lon="3.172141260493862"><ele>811.5</ele><time>2026-04-18T10:04:07Z</time></trkpt><trkpt lat="45.193517314198516" lon="3.172221069094822"><ele>813.75</ele><time>2026-04-18T10:04:08Z</time></trkpt><trkpt lat="45.19341573307654" lon="3.172289749801267"><ele>816.0</ele><time>2026-04-18T10:04:09Z</time></trkpt><trkpt lat="45.19331825419375" lon="3.1723506369540817"><ele>814.4</ele><time>2026-04-18T10:04:10Z</time></trkpt><trkpt lat="45.193219430423575" lon="3.1723887270171796"><ele>812.8</ele><time>2026-04-18T10:04:11Z</time></trkpt><trkpt lat="45.1931205828522" lon="3.172378486420164"><ele>811.1999999999999</ele><time>2026-04-18T10:04:12Z</time></trkpt><trkpt lat="45.19302272383076" lon="3.172333955118861"><ele>809.5999999999999</ele><time>2026-04-18T10:04:13Z</time></trkpt><trkpt lat="45.19294404852692" lon="3.1722236419115233"><ele>808.0</ele><time>2026-04-18T10:04:14Z</time></trkpt><trkpt lat="45.19287494788176" lon="3.1720781259598785"><ele>806.75</ele><time>2026-04-18T10:04:15Z</time></trkpt><trkpt lat="45.19280514234372" lon="3.171918389419166"><ele>805.5</ele><time>2026-04-18T10:04:16Z</time></trkpt><trkpt lat="45.19271944280931" lon="3.171749526757394"><ele>804.25</ele><time>2026-04-18T10:04:17Z</time></trkpt><trkpt lat="45.192627064427825" lon="3.1715802174771897"><ele>803.0</ele><time>2026-04-18T10:04:18Z</time></trkpt><trkpt lat="45.19252496856218" lon="3.1714231665547814"><ele>805.3333333333334</ele><time>2026-04-18T10:04:19Z</time></trkpt><trkpt lat="45.19241275706869" lon="3.1712658319362736"><ele>807.6666666666667</ele><time>2026-04-18T10:04:20Z</time></trkpt><trkpt lat="45.19230473714698" lon="3.1711126533799114"><ele>810.0</ele><time>2026-04-18T10:04:21Z</time></trkpt><trkpt lat="45.192196650248555" lon="3.170943294254904"><ele>810.0</ele><time>2026-04-18T10:04:22Z</time></trkpt><trkpt lat="45.19208921594737" lon="3.1708039048929684"><ele>810.0</ele><time>2026-04-18T10:04:23Z</time></trkpt><trkpt lat="45.19197646096496" lon="3.1706556466280666"><ele>810.0</ele><time>2026-04-18T10:04:24Z</time></trkpt><trkpt lat="45.19186063014955" lon="3.170517254036028"><ele>811.25</ele><time>2026-04-18T10:04:25Z</time></trkpt><trkpt lat="45.1917389475243" lon="3.170391288667652"><ele>812.5</ele><time>2026-04-18T10:04:26Z</time></trkpt><trkpt lat="45.19160988532307" lon="3.1702841617257227"><ele>813.75</ele><time>2026-04-18T10:04:27Z</time></trkpt><trkpt lat="45.19147821560584" lon="3.170184898406562"><ele>815.0</ele><time>2026-04-18T10:04:28Z</time></trkpt><trkpt lat="45.19134435572268" lon="3.1700931509078716"><ele>815.0</ele><time>2026-04-18T10:04:29Z</time></trkpt><trkpt lat="45.1912138392806" lon="3.1699936107772575"><ele>815.0</ele><time>2026-04-18T10:04:30Z</time></trkpt><trkpt lat="45.19108504014477" lon="3.1699021924891895"><ele>815.0</ele><time>2026-04-18T10:04:31Z</time></trkpt><trkpt lat="45.19095034369497" lon="3.1698285962086006"><ele>815.0</ele><time>2026-04-18T10:04:32Z</time></trkpt><trkpt lat="45.190806011527876" lon="3.169785891496851"><ele>818.6666666666667</ele><time>2026-04-18T10:04:33Z</time></trkpt><trkpt lat="45.19065604501781" lon="3.169781213968649"><ele>822.3333333333333</ele><time>2026-04-18T10:04:34Z</time></trkpt><trkpt lat="45.19050260883844" lon="3.1697745064867293"><ele>826.0</ele><time>2026-04-18T10:04:35Z</time></trkpt><trkpt lat="45.19034688383617" lon="3.1697838422688056"><ele>826.0</ele><time>2026-04-18T10:04:36Z</time></trkpt><trkpt lat="45.19018802742059" lon="3.1697741194540634"><ele>826.0</ele><time>2026-04-18T10:04:37Z</time></trkpt><trkpt lat="45.19002863206746" lon="3.1697879997373826"><ele>826.0</ele><time>2026-04-18T10:04:38Z</time></trkpt><trkpt lat="45.18988516063333" lon="3.169801176847177"><ele>825.0</ele><time>2026-04-18T10:04:39Z</time></trkpt><trkpt lat="45.18974786906825" lon="3.1698369099659045"><ele>824.0</ele><time>2026-04-18T10:04:40Z</time></trkpt><trkpt lat="45.18961654527275" lon="3.1698103765703705"><ele>823.0</ele><time>2026-04-18T10:04:41Z</time></trkpt><trkpt lat="45.189498677991075" lon="3.169769294395087"><ele>822.0</ele><time>2026-04-18T10:04:42Z</time></trkpt><trkpt lat="45.189374719968995" lon="3.1696881975273685"><ele>822.0</ele><time>2026-04-18T10:04:43Z</time></trkpt><trkpt lat="45.189254810651335" lon="3.1695573118202143"><ele>822.0</ele><time>2026-04-18T10:04:44Z</time></trkpt><trkpt lat="45.18912090758914" lon="3.169398266513923"><ele>822.0</ele><time>2026-04-18T10:04:45Z</time></trkpt><trkpt lat="45.18896600384581" lon="3.1692390068976457"><ele>822.0</ele><time>2026-04-18T10:04:46Z</time></trkpt><trkpt lat="45.18879372153411" lon="3.169101417088773"><ele>822.0</ele><time>2026-04-18T10:04:47Z</time></trkpt><trkpt lat="45.188634563797436" lon="3.168894370299942"><ele>822.0</ele><time>2026-04-18T10:04:48Z</time></trkpt><trkpt lat="45.18845442936917" lon="3.1686745394395737"><ele>822.0</ele><time>2026-04-18T10:04:49Z</time></trkpt><trkpt lat="45.18826298795879" lon="3.168453717400137"><ele>822.0</ele><time>2026-04-18T10:04:50Z</time></trkpt><trkpt lat="45.18806950622276" lon="3.168229765458451"><ele>826.5</ele><time>2026-04-18T10:04:51Z</time></trkpt><trkpt lat="45.187868573305224" lon="3.1680194885129627"><ele>831.0</ele><time>2026-04-18T10:04:52Z</time></trkpt><trkpt lat="45.18769100803324" lon="3.1678375393272815"><ele>831.0</ele><time>2026-04-18T10:04:53Z</time></trkpt><trkpt lat="45.18753948737602" lon="3.16768367960018"><ele>831.0</ele><time>2026-04-18T10:04:54Z</time></trkpt><trkpt lat="45.187421384078235" lon="3.16751424264973"><ele>831.0</ele><time>2026-04-18T10:04:55Z</time></trkpt><trkpt lat="45.18732057311147" lon="3.1673606685580906"><ele>833.0</ele><time>2026-04-18T10:04:56Z</time></trkpt><trkpt lat="45.18722799905073" lon="3.167228004843589"><ele>835.0</ele><time>2026-04-18T10:04:57Z</time></trkpt><trkpt lat="45.18715773314665" lon="3.1670848635300355"><ele>837.0</ele><time>2026-04-18T10:04:58Z</time></trkpt><trkpt lat="45.18708983347893" lon="3.1669551527696225"><ele>839.0</ele><time>2026-04-18T10:04:59Z</time></trkpt><trkpt lat="45.18702329561991" lon="3.1668201288550155"><ele>839.0</ele><time>2026-04-18T10:05:00Z</time></trkpt><trkpt lat="45.186974902248465" lon="3.166680907396223"><ele>839.0</ele><time>2026-04-18T10:05:01Z</time></trkpt><trkpt lat="45.18696564663268" lon="3.1665513748518745"><ele>839.0</ele><time>2026-04-18T10:05:02Z</time></trkpt><trkpt lat="45.18699942819738" lon="3.1664317648265294"><ele>839.0</ele><time>2026-04-18T10:05:03Z</time></trkpt><trkpt lat="45.187011185350734" lon="3.1662936404509736"><ele>839.0</ele><time>2026-04-18T10:05:04Z</time></trkpt><trkpt lat="45.18704333132931" lon="3.166136914330372"><ele>839.75</ele><time>2026-04-18T10:05:05Z</time></trkpt><trkpt lat="45.18707252193175" lon="3.1659629093136252"><ele>840.5</ele><time>2026-04-18T10:05:06Z</time></trkpt><trkpt lat="45.18709635728722" lon="3.1657729583414733"><ele>841.25</ele><time>2026-04-18T10:05:07Z</time></trkpt><trkpt lat="45.18709885131845" lon="3.165580053984739"><ele>842.0</ele><time>2026-04-18T10:05:08Z</time></trkpt><trkpt lat="45.187075224781005" lon="3.165396616044059"><ele>842.75</ele><time>2026-04-18T10:05:09Z</time></trkpt><trkpt lat="45.187030785300195" lon="3.165226262332388"><ele>843.5</ele><time>2026-04-18T10:05:10Z</time></trkpt><trkpt lat="45.18697911508316" lon="3.16506454668947"><ele>844.25</ele><time>2026-04-18T10:05:11Z</time></trkpt><trkpt lat="45.18693432487195" lon="3.1649051197395726"><ele>845.0</ele><time>2026-04-18T10:05:12Z</time></trkpt><trkpt lat="45.186896125200526" lon="3.1647538445753343"><ele>846.6</ele><time>2026-04-18T10:05:13Z</time></trkpt><trkpt lat="45.18688399134884" lon="3.1646057019738882"><ele>848.2</ele><time>2026-04-18T10:05:14Z</time></trkpt><trkpt lat="45.18684917461727" lon="3.164472376127864"><ele>849.8</ele><time>2026-04-18T10:05:15Z</time></trkpt><trkpt lat="45.18683198926129" lon="3.164336217898884"><ele>851.4</ele><time>2026-04-18T10:05:16Z</time></trkpt><trkpt lat="45.18681604312505" lon="3.164200073318345"><ele>853.0</ele><time>2026-04-18T10:05:17Z</time></trkpt><trkpt lat="45.18680285229443" lon="3.164060899224056"><ele>853.8</ele><time>2026-04-18T10:05:18Z</time></trkpt><trkpt lat="45.18679439913232" lon="3.1639109029000387"><ele>854.5999999999999</ele><time>2026-04-18T10:05:19Z</time></trkpt><trkpt lat="45.1867914156733" lon="3.1637523334173667"><ele>855.4000000000001</ele><time>2026-04-18T10:05:20Z</time></trkpt><trkpt lat="45.18679520486981" lon="3.1635976457771666"><ele>856.2</ele><time>2026-04-18T10:05:21Z</time></trkpt><trkpt lat="45.18680105395086" lon="3.163456891551809"><ele>857.0</ele><time>2026-04-18T10:05:22Z</time></trkpt><trkpt lat="45.186800838354465" lon="3.1633444362048753"><ele>857.0</ele><time>2026-04-18T10:05:23Z</time></trkpt><trkpt lat="45.186794412724936" lon="3.163240305539225"><ele>857.0</ele><time>2026-04-18T10:05:24Z</time></trkpt><trkpt lat="45.18674562459676" lon="3.163079756432021"><ele>857.0</ele><time>2026-04-18T10:05:26Z</time></trkpt><trkpt lat="45.18668068350452" lon="3.162971338826175"><ele>857.0</ele><time>2026-04-18T10:05:28Z</time></trkpt><trkpt lat="45.186629350206644" lon="3.1628985911982306"><ele>857.0</ele><time>2026-04-18T10:05:30Z</time></trkpt><trkpt lat="45.18648840692226" lon="3.162961845958476"><ele>857.5000000000001</ele><time>2026-04-18T10:05:35Z</time></trkpt><trkpt lat="45.1863979100973" lon="3.163062623092234"><ele>858.0</ele><time>2026-04-18T10:05:37Z</time></trkpt><trkpt lat="45.186336849936374" lon="3.1631334395482242"><ele>858.5</ele><time>2026-04-18T10:05:38Z</time></trkpt><trkpt lat="45.1862806735929" lon="3.1632239740371886"><ele>859.0</ele><time>2026-04-18T10:05:39Z</time></trkpt><trkpt lat="45.18622781380336" lon="3.1633140040192234"><ele>859.5000000000001</ele><time>2026-04-18T10:05:40Z</time></trkpt><trkpt lat="45.18616238616541" lon="3.1633882093203223"><ele>860.0</ele><time>2026-04-18T10:05:41Z</time></trkpt><trkpt lat="45.1860832397823" lon="3.163453167073221"><ele>860.0</ele><time>2026-04-18T10:05:42Z</time></trkpt><trkpt lat="45.1859987989921" lon="3.163510561688888"><ele>860.0</ele><time>2026-04-18T10:05:43Z</time></trkpt><trkpt lat="45.18591178827556" lon="3.163572849626542"><ele>860.0</ele><time>2026-04-18T10:05:44Z</time></trkpt><trkpt lat="45.18581674273001" lon="3.1636316457218947"><ele>860.0</ele><time>2026-04-18T10:05:45Z</time></trkpt><trkpt lat="45.18571845781769" lon="3.163677102690747"><ele>860.0</ele><time>2026-04-18T10:05:46Z</time></trkpt><trkpt lat="45.18561287387369" lon="3.16371438917023"><ele>859.5</ele><time>2026-04-18T10:05:47Z</time></trkpt><trkpt lat="45.185500019334555" lon="3.163751852435526"><ele>859.0</ele><time>2026-04-18T10:05:48Z</time></trkpt><trkpt lat="45.185386515349" lon="3.1637882508730706"><ele>858.5</ele><time>2026-04-18T10:05:49Z</time></trkpt><trkpt lat="45.185269629440484" lon="3.1638300096909235"><ele>858.0</ele><time>2026-04-18T10:05:50Z</time></trkpt><trkpt lat="45.1851488420504" lon="3.1638732295884298"><ele>858.0</ele><time>2026-04-18T10:05:51Z</time></trkpt><trkpt lat="45.18502627085743" lon="3.163918525582336"><ele>858.0</ele><time>2026-04-18T10:05:52Z</time></trkpt><trkpt lat="45.184896507355305" lon="3.1639605812903544"><ele>858.0</ele><time>2026-04-18T10:05:53Z</time></trkpt><trkpt lat="45.18476195805189" lon="3.1640056480312126"><ele>858.0</ele><time>2026-04-18T10:05:54Z</time></trkpt><trkpt lat="45.18462400798703" lon="3.164052458191651"><ele>856.5</ele><time>2026-04-18T10:05:55Z</time></trkpt><trkpt lat="45.18449196075813" lon="3.1640944208175643"><ele>855.0</ele><time>2026-04-18T10:05:56Z</time></trkpt><trkpt lat="45.184363620550805" lon="3.1641415243251463"><ele>853.5</ele><time>2026-04-18T10:05:57Z</time></trkpt><trkpt lat="45.18423541172088" lon="3.1641947472822785"><ele>852.0</ele><time>2026-04-18T10:05:58Z</time></trkpt><trkpt lat="45.18411048236364" lon="3.1642604775508643"><ele>851.25</ele><time>2026-04-18T10:05:59Z</time></trkpt><trkpt lat="45.183987483577496" lon="3.1643400825235415"><ele>850.5</ele><time>2026-04-18T10:06:00Z</time></trkpt><trkpt lat="45.18386836741942" lon="3.164424295219012"><ele>849.75</ele><time>2026-04-18T10:06:01Z</time></trkpt><trkpt lat="45.18375021398727" lon="3.16452603340305"><ele>849.0</ele><time>2026-04-18T10:06:02Z</time></trkpt><trkpt lat="45.18363844824392" lon="3.16464935925625"><ele>849.0</ele><time>2026-04-18T10:06:03Z</time></trkpt><trkpt lat="45.1835264000426" lon="3.1647939865149115"><ele>849.0</ele><time>2026-04-18T10:06:04Z</time></trkpt><trkpt lat="45.183413856923394" lon="3.1649425445761223"><ele>849.0</ele><time>2026-04-18T10:06:05Z</time></trkpt><trkpt lat="45.18329761156254" lon="3.165095469404765"><ele>848.0</ele><time>2026-04-18T10:06:06Z</time></trkpt><trkpt lat="45.18318359677287" lon="3.1652489147579908"><ele>847.0</ele><time>2026-04-18T10:06:07Z</time></trkpt><trkpt lat="45.18306871233077" lon="3.1653984340687735"><ele>846.0</ele><time>2026-04-18T10:06:08Z</time></trkpt><trkpt lat="45.18296796026207" lon="3.165534593423904"><ele>845.75</ele><time>2026-04-18T10:06:09Z</time></trkpt><trkpt lat="45.182867625813124" lon="3.1656609979804737"><ele>845.5</ele><time>2026-04-18T10:06:10Z</time></trkpt><trkpt lat="45.18277377540028" lon="3.165780077644909"><ele>845.25</ele><time>2026-04-18T10:06:11Z</time></trkpt><trkpt lat="45.18268632325533" lon="3.1658948132186535"><ele>845.0</ele><time>2026-04-18T10:06:12Z</time></trkpt><trkpt lat="45.182599482084704" lon="3.1659919148810216"><ele>845.5</ele><time>2026-04-18T10:06:13Z</time></trkpt><trkpt lat="45.18256047132593" lon="3.1661175248507902"><ele>846.0</ele><time>2026-04-18T10:06:14Z</time></trkpt><trkpt lat="45.18238997253969" lon="3.166084157102891"><ele>846.5</ele><time>2026-04-18T10:06:15Z</time></trkpt><trkpt lat="45.182262546991076" lon="3.166097151641699"><ele>847.0</ele><time>2026-04-18T10:06:16Z</time></trkpt><trkpt lat="45.18213635135676" lon="3.166132645461573"><ele>848.75</ele><time>2026-04-18T10:06:17Z</time></trkpt><trkpt lat="45.182008148743115" lon="3.1661582566238105"><ele>850.5</ele><time>2026-04-18T10:06:18Z</time></trkpt><trkpt lat="45.18188035928169" lon="3.1662145352671045"><ele>852.25</ele><time>2026-04-18T10:06:19Z</time></trkpt><trkpt lat="45.181750519795735" lon="3.166276195014855"><ele>854.0</ele><time>2026-04-18T10:06:20Z</time></trkpt><trkpt lat="45.18161998341596" lon="3.166337724360748"><ele>855.25</ele><time>2026-04-18T10:06:21Z</time></trkpt><trkpt lat="45.18149608891935" lon="3.1663943301252395"><ele>856.5</ele><time>2026-04-18T10:06:22Z</time></trkpt><trkpt lat="45.18138888897692" lon="3.1664482941009484"><ele>857.75</ele><time>2026-04-18T10:06:23Z</time></trkpt><trkpt lat="45.18128074987622" lon="3.1665074430689737"><ele>859.0</ele><time>2026-04-18T10:06:24Z</time></trkpt><trkpt lat="45.18117278452574" lon="3.1665712688438568"><ele>859.0</ele><time>2026-04-18T10:06:25Z</time></trkpt><trkpt lat="45.181060087674865" lon="3.1666344167511222"><ele>859.0</ele><time>2026-04-18T10:06:26Z</time></trkpt><trkpt lat="45.18094267868524" lon="3.166703687912109"><ele>859.0</ele><time>2026-04-18T10:06:27Z</time></trkpt><trkpt lat="45.18083166123401" lon="3.1667563740134246"><ele>859.0</ele><time>2026-04-18T10:06:28Z</time></trkpt><trkpt lat="45.180729796445505" lon="3.1668053937289593"><ele>859.1666666666666</ele><time>2026-04-18T10:06:29Z</time></trkpt><trkpt lat="45.180641730868174" lon="3.1668560853128835"><ele>859.3333333333333</ele><time>2026-04-18T10:06:30Z</time></trkpt><trkpt lat="45.180573367065456" lon="3.1668947060758197"><ele>859.5</ele><time>2026-04-18T10:06:31Z</time></trkpt><trkpt lat="45.180496210576656" lon="3.1669357191764576"><ele>859.6666666666667</ele><time>2026-04-18T10:06:33Z</time></trkpt><trkpt lat="45.180426767628454" lon="3.1669422498836535"><ele>859.8333333333334</ele><time>2026-04-18T10:06:45Z</time></trkpt><trkpt lat="45.18033175709004" lon="3.1668586629347044"><ele>860.0</ele><time>2026-04-18T10:06:47Z</time></trkpt><trkpt lat="45.180226661854746" lon="3.1667278060403072"><ele>860.0</ele><time>2026-04-18T10:06:49Z</time></trkpt><trkpt lat="45.180156816936865" lon="3.166644915142478"><ele>860.0</ele><time>2026-04-18T10:06:50Z</time></trkpt><trkpt lat="45.18007940060061" lon="3.166560106514188"><ele>860.0</ele><time>2026-04-18T10:06:51Z</time></trkpt><trkpt lat="45.17999638651688" lon="3.1664742475103873"><ele>860.0</ele><time>2026-04-18T10:06:52Z</time></trkpt><trkpt lat="45.17991008379858" lon="3.166384996577455"><ele>860.0</ele><time>2026-04-18T10:06:53Z</time></trkpt><trkpt lat="45.179817521625345" lon="3.166286173135016"><ele>862.25</ele><time>2026-04-18T10:06:54Z</time></trkpt><trkpt lat="45.17972681299154" lon="3.1661871203016663"><ele>864.5</ele><time>2026-04-18T10:06:55Z</time></trkpt><trkpt lat="45.179634308234995" lon="3.1660810702920514"><ele>866.75</ele><time>2026-04-18T10:06:56Z</time></trkpt><trkpt lat="45.17953771258999" lon="3.1659667543904426"><ele>869.0</ele><time>2026-04-18T10:06:57Z</time></trkpt><trkpt lat="45.17943451386898" lon="3.1658492548390336"><ele>869.0</ele><time>2026-04-18T10:06:58Z</time></trkpt><trkpt lat="45.17932682343044" lon="3.1657265853290646"><ele>869.0</ele><time>2026-04-18T10:06:59Z</time></trkpt><trkpt lat="45.179221936121024" lon="3.165603121613239"><ele>869.0</ele><time>2026-04-18T10:07:00Z</time></trkpt><trkpt lat="45.17911312123331" lon="3.1654774922054396"><ele>869.0</ele><time>2026-04-18T10:07:01Z</time></trkpt><trkpt lat="45.1790011746935" lon="3.1653520311114285"><ele>870.0</ele><time>2026-04-18T10:07:02Z</time></trkpt><trkpt lat="45.17888810329266" lon="3.165225442107919"><ele>871.0</ele><time>2026-04-18T10:07:03Z</time></trkpt><trkpt lat="45.17877499222238" lon="3.1650979261204224"><ele>872.0</ele><time>2026-04-18T10:07:04Z</time></trkpt><trkpt lat="45.17865985847982" lon="3.164969889346482"><ele>873.0</ele><time>2026-04-18T10:07:05Z</time></trkpt><trkpt lat="45.17854058880962" lon="3.164836848012962"><ele>873.0</ele><time>2026-04-18T10:07:06Z</time></trkpt><trkpt lat="45.17842479712156" lon="3.1647073576830613"><ele>873.0</ele><time>2026-04-18T10:07:07Z</time></trkpt><trkpt lat="45.17830549225018" lon="3.164573109388419"><ele>873.0</ele><time>2026-04-18T10:07:08Z</time></trkpt><trkpt lat="45.178179327161146" lon="3.1644341442554818"><ele>873.3333333333333</ele><time>2026-04-18T10:07:09Z</time></trkpt><trkpt lat="45.17804925980538" lon="3.164288051466583"><ele>873.6666666666666</ele><time>2026-04-18T10:07:10Z</time></trkpt><trkpt lat="45.177915403817494" lon="3.164139289366548"><ele>874.0</ele><time>2026-04-18T10:07:11Z</time></trkpt><trkpt lat="45.17777588014155" lon="3.1639814992451876"><ele>874.0</ele><time>2026-04-18T10:07:12Z</time></trkpt><trkpt lat="45.177637923167936" lon="3.163821177658756"><ele>874.0</ele><time>2026-04-18T10:07:13Z</time></trkpt><trkpt lat="45.1774966532035" lon="3.163657624164737"><ele>874.0</ele><time>2026-04-18T10:07:14Z</time></trkpt><trkpt lat="45.177350885920916" lon="3.1634928434691125"><ele>876.6666666666666</ele><time>2026-04-18T10:07:15Z</time></trkpt><trkpt lat="45.17720001043963" lon="3.1633209540873333"><ele>879.3333333333333</ele><time>2026-04-18T10:07:16Z</time></trkpt><trkpt lat="45.17704846145228" lon="3.163147430355963"><ele>882.0</ele><time>2026-04-18T10:07:17Z</time></trkpt><trkpt lat="45.176895758196075" lon="3.1629726630070114"><ele>882.0</ele><time>2026-04-18T10:07:18Z</time></trkpt><trkpt lat="45.17674600471971" lon="3.162797540837523"><ele>882.0</ele><time>2026-04-18T10:07:19Z</time></trkpt><trkpt lat="45.17659602075039" lon="3.162627649936404"><ele>882.0</ele><time>2026-04-18T10:07:20Z</time></trkpt><trkpt lat="45.17645740610271" lon="3.16246609874085"><ele>883.6666666666667</ele><time>2026-04-18T10:07:21Z</time></trkpt><trkpt lat="45.17631139660921" lon="3.162305413084242"><ele>885.3333333333334</ele><time>2026-04-18T10:07:22Z</time></trkpt><trkpt lat="45.17616437734273" lon="3.1621447624389805"><ele>887.0</ele><time>2026-04-18T10:07:23Z</time></trkpt><trkpt lat="45.176017881042505" lon="3.1619804495591874"><ele>887.0</ele><time>2026-04-18T10:07:24Z</time></trkpt><trkpt lat="45.17587113674541" lon="3.161815045046892"><ele>887.0</ele><time>2026-04-18T10:07:25Z</time></trkpt><trkpt lat="45.17572583377559" lon="3.1616444818595504"><ele>887.0</ele><time>2026-04-18T10:07:26Z</time></trkpt><trkpt lat="45.17557617842923" lon="3.161471575600354"><ele>888.0</ele><time>2026-04-18T10:07:27Z</time></trkpt><trkpt lat="45.1754244975988" lon="3.161300296155904"><ele>889.0</ele><time>2026-04-18T10:07:28Z</time></trkpt><trkpt lat="45.1752720170357" lon="3.161129806663266"><ele>890.0</ele><time>2026-04-18T10:07:29Z</time></trkpt><trkpt lat="45.17511993082214" lon="3.160960342097738"><ele>890.0</ele><time>2026-04-18T10:07:30Z</time></trkpt><trkpt lat="45.17496527970671" lon="3.1607876071723746"><ele>890.0</ele><time>2026-04-18T10:07:31Z</time></trkpt><trkpt lat="45.17480757239144" lon="3.160612665020575"><ele>890.0</ele><time>2026-04-18T10:07:32Z</time></trkpt><trkpt lat="45.17464774464236" lon="3.160426880728506"><ele>889.6666666666667</ele><time>2026-04-18T10:07:33Z</time></trkpt><trkpt lat="45.174482822490305" lon="3.160238700738944"><ele>889.3333333333333</ele><time>2026-04-18T10:07:34Z</time></trkpt><trkpt lat="45.174317369800775" lon="3.160054449909036"><ele>889.0</ele><time>2026-04-18T10:07:35Z</time></trkpt><trkpt lat="45.17415086894144" lon="3.159866226321177"><ele>891.3333333333333</ele><time>2026-04-18T10:07:36Z</time></trkpt><trkpt lat="45.17398168756723" lon="3.159673653838228"><ele>893.6666666666667</ele><time>2026-04-18T10:07:37Z</time></trkpt><trkpt lat="45.17381662134538" lon="3.1594853940899403"><ele>896.0</ele><time>2026-04-18T10:07:38Z</time></trkpt><trkpt lat="45.173648639741636" lon="3.1592964921079445"><ele>896.0</ele><time>2026-04-18T10:07:39Z</time></trkpt><trkpt lat="45.17348143527177" lon="3.1591055758944795"><ele>896.0</ele><time>2026-04-18T10:07:40Z</time></trkpt><trkpt lat="45.17331611505134" lon="3.158915042604833"><ele>896.0</ele><time>2026-04-18T10:07:41Z</time></trkpt><trkpt lat="45.173150292480564" lon="3.1587233733746998"><ele>896.6666666666667</ele><time>2026-04-18T10:07:42Z</time></trkpt><trkpt lat="45.172984662498806" lon="3.1585325359347864"><ele>897.3333333333333</ele><time>2026-04-18T10:07:43Z</time></trkpt><trkpt lat="45.17281477706479" lon="3.1583467098942095"><ele>898.0</ele><time>2026-04-18T10:07:44Z</time></trkpt><trkpt lat="45.172649183549574" lon="3.158162632604287"><ele>898.0</ele><time>2026-04-18T10:07:45Z</time></trkpt><trkpt lat="45.17248155807415" lon="3.1579724347172484"><ele>898.0</ele><time>2026-04-18T10:07:46Z</time></trkpt><trkpt lat="45.17231563301577" lon="3.1577841235203645"><ele>898.0</ele><time>2026-04-18T10:07:47Z</time></trkpt><trkpt lat="45.17215163975802" lon="3.157598234357326"><ele>899.0</ele><time>2026-04-18T10:07:48Z</time></trkpt><trkpt lat="45.17198688592927" lon="3.15740942542407"><ele>900.0</ele><time>2026-04-18T10:07:49Z</time></trkpt><trkpt lat="45.17182088182571" lon="3.1572204545089853"><ele>901.0</ele><time>2026-04-18T10:07:50Z</time></trkpt><trkpt lat="45.17165716047797" lon="3.1570305779675603"><ele>902.0</ele><time>2026-04-18T10:07:51Z</time></trkpt><trkpt lat="45.1714925293969" lon="3.1568455317447124"><ele>903.0</ele><time>2026-04-18T10:07:52Z</time></trkpt><trkpt lat="45.171328232312156" lon="3.1566598336186527"><ele>904.0</ele><time>2026-04-18T10:07:53Z</time></trkpt><trkpt lat="45.17117143315134" lon="3.1564826163272133"><ele>904.0</ele><time>2026-04-18T10:07:54Z</time></trkpt><trkpt lat="45.17100993156233" lon="3.156306389474626"><ele>904.0</ele><time>2026-04-18T10:07:55Z</time></trkpt><trkpt lat="45.17084645737938" lon="3.156126363686724"><ele>904.0</ele><time>2026-04-18T10:07:56Z</time></trkpt><trkpt lat="45.1706803544147" lon="3.155937294098926"><ele>905.3333333333333</ele><time>2026-04-18T10:07:57Z</time></trkpt><trkpt lat="45.170513233488535" lon="3.1557440039464444"><ele>906.6666666666667</ele><time>2026-04-18T10:07:58Z</time></trkpt><trkpt lat="45.17034983008162" lon="3.155553485277527"><ele>908.0</ele><time>2026-04-18T10:07:59Z</time></trkpt><trkpt lat="45.170184168947785" lon="3.155366814211051"><ele>908.0</ele><time>2026-04-18T10:08:00Z</time></trkpt><trkpt lat="45.170019412861954" lon="3.1551802330527847"><ele>908.0</ele><time>2026-04-18T10:08:01Z</time></trkpt><trkpt lat="45.1698544848298" lon="3.1549974650121366"><ele>908.0</ele><time>2026-04-18T10:08:02Z</time></trkpt><trkpt lat="45.169690630835625" lon="3.1548168934904965"><ele>909.0</ele><time>2026-04-18T10:08:03Z</time></trkpt><trkpt lat="45.16952489261383" lon="3.1546306670620563"><ele>910.0</ele><time>2026-04-18T10:08:04Z</time></trkpt><trkpt lat="45.16936052711283" lon="3.154448725203777"><ele>911.0</ele><time>2026-04-18T10:08:05Z</time></trkpt><trkpt lat="45.16918899093662" lon="3.1542782422270332"><ele>910.6666666666667</ele><time>2026-04-18T10:08:06Z</time></trkpt><trkpt lat="45.16900822977562" lon="3.1541237480069557"><ele>910.3333333333333</ele><time>2026-04-18T10:08:07Z</time></trkpt><trkpt lat="45.168817703320904" lon="3.1539794448576917"><ele>910.0</ele><time>2026-04-18T10:08:08Z</time></trkpt><trkpt lat="45.16862516433858" lon="3.153843185243038"><ele>910.0</ele><time>2026-04-18T10:08:09Z</time></trkpt><trkpt lat="45.16843176087398" lon="3.153702110994677"><ele>910.0</ele><time>2026-04-18T10:08:10Z</time></trkpt><trkpt lat="45.16823530709474" lon="3.153552160607978"><ele>910.0</ele><time>2026-04-18T10:08:11Z</time></trkpt><trkpt lat="45.16804161009432" lon="3.1534029407800945"><ele>910.3333333333333</ele><time>2026-04-18T10:08:12Z</time></trkpt><trkpt lat="45.1678507729639" lon="3.1532615342548453"><ele>910.6666666666667</ele><time>2026-04-18T10:08:13Z</time></trkpt><trkpt lat="45.16765817209202" lon="3.1531205518157654"><ele>911.0</ele><time>2026-04-18T10:08:14Z</time></trkpt><trkpt lat="45.1674639489565" lon="3.1529735919999475"><ele>913.3333333333334</ele><time>2026-04-18T10:08:15Z</time></trkpt><trkpt lat="45.167280850395485" lon="3.152839822828889"><ele>915.6666666666667</ele><time>2026-04-18T10:08:16Z</time></trkpt><trkpt lat="45.16710227871564" lon="3.1527090549251113"><ele>918.0</ele><time>2026-04-18T10:08:17Z</time></trkpt><trkpt lat="45.166910546954426" lon="3.1525660629551173"><ele>918.0</ele><time>2026-04-18T10:08:18Z</time></trkpt><trkpt lat="45.16673167909717" lon="3.152440694123912"><ele>918.0</ele><time>2026-04-18T10:08:19Z</time></trkpt><trkpt lat="45.16653501950368" lon="3.152289880900617"><ele>918.0</ele><time>2026-04-18T10:08:20Z</time></trkpt><trkpt lat="45.16634737350771" lon="3.1521473549780463"><ele>916.0</ele><time>2026-04-18T10:08:21Z</time></trkpt><trkpt lat="45.16615334437867" lon="3.15199835305789"><ele>914.0</ele><time>2026-04-18T10:08:22Z</time></trkpt><trkpt lat="45.165966902514164" lon="3.151866801469753"><ele>912.0</ele><time>2026-04-18T10:08:23Z</time></trkpt><trkpt lat="45.16577499668976" lon="3.1517278672210756"><ele>912.0</ele><time>2026-04-18T10:08:24Z</time></trkpt><trkpt lat="45.16558729197281" lon="3.1515915512302612"><ele>912.0</ele><time>2026-04-18T10:08:25Z</time></trkpt><trkpt lat="45.16539756781043" lon="3.1514510662774025"><ele>912.0</ele><time>2026-04-18T10:08:26Z</time></trkpt><trkpt lat="45.16521362603213" lon="3.1513114037509156"><ele>912.0</ele><time>2026-04-18T10:08:27Z</time></trkpt><trkpt lat="45.165029744839146" lon="3.1511726089802723"><ele>912.0</ele><time>2026-04-18T10:08:28Z</time></trkpt><trkpt lat="45.16483687886896" lon="3.151024372015883"><ele>912.0</ele><time>2026-04-18T10:08:29Z</time></trkpt><trkpt lat="45.16465789109841" lon="3.1509011648000067"><ele>914.0</ele><time>2026-04-18T10:08:30Z</time></trkpt><trkpt lat="45.16447512437697" lon="3.1507704458813555"><ele>916.0</ele><time>2026-04-18T10:08:31Z</time></trkpt><trkpt lat="45.16429802922344" lon="3.150643543084092"><ele>918.0</ele><time>2026-04-18T10:08:32Z</time></trkpt><trkpt lat="45.164117082654684" lon="3.150504998131761"><ele>920.0</ele><time>2026-04-18T10:08:33Z</time></trkpt><trkpt lat="45.163943649064514" lon="3.150374700455639"><ele>922.0</ele><time>2026-04-18T10:08:34Z</time></trkpt><trkpt lat="45.16377527964709" lon="3.1502536962695022"><ele>924.0</ele><time>2026-04-18T10:08:35Z</time></trkpt><trkpt lat="45.163603327998345" lon="3.1501340907161075"><ele>924.0</ele><time>2026-04-18T10:08:36Z</time></trkpt><trkpt lat="45.16342610059414" lon="3.150016955679626"><ele>924.0</ele><time>2026-04-18T10:08:37Z</time></trkpt><trkpt lat="45.16324606315027" lon="3.1499120535114535"><ele>924.0</ele><time>2026-04-18T10:08:38Z</time></trkpt><trkpt lat="45.16305925233658" lon="3.1498006185417866"><ele>924.0</ele><time>2026-04-18T10:08:39Z</time></trkpt><trkpt lat="45.162887873024566" lon="3.149702876750279"><ele>924.0</ele><time>2026-04-18T10:08:40Z</time></trkpt><trkpt lat="45.16271493870221" lon="3.1495996419046417"><ele>924.0</ele><time>2026-04-18T10:08:41Z</time></trkpt><trkpt lat="45.162542898247935" lon="3.149495365414403"><ele>924.0</ele><time>2026-04-18T10:08:42Z</time></trkpt><trkpt lat="45.16239354235988" lon="3.1494072708944985"><ele>924.0</ele><time>2026-04-18T10:08:43Z</time></trkpt><trkpt lat="45.1622379379782" lon="3.149313754515768"><ele>924.0</ele><time>2026-04-18T10:08:44Z</time></trkpt><trkpt lat="45.16209256287326" lon="3.1492385169589636"><ele>925.3333333333333</ele><time>2026-04-18T10:08:45Z</time></trkpt><trkpt lat="45.16194022126815" lon="3.1491537486913614"><ele>926.6666666666666</ele><time>2026-04-18T10:08:46Z</time></trkpt><trkpt lat="45.16178875972705" lon="3.149067986573276"><ele>928.0</ele><time>2026-04-18T10:08:47Z</time></trkpt><trkpt lat="45.161645165065316" lon="3.148984301832704"><ele>927.25</ele><time>2026-04-18T10:08:48Z</time></trkpt><trkpt lat="45.16151209028283" lon="3.148907761627294"><ele>926.5</ele><time>2026-04-18T10:08:49Z</time></trkpt><trkpt lat="45.161384519286855" lon="3.148833794947346"><ele>925.75</ele><time>2026-04-18T10:08:50Z</time></trkpt><trkpt lat="45.16125791744829" lon="3.148762610448781"><ele>925.0</ele><time>2026-04-18T10:08:51Z</time></trkpt><trkpt lat="45.1611321357239" lon="3.1486911820630827"><ele>925.0</ele><time>2026-04-18T10:08:52Z</time></trkpt><trkpt lat="45.161003010859446" lon="3.1486130807968897"><ele>925.0</ele><time>2026-04-18T10:08:53Z</time></trkpt><trkpt lat="45.160872316444426" lon="3.1485242731186456"><ele>925.0</ele><time>2026-04-18T10:08:54Z</time></trkpt><trkpt lat="45.16073611823972" lon="3.148434981086649"><ele>925.0</ele><time>2026-04-18T10:08:55Z</time></trkpt><trkpt lat="45.16060705652574" lon="3.148341758821792"><ele>926.6666666666666</ele><time>2026-04-18T10:08:56Z</time></trkpt><trkpt lat="45.16047063975405" lon="3.1482283153040753"><ele>928.3333333333333</ele><time>2026-04-18T10:08:57Z</time></trkpt><trkpt lat="45.160349243605964" lon="3.1480971697342577"><ele>930.0</ele><time>2026-04-18T10:08:58Z</time></trkpt><trkpt lat="45.16021920508628" lon="3.147952075725036"><ele>930.0</ele><time>2026-04-18T10:08:59Z</time></trkpt><trkpt lat="45.1600855858543" lon="3.147792206665289"><ele>930.0</ele><time>2026-04-18T10:09:00Z</time></trkpt><trkpt lat="45.15995684493355" lon="3.1476272599436084"><ele>930.0</ele><time>2026-04-18T10:09:01Z</time></trkpt><trkpt lat="45.15982002906581" lon="3.147455095859448"><ele>932.3333333333333</ele><time>2026-04-18T10:09:02Z</time></trkpt><trkpt lat="45.1596791005292" lon="3.1472872928584463"><ele>934.6666666666666</ele><time>2026-04-18T10:09:03Z</time></trkpt><trkpt lat="45.15954015276447" lon="3.1471322843793"><ele>937.0</ele><time>2026-04-18T10:09:04Z</time></trkpt><trkpt lat="45.15940968769226" lon="3.1469855077148234"><ele>937.0</ele><time>2026-04-18T10:09:05Z</time></trkpt><trkpt lat="45.159263096147214" lon="3.146852780368933"><ele>937.0</ele><time>2026-04-18T10:09:06Z</time></trkpt><trkpt lat="45.1591144302604" lon="3.1467532831582825"><ele>937.0</ele><time>2026-04-18T10:09:07Z</time></trkpt><trkpt lat="45.15894658995994" lon="3.1466737093868957"><ele>937.0</ele><time>2026-04-18T10:09:08Z</time></trkpt><trkpt lat="45.15876750547633" lon="3.1466038540358863"><ele>937.0</ele><time>2026-04-18T10:09:09Z</time></trkpt><trkpt lat="45.15858612016783" lon="3.1465301566229167"><ele>937.0</ele><time>2026-04-18T10:09:10Z</time></trkpt><trkpt lat="45.15841163143397" lon="3.1464472799143124"><ele>937.0</ele><time>2026-04-18T10:09:11Z</time></trkpt><trkpt lat="45.158230271571135" lon="3.146350551948622"><ele>937.0</ele><time>2026-04-18T10:09:12Z</time></trkpt><trkpt lat="45.15805006319267" lon="3.146259694349975"><ele>937.0</ele><time>2026-04-18T10:09:13Z</time></trkpt><trkpt lat="45.15787010728257" lon="3.146176801506102"><ele>938.3333333333333</ele><time>2026-04-18T10:09:14Z</time></trkpt><trkpt lat="45.15767859359062" lon="3.1460906817097993"><ele>939.6666666666667</ele><time>2026-04-18T10:09:15Z</time></trkpt><trkpt lat="45.157499985383694" lon="3.1460129269718453"><ele>941.0</ele><time>2026-04-18T10:09:16Z</time></trkpt><trkpt lat="45.15730666337353" lon="3.1459316801197534"><ele>943.0</ele><time>2026-04-18T10:09:17Z</time></trkpt><trkpt lat="45.157122479292134" lon="3.1458559654789617"><ele>945.0</ele><time>2026-04-18T10:09:18Z</time></trkpt><trkpt lat="45.156931228953326" lon="3.1457823204573208"><ele>947.0</ele><time>2026-04-18T10:09:19Z</time></trkpt><trkpt lat="45.15673771710026" lon="3.1457148164780246"><ele>946.6666666666667</ele><time>2026-04-18T10:09:20Z</time></trkpt><trkpt lat="45.15654499677736" lon="3.145659370752283"><ele>946.3333333333333</ele><time>2026-04-18T10:09:21Z</time></trkpt><trkpt lat="45.15634877544037" lon="3.1456083645878574"><ele>946.0</ele><time>2026-04-18T10:09:22Z</time></trkpt><trkpt lat="45.15615035665893" lon="3.1455521946370593"><ele>948.3333333333333</ele><time>2026-04-18T10:09:23Z</time></trkpt><trkpt lat="45.155956643168004" lon="3.145496836247489"><ele>950.6666666666667</ele><time>2026-04-18T10:09:24Z</time></trkpt><trkpt lat="45.155774960203836" lon="3.1454400505611404"><ele>953.0</ele><time>2026-04-18T10:09:25Z</time></trkpt><trkpt lat="45.15557910001618" lon="3.1453821263758517"><ele>955.3333333333334</ele><time>2026-04-18T10:09:26Z</time></trkpt><trkpt lat="45.15539911636525" lon="3.1453270807211937"><ele>957.6666666666667</ele><time>2026-04-18T10:09:27Z</time></trkpt><trkpt lat="45.155209054453536" lon="3.1452695161462754"><ele>960.0</ele><time>2026-04-18T10:09:28Z</time></trkpt><trkpt lat="45.155021548894084" lon="3.1452131184806147"><ele>960.0</ele><time>2026-04-18T10:09:29Z</time></trkpt><trkpt lat="45.15484314374763" lon="3.1451580065675797"><ele>960.0</ele><time>2026-04-18T10:09:30Z</time></trkpt><trkpt lat="45.15465262898905" lon="3.14510246089735"><ele>960.0</ele><time>2026-04-18T10:09:31Z</time></trkpt><trkpt lat="45.154467011411676" lon="3.145045131168221"><ele>960.0</ele><time>2026-04-18T10:09:32Z</time></trkpt><trkpt lat="45.15427962239367" lon="3.1449846728943527"><ele>960.0</ele><time>2026-04-18T10:09:33Z</time></trkpt><trkpt lat="45.15408502986012" lon="3.1449267451626284"><ele>960.0</ele><time>2026-04-18T10:09:34Z</time></trkpt><trkpt lat="45.153901306306025" lon="3.1448733647189835"><ele>960.0</ele><time>2026-04-18T10:09:35Z</time></trkpt><trkpt lat="45.153702953211265" lon="3.1448146201119194"><ele>960.0</ele><time>2026-04-18T10:09:36Z</time></trkpt><trkpt lat="45.153516286780494" lon="3.144759675725647"><ele>960.0</ele><time>2026-04-18T10:09:37Z</time></trkpt><trkpt lat="45.15332149478605" lon="3.144696267225353"><ele>959.6666666666667</ele><time>2026-04-18T10:09:38Z</time></trkpt><trkpt lat="45.15313357385575" lon="3.1446349093523125"><ele>959.3333333333334</ele><time>2026-04-18T10:09:39Z</time></trkpt><trkpt lat="45.15293962219462" lon="3.1445743180801715"><ele>959.0</ele><time>2026-04-18T10:09:40Z</time></trkpt><trkpt lat="45.152742283414845" lon="3.1445145684332743"><ele>959.0</ele><time>2026-04-18T10:09:41Z</time></trkpt><trkpt lat="45.152549676594575" lon="3.1444549273094156"><ele>959.0</ele><time>2026-04-18T10:09:42Z</time></trkpt><trkpt lat="45.15235959436468" lon="3.1443938719287736"><ele>959.0</ele><time>2026-04-18T10:09:43Z</time></trkpt><trkpt lat="45.15217551930375" lon="3.1443363431562235"><ele>960.3333333333334</ele><time>2026-04-18T10:09:44Z</time></trkpt><trkpt lat="45.15198165614755" lon="3.14428142692447"><ele>961.6666666666667</ele><time>2026-04-18T10:09:45Z</time></trkpt><trkpt lat="45.15179037753343" lon="3.1442226198588585"><ele>963.0</ele><time>2026-04-18T10:09:46Z</time></trkpt><trkpt lat="45.15160308646779" lon="3.1441626235511624"><ele>963.3333333333333</ele><time>2026-04-18T10:09:47Z</time></trkpt><trkpt lat="45.15141220320192" lon="3.1440997365582013"><ele>963.6666666666666</ele><time>2026-04-18T10:09:48Z</time></trkpt><trkpt lat="45.15122105223339" lon="3.1440374009840197"><ele>964.0</ele><time>2026-04-18T10:09:49Z</time></trkpt><trkpt lat="45.15102564733995" lon="3.1439760318156043"><ele>965.3333333333333</ele><time>2026-04-18T10:09:50Z</time></trkpt><trkpt lat="45.15083366974998" lon="3.1439211996774112"><ele>966.6666666666667</ele><time>2026-04-18T10:09:51Z</time></trkpt><trkpt lat="45.15064146812156" lon="3.14386466128833"><ele>968.0</ele><time>2026-04-18T10:09:52Z</time></trkpt><trkpt lat="45.15044738139274" lon="3.1438046576075784"><ele>969.6666666666667</ele><time>2026-04-18T10:09:53Z</time></trkpt><trkpt lat="45.150263480532324" lon="3.143750549373481"><ele>971.3333333333333</ele><time>2026-04-18T10:09:54Z</time></trkpt><trkpt lat="45.15006470093851" lon="3.1436949977364463"><ele>973.0</ele><time>2026-04-18T10:09:55Z</time></trkpt><trkpt lat="45.14986288152333" lon="3.143637241584235"><ele>973.0</ele><time>2026-04-18T10:09:56Z</time></trkpt><trkpt lat="45.149676346387274" lon="3.1435783650677394"><ele>973.0</ele><time>2026-04-18T10:09:57Z</time></trkpt><trkpt lat="45.1494821169128" lon="3.143511433431916"><ele>973.0</ele><time>2026-04-18T10:09:58Z</time></trkpt><trkpt lat="45.1492848982061" lon="3.1434444367438164"><ele>973.0</ele><time>2026-04-18T10:09:59Z</time></trkpt><trkpt lat="45.14908524273245" lon="3.1433798096700967"><ele>973.0</ele><time>2026-04-18T10:10:00Z</time></trkpt><trkpt lat="45.14888642985145" lon="3.1433219187575006"><ele>973.0</ele><time>2026-04-18T10:10:01Z</time></trkpt><trkpt lat="45.148685456304676" lon="3.1432613641676617"><ele>977.3333333333333</ele><time>2026-04-18T10:10:02Z</time></trkpt><trkpt lat="45.14849422051703" lon="3.1432007931044152"><ele>981.6666666666667</ele><time>2026-04-18T10:10:03Z</time></trkpt><trkpt lat="45.14830286667332" lon="3.1431401821386733"><ele>986.0</ele><time>2026-04-18T10:10:04Z</time></trkpt><trkpt lat="45.14811097704175" lon="3.1430809714434575"><ele>986.0</ele><time>2026-04-18T10:10:05Z</time></trkpt><trkpt lat="45.14791422090873" lon="3.1430170996107822"><ele>986.0</ele><time>2026-04-18T10:10:06Z</time></trkpt><trkpt lat="45.147718304063275" lon="3.1429525703879424"><ele>986.0</ele><time>2026-04-18T10:10:07Z</time></trkpt><trkpt lat="45.14753555149102" lon="3.14289337460324"><ele>986.6666666666667</ele><time>2026-04-18T10:10:08Z</time></trkpt><trkpt lat="45.14734364135829" lon="3.142826999581346"><ele>987.3333333333333</ele><time>2026-04-18T10:10:09Z</time></trkpt><trkpt lat="45.14716507303944" lon="3.142770821825659"><ele>988.0</ele><time>2026-04-18T10:10:10Z</time></trkpt><trkpt lat="45.146983838938965" lon="3.1427085074112404"><ele>988.0</ele><time>2026-04-18T10:10:11Z</time></trkpt><trkpt lat="45.146798498040916" lon="3.142641569972146"><ele>988.0</ele><time>2026-04-18T10:10:12Z</time></trkpt><trkpt lat="45.14663209340922" lon="3.142580961875032"><ele>988.0</ele><time>2026-04-18T10:10:13Z</time></trkpt><trkpt lat="45.146466788162954" lon="3.142516880662925"><ele>988.25</ele><time>2026-04-18T10:10:14Z</time></trkpt><trkpt lat="45.14632598970894" lon="3.142441725843707"><ele>988.5</ele><time>2026-04-18T10:10:15Z</time></trkpt><trkpt lat="45.14620314404228" lon="3.142337454686134"><ele>988.75</ele><time>2026-04-18T10:10:16Z</time></trkpt><trkpt lat="45.146099312858965" lon="3.1422160999523787"><ele>989.0</ele><time>2026-04-18T10:10:17Z</time></trkpt><trkpt lat="45.145999259755385" lon="3.1420959974986022"><ele>989.0</ele><time>2026-04-18T10:10:18Z</time></trkpt><trkpt lat="45.14590073980978" lon="3.1420150265709013"><ele>989.0000000000001</ele><time>2026-04-18T10:10:19Z</time></trkpt><trkpt lat="45.14579681469184" lon="3.1419779060159345"><ele>989.0000000000001</ele><time>2026-04-18T10:10:20Z</time></trkpt><trkpt lat="45.14568051462922" lon="3.1419846378375667"><ele>989.0</ele><time>2026-04-18T10:10:21Z</time></trkpt><trkpt lat="45.14557626867314" lon="3.142025451410688"><ele>989.0</ele><time>2026-04-18T10:10:22Z</time></trkpt><trkpt lat="45.14546802086051" lon="3.142071642945971"><ele>989.2</ele><time>2026-04-18T10:10:23Z</time></trkpt><trkpt lat="45.14538132939798" lon="3.1421232502870686"><ele>989.4000000000001</ele><time>2026-04-18T10:10:24Z</time></trkpt><trkpt lat="45.14530907451942" lon="3.142191663161165"><ele>989.6</ele><time>2026-04-18T10:10:25Z</time></trkpt><trkpt lat="45.14525401766325" lon="3.142282152375012"><ele>989.8</ele><time>2026-04-18T10:10:26Z</time></trkpt><trkpt lat="45.14523246430966" lon="3.1423972656246013"><ele>990.0</ele><time>2026-04-18T10:10:27Z</time></trkpt><trkpt lat="45.145222694775136" lon="3.1425432333184617"><ele>990.0</ele><time>2026-04-18T10:10:28Z</time></trkpt><trkpt lat="45.14521399369181" lon="3.142712547672809"><ele>990.0</ele><time>2026-04-18T10:10:29Z</time></trkpt><trkpt lat="45.14519983212225" lon="3.14287957363496"><ele>990.0</ele><time>2026-04-18T10:10:30Z</time></trkpt><trkpt lat="45.14517849621903" lon="3.1430699268256745"><ele>990.0</ele><time>2026-04-18T10:10:31Z</time></trkpt><trkpt lat="45.14515724409902" lon="3.1432795338054094"><ele>990.25</ele><time>2026-04-18T10:10:32Z</time></trkpt><trkpt lat="45.14513707834051" lon="3.143464977740046"><ele>990.5</ele><time>2026-04-18T10:10:33Z</time></trkpt><trkpt lat="45.14511208302187" lon="3.143633488392616"><ele>990.75</ele><time>2026-04-18T10:10:34Z</time></trkpt><trkpt lat="45.14507190107323" lon="3.143778601027829"><ele>991.0</ele><time>2026-04-18T10:10:35Z</time></trkpt><trkpt lat="45.14499614660096" lon="3.143884869040412"><ele>991.0</ele><time>2026-04-18T10:10:36Z</time></trkpt><trkpt lat="45.14488387017235" lon="3.1439344525219197"><ele>991.0</ele><time>2026-04-18T10:10:37Z</time></trkpt><trkpt lat="45.144763038215665" lon="3.1439266612036136"><ele>991.0</ele><time>2026-04-18T10:10:38Z</time></trkpt><trkpt lat="45.14463741597489" lon="3.143906229155652"><ele>991.0</ele><time>2026-04-18T10:10:39Z</time></trkpt><trkpt lat="45.14450355823551" lon="3.1438678069319574"><ele>990.25</ele><time>2026-04-18T10:10:40Z</time></trkpt><trkpt lat="45.14436732032731" lon="3.1438297580851433"><ele>989.5</ele><time>2026-04-18T10:10:41Z</time></trkpt><trkpt lat="45.144231429418866" lon="3.1437650438784037"><ele>988.75</ele><time>2026-04-18T10:10:42Z</time></trkpt><trkpt lat="45.14409506431104" lon="3.1437177508706906"><ele>988.0</ele><time>2026-04-18T10:10:43Z</time></trkpt><trkpt lat="45.14394954604327" lon="3.1437024089183203"><ele>987.6666666666666</ele><time>2026-04-18T10:10:44Z</time></trkpt><trkpt lat="45.14379624773896" lon="3.1437273835689092"><ele>987.3333333333333</ele><time>2026-04-18T10:10:45Z</time></trkpt><trkpt lat="45.14364251949239" lon="3.143782942013173"><ele>987.0</ele><time>2026-04-18T10:10:46Z</time></trkpt><trkpt lat="45.14348070865738" lon="3.1438373194264835"><ele>987.0</ele><time>2026-04-18T10:10:47Z</time></trkpt><trkpt lat="45.14331206046572" lon="3.143894259272767"><ele>987.0</ele><time>2026-04-18T10:10:48Z</time></trkpt><trkpt lat="45.14313804543837" lon="3.1439515179720465"><ele>987.0</ele><time>2026-04-18T10:10:49Z</time></trkpt><trkpt lat="45.14296845178317" lon="3.144007521892258"><ele>986.6666666666667</ele><time>2026-04-18T10:10:50Z</time></trkpt><trkpt lat="45.14279404249036" lon="3.1440630993475085"><ele>986.3333333333334</ele><time>2026-04-18T10:10:51Z</time></trkpt><trkpt lat="45.14262706570656" lon="3.144123996207933"><ele>986.0</ele><time>2026-04-18T10:10:52Z</time></trkpt><trkpt lat="45.14246164473654" lon="3.144178520491402"><ele>984.3333333333334</ele><time>2026-04-18T10:10:53Z</time></trkpt><trkpt lat="45.14230071620722" lon="3.1442391961701235"><ele>982.6666666666667</ele><time>2026-04-18T10:10:54Z</time></trkpt><trkpt lat="45.14212382895591" lon="3.1442907030628255"><ele>981.0</ele><time>2026-04-18T10:10:55Z</time></trkpt><trkpt lat="45.141946797465756" lon="3.1443401083706086"><ele>981.0</ele><time>2026-04-18T10:10:56Z</time></trkpt><trkpt lat="45.141765826414286" lon="3.1443917966443795"><ele>981.0</ele><time>2026-04-18T10:10:57Z</time></trkpt><trkpt lat="45.14158236059862" lon="3.144437475638877"><ele>981.0</ele><time>2026-04-18T10:10:58Z</time></trkpt><trkpt lat="45.1413987414" lon="3.144483738371266"><ele>978.6666666666667</ele><time>2026-04-18T10:10:59Z</time></trkpt><trkpt lat="45.14121712403449" lon="3.1445308368723306"><ele>976.3333333333334</ele><time>2026-04-18T10:11:00Z</time></trkpt><trkpt lat="45.141038948900544" lon="3.144567096386994"><ele>974.0</ele><time>2026-04-18T10:11:01Z</time></trkpt><trkpt lat="45.14086813210619" lon="3.1446044128187465"><ele>972.6666666666667</ele><time>2026-04-18T10:11:02Z</time></trkpt><trkpt lat="45.14069536576536" lon="3.1446366854129213"><ele>971.3333333333333</ele><time>2026-04-18T10:11:03Z</time></trkpt><trkpt lat="45.140525792336675" lon="3.144697575399337"><ele>970.0</ele><time>2026-04-18T10:11:04Z</time></trkpt><trkpt lat="45.14035700485387" lon="3.1447996024690696"><ele>970.3333333333333</ele><time>2026-04-18T10:11:05Z</time></trkpt><trkpt lat="45.14018457584936" lon="3.1449321615058428"><ele>970.6666666666667</ele><time>2026-04-18T10:11:06Z</time></trkpt><trkpt lat="45.140007716319985" lon="3.1450929847307276"><ele>971.0</ele><time>2026-04-18T10:11:07Z</time></trkpt><trkpt lat="45.13981847086101" lon="3.145260779821866"><ele>968.0</ele><time>2026-04-18T10:11:08Z</time></trkpt><trkpt lat="45.139618318898954" lon="3.1454241249202317"><ele>965.0</ele><time>2026-04-18T10:11:09Z</time></trkpt><trkpt lat="45.13942694145113" lon="3.1455648260001356"><ele>962.0</ele><time>2026-04-18T10:11:10Z</time></trkpt><trkpt lat="45.13924430370623" lon="3.1457032295119096"><ele>962.3333333333334</ele><time>2026-04-18T10:11:11Z</time></trkpt><trkpt lat="45.13906422509644" lon="3.145840898213091"><ele>962.6666666666667</ele><time>2026-04-18T10:11:12Z</time></trkpt><trkpt lat="45.13888811173639" lon="3.1459656636227256"><ele>963.0</ele><time>2026-04-18T10:11:13Z</time></trkpt><trkpt lat="45.138709560119814" lon="3.1460713921611485"><ele>960.6666666666667</ele><time>2026-04-18T10:11:14Z</time></trkpt><trkpt lat="45.138526958139515" lon="3.146155040407519"><ele>958.3333333333334</ele><time>2026-04-18T10:11:15Z</time></trkpt><trkpt lat="45.13833254567793" lon="3.1462000621990005"><ele>956.0</ele><time>2026-04-18T10:11:16Z</time></trkpt><trkpt lat="45.138146014684466" lon="3.1462230207245785"><ele>953.3333333333334</ele><time>2026-04-18T10:11:17Z</time></trkpt><trkpt lat="45.13796418160676" lon="3.1462299728171352"><ele>950.6666666666667</ele><time>2026-04-18T10:11:18Z</time></trkpt><trkpt lat="45.13778008169365" lon="3.146241729961733"><ele>948.0</ele><time>2026-04-18T10:11:19Z</time></trkpt><trkpt lat="45.137596339071514" lon="3.146256458581378"><ele>948.0</ele><time>2026-04-18T10:11:20Z</time></trkpt><trkpt lat="45.1374090958438" lon="3.146279032050133"><ele>948.0</ele><time>2026-04-18T10:11:21Z</time></trkpt><trkpt lat="45.137223502559664" lon="3.146303727151127"><ele>948.0</ele><time>2026-04-18T10:11:22Z</time></trkpt><trkpt lat="45.137038275442826" lon="3.1463366856418276"><ele>945.3333333333333</ele><time>2026-04-18T10:11:23Z</time></trkpt><trkpt lat="45.136851011186" lon="3.1463908690539952"><ele>942.6666666666666</ele><time>2026-04-18T10:11:24Z</time></trkpt><trkpt lat="45.1366474578094" lon="3.1464706002020124"><ele>940.0</ele><time>2026-04-18T10:11:25Z</time></trkpt><trkpt lat="45.13645370809095" lon="3.146551233594932"><ele>940.0</ele><time>2026-04-18T10:11:26Z</time></trkpt><trkpt lat="45.13625599882543" lon="3.146630817998513"><ele>940.0</ele><time>2026-04-18T10:11:27Z</time></trkpt><trkpt lat="45.136063312109485" lon="3.1467008692042757"><ele>940.0</ele><time>2026-04-18T10:11:28Z</time></trkpt><trkpt lat="45.135891704267095" lon="3.1467693903398577"><ele>936.3333333333333</ele><time>2026-04-18T10:11:29Z</time></trkpt><trkpt lat="45.13571290677244" lon="3.1468425136424605"><ele>932.6666666666667</ele><time>2026-04-18T10:11:30Z</time></trkpt><trkpt lat="45.13554064799203" lon="3.1469229639855594"><ele>929.0</ele><time>2026-04-18T10:11:31Z</time></trkpt><trkpt lat="45.135378096297636" lon="3.1470189874212666"><ele>929.0</ele><time>2026-04-18T10:11:32Z</time></trkpt><trkpt lat="45.135220617749695" lon="3.147127657736485"><ele>929.0</ele><time>2026-04-18T10:11:33Z</time></trkpt><trkpt lat="45.13505407262795" lon="3.147242683633703"><ele>929.0</ele><time>2026-04-18T10:11:34Z</time></trkpt><trkpt lat="45.13488420000729" lon="3.1473418696812394"><ele>930.3333333333334</ele><time>2026-04-18T10:11:35Z</time></trkpt><trkpt lat="45.134701893974615" lon="3.147411947573891"><ele>931.6666666666667</ele><time>2026-04-18T10:11:36Z</time></trkpt><trkpt lat="45.13451006343219" lon="3.1473945068721427"><ele>933.0</ele><time>2026-04-18T10:11:37Z</time></trkpt><trkpt lat="45.13430911885579" lon="3.147383559662715"><ele>930.0</ele><time>2026-04-18T10:11:38Z</time></trkpt><trkpt lat="45.13411553362369" lon="3.1473252389344024"><ele>927.0</ele><time>2026-04-18T10:11:39.002Z</time></trkpt><trkpt lat="45.13393881526637" lon="3.147291752497329"><ele>924.0</ele><time>2026-04-18T10:11:40Z</time></trkpt><trkpt lat="45.133759379266984" lon="3.1472947729904286"><ele>924.6666666666667</ele><time>2026-04-18T10:11:41Z</time></trkpt><trkpt lat="45.13358104963265" lon="3.1473404858836154"><ele>925.3333333333334</ele><time>2026-04-18T10:11:42Z</time></trkpt><trkpt lat="45.13341657172799" lon="3.1474086572568813"><ele>926.0</ele><time>2026-04-18T10:11:43Z</time></trkpt><trkpt lat="45.133245549338746" lon="3.147479207953456"><ele>925.6666666666667</ele><time>2026-04-18T10:11:44Z</time></trkpt><trkpt lat="45.13308597338013" lon="3.1475397916140264"><ele>925.3333333333333</ele><time>2026-04-18T10:11:45Z</time></trkpt><trkpt lat="45.13293316891706" lon="3.1475359539625924"><ele>925.0</ele><time>2026-04-18T10:11:46Z</time></trkpt><trkpt lat="45.13277727543425" lon="3.1474896195985176"><ele>924.0</ele><time>2026-04-18T10:11:47Z</time></trkpt><trkpt lat="45.132636202792284" lon="3.1473713662827247"><ele>923.0</ele><time>2026-04-18T10:11:48Z</time></trkpt><trkpt lat="45.1325166377531" lon="3.147188731408401"><ele>922.0</ele><time>2026-04-18T10:11:49Z</time></trkpt><trkpt lat="45.132431655286915" lon="3.1469583350146353"><ele>926.6666666666666</ele><time>2026-04-18T10:11:50Z</time></trkpt><trkpt lat="45.132340151589055" lon="3.146717206153365"><ele>931.3333333333333</ele><time>2026-04-18T10:11:51Z</time></trkpt><trkpt lat="45.132258387054605" lon="3.1464599026504003"><ele>936.0</ele><time>2026-04-18T10:11:52Z</time></trkpt><trkpt lat="45.132237696957354" lon="3.146156886090559"><ele>936.6666666666667</ele><time>2026-04-18T10:11:53Z</time></trkpt><trkpt lat="45.13225489179994" lon="3.1458593915789335"><ele>937.3333333333334</ele><time>2026-04-18T10:11:54Z</time></trkpt><trkpt lat="45.13226447112234" lon="3.145563892962838"><ele>938.0</ele><time>2026-04-18T10:11:55Z</time></trkpt><trkpt lat="45.1322925381557" lon="3.145288985209023"><ele>938.5</ele><time>2026-04-18T10:11:56Z</time></trkpt><trkpt lat="45.13229897742613" lon="3.145049491891925"><ele>939.0</ele><time>2026-04-18T10:11:57Z</time></trkpt><trkpt lat="45.13230425388349" lon="3.144848032592431"><ele>939.5</ele><time>2026-04-18T10:11:58Z</time></trkpt><trkpt lat="45.13227582542605" lon="3.144712525843622"><ele>940.0</ele><time>2026-04-18T10:11:59Z</time></trkpt><trkpt lat="45.132203119995594" lon="3.1446286193571416"><ele>940.0</ele><time>2026-04-18T10:12:00Z</time></trkpt><trkpt lat="45.1321097868164" lon="3.144604177972616"><ele>940.0</ele><time>2026-04-18T10:12:01Z</time></trkpt><trkpt lat="45.13200522399493" lon="3.144657038871108"><ele>940.0</ele><time>2026-04-18T10:12:02Z</time></trkpt><trkpt lat="45.13191967821311" lon="3.1447998182155046"><ele>940.0</ele><time>2026-04-18T10:12:03Z</time></trkpt><trkpt lat="45.13187836635121" lon="3.1449972693818724"><ele>940.0</ele><time>2026-04-18T10:12:04Z</time></trkpt><trkpt lat="45.13183409505724" lon="3.145215431748807"><ele>940.0</ele><time>2026-04-18T10:12:05Z</time></trkpt><trkpt lat="45.13179022997347" lon="3.1454609096624884"><ele>940.0</ele><time>2026-04-18T10:12:06Z</time></trkpt><trkpt lat="45.131681326877" lon="3.14568390911195"><ele>939.5</ele><time>2026-04-18T10:12:07Z</time></trkpt><trkpt lat="45.13158292541991" lon="3.145876614172101"><ele>939.0</ele><time>2026-04-18T10:12:08Z</time></trkpt><trkpt lat="45.13147842340196" lon="3.1460086864453762"><ele>938.5</ele><time>2026-04-18T10:12:09Z</time></trkpt><trkpt lat="45.13136581514502" lon="3.1461129205909555"><ele>938.0</ele><time>2026-04-18T10:12:10Z</time></trkpt><trkpt lat="45.131250714146645" lon="3.146186507398259"><ele>941.25</ele><time>2026-04-18T10:12:11Z</time></trkpt><trkpt lat="45.131121688446996" lon="3.1462469164901594"><ele>944.5</ele><time>2026-04-18T10:12:12Z</time></trkpt><trkpt lat="45.130993213078874" lon="3.146304104114382"><ele>947.75</ele><time>2026-04-18T10:12:13Z</time></trkpt><trkpt lat="45.130856405896594" lon="3.146359680875718"><ele>951.0</ele><time>2026-04-18T10:12:14Z</time></trkpt><trkpt lat="45.13072960742425" lon="3.1464105284718697"><ele>951.5</ele><time>2026-04-18T10:12:15Z</time></trkpt><trkpt lat="45.130601629051235" lon="3.1464570298102017"><ele>952.0</ele><time>2026-04-18T10:12:16Z</time></trkpt><trkpt lat="45.13047741612687" lon="3.1465043810298785"><ele>952.5</ele><time>2026-04-18T10:12:17Z</time></trkpt><trkpt lat="45.130356161360844" lon="3.14655990782139"><ele>953.0</ele><time>2026-04-18T10:12:18Z</time></trkpt><trkpt lat="45.130237733513155" lon="3.1466203367582706"><ele>953.0</ele><time>2026-04-18T10:12:19Z</time></trkpt><trkpt lat="45.13011558728123" lon="3.1466732108326534"><ele>953.0</ele><time>2026-04-18T10:12:20Z</time></trkpt><trkpt lat="45.1299947283796" lon="3.146711075721681"><ele>953.0</ele><time>2026-04-18T10:12:21Z</time></trkpt><trkpt lat="45.12988801753042" lon="3.1467252415156266"><ele>953.0</ele><time>2026-04-18T10:12:22Z</time></trkpt><trkpt lat="45.129785997597104" lon="3.1467182317924194"><ele>953.3333333333334</ele><time>2026-04-18T10:12:23Z</time></trkpt><trkpt lat="45.12969809574484" lon="3.1466985223312696"><ele>953.6666666666667</ele><time>2026-04-18T10:12:24Z</time></trkpt><trkpt lat="45.12961999401841" lon="3.146660034013348"><ele>954.0</ele><time>2026-04-18T10:12:25Z</time></trkpt><trkpt lat="45.12955980656588" lon="3.146623793079123"><ele>954.3333333333333</ele><time>2026-04-18T10:12:26Z</time></trkpt><trkpt lat="45.12948605961732" lon="3.146552476056648"><ele>954.6666666666666</ele><time>2026-04-18T10:12:28Z</time></trkpt><trkpt lat="45.1293976367305" lon="3.1465478442234938"><ele>955.0</ele><time>2026-04-18T10:12:31Z</time></trkpt><trkpt lat="45.12931219349999" lon="3.1466158206215566"><ele>954.9999999999999</ele><time>2026-04-18T10:12:34Z</time></trkpt><trkpt lat="45.12923224372499" lon="3.1466851734385055"><ele>955.0</ele><time>2026-04-18T10:12:37.001Z</time></trkpt><trkpt lat="45.129171924498145" lon="3.1467406440793853"><ele>955.0</ele><time>2026-04-18T10:12:39.001Z</time></trkpt><trkpt lat="45.12910837068555" lon="3.1467952855541954"><ele>955.0</ele><time>2026-04-18T10:12:41.001Z</time></trkpt><trkpt lat="45.129007504582916" lon="3.1469070747062777"><ele>954.9999999999999</ele><time>2026-04-18T10:12:43Z</time></trkpt><trkpt lat="45.12894876757198" lon="3.1469772550164365"><ele>955.0</ele><time>2026-04-18T10:12:44Z</time></trkpt><trkpt lat="45.12887294354138" lon="3.147047814180176"><ele>955.6</ele><time>2026-04-18T10:12:45Z</time></trkpt><trkpt lat="45.12879343130275" lon="3.1471412155388867"><ele>956.2</ele><time>2026-04-18T10:12:46Z</time></trkpt><trkpt lat="45.12871224255436" lon="3.1472365862018923"><ele>956.8</ele><time>2026-04-18T10:12:47Z</time></trkpt><trkpt lat="45.12862850740668" lon="3.1473349481029436"><ele>957.4</ele><time>2026-04-18T10:12:48Z</time></trkpt><trkpt lat="45.12853944521587" lon="3.1474395675575777"><ele>958.0</ele><time>2026-04-18T10:12:49Z</time></trkpt><trkpt lat="45.1284306585291" lon="3.147579704193456"><ele>958.0</ele><time>2026-04-18T10:12:51Z</time></trkpt><trkpt lat="45.1283286451738" lon="3.147683609753899"><ele>958.0</ele><time>2026-04-18T10:12:52Z</time></trkpt><trkpt lat="45.12822266760808" lon="3.1477928826825634"><ele>958.0</ele><time>2026-04-18T10:12:53Z</time></trkpt><trkpt lat="45.128111681106056" lon="3.147891425526658"><ele>958.0</ele><time>2026-04-18T10:12:54Z</time></trkpt><trkpt lat="45.127992763417396" lon="3.147970002290818"><ele>958.0</ele><time>2026-04-18T10:12:55Z</time></trkpt><trkpt lat="45.127874561215144" lon="3.1480488477863173"><ele>958.0</ele><time>2026-04-18T10:12:56Z</time></trkpt><trkpt lat="45.127760630022806" lon="3.1481324324537825"><ele>958.0</ele><time>2026-04-18T10:12:57Z</time></trkpt><trkpt lat="45.12764446900284" lon="3.148233136109902"><ele>958.0</ele><time>2026-04-18T10:12:58Z</time></trkpt><trkpt lat="45.12753688538688" lon="3.1483513690322433"><ele>957.25</ele><time>2026-04-18T10:12:59Z</time></trkpt><trkpt lat="45.12743067884892" lon="3.1484722863098176"><ele>956.5</ele><time>2026-04-18T10:13:00Z</time></trkpt><trkpt lat="45.12733277215968" lon="3.148588926587"><ele>955.75</ele><time>2026-04-18T10:13:01Z</time></trkpt><trkpt lat="45.127230629915395" lon="3.1487009550415728"><ele>955.0</ele><time>2026-04-18T10:13:02Z</time></trkpt><trkpt lat="45.127130035403674" lon="3.148809582067355"><ele>955.0</ele><time>2026-04-18T10:13:03Z</time></trkpt><trkpt lat="45.12702948752532" lon="3.1489125170316674"><ele>955.0</ele><time>2026-04-18T10:13:04Z</time></trkpt><trkpt lat="45.12693246949811" lon="3.149012259089343"><ele>955.0</ele><time>2026-04-18T10:13:05Z</time></trkpt><trkpt lat="45.126842712319814" lon="3.1491024617234373"><ele>955.0</ele><time>2026-04-18T10:13:06Z</time></trkpt><trkpt lat="45.12676128441431" lon="3.1491876741288984"><ele>955.0</ele><time>2026-04-18T10:13:07Z</time></trkpt><trkpt lat="45.12669339075295" lon="3.14927022329851"><ele>955.0</ele><time>2026-04-18T10:13:08Z</time></trkpt><trkpt lat="45.12664528070296" lon="3.149369066656421"><ele>955.0</ele><time>2026-04-18T10:13:09Z</time></trkpt><trkpt lat="45.126627022795915" lon="3.1494923267468296"><ele>955.0</ele><time>2026-04-18T10:13:10Z</time></trkpt><trkpt lat="45.12663592777794" lon="3.149638153851737"><ele>955.0</ele><time>2026-04-18T10:13:11Z</time></trkpt><trkpt lat="45.126692421782735" lon="3.1497840251326084"><ele>955.75</ele><time>2026-04-18T10:13:12Z</time></trkpt><trkpt lat="45.12674945485692" lon="3.149938640830438"><ele>956.5</ele><time>2026-04-18T10:13:13Z</time></trkpt><trkpt lat="45.12682577799348" lon="3.150102962526308"><ele>957.25</ele><time>2026-04-18T10:13:14Z</time></trkpt><trkpt lat="45.12688010685445" lon="3.1502620323955095"><ele>958.0</ele><time>2026-04-18T10:13:15Z</time></trkpt><trkpt lat="45.12690993771704" lon="3.1503847862840275"><ele>958.0</ele><time>2026-04-18T10:13:16Z</time></trkpt><trkpt lat="45.126931566842345" lon="3.1505124985905257"><ele>958.0</ele><time>2026-04-18T10:13:17Z</time></trkpt><trkpt lat="45.126947957105415" lon="3.1506521718319913"><ele>958.0</ele><time>2026-04-18T10:13:18Z</time></trkpt><trkpt lat="45.12696450897937" lon="3.1507982217489965"><ele>958.0</ele><time>2026-04-18T10:13:19Z</time></trkpt><trkpt lat="45.127001251907835" lon="3.15093924732256"><ele>958.0</ele><time>2026-04-18T10:13:20Z</time></trkpt><trkpt lat="45.1270349071826" lon="3.15106488072622"><ele>958.9999999999999</ele><time>2026-04-18T10:13:21Z</time></trkpt><trkpt lat="45.12708535169531" lon="3.1511656100753256"><ele>960.0</ele><time>2026-04-18T10:13:22Z</time></trkpt><trkpt lat="45.12711066368975" lon="3.151252937789282"><ele>961.0</ele><time>2026-04-18T10:13:23Z</time></trkpt><trkpt lat="45.12715059597844" lon="3.151324807588263"><ele>962.0</ele><time>2026-04-18T10:13:24Z</time></trkpt><trkpt lat="45.12708169248985" lon="3.1514592564620747"><ele>962.9999999999999</ele><time>2026-04-18T10:13:26Z</time></trkpt><trkpt lat="45.12700259744257" lon="3.1514713358177264"><ele>964.0</ele><time>2026-04-18T10:13:27Z</time></trkpt><trkpt lat="45.126934988691076" lon="3.1515445223694476"><ele>964.0</ele><time>2026-04-18T10:13:28Z</time></trkpt><trkpt lat="45.126862341962415" lon="3.1516215451876057"><ele>964.0000000000001</ele><time>2026-04-18T10:13:29Z</time></trkpt><trkpt lat="45.126797640345565" lon="3.1517055374752387"><ele>964.0000000000001</ele><time>2026-04-18T10:13:30Z</time></trkpt><trkpt lat="45.12672583046849" lon="3.1518049323747337"><ele>964.0</ele><time>2026-04-18T10:13:31Z</time></trkpt><trkpt lat="45.1266535590867" lon="3.1518974899127463"><ele>964.0</ele><time>2026-04-18T10:13:32Z</time></trkpt><trkpt lat="45.12657718509355" lon="3.1519687768339497"><ele>964.3333333333333</ele><time>2026-04-18T10:13:33Z</time></trkpt><trkpt lat="45.12650342629991" lon="3.15203075834601"><ele>964.6666666666666</ele><time>2026-04-18T10:13:34Z</time></trkpt><trkpt lat="45.12643303166596" lon="3.1520908545602064"><ele>965.0</ele><time>2026-04-18T10:13:35Z</time></trkpt><trkpt lat="45.126366421057405" lon="3.152143783068341"><ele>965.3333333333333</ele><time>2026-04-18T10:13:36Z</time></trkpt><trkpt lat="45.126300998101904" lon="3.15219483222253"><ele>965.6666666666666</ele><time>2026-04-18T10:13:37Z</time></trkpt><trkpt lat="45.126230306754174" lon="3.15223840813984"><ele>966.0</ele><time>2026-04-18T10:13:38Z</time></trkpt><trkpt lat="45.12615515492693" lon="3.152264853478913"><ele>966.0</ele><time>2026-04-18T10:13:39Z</time></trkpt><trkpt lat="45.12607307206365" lon="3.1522642657496407"><ele>965.9999999999999</ele><time>2026-04-18T10:13:40Z</time></trkpt><trkpt lat="45.125969664550595" lon="3.1522504608205058"><ele>965.9999999999999</ele><time>2026-04-18T10:13:41Z</time></trkpt><trkpt lat="45.12586860611509" lon="3.152238687239097"><ele>966.0</ele><time>2026-04-18T10:13:42Z</time></trkpt><trkpt lat="45.12575220179547" lon="3.1522458858366336"><ele>966.0</ele><time>2026-04-18T10:13:43Z</time></trkpt><trkpt lat="45.12563248153853" lon="3.1522593234558807"><ele>967.75</ele><time>2026-04-18T10:13:44Z</time></trkpt><trkpt lat="45.125509704175435" lon="3.15226581940962"><ele>969.5</ele><time>2026-04-18T10:13:45Z</time></trkpt><trkpt lat="45.12538304178152" lon="3.152276708438662"><ele>971.25</ele><time>2026-04-18T10:13:46Z</time></trkpt><trkpt lat="45.12524936215544" lon="3.1522796724340876"><ele>973.0</ele><time>2026-04-18T10:13:47Z</time></trkpt><trkpt lat="45.12510660336753" lon="3.1522764475493004"><ele>973.0</ele><time>2026-04-18T10:13:48Z</time></trkpt><trkpt lat="45.1249633080988" lon="3.1522607978356203"><ele>973.0</ele><time>2026-04-18T10:13:49Z</time></trkpt><trkpt lat="45.124816008238014" lon="3.1522256432926987"><ele>973.0</ele><time>2026-04-18T10:13:50Z</time></trkpt><trkpt lat="45.12468004786073" lon="3.1521404082798896"><ele>973.0</ele><time>2026-04-18T10:13:51Z</time></trkpt><trkpt lat="45.12453753013116" lon="3.152044064159701"><ele>973.3333333333333</ele><time>2026-04-18T10:13:52Z</time></trkpt><trkpt lat="45.12439975729862" lon="3.1519226048628592"><ele>973.6666666666667</ele><time>2026-04-18T10:13:53Z</time></trkpt><trkpt lat="45.124259997379504" lon="3.1518070730753083"><ele>974.0</ele><time>2026-04-18T10:13:54Z</time></trkpt><trkpt lat="45.12412924440664" lon="3.1516604195297613"><ele>974.3333333333334</ele><time>2026-04-18T10:13:55Z</time></trkpt><trkpt lat="45.12399515740781" lon="3.1515231958635535"><ele>974.6666666666667</ele><time>2026-04-18T10:13:56Z</time></trkpt><trkpt lat="45.12386838592728" lon="3.1514022373200103"><ele>975.0</ele><time>2026-04-18T10:13:57Z</time></trkpt><trkpt lat="45.12373471945326" lon="3.151279664967528"><ele>975.0</ele><time>2026-04-18T10:13:58Z</time></trkpt><trkpt lat="45.12360613949879" lon="3.1511689594097394"><ele>975.0</ele><time>2026-04-18T10:13:59Z</time></trkpt><trkpt lat="45.123453857535445" lon="3.1510860135089245"><ele>975.0</ele><time>2026-04-18T10:14:00Z</time></trkpt><trkpt lat="45.12329293729724" lon="3.1510424054002564"><ele>976.0</ele><time>2026-04-18T10:14:01Z</time></trkpt><trkpt lat="45.12310865702133" lon="3.1510241776043975"><ele>977.0</ele><time>2026-04-18T10:14:02Z</time></trkpt><trkpt lat="45.12293214450435" lon="3.1510439878655006"><ele>978.0</ele><time>2026-04-18T10:14:03Z</time></trkpt><trkpt lat="45.1227256491598" lon="3.151093807643068"><ele>978.0</ele><time>2026-04-18T10:14:04Z</time></trkpt><trkpt lat="45.12253117225481" lon="3.1511226573665514"><ele>978.0</ele><time>2026-04-18T10:14:05Z</time></trkpt><trkpt lat="45.122335983774235" lon="3.151037350029751"><ele>978.0</ele><time>2026-04-18T10:14:06Z</time></trkpt><trkpt lat="45.1221388919927" lon="3.1509206924546582"><ele>979.5</ele><time>2026-04-18T10:14:07Z</time></trkpt><trkpt lat="45.12192626642322" lon="3.150796827538362"><ele>981.0</ele><time>2026-04-18T10:14:08Z</time></trkpt><trkpt lat="45.12170491003576" lon="3.150647940620642"><ele>982.0</ele><time>2026-04-18T10:14:09Z</time></trkpt><trkpt lat="45.12151563383709" lon="3.150525453542745"><ele>983.0</ele><time>2026-04-18T10:14:10Z</time></trkpt><trkpt lat="45.12134359850681" lon="3.1504213980980076"><ele>984.0</ele><time>2026-04-18T10:14:11Z</time></trkpt><trkpt lat="45.12117091392321" lon="3.150308379283276"><ele>984.0</ele><time>2026-04-18T10:14:12Z</time></trkpt><trkpt lat="45.121020069744596" lon="3.1501985966164274"><ele>984.0</ele><time>2026-04-18T10:14:13Z</time></trkpt><trkpt lat="45.12086742074208" lon="3.150059187479089"><ele>984.0</ele><time>2026-04-18T10:14:14Z</time></trkpt><trkpt lat="45.12071650155526" lon="3.149874717925716"><ele>985.6666666666667</ele><time>2026-04-18T10:14:15Z</time></trkpt><trkpt lat="45.120579419716805" lon="3.14966553428809"><ele>987.3333333333334</ele><time>2026-04-18T10:14:16Z</time></trkpt><trkpt lat="45.1204452640755" lon="3.1494194633880954"><ele>989.0</ele><time>2026-04-18T10:14:17Z</time></trkpt><trkpt lat="45.12032202754432" lon="3.1491572169920787"><ele>990.5</ele><time>2026-04-18T10:14:18Z</time></trkpt><trkpt lat="45.120194745010714" lon="3.148877448366813"><ele>992.0</ele><time>2026-04-18T10:14:19Z</time></trkpt><trkpt lat="45.1200628678075" lon="3.1486174199623873"><ele>992.0</ele><time>2026-04-18T10:14:20Z</time></trkpt><trkpt lat="45.119944257113076" lon="3.1484020596534408"><ele>992.0</ele><time>2026-04-18T10:14:21Z</time></trkpt><trkpt lat="45.11981283292684" lon="3.148234011290095"><ele>992.0</ele><time>2026-04-18T10:14:22Z</time></trkpt><trkpt lat="45.11965600442709" lon="3.148154685262673"><ele>995.6666666666667</ele><time>2026-04-18T10:14:23Z</time></trkpt><trkpt lat="45.11948384231813" lon="3.1481241073508124"><ele>999.3333333333333</ele><time>2026-04-18T10:14:24Z</time></trkpt><trkpt lat="45.119313354992435" lon="3.1481596054957004"><ele>1003.0</ele><time>2026-04-18T10:14:25Z</time></trkpt><trkpt lat="45.11914314707238" lon="3.148264670938092"><ele>1008.6666666666666</ele><time>2026-04-18T10:14:26Z</time></trkpt><trkpt lat="45.118985553707766" lon="3.148434009696022"><ele>1014.3333333333333</ele><time>2026-04-18T10:14:27Z</time></trkpt><trkpt lat="45.11883041120669" lon="3.1486304441887434"><ele>1020.0</ele><time>2026-04-18T10:14:28Z</time></trkpt><trkpt lat="45.11867273393077" lon="3.1488443459258626"><ele>1020.0</ele><time>2026-04-18T10:14:29Z</time></trkpt><trkpt lat="45.11849826579719" lon="3.148950890031138"><ele>1020.0</ele><time>2026-04-18T10:14:30Z</time></trkpt><trkpt lat="45.1183377484868" lon="3.148997224801727"><ele>1020.0</ele><time>2026-04-18T10:14:31Z</time></trkpt><trkpt lat="45.11815664745804" lon="3.1490359767026597"><ele>1019.0</ele><time>2026-04-18T10:14:32Z</time></trkpt><trkpt lat="45.11798451557402" lon="3.1490391794134327"><ele>1018.0</ele><time>2026-04-18T10:14:33Z</time></trkpt><trkpt lat="45.11784096554746" lon="3.1490436717250443"><ele>1017.0</ele><time>2026-04-18T10:14:34Z</time></trkpt><trkpt lat="45.11770146032651" lon="3.1490383859756"><ele>1017.0</ele><time>2026-04-18T10:14:35Z</time></trkpt><trkpt lat="45.117576012429446" lon="3.148997532598672"><ele>1017.0</ele><time>2026-04-18T10:14:36Z</time></trkpt><trkpt lat="45.11746467819661" lon="3.148905737002947"><ele>1017.0</ele><time>2026-04-18T10:14:37Z</time></trkpt><trkpt lat="45.11735372140577" lon="3.1487889211878444"><ele>1017.0</ele><time>2026-04-18T10:14:38Z</time></trkpt><trkpt lat="45.11725519546637" lon="3.1486285412867256"><ele>1017.6666666666667</ele><time>2026-04-18T10:14:39Z</time></trkpt><trkpt lat="45.1171936089558" lon="3.1484073360892517"><ele>1018.3333333333334</ele><time>2026-04-18T10:14:40Z</time></trkpt><trkpt lat="45.11714107721283" lon="3.1481756265306866"><ele>1019.0</ele><time>2026-04-18T10:14:41.001Z</time></trkpt><trkpt lat="45.11708865245153" lon="3.147957243284859"><ele>1022.25</ele><time>2026-04-18T10:14:42.001Z</time></trkpt><trkpt lat="45.11705343048415" lon="3.1477577354016786"><ele>1025.5</ele><time>2026-04-18T10:14:43.001Z</time></trkpt><trkpt lat="45.11701734274445" lon="3.1475571039893433"><ele>1028.75</ele><time>2026-04-18T10:14:44.001Z</time></trkpt><trkpt lat="45.116979436546465" lon="3.14734724560506"><ele>1032.0</ele><time>2026-04-18T10:14:45.001Z</time></trkpt><trkpt lat="45.11693781701137" lon="3.1471326026343207"><ele>1033.6666666666667</ele><time>2026-04-18T10:14:46.001Z</time></trkpt><trkpt lat="45.116895186218194" lon="3.1469178039224097"><ele>1035.3333333333335</ele><time>2026-04-18T10:14:47.001Z</time></trkpt><trkpt lat="45.116854063303194" lon="3.1467052768024635"><ele>1037.0</ele><time>2026-04-18T10:14:48.001Z</time></trkpt><trkpt lat="45.11680937594986" lon="3.1464878562195975"><ele>1039.0</ele><time>2026-04-18T10:14:49.001Z</time></trkpt><trkpt lat="45.11676289466504" lon="3.1462757179495098"><ele>1041.0</ele><time>2026-04-18T10:14:50.001Z</time></trkpt><trkpt lat="45.11670933040778" lon="3.1460699626669615"><ele>1043.0</ele><time>2026-04-18T10:14:51.001Z</time></trkpt><trkpt lat="45.116642154725824" lon="3.145869806131437"><ele>1045.0</ele><time>2026-04-18T10:14:52.001Z</time></trkpt><trkpt lat="45.11655599417794" lon="3.1456816116264603"><ele>1047.0</ele><time>2026-04-18T10:14:53.001Z</time></trkpt><trkpt lat="45.116455118814905" lon="3.145510368318203"><ele>1049.0</ele><time>2026-04-18T10:14:54.001Z</time></trkpt><trkpt lat="45.11635225342543" lon="3.145346554528736"><ele>1049.0</ele><time>2026-04-18T10:14:55Z</time></trkpt><trkpt lat="45.11625317478096" lon="3.1451743324600083"><ele>1049.0</ele><time>2026-04-18T10:14:56Z</time></trkpt><trkpt lat="45.116160003129714" lon="3.1449942432723446"><ele>1049.0</ele><time>2026-04-18T10:14:57Z</time></trkpt><trkpt lat="45.11606457669535" lon="3.144821016698594"><ele>1050.6666666666667</ele><time>2026-04-18T10:14:58Z</time></trkpt><trkpt lat="45.11597444186999" lon="3.1446465803708805"><ele>1052.3333333333333</ele><time>2026-04-18T10:14:59Z</time></trkpt><trkpt lat="45.11589518957138" lon="3.1444519209687103"><ele>1054.0</ele><time>2026-04-18T10:15:00Z</time></trkpt><trkpt lat="45.11583534891733" lon="3.1442326623151327"><ele>1053.6666666666665</ele><time>2026-04-18T10:15:01Z</time></trkpt><trkpt lat="45.11579609373207" lon="3.144017521442181"><ele>1053.3333333333333</ele><time>2026-04-18T10:15:02Z</time></trkpt><trkpt lat="45.115766775749506" lon="3.1438033671990846"><ele>1053.0</ele><time>2026-04-18T10:15:03Z</time></trkpt><trkpt lat="45.1157261852497" lon="3.143591077831503"><ele>1053.0</ele><time>2026-04-18T10:15:04Z</time></trkpt><trkpt lat="45.115681975371736" lon="3.143383244894236"><ele>1053.0</ele><time>2026-04-18T10:15:05Z</time></trkpt><trkpt lat="45.115643679135694" lon="3.1431995123274423"><ele>1053.0</ele><time>2026-04-18T10:15:06Z</time></trkpt><trkpt lat="45.11560857852812" lon="3.1430238795771346"><ele>1053.0</ele><time>2026-04-18T10:15:07Z</time></trkpt><trkpt lat="45.115575496789646" lon="3.1428466725519613"><ele>1053.0</ele><time>2026-04-18T10:15:08Z</time></trkpt><trkpt lat="45.11553958716475" lon="3.1426605735994007"><ele>1053.0</ele><time>2026-04-18T10:15:09Z</time></trkpt><trkpt lat="45.11550369578864" lon="3.142473395339332"><ele>1053.0</ele><time>2026-04-18T10:15:10Z</time></trkpt><trkpt lat="45.115469457541394" lon="3.142283246494535"><ele>1053.0</ele><time>2026-04-18T10:15:11Z</time></trkpt><trkpt lat="45.11543631815333" lon="3.1421183311459777"><ele>1053.4</ele><time>2026-04-18T10:15:12Z</time></trkpt><trkpt lat="45.11540564189412" lon="3.141962867066608"><ele>1053.8</ele><time>2026-04-18T10:15:13Z</time></trkpt><trkpt lat="45.11537978631968" lon="3.141826054422417"><ele>1054.2</ele><time>2026-04-18T10:15:14Z</time></trkpt><trkpt lat="45.11534879218615" lon="3.1416760468984335"><ele>1054.6</ele><time>2026-04-18T10:15:15Z</time></trkpt><trkpt lat="45.11532605858661" lon="3.141535643651832"><ele>1055.0</ele><time>2026-04-18T10:15:16Z</time></trkpt><trkpt lat="45.11530718780432" lon="3.1413913192967904"><ele>1055.0</ele><time>2026-04-18T10:15:17Z</time></trkpt><trkpt lat="45.11529356552092" lon="3.141249638793411"><ele>1055.0</ele><time>2026-04-18T10:15:18Z</time></trkpt><trkpt lat="45.11528101744916" lon="3.1411066011539344"><ele>1055.0</ele><time>2026-04-18T10:15:19Z</time></trkpt><trkpt lat="45.11527270910793" lon="3.1409656607735976"><ele>1055.0</ele><time>2026-04-18T10:15:20Z</time></trkpt><trkpt lat="45.11526796350839" lon="3.1408222443594567"><ele>1055.0</ele><time>2026-04-18T10:15:21Z</time></trkpt><trkpt lat="45.11526186029615" lon="3.1406787872535773"><ele>1055.5</ele><time>2026-04-18T10:15:22Z</time></trkpt><trkpt lat="45.11525456468707" lon="3.14052697537764"><ele>1056.0</ele><time>2026-04-18T10:15:23Z</time></trkpt><trkpt lat="45.115245445298726" lon="3.140369563867709"><ele>1056.5</ele><time>2026-04-18T10:15:24Z</time></trkpt><trkpt lat="45.115240921579804" lon="3.1402075664735007"><ele>1057.0</ele><time>2026-04-18T10:15:25Z</time></trkpt><trkpt lat="45.11523173536743" lon="3.1400284542284025"><ele>1057.25</ele><time>2026-04-18T10:15:26Z</time></trkpt><trkpt lat="45.115220399260544" lon="3.1398488646514986"><ele>1057.5</ele><time>2026-04-18T10:15:27Z</time></trkpt><trkpt lat="45.11520972811723" lon="3.1396608424067405"><ele>1057.75</ele><time>2026-04-18T10:15:28Z</time></trkpt><trkpt lat="45.11520443729954" lon="3.1394669507591257"><ele>1058.0</ele><time>2026-04-18T10:15:29Z</time></trkpt><trkpt lat="45.11519995137366" lon="3.139270649625012"><ele>1058.0</ele><time>2026-04-18T10:15:30Z</time></trkpt><trkpt lat="45.11519877243308" lon="3.1390734102665134"><ele>1058.0</ele><time>2026-04-18T10:15:31Z</time></trkpt><trkpt lat="45.11520609208727" lon="3.138871214265799"><ele>1058.0</ele><time>2026-04-18T10:15:32Z</time></trkpt><trkpt lat="45.1152200050144" lon="3.13867047005484"><ele>1058.0</ele><time>2026-04-18T10:15:33Z</time></trkpt><trkpt lat="45.11524546799643" lon="3.1384613545071836"><ele>1060.0</ele><time>2026-04-18T10:15:34Z</time></trkpt><trkpt lat="45.11529240341869" lon="3.1382493612928934"><ele>1062.0</ele><time>2026-04-18T10:15:35Z</time></trkpt><trkpt lat="45.11534523197087" lon="3.138027692559793"><ele>1064.0</ele><time>2026-04-18T10:15:36Z</time></trkpt><trkpt lat="45.11538289610305" lon="3.1378135814011956"><ele>1064.3333333333335</ele><time>2026-04-18T10:15:37Z</time></trkpt><trkpt lat="45.11542072164504" lon="3.1375953548305953"><ele>1064.6666666666667</ele><time>2026-04-18T10:15:38Z</time></trkpt><trkpt lat="45.11545225549812" lon="3.137374458432466"><ele>1065.0</ele><time>2026-04-18T10:15:39Z</time></trkpt><trkpt lat="45.115471658610744" lon="3.137154490399195"><ele>1066.0</ele><time>2026-04-18T10:15:40Z</time></trkpt><trkpt lat="45.1154897327882" lon="3.1369178494211147"><ele>1067.0</ele><time>2026-04-18T10:15:41Z</time></trkpt><trkpt lat="45.115500094049345" lon="3.1366804947617015"><ele>1068.0</ele><time>2026-04-18T10:15:42Z</time></trkpt><trkpt lat="45.11551424184239" lon="3.136441200140869"><ele>1068.6666666666667</ele><time>2026-04-18T10:15:43Z</time></trkpt><trkpt lat="45.11553239777591" lon="3.136198025256411"><ele>1069.3333333333335</ele><time>2026-04-18T10:15:44Z</time></trkpt><trkpt lat="45.11555190205623" lon="3.135953674567444"><ele>1070.0</ele><time>2026-04-18T10:15:45Z</time></trkpt><trkpt lat="45.115579390280494" lon="3.135713355718369"><ele>1071.0</ele><time>2026-04-18T10:15:46Z</time></trkpt><trkpt lat="45.11562564422584" lon="3.1354715367391144"><ele>1072.0</ele><time>2026-04-18T10:15:47Z</time></trkpt><trkpt lat="45.115688572401034" lon="3.135245389852338"><ele>1073.0</ele><time>2026-04-18T10:15:48Z</time></trkpt><trkpt lat="45.115755158462854" lon="3.1350173508354278"><ele>1074.0</ele><time>2026-04-18T10:15:49Z</time></trkpt><trkpt lat="45.115810521808065" lon="3.134793693462722"><ele>1075.0</ele><time>2026-04-18T10:15:50Z</time></trkpt><trkpt lat="45.115844483713865" lon="3.134585186972975"><ele>1076.0</ele><time>2026-04-18T10:15:51Z</time></trkpt><trkpt lat="45.1158712845016" lon="3.1343819317390076"><ele>1076.0</ele><time>2026-04-18T10:15:52Z</time></trkpt><trkpt lat="45.11589279255266" lon="3.1341854957207986"><ele>1076.0</ele><time>2026-04-18T10:15:53Z</time></trkpt><trkpt lat="45.11590760248444" lon="3.133997602972573"><ele>1076.0</ele><time>2026-04-18T10:15:54Z</time></trkpt><trkpt lat="45.115922849356934" lon="3.1338192664023006"><ele>1076.0</ele><time>2026-04-18T10:15:55Z</time></trkpt><trkpt lat="45.115942349935295" lon="3.1336660289383746"><ele>1076.0</ele><time>2026-04-18T10:15:56Z</time></trkpt><trkpt lat="45.11595741381627" lon="3.1335243809256754"><ele>1076.0</ele><time>2026-04-18T10:15:57Z</time></trkpt><trkpt lat="45.11596122929408" lon="3.1334049043265"><ele>1076.0</ele><time>2026-04-18T10:15:58Z</time></trkpt><trkpt lat="45.115939915532195" lon="3.1333106571474145"><ele>1076.0</ele><time>2026-04-18T10:15:59Z</time></trkpt><trkpt lat="45.11589114031039" lon="3.1332240388389914"><ele>1076.0</ele><time>2026-04-18T10:16:00Z</time></trkpt><trkpt lat="45.11580121354031" lon="3.1331355196729613"><ele>1076.0</ele><time>2026-04-18T10:16:01Z</time></trkpt><trkpt lat="45.11568293299204" lon="3.1330722659238286"><ele>1076.3333333333335</ele><time>2026-04-18T10:16:02Z</time></trkpt><trkpt lat="45.115544917008535" lon="3.132991515650177"><ele>1076.6666666666667</ele><time>2026-04-18T10:16:03Z</time></trkpt><trkpt lat="45.115392263638284" lon="3.1328947451261366"><ele>1077.0</ele><time>2026-04-18T10:16:04Z</time></trkpt><trkpt lat="45.11522380305423" lon="3.132794840005482"><ele>1077.0</ele><time>2026-04-18T10:16:05Z</time></trkpt><trkpt lat="45.115037785303535" lon="3.132716066696607"><ele>1077.0</ele><time>2026-04-18T10:16:06Z</time></trkpt><trkpt lat="45.11484980171547" lon="3.132666602987839"><ele>1077.0</ele><time>2026-04-18T10:16:07Z</time></trkpt><trkpt lat="45.114664499242366" lon="3.1326347092701012"><ele>1078.0</ele><time>2026-04-18T10:16:08Z</time></trkpt><trkpt lat="45.11447497727328" lon="3.1326109356403444"><ele>1079.0</ele><time>2026-04-18T10:16:09Z</time></trkpt><trkpt lat="45.114286249287524" lon="3.1325948241106367"><ele>1080.0</ele><time>2026-04-18T10:16:10Z</time></trkpt><trkpt lat="45.11409753551302" lon="3.132574311438444"><ele>1080.3333333333333</ele><time>2026-04-18T10:16:11Z</time></trkpt><trkpt lat="45.11390149008521" lon="3.1325514238705066"><ele>1080.6666666666665</ele><time>2026-04-18T10:16:12Z</time></trkpt><trkpt lat="45.11369813161438" lon="3.1325303663786945"><ele>1081.0</ele><time>2026-04-18T10:16:13Z</time></trkpt><trkpt lat="45.113467600942066" lon="3.1325033108338296"><ele>1081.0</ele><time>2026-04-18T10:16:14Z</time></trkpt><trkpt lat="45.113241357676806" lon="3.1324802937661658"><ele>1081.0</ele><time>2026-04-18T10:16:15Z</time></trkpt><trkpt lat="45.11303172355966" lon="3.13245700157205"><ele>1081.0</ele><time>2026-04-18T10:16:16Z</time></trkpt><trkpt lat="45.11282853706876" lon="3.132436076523068"><ele>1081.6666666666665</ele><time>2026-04-18T10:16:17Z</time></trkpt><trkpt lat="45.11262137850179" lon="3.1324110819775894"><ele>1082.3333333333333</ele><time>2026-04-18T10:16:18Z</time></trkpt><trkpt lat="45.112418280168576" lon="3.1323896307539982"><ele>1083.0</ele><time>2026-04-18T10:16:19Z</time></trkpt><trkpt lat="45.11220869862162" lon="3.1323733358406103"><ele>1084.6666666666667</ele><time>2026-04-18T10:16:20Z</time></trkpt><trkpt lat="45.11200007300149" lon="3.132354381889639"><ele>1086.3333333333335</ele><time>2026-04-18T10:16:21Z</time></trkpt><trkpt lat="45.111800720284634" lon="3.132326606600489"><ele>1088.0</ele><time>2026-04-18T10:16:22Z</time></trkpt><trkpt lat="45.111592616349704" lon="3.1322993320961823"><ele>1088.6666666666667</ele><time>2026-04-18T10:16:23Z</time></trkpt><trkpt lat="45.111387302725646" lon="3.1322670207326246"><ele>1089.3333333333333</ele><time>2026-04-18T10:16:24Z</time></trkpt><trkpt lat="45.111172709351635" lon="3.132238365575055"><ele>1090.0</ele><time>2026-04-18T10:16:25Z</time></trkpt><trkpt lat="45.110956113675755" lon="3.1322136627328274"><ele>1096.0</ele><time>2026-04-18T10:16:26Z</time></trkpt><trkpt lat="45.110727225704714" lon="3.1321908138733563"><ele>1102.0</ele><time>2026-04-18T10:16:27Z</time></trkpt><trkpt lat="45.11050363474875" lon="3.1321748434121583"><ele>1102.0</ele><time>2026-04-18T10:16:28Z</time></trkpt><trkpt lat="45.1102838366253" lon="3.1321967260804753"><ele>1102.0</ele><time>2026-04-18T10:16:29Z</time></trkpt><trkpt lat="45.1100738961497" lon="3.132261310044875"><ele>1102.0</ele><time>2026-04-18T10:16:30Z</time></trkpt><trkpt lat="45.109883463773485" lon="3.132348252842278"><ele>1102.0</ele><time>2026-04-18T10:16:31Z</time></trkpt><trkpt lat="45.1097222228573" lon="3.1324360684996644"><ele>1102.0</ele><time>2026-04-18T10:16:32Z</time></trkpt><trkpt lat="45.1095580917615" lon="3.132502895780625"><ele>1102.0</ele><time>2026-04-18T10:16:33Z</time></trkpt><trkpt lat="45.10939614613218" lon="3.132532202967522"><ele>1102.0</ele><time>2026-04-18T10:16:34Z</time></trkpt><trkpt lat="45.10923431590944" lon="3.1324601372588456"><ele>1102.0</ele><time>2026-04-18T10:16:35Z</time></trkpt><trkpt lat="45.10906877397528" lon="3.132379172567115"><ele>1102.0</ele><time>2026-04-18T10:16:36Z</time></trkpt><trkpt lat="45.10891801651771" lon="3.1323084315851846"><ele>1103.6666666666665</ele><time>2026-04-18T10:16:37Z</time></trkpt><trkpt lat="45.10876701204864" lon="3.132214463703365"><ele>1105.3333333333333</ele><time>2026-04-18T10:16:38Z</time></trkpt><trkpt lat="45.108612177452095" lon="3.132128134322742"><ele>1107.0</ele><time>2026-04-18T10:16:39Z</time></trkpt><trkpt lat="45.108446907808876" lon="3.132037558656249"><ele>1107.0</ele><time>2026-04-18T10:16:40Z</time></trkpt><trkpt lat="45.1082807200233" lon="3.1319474292355665"><ele>1107.0</ele><time>2026-04-18T10:16:41Z</time></trkpt><trkpt lat="45.10810971299983" lon="3.131856569597755"><ele>1107.0</ele><time>2026-04-18T10:16:42Z</time></trkpt><trkpt lat="45.107933345364955" lon="3.1317582217689486"><ele>1106.3333333333333</ele><time>2026-04-18T10:16:43Z</time></trkpt><trkpt lat="45.10775638911131" lon="3.131658699819561"><ele>1105.6666666666665</ele><time>2026-04-18T10:16:44Z</time></trkpt><trkpt lat="45.1075786274186" lon="3.1315628082294076"><ele>1105.0</ele><time>2026-04-18T10:16:45Z</time></trkpt><trkpt lat="45.10739541822088" lon="3.1314613144803314"><ele>1104.3333333333333</ele><time>2026-04-18T10:16:46Z</time></trkpt><trkpt lat="45.10721180149467" lon="3.131361056530847"><ele>1103.6666666666667</ele><time>2026-04-18T10:16:47Z</time></trkpt><trkpt lat="45.10703173542306" lon="3.131262936812464"><ele>1103.0</ele><time>2026-04-18T10:16:48Z</time></trkpt><trkpt lat="45.10685107077765" lon="3.1311641975686606"><ele>1103.0</ele><time>2026-04-18T10:16:49Z</time></trkpt><trkpt lat="45.10667601150728" lon="3.1310659279514"><ele>1103.0</ele><time>2026-04-18T10:16:50Z</time></trkpt><trkpt lat="45.10649207156167" lon="3.130954019782135"><ele>1103.0</ele><time>2026-04-18T10:16:51Z</time></trkpt><trkpt lat="45.10631603281427" lon="3.130848181658838"><ele>1102.6666666666667</ele><time>2026-04-18T10:16:52Z</time></trkpt><trkpt lat="45.106130911407" lon="3.130717239333257"><ele>1102.3333333333333</ele><time>2026-04-18T10:16:53Z</time></trkpt><trkpt lat="45.10598084845034" lon="3.130554641400846"><ele>1102.0</ele><time>2026-04-18T10:16:54Z</time></trkpt><trkpt lat="45.10582056536961" lon="3.1303902339223892"><ele>1102.0</ele><time>2026-04-18T10:16:55Z</time></trkpt><trkpt lat="45.10566547520726" lon="3.1301965301768737"><ele>1102.0</ele><time>2026-04-18T10:16:56Z</time></trkpt><trkpt lat="45.10551072811324" lon="3.1300420252719006"><ele>1102.0</ele><time>2026-04-18T10:16:57Z</time></trkpt><trkpt lat="45.105346459942176" lon="3.1298974689864685"><ele>1102.6666666666665</ele><time>2026-04-18T10:16:58Z</time></trkpt><trkpt lat="45.10517141412626" lon="3.1297646206790546"><ele>1103.3333333333333</ele><time>2026-04-18T10:16:59Z</time></trkpt><trkpt lat="45.10499960946398" lon="3.129659740472733"><ele>1104.0</ele><time>2026-04-18T10:17:00Z</time></trkpt><trkpt lat="45.10481421126594" lon="3.129539316832009"><ele>1104.0</ele><time>2026-04-18T10:17:01Z</time></trkpt><trkpt lat="45.10463359115929" lon="3.129437838285059"><ele>1104.0</ele><time>2026-04-18T10:17:02Z</time></trkpt><trkpt lat="45.10444785511779" lon="3.1293534533990015"><ele>1104.0</ele><time>2026-04-18T10:17:03Z</time></trkpt><trkpt lat="45.104253174789335" lon="3.129280316877576"><ele>1103.6666666666667</ele><time>2026-04-18T10:17:04Z</time></trkpt><trkpt lat="45.10406173702311" lon="3.129237420395435"><ele>1103.3333333333335</ele><time>2026-04-18T10:17:05Z</time></trkpt><trkpt lat="45.103856016317025" lon="3.1291953188602974"><ele>1103.0</ele><time>2026-04-18T10:17:06Z</time></trkpt><trkpt lat="45.103651893379535" lon="3.1291669515118357"><ele>1103.0</ele><time>2026-04-18T10:17:07Z</time></trkpt><trkpt lat="45.103452142163036" lon="3.129143994743214"><ele>1103.0</ele><time>2026-04-18T10:17:08Z</time></trkpt><trkpt lat="45.10324920001737" lon="3.1291097282222187"><ele>1103.0</ele><time>2026-04-18T10:17:09Z</time></trkpt><trkpt lat="45.10304935034808" lon="3.129056281391019"><ele>1105.0</ele><time>2026-04-18T10:17:10Z</time></trkpt><trkpt lat="45.102877979346914" lon="3.1289472075258766"><ele>1107.0</ele><time>2026-04-18T10:17:11Z</time></trkpt><trkpt lat="45.10268991273234" lon="3.1288429719405033"><ele>1109.0</ele><time>2026-04-18T10:17:12Z</time></trkpt><trkpt lat="45.10251199054946" lon="3.128745183250164"><ele>1109.3333333333335</ele><time>2026-04-18T10:17:13Z</time></trkpt><trkpt lat="45.102326870724454" lon="3.128663380109073"><ele>1109.6666666666667</ele><time>2026-04-18T10:17:14Z</time></trkpt><trkpt lat="45.10215279036701" lon="3.128563864618448"><ele>1110.0</ele><time>2026-04-18T10:17:15Z</time></trkpt><trkpt lat="45.1019794735931" lon="3.1284657838974748"><ele>1110.0</ele><time>2026-04-18T10:17:16Z</time></trkpt><trkpt lat="45.10180370126356" lon="3.1283647329101316"><ele>1110.0</ele><time>2026-04-18T10:17:17Z</time></trkpt><trkpt lat="45.1016343701576" lon="3.1282772357417925"><ele>1110.0</ele><time>2026-04-18T10:17:18Z</time></trkpt><trkpt lat="45.10148043263438" lon="3.128197391783041"><ele>1110.75</ele><time>2026-04-18T10:17:19Z</time></trkpt><trkpt lat="45.10133573823116" lon="3.128112920867669"><ele>1111.5</ele><time>2026-04-18T10:17:20Z</time></trkpt><trkpt lat="45.101202191124806" lon="3.128043519384602"><ele>1112.25</ele><time>2026-04-18T10:17:21Z</time></trkpt><trkpt lat="45.101072445090736" lon="3.1279679487273846"><ele>1113.0</ele><time>2026-04-18T10:17:22Z</time></trkpt><trkpt lat="45.100949968966155" lon="3.1279034030441757"><ele>1113.0</ele><time>2026-04-18T10:17:23Z</time></trkpt><trkpt lat="45.100835421260946" lon="3.12784211084013"><ele>1113.0</ele><time>2026-04-18T10:17:24Z</time></trkpt><trkpt lat="45.10072339301325" lon="3.127780227304178"><ele>1113.0</ele><time>2026-04-18T10:17:25Z</time></trkpt><trkpt lat="45.10061606962014" lon="3.127716569577461"><ele>1113.0</ele><time>2026-04-18T10:17:26Z</time></trkpt><trkpt lat="45.10051235238391" lon="3.1276575189895923"><ele>1111.2</ele><time>2026-04-18T10:17:27Z</time></trkpt><trkpt lat="45.100410928360915" lon="3.127618062608662"><ele>1109.4</ele><time>2026-04-18T10:17:28Z</time></trkpt><trkpt lat="45.100308780148374" lon="3.127603886834139"><ele>1107.6000000000001</ele><time>2026-04-18T10:17:29Z</time></trkpt><trkpt lat="45.10020238081757" lon="3.127619659350216"><ele>1105.8</ele><time>2026-04-18T10:17:30Z</time></trkpt><trkpt lat="45.10009201963327" lon="3.1276710886346355"><ele>1104.0</ele><time>2026-04-18T10:17:31Z</time></trkpt><trkpt lat="45.09999279574941" lon="3.1277684119450235"><ele>1100.3333333333333</ele><time>2026-04-18T10:17:32Z</time></trkpt><trkpt lat="45.09988720822932" lon="3.127891042382754"><ele>1096.6666666666665</ele><time>2026-04-18T10:17:33Z</time></trkpt><trkpt lat="45.09976378973834" lon="3.128035246632831"><ele>1093.0</ele><time>2026-04-18T10:17:34Z</time></trkpt><trkpt lat="45.09961668691644" lon="3.1281713057457967"><ele>1094.3333333333333</ele><time>2026-04-18T10:17:35Z</time></trkpt><trkpt lat="45.09948654448492" lon="3.1283106948383272"><ele>1095.6666666666667</ele><time>2026-04-18T10:17:36Z</time></trkpt><trkpt lat="45.09935994285815" lon="3.128444896404074"><ele>1097.0</ele><time>2026-04-18T10:17:37Z</time></trkpt><trkpt lat="45.099247199176226" lon="3.1285699729538874"><ele>1097.0</ele><time>2026-04-18T10:17:38Z</time></trkpt><trkpt lat="45.099136836067444" lon="3.1287120355105515"><ele>1097.0</ele><time>2026-04-18T10:17:39Z</time></trkpt><trkpt lat="45.09901763367771" lon="3.12879740595165"><ele>1097.0</ele><time>2026-04-18T10:17:40Z</time></trkpt><trkpt lat="45.098890523676566" lon="3.128845887519516"><ele>1097.0</ele><time>2026-04-18T10:17:41Z</time></trkpt><trkpt lat="45.09875146016222" lon="3.128836220336728"><ele>1093.3333333333335</ele><time>2026-04-18T10:17:42Z</time></trkpt><trkpt lat="45.09863144277851" lon="3.1287166288891295"><ele>1089.6666666666667</ele><time>2026-04-18T10:17:43Z</time></trkpt><trkpt lat="45.09849286056596" lon="3.128631709686475"><ele>1086.0</ele><time>2026-04-18T10:17:44Z</time></trkpt><trkpt lat="45.09836180604283" lon="3.1284895746325505"><ele>1084.3333333333333</ele><time>2026-04-18T10:17:45Z</time></trkpt><trkpt lat="45.09822510741573" lon="3.1283601468023736"><ele>1082.6666666666665</ele><time>2026-04-18T10:17:46Z</time></trkpt><trkpt lat="45.0980762797209" lon="3.12822761211552"><ele>1081.0</ele><time>2026-04-18T10:17:47Z</time></trkpt><trkpt lat="45.09792205555351" lon="3.128084968504123"><ele>1081.0</ele><time>2026-04-18T10:17:48Z</time></trkpt><trkpt lat="45.097757435395174" lon="3.1279025261927615"><ele>1081.0</ele><time>2026-04-18T10:17:49Z</time></trkpt><trkpt lat="45.0975725429653" lon="3.1276740160527408"><ele>1078.0</ele><time>2026-04-18T10:17:50Z</time></trkpt><trkpt lat="45.09738182173441" lon="3.1274424493997053"><ele>1075.0</ele><time>2026-04-18T10:17:51Z</time></trkpt><trkpt lat="45.097200228212394" lon="3.12723106463495"><ele>1073.6666666666665</ele><time>2026-04-18T10:17:52Z</time></trkpt><trkpt lat="45.097028781597814" lon="3.127039543431675"><ele>1072.3333333333333</ele><time>2026-04-18T10:17:53Z</time></trkpt><trkpt lat="45.09686361722595" lon="3.1268519999023536"><ele>1071.0</ele><time>2026-04-18T10:17:54Z</time></trkpt><trkpt lat="45.09673078316204" lon="3.126702226618572"><ele>1071.0</ele><time>2026-04-18T10:17:55Z</time></trkpt><trkpt lat="45.0966139698266" lon="3.1265642341592557"><ele>1071.0</ele><time>2026-04-18T10:17:56Z</time></trkpt><trkpt lat="45.09651779390533" lon="3.1264511537694926"><ele>1071.0</ele><time>2026-04-18T10:17:57Z</time></trkpt><trkpt lat="45.09643346534943" lon="3.126349586742055"><ele>1071.0</ele><time>2026-04-18T10:17:58Z</time></trkpt><trkpt lat="45.09637580747511" lon="3.1262431857068407"><ele>1070.3333333333333</ele><time>2026-04-18T10:17:59Z</time></trkpt><trkpt lat="45.09637181296408" lon="3.1261149490674205"><ele>1069.6666666666667</ele><time>2026-04-18T10:18:00Z</time></trkpt><trkpt lat="45.09637521754929" lon="3.125995567791292"><ele>1069.0</ele><time>2026-04-18T10:18:01Z</time></trkpt><trkpt lat="45.096359765483555" lon="3.1258839213024747"><ele>1068.3333333333335</ele><time>2026-04-18T10:18:02Z</time></trkpt><trkpt lat="45.09633225267046" lon="3.1257723319102197"><ele>1067.6666666666667</ele><time>2026-04-18T10:18:03Z</time></trkpt><trkpt lat="45.0963027947557" lon="3.125660248057155"><ele>1067.0</ele><time>2026-04-18T10:18:04Z</time></trkpt><trkpt lat="45.096279683022765" lon="3.125542710247443"><ele>1067.0</ele><time>2026-04-18T10:18:05Z</time></trkpt><trkpt lat="45.096285350312215" lon="3.1254314616106966"><ele>1067.0</ele><time>2026-04-18T10:18:06Z</time></trkpt><trkpt lat="45.09630853469137" lon="3.125218932231985"><ele>1067.0</ele><time>2026-04-18T10:18:08Z</time></trkpt><trkpt lat="45.09626353231204" lon="3.1251407968856975"><ele>1067.0</ele><time>2026-04-18T10:18:09Z</time></trkpt><trkpt lat="45.096193499817325" lon="3.125116448157186"><ele>1067.0</ele><time>2026-04-18T10:18:10Z</time></trkpt><trkpt lat="45.096108536779894" lon="3.1251113103268082"><ele>1067.0</ele><time>2026-04-18T10:18:11Z</time></trkpt><trkpt lat="45.09601260714112" lon="3.1251120302004427"><ele>1067.0</ele><time>2026-04-18T10:18:12Z</time></trkpt><trkpt lat="45.09592476814333" lon="3.1251218177945383"><ele>1067.0</ele><time>2026-04-18T10:18:13Z</time></trkpt><trkpt lat="45.095851095403546" lon="3.125148781663757"><ele>1067.0</ele><time>2026-04-18T10:18:14Z</time></trkpt><trkpt lat="45.09578478281656" lon="3.1251831622514845"><ele>1067.0</ele><time>2026-04-18T10:18:15Z</time></trkpt><trkpt lat="45.0957047746346" lon="3.1252352066938"><ele>1067.0</ele><time>2026-04-18T10:18:16Z</time></trkpt><trkpt lat="45.09563150001993" lon="3.125300971096966"><ele>1066.3333333333335</ele><time>2026-04-18T10:18:17Z</time></trkpt><trkpt lat="45.09555846227255" lon="3.1253742962935265"><ele>1065.6666666666667</ele><time>2026-04-18T10:18:18Z</time></trkpt><trkpt lat="45.095493388962275" lon="3.125446492289745"><ele>1065.0</ele><time>2026-04-18T10:18:19Z</time></trkpt><trkpt lat="45.095433435372264" lon="3.125512649792834"><ele>1064.3333333333333</ele><time>2026-04-18T10:18:20Z</time></trkpt><trkpt lat="45.09535606124779" lon="3.1255483618562456"><ele>1063.6666666666665</ele><time>2026-04-18T10:18:21Z</time></trkpt><trkpt lat="45.09526546416955" lon="3.125528966196689"><ele>1063.0</ele><time>2026-04-18T10:18:22Z</time></trkpt><trkpt lat="45.095182570031305" lon="3.1254771571958315"><ele>1063.0</ele><time>2026-04-18T10:18:23Z</time></trkpt><trkpt lat="45.09509362836706" lon="3.125402911381345"><ele>1063.0</ele><time>2026-04-18T10:18:24Z</time></trkpt><trkpt lat="45.09501367997663" lon="3.1253193676394777"><ele>1063.0</ele><time>2026-04-18T10:18:25Z</time></trkpt><trkpt lat="45.094927298438975" lon="3.1252311108720274"><ele>1063.0</ele><time>2026-04-18T10:18:26Z</time></trkpt><trkpt lat="45.09482892026784" lon="3.1251511630599142"><ele>1063.0</ele><time>2026-04-18T10:18:27Z</time></trkpt><trkpt lat="45.094727454439955" lon="3.1250667068562747"><ele>1062.0</ele><time>2026-04-18T10:18:28Z</time></trkpt><trkpt lat="45.0946237414439" lon="3.124980341178253"><ele>1061.0</ele><time>2026-04-18T10:18:29Z</time></trkpt><trkpt lat="45.09452171580472" lon="3.124894022530403"><ele>1060.0</ele><time>2026-04-18T10:18:30Z</time></trkpt><trkpt lat="45.094417279289864" lon="3.1248094625814824"><ele>1059.0</ele><time>2026-04-18T10:18:31Z</time></trkpt><trkpt lat="45.09430658672351" lon="3.1247155179282404"><ele>1058.5</ele><time>2026-04-18T10:18:32Z</time></trkpt><trkpt lat="45.09419210104695" lon="3.1246206149278475"><ele>1058.0</ele><time>2026-04-18T10:18:33Z</time></trkpt><trkpt lat="45.094070956721296" lon="3.1245268763822556"><ele>1057.5</ele><time>2026-04-18T10:18:34Z</time></trkpt><trkpt lat="45.09394343027968" lon="3.124424074877024"><ele>1057.0</ele><time>2026-04-18T10:18:35Z</time></trkpt><trkpt lat="45.09381434675916" lon="3.1243158315117854"><ele>1055.3333333333333</ele><time>2026-04-18T10:18:36Z</time></trkpt><trkpt lat="45.09368187802921" lon="3.124205245571129"><ele>1053.6666666666667</ele><time>2026-04-18T10:18:37Z</time></trkpt><trkpt lat="45.093543232586704" lon="3.124086285488415"><ele>1052.0</ele><time>2026-04-18T10:18:38Z</time></trkpt><trkpt lat="45.09340470015673" lon="3.1239691069876736"><ele>1052.0</ele><time>2026-04-18T10:18:39Z</time></trkpt><trkpt lat="45.09326614486893" lon="3.1238459390832194"><ele>1052.0</ele><time>2026-04-18T10:18:40Z</time></trkpt><trkpt lat="45.09313070119116" lon="3.123729871175964"><ele>1052.0</ele><time>2026-04-18T10:18:41Z</time></trkpt><trkpt lat="45.09298927796797" lon="3.123614084912613"><ele>1050.3333333333335</ele><time>2026-04-18T10:18:42Z</time></trkpt><trkpt lat="45.09283878843135" lon="3.1234825592913626"><ele>1048.6666666666667</ele><time>2026-04-18T10:18:43Z</time></trkpt><trkpt lat="45.09268795739416" lon="3.123346916202183"><ele>1047.0</ele><time>2026-04-18T10:18:44Z</time></trkpt><trkpt lat="45.09253704747128" lon="3.1232034834990583"><ele>1043.6666666666667</ele><time>2026-04-18T10:18:45Z</time></trkpt><trkpt lat="45.09238435457823" lon="3.123053823766124"><ele>1040.3333333333335</ele><time>2026-04-18T10:18:46Z</time></trkpt><trkpt lat="45.092236915479" lon="3.122915155833692"><ele>1037.0</ele><time>2026-04-18T10:18:47Z</time></trkpt><trkpt lat="45.09208689912883" lon="3.1227627536092672"><ele>1037.0</ele><time>2026-04-18T10:18:48Z</time></trkpt><trkpt lat="45.09194217444752" lon="3.1226149393761444"><ele>1037.0</ele><time>2026-04-18T10:18:49Z</time></trkpt><trkpt lat="45.09179310858416" lon="3.12245055214823"><ele>1037.0</ele><time>2026-04-18T10:18:50Z</time></trkpt><trkpt lat="45.09164362866732" lon="3.1222878381978942"><ele>1034.6666666666667</ele><time>2026-04-18T10:18:51Z</time></trkpt><trkpt lat="45.09148753426314" lon="3.1221151405126393"><ele>1032.3333333333333</ele><time>2026-04-18T10:18:52Z</time></trkpt><trkpt lat="45.091326900240844" lon="3.1219209742219345"><ele>1030.0</ele><time>2026-04-18T10:18:53Z</time></trkpt><trkpt lat="45.09117090286881" lon="3.1217286432734834"><ele>1029.0</ele><time>2026-04-18T10:18:54Z</time></trkpt><trkpt lat="45.091016189771594" lon="3.121531683072197"><ele>1028.0</ele><time>2026-04-18T10:18:55Z</time></trkpt><trkpt lat="45.090865288615824" lon="3.1213340619506873"><ele>1027.0</ele><time>2026-04-18T10:18:56Z</time></trkpt><trkpt lat="45.090713858114434" lon="3.121125684391828"><ele>1026.0</ele><time>2026-04-18T10:18:57Z</time></trkpt><trkpt lat="45.09057076262508" lon="3.12092274354837"><ele>1025.0</ele><time>2026-04-18T10:18:58Z</time></trkpt><trkpt lat="45.090432113345116" lon="3.120726582621797"><ele>1024.0</ele><time>2026-04-18T10:18:59Z</time></trkpt><trkpt lat="45.090291316622384" lon="3.1205181371861053"><ele>1023.3333333333333</ele><time>2026-04-18T10:19:00Z</time></trkpt><trkpt lat="45.090150196296236" lon="3.1203137828164333"><ele>1022.6666666666667</ele><time>2026-04-18T10:19:01Z</time></trkpt><trkpt lat="45.0900071732855" lon="3.1201044972483003"><ele>1022.0</ele><time>2026-04-18T10:19:02Z</time></trkpt><trkpt lat="45.08986480633408" lon="3.1198845361780196"><ele>1019.6666666666667</ele><time>2026-04-18T10:19:03Z</time></trkpt><trkpt lat="45.08972225655416" lon="3.1196721430389722"><ele>1017.3333333333333</ele><time>2026-04-18T10:19:04Z</time></trkpt><trkpt lat="45.089575285863376" lon="3.1194433254200877"><ele>1015.0</ele><time>2026-04-18T10:19:05Z</time></trkpt><trkpt lat="45.08942382431382" lon="3.119235386287021"><ele>1014.6666666666666</ele><time>2026-04-18T10:19:06Z</time></trkpt><trkpt lat="45.08927476859771" lon="3.11902285721865"><ele>1014.3333333333333</ele><time>2026-04-18T10:19:07Z</time></trkpt><trkpt lat="45.0891357551617" lon="3.1188113104782036"><ele>1014.0</ele><time>2026-04-18T10:19:08Z</time></trkpt><trkpt lat="45.08899404020876" lon="3.1186035323346677"><ele>1012.6666666666667</ele><time>2026-04-18T10:19:09Z</time></trkpt><trkpt lat="45.08885073916597" lon="3.1183931263974474"><ele>1011.3333333333334</ele><time>2026-04-18T10:19:10Z</time></trkpt><trkpt lat="45.08871713967503" lon="3.1182032096961065"><ele>1010.0</ele><time>2026-04-18T10:19:11Z</time></trkpt><trkpt lat="45.08857963615501" lon="3.1180158154019306"><ele>1008.3333333333334</ele><time>2026-04-18T10:19:12Z</time></trkpt><trkpt lat="45.08844735110086" lon="3.117838763501732"><ele>1006.6666666666667</ele><time>2026-04-18T10:19:13Z</time></trkpt><trkpt lat="45.08831608748669" lon="3.1176500196643437"><ele>1005.0</ele><time>2026-04-18T10:19:14Z</time></trkpt><trkpt lat="45.08819555185661" lon="3.1174573787548883"><ele>1003.3333333333333</ele><time>2026-04-18T10:19:15Z</time></trkpt><trkpt lat="45.08808038711233" lon="3.1172397218422936"><ele>1001.6666666666666</ele><time>2026-04-18T10:19:16Z</time></trkpt><trkpt lat="45.087962846238256" lon="3.1170234702670014"><ele>1000.0</ele><time>2026-04-18T10:19:17Z</time></trkpt><trkpt lat="45.08783478038019" lon="3.116823647072274"><ele>1000.0</ele><time>2026-04-18T10:19:18Z</time></trkpt><trkpt lat="45.08769806321665" lon="3.116622596370458"><ele>1000.0</ele><time>2026-04-18T10:19:19Z</time></trkpt><trkpt lat="45.08756095925385" lon="3.116433917760841"><ele>1000.0</ele><time>2026-04-18T10:19:20Z</time></trkpt><trkpt lat="45.08742126220853" lon="3.1162647223398876"><ele>997.0</ele><time>2026-04-18T10:19:21Z</time></trkpt><trkpt lat="45.08726357061244" lon="3.1161051686656984"><ele>994.0</ele><time>2026-04-18T10:19:22Z</time></trkpt><trkpt lat="45.0871004887542" lon="3.115972340976163"><ele>991.0</ele><time>2026-04-18T10:19:23Z</time></trkpt><trkpt lat="45.08691328368908" lon="3.1158507106896285"><ele>991.0</ele><time>2026-04-18T10:19:24Z</time></trkpt><trkpt lat="45.086727061340646" lon="3.11576185209017"><ele>991.0</ele><time>2026-04-18T10:19:25Z</time></trkpt><trkpt lat="45.086538257575725" lon="3.1157048545647044"><ele>991.0</ele><time>2026-04-18T10:19:26Z</time></trkpt><trkpt lat="45.08634131904639" lon="3.115664791312097"><ele>986.3333333333333</ele><time>2026-04-18T10:19:27Z</time></trkpt><trkpt lat="45.08614496422473" lon="3.115648964885063"><ele>981.6666666666667</ele><time>2026-04-18T10:19:28Z</time></trkpt><trkpt lat="45.085942553156364" lon="3.115650377089418"><ele>977.0</ele><time>2026-04-18T10:19:29Z</time></trkpt><trkpt lat="45.08575826452467" lon="3.115679616639149"><ele>977.6666666666667</ele><time>2026-04-18T10:19:30Z</time></trkpt><trkpt lat="45.085574337586145" lon="3.1157340827796873"><ele>978.3333333333333</ele><time>2026-04-18T10:19:31Z</time></trkpt><trkpt lat="45.085392840158995" lon="3.1158123814327663"><ele>979.0</ele><time>2026-04-18T10:19:32Z</time></trkpt><trkpt lat="45.08520104865921" lon="3.1159126553716403"><ele>979.0</ele><time>2026-04-18T10:19:33Z</time></trkpt><trkpt lat="45.0850205478032" lon="3.1160245224325687"><ele>979.0</ele><time>2026-04-18T10:19:34Z</time></trkpt><trkpt lat="45.084838160275204" lon="3.116156147945669"><ele>979.0</ele><time>2026-04-18T10:19:35Z</time></trkpt><trkpt lat="45.08465895196448" lon="3.116306437840658"><ele>975.6666666666666</ele><time>2026-04-18T10:19:36Z</time></trkpt><trkpt lat="45.08448890614364" lon="3.1164736700005315"><ele>972.3333333333333</ele><time>2026-04-18T10:19:37Z</time></trkpt><trkpt lat="45.08432265101007" lon="3.1166364186023254"><ele>969.0</ele><time>2026-04-18T10:19:38Z</time></trkpt><trkpt lat="45.0841702941069" lon="3.1167886164996434"><ele>964.0</ele><time>2026-04-18T10:19:39Z</time></trkpt><trkpt lat="45.084010058081" lon="3.116942981746451"><ele>959.0</ele><time>2026-04-18T10:19:40Z</time></trkpt><trkpt lat="45.08383911004655" lon="3.1170920735528496"><ele>954.0</ele><time>2026-04-18T10:19:41Z</time></trkpt><trkpt lat="45.08366289712747" lon="3.1172293627459178"><ele>954.0</ele><time>2026-04-18T10:19:42Z</time></trkpt><trkpt lat="45.08347832652643" lon="3.1173371612268364"><ele>954.0</ele><time>2026-04-18T10:19:43Z</time></trkpt><trkpt lat="45.08328158175114" lon="3.117421986913617"><ele>954.0</ele><time>2026-04-18T10:19:44Z</time></trkpt><trkpt lat="45.08308665361987" lon="3.1175036997713694"><ele>954.0</ele><time>2026-04-18T10:19:45Z</time></trkpt><trkpt lat="45.08289588367693" lon="3.1175826608643646"><ele>954.0</ele><time>2026-04-18T10:19:46Z</time></trkpt><trkpt lat="45.082701243057514" lon="3.1176487913330466"><ele>954.0</ele><time>2026-04-18T10:19:47Z</time></trkpt><trkpt lat="45.0825024403821" lon="3.1176858988076916"><ele>953.3333333333333</ele><time>2026-04-18T10:19:48Z</time></trkpt><trkpt lat="45.08229774371802" lon="3.1176750561890363"><ele>952.6666666666666</ele><time>2026-04-18T10:19:49Z</time></trkpt><trkpt lat="45.08209762496845" lon="3.1176361786531053"><ele>952.0</ele><time>2026-04-18T10:19:50Z</time></trkpt><trkpt lat="45.081891738612114" lon="3.117583082608377"><ele>952.0</ele><time>2026-04-18T10:19:51Z</time></trkpt><trkpt lat="45.08168898250582" lon="3.117514365941356"><ele>952.0</ele><time>2026-04-18T10:19:52Z</time></trkpt><trkpt lat="45.081487917699164" lon="3.1174340417217126"><ele>952.0</ele><time>2026-04-18T10:19:53Z</time></trkpt><trkpt lat="45.08129260716262" lon="3.1173536828593846"><ele>949.6666666666666</ele><time>2026-04-18T10:19:54Z</time></trkpt><trkpt lat="45.08109513325838" lon="3.117273707808214"><ele>947.3333333333333</ele><time>2026-04-18T10:19:55Z</time></trkpt><trkpt lat="45.080901274005456" lon="3.117190750420724"><ele>945.0</ele><time>2026-04-18T10:19:56Z</time></trkpt><trkpt lat="45.08070699767139" lon="3.117103119760109"><ele>944.3333333333333</ele><time>2026-04-18T10:19:57Z</time></trkpt><trkpt lat="45.08050989955233" lon="3.117016348235434"><ele>943.6666666666666</ele><time>2026-04-18T10:19:58Z</time></trkpt><trkpt lat="45.08031040170905" lon="3.1169279186453096"><ele>943.0</ele><time>2026-04-18T10:19:59Z</time></trkpt><trkpt lat="45.08010857701051" lon="3.1168380518151415"><ele>941.3333333333333</ele><time>2026-04-18T10:20:00Z</time></trkpt><trkpt lat="45.07990544071593" lon="3.1167499425510004"><ele>939.6666666666667</ele><time>2026-04-18T10:20:01Z</time></trkpt><trkpt lat="45.0797053513152" lon="3.1166629851693743"><ele>938.0</ele><time>2026-04-18T10:20:02Z</time></trkpt><trkpt lat="45.07951887444698" lon="3.1165771431194966"><ele>938.6666666666667</ele><time>2026-04-18T10:20:03Z</time></trkpt><trkpt lat="45.079339134412166" lon="3.116492998540113"><ele>939.3333333333333</ele><time>2026-04-18T10:20:04Z</time></trkpt><trkpt lat="45.07915207950291" lon="3.116409026243552"><ele>940.0</ele><time>2026-04-18T10:20:05Z</time></trkpt><trkpt lat="45.07896006230983" lon="3.1163320089872215"><ele>940.0</ele><time>2026-04-18T10:20:06Z</time></trkpt><trkpt lat="45.078759304704256" lon="3.116239401471093"><ele>940.0</ele><time>2026-04-18T10:20:07Z</time></trkpt><trkpt lat="45.078572583360064" lon="3.1161540304600437"><ele>940.0</ele><time>2026-04-18T10:20:08Z</time></trkpt><trkpt lat="45.07837572850816" lon="3.116070510647215"><ele>938.3333333333333</ele><time>2026-04-18T10:20:09Z</time></trkpt><trkpt lat="45.07819035191098" lon="3.1159895660653585"><ele>936.6666666666667</ele><time>2026-04-18T10:20:10Z</time></trkpt><trkpt lat="45.0779955785313" lon="3.115908549321196"><ele>935.0</ele><time>2026-04-18T10:20:11Z</time></trkpt><trkpt lat="45.07780298377986" lon="3.1158241253535164"><ele>935.0</ele><time>2026-04-18T10:20:12Z</time></trkpt><trkpt lat="45.077629156827676" lon="3.115742405905778"><ele>935.0</ele><time>2026-04-18T10:20:13Z</time></trkpt><trkpt lat="45.07744945989587" lon="3.115662972315406"><ele>935.0</ele><time>2026-04-18T10:20:14Z</time></trkpt><trkpt lat="45.077282292712184" lon="3.1155882701503224"><ele>935.3333333333334</ele><time>2026-04-18T10:20:15Z</time></trkpt><trkpt lat="45.07710750696863" lon="3.1155122684008156"><ele>935.6666666666667</ele><time>2026-04-18T10:20:16Z</time></trkpt><trkpt lat="45.07693418446617" lon="3.1154293686076886"><ele>936.0</ele><time>2026-04-18T10:20:17Z</time></trkpt><trkpt lat="45.0767670851355" lon="3.1153518609652737"><ele>936.0</ele><time>2026-04-18T10:20:18Z</time></trkpt><trkpt lat="45.07660943701458" lon="3.1152862106367474"><ele>936.0</ele><time>2026-04-18T10:20:19Z</time></trkpt><trkpt lat="45.07647310623251" lon="3.1152239424527313"><ele>936.0</ele><time>2026-04-18T10:20:20Z</time></trkpt><trkpt lat="45.07635990948943" lon="3.1151695745690047"><ele>936.0</ele><time>2026-04-18T10:20:21Z</time></trkpt><trkpt lat="45.07626937445702" lon="3.115126792959932"><ele>934.5</ele><time>2026-04-18T10:20:22Z</time></trkpt><trkpt lat="45.076193390946116" lon="3.1150933993862764"><ele>933.0</ele><time>2026-04-18T10:20:23Z</time></trkpt><trkpt lat="45.076113525609465" lon="3.115056350947922"><ele>931.5</ele><time>2026-04-18T10:20:24Z</time></trkpt><trkpt lat="45.07603072735285" lon="3.1150214802852383"><ele>930.0</ele><time>2026-04-18T10:20:25Z</time></trkpt><trkpt lat="45.07594612303883" lon="3.114989364712761"><ele>928.5</ele><time>2026-04-18T10:20:26Z</time></trkpt><trkpt lat="45.07585409386471" lon="3.1149524912554285"><ele>927.0</ele><time>2026-04-18T10:20:27Z</time></trkpt><trkpt lat="45.075751858937146" lon="3.1149058348123257"><ele>926.0</ele><time>2026-04-18T10:20:28Z</time></trkpt><trkpt lat="45.07565077453946" lon="3.114856592923701"><ele>925.0</ele><time>2026-04-18T10:20:29Z</time></trkpt><trkpt lat="45.075553585637074" lon="3.1148098117726595"><ele>924.0</ele><time>2026-04-18T10:20:30Z</time></trkpt><trkpt lat="45.07546111426325" lon="3.1147652569665114"><ele>923.0</ele><time>2026-04-18T10:20:31Z</time></trkpt><trkpt lat="45.07538155620794" lon="3.1147368238021387"><ele>922.0</ele><time>2026-04-18T10:20:32Z</time></trkpt><trkpt lat="45.075298070375254" lon="3.1147032509640775"><ele>922.0</ele><time>2026-04-18T10:20:33Z</time></trkpt><trkpt lat="45.075218569199144" lon="3.114669090938236"><ele>922.0</ele><time>2026-04-18T10:20:34Z</time></trkpt><trkpt lat="45.075121774422406" lon="3.1145878327518837"><ele>922.0</ele><time>2026-04-18T10:20:36Z</time></trkpt><trkpt lat="45.07506664777202" lon="3.1145081560449297"><ele>922.0</ele><time>2026-04-18T10:20:39Z</time></trkpt><trkpt lat="45.07504595537554" lon="3.1146060170491228"><ele>922.0</ele><time>2026-04-18T10:20:58Z</time></trkpt><trkpt lat="45.07505755716083" lon="3.1148421735488223"><ele>922.2</ele><time>2026-04-18T10:21:00Z</time></trkpt><trkpt lat="45.075108410304175" lon="3.1149081944494954"><ele>922.4000000000001</ele><time>2026-04-18T10:21:01Z</time></trkpt><trkpt lat="45.07519745763947" lon="3.114999748680997"><ele>922.5999999999999</ele><time>2026-04-18T10:21:02Z</time></trkpt><trkpt lat="45.075278331669125" lon="3.1150579605554003"><ele>922.8</ele><time>2026-04-18T10:21:03Z</time></trkpt><trkpt lat="45.07535527994686" lon="3.1151140084613624"><ele>923.0</ele><time>2026-04-18T10:21:04Z</time></trkpt><trkpt lat="45.07545199671729" lon="3.1151857978622943"><ele>923.0</ele><time>2026-04-18T10:21:05Z</time></trkpt><trkpt lat="45.07555377324898" lon="3.115261342952559"><ele>923.0</ele><time>2026-04-18T10:21:06Z</time></trkpt><trkpt lat="45.07565632411726" lon="3.115337462684783"><ele>923.0</ele><time>2026-04-18T10:21:07Z</time></trkpt><trkpt lat="45.07576459609788" lon="3.1154574860665085"><ele>923.0</ele><time>2026-04-18T10:21:09Z</time></trkpt><trkpt lat="45.07581711809967" lon="3.115510007930776"><ele>923.0</ele><time>2026-04-18T10:21:10Z</time></trkpt><trkpt lat="45.07629661710836" lon="3.114946618768697"><ele>924.0</ele><time>2026-04-18T10:21:23Z</time></trkpt><trkpt lat="45.076393973009274" lon="3.114891763080236"><ele>925.0</ele><time>2026-04-18T10:21:25Z</time></trkpt><trkpt lat="45.07647316120497" lon="3.114760109812981"><ele>926.0</ele><time>2026-04-18T10:21:27Z</time></trkpt><trkpt lat="45.076506754002146" lon="3.1145932901570497"><ele>927.0</ele><time>2026-04-18T10:21:29Z</time></trkpt><trkpt lat="45.07651946239129" lon="3.1144999089920162"><ele>928.0</ele><time>2026-04-18T10:21:30Z</time></trkpt><trkpt lat="45.07653446459726" lon="3.1144002169592087"><ele>927.9999999999999</ele><time>2026-04-18T10:21:31Z</time></trkpt><trkpt lat="45.076546560559315" lon="3.114303437097608"><ele>928.0</ele><time>2026-04-18T10:21:32Z</time></trkpt><trkpt lat="45.07656195066011" lon="3.114137308560845"><ele>928.0</ele><time>2026-04-18T10:21:34Z</time></trkpt><trkpt lat="45.07656326886623" lon="3.1139612740187976"><ele>928.0</ele><time>2026-04-18T10:21:36Z</time></trkpt><trkpt lat="45.07656434131027" lon="3.1138654100826364"><ele>927.9999999999999</ele><time>2026-04-18T10:21:37Z</time></trkpt><trkpt lat="45.076569607339835" lon="3.113776077186896"><ele>928.0</ele><time>2026-04-18T10:21:38Z</time></trkpt><trkpt lat="45.076611960230345" lon="3.1136152191726247"><ele>929.5999999999999</ele><time>2026-04-18T10:21:40Z</time></trkpt><trkpt lat="45.07668168456391" lon="3.113517793683763"><ele>931.1999999999999</ele><time>2026-04-18T10:21:42Z</time></trkpt><trkpt lat="45.07675277242453" lon="3.1134757677093505"><ele>932.8</ele><time>2026-04-18T10:21:44Z</time></trkpt><trkpt lat="45.07685718799097" lon="3.113425033324307"><ele>934.4</ele><time>2026-04-18T10:21:46Z</time></trkpt><trkpt lat="45.07695848198303" lon="3.113352376965055"><ele>936.0</ele><time>2026-04-18T10:21:48Z</time></trkpt><trkpt lat="45.07700550227219" lon="3.1132101372643115"><ele>936.0</ele><time>2026-04-18T10:21:50Z</time></trkpt><trkpt lat="45.077016555903725" lon="3.1130607696351986"><ele>936.0</ele><time>2026-04-18T10:21:52Z</time></trkpt><trkpt lat="45.0770159837857" lon="3.112964145516525"><ele>936.0</ele><time>2026-04-18T10:21:53Z</time></trkpt><trkpt lat="45.07702702639711" lon="3.1128316525823205"><ele>936.0</ele><time>2026-04-18T10:21:55Z</time></trkpt><trkpt lat="45.07700903958892" lon="3.1127017257444316"><ele>936.0</ele><time>2026-04-18T10:21:57Z</time></trkpt><trkpt lat="45.07700787779155" lon="3.112580956984428"><ele>936.0</ele><time>2026-04-18T10:21:59Z</time></trkpt><trkpt lat="45.07701047681095" lon="3.1124469054967303"><ele>936.1666666666666</ele><time>2026-04-18T10:22:01Z</time></trkpt><trkpt lat="45.07701063598379" lon="3.1123093119514795"><ele>936.3333333333333</ele><time>2026-04-18T10:22:03Z</time></trkpt><trkpt lat="45.07701973252693" lon="3.112182616807185"><ele>936.5</ele><time>2026-04-18T10:22:05Z</time></trkpt><trkpt lat="45.077018270002135" lon="3.1120524759161405"><ele>936.6666666666666</ele><time>2026-04-18T10:22:07Z</time></trkpt><trkpt lat="45.07700915894669" lon="3.1119444057220833"><ele>936.8333333333333</ele><time>2026-04-18T10:22:09Z</time></trkpt><trkpt lat="45.07701604861113" lon="3.111854808107215"><ele>937.0</ele><time>2026-04-18T10:22:11Z</time></trkpt><trkpt lat="45.077028236710824" lon="3.1117496198014303"><ele>937.0</ele><time>2026-04-18T10:22:16Z</time></trkpt><trkpt lat="45.07716399816544" lon="3.111750668888312"><ele>937.0</ele><time>2026-04-18T10:25:34Z</time></trkpt></trkseg></trk></gpx>